<?xml version="1.0" encoding="UTF-8" standalone="no" ?>
<gpx xmlns="http://www.topografix.com/GPX/1/1" xmlns:xsi="http://www.w3.org/2001/XMLSchema-instance" xsi:schemaLocation="http://www.topografix.com/GPX/1/1 http://www.topografix.com/GPX/1/1/gpx.xsd" version="1.1" creator="VisuGPX - https://www.visugpx.com">
  <metadata>
    <name>GR800 J2 Picquigny,  Longpré-lès-corps-saints</name>
    <desc><![CDATA[Crouy-saint-Pierre, Hangest-sur-Somme,
bug non arrêt au retour]]></desc>
  </metadata>
  <trk>
    <name><![CDATA[GR800 J2 Picquigny,  Longpré-lès-corps-saints_1]]></name>
    <trkseg>
      <trkpt lat="49.94579" lon="2.14288">
        <ele>15.4</ele>
        <time>2022-04-12T08:20:30Z</time>
      </trkpt>
      <trkpt lat="49.94577" lon="2.1429">
        <ele>15.6</ele>
        <time>2022-04-12T08:20:31Z</time>
      </trkpt>
      <trkpt lat="49.94577" lon="2.14291">
        <ele>15.6</ele>
        <time>2022-04-12T08:20:32Z</time>
      </trkpt>
      <trkpt lat="49.94576" lon="2.14292">
        <ele>15.6</ele>
        <time>2022-04-12T08:20:34Z</time>
      </trkpt>
      <trkpt lat="49.94575" lon="2.14294">
        <ele>15.7</ele>
        <time>2022-04-12T08:20:35Z</time>
      </trkpt>
      <trkpt lat="49.94574" lon="2.14294">
        <ele>15.7</ele>
        <time>2022-04-12T08:20:37Z</time>
      </trkpt>
      <trkpt lat="49.94573" lon="2.14294">
        <ele>15.7</ele>
        <time>2022-04-12T08:20:38Z</time>
      </trkpt>
      <trkpt lat="49.94573" lon="2.14294">
        <ele>15.7</ele>
        <time>2022-04-12T08:20:39Z</time>
      </trkpt>
      <trkpt lat="49.94572" lon="2.14296">
        <ele>15.8</ele>
        <time>2022-04-12T08:20:40Z</time>
      </trkpt>
      <trkpt lat="49.94571" lon="2.14296">
        <ele>15.8</ele>
        <time>2022-04-12T08:20:42Z</time>
      </trkpt>
      <trkpt lat="49.94571" lon="2.14296">
        <ele>15.8</ele>
        <time>2022-04-12T08:20:43Z</time>
      </trkpt>
      <trkpt lat="49.94569" lon="2.14296">
        <ele>15.9</ele>
        <time>2022-04-12T08:20:44Z</time>
      </trkpt>
      <trkpt lat="49.94569" lon="2.14296">
        <ele>15.9</ele>
        <time>2022-04-12T08:20:45Z</time>
      </trkpt>
      <trkpt lat="49.94568" lon="2.14296">
        <ele>15.9</ele>
        <time>2022-04-12T08:20:47Z</time>
      </trkpt>
      <trkpt lat="49.94567" lon="2.14296">
        <ele>15.9</ele>
        <time>2022-04-12T08:20:48Z</time>
      </trkpt>
      <trkpt lat="49.94567" lon="2.14295">
        <ele>15.9</ele>
        <time>2022-04-12T08:20:49Z</time>
      </trkpt>
      <trkpt lat="49.94567" lon="2.14294">
        <ele>15.9</ele>
        <time>2022-04-12T08:20:51Z</time>
      </trkpt>
      <trkpt lat="49.94567" lon="2.14293">
        <ele>16</ele>
        <time>2022-04-12T08:20:52Z</time>
      </trkpt>
      <trkpt lat="49.94567" lon="2.14292">
        <ele>16</ele>
        <time>2022-04-12T08:20:54Z</time>
      </trkpt>
      <trkpt lat="49.94566" lon="2.14292">
        <ele>16</ele>
        <time>2022-04-12T08:20:55Z</time>
      </trkpt>
      <trkpt lat="49.94566" lon="2.14291">
        <ele>16</ele>
        <time>2022-04-12T08:20:56Z</time>
      </trkpt>
      <trkpt lat="49.94565" lon="2.14291">
        <ele>16</ele>
        <time>2022-04-12T08:20:58Z</time>
      </trkpt>
      <trkpt lat="49.94563" lon="2.14289">
        <ele>16.1</ele>
        <time>2022-04-12T08:21:00Z</time>
      </trkpt>
      <trkpt lat="49.94562" lon="2.14289">
        <ele>16.1</ele>
        <time>2022-04-12T08:21:02Z</time>
      </trkpt>
      <trkpt lat="49.94561" lon="2.14286">
        <ele>16.2</ele>
        <time>2022-04-12T08:21:03Z</time>
      </trkpt>
      <trkpt lat="49.94561" lon="2.14285">
        <ele>16.2</ele>
        <time>2022-04-12T08:21:04Z</time>
      </trkpt>
      <trkpt lat="49.94562" lon="2.14284">
        <ele>16.2</ele>
        <time>2022-04-12T08:21:05Z</time>
      </trkpt>
      <trkpt lat="49.94562" lon="2.14284">
        <ele>16.2</ele>
        <time>2022-04-12T08:21:06Z</time>
      </trkpt>
      <trkpt lat="49.94562" lon="2.14284">
        <ele>16.2</ele>
        <time>2022-04-12T08:21:07Z</time>
      </trkpt>
      <trkpt lat="49.94562" lon="2.14285">
        <ele>16.2</ele>
        <time>2022-04-12T08:21:08Z</time>
      </trkpt>
      <trkpt lat="49.94563" lon="2.14285">
        <ele>16.2</ele>
        <time>2022-04-12T08:21:09Z</time>
      </trkpt>
      <trkpt lat="49.94563" lon="2.14285">
        <ele>16.2</ele>
        <time>2022-04-12T08:21:10Z</time>
      </trkpt>
      <trkpt lat="49.94563" lon="2.14286">
        <ele>16.2</ele>
        <time>2022-04-12T08:21:11Z</time>
      </trkpt>
      <trkpt lat="49.94563" lon="2.14286">
        <ele>16.2</ele>
        <time>2022-04-12T08:21:12Z</time>
      </trkpt>
      <trkpt lat="49.94563" lon="2.14286">
        <ele>16.3</ele>
        <time>2022-04-12T08:21:13Z</time>
      </trkpt>
      <trkpt lat="49.94562" lon="2.14285">
        <ele>16.3</ele>
        <time>2022-04-12T08:21:14Z</time>
      </trkpt>
      <trkpt lat="49.94562" lon="2.14285">
        <ele>16.3</ele>
        <time>2022-04-12T08:21:16Z</time>
      </trkpt>
      <trkpt lat="49.94561" lon="2.14285">
        <ele>16.3</ele>
        <time>2022-04-12T08:21:17Z</time>
      </trkpt>
      <trkpt lat="49.94561" lon="2.14286">
        <ele>16.3</ele>
        <time>2022-04-12T08:21:18Z</time>
      </trkpt>
      <trkpt lat="49.94561" lon="2.14286">
        <ele>16.3</ele>
        <time>2022-04-12T08:21:19Z</time>
      </trkpt>
      <trkpt lat="49.94561" lon="2.14286">
        <ele>16.3</ele>
        <time>2022-04-12T08:21:20Z</time>
      </trkpt>
      <trkpt lat="49.94561" lon="2.14286">
        <ele>16.3</ele>
        <time>2022-04-12T08:21:21Z</time>
      </trkpt>
      <trkpt lat="49.94561" lon="2.14286">
        <ele>16.3</ele>
        <time>2022-04-12T08:21:23Z</time>
      </trkpt>
      <trkpt lat="49.9456" lon="2.14286">
        <ele>16.3</ele>
        <time>2022-04-12T08:21:24Z</time>
      </trkpt>
      <trkpt lat="49.9456" lon="2.14286">
        <ele>16.3</ele>
        <time>2022-04-12T08:21:25Z</time>
      </trkpt>
      <trkpt lat="49.9456" lon="2.14286">
        <ele>16.3</ele>
        <time>2022-04-12T08:21:27Z</time>
      </trkpt>
      <trkpt lat="49.9456" lon="2.14285">
        <ele>16.3</ele>
        <time>2022-04-12T08:21:28Z</time>
      </trkpt>
      <trkpt lat="49.94559" lon="2.14285">
        <ele>16.4</ele>
        <time>2022-04-12T08:21:29Z</time>
      </trkpt>
      <trkpt lat="49.94557" lon="2.14283">
        <ele>16.4</ele>
        <time>2022-04-12T08:21:31Z</time>
      </trkpt>
      <trkpt lat="49.94556" lon="2.14282">
        <ele>16.4</ele>
        <time>2022-04-12T08:21:32Z</time>
      </trkpt>
      <trkpt lat="49.94555" lon="2.14281">
        <ele>16.5</ele>
        <time>2022-04-12T08:21:33Z</time>
      </trkpt>
      <trkpt lat="49.94554" lon="2.14281">
        <ele>16.5</ele>
        <time>2022-04-12T08:21:35Z</time>
      </trkpt>
      <trkpt lat="49.94552" lon="2.14279">
        <ele>16.5</ele>
        <time>2022-04-12T08:21:36Z</time>
      </trkpt>
      <trkpt lat="49.94552" lon="2.14278">
        <ele>16.6</ele>
        <time>2022-04-12T08:21:37Z</time>
      </trkpt>
      <trkpt lat="49.94551" lon="2.14278">
        <ele>16.6</ele>
        <time>2022-04-12T08:21:38Z</time>
      </trkpt>
      <trkpt lat="49.94549" lon="2.14277">
        <ele>16.6</ele>
        <time>2022-04-12T08:21:40Z</time>
      </trkpt>
      <trkpt lat="49.94548" lon="2.14276">
        <ele>16.7</ele>
        <time>2022-04-12T08:21:41Z</time>
      </trkpt>
      <trkpt lat="49.94546" lon="2.14275">
        <ele>16.7</ele>
        <time>2022-04-12T08:21:42Z</time>
      </trkpt>
      <trkpt lat="49.94545" lon="2.14274">
        <ele>16.7</ele>
        <time>2022-04-12T08:21:43Z</time>
      </trkpt>
      <trkpt lat="49.94544" lon="2.14273">
        <ele>16.8</ele>
        <time>2022-04-12T08:21:45Z</time>
      </trkpt>
      <trkpt lat="49.94544" lon="2.14271">
        <ele>16.8</ele>
        <time>2022-04-12T08:21:46Z</time>
      </trkpt>
      <trkpt lat="49.94543" lon="2.14271">
        <ele>16.8</ele>
        <time>2022-04-12T08:21:47Z</time>
      </trkpt>
      <trkpt lat="49.94541" lon="2.1427">
        <ele>16.9</ele>
        <time>2022-04-12T08:21:48Z</time>
      </trkpt>
      <trkpt lat="49.94541" lon="2.1427">
        <ele>16.9</ele>
        <time>2022-04-12T08:21:49Z</time>
      </trkpt>
      <trkpt lat="49.9454" lon="2.1427">
        <ele>16.9</ele>
        <time>2022-04-12T08:21:50Z</time>
      </trkpt>
      <trkpt lat="49.94538" lon="2.14269">
        <ele>16.9</ele>
        <time>2022-04-12T08:21:52Z</time>
      </trkpt>
      <trkpt lat="49.94536" lon="2.14268">
        <ele>17</ele>
        <time>2022-04-12T08:21:53Z</time>
      </trkpt>
      <trkpt lat="49.94535" lon="2.14267">
        <ele>17</ele>
        <time>2022-04-12T08:21:54Z</time>
      </trkpt>
      <trkpt lat="49.94534" lon="2.14267">
        <ele>17</ele>
        <time>2022-04-12T08:21:55Z</time>
      </trkpt>
      <trkpt lat="49.94533" lon="2.14266">
        <ele>17</ele>
        <time>2022-04-12T08:21:56Z</time>
      </trkpt>
      <trkpt lat="49.94532" lon="2.14266">
        <ele>17</ele>
        <time>2022-04-12T08:21:57Z</time>
      </trkpt>
      <trkpt lat="49.94531" lon="2.14265">
        <ele>17.1</ele>
        <time>2022-04-12T08:21:58Z</time>
      </trkpt>
      <trkpt lat="49.94531" lon="2.14265">
        <ele>17.1</ele>
        <time>2022-04-12T08:22:00Z</time>
      </trkpt>
      <trkpt lat="49.94531" lon="2.14264">
        <ele>17.1</ele>
        <time>2022-04-12T08:22:01Z</time>
      </trkpt>
      <trkpt lat="49.9453" lon="2.14263">
        <ele>17.1</ele>
        <time>2022-04-12T08:22:02Z</time>
      </trkpt>
      <trkpt lat="49.94529" lon="2.14262">
        <ele>17.1</ele>
        <time>2022-04-12T08:22:03Z</time>
      </trkpt>
      <trkpt lat="49.94528" lon="2.14261">
        <ele>17.1</ele>
        <time>2022-04-12T08:22:04Z</time>
      </trkpt>
      <trkpt lat="49.94527" lon="2.1426">
        <ele>17.1</ele>
        <time>2022-04-12T08:22:05Z</time>
      </trkpt>
      <trkpt lat="49.94526" lon="2.1426">
        <ele>17.2</ele>
        <time>2022-04-12T08:22:06Z</time>
      </trkpt>
      <trkpt lat="49.94525" lon="2.14259">
        <ele>17.2</ele>
        <time>2022-04-12T08:22:07Z</time>
      </trkpt>
      <trkpt lat="49.94525" lon="2.14259">
        <ele>17.2</ele>
        <time>2022-04-12T08:22:09Z</time>
      </trkpt>
      <trkpt lat="49.94524" lon="2.14258">
        <ele>17.2</ele>
        <time>2022-04-12T08:22:10Z</time>
      </trkpt>
      <trkpt lat="49.94522" lon="2.14257">
        <ele>17.2</ele>
        <time>2022-04-12T08:22:11Z</time>
      </trkpt>
      <trkpt lat="49.9452" lon="2.14255">
        <ele>17.3</ele>
        <time>2022-04-12T08:22:13Z</time>
      </trkpt>
      <trkpt lat="49.9452" lon="2.14253">
        <ele>17.3</ele>
        <time>2022-04-12T08:22:14Z</time>
      </trkpt>
      <trkpt lat="49.9452" lon="2.14253">
        <ele>17.3</ele>
        <time>2022-04-12T08:22:15Z</time>
      </trkpt>
      <trkpt lat="49.9452" lon="2.14252">
        <ele>17.3</ele>
        <time>2022-04-12T08:22:16Z</time>
      </trkpt>
      <trkpt lat="49.9452" lon="2.14252">
        <ele>17.3</ele>
        <time>2022-04-12T08:22:17Z</time>
      </trkpt>
      <trkpt lat="49.9452" lon="2.14251">
        <ele>17.3</ele>
        <time>2022-04-12T08:22:18Z</time>
      </trkpt>
      <trkpt lat="49.9452" lon="2.14251">
        <ele>17.3</ele>
        <time>2022-04-12T08:22:19Z</time>
      </trkpt>
      <trkpt lat="49.9452" lon="2.1425">
        <ele>17.3</ele>
        <time>2022-04-12T08:22:20Z</time>
      </trkpt>
      <trkpt lat="49.9452" lon="2.1425">
        <ele>17.3</ele>
        <time>2022-04-12T08:22:22Z</time>
      </trkpt>
      <trkpt lat="49.9452" lon="2.14249">
        <ele>17.3</ele>
        <time>2022-04-12T08:22:23Z</time>
      </trkpt>
      <trkpt lat="49.94519" lon="2.14249">
        <ele>17.3</ele>
        <time>2022-04-12T08:22:24Z</time>
      </trkpt>
      <trkpt lat="49.94519" lon="2.14244">
        <ele>17.4</ele>
        <time>2022-04-12T08:22:25Z</time>
      </trkpt>
      <trkpt lat="49.94519" lon="2.14242">
        <ele>17.4</ele>
        <time>2022-04-12T08:22:26Z</time>
      </trkpt>
      <trkpt lat="49.94518" lon="2.1424">
        <ele>17.4</ele>
        <time>2022-04-12T08:22:27Z</time>
      </trkpt>
      <trkpt lat="49.94518" lon="2.14239">
        <ele>17.4</ele>
        <time>2022-04-12T08:22:28Z</time>
      </trkpt>
      <trkpt lat="49.94517" lon="2.14237">
        <ele>17.4</ele>
        <time>2022-04-12T08:22:29Z</time>
      </trkpt>
      <trkpt lat="49.94513" lon="2.14236">
        <ele>17.5</ele>
        <time>2022-04-12T08:22:30Z</time>
      </trkpt>
      <trkpt lat="49.94513" lon="2.14236">
        <ele>17.5</ele>
        <time>2022-04-12T08:22:32Z</time>
      </trkpt>
      <trkpt lat="49.94512" lon="2.14235">
        <ele>17.5</ele>
        <time>2022-04-12T08:22:33Z</time>
      </trkpt>
      <trkpt lat="49.94511" lon="2.14234">
        <ele>17.5</ele>
        <time>2022-04-12T08:22:34Z</time>
      </trkpt>
      <trkpt lat="49.94511" lon="2.14233">
        <ele>17.6</ele>
        <time>2022-04-12T08:22:35Z</time>
      </trkpt>
      <trkpt lat="49.9451" lon="2.14234">
        <ele>17.6</ele>
        <time>2022-04-12T08:22:36Z</time>
      </trkpt>
      <trkpt lat="49.94508" lon="2.14235">
        <ele>17.6</ele>
        <time>2022-04-12T08:22:37Z</time>
      </trkpt>
      <trkpt lat="49.94507" lon="2.14235">
        <ele>17.6</ele>
        <time>2022-04-12T08:22:38Z</time>
      </trkpt>
      <trkpt lat="49.94506" lon="2.14235">
        <ele>17.6</ele>
        <time>2022-04-12T08:22:39Z</time>
      </trkpt>
      <trkpt lat="49.94504" lon="2.14235">
        <ele>17.7</ele>
        <time>2022-04-12T08:22:41Z</time>
      </trkpt>
      <trkpt lat="49.94503" lon="2.14236">
        <ele>17.7</ele>
        <time>2022-04-12T08:22:42Z</time>
      </trkpt>
      <trkpt lat="49.94501" lon="2.14236">
        <ele>17.7</ele>
        <time>2022-04-12T08:22:43Z</time>
      </trkpt>
      <trkpt lat="49.945" lon="2.14235">
        <ele>17.7</ele>
        <time>2022-04-12T08:22:44Z</time>
      </trkpt>
      <trkpt lat="49.94498" lon="2.14235">
        <ele>17.7</ele>
        <time>2022-04-12T08:22:45Z</time>
      </trkpt>
      <trkpt lat="49.94497" lon="2.14234">
        <ele>17.8</ele>
        <time>2022-04-12T08:22:46Z</time>
      </trkpt>
      <trkpt lat="49.94496" lon="2.14233">
        <ele>17.9</ele>
        <time>2022-04-12T08:22:47Z</time>
      </trkpt>
      <trkpt lat="49.94494" lon="2.14232">
        <ele>17.9</ele>
        <time>2022-04-12T08:22:48Z</time>
      </trkpt>
      <trkpt lat="49.94493" lon="2.14231">
        <ele>18</ele>
        <time>2022-04-12T08:22:50Z</time>
      </trkpt>
      <trkpt lat="49.94492" lon="2.14231">
        <ele>18</ele>
        <time>2022-04-12T08:22:51Z</time>
      </trkpt>
      <trkpt lat="49.94491" lon="2.14231">
        <ele>18.1</ele>
        <time>2022-04-12T08:22:52Z</time>
      </trkpt>
      <trkpt lat="49.94489" lon="2.1423">
        <ele>18.1</ele>
        <time>2022-04-12T08:22:53Z</time>
      </trkpt>
      <trkpt lat="49.94487" lon="2.1423">
        <ele>18.2</ele>
        <time>2022-04-12T08:22:54Z</time>
      </trkpt>
      <trkpt lat="49.94486" lon="2.1423">
        <ele>18.2</ele>
        <time>2022-04-12T08:22:55Z</time>
      </trkpt>
      <trkpt lat="49.94485" lon="2.1423">
        <ele>18.3</ele>
        <time>2022-04-12T08:22:56Z</time>
      </trkpt>
      <trkpt lat="49.94483" lon="2.1423">
        <ele>18.4</ele>
        <time>2022-04-12T08:22:57Z</time>
      </trkpt>
      <trkpt lat="49.94482" lon="2.14231">
        <ele>18.4</ele>
        <time>2022-04-12T08:22:59Z</time>
      </trkpt>
      <trkpt lat="49.94481" lon="2.14231">
        <ele>18.4</ele>
        <time>2022-04-12T08:23:00Z</time>
      </trkpt>
      <trkpt lat="49.9448" lon="2.14232">
        <ele>18.5</ele>
        <time>2022-04-12T08:23:01Z</time>
      </trkpt>
      <trkpt lat="49.94479" lon="2.14232">
        <ele>18.5</ele>
        <time>2022-04-12T08:23:02Z</time>
      </trkpt>
      <trkpt lat="49.94478" lon="2.14232">
        <ele>18.6</ele>
        <time>2022-04-12T08:23:03Z</time>
      </trkpt>
      <trkpt lat="49.94478" lon="2.14232">
        <ele>18.6</ele>
        <time>2022-04-12T08:23:04Z</time>
      </trkpt>
      <trkpt lat="49.94477" lon="2.14231">
        <ele>18.6</ele>
        <time>2022-04-12T08:23:05Z</time>
      </trkpt>
      <trkpt lat="49.94477" lon="2.14231">
        <ele>18.6</ele>
        <time>2022-04-12T08:23:07Z</time>
      </trkpt>
      <trkpt lat="49.94476" lon="2.14231">
        <ele>18.7</ele>
        <time>2022-04-12T08:23:08Z</time>
      </trkpt>
      <trkpt lat="49.94476" lon="2.14231">
        <ele>18.7</ele>
        <time>2022-04-12T08:23:09Z</time>
      </trkpt>
      <trkpt lat="49.94476" lon="2.1423">
        <ele>18.7</ele>
        <time>2022-04-12T08:23:10Z</time>
      </trkpt>
      <trkpt lat="49.94475" lon="2.1423">
        <ele>18.7</ele>
        <time>2022-04-12T08:23:11Z</time>
      </trkpt>
      <trkpt lat="49.94474" lon="2.1423">
        <ele>18.8</ele>
        <time>2022-04-12T08:23:12Z</time>
      </trkpt>
      <trkpt lat="49.94473" lon="2.1423">
        <ele>18.8</ele>
        <time>2022-04-12T08:23:13Z</time>
      </trkpt>
      <trkpt lat="49.94472" lon="2.1423">
        <ele>18.9</ele>
        <time>2022-04-12T08:23:15Z</time>
      </trkpt>
      <trkpt lat="49.9447" lon="2.14226">
        <ele>19</ele>
        <time>2022-04-12T08:23:16Z</time>
      </trkpt>
      <trkpt lat="49.94469" lon="2.14226">
        <ele>19</ele>
        <time>2022-04-12T08:23:17Z</time>
      </trkpt>
      <trkpt lat="49.94468" lon="2.14225">
        <ele>19.1</ele>
        <time>2022-04-12T08:23:18Z</time>
      </trkpt>
      <trkpt lat="49.94467" lon="2.14224">
        <ele>19.1</ele>
        <time>2022-04-12T08:23:19Z</time>
      </trkpt>
      <trkpt lat="49.94465" lon="2.14221">
        <ele>19.3</ele>
        <time>2022-04-12T08:23:21Z</time>
      </trkpt>
      <trkpt lat="49.94465" lon="2.1422">
        <ele>19.3</ele>
        <time>2022-04-12T08:23:22Z</time>
      </trkpt>
      <trkpt lat="49.94464" lon="2.14219">
        <ele>19.3</ele>
        <time>2022-04-12T08:23:23Z</time>
      </trkpt>
      <trkpt lat="49.94463" lon="2.14218">
        <ele>19.4</ele>
        <time>2022-04-12T08:23:24Z</time>
      </trkpt>
      <trkpt lat="49.94461" lon="2.14214">
        <ele>19.8</ele>
        <time>2022-04-12T08:23:26Z</time>
      </trkpt>
      <trkpt lat="49.94461" lon="2.14214">
        <ele>19.9</ele>
        <time>2022-04-12T08:23:27Z</time>
      </trkpt>
      <trkpt lat="49.9446" lon="2.14212">
        <ele>19.9</ele>
        <time>2022-04-12T08:23:28Z</time>
      </trkpt>
      <trkpt lat="49.94459" lon="2.1421">
        <ele>19.9</ele>
        <time>2022-04-12T08:23:29Z</time>
      </trkpt>
      <trkpt lat="49.94458" lon="2.14204">
        <ele>20.1</ele>
        <time>2022-04-12T08:23:31Z</time>
      </trkpt>
      <trkpt lat="49.94457" lon="2.14203">
        <ele>20.1</ele>
        <time>2022-04-12T08:23:32Z</time>
      </trkpt>
      <trkpt lat="49.94457" lon="2.14202">
        <ele>20.1</ele>
        <time>2022-04-12T08:23:34Z</time>
      </trkpt>
      <trkpt lat="49.94456" lon="2.142">
        <ele>20.2</ele>
        <time>2022-04-12T08:23:35Z</time>
      </trkpt>
      <trkpt lat="49.94456" lon="2.14199">
        <ele>20.2</ele>
        <time>2022-04-12T08:23:36Z</time>
      </trkpt>
      <trkpt lat="49.94455" lon="2.14197">
        <ele>20.2</ele>
        <time>2022-04-12T08:23:37Z</time>
      </trkpt>
      <trkpt lat="49.94455" lon="2.14195">
        <ele>20.3</ele>
        <time>2022-04-12T08:23:39Z</time>
      </trkpt>
      <trkpt lat="49.94455" lon="2.14194">
        <ele>20.3</ele>
        <time>2022-04-12T08:23:40Z</time>
      </trkpt>
      <trkpt lat="49.94455" lon="2.14191">
        <ele>20.3</ele>
        <time>2022-04-12T08:23:41Z</time>
      </trkpt>
      <trkpt lat="49.94455" lon="2.14189">
        <ele>20.4</ele>
        <time>2022-04-12T08:23:42Z</time>
      </trkpt>
      <trkpt lat="49.94456" lon="2.14188">
        <ele>20.4</ele>
        <time>2022-04-12T08:23:44Z</time>
      </trkpt>
      <trkpt lat="49.94456" lon="2.14186">
        <ele>20.4</ele>
        <time>2022-04-12T08:23:45Z</time>
      </trkpt>
      <trkpt lat="49.94457" lon="2.14181">
        <ele>20.5</ele>
        <time>2022-04-12T08:23:46Z</time>
      </trkpt>
      <trkpt lat="49.94457" lon="2.14181">
        <ele>20.5</ele>
        <time>2022-04-12T08:23:47Z</time>
      </trkpt>
      <trkpt lat="49.94457" lon="2.1418">
        <ele>20.5</ele>
        <time>2022-04-12T08:23:48Z</time>
      </trkpt>
      <trkpt lat="49.94457" lon="2.14179">
        <ele>20.6</ele>
        <time>2022-04-12T08:23:49Z</time>
      </trkpt>
      <trkpt lat="49.94457" lon="2.14177">
        <ele>20.6</ele>
        <time>2022-04-12T08:23:50Z</time>
      </trkpt>
      <trkpt lat="49.94459" lon="2.14173">
        <ele>20.7</ele>
        <time>2022-04-12T08:23:51Z</time>
      </trkpt>
      <trkpt lat="49.9446" lon="2.14171">
        <ele>20.7</ele>
        <time>2022-04-12T08:23:52Z</time>
      </trkpt>
      <trkpt lat="49.9446" lon="2.14169">
        <ele>20.8</ele>
        <time>2022-04-12T08:23:53Z</time>
      </trkpt>
      <trkpt lat="49.94461" lon="2.14164">
        <ele>20.8</ele>
        <time>2022-04-12T08:23:55Z</time>
      </trkpt>
      <trkpt lat="49.94462" lon="2.14162">
        <ele>20.9</ele>
        <time>2022-04-12T08:23:56Z</time>
      </trkpt>
      <trkpt lat="49.94462" lon="2.14161">
        <ele>20.9</ele>
        <time>2022-04-12T08:23:57Z</time>
      </trkpt>
      <trkpt lat="49.94462" lon="2.1416">
        <ele>20.9</ele>
        <time>2022-04-12T08:23:58Z</time>
      </trkpt>
      <trkpt lat="49.94462" lon="2.14158">
        <ele>21</ele>
        <time>2022-04-12T08:23:59Z</time>
      </trkpt>
      <trkpt lat="49.94462" lon="2.14157">
        <ele>21</ele>
        <time>2022-04-12T08:24:00Z</time>
      </trkpt>
      <trkpt lat="49.94462" lon="2.14158">
        <ele>21</ele>
        <time>2022-04-12T08:24:02Z</time>
      </trkpt>
      <trkpt lat="49.94461" lon="2.14161">
        <ele>21.1</ele>
        <time>2022-04-12T08:24:03Z</time>
      </trkpt>
      <trkpt lat="49.94461" lon="2.14162">
        <ele>21.1</ele>
        <time>2022-04-12T08:24:04Z</time>
      </trkpt>
      <trkpt lat="49.94461" lon="2.14161">
        <ele>21.1</ele>
        <time>2022-04-12T08:24:05Z</time>
      </trkpt>
      <trkpt lat="49.94461" lon="2.14159">
        <ele>21.1</ele>
        <time>2022-04-12T08:24:07Z</time>
      </trkpt>
      <trkpt lat="49.94461" lon="2.14157">
        <ele>21.2</ele>
        <time>2022-04-12T08:24:08Z</time>
      </trkpt>
      <trkpt lat="49.94461" lon="2.14155">
        <ele>21.2</ele>
        <time>2022-04-12T08:24:09Z</time>
      </trkpt>
      <trkpt lat="49.94461" lon="2.14154">
        <ele>21.2</ele>
        <time>2022-04-12T08:24:10Z</time>
      </trkpt>
      <trkpt lat="49.9446" lon="2.14152">
        <ele>21.3</ele>
        <time>2022-04-12T08:24:12Z</time>
      </trkpt>
      <trkpt lat="49.94458" lon="2.14152">
        <ele>21.3</ele>
        <time>2022-04-12T08:24:13Z</time>
      </trkpt>
      <trkpt lat="49.94458" lon="2.14151">
        <ele>21.3</ele>
        <time>2022-04-12T08:24:14Z</time>
      </trkpt>
      <trkpt lat="49.94458" lon="2.1415">
        <ele>21.3</ele>
        <time>2022-04-12T08:24:15Z</time>
      </trkpt>
      <trkpt lat="49.94458" lon="2.14149">
        <ele>21.3</ele>
        <time>2022-04-12T08:24:16Z</time>
      </trkpt>
      <trkpt lat="49.94458" lon="2.14148">
        <ele>23.8</ele>
        <time>2022-04-12T08:24:17Z</time>
      </trkpt>
      <trkpt lat="49.94459" lon="2.14147">
        <ele>23.9</ele>
        <time>2022-04-12T08:24:18Z</time>
      </trkpt>
      <trkpt lat="49.94458" lon="2.14147">
        <ele>23.9</ele>
        <time>2022-04-12T08:24:19Z</time>
      </trkpt>
      <trkpt lat="49.94457" lon="2.14145">
        <ele>23.9</ele>
        <time>2022-04-12T08:24:20Z</time>
      </trkpt>
      <trkpt lat="49.94454" lon="2.14143">
        <ele>24</ele>
        <time>2022-04-12T08:24:22Z</time>
      </trkpt>
      <trkpt lat="49.94454" lon="2.14142">
        <ele>24</ele>
        <time>2022-04-12T08:24:23Z</time>
      </trkpt>
      <trkpt lat="49.94454" lon="2.14141">
        <ele>24.1</ele>
        <time>2022-04-12T08:24:25Z</time>
      </trkpt>
      <trkpt lat="49.94453" lon="2.1414">
        <ele>24.1</ele>
        <time>2022-04-12T08:24:26Z</time>
      </trkpt>
      <trkpt lat="49.94453" lon="2.14139">
        <ele>24.1</ele>
        <time>2022-04-12T08:24:27Z</time>
      </trkpt>
      <trkpt lat="49.94455" lon="2.14137">
        <ele>24.2</ele>
        <time>2022-04-12T08:24:28Z</time>
      </trkpt>
      <trkpt lat="49.94455" lon="2.14136">
        <ele>24.2</ele>
        <time>2022-04-12T08:24:29Z</time>
      </trkpt>
      <trkpt lat="49.94455" lon="2.14136">
        <ele>24.2</ele>
        <time>2022-04-12T08:24:30Z</time>
      </trkpt>
      <trkpt lat="49.94455" lon="2.14135">
        <ele>24.2</ele>
        <time>2022-04-12T08:24:31Z</time>
      </trkpt>
      <trkpt lat="49.94455" lon="2.14135">
        <ele>24.2</ele>
        <time>2022-04-12T08:24:32Z</time>
      </trkpt>
      <trkpt lat="49.94456" lon="2.14136">
        <ele>24.3</ele>
        <time>2022-04-12T08:24:33Z</time>
      </trkpt>
      <trkpt lat="49.94456" lon="2.14136">
        <ele>24.3</ele>
        <time>2022-04-12T08:24:34Z</time>
      </trkpt>
      <trkpt lat="49.94457" lon="2.14138">
        <ele>24.3</ele>
        <time>2022-04-12T08:24:35Z</time>
      </trkpt>
      <trkpt lat="49.94457" lon="2.14138">
        <ele>24.3</ele>
        <time>2022-04-12T08:24:36Z</time>
      </trkpt>
      <trkpt lat="49.94457" lon="2.14138">
        <ele>24.3</ele>
        <time>2022-04-12T08:24:37Z</time>
      </trkpt>
      <trkpt lat="49.94457" lon="2.14139">
        <ele>24.3</ele>
        <time>2022-04-12T08:24:38Z</time>
      </trkpt>
      <trkpt lat="49.94457" lon="2.14139">
        <ele>24.3</ele>
        <time>2022-04-12T08:24:39Z</time>
      </trkpt>
      <trkpt lat="49.94458" lon="2.1414">
        <ele>24.4</ele>
        <time>2022-04-12T08:24:41Z</time>
      </trkpt>
      <trkpt lat="49.94457" lon="2.1414">
        <ele>24.4</ele>
        <time>2022-04-12T08:24:42Z</time>
      </trkpt>
      <trkpt lat="49.94457" lon="2.1414">
        <ele>24.4</ele>
        <time>2022-04-12T08:24:44Z</time>
      </trkpt>
      <trkpt lat="49.94457" lon="2.14141">
        <ele>24.4</ele>
        <time>2022-04-12T08:24:45Z</time>
      </trkpt>
      <trkpt lat="49.94972" lon="2.11715">
        <ele>56.7</ele>
        <time>2022-04-12T09:09:06Z</time>
      </trkpt>
      <trkpt lat="49.94972" lon="2.11715">
        <ele>56.7</ele>
        <time>2022-04-12T09:09:07Z</time>
      </trkpt>
      <trkpt lat="49.94972" lon="2.11715">
        <ele>56.7</ele>
        <time>2022-04-12T09:09:08Z</time>
      </trkpt>
      <trkpt lat="49.94972" lon="2.11715">
        <ele>56.7</ele>
        <time>2022-04-12T09:09:09Z</time>
      </trkpt>
      <trkpt lat="49.94972" lon="2.11715">
        <ele>56.7</ele>
        <time>2022-04-12T09:09:10Z</time>
      </trkpt>
      <trkpt lat="49.94972" lon="2.11715">
        <ele>56.7</ele>
        <time>2022-04-12T09:09:11Z</time>
      </trkpt>
      <trkpt lat="49.94972" lon="2.11715">
        <ele>56.7</ele>
        <time>2022-04-12T09:09:12Z</time>
      </trkpt>
      <trkpt lat="49.94972" lon="2.11715">
        <ele>56.7</ele>
        <time>2022-04-12T09:09:13Z</time>
      </trkpt>
      <trkpt lat="49.94972" lon="2.11715">
        <ele>56.7</ele>
        <time>2022-04-12T09:09:14Z</time>
      </trkpt>
      <trkpt lat="49.94972" lon="2.11715">
        <ele>56.7</ele>
        <time>2022-04-12T09:09:15Z</time>
      </trkpt>
      <trkpt lat="49.94972" lon="2.11715">
        <ele>56.7</ele>
        <time>2022-04-12T09:09:16Z</time>
      </trkpt>
      <trkpt lat="49.94972" lon="2.11715">
        <ele>56.7</ele>
        <time>2022-04-12T09:09:17Z</time>
      </trkpt>
      <trkpt lat="49.94972" lon="2.11715">
        <ele>56.7</ele>
        <time>2022-04-12T09:09:18Z</time>
      </trkpt>
      <trkpt lat="49.94972" lon="2.11715">
        <ele>56.7</ele>
        <time>2022-04-12T09:09:19Z</time>
      </trkpt>
      <trkpt lat="49.94972" lon="2.11715">
        <ele>56.7</ele>
        <time>2022-04-12T09:09:20Z</time>
      </trkpt>
      <trkpt lat="49.94972" lon="2.11715">
        <ele>56.7</ele>
        <time>2022-04-12T09:09:21Z</time>
      </trkpt>
      <trkpt lat="49.94972" lon="2.11715">
        <ele>56.7</ele>
        <time>2022-04-12T09:09:22Z</time>
      </trkpt>
      <trkpt lat="49.94972" lon="2.11715">
        <ele>56.7</ele>
        <time>2022-04-12T09:09:23Z</time>
      </trkpt>
      <trkpt lat="49.94972" lon="2.11715">
        <ele>56.7</ele>
        <time>2022-04-12T09:09:24Z</time>
      </trkpt>
      <trkpt lat="49.94972" lon="2.11715">
        <ele>56.7</ele>
        <time>2022-04-12T09:09:25Z</time>
      </trkpt>
      <trkpt lat="49.94972" lon="2.11715">
        <ele>56.7</ele>
        <time>2022-04-12T09:09:26Z</time>
      </trkpt>
      <trkpt lat="49.94972" lon="2.11715">
        <ele>56.7</ele>
        <time>2022-04-12T09:09:27Z</time>
      </trkpt>
      <trkpt lat="49.94972" lon="2.11715">
        <ele>56.7</ele>
        <time>2022-04-12T09:09:28Z</time>
      </trkpt>
      <trkpt lat="49.94972" lon="2.11715">
        <ele>56.7</ele>
        <time>2022-04-12T09:09:29Z</time>
      </trkpt>
      <trkpt lat="49.94972" lon="2.11715">
        <ele>56.7</ele>
        <time>2022-04-12T09:09:30Z</time>
      </trkpt>
      <trkpt lat="49.94972" lon="2.11715">
        <ele>56.7</ele>
        <time>2022-04-12T09:09:31Z</time>
      </trkpt>
      <trkpt lat="49.94972" lon="2.11715">
        <ele>56.7</ele>
        <time>2022-04-12T09:09:32Z</time>
      </trkpt>
      <trkpt lat="49.94972" lon="2.11715">
        <ele>56.7</ele>
        <time>2022-04-12T09:09:33Z</time>
      </trkpt>
      <trkpt lat="49.94972" lon="2.11715">
        <ele>56.7</ele>
        <time>2022-04-12T09:09:34Z</time>
      </trkpt>
      <trkpt lat="49.94972" lon="2.11715">
        <ele>56.7</ele>
        <time>2022-04-12T09:09:35Z</time>
      </trkpt>
      <trkpt lat="49.94972" lon="2.11715">
        <ele>56.7</ele>
        <time>2022-04-12T09:09:36Z</time>
      </trkpt>
      <trkpt lat="49.94972" lon="2.11715">
        <ele>56.7</ele>
        <time>2022-04-12T09:09:37Z</time>
      </trkpt>
      <trkpt lat="49.94972" lon="2.11715">
        <ele>56.7</ele>
        <time>2022-04-12T09:09:39Z</time>
      </trkpt>
      <trkpt lat="49.94972" lon="2.11715">
        <ele>56.7</ele>
        <time>2022-04-12T09:09:40Z</time>
      </trkpt>
      <trkpt lat="49.94972" lon="2.11715">
        <ele>56.7</ele>
        <time>2022-04-12T09:09:41Z</time>
      </trkpt>
      <trkpt lat="49.94972" lon="2.11715">
        <ele>56.7</ele>
        <time>2022-04-12T09:09:42Z</time>
      </trkpt>
      <trkpt lat="49.94972" lon="2.11715">
        <ele>56.7</ele>
        <time>2022-04-12T09:09:43Z</time>
      </trkpt>
      <trkpt lat="49.94972" lon="2.11715">
        <ele>56.7</ele>
        <time>2022-04-12T09:09:44Z</time>
      </trkpt>
      <trkpt lat="49.94972" lon="2.11715">
        <ele>56.7</ele>
        <time>2022-04-12T09:09:45Z</time>
      </trkpt>
      <trkpt lat="49.94972" lon="2.11715">
        <ele>56.7</ele>
        <time>2022-04-12T09:09:46Z</time>
      </trkpt>
      <trkpt lat="49.94972" lon="2.11715">
        <ele>56.7</ele>
        <time>2022-04-12T09:09:47Z</time>
      </trkpt>
      <trkpt lat="49.94972" lon="2.11715">
        <ele>56.7</ele>
        <time>2022-04-12T09:09:48Z</time>
      </trkpt>
      <trkpt lat="49.94972" lon="2.11715">
        <ele>56.7</ele>
        <time>2022-04-12T09:09:49Z</time>
      </trkpt>
      <trkpt lat="49.94972" lon="2.11715">
        <ele>56.7</ele>
        <time>2022-04-12T09:09:50Z</time>
      </trkpt>
      <trkpt lat="49.94972" lon="2.11715">
        <ele>56.7</ele>
        <time>2022-04-12T09:09:51Z</time>
      </trkpt>
      <trkpt lat="49.94972" lon="2.11715">
        <ele>56.7</ele>
        <time>2022-04-12T09:09:52Z</time>
      </trkpt>
      <trkpt lat="49.94972" lon="2.11715">
        <ele>56.7</ele>
        <time>2022-04-12T09:09:53Z</time>
      </trkpt>
      <trkpt lat="49.94972" lon="2.11715">
        <ele>56.7</ele>
        <time>2022-04-12T09:09:54Z</time>
      </trkpt>
      <trkpt lat="49.94972" lon="2.11715">
        <ele>56.7</ele>
        <time>2022-04-12T09:09:55Z</time>
      </trkpt>
      <trkpt lat="49.94972" lon="2.11715">
        <ele>56.7</ele>
        <time>2022-04-12T09:09:56Z</time>
      </trkpt>
      <trkpt lat="49.94972" lon="2.11715">
        <ele>56.7</ele>
        <time>2022-04-12T09:09:57Z</time>
      </trkpt>
      <trkpt lat="49.94972" lon="2.11715">
        <ele>56.7</ele>
        <time>2022-04-12T09:09:58Z</time>
      </trkpt>
      <trkpt lat="49.94971" lon="2.11717">
        <ele>56.6</ele>
        <time>2022-04-12T09:09:59Z</time>
      </trkpt>
      <trkpt lat="49.94971" lon="2.11719">
        <ele>56.5</ele>
        <time>2022-04-12T09:10:00Z</time>
      </trkpt>
      <trkpt lat="49.94971" lon="2.11718">
        <ele>56.4</ele>
        <time>2022-04-12T09:10:01Z</time>
      </trkpt>
      <trkpt lat="49.94972" lon="2.11716">
        <ele>56.4</ele>
        <time>2022-04-12T09:10:02Z</time>
      </trkpt>
      <trkpt lat="49.94972" lon="2.11715">
        <ele>56.3</ele>
        <time>2022-04-12T09:10:03Z</time>
      </trkpt>
      <trkpt lat="49.94973" lon="2.11712">
        <ele>56.2</ele>
        <time>2022-04-12T09:10:04Z</time>
      </trkpt>
      <trkpt lat="49.94973" lon="2.11711">
        <ele>56.2</ele>
        <time>2022-04-12T09:10:05Z</time>
      </trkpt>
      <trkpt lat="49.94973" lon="2.1171">
        <ele>56.1</ele>
        <time>2022-04-12T09:10:06Z</time>
      </trkpt>
      <trkpt lat="49.94973" lon="2.11709">
        <ele>56.1</ele>
        <time>2022-04-12T09:10:07Z</time>
      </trkpt>
      <trkpt lat="49.94974" lon="2.11707">
        <ele>55.9</ele>
        <time>2022-04-12T09:10:08Z</time>
      </trkpt>
      <trkpt lat="49.94974" lon="2.11705">
        <ele>55.9</ele>
        <time>2022-04-12T09:10:09Z</time>
      </trkpt>
      <trkpt lat="49.94975" lon="2.11704">
        <ele>55.8</ele>
        <time>2022-04-12T09:10:10Z</time>
      </trkpt>
      <trkpt lat="49.94976" lon="2.117">
        <ele>55.6</ele>
        <time>2022-04-12T09:10:11Z</time>
      </trkpt>
      <trkpt lat="49.94977" lon="2.11699">
        <ele>55.6</ele>
        <time>2022-04-12T09:10:12Z</time>
      </trkpt>
      <trkpt lat="49.94977" lon="2.11697">
        <ele>55.5</ele>
        <time>2022-04-12T09:10:13Z</time>
      </trkpt>
      <trkpt lat="49.94978" lon="2.11697">
        <ele>55.4</ele>
        <time>2022-04-12T09:10:14Z</time>
      </trkpt>
      <trkpt lat="49.94979" lon="2.11696">
        <ele>55.3</ele>
        <time>2022-04-12T09:10:16Z</time>
      </trkpt>
      <trkpt lat="49.9498" lon="2.11696">
        <ele>55.3</ele>
        <time>2022-04-12T09:10:17Z</time>
      </trkpt>
      <trkpt lat="49.94981" lon="2.11695">
        <ele>55.2</ele>
        <time>2022-04-12T09:10:18Z</time>
      </trkpt>
      <trkpt lat="49.94982" lon="2.11694">
        <ele>55.1</ele>
        <time>2022-04-12T09:10:19Z</time>
      </trkpt>
      <trkpt lat="49.94982" lon="2.11693">
        <ele>55</ele>
        <time>2022-04-12T09:10:20Z</time>
      </trkpt>
      <trkpt lat="49.94983" lon="2.11692">
        <ele>55</ele>
        <time>2022-04-12T09:10:21Z</time>
      </trkpt>
      <trkpt lat="49.94983" lon="2.11691">
        <ele>54.9</ele>
        <time>2022-04-12T09:10:22Z</time>
      </trkpt>
      <trkpt lat="49.94983" lon="2.11689">
        <ele>54.8</ele>
        <time>2022-04-12T09:10:23Z</time>
      </trkpt>
      <trkpt lat="49.94984" lon="2.11688">
        <ele>54.8</ele>
        <time>2022-04-12T09:10:24Z</time>
      </trkpt>
      <trkpt lat="49.94984" lon="2.11688">
        <ele>54.7</ele>
        <time>2022-04-12T09:10:25Z</time>
      </trkpt>
      <trkpt lat="49.94984" lon="2.11686">
        <ele>54.6</ele>
        <time>2022-04-12T09:10:26Z</time>
      </trkpt>
      <trkpt lat="49.94985" lon="2.11685">
        <ele>54.5</ele>
        <time>2022-04-12T09:10:27Z</time>
      </trkpt>
      <trkpt lat="49.94986" lon="2.11682">
        <ele>54.3</ele>
        <time>2022-04-12T09:10:28Z</time>
      </trkpt>
      <trkpt lat="49.94987" lon="2.11681">
        <ele>54.3</ele>
        <time>2022-04-12T09:10:29Z</time>
      </trkpt>
      <trkpt lat="49.94988" lon="2.1168">
        <ele>54.2</ele>
        <time>2022-04-12T09:10:30Z</time>
      </trkpt>
      <trkpt lat="49.94989" lon="2.11679">
        <ele>54</ele>
        <time>2022-04-12T09:10:32Z</time>
      </trkpt>
      <trkpt lat="49.9499" lon="2.11677">
        <ele>53.9</ele>
        <time>2022-04-12T09:10:33Z</time>
      </trkpt>
      <trkpt lat="49.94991" lon="2.11675">
        <ele>53.8</ele>
        <time>2022-04-12T09:10:34Z</time>
      </trkpt>
      <trkpt lat="49.94991" lon="2.11673">
        <ele>53.7</ele>
        <time>2022-04-12T09:10:35Z</time>
      </trkpt>
      <trkpt lat="49.94991" lon="2.11671">
        <ele>53.6</ele>
        <time>2022-04-12T09:10:36Z</time>
      </trkpt>
      <trkpt lat="49.94992" lon="2.1167">
        <ele>53.5</ele>
        <time>2022-04-12T09:10:37Z</time>
      </trkpt>
      <trkpt lat="49.94992" lon="2.11669">
        <ele>53.4</ele>
        <time>2022-04-12T09:10:39Z</time>
      </trkpt>
      <trkpt lat="49.95237" lon="2.09821">
        <ele>68.2</ele>
        <time>2022-04-12T10:09:55Z</time>
      </trkpt>
      <trkpt lat="49.95237" lon="2.09821">
        <ele>68.2</ele>
        <time>2022-04-12T10:09:56Z</time>
      </trkpt>
      <trkpt lat="49.95237" lon="2.09821">
        <ele>68.2</ele>
        <time>2022-04-12T10:09:57Z</time>
      </trkpt>
      <trkpt lat="49.95237" lon="2.09821">
        <ele>68.2</ele>
        <time>2022-04-12T10:09:58Z</time>
      </trkpt>
      <trkpt lat="49.95237" lon="2.09821">
        <ele>68.2</ele>
        <time>2022-04-12T10:09:59Z</time>
      </trkpt>
      <trkpt lat="49.95237" lon="2.09821">
        <ele>68.2</ele>
        <time>2022-04-12T10:10:00Z</time>
      </trkpt>
      <trkpt lat="49.95237" lon="2.09821">
        <ele>68.2</ele>
        <time>2022-04-12T10:10:01Z</time>
      </trkpt>
      <trkpt lat="49.95237" lon="2.09821">
        <ele>68.2</ele>
        <time>2022-04-12T10:10:02Z</time>
      </trkpt>
      <trkpt lat="49.95237" lon="2.09821">
        <ele>68.2</ele>
        <time>2022-04-12T10:10:03Z</time>
      </trkpt>
      <trkpt lat="49.95237" lon="2.09821">
        <ele>68.2</ele>
        <time>2022-04-12T10:10:04Z</time>
      </trkpt>
      <trkpt lat="49.95237" lon="2.09821">
        <ele>68.2</ele>
        <time>2022-04-12T10:10:05Z</time>
      </trkpt>
      <trkpt lat="49.95237" lon="2.09821">
        <ele>68.2</ele>
        <time>2022-04-12T10:10:06Z</time>
      </trkpt>
      <trkpt lat="49.95256" lon="2.09788">
        <ele>67.3</ele>
        <time>2022-04-12T10:31:31Z</time>
      </trkpt>
      <trkpt lat="49.95257" lon="2.09786">
        <ele>67.2</ele>
        <time>2022-04-12T10:31:32Z</time>
      </trkpt>
      <trkpt lat="49.95258" lon="2.09785">
        <ele>67.2</ele>
        <time>2022-04-12T10:31:33Z</time>
      </trkpt>
      <trkpt lat="49.9526" lon="2.09783">
        <ele>67.1</ele>
        <time>2022-04-12T10:31:34Z</time>
      </trkpt>
      <trkpt lat="49.95261" lon="2.09781">
        <ele>67</ele>
        <time>2022-04-12T10:31:36Z</time>
      </trkpt>
      <trkpt lat="49.95262" lon="2.0978">
        <ele>66.9</ele>
        <time>2022-04-12T10:31:37Z</time>
      </trkpt>
      <trkpt lat="49.95263" lon="2.09779">
        <ele>66.9</ele>
        <time>2022-04-12T10:31:38Z</time>
      </trkpt>
      <trkpt lat="49.95264" lon="2.09778">
        <ele>66.8</ele>
        <time>2022-04-12T10:31:39Z</time>
      </trkpt>
      <trkpt lat="49.95265" lon="2.09777">
        <ele>66.7</ele>
        <time>2022-04-12T10:31:40Z</time>
      </trkpt>
      <trkpt lat="49.95266" lon="2.09776">
        <ele>66.7</ele>
        <time>2022-04-12T10:31:42Z</time>
      </trkpt>
      <trkpt lat="49.95267" lon="2.09776">
        <ele>66.6</ele>
        <time>2022-04-12T10:31:43Z</time>
      </trkpt>
      <trkpt lat="49.95268" lon="2.09775">
        <ele>66.5</ele>
        <time>2022-04-12T10:31:44Z</time>
      </trkpt>
      <trkpt lat="49.95269" lon="2.09774">
        <ele>66.5</ele>
        <time>2022-04-12T10:31:45Z</time>
      </trkpt>
      <trkpt lat="49.95269" lon="2.09773">
        <ele>66.4</ele>
        <time>2022-04-12T10:31:46Z</time>
      </trkpt>
      <trkpt lat="49.9527" lon="2.09773">
        <ele>66.4</ele>
        <time>2022-04-12T10:31:47Z</time>
      </trkpt>
      <trkpt lat="49.95271" lon="2.09772">
        <ele>66.3</ele>
        <time>2022-04-12T10:31:48Z</time>
      </trkpt>
      <trkpt lat="49.95272" lon="2.09772">
        <ele>66.2</ele>
        <time>2022-04-12T10:31:49Z</time>
      </trkpt>
      <trkpt lat="49.95272" lon="2.09771">
        <ele>66.2</ele>
        <time>2022-04-12T10:31:51Z</time>
      </trkpt>
      <trkpt lat="49.95273" lon="2.09771">
        <ele>66.2</ele>
        <time>2022-04-12T10:31:52Z</time>
      </trkpt>
      <trkpt lat="49.95273" lon="2.09771">
        <ele>66.1</ele>
        <time>2022-04-12T10:31:53Z</time>
      </trkpt>
      <trkpt lat="49.95273" lon="2.0977">
        <ele>66.1</ele>
        <time>2022-04-12T10:31:54Z</time>
      </trkpt>
      <trkpt lat="49.95273" lon="2.0977">
        <ele>66.1</ele>
        <time>2022-04-12T10:31:55Z</time>
      </trkpt>
      <trkpt lat="49.95273" lon="2.0977">
        <ele>66.1</ele>
        <time>2022-04-12T10:31:56Z</time>
      </trkpt>
      <trkpt lat="49.95274" lon="2.09769">
        <ele>66</ele>
        <time>2022-04-12T10:31:57Z</time>
      </trkpt>
      <trkpt lat="49.95274" lon="2.09768">
        <ele>66</ele>
        <time>2022-04-12T10:31:59Z</time>
      </trkpt>
      <trkpt lat="49.95275" lon="2.09767">
        <ele>65.9</ele>
        <time>2022-04-12T10:32:02Z</time>
      </trkpt>
      <trkpt lat="49.95275" lon="2.09766">
        <ele>65.9</ele>
        <time>2022-04-12T10:32:03Z</time>
      </trkpt>
      <trkpt lat="49.95275" lon="2.09766">
        <ele>65.8</ele>
        <time>2022-04-12T10:32:05Z</time>
      </trkpt>
      <trkpt lat="49.95275" lon="2.09765">
        <ele>65.8</ele>
        <time>2022-04-12T10:32:06Z</time>
      </trkpt>
      <trkpt lat="49.95275" lon="2.09764">
        <ele>65.7</ele>
        <time>2022-04-12T10:32:07Z</time>
      </trkpt>
      <trkpt lat="49.95276" lon="2.09763">
        <ele>65.7</ele>
        <time>2022-04-12T10:32:08Z</time>
      </trkpt>
      <trkpt lat="49.95276" lon="2.09762">
        <ele>65.6</ele>
        <time>2022-04-12T10:32:09Z</time>
      </trkpt>
      <trkpt lat="49.95277" lon="2.09761">
        <ele>65.5</ele>
        <time>2022-04-12T10:32:10Z</time>
      </trkpt>
      <trkpt lat="49.95277" lon="2.0976">
        <ele>65.5</ele>
        <time>2022-04-12T10:32:11Z</time>
      </trkpt>
      <trkpt lat="49.95278" lon="2.09759">
        <ele>65.4</ele>
        <time>2022-04-12T10:32:12Z</time>
      </trkpt>
      <trkpt lat="49.95279" lon="2.09757">
        <ele>65.2</ele>
        <time>2022-04-12T10:32:13Z</time>
      </trkpt>
      <trkpt lat="49.9528" lon="2.09755">
        <ele>65.1</ele>
        <time>2022-04-12T10:32:15Z</time>
      </trkpt>
      <trkpt lat="49.95281" lon="2.09753">
        <ele>65</ele>
        <time>2022-04-12T10:32:16Z</time>
      </trkpt>
      <trkpt lat="49.95282" lon="2.09752">
        <ele>64.9</ele>
        <time>2022-04-12T10:32:17Z</time>
      </trkpt>
      <trkpt lat="49.95282" lon="2.09751">
        <ele>64.8</ele>
        <time>2022-04-12T10:32:18Z</time>
      </trkpt>
      <trkpt lat="49.95283" lon="2.09749">
        <ele>64.7</ele>
        <time>2022-04-12T10:32:20Z</time>
      </trkpt>
      <trkpt lat="49.95284" lon="2.09748">
        <ele>64.7</ele>
        <time>2022-04-12T10:32:21Z</time>
      </trkpt>
      <trkpt lat="49.95284" lon="2.09747">
        <ele>64.6</ele>
        <time>2022-04-12T10:32:22Z</time>
      </trkpt>
      <trkpt lat="49.95285" lon="2.09745">
        <ele>64.5</ele>
        <time>2022-04-12T10:32:23Z</time>
      </trkpt>
      <trkpt lat="49.95285" lon="2.09744">
        <ele>64.4</ele>
        <time>2022-04-12T10:32:24Z</time>
      </trkpt>
      <trkpt lat="49.95286" lon="2.09743">
        <ele>64.3</ele>
        <time>2022-04-12T10:32:25Z</time>
      </trkpt>
      <trkpt lat="49.95287" lon="2.09742">
        <ele>64.2</ele>
        <time>2022-04-12T10:32:26Z</time>
      </trkpt>
      <trkpt lat="49.95287" lon="2.0974">
        <ele>64.2</ele>
        <time>2022-04-12T10:32:28Z</time>
      </trkpt>
      <trkpt lat="49.95288" lon="2.09739">
        <ele>64.1</ele>
        <time>2022-04-12T10:32:29Z</time>
      </trkpt>
      <trkpt lat="49.95289" lon="2.09738">
        <ele>64</ele>
        <time>2022-04-12T10:32:30Z</time>
      </trkpt>
      <trkpt lat="49.95289" lon="2.09737">
        <ele>63.9</ele>
        <time>2022-04-12T10:32:31Z</time>
      </trkpt>
      <trkpt lat="49.9529" lon="2.09736">
        <ele>63.8</ele>
        <time>2022-04-12T10:32:32Z</time>
      </trkpt>
      <trkpt lat="49.95291" lon="2.09735">
        <ele>63.7</ele>
        <time>2022-04-12T10:32:34Z</time>
      </trkpt>
      <trkpt lat="49.95293" lon="2.09733">
        <ele>63.5</ele>
        <time>2022-04-12T10:32:35Z</time>
      </trkpt>
      <trkpt lat="49.95293" lon="2.09732">
        <ele>63.5</ele>
        <time>2022-04-12T10:32:36Z</time>
      </trkpt>
      <trkpt lat="49.95294" lon="2.09731">
        <ele>63.4</ele>
        <time>2022-04-12T10:32:37Z</time>
      </trkpt>
      <trkpt lat="49.95295" lon="2.0973">
        <ele>63.3</ele>
        <time>2022-04-12T10:32:38Z</time>
      </trkpt>
      <trkpt lat="49.95296" lon="2.09729">
        <ele>63.2</ele>
        <time>2022-04-12T10:32:39Z</time>
      </trkpt>
      <trkpt lat="49.95297" lon="2.09728">
        <ele>63.2</ele>
        <time>2022-04-12T10:32:40Z</time>
      </trkpt>
      <trkpt lat="49.95297" lon="2.09727">
        <ele>63.1</ele>
        <time>2022-04-12T10:32:41Z</time>
      </trkpt>
      <trkpt lat="49.95299" lon="2.09725">
        <ele>62.9</ele>
        <time>2022-04-12T10:32:43Z</time>
      </trkpt>
      <trkpt lat="49.95299" lon="2.09723">
        <ele>62.8</ele>
        <time>2022-04-12T10:32:44Z</time>
      </trkpt>
      <trkpt lat="49.953" lon="2.09721">
        <ele>62.7</ele>
        <time>2022-04-12T10:32:46Z</time>
      </trkpt>
      <trkpt lat="49.95301" lon="2.0972">
        <ele>62.7</ele>
        <time>2022-04-12T10:32:47Z</time>
      </trkpt>
      <trkpt lat="49.95301" lon="2.0972">
        <ele>62.7</ele>
        <time>2022-04-12T10:32:48Z</time>
      </trkpt>
      <trkpt lat="49.95301" lon="2.0972">
        <ele>62.6</ele>
        <time>2022-04-12T10:32:49Z</time>
      </trkpt>
      <trkpt lat="49.95301" lon="2.0972">
        <ele>62.6</ele>
        <time>2022-04-12T10:32:50Z</time>
      </trkpt>
      <trkpt lat="49.95301" lon="2.0972">
        <ele>62.6</ele>
        <time>2022-04-12T10:32:51Z</time>
      </trkpt>
      <trkpt lat="49.953" lon="2.0972">
        <ele>62.6</ele>
        <time>2022-04-12T10:32:52Z</time>
      </trkpt>
      <trkpt lat="49.953" lon="2.09721">
        <ele>62.6</ele>
        <time>2022-04-12T10:32:53Z</time>
      </trkpt>
      <trkpt lat="49.953" lon="2.09721">
        <ele>62.5</ele>
        <time>2022-04-12T10:32:54Z</time>
      </trkpt>
      <trkpt lat="49.953" lon="2.09722">
        <ele>62.5</ele>
        <time>2022-04-12T10:32:55Z</time>
      </trkpt>
      <trkpt lat="49.95299" lon="2.09722">
        <ele>62.5</ele>
        <time>2022-04-12T10:32:56Z</time>
      </trkpt>
      <trkpt lat="49.95299" lon="2.09722">
        <ele>62.5</ele>
        <time>2022-04-12T10:32:57Z</time>
      </trkpt>
      <trkpt lat="49.95299" lon="2.09722">
        <ele>62.5</ele>
        <time>2022-04-12T10:32:58Z</time>
      </trkpt>
      <trkpt lat="49.95299" lon="2.09722">
        <ele>62.5</ele>
        <time>2022-04-12T10:32:59Z</time>
      </trkpt>
      <trkpt lat="49.95299" lon="2.09722">
        <ele>62.5</ele>
        <time>2022-04-12T10:33:00Z</time>
      </trkpt>
      <trkpt lat="49.95299" lon="2.09722">
        <ele>62.5</ele>
        <time>2022-04-12T10:33:01Z</time>
      </trkpt>
      <trkpt lat="49.95299" lon="2.09722">
        <ele>62.5</ele>
        <time>2022-04-12T10:33:02Z</time>
      </trkpt>
      <trkpt lat="49.95299" lon="2.09722">
        <ele>62.5</ele>
        <time>2022-04-12T10:33:03Z</time>
      </trkpt>
      <trkpt lat="49.95299" lon="2.09723">
        <ele>62.4</ele>
        <time>2022-04-12T10:33:04Z</time>
      </trkpt>
      <trkpt lat="49.95298" lon="2.09723">
        <ele>62.4</ele>
        <time>2022-04-12T10:33:05Z</time>
      </trkpt>
      <trkpt lat="49.95298" lon="2.09723">
        <ele>62.4</ele>
        <time>2022-04-12T10:33:06Z</time>
      </trkpt>
      <trkpt lat="49.95298" lon="2.09723">
        <ele>62.4</ele>
        <time>2022-04-12T10:33:07Z</time>
      </trkpt>
      <trkpt lat="49.95299" lon="2.09723">
        <ele>62.4</ele>
        <time>2022-04-12T10:33:08Z</time>
      </trkpt>
      <trkpt lat="49.95299" lon="2.09722">
        <ele>62.4</ele>
        <time>2022-04-12T10:33:09Z</time>
      </trkpt>
      <trkpt lat="49.95299" lon="2.09722">
        <ele>62.4</ele>
        <time>2022-04-12T10:33:10Z</time>
      </trkpt>
      <trkpt lat="49.95299" lon="2.09722">
        <ele>62.3</ele>
        <time>2022-04-12T10:33:11Z</time>
      </trkpt>
      <trkpt lat="49.95299" lon="2.09721">
        <ele>62.3</ele>
        <time>2022-04-12T10:33:12Z</time>
      </trkpt>
      <trkpt lat="49.95299" lon="2.09721">
        <ele>62.3</ele>
        <time>2022-04-12T10:33:13Z</time>
      </trkpt>
      <trkpt lat="49.953" lon="2.09721">
        <ele>62.3</ele>
        <time>2022-04-12T10:33:14Z</time>
      </trkpt>
      <trkpt lat="49.953" lon="2.09721">
        <ele>62.3</ele>
        <time>2022-04-12T10:33:15Z</time>
      </trkpt>
      <trkpt lat="49.953" lon="2.0972">
        <ele>62.3</ele>
        <time>2022-04-12T10:33:16Z</time>
      </trkpt>
      <trkpt lat="49.953" lon="2.0972">
        <ele>62.3</ele>
        <time>2022-04-12T10:33:17Z</time>
      </trkpt>
      <trkpt lat="49.953" lon="2.0972">
        <ele>62.2</ele>
        <time>2022-04-12T10:33:18Z</time>
      </trkpt>
      <trkpt lat="49.953" lon="2.09719">
        <ele>62.2</ele>
        <time>2022-04-12T10:33:19Z</time>
      </trkpt>
      <trkpt lat="49.953" lon="2.09719">
        <ele>62.2</ele>
        <time>2022-04-12T10:33:20Z</time>
      </trkpt>
      <trkpt lat="49.95301" lon="2.09719">
        <ele>62.2</ele>
        <time>2022-04-12T10:33:22Z</time>
      </trkpt>
      <trkpt lat="49.95301" lon="2.09719">
        <ele>62.2</ele>
        <time>2022-04-12T10:33:23Z</time>
      </trkpt>
      <trkpt lat="49.95301" lon="2.09718">
        <ele>62.2</ele>
        <time>2022-04-12T10:33:24Z</time>
      </trkpt>
      <trkpt lat="49.95301" lon="2.09718">
        <ele>62.2</ele>
        <time>2022-04-12T10:33:25Z</time>
      </trkpt>
      <trkpt lat="49.95301" lon="2.09718">
        <ele>62.1</ele>
        <time>2022-04-12T10:33:26Z</time>
      </trkpt>
      <trkpt lat="49.95301" lon="2.09717">
        <ele>62.1</ele>
        <time>2022-04-12T10:33:27Z</time>
      </trkpt>
      <trkpt lat="49.95302" lon="2.09716">
        <ele>62.1</ele>
        <time>2022-04-12T10:33:28Z</time>
      </trkpt>
      <trkpt lat="49.95303" lon="2.09715">
        <ele>62</ele>
        <time>2022-04-12T10:33:30Z</time>
      </trkpt>
      <trkpt lat="49.95303" lon="2.09716">
        <ele>62</ele>
        <time>2022-04-12T10:33:31Z</time>
      </trkpt>
      <trkpt lat="49.95304" lon="2.09716">
        <ele>62</ele>
        <time>2022-04-12T10:33:33Z</time>
      </trkpt>
      <trkpt lat="49.95304" lon="2.09716">
        <ele>62</ele>
        <time>2022-04-12T10:33:34Z</time>
      </trkpt>
      <trkpt lat="49.95304" lon="2.09716">
        <ele>61.9</ele>
        <time>2022-04-12T10:33:35Z</time>
      </trkpt>
      <trkpt lat="49.95306" lon="2.09716">
        <ele>61.9</ele>
        <time>2022-04-12T10:33:36Z</time>
      </trkpt>
      <trkpt lat="49.95307" lon="2.09715">
        <ele>61.8</ele>
        <time>2022-04-12T10:33:37Z</time>
      </trkpt>
      <trkpt lat="49.95307" lon="2.09715">
        <ele>61.8</ele>
        <time>2022-04-12T10:33:38Z</time>
      </trkpt>
      <trkpt lat="49.95308" lon="2.09715">
        <ele>61.8</ele>
        <time>2022-04-12T10:33:39Z</time>
      </trkpt>
      <trkpt lat="49.95309" lon="2.09715">
        <ele>61.7</ele>
        <time>2022-04-12T10:33:40Z</time>
      </trkpt>
      <trkpt lat="49.9531" lon="2.09715">
        <ele>61.6</ele>
        <time>2022-04-12T10:33:41Z</time>
      </trkpt>
      <trkpt lat="49.95311" lon="2.09714">
        <ele>61.6</ele>
        <time>2022-04-12T10:33:43Z</time>
      </trkpt>
      <trkpt lat="49.95312" lon="2.09714">
        <ele>61.6</ele>
        <time>2022-04-12T10:33:44Z</time>
      </trkpt>
      <trkpt lat="49.95313" lon="2.09713">
        <ele>61.5</ele>
        <time>2022-04-12T10:33:45Z</time>
      </trkpt>
      <trkpt lat="49.95314" lon="2.09712">
        <ele>61.5</ele>
        <time>2022-04-12T10:33:46Z</time>
      </trkpt>
      <trkpt lat="49.95315" lon="2.09711">
        <ele>61.4</ele>
        <time>2022-04-12T10:33:47Z</time>
      </trkpt>
      <trkpt lat="49.95315" lon="2.09711">
        <ele>61.4</ele>
        <time>2022-04-12T10:33:48Z</time>
      </trkpt>
      <trkpt lat="49.95314" lon="2.09711">
        <ele>61.4</ele>
        <time>2022-04-12T10:33:50Z</time>
      </trkpt>
      <trkpt lat="49.95315" lon="2.0971">
        <ele>61.4</ele>
        <time>2022-04-12T10:33:51Z</time>
      </trkpt>
      <trkpt lat="49.95316" lon="2.09709">
        <ele>61.3</ele>
        <time>2022-04-12T10:33:52Z</time>
      </trkpt>
      <trkpt lat="49.95317" lon="2.09707">
        <ele>61.3</ele>
        <time>2022-04-12T10:33:53Z</time>
      </trkpt>
      <trkpt lat="49.95318" lon="2.09706">
        <ele>61.2</ele>
        <time>2022-04-12T10:33:54Z</time>
      </trkpt>
      <trkpt lat="49.95319" lon="2.09706">
        <ele>61.2</ele>
        <time>2022-04-12T10:33:55Z</time>
      </trkpt>
      <trkpt lat="49.9532" lon="2.09705">
        <ele>61.1</ele>
        <time>2022-04-12T10:33:56Z</time>
      </trkpt>
      <trkpt lat="49.95322" lon="2.09704">
        <ele>61.1</ele>
        <time>2022-04-12T10:33:57Z</time>
      </trkpt>
      <trkpt lat="49.95323" lon="2.09702">
        <ele>61.1</ele>
        <time>2022-04-12T10:33:58Z</time>
      </trkpt>
      <trkpt lat="49.95324" lon="2.097">
        <ele>61.1</ele>
        <time>2022-04-12T10:33:59Z</time>
      </trkpt>
      <trkpt lat="49.95326" lon="2.09698">
        <ele>61.1</ele>
        <time>2022-04-12T10:34:00Z</time>
      </trkpt>
      <trkpt lat="49.95326" lon="2.09697">
        <ele>61.1</ele>
        <time>2022-04-12T10:34:02Z</time>
      </trkpt>
      <trkpt lat="49.95327" lon="2.09696">
        <ele>61.1</ele>
        <time>2022-04-12T10:34:03Z</time>
      </trkpt>
      <trkpt lat="49.95327" lon="2.09695">
        <ele>61.1</ele>
        <time>2022-04-12T10:34:04Z</time>
      </trkpt>
      <trkpt lat="49.95328" lon="2.09694">
        <ele>61.1</ele>
        <time>2022-04-12T10:34:05Z</time>
      </trkpt>
      <trkpt lat="49.95328" lon="2.09693">
        <ele>61.1</ele>
        <time>2022-04-12T10:34:06Z</time>
      </trkpt>
      <trkpt lat="49.95329" lon="2.09692">
        <ele>61.1</ele>
        <time>2022-04-12T10:34:07Z</time>
      </trkpt>
      <trkpt lat="49.9533" lon="2.09691">
        <ele>61.1</ele>
        <time>2022-04-12T10:34:08Z</time>
      </trkpt>
      <trkpt lat="49.95332" lon="2.09688">
        <ele>61.1</ele>
        <time>2022-04-12T10:34:10Z</time>
      </trkpt>
      <trkpt lat="49.95334" lon="2.09684">
        <ele>61.1</ele>
        <time>2022-04-12T10:34:11Z</time>
      </trkpt>
      <trkpt lat="49.95335" lon="2.09683">
        <ele>61.1</ele>
        <time>2022-04-12T10:34:12Z</time>
      </trkpt>
      <trkpt lat="49.95336" lon="2.09682">
        <ele>61.1</ele>
        <time>2022-04-12T10:34:13Z</time>
      </trkpt>
      <trkpt lat="49.95337" lon="2.0968">
        <ele>61.1</ele>
        <time>2022-04-12T10:34:14Z</time>
      </trkpt>
      <trkpt lat="49.95338" lon="2.09677">
        <ele>61.1</ele>
        <time>2022-04-12T10:34:15Z</time>
      </trkpt>
      <trkpt lat="49.95338" lon="2.09676">
        <ele>61.1</ele>
        <time>2022-04-12T10:34:16Z</time>
      </trkpt>
      <trkpt lat="49.95339" lon="2.09675">
        <ele>61.1</ele>
        <time>2022-04-12T10:34:17Z</time>
      </trkpt>
      <trkpt lat="49.9534" lon="2.09673">
        <ele>61.2</ele>
        <time>2022-04-12T10:34:18Z</time>
      </trkpt>
      <trkpt lat="49.95341" lon="2.0967">
        <ele>61.2</ele>
        <time>2022-04-12T10:34:19Z</time>
      </trkpt>
      <trkpt lat="49.95342" lon="2.09667">
        <ele>61.2</ele>
        <time>2022-04-12T10:34:21Z</time>
      </trkpt>
      <trkpt lat="49.95342" lon="2.09666">
        <ele>61.2</ele>
        <time>2022-04-12T10:34:22Z</time>
      </trkpt>
      <trkpt lat="49.95343" lon="2.09663">
        <ele>61.3</ele>
        <time>2022-04-12T10:34:23Z</time>
      </trkpt>
      <trkpt lat="49.95344" lon="2.09661">
        <ele>61.3</ele>
        <time>2022-04-12T10:34:24Z</time>
      </trkpt>
      <trkpt lat="49.95345" lon="2.09657">
        <ele>61.3</ele>
        <time>2022-04-12T10:34:25Z</time>
      </trkpt>
      <trkpt lat="49.95346" lon="2.09656">
        <ele>61.4</ele>
        <time>2022-04-12T10:34:26Z</time>
      </trkpt>
      <trkpt lat="49.95346" lon="2.09654">
        <ele>61.4</ele>
        <time>2022-04-12T10:34:27Z</time>
      </trkpt>
      <trkpt lat="49.95347" lon="2.09651">
        <ele>61.4</ele>
        <time>2022-04-12T10:34:29Z</time>
      </trkpt>
      <trkpt lat="49.95347" lon="2.09649">
        <ele>61.5</ele>
        <time>2022-04-12T10:34:30Z</time>
      </trkpt>
      <trkpt lat="49.95348" lon="2.09646">
        <ele>61.5</ele>
        <time>2022-04-12T10:34:31Z</time>
      </trkpt>
      <trkpt lat="49.95349" lon="2.09643">
        <ele>61.5</ele>
        <time>2022-04-12T10:34:32Z</time>
      </trkpt>
      <trkpt lat="49.95349" lon="2.09642">
        <ele>61.6</ele>
        <time>2022-04-12T10:34:33Z</time>
      </trkpt>
      <trkpt lat="49.95349" lon="2.09641">
        <ele>61.6</ele>
        <time>2022-04-12T10:34:34Z</time>
      </trkpt>
      <trkpt lat="49.9535" lon="2.09638">
        <ele>61.6</ele>
        <time>2022-04-12T10:34:35Z</time>
      </trkpt>
      <trkpt lat="49.9535" lon="2.09636">
        <ele>61.7</ele>
        <time>2022-04-12T10:34:36Z</time>
      </trkpt>
      <trkpt lat="49.9535" lon="2.09635">
        <ele>61.7</ele>
        <time>2022-04-12T10:34:37Z</time>
      </trkpt>
      <trkpt lat="49.9535" lon="2.09633">
        <ele>61.7</ele>
        <time>2022-04-12T10:34:38Z</time>
      </trkpt>
      <trkpt lat="49.95351" lon="2.09631">
        <ele>61.8</ele>
        <time>2022-04-12T10:34:39Z</time>
      </trkpt>
      <trkpt lat="49.95351" lon="2.09629">
        <ele>61.8</ele>
        <time>2022-04-12T10:34:41Z</time>
      </trkpt>
      <trkpt lat="49.95352" lon="2.09628">
        <ele>61.8</ele>
        <time>2022-04-12T10:34:42Z</time>
      </trkpt>
      <trkpt lat="49.95352" lon="2.09626">
        <ele>61.8</ele>
        <time>2022-04-12T10:34:43Z</time>
      </trkpt>
      <trkpt lat="49.95352" lon="2.09624">
        <ele>61.9</ele>
        <time>2022-04-12T10:34:44Z</time>
      </trkpt>
      <trkpt lat="49.95352" lon="2.09622">
        <ele>61.9</ele>
        <time>2022-04-12T10:34:45Z</time>
      </trkpt>
      <trkpt lat="49.95352" lon="2.09621">
        <ele>61.9</ele>
        <time>2022-04-12T10:34:46Z</time>
      </trkpt>
      <trkpt lat="49.95352" lon="2.09619">
        <ele>61.9</ele>
        <time>2022-04-12T10:34:47Z</time>
      </trkpt>
      <trkpt lat="49.95352" lon="2.09617">
        <ele>62</ele>
        <time>2022-04-12T10:34:48Z</time>
      </trkpt>
      <trkpt lat="49.95352" lon="2.09614">
        <ele>62</ele>
        <time>2022-04-12T10:34:49Z</time>
      </trkpt>
      <trkpt lat="49.95352" lon="2.09612">
        <ele>62.1</ele>
        <time>2022-04-12T10:34:50Z</time>
      </trkpt>
      <trkpt lat="49.95352" lon="2.0961">
        <ele>62.1</ele>
        <time>2022-04-12T10:34:52Z</time>
      </trkpt>
      <trkpt lat="49.95352" lon="2.09607">
        <ele>62.1</ele>
        <time>2022-04-12T10:34:53Z</time>
      </trkpt>
      <trkpt lat="49.95352" lon="2.09605">
        <ele>62.2</ele>
        <time>2022-04-12T10:34:54Z</time>
      </trkpt>
      <trkpt lat="49.95352" lon="2.09603">
        <ele>62.2</ele>
        <time>2022-04-12T10:34:55Z</time>
      </trkpt>
      <trkpt lat="49.95352" lon="2.096">
        <ele>62.2</ele>
        <time>2022-04-12T10:34:57Z</time>
      </trkpt>
      <trkpt lat="49.95352" lon="2.09598">
        <ele>62.3</ele>
        <time>2022-04-12T10:34:58Z</time>
      </trkpt>
      <trkpt lat="49.95352" lon="2.09596">
        <ele>62.4</ele>
        <time>2022-04-12T10:34:59Z</time>
      </trkpt>
      <trkpt lat="49.95353" lon="2.09593">
        <ele>62.5</ele>
        <time>2022-04-12T10:35:00Z</time>
      </trkpt>
      <trkpt lat="49.95353" lon="2.09591">
        <ele>62.5</ele>
        <time>2022-04-12T10:35:01Z</time>
      </trkpt>
      <trkpt lat="49.95353" lon="2.09588">
        <ele>62.6</ele>
        <time>2022-04-12T10:35:02Z</time>
      </trkpt>
      <trkpt lat="49.95353" lon="2.09586">
        <ele>62.7</ele>
        <time>2022-04-12T10:35:03Z</time>
      </trkpt>
      <trkpt lat="49.95353" lon="2.09585">
        <ele>62.7</ele>
        <time>2022-04-12T10:35:04Z</time>
      </trkpt>
      <trkpt lat="49.95354" lon="2.09581">
        <ele>62.8</ele>
        <time>2022-04-12T10:35:05Z</time>
      </trkpt>
      <trkpt lat="49.95354" lon="2.0958">
        <ele>62.9</ele>
        <time>2022-04-12T10:35:07Z</time>
      </trkpt>
      <trkpt lat="49.95355" lon="2.09578">
        <ele>62.9</ele>
        <time>2022-04-12T10:35:08Z</time>
      </trkpt>
      <trkpt lat="49.95355" lon="2.09577">
        <ele>63</ele>
        <time>2022-04-12T10:35:09Z</time>
      </trkpt>
      <trkpt lat="49.95355" lon="2.09575">
        <ele>63</ele>
        <time>2022-04-12T10:35:10Z</time>
      </trkpt>
      <trkpt lat="49.95355" lon="2.09573">
        <ele>63.1</ele>
        <time>2022-04-12T10:35:11Z</time>
      </trkpt>
      <trkpt lat="49.95356" lon="2.09571">
        <ele>63.1</ele>
        <time>2022-04-12T10:35:12Z</time>
      </trkpt>
      <trkpt lat="49.95356" lon="2.09568">
        <ele>63.2</ele>
        <time>2022-04-12T10:35:14Z</time>
      </trkpt>
      <trkpt lat="49.95356" lon="2.09565">
        <ele>63.3</ele>
        <time>2022-04-12T10:35:15Z</time>
      </trkpt>
      <trkpt lat="49.95356" lon="2.09564">
        <ele>63.3</ele>
        <time>2022-04-12T10:35:16Z</time>
      </trkpt>
      <trkpt lat="49.95356" lon="2.09563">
        <ele>63.4</ele>
        <time>2022-04-12T10:35:17Z</time>
      </trkpt>
      <trkpt lat="49.95357" lon="2.0956">
        <ele>63.5</ele>
        <time>2022-04-12T10:35:18Z</time>
      </trkpt>
      <trkpt lat="49.95357" lon="2.09559">
        <ele>63.5</ele>
        <time>2022-04-12T10:35:19Z</time>
      </trkpt>
      <trkpt lat="49.95357" lon="2.09557">
        <ele>63.6</ele>
        <time>2022-04-12T10:35:20Z</time>
      </trkpt>
      <trkpt lat="49.95357" lon="2.09555">
        <ele>63.6</ele>
        <time>2022-04-12T10:35:21Z</time>
      </trkpt>
      <trkpt lat="49.95358" lon="2.09554">
        <ele>63.6</ele>
        <time>2022-04-12T10:35:22Z</time>
      </trkpt>
      <trkpt lat="49.95358" lon="2.09552">
        <ele>63.7</ele>
        <time>2022-04-12T10:35:23Z</time>
      </trkpt>
      <trkpt lat="49.95358" lon="2.09549">
        <ele>63.8</ele>
        <time>2022-04-12T10:35:24Z</time>
      </trkpt>
      <trkpt lat="49.95359" lon="2.09548">
        <ele>63.8</ele>
        <time>2022-04-12T10:35:25Z</time>
      </trkpt>
      <trkpt lat="49.95359" lon="2.09547">
        <ele>63.9</ele>
        <time>2022-04-12T10:35:26Z</time>
      </trkpt>
      <trkpt lat="49.9536" lon="2.09544">
        <ele>63.9</ele>
        <time>2022-04-12T10:35:27Z</time>
      </trkpt>
      <trkpt lat="49.9536" lon="2.09543">
        <ele>64</ele>
        <time>2022-04-12T10:35:29Z</time>
      </trkpt>
      <trkpt lat="49.9536" lon="2.09541">
        <ele>64</ele>
        <time>2022-04-12T10:35:30Z</time>
      </trkpt>
      <trkpt lat="49.95361" lon="2.09538">
        <ele>64.1</ele>
        <time>2022-04-12T10:35:31Z</time>
      </trkpt>
      <trkpt lat="49.95361" lon="2.09537">
        <ele>64.1</ele>
        <time>2022-04-12T10:35:32Z</time>
      </trkpt>
      <trkpt lat="49.95361" lon="2.09536">
        <ele>64.2</ele>
        <time>2022-04-12T10:35:33Z</time>
      </trkpt>
      <trkpt lat="49.95361" lon="2.09535">
        <ele>64.2</ele>
        <time>2022-04-12T10:35:34Z</time>
      </trkpt>
      <trkpt lat="49.95362" lon="2.09534">
        <ele>64.2</ele>
        <time>2022-04-12T10:35:35Z</time>
      </trkpt>
      <trkpt lat="49.95362" lon="2.09533">
        <ele>64.3</ele>
        <time>2022-04-12T10:35:36Z</time>
      </trkpt>
      <trkpt lat="49.95362" lon="2.09531">
        <ele>64.3</ele>
        <time>2022-04-12T10:35:37Z</time>
      </trkpt>
      <trkpt lat="49.95362" lon="2.09529">
        <ele>64.4</ele>
        <time>2022-04-12T10:35:39Z</time>
      </trkpt>
      <trkpt lat="49.95363" lon="2.09527">
        <ele>64.4</ele>
        <time>2022-04-12T10:35:40Z</time>
      </trkpt>
      <trkpt lat="49.95363" lon="2.09526">
        <ele>64.5</ele>
        <time>2022-04-12T10:35:41Z</time>
      </trkpt>
      <trkpt lat="49.95363" lon="2.09524">
        <ele>64.5</ele>
        <time>2022-04-12T10:35:42Z</time>
      </trkpt>
      <trkpt lat="49.95363" lon="2.09523">
        <ele>64.6</ele>
        <time>2022-04-12T10:35:43Z</time>
      </trkpt>
      <trkpt lat="49.95363" lon="2.09521">
        <ele>64.6</ele>
        <time>2022-04-12T10:35:44Z</time>
      </trkpt>
      <trkpt lat="49.95363" lon="2.0952">
        <ele>64.6</ele>
        <time>2022-04-12T10:35:45Z</time>
      </trkpt>
      <trkpt lat="49.95363" lon="2.09518">
        <ele>64.7</ele>
        <time>2022-04-12T10:35:46Z</time>
      </trkpt>
      <trkpt lat="49.95363" lon="2.09516">
        <ele>64.8</ele>
        <time>2022-04-12T10:35:47Z</time>
      </trkpt>
      <trkpt lat="49.95362" lon="2.09512">
        <ele>64.9</ele>
        <time>2022-04-12T10:35:48Z</time>
      </trkpt>
      <trkpt lat="49.95362" lon="2.0951">
        <ele>64.9</ele>
        <time>2022-04-12T10:35:50Z</time>
      </trkpt>
      <trkpt lat="49.95362" lon="2.09508">
        <ele>65</ele>
        <time>2022-04-12T10:35:51Z</time>
      </trkpt>
      <trkpt lat="49.95362" lon="2.09507">
        <ele>65</ele>
        <time>2022-04-12T10:35:52Z</time>
      </trkpt>
      <trkpt lat="49.95362" lon="2.09505">
        <ele>65.1</ele>
        <time>2022-04-12T10:35:53Z</time>
      </trkpt>
      <trkpt lat="49.95362" lon="2.09503">
        <ele>65.1</ele>
        <time>2022-04-12T10:35:55Z</time>
      </trkpt>
      <trkpt lat="49.95361" lon="2.09502">
        <ele>65.2</ele>
        <time>2022-04-12T10:35:56Z</time>
      </trkpt>
      <trkpt lat="49.95361" lon="2.095">
        <ele>65.2</ele>
        <time>2022-04-12T10:35:57Z</time>
      </trkpt>
      <trkpt lat="49.95361" lon="2.09498">
        <ele>65.3</ele>
        <time>2022-04-12T10:35:58Z</time>
      </trkpt>
      <trkpt lat="49.95361" lon="2.09496">
        <ele>65.3</ele>
        <time>2022-04-12T10:35:59Z</time>
      </trkpt>
      <trkpt lat="49.95361" lon="2.09495">
        <ele>65.4</ele>
        <time>2022-04-12T10:36:00Z</time>
      </trkpt>
      <trkpt lat="49.95361" lon="2.09493">
        <ele>65.4</ele>
        <time>2022-04-12T10:36:01Z</time>
      </trkpt>
      <trkpt lat="49.95361" lon="2.09491">
        <ele>65.5</ele>
        <time>2022-04-12T10:36:02Z</time>
      </trkpt>
      <trkpt lat="49.95361" lon="2.09489">
        <ele>65.5</ele>
        <time>2022-04-12T10:36:03Z</time>
      </trkpt>
      <trkpt lat="49.95361" lon="2.09487">
        <ele>65.6</ele>
        <time>2022-04-12T10:36:05Z</time>
      </trkpt>
      <trkpt lat="49.95361" lon="2.09486">
        <ele>65.6</ele>
        <time>2022-04-12T10:36:06Z</time>
      </trkpt>
      <trkpt lat="49.95361" lon="2.09484">
        <ele>65.7</ele>
        <time>2022-04-12T10:36:07Z</time>
      </trkpt>
      <trkpt lat="49.95361" lon="2.09483">
        <ele>65.7</ele>
        <time>2022-04-12T10:36:08Z</time>
      </trkpt>
      <trkpt lat="49.95361" lon="2.09481">
        <ele>65.8</ele>
        <time>2022-04-12T10:36:09Z</time>
      </trkpt>
      <trkpt lat="49.95362" lon="2.09479">
        <ele>65.8</ele>
        <time>2022-04-12T10:36:10Z</time>
      </trkpt>
      <trkpt lat="49.95362" lon="2.09478">
        <ele>65.9</ele>
        <time>2022-04-12T10:36:12Z</time>
      </trkpt>
      <trkpt lat="49.95362" lon="2.09476">
        <ele>65.9</ele>
        <time>2022-04-12T10:36:13Z</time>
      </trkpt>
      <trkpt lat="49.95363" lon="2.09475">
        <ele>66</ele>
        <time>2022-04-12T10:36:14Z</time>
      </trkpt>
      <trkpt lat="49.95363" lon="2.09473">
        <ele>66</ele>
        <time>2022-04-12T10:36:15Z</time>
      </trkpt>
      <trkpt lat="49.95363" lon="2.09472">
        <ele>66.1</ele>
        <time>2022-04-12T10:36:16Z</time>
      </trkpt>
      <trkpt lat="49.95364" lon="2.0947">
        <ele>66.1</ele>
        <time>2022-04-12T10:36:17Z</time>
      </trkpt>
      <trkpt lat="49.95364" lon="2.09467">
        <ele>66.2</ele>
        <time>2022-04-12T10:36:18Z</time>
      </trkpt>
      <trkpt lat="49.95365" lon="2.09466">
        <ele>66.2</ele>
        <time>2022-04-12T10:36:19Z</time>
      </trkpt>
      <trkpt lat="49.95365" lon="2.09465">
        <ele>66.3</ele>
        <time>2022-04-12T10:36:20Z</time>
      </trkpt>
      <trkpt lat="49.95366" lon="2.09461">
        <ele>66.3</ele>
        <time>2022-04-12T10:36:22Z</time>
      </trkpt>
      <trkpt lat="49.95366" lon="2.0946">
        <ele>66.4</ele>
        <time>2022-04-12T10:36:23Z</time>
      </trkpt>
      <trkpt lat="49.95366" lon="2.09459">
        <ele>66.4</ele>
        <time>2022-04-12T10:36:24Z</time>
      </trkpt>
      <trkpt lat="49.95367" lon="2.09456">
        <ele>66.5</ele>
        <time>2022-04-12T10:36:25Z</time>
      </trkpt>
      <trkpt lat="49.95368" lon="2.09455">
        <ele>66.5</ele>
        <time>2022-04-12T10:36:26Z</time>
      </trkpt>
      <trkpt lat="49.95368" lon="2.09453">
        <ele>66.6</ele>
        <time>2022-04-12T10:36:27Z</time>
      </trkpt>
      <trkpt lat="49.95369" lon="2.0945">
        <ele>66.7</ele>
        <time>2022-04-12T10:36:28Z</time>
      </trkpt>
      <trkpt lat="49.95369" lon="2.09449">
        <ele>66.7</ele>
        <time>2022-04-12T10:36:29Z</time>
      </trkpt>
      <trkpt lat="49.95369" lon="2.09448">
        <ele>66.7</ele>
        <time>2022-04-12T10:36:30Z</time>
      </trkpt>
      <trkpt lat="49.9537" lon="2.09445">
        <ele>66.8</ele>
        <time>2022-04-12T10:36:32Z</time>
      </trkpt>
      <trkpt lat="49.9537" lon="2.09443">
        <ele>66.8</ele>
        <time>2022-04-12T10:36:33Z</time>
      </trkpt>
      <trkpt lat="49.95371" lon="2.09442">
        <ele>66.9</ele>
        <time>2022-04-12T10:36:34Z</time>
      </trkpt>
      <trkpt lat="49.95371" lon="2.09441">
        <ele>66.9</ele>
        <time>2022-04-12T10:36:35Z</time>
      </trkpt>
      <trkpt lat="49.95371" lon="2.0944">
        <ele>66.9</ele>
        <time>2022-04-12T10:36:36Z</time>
      </trkpt>
      <trkpt lat="49.95372" lon="2.09438">
        <ele>67</ele>
        <time>2022-04-12T10:36:37Z</time>
      </trkpt>
      <trkpt lat="49.95372" lon="2.09436">
        <ele>67</ele>
        <time>2022-04-12T10:36:38Z</time>
      </trkpt>
      <trkpt lat="49.95372" lon="2.09435">
        <ele>67.1</ele>
        <time>2022-04-12T10:36:39Z</time>
      </trkpt>
      <trkpt lat="49.95372" lon="2.09433">
        <ele>67.1</ele>
        <time>2022-04-12T10:36:40Z</time>
      </trkpt>
      <trkpt lat="49.95372" lon="2.09432">
        <ele>67.1</ele>
        <time>2022-04-12T10:36:41Z</time>
      </trkpt>
      <trkpt lat="49.95373" lon="2.0943">
        <ele>67.2</ele>
        <time>2022-04-12T10:36:42Z</time>
      </trkpt>
      <trkpt lat="49.95373" lon="2.09428">
        <ele>67.2</ele>
        <time>2022-04-12T10:36:43Z</time>
      </trkpt>
      <trkpt lat="49.95373" lon="2.09425">
        <ele>67.3</ele>
        <time>2022-04-12T10:36:45Z</time>
      </trkpt>
      <trkpt lat="49.95373" lon="2.09424">
        <ele>67.3</ele>
        <time>2022-04-12T10:36:46Z</time>
      </trkpt>
      <trkpt lat="49.95373" lon="2.09422">
        <ele>67.3</ele>
        <time>2022-04-12T10:36:47Z</time>
      </trkpt>
      <trkpt lat="49.95373" lon="2.09421">
        <ele>67.4</ele>
        <time>2022-04-12T10:36:48Z</time>
      </trkpt>
      <trkpt lat="49.95373" lon="2.09419">
        <ele>67.4</ele>
        <time>2022-04-12T10:36:49Z</time>
      </trkpt>
      <trkpt lat="49.95373" lon="2.09417">
        <ele>67.5</ele>
        <time>2022-04-12T10:36:51Z</time>
      </trkpt>
      <trkpt lat="49.95374" lon="2.09415">
        <ele>67.5</ele>
        <time>2022-04-12T10:36:52Z</time>
      </trkpt>
      <trkpt lat="49.95374" lon="2.09414">
        <ele>67.5</ele>
        <time>2022-04-12T10:36:53Z</time>
      </trkpt>
      <trkpt lat="49.95374" lon="2.09412">
        <ele>67.6</ele>
        <time>2022-04-12T10:36:54Z</time>
      </trkpt>
      <trkpt lat="49.95374" lon="2.0941">
        <ele>67.6</ele>
        <time>2022-04-12T10:36:55Z</time>
      </trkpt>
      <trkpt lat="49.95374" lon="2.09408">
        <ele>67.6</ele>
        <time>2022-04-12T10:36:56Z</time>
      </trkpt>
      <trkpt lat="49.95374" lon="2.09406">
        <ele>67.7</ele>
        <time>2022-04-12T10:36:58Z</time>
      </trkpt>
      <trkpt lat="49.95374" lon="2.09405">
        <ele>67.7</ele>
        <time>2022-04-12T10:36:59Z</time>
      </trkpt>
      <trkpt lat="49.95374" lon="2.09403">
        <ele>67.7</ele>
        <time>2022-04-12T10:37:00Z</time>
      </trkpt>
      <trkpt lat="49.95374" lon="2.09401">
        <ele>67.8</ele>
        <time>2022-04-12T10:37:01Z</time>
      </trkpt>
      <trkpt lat="49.95374" lon="2.09399">
        <ele>67.8</ele>
        <time>2022-04-12T10:37:02Z</time>
      </trkpt>
      <trkpt lat="49.95375" lon="2.09397">
        <ele>67.8</ele>
        <time>2022-04-12T10:37:03Z</time>
      </trkpt>
      <trkpt lat="49.95375" lon="2.09396">
        <ele>67.9</ele>
        <time>2022-04-12T10:37:04Z</time>
      </trkpt>
      <trkpt lat="49.95375" lon="2.09394">
        <ele>67.9</ele>
        <time>2022-04-12T10:37:05Z</time>
      </trkpt>
      <trkpt lat="49.95376" lon="2.09392">
        <ele>67.9</ele>
        <time>2022-04-12T10:37:07Z</time>
      </trkpt>
      <trkpt lat="49.95376" lon="2.0939">
        <ele>68</ele>
        <time>2022-04-12T10:37:08Z</time>
      </trkpt>
      <trkpt lat="49.95376" lon="2.09389">
        <ele>68</ele>
        <time>2022-04-12T10:37:09Z</time>
      </trkpt>
      <trkpt lat="49.95377" lon="2.09387">
        <ele>68</ele>
        <time>2022-04-12T10:37:10Z</time>
      </trkpt>
      <trkpt lat="49.95377" lon="2.09386">
        <ele>68.1</ele>
        <time>2022-04-12T10:37:11Z</time>
      </trkpt>
      <trkpt lat="49.95378" lon="2.09385">
        <ele>68.1</ele>
        <time>2022-04-12T10:37:12Z</time>
      </trkpt>
      <trkpt lat="49.95379" lon="2.09384">
        <ele>68.1</ele>
        <time>2022-04-12T10:37:13Z</time>
      </trkpt>
      <trkpt lat="49.9538" lon="2.09382">
        <ele>68.2</ele>
        <time>2022-04-12T10:37:14Z</time>
      </trkpt>
      <trkpt lat="49.95381" lon="2.09382">
        <ele>68.3</ele>
        <time>2022-04-12T10:37:16Z</time>
      </trkpt>
      <trkpt lat="49.95382" lon="2.09382">
        <ele>68.3</ele>
        <time>2022-04-12T10:37:17Z</time>
      </trkpt>
      <trkpt lat="49.95383" lon="2.09382">
        <ele>68.3</ele>
        <time>2022-04-12T10:37:18Z</time>
      </trkpt>
      <trkpt lat="49.95385" lon="2.09383">
        <ele>68.3</ele>
        <time>2022-04-12T10:37:19Z</time>
      </trkpt>
      <trkpt lat="49.95386" lon="2.09383">
        <ele>68.3</ele>
        <time>2022-04-12T10:37:20Z</time>
      </trkpt>
      <trkpt lat="49.95387" lon="2.09383">
        <ele>68.3</ele>
        <time>2022-04-12T10:37:21Z</time>
      </trkpt>
      <trkpt lat="49.95388" lon="2.09384">
        <ele>68.3</ele>
        <time>2022-04-12T10:37:22Z</time>
      </trkpt>
      <trkpt lat="49.95388" lon="2.09386">
        <ele>68.2</ele>
        <time>2022-04-12T10:37:23Z</time>
      </trkpt>
      <trkpt lat="49.95389" lon="2.09387">
        <ele>68.2</ele>
        <time>2022-04-12T10:37:25Z</time>
      </trkpt>
      <trkpt lat="49.95389" lon="2.09389">
        <ele>68.2</ele>
        <time>2022-04-12T10:37:26Z</time>
      </trkpt>
      <trkpt lat="49.9539" lon="2.09391">
        <ele>68.2</ele>
        <time>2022-04-12T10:37:27Z</time>
      </trkpt>
      <trkpt lat="49.95391" lon="2.09391">
        <ele>68.2</ele>
        <time>2022-04-12T10:37:28Z</time>
      </trkpt>
      <trkpt lat="49.95392" lon="2.09392">
        <ele>68.2</ele>
        <time>2022-04-12T10:37:29Z</time>
      </trkpt>
      <trkpt lat="49.95392" lon="2.09392">
        <ele>68.1</ele>
        <time>2022-04-12T10:37:30Z</time>
      </trkpt>
      <trkpt lat="49.95393" lon="2.09392">
        <ele>68.1</ele>
        <time>2022-04-12T10:37:31Z</time>
      </trkpt>
      <trkpt lat="49.95393" lon="2.09392">
        <ele>68.1</ele>
        <time>2022-04-12T10:37:32Z</time>
      </trkpt>
      <trkpt lat="49.95393" lon="2.09392">
        <ele>68.1</ele>
        <time>2022-04-12T10:37:33Z</time>
      </trkpt>
      <trkpt lat="49.95393" lon="2.09392">
        <ele>68.1</ele>
        <time>2022-04-12T10:37:34Z</time>
      </trkpt>
      <trkpt lat="49.95393" lon="2.09392">
        <ele>68.1</ele>
        <time>2022-04-12T10:37:35Z</time>
      </trkpt>
      <trkpt lat="49.95393" lon="2.09392">
        <ele>68.1</ele>
        <time>2022-04-12T10:37:36Z</time>
      </trkpt>
      <trkpt lat="49.95393" lon="2.09391">
        <ele>68.1</ele>
        <time>2022-04-12T10:37:37Z</time>
      </trkpt>
      <trkpt lat="49.95393" lon="2.09391">
        <ele>68.1</ele>
        <time>2022-04-12T10:37:38Z</time>
      </trkpt>
      <trkpt lat="49.95393" lon="2.09391">
        <ele>68.1</ele>
        <time>2022-04-12T10:37:39Z</time>
      </trkpt>
      <trkpt lat="49.95393" lon="2.09391">
        <ele>68.1</ele>
        <time>2022-04-12T10:37:40Z</time>
      </trkpt>
      <trkpt lat="49.95393" lon="2.09391">
        <ele>68.1</ele>
        <time>2022-04-12T10:37:41Z</time>
      </trkpt>
      <trkpt lat="49.95393" lon="2.09391">
        <ele>68.1</ele>
        <time>2022-04-12T10:37:42Z</time>
      </trkpt>
      <trkpt lat="49.95393" lon="2.09392">
        <ele>68.1</ele>
        <time>2022-04-12T10:37:43Z</time>
      </trkpt>
      <trkpt lat="49.95393" lon="2.09392">
        <ele>68.1</ele>
        <time>2022-04-12T10:37:44Z</time>
      </trkpt>
      <trkpt lat="49.95393" lon="2.09392">
        <ele>68.1</ele>
        <time>2022-04-12T10:37:45Z</time>
      </trkpt>
      <trkpt lat="49.95393" lon="2.09392">
        <ele>68.1</ele>
        <time>2022-04-12T10:37:46Z</time>
      </trkpt>
      <trkpt lat="49.95393" lon="2.09392">
        <ele>68.1</ele>
        <time>2022-04-12T10:37:47Z</time>
      </trkpt>
      <trkpt lat="49.95394" lon="2.09393">
        <ele>68.1</ele>
        <time>2022-04-12T10:37:48Z</time>
      </trkpt>
      <trkpt lat="49.95394" lon="2.09394">
        <ele>68.1</ele>
        <time>2022-04-12T10:37:49Z</time>
      </trkpt>
      <trkpt lat="49.95395" lon="2.09395">
        <ele>68.1</ele>
        <time>2022-04-12T10:37:50Z</time>
      </trkpt>
      <trkpt lat="49.95396" lon="2.09396">
        <ele>68</ele>
        <time>2022-04-12T10:37:52Z</time>
      </trkpt>
      <trkpt lat="49.95397" lon="2.09398">
        <ele>68</ele>
        <time>2022-04-12T10:37:53Z</time>
      </trkpt>
      <trkpt lat="49.95398" lon="2.09399">
        <ele>68</ele>
        <time>2022-04-12T10:37:54Z</time>
      </trkpt>
      <trkpt lat="49.95399" lon="2.09399">
        <ele>68</ele>
        <time>2022-04-12T10:37:55Z</time>
      </trkpt>
      <trkpt lat="49.95399" lon="2.094">
        <ele>68</ele>
        <time>2022-04-12T10:37:56Z</time>
      </trkpt>
      <trkpt lat="49.954" lon="2.094">
        <ele>68</ele>
        <time>2022-04-12T10:37:57Z</time>
      </trkpt>
      <trkpt lat="49.95401" lon="2.09401">
        <ele>67.9</ele>
        <time>2022-04-12T10:37:58Z</time>
      </trkpt>
      <trkpt lat="49.95402" lon="2.09402">
        <ele>67.9</ele>
        <time>2022-04-12T10:37:59Z</time>
      </trkpt>
      <trkpt lat="49.95403" lon="2.09403">
        <ele>67.9</ele>
        <time>2022-04-12T10:38:01Z</time>
      </trkpt>
      <trkpt lat="49.95404" lon="2.09405">
        <ele>67.9</ele>
        <time>2022-04-12T10:38:02Z</time>
      </trkpt>
      <trkpt lat="49.95404" lon="2.09406">
        <ele>67.9</ele>
        <time>2022-04-12T10:38:03Z</time>
      </trkpt>
      <trkpt lat="49.95405" lon="2.09407">
        <ele>67.9</ele>
        <time>2022-04-12T10:38:04Z</time>
      </trkpt>
      <trkpt lat="49.95405" lon="2.09408">
        <ele>67.8</ele>
        <time>2022-04-12T10:38:05Z</time>
      </trkpt>
      <trkpt lat="49.95405" lon="2.0941">
        <ele>67.8</ele>
        <time>2022-04-12T10:38:06Z</time>
      </trkpt>
      <trkpt lat="49.95405" lon="2.09411">
        <ele>67.8</ele>
        <time>2022-04-12T10:38:07Z</time>
      </trkpt>
      <trkpt lat="49.95406" lon="2.09413">
        <ele>67.8</ele>
        <time>2022-04-12T10:38:08Z</time>
      </trkpt>
      <trkpt lat="49.95408" lon="2.09415">
        <ele>67.8</ele>
        <time>2022-04-12T10:38:09Z</time>
      </trkpt>
      <trkpt lat="49.95409" lon="2.09417">
        <ele>67.8</ele>
        <time>2022-04-12T10:38:10Z</time>
      </trkpt>
      <trkpt lat="49.9541" lon="2.09419">
        <ele>67.7</ele>
        <time>2022-04-12T10:38:11Z</time>
      </trkpt>
      <trkpt lat="49.95411" lon="2.09421">
        <ele>67.7</ele>
        <time>2022-04-12T10:38:13Z</time>
      </trkpt>
      <trkpt lat="49.95412" lon="2.09422">
        <ele>67.7</ele>
        <time>2022-04-12T10:38:14Z</time>
      </trkpt>
      <trkpt lat="49.95413" lon="2.09424">
        <ele>67.7</ele>
        <time>2022-04-12T10:38:15Z</time>
      </trkpt>
      <trkpt lat="49.95414" lon="2.09426">
        <ele>67.7</ele>
        <time>2022-04-12T10:38:16Z</time>
      </trkpt>
      <trkpt lat="49.95415" lon="2.09428">
        <ele>67.7</ele>
        <time>2022-04-12T10:38:17Z</time>
      </trkpt>
      <trkpt lat="49.95416" lon="2.09429">
        <ele>67.7</ele>
        <time>2022-04-12T10:38:18Z</time>
      </trkpt>
      <trkpt lat="49.95417" lon="2.09431">
        <ele>67.7</ele>
        <time>2022-04-12T10:38:19Z</time>
      </trkpt>
      <trkpt lat="49.95418" lon="2.09432">
        <ele>67.6</ele>
        <time>2022-04-12T10:38:20Z</time>
      </trkpt>
      <trkpt lat="49.95419" lon="2.09433">
        <ele>67.6</ele>
        <time>2022-04-12T10:38:21Z</time>
      </trkpt>
      <trkpt lat="49.9542" lon="2.09436">
        <ele>67.6</ele>
        <time>2022-04-12T10:38:23Z</time>
      </trkpt>
      <trkpt lat="49.95421" lon="2.09437">
        <ele>67.6</ele>
        <time>2022-04-12T10:38:24Z</time>
      </trkpt>
      <trkpt lat="49.95421" lon="2.09438">
        <ele>67.6</ele>
        <time>2022-04-12T10:38:25Z</time>
      </trkpt>
      <trkpt lat="49.95422" lon="2.09439">
        <ele>67.6</ele>
        <time>2022-04-12T10:38:26Z</time>
      </trkpt>
      <trkpt lat="49.95423" lon="2.09441">
        <ele>67.6</ele>
        <time>2022-04-12T10:38:27Z</time>
      </trkpt>
      <trkpt lat="49.95425" lon="2.09443">
        <ele>67.6</ele>
        <time>2022-04-12T10:38:28Z</time>
      </trkpt>
      <trkpt lat="49.95425" lon="2.09444">
        <ele>67.5</ele>
        <time>2022-04-12T10:38:30Z</time>
      </trkpt>
      <trkpt lat="49.95426" lon="2.09445">
        <ele>67.5</ele>
        <time>2022-04-12T10:38:31Z</time>
      </trkpt>
      <trkpt lat="49.95427" lon="2.09447">
        <ele>67.5</ele>
        <time>2022-04-12T10:38:32Z</time>
      </trkpt>
      <trkpt lat="49.95428" lon="2.09448">
        <ele>67.5</ele>
        <time>2022-04-12T10:38:33Z</time>
      </trkpt>
      <trkpt lat="49.95429" lon="2.09449">
        <ele>67.5</ele>
        <time>2022-04-12T10:38:34Z</time>
      </trkpt>
      <trkpt lat="49.95429" lon="2.09451">
        <ele>67.5</ele>
        <time>2022-04-12T10:38:35Z</time>
      </trkpt>
      <trkpt lat="49.9543" lon="2.09452">
        <ele>67.5</ele>
        <time>2022-04-12T10:38:36Z</time>
      </trkpt>
      <trkpt lat="49.95431" lon="2.09453">
        <ele>67.5</ele>
        <time>2022-04-12T10:38:37Z</time>
      </trkpt>
      <trkpt lat="49.95433" lon="2.09454">
        <ele>67.4</ele>
        <time>2022-04-12T10:38:38Z</time>
      </trkpt>
      <trkpt lat="49.95434" lon="2.09455">
        <ele>67.4</ele>
        <time>2022-04-12T10:38:39Z</time>
      </trkpt>
      <trkpt lat="49.95435" lon="2.09456">
        <ele>67.4</ele>
        <time>2022-04-12T10:38:40Z</time>
      </trkpt>
      <trkpt lat="49.95436" lon="2.09458">
        <ele>67.4</ele>
        <time>2022-04-12T10:38:42Z</time>
      </trkpt>
      <trkpt lat="49.95437" lon="2.09459">
        <ele>67.4</ele>
        <time>2022-04-12T10:38:43Z</time>
      </trkpt>
      <trkpt lat="49.95438" lon="2.09461">
        <ele>67.4</ele>
        <time>2022-04-12T10:38:44Z</time>
      </trkpt>
      <trkpt lat="49.95439" lon="2.09462">
        <ele>67.4</ele>
        <time>2022-04-12T10:38:45Z</time>
      </trkpt>
      <trkpt lat="49.95439" lon="2.09463">
        <ele>67.4</ele>
        <time>2022-04-12T10:38:46Z</time>
      </trkpt>
      <trkpt lat="49.9544" lon="2.09465">
        <ele>67.3</ele>
        <time>2022-04-12T10:38:47Z</time>
      </trkpt>
      <trkpt lat="49.95441" lon="2.09466">
        <ele>67.3</ele>
        <time>2022-04-12T10:38:48Z</time>
      </trkpt>
      <trkpt lat="49.95441" lon="2.09467">
        <ele>67.3</ele>
        <time>2022-04-12T10:38:49Z</time>
      </trkpt>
      <trkpt lat="49.95442" lon="2.09469">
        <ele>67.3</ele>
        <time>2022-04-12T10:38:50Z</time>
      </trkpt>
      <trkpt lat="49.95443" lon="2.09471">
        <ele>67.3</ele>
        <time>2022-04-12T10:38:51Z</time>
      </trkpt>
      <trkpt lat="49.95445" lon="2.09473">
        <ele>67.3</ele>
        <time>2022-04-12T10:38:52Z</time>
      </trkpt>
      <trkpt lat="49.95445" lon="2.09473">
        <ele>67.3</ele>
        <time>2022-04-12T10:38:53Z</time>
      </trkpt>
      <trkpt lat="49.95446" lon="2.09474">
        <ele>67.2</ele>
        <time>2022-04-12T10:38:54Z</time>
      </trkpt>
      <trkpt lat="49.95447" lon="2.09475">
        <ele>67.2</ele>
        <time>2022-04-12T10:38:56Z</time>
      </trkpt>
      <trkpt lat="49.95448" lon="2.09476">
        <ele>67.2</ele>
        <time>2022-04-12T10:38:57Z</time>
      </trkpt>
      <trkpt lat="49.95448" lon="2.09478">
        <ele>67.2</ele>
        <time>2022-04-12T10:38:58Z</time>
      </trkpt>
      <trkpt lat="49.9545" lon="2.0948">
        <ele>67.2</ele>
        <time>2022-04-12T10:38:59Z</time>
      </trkpt>
      <trkpt lat="49.95451" lon="2.09481">
        <ele>67.2</ele>
        <time>2022-04-12T10:39:00Z</time>
      </trkpt>
      <trkpt lat="49.95451" lon="2.09482">
        <ele>67.2</ele>
        <time>2022-04-12T10:39:01Z</time>
      </trkpt>
      <trkpt lat="49.95452" lon="2.09484">
        <ele>67.1</ele>
        <time>2022-04-12T10:39:02Z</time>
      </trkpt>
      <trkpt lat="49.95453" lon="2.09485">
        <ele>67.1</ele>
        <time>2022-04-12T10:39:03Z</time>
      </trkpt>
      <trkpt lat="49.95454" lon="2.09487">
        <ele>67.1</ele>
        <time>2022-04-12T10:39:04Z</time>
      </trkpt>
      <trkpt lat="49.95455" lon="2.09488">
        <ele>67.1</ele>
        <time>2022-04-12T10:39:05Z</time>
      </trkpt>
      <trkpt lat="49.95456" lon="2.09489">
        <ele>67.1</ele>
        <time>2022-04-12T10:39:06Z</time>
      </trkpt>
      <trkpt lat="49.95457" lon="2.0949">
        <ele>67.1</ele>
        <time>2022-04-12T10:39:08Z</time>
      </trkpt>
      <trkpt lat="49.95458" lon="2.09491">
        <ele>67.1</ele>
        <time>2022-04-12T10:39:09Z</time>
      </trkpt>
      <trkpt lat="49.95459" lon="2.09494">
        <ele>67</ele>
        <time>2022-04-12T10:39:10Z</time>
      </trkpt>
      <trkpt lat="49.9546" lon="2.09495">
        <ele>67</ele>
        <time>2022-04-12T10:39:11Z</time>
      </trkpt>
      <trkpt lat="49.9546" lon="2.09496">
        <ele>67</ele>
        <time>2022-04-12T10:39:12Z</time>
      </trkpt>
      <trkpt lat="49.95462" lon="2.09498">
        <ele>67</ele>
        <time>2022-04-12T10:39:13Z</time>
      </trkpt>
      <trkpt lat="49.95463" lon="2.09499">
        <ele>67</ele>
        <time>2022-04-12T10:39:14Z</time>
      </trkpt>
      <trkpt lat="49.95463" lon="2.095">
        <ele>67</ele>
        <time>2022-04-12T10:39:15Z</time>
      </trkpt>
      <trkpt lat="49.95464" lon="2.09502">
        <ele>67</ele>
        <time>2022-04-12T10:39:16Z</time>
      </trkpt>
      <trkpt lat="49.95465" lon="2.09503">
        <ele>66.9</ele>
        <time>2022-04-12T10:39:17Z</time>
      </trkpt>
      <trkpt lat="49.95466" lon="2.09505">
        <ele>66.9</ele>
        <time>2022-04-12T10:39:19Z</time>
      </trkpt>
      <trkpt lat="49.95467" lon="2.09506">
        <ele>66.9</ele>
        <time>2022-04-12T10:39:20Z</time>
      </trkpt>
      <trkpt lat="49.95467" lon="2.09508">
        <ele>66.9</ele>
        <time>2022-04-12T10:39:21Z</time>
      </trkpt>
      <trkpt lat="49.95468" lon="2.09509">
        <ele>66.9</ele>
        <time>2022-04-12T10:39:22Z</time>
      </trkpt>
      <trkpt lat="49.95469" lon="2.09512">
        <ele>66.9</ele>
        <time>2022-04-12T10:39:23Z</time>
      </trkpt>
      <trkpt lat="49.9547" lon="2.09513">
        <ele>66.9</ele>
        <time>2022-04-12T10:39:24Z</time>
      </trkpt>
      <trkpt lat="49.95471" lon="2.09514">
        <ele>66.9</ele>
        <time>2022-04-12T10:39:25Z</time>
      </trkpt>
      <trkpt lat="49.95471" lon="2.09515">
        <ele>66.8</ele>
        <time>2022-04-12T10:39:27Z</time>
      </trkpt>
      <trkpt lat="49.95472" lon="2.09517">
        <ele>66.8</ele>
        <time>2022-04-12T10:39:28Z</time>
      </trkpt>
      <trkpt lat="49.95472" lon="2.09517">
        <ele>66.8</ele>
        <time>2022-04-12T10:39:29Z</time>
      </trkpt>
      <trkpt lat="49.95473" lon="2.09519">
        <ele>66.8</ele>
        <time>2022-04-12T10:39:30Z</time>
      </trkpt>
      <trkpt lat="49.95473" lon="2.0952">
        <ele>66.8</ele>
        <time>2022-04-12T10:39:31Z</time>
      </trkpt>
      <trkpt lat="49.95474" lon="2.09521">
        <ele>66.8</ele>
        <time>2022-04-12T10:39:32Z</time>
      </trkpt>
      <trkpt lat="49.95476" lon="2.09524">
        <ele>66.7</ele>
        <time>2022-04-12T10:39:33Z</time>
      </trkpt>
      <trkpt lat="49.95476" lon="2.09525">
        <ele>66.7</ele>
        <time>2022-04-12T10:39:34Z</time>
      </trkpt>
      <trkpt lat="49.95477" lon="2.09525">
        <ele>66.7</ele>
        <time>2022-04-12T10:39:35Z</time>
      </trkpt>
      <trkpt lat="49.95478" lon="2.09527">
        <ele>66.7</ele>
        <time>2022-04-12T10:39:36Z</time>
      </trkpt>
      <trkpt lat="49.95479" lon="2.09528">
        <ele>66.7</ele>
        <time>2022-04-12T10:39:37Z</time>
      </trkpt>
      <trkpt lat="49.9548" lon="2.0953">
        <ele>66.7</ele>
        <time>2022-04-12T10:39:38Z</time>
      </trkpt>
      <trkpt lat="49.95481" lon="2.09531">
        <ele>66.6</ele>
        <time>2022-04-12T10:39:40Z</time>
      </trkpt>
      <trkpt lat="49.95481" lon="2.09532">
        <ele>66.6</ele>
        <time>2022-04-12T10:39:41Z</time>
      </trkpt>
      <trkpt lat="49.95482" lon="2.09533">
        <ele>66.6</ele>
        <time>2022-04-12T10:39:42Z</time>
      </trkpt>
      <trkpt lat="49.95483" lon="2.09535">
        <ele>66.6</ele>
        <time>2022-04-12T10:39:43Z</time>
      </trkpt>
      <trkpt lat="49.95484" lon="2.09536">
        <ele>66.6</ele>
        <time>2022-04-12T10:39:44Z</time>
      </trkpt>
      <trkpt lat="49.95484" lon="2.09538">
        <ele>66.6</ele>
        <time>2022-04-12T10:39:45Z</time>
      </trkpt>
      <trkpt lat="49.95485" lon="2.09539">
        <ele>66.6</ele>
        <time>2022-04-12T10:39:46Z</time>
      </trkpt>
      <trkpt lat="49.95486" lon="2.0954">
        <ele>66.5</ele>
        <time>2022-04-12T10:39:47Z</time>
      </trkpt>
      <trkpt lat="49.95487" lon="2.09542">
        <ele>66.5</ele>
        <time>2022-04-12T10:39:48Z</time>
      </trkpt>
      <trkpt lat="49.95488" lon="2.09544">
        <ele>66.5</ele>
        <time>2022-04-12T10:39:49Z</time>
      </trkpt>
      <trkpt lat="49.95489" lon="2.09546">
        <ele>66.5</ele>
        <time>2022-04-12T10:39:50Z</time>
      </trkpt>
      <trkpt lat="49.9549" lon="2.09547">
        <ele>66.5</ele>
        <time>2022-04-12T10:39:51Z</time>
      </trkpt>
      <trkpt lat="49.9549" lon="2.09548">
        <ele>66.5</ele>
        <time>2022-04-12T10:39:52Z</time>
      </trkpt>
      <trkpt lat="49.95492" lon="2.09551">
        <ele>66.4</ele>
        <time>2022-04-12T10:39:54Z</time>
      </trkpt>
      <trkpt lat="49.95492" lon="2.09552">
        <ele>66.4</ele>
        <time>2022-04-12T10:39:55Z</time>
      </trkpt>
      <trkpt lat="49.95493" lon="2.09553">
        <ele>66.4</ele>
        <time>2022-04-12T10:39:56Z</time>
      </trkpt>
      <trkpt lat="49.95494" lon="2.09554">
        <ele>66.4</ele>
        <time>2022-04-12T10:39:57Z</time>
      </trkpt>
      <trkpt lat="49.95495" lon="2.09556">
        <ele>66.3</ele>
        <time>2022-04-12T10:39:58Z</time>
      </trkpt>
      <trkpt lat="49.95496" lon="2.09558">
        <ele>66.3</ele>
        <time>2022-04-12T10:39:59Z</time>
      </trkpt>
      <trkpt lat="49.95497" lon="2.09559">
        <ele>66.3</ele>
        <time>2022-04-12T10:40:01Z</time>
      </trkpt>
      <trkpt lat="49.95498" lon="2.0956">
        <ele>66.3</ele>
        <time>2022-04-12T10:40:02Z</time>
      </trkpt>
      <trkpt lat="49.95499" lon="2.09561">
        <ele>66.2</ele>
        <time>2022-04-12T10:40:03Z</time>
      </trkpt>
      <trkpt lat="49.955" lon="2.09562">
        <ele>66.2</ele>
        <time>2022-04-12T10:40:04Z</time>
      </trkpt>
      <trkpt lat="49.95501" lon="2.09563">
        <ele>66.2</ele>
        <time>2022-04-12T10:40:05Z</time>
      </trkpt>
      <trkpt lat="49.95501" lon="2.09565">
        <ele>66.2</ele>
        <time>2022-04-12T10:40:06Z</time>
      </trkpt>
      <trkpt lat="49.95502" lon="2.09566">
        <ele>66.2</ele>
        <time>2022-04-12T10:40:07Z</time>
      </trkpt>
      <trkpt lat="49.95503" lon="2.09567">
        <ele>66.2</ele>
        <time>2022-04-12T10:40:08Z</time>
      </trkpt>
      <trkpt lat="49.95503" lon="2.09569">
        <ele>66.1</ele>
        <time>2022-04-12T10:40:09Z</time>
      </trkpt>
      <trkpt lat="49.95504" lon="2.0957">
        <ele>66.1</ele>
        <time>2022-04-12T10:40:10Z</time>
      </trkpt>
      <trkpt lat="49.95506" lon="2.09572">
        <ele>66.1</ele>
        <time>2022-04-12T10:40:12Z</time>
      </trkpt>
      <trkpt lat="49.95507" lon="2.09573">
        <ele>66.1</ele>
        <time>2022-04-12T10:40:13Z</time>
      </trkpt>
      <trkpt lat="49.95508" lon="2.09574">
        <ele>66</ele>
        <time>2022-04-12T10:40:14Z</time>
      </trkpt>
      <trkpt lat="49.95509" lon="2.09575">
        <ele>66</ele>
        <time>2022-04-12T10:40:15Z</time>
      </trkpt>
      <trkpt lat="49.9551" lon="2.09576">
        <ele>66</ele>
        <time>2022-04-12T10:40:16Z</time>
      </trkpt>
      <trkpt lat="49.95511" lon="2.09578">
        <ele>66</ele>
        <time>2022-04-12T10:40:17Z</time>
      </trkpt>
      <trkpt lat="49.95512" lon="2.09579">
        <ele>66</ele>
        <time>2022-04-12T10:40:18Z</time>
      </trkpt>
      <trkpt lat="49.95513" lon="2.0958">
        <ele>65.9</ele>
        <time>2022-04-12T10:40:19Z</time>
      </trkpt>
      <trkpt lat="49.95514" lon="2.09581">
        <ele>65.9</ele>
        <time>2022-04-12T10:40:20Z</time>
      </trkpt>
      <trkpt lat="49.95515" lon="2.09582">
        <ele>65.9</ele>
        <time>2022-04-12T10:40:21Z</time>
      </trkpt>
      <trkpt lat="49.95516" lon="2.09584">
        <ele>65.9</ele>
        <time>2022-04-12T10:40:22Z</time>
      </trkpt>
      <trkpt lat="49.95517" lon="2.09585">
        <ele>65.9</ele>
        <time>2022-04-12T10:40:23Z</time>
      </trkpt>
      <trkpt lat="49.95519" lon="2.09588">
        <ele>65.8</ele>
        <time>2022-04-12T10:40:25Z</time>
      </trkpt>
      <trkpt lat="49.95519" lon="2.09589">
        <ele>65.8</ele>
        <time>2022-04-12T10:40:26Z</time>
      </trkpt>
      <trkpt lat="49.9552" lon="2.0959">
        <ele>65.8</ele>
        <time>2022-04-12T10:40:27Z</time>
      </trkpt>
      <trkpt lat="49.95521" lon="2.09592">
        <ele>65.8</ele>
        <time>2022-04-12T10:40:28Z</time>
      </trkpt>
      <trkpt lat="49.95522" lon="2.09593">
        <ele>65.8</ele>
        <time>2022-04-12T10:40:29Z</time>
      </trkpt>
      <trkpt lat="49.95523" lon="2.09594">
        <ele>65.7</ele>
        <time>2022-04-12T10:40:30Z</time>
      </trkpt>
      <trkpt lat="49.95524" lon="2.09595">
        <ele>65.7</ele>
        <time>2022-04-12T10:40:31Z</time>
      </trkpt>
      <trkpt lat="49.95525" lon="2.09596">
        <ele>65.7</ele>
        <time>2022-04-12T10:40:32Z</time>
      </trkpt>
      <trkpt lat="49.95525" lon="2.09597">
        <ele>65.7</ele>
        <time>2022-04-12T10:40:33Z</time>
      </trkpt>
      <trkpt lat="49.95526" lon="2.09598">
        <ele>65.7</ele>
        <time>2022-04-12T10:40:34Z</time>
      </trkpt>
      <trkpt lat="49.95527" lon="2.096">
        <ele>65.7</ele>
        <time>2022-04-12T10:40:36Z</time>
      </trkpt>
      <trkpt lat="49.95528" lon="2.09601">
        <ele>65.6</ele>
        <time>2022-04-12T10:40:37Z</time>
      </trkpt>
      <trkpt lat="49.95529" lon="2.09603">
        <ele>65.6</ele>
        <time>2022-04-12T10:40:38Z</time>
      </trkpt>
      <trkpt lat="49.95531" lon="2.09604">
        <ele>65.6</ele>
        <time>2022-04-12T10:40:39Z</time>
      </trkpt>
      <trkpt lat="49.95532" lon="2.09606">
        <ele>65.6</ele>
        <time>2022-04-12T10:40:40Z</time>
      </trkpt>
      <trkpt lat="49.95533" lon="2.09608">
        <ele>65.6</ele>
        <time>2022-04-12T10:40:41Z</time>
      </trkpt>
      <trkpt lat="49.95534" lon="2.09609">
        <ele>65.5</ele>
        <time>2022-04-12T10:40:42Z</time>
      </trkpt>
      <trkpt lat="49.95535" lon="2.0961">
        <ele>65.5</ele>
        <time>2022-04-12T10:40:43Z</time>
      </trkpt>
      <trkpt lat="49.95536" lon="2.09611">
        <ele>65.5</ele>
        <time>2022-04-12T10:40:44Z</time>
      </trkpt>
      <trkpt lat="49.95537" lon="2.09612">
        <ele>65.5</ele>
        <time>2022-04-12T10:40:45Z</time>
      </trkpt>
      <trkpt lat="49.95538" lon="2.09613">
        <ele>65.5</ele>
        <time>2022-04-12T10:40:47Z</time>
      </trkpt>
      <trkpt lat="49.95539" lon="2.09614">
        <ele>65.5</ele>
        <time>2022-04-12T10:40:48Z</time>
      </trkpt>
      <trkpt lat="49.9554" lon="2.09615">
        <ele>65.5</ele>
        <time>2022-04-12T10:40:49Z</time>
      </trkpt>
      <trkpt lat="49.95541" lon="2.09616">
        <ele>65.4</ele>
        <time>2022-04-12T10:40:50Z</time>
      </trkpt>
      <trkpt lat="49.95542" lon="2.09619">
        <ele>65.4</ele>
        <time>2022-04-12T10:40:51Z</time>
      </trkpt>
      <trkpt lat="49.95543" lon="2.09619">
        <ele>65.4</ele>
        <time>2022-04-12T10:40:52Z</time>
      </trkpt>
      <trkpt lat="49.95544" lon="2.0962">
        <ele>65.4</ele>
        <time>2022-04-12T10:40:53Z</time>
      </trkpt>
      <trkpt lat="49.95545" lon="2.09622">
        <ele>65.4</ele>
        <time>2022-04-12T10:40:54Z</time>
      </trkpt>
      <trkpt lat="49.95546" lon="2.09624">
        <ele>65.4</ele>
        <time>2022-04-12T10:40:55Z</time>
      </trkpt>
      <trkpt lat="49.95547" lon="2.09626">
        <ele>65.3</ele>
        <time>2022-04-12T10:40:57Z</time>
      </trkpt>
      <trkpt lat="49.95548" lon="2.09627">
        <ele>65.3</ele>
        <time>2022-04-12T10:40:58Z</time>
      </trkpt>
      <trkpt lat="49.95548" lon="2.09628">
        <ele>65.3</ele>
        <time>2022-04-12T10:40:59Z</time>
      </trkpt>
      <trkpt lat="49.95549" lon="2.0963">
        <ele>65.3</ele>
        <time>2022-04-12T10:41:00Z</time>
      </trkpt>
      <trkpt lat="49.9555" lon="2.09631">
        <ele>65.3</ele>
        <time>2022-04-12T10:41:01Z</time>
      </trkpt>
      <trkpt lat="49.95552" lon="2.09634">
        <ele>65.2</ele>
        <time>2022-04-12T10:41:02Z</time>
      </trkpt>
      <trkpt lat="49.95552" lon="2.09635">
        <ele>65.2</ele>
        <time>2022-04-12T10:41:03Z</time>
      </trkpt>
      <trkpt lat="49.95553" lon="2.09635">
        <ele>65.2</ele>
        <time>2022-04-12T10:41:04Z</time>
      </trkpt>
      <trkpt lat="49.95553" lon="2.09636">
        <ele>65.2</ele>
        <time>2022-04-12T10:41:05Z</time>
      </trkpt>
      <trkpt lat="49.95554" lon="2.09638">
        <ele>65.2</ele>
        <time>2022-04-12T10:41:07Z</time>
      </trkpt>
      <trkpt lat="49.95555" lon="2.09639">
        <ele>65.2</ele>
        <time>2022-04-12T10:41:08Z</time>
      </trkpt>
      <trkpt lat="49.95556" lon="2.09641">
        <ele>65.1</ele>
        <time>2022-04-12T10:41:09Z</time>
      </trkpt>
      <trkpt lat="49.95557" lon="2.09642">
        <ele>65.1</ele>
        <time>2022-04-12T10:41:10Z</time>
      </trkpt>
      <trkpt lat="49.95558" lon="2.09645">
        <ele>65.1</ele>
        <time>2022-04-12T10:41:11Z</time>
      </trkpt>
      <trkpt lat="49.95558" lon="2.09646">
        <ele>65.1</ele>
        <time>2022-04-12T10:41:12Z</time>
      </trkpt>
      <trkpt lat="49.95559" lon="2.09647">
        <ele>65</ele>
        <time>2022-04-12T10:41:13Z</time>
      </trkpt>
      <trkpt lat="49.9556" lon="2.09649">
        <ele>65</ele>
        <time>2022-04-12T10:41:14Z</time>
      </trkpt>
      <trkpt lat="49.95561" lon="2.09651">
        <ele>65</ele>
        <time>2022-04-12T10:41:15Z</time>
      </trkpt>
      <trkpt lat="49.95562" lon="2.09653">
        <ele>64.9</ele>
        <time>2022-04-12T10:41:16Z</time>
      </trkpt>
      <trkpt lat="49.95563" lon="2.09655">
        <ele>64.9</ele>
        <time>2022-04-12T10:41:18Z</time>
      </trkpt>
      <trkpt lat="49.95564" lon="2.09656">
        <ele>64.9</ele>
        <time>2022-04-12T10:41:19Z</time>
      </trkpt>
      <trkpt lat="49.95565" lon="2.09657">
        <ele>64.9</ele>
        <time>2022-04-12T10:41:20Z</time>
      </trkpt>
      <trkpt lat="49.95565" lon="2.09658">
        <ele>64.8</ele>
        <time>2022-04-12T10:41:21Z</time>
      </trkpt>
      <trkpt lat="49.95566" lon="2.0966">
        <ele>64.8</ele>
        <time>2022-04-12T10:41:22Z</time>
      </trkpt>
      <trkpt lat="49.95567" lon="2.09661">
        <ele>64.8</ele>
        <time>2022-04-12T10:41:23Z</time>
      </trkpt>
      <trkpt lat="49.95567" lon="2.09662">
        <ele>64.8</ele>
        <time>2022-04-12T10:41:24Z</time>
      </trkpt>
      <trkpt lat="49.95568" lon="2.09663">
        <ele>64.8</ele>
        <time>2022-04-12T10:41:25Z</time>
      </trkpt>
      <trkpt lat="49.95569" lon="2.09665">
        <ele>64.7</ele>
        <time>2022-04-12T10:41:26Z</time>
      </trkpt>
      <trkpt lat="49.9557" lon="2.09666">
        <ele>64.7</ele>
        <time>2022-04-12T10:41:27Z</time>
      </trkpt>
      <trkpt lat="49.95571" lon="2.09667">
        <ele>64.7</ele>
        <time>2022-04-12T10:41:28Z</time>
      </trkpt>
      <trkpt lat="49.95572" lon="2.09669">
        <ele>64.6</ele>
        <time>2022-04-12T10:41:29Z</time>
      </trkpt>
      <trkpt lat="49.95573" lon="2.0967">
        <ele>64.6</ele>
        <time>2022-04-12T10:41:30Z</time>
      </trkpt>
      <trkpt lat="49.95574" lon="2.09672">
        <ele>64.6</ele>
        <time>2022-04-12T10:41:32Z</time>
      </trkpt>
      <trkpt lat="49.95575" lon="2.09673">
        <ele>64.5</ele>
        <time>2022-04-12T10:41:33Z</time>
      </trkpt>
      <trkpt lat="49.95575" lon="2.09674">
        <ele>64.5</ele>
        <time>2022-04-12T10:41:34Z</time>
      </trkpt>
      <trkpt lat="49.95577" lon="2.09676">
        <ele>64.5</ele>
        <time>2022-04-12T10:41:35Z</time>
      </trkpt>
      <trkpt lat="49.95578" lon="2.09677">
        <ele>64.4</ele>
        <time>2022-04-12T10:41:36Z</time>
      </trkpt>
      <trkpt lat="49.95578" lon="2.09678">
        <ele>64.4</ele>
        <time>2022-04-12T10:41:37Z</time>
      </trkpt>
      <trkpt lat="49.95579" lon="2.09679">
        <ele>64.4</ele>
        <time>2022-04-12T10:41:38Z</time>
      </trkpt>
      <trkpt lat="49.9558" lon="2.09681">
        <ele>64.4</ele>
        <time>2022-04-12T10:41:39Z</time>
      </trkpt>
      <trkpt lat="49.95581" lon="2.09682">
        <ele>64.3</ele>
        <time>2022-04-12T10:41:40Z</time>
      </trkpt>
      <trkpt lat="49.95582" lon="2.09683">
        <ele>64.3</ele>
        <time>2022-04-12T10:41:41Z</time>
      </trkpt>
      <trkpt lat="49.95583" lon="2.09685">
        <ele>64.3</ele>
        <time>2022-04-12T10:41:42Z</time>
      </trkpt>
      <trkpt lat="49.95584" lon="2.09687">
        <ele>64.2</ele>
        <time>2022-04-12T10:41:44Z</time>
      </trkpt>
      <trkpt lat="49.95585" lon="2.09689">
        <ele>64.2</ele>
        <time>2022-04-12T10:41:45Z</time>
      </trkpt>
      <trkpt lat="49.95586" lon="2.0969">
        <ele>64.2</ele>
        <time>2022-04-12T10:41:46Z</time>
      </trkpt>
      <trkpt lat="49.95587" lon="2.09691">
        <ele>64.2</ele>
        <time>2022-04-12T10:41:47Z</time>
      </trkpt>
      <trkpt lat="49.95588" lon="2.09693">
        <ele>64.1</ele>
        <time>2022-04-12T10:41:48Z</time>
      </trkpt>
      <trkpt lat="49.95589" lon="2.09695">
        <ele>64.1</ele>
        <time>2022-04-12T10:41:49Z</time>
      </trkpt>
      <trkpt lat="49.9559" lon="2.09697">
        <ele>64.1</ele>
        <time>2022-04-12T10:41:50Z</time>
      </trkpt>
      <trkpt lat="49.95591" lon="2.09698">
        <ele>64.1</ele>
        <time>2022-04-12T10:41:51Z</time>
      </trkpt>
      <trkpt lat="49.95591" lon="2.09698">
        <ele>64</ele>
        <time>2022-04-12T10:41:52Z</time>
      </trkpt>
      <trkpt lat="49.95592" lon="2.097">
        <ele>64</ele>
        <time>2022-04-12T10:41:53Z</time>
      </trkpt>
      <trkpt lat="49.95593" lon="2.09701">
        <ele>64</ele>
        <time>2022-04-12T10:41:54Z</time>
      </trkpt>
      <trkpt lat="49.95594" lon="2.09702">
        <ele>64</ele>
        <time>2022-04-12T10:41:56Z</time>
      </trkpt>
      <trkpt lat="49.95595" lon="2.09703">
        <ele>64</ele>
        <time>2022-04-12T10:41:57Z</time>
      </trkpt>
      <trkpt lat="49.95596" lon="2.09705">
        <ele>63.9</ele>
        <time>2022-04-12T10:41:58Z</time>
      </trkpt>
      <trkpt lat="49.95596" lon="2.09706">
        <ele>63.9</ele>
        <time>2022-04-12T10:41:59Z</time>
      </trkpt>
      <trkpt lat="49.95598" lon="2.09709">
        <ele>63.9</ele>
        <time>2022-04-12T10:42:00Z</time>
      </trkpt>
      <trkpt lat="49.95599" lon="2.0971">
        <ele>63.9</ele>
        <time>2022-04-12T10:42:01Z</time>
      </trkpt>
      <trkpt lat="49.95599" lon="2.09711">
        <ele>63.8</ele>
        <time>2022-04-12T10:42:02Z</time>
      </trkpt>
      <trkpt lat="49.95601" lon="2.09712">
        <ele>63.8</ele>
        <time>2022-04-12T10:42:04Z</time>
      </trkpt>
      <trkpt lat="49.95602" lon="2.09714">
        <ele>63.8</ele>
        <time>2022-04-12T10:42:05Z</time>
      </trkpt>
      <trkpt lat="49.95603" lon="2.09715">
        <ele>63.7</ele>
        <time>2022-04-12T10:42:06Z</time>
      </trkpt>
      <trkpt lat="49.95604" lon="2.09717">
        <ele>63.7</ele>
        <time>2022-04-12T10:42:07Z</time>
      </trkpt>
      <trkpt lat="49.95605" lon="2.09718">
        <ele>63.7</ele>
        <time>2022-04-12T10:42:08Z</time>
      </trkpt>
      <trkpt lat="49.95607" lon="2.09719">
        <ele>63.7</ele>
        <time>2022-04-12T10:42:10Z</time>
      </trkpt>
      <trkpt lat="49.95608" lon="2.0972">
        <ele>63.6</ele>
        <time>2022-04-12T10:42:11Z</time>
      </trkpt>
      <trkpt lat="49.95609" lon="2.0972">
        <ele>63.6</ele>
        <time>2022-04-12T10:42:12Z</time>
      </trkpt>
      <trkpt lat="49.9561" lon="2.09722">
        <ele>63.6</ele>
        <time>2022-04-12T10:42:13Z</time>
      </trkpt>
      <trkpt lat="49.95611" lon="2.09724">
        <ele>63.5</ele>
        <time>2022-04-12T10:42:14Z</time>
      </trkpt>
      <trkpt lat="49.95612" lon="2.09725">
        <ele>63.5</ele>
        <time>2022-04-12T10:42:15Z</time>
      </trkpt>
      <trkpt lat="49.95613" lon="2.09726">
        <ele>63.5</ele>
        <time>2022-04-12T10:42:16Z</time>
      </trkpt>
      <trkpt lat="49.95614" lon="2.09728">
        <ele>63.5</ele>
        <time>2022-04-12T10:42:18Z</time>
      </trkpt>
      <trkpt lat="49.95615" lon="2.09729">
        <ele>63.4</ele>
        <time>2022-04-12T10:42:19Z</time>
      </trkpt>
      <trkpt lat="49.95615" lon="2.0973">
        <ele>63.4</ele>
        <time>2022-04-12T10:42:20Z</time>
      </trkpt>
      <trkpt lat="49.95616" lon="2.09732">
        <ele>63.4</ele>
        <time>2022-04-12T10:42:21Z</time>
      </trkpt>
      <trkpt lat="49.95617" lon="2.09733">
        <ele>63.3</ele>
        <time>2022-04-12T10:42:22Z</time>
      </trkpt>
      <trkpt lat="49.95618" lon="2.09734">
        <ele>63.3</ele>
        <time>2022-04-12T10:42:23Z</time>
      </trkpt>
      <trkpt lat="49.95619" lon="2.09735">
        <ele>63.3</ele>
        <time>2022-04-12T10:42:25Z</time>
      </trkpt>
      <trkpt lat="49.9562" lon="2.09735">
        <ele>63.3</ele>
        <time>2022-04-12T10:42:26Z</time>
      </trkpt>
      <trkpt lat="49.95621" lon="2.09736">
        <ele>63.2</ele>
        <time>2022-04-12T10:42:27Z</time>
      </trkpt>
      <trkpt lat="49.95622" lon="2.09737">
        <ele>63.2</ele>
        <time>2022-04-12T10:42:28Z</time>
      </trkpt>
      <trkpt lat="49.95623" lon="2.09738">
        <ele>63.2</ele>
        <time>2022-04-12T10:42:29Z</time>
      </trkpt>
      <trkpt lat="49.95625" lon="2.09741">
        <ele>63.1</ele>
        <time>2022-04-12T10:42:30Z</time>
      </trkpt>
      <trkpt lat="49.95625" lon="2.09742">
        <ele>63.1</ele>
        <time>2022-04-12T10:42:31Z</time>
      </trkpt>
      <trkpt lat="49.95626" lon="2.09743">
        <ele>63</ele>
        <time>2022-04-12T10:42:32Z</time>
      </trkpt>
      <trkpt lat="49.95627" lon="2.09745">
        <ele>63</ele>
        <time>2022-04-12T10:42:33Z</time>
      </trkpt>
      <trkpt lat="49.95628" lon="2.09746">
        <ele>62.9</ele>
        <time>2022-04-12T10:42:34Z</time>
      </trkpt>
      <trkpt lat="49.95629" lon="2.09748">
        <ele>62.9</ele>
        <time>2022-04-12T10:42:36Z</time>
      </trkpt>
      <trkpt lat="49.9563" lon="2.0975">
        <ele>62.8</ele>
        <time>2022-04-12T10:42:37Z</time>
      </trkpt>
      <trkpt lat="49.95631" lon="2.09751">
        <ele>62.8</ele>
        <time>2022-04-12T10:42:38Z</time>
      </trkpt>
      <trkpt lat="49.95632" lon="2.09754">
        <ele>62.7</ele>
        <time>2022-04-12T10:42:39Z</time>
      </trkpt>
      <trkpt lat="49.95633" lon="2.09754">
        <ele>62.7</ele>
        <time>2022-04-12T10:42:40Z</time>
      </trkpt>
      <trkpt lat="49.95634" lon="2.09755">
        <ele>62.7</ele>
        <time>2022-04-12T10:42:41Z</time>
      </trkpt>
      <trkpt lat="49.95635" lon="2.09757">
        <ele>62.6</ele>
        <time>2022-04-12T10:42:42Z</time>
      </trkpt>
      <trkpt lat="49.95636" lon="2.09758">
        <ele>62.6</ele>
        <time>2022-04-12T10:42:44Z</time>
      </trkpt>
      <trkpt lat="49.95637" lon="2.09759">
        <ele>62.6</ele>
        <time>2022-04-12T10:42:45Z</time>
      </trkpt>
      <trkpt lat="49.95639" lon="2.09761">
        <ele>62.5</ele>
        <time>2022-04-12T10:42:46Z</time>
      </trkpt>
      <trkpt lat="49.95639" lon="2.09762">
        <ele>62.5</ele>
        <time>2022-04-12T10:42:47Z</time>
      </trkpt>
      <trkpt lat="49.9564" lon="2.09762">
        <ele>62.4</ele>
        <time>2022-04-12T10:42:48Z</time>
      </trkpt>
      <trkpt lat="49.95641" lon="2.09764">
        <ele>62.4</ele>
        <time>2022-04-12T10:42:49Z</time>
      </trkpt>
      <trkpt lat="49.95642" lon="2.09765">
        <ele>62.4</ele>
        <time>2022-04-12T10:42:50Z</time>
      </trkpt>
      <trkpt lat="49.95643" lon="2.09766">
        <ele>62.3</ele>
        <time>2022-04-12T10:42:52Z</time>
      </trkpt>
      <trkpt lat="49.95645" lon="2.09768">
        <ele>62.3</ele>
        <time>2022-04-12T10:42:53Z</time>
      </trkpt>
      <trkpt lat="49.95645" lon="2.09769">
        <ele>62.2</ele>
        <time>2022-04-12T10:42:54Z</time>
      </trkpt>
      <trkpt lat="49.95646" lon="2.0977">
        <ele>62.2</ele>
        <time>2022-04-12T10:42:55Z</time>
      </trkpt>
      <trkpt lat="49.95647" lon="2.09771">
        <ele>62.2</ele>
        <time>2022-04-12T10:42:56Z</time>
      </trkpt>
      <trkpt lat="49.95648" lon="2.09772">
        <ele>62.1</ele>
        <time>2022-04-12T10:42:57Z</time>
      </trkpt>
      <trkpt lat="49.95649" lon="2.09773">
        <ele>62.1</ele>
        <time>2022-04-12T10:42:58Z</time>
      </trkpt>
      <trkpt lat="49.95651" lon="2.09775">
        <ele>62</ele>
        <time>2022-04-12T10:42:59Z</time>
      </trkpt>
      <trkpt lat="49.95651" lon="2.09776">
        <ele>62</ele>
        <time>2022-04-12T10:43:01Z</time>
      </trkpt>
      <trkpt lat="49.95652" lon="2.09776">
        <ele>62</ele>
        <time>2022-04-12T10:43:02Z</time>
      </trkpt>
      <trkpt lat="49.95653" lon="2.09777">
        <ele>62</ele>
        <time>2022-04-12T10:43:03Z</time>
      </trkpt>
      <trkpt lat="49.95654" lon="2.09778">
        <ele>61.9</ele>
        <time>2022-04-12T10:43:04Z</time>
      </trkpt>
      <trkpt lat="49.95655" lon="2.09779">
        <ele>61.9</ele>
        <time>2022-04-12T10:43:05Z</time>
      </trkpt>
      <trkpt lat="49.95656" lon="2.0978">
        <ele>61.9</ele>
        <time>2022-04-12T10:43:06Z</time>
      </trkpt>
      <trkpt lat="49.95657" lon="2.09781">
        <ele>61.8</ele>
        <time>2022-04-12T10:43:07Z</time>
      </trkpt>
      <trkpt lat="49.95658" lon="2.09783">
        <ele>61.8</ele>
        <time>2022-04-12T10:43:08Z</time>
      </trkpt>
      <trkpt lat="49.95659" lon="2.09784">
        <ele>61.8</ele>
        <time>2022-04-12T10:43:09Z</time>
      </trkpt>
      <trkpt lat="49.95661" lon="2.09786">
        <ele>61.7</ele>
        <time>2022-04-12T10:43:11Z</time>
      </trkpt>
      <trkpt lat="49.95662" lon="2.09788">
        <ele>61.7</ele>
        <time>2022-04-12T10:43:12Z</time>
      </trkpt>
      <trkpt lat="49.95662" lon="2.09789">
        <ele>61.6</ele>
        <time>2022-04-12T10:43:13Z</time>
      </trkpt>
      <trkpt lat="49.95663" lon="2.09791">
        <ele>61.6</ele>
        <time>2022-04-12T10:43:14Z</time>
      </trkpt>
      <trkpt lat="49.95664" lon="2.09792">
        <ele>61.5</ele>
        <time>2022-04-12T10:43:15Z</time>
      </trkpt>
      <trkpt lat="49.95664" lon="2.09793">
        <ele>61.5</ele>
        <time>2022-04-12T10:43:16Z</time>
      </trkpt>
      <trkpt lat="49.95666" lon="2.09795">
        <ele>61.5</ele>
        <time>2022-04-12T10:43:17Z</time>
      </trkpt>
      <trkpt lat="49.95666" lon="2.09796">
        <ele>61.4</ele>
        <time>2022-04-12T10:43:18Z</time>
      </trkpt>
      <trkpt lat="49.95668" lon="2.09799">
        <ele>61.4</ele>
        <time>2022-04-12T10:43:19Z</time>
      </trkpt>
      <trkpt lat="49.95669" lon="2.098">
        <ele>61.3</ele>
        <time>2022-04-12T10:43:21Z</time>
      </trkpt>
      <trkpt lat="49.95669" lon="2.09801">
        <ele>61.3</ele>
        <time>2022-04-12T10:43:22Z</time>
      </trkpt>
      <trkpt lat="49.9567" lon="2.09803">
        <ele>61.3</ele>
        <time>2022-04-12T10:43:23Z</time>
      </trkpt>
      <trkpt lat="49.9567" lon="2.09804">
        <ele>61.3</ele>
        <time>2022-04-12T10:43:24Z</time>
      </trkpt>
      <trkpt lat="49.95671" lon="2.09806">
        <ele>61.2</ele>
        <time>2022-04-12T10:43:25Z</time>
      </trkpt>
      <trkpt lat="49.95672" lon="2.09807">
        <ele>61.2</ele>
        <time>2022-04-12T10:43:26Z</time>
      </trkpt>
      <trkpt lat="49.95673" lon="2.09808">
        <ele>61.2</ele>
        <time>2022-04-12T10:43:27Z</time>
      </trkpt>
      <trkpt lat="49.95674" lon="2.09811">
        <ele>61.1</ele>
        <time>2022-04-12T10:43:28Z</time>
      </trkpt>
      <trkpt lat="49.95674" lon="2.09812">
        <ele>61.1</ele>
        <time>2022-04-12T10:43:29Z</time>
      </trkpt>
      <trkpt lat="49.95675" lon="2.09813">
        <ele>61.1</ele>
        <time>2022-04-12T10:43:30Z</time>
      </trkpt>
      <trkpt lat="49.95676" lon="2.09814">
        <ele>61</ele>
        <time>2022-04-12T10:43:32Z</time>
      </trkpt>
      <trkpt lat="49.95676" lon="2.09815">
        <ele>61</ele>
        <time>2022-04-12T10:43:33Z</time>
      </trkpt>
      <trkpt lat="49.95677" lon="2.09817">
        <ele>61</ele>
        <time>2022-04-12T10:43:34Z</time>
      </trkpt>
      <trkpt lat="49.95678" lon="2.09818">
        <ele>61</ele>
        <time>2022-04-12T10:43:35Z</time>
      </trkpt>
      <trkpt lat="49.95678" lon="2.09818">
        <ele>61</ele>
        <time>2022-04-12T10:43:36Z</time>
      </trkpt>
      <trkpt lat="49.95679" lon="2.09819">
        <ele>60.9</ele>
        <time>2022-04-12T10:43:37Z</time>
      </trkpt>
      <trkpt lat="49.9568" lon="2.09819">
        <ele>60.9</ele>
        <time>2022-04-12T10:43:38Z</time>
      </trkpt>
      <trkpt lat="49.9568" lon="2.0982">
        <ele>60.9</ele>
        <time>2022-04-12T10:43:39Z</time>
      </trkpt>
      <trkpt lat="49.95681" lon="2.09821">
        <ele>60.9</ele>
        <time>2022-04-12T10:43:41Z</time>
      </trkpt>
      <trkpt lat="49.95681" lon="2.09822">
        <ele>60.9</ele>
        <time>2022-04-12T10:43:42Z</time>
      </trkpt>
      <trkpt lat="49.95682" lon="2.09823">
        <ele>60.9</ele>
        <time>2022-04-12T10:43:43Z</time>
      </trkpt>
      <trkpt lat="49.95682" lon="2.09824">
        <ele>60.8</ele>
        <time>2022-04-12T10:43:44Z</time>
      </trkpt>
      <trkpt lat="49.95683" lon="2.09825">
        <ele>60.8</ele>
        <time>2022-04-12T10:43:45Z</time>
      </trkpt>
      <trkpt lat="49.95683" lon="2.09827">
        <ele>60.8</ele>
        <time>2022-04-12T10:43:46Z</time>
      </trkpt>
      <trkpt lat="49.95684" lon="2.0983">
        <ele>60.7</ele>
        <time>2022-04-12T10:43:47Z</time>
      </trkpt>
      <trkpt lat="49.95684" lon="2.09831">
        <ele>60.7</ele>
        <time>2022-04-12T10:43:48Z</time>
      </trkpt>
      <trkpt lat="49.95685" lon="2.09833">
        <ele>60.7</ele>
        <time>2022-04-12T10:43:49Z</time>
      </trkpt>
      <trkpt lat="49.95685" lon="2.09835">
        <ele>60.7</ele>
        <time>2022-04-12T10:43:51Z</time>
      </trkpt>
      <trkpt lat="49.95685" lon="2.09837">
        <ele>60.6</ele>
        <time>2022-04-12T10:43:52Z</time>
      </trkpt>
      <trkpt lat="49.95685" lon="2.0984">
        <ele>60.6</ele>
        <time>2022-04-12T10:43:53Z</time>
      </trkpt>
      <trkpt lat="49.95685" lon="2.09841">
        <ele>60.6</ele>
        <time>2022-04-12T10:43:54Z</time>
      </trkpt>
      <trkpt lat="49.95685" lon="2.09843">
        <ele>60.6</ele>
        <time>2022-04-12T10:43:55Z</time>
      </trkpt>
      <trkpt lat="49.95686" lon="2.09844">
        <ele>60.5</ele>
        <time>2022-04-12T10:43:56Z</time>
      </trkpt>
      <trkpt lat="49.95687" lon="2.09846">
        <ele>60.5</ele>
        <time>2022-04-12T10:43:57Z</time>
      </trkpt>
      <trkpt lat="49.95688" lon="2.09848">
        <ele>60.5</ele>
        <time>2022-04-12T10:43:59Z</time>
      </trkpt>
      <trkpt lat="49.95688" lon="2.09849">
        <ele>60.4</ele>
        <time>2022-04-12T10:44:00Z</time>
      </trkpt>
      <trkpt lat="49.95689" lon="2.0985">
        <ele>60.4</ele>
        <time>2022-04-12T10:44:01Z</time>
      </trkpt>
      <trkpt lat="49.9569" lon="2.09851">
        <ele>60.4</ele>
        <time>2022-04-12T10:44:02Z</time>
      </trkpt>
      <trkpt lat="49.95691" lon="2.09852">
        <ele>60.4</ele>
        <time>2022-04-12T10:44:03Z</time>
      </trkpt>
      <trkpt lat="49.95692" lon="2.09854">
        <ele>60.3</ele>
        <time>2022-04-12T10:44:04Z</time>
      </trkpt>
      <trkpt lat="49.95693" lon="2.09854">
        <ele>60.3</ele>
        <time>2022-04-12T10:44:05Z</time>
      </trkpt>
      <trkpt lat="49.95693" lon="2.09855">
        <ele>60.3</ele>
        <time>2022-04-12T10:44:06Z</time>
      </trkpt>
      <trkpt lat="49.95694" lon="2.09857">
        <ele>60.3</ele>
        <time>2022-04-12T10:44:07Z</time>
      </trkpt>
      <trkpt lat="49.95695" lon="2.09858">
        <ele>60.2</ele>
        <time>2022-04-12T10:44:08Z</time>
      </trkpt>
      <trkpt lat="49.95696" lon="2.0986">
        <ele>60.2</ele>
        <time>2022-04-12T10:44:09Z</time>
      </trkpt>
      <trkpt lat="49.95696" lon="2.09861">
        <ele>60.2</ele>
        <time>2022-04-12T10:44:10Z</time>
      </trkpt>
      <trkpt lat="49.95697" lon="2.09863">
        <ele>60.1</ele>
        <time>2022-04-12T10:44:12Z</time>
      </trkpt>
      <trkpt lat="49.95699" lon="2.09865">
        <ele>60.1</ele>
        <time>2022-04-12T10:44:13Z</time>
      </trkpt>
      <trkpt lat="49.95699" lon="2.09866">
        <ele>60.1</ele>
        <time>2022-04-12T10:44:14Z</time>
      </trkpt>
      <trkpt lat="49.957" lon="2.09867">
        <ele>60</ele>
        <time>2022-04-12T10:44:15Z</time>
      </trkpt>
      <trkpt lat="49.95702" lon="2.09869">
        <ele>60</ele>
        <time>2022-04-12T10:44:16Z</time>
      </trkpt>
      <trkpt lat="49.95702" lon="2.0987">
        <ele>60</ele>
        <time>2022-04-12T10:44:17Z</time>
      </trkpt>
      <trkpt lat="49.95703" lon="2.09871">
        <ele>60</ele>
        <time>2022-04-12T10:44:18Z</time>
      </trkpt>
      <trkpt lat="49.95704" lon="2.09872">
        <ele>59.9</ele>
        <time>2022-04-12T10:44:19Z</time>
      </trkpt>
      <trkpt lat="49.95705" lon="2.09875">
        <ele>59.9</ele>
        <time>2022-04-12T10:44:21Z</time>
      </trkpt>
      <trkpt lat="49.95706" lon="2.09877">
        <ele>59.8</ele>
        <time>2022-04-12T10:44:22Z</time>
      </trkpt>
      <trkpt lat="49.95707" lon="2.09878">
        <ele>59.8</ele>
        <time>2022-04-12T10:44:23Z</time>
      </trkpt>
      <trkpt lat="49.95708" lon="2.09881">
        <ele>59.8</ele>
        <time>2022-04-12T10:44:24Z</time>
      </trkpt>
      <trkpt lat="49.95709" lon="2.09882">
        <ele>59.7</ele>
        <time>2022-04-12T10:44:25Z</time>
      </trkpt>
      <trkpt lat="49.95709" lon="2.09883">
        <ele>59.7</ele>
        <time>2022-04-12T10:44:26Z</time>
      </trkpt>
      <trkpt lat="49.9571" lon="2.09886">
        <ele>59.7</ele>
        <time>2022-04-12T10:44:28Z</time>
      </trkpt>
      <trkpt lat="49.95711" lon="2.09888">
        <ele>59.6</ele>
        <time>2022-04-12T10:44:29Z</time>
      </trkpt>
      <trkpt lat="49.95711" lon="2.0989">
        <ele>59.6</ele>
        <time>2022-04-12T10:44:30Z</time>
      </trkpt>
      <trkpt lat="49.95712" lon="2.09892">
        <ele>59.6</ele>
        <time>2022-04-12T10:44:31Z</time>
      </trkpt>
      <trkpt lat="49.95713" lon="2.09895">
        <ele>59.5</ele>
        <time>2022-04-12T10:44:32Z</time>
      </trkpt>
      <trkpt lat="49.95713" lon="2.09896">
        <ele>59.5</ele>
        <time>2022-04-12T10:44:33Z</time>
      </trkpt>
      <trkpt lat="49.95714" lon="2.09897">
        <ele>59.5</ele>
        <time>2022-04-12T10:44:34Z</time>
      </trkpt>
      <trkpt lat="49.95715" lon="2.099">
        <ele>59.5</ele>
        <time>2022-04-12T10:44:35Z</time>
      </trkpt>
      <trkpt lat="49.95715" lon="2.09901">
        <ele>59.5</ele>
        <time>2022-04-12T10:44:36Z</time>
      </trkpt>
      <trkpt lat="49.95716" lon="2.09902">
        <ele>59.4</ele>
        <time>2022-04-12T10:44:37Z</time>
      </trkpt>
      <trkpt lat="49.95717" lon="2.09906">
        <ele>59.4</ele>
        <time>2022-04-12T10:44:38Z</time>
      </trkpt>
      <trkpt lat="49.95717" lon="2.09907">
        <ele>59.4</ele>
        <time>2022-04-12T10:44:40Z</time>
      </trkpt>
      <trkpt lat="49.95718" lon="2.09909">
        <ele>59.4</ele>
        <time>2022-04-12T10:44:41Z</time>
      </trkpt>
      <trkpt lat="49.95718" lon="2.0991">
        <ele>59.4</ele>
        <time>2022-04-12T10:44:42Z</time>
      </trkpt>
      <trkpt lat="49.95719" lon="2.09911">
        <ele>59.3</ele>
        <time>2022-04-12T10:44:43Z</time>
      </trkpt>
      <trkpt lat="49.95719" lon="2.09913">
        <ele>59.3</ele>
        <time>2022-04-12T10:44:44Z</time>
      </trkpt>
      <trkpt lat="49.9572" lon="2.09915">
        <ele>59.3</ele>
        <time>2022-04-12T10:44:45Z</time>
      </trkpt>
      <trkpt lat="49.95721" lon="2.09916">
        <ele>59.3</ele>
        <time>2022-04-12T10:44:46Z</time>
      </trkpt>
      <trkpt lat="49.95721" lon="2.09918">
        <ele>59.3</ele>
        <time>2022-04-12T10:44:47Z</time>
      </trkpt>
      <trkpt lat="49.95722" lon="2.09919">
        <ele>59.3</ele>
        <time>2022-04-12T10:44:48Z</time>
      </trkpt>
      <trkpt lat="49.95722" lon="2.09921">
        <ele>59.2</ele>
        <time>2022-04-12T10:44:49Z</time>
      </trkpt>
      <trkpt lat="49.95724" lon="2.09924">
        <ele>59.2</ele>
        <time>2022-04-12T10:44:50Z</time>
      </trkpt>
      <trkpt lat="49.95724" lon="2.09925">
        <ele>59.2</ele>
        <time>2022-04-12T10:44:51Z</time>
      </trkpt>
      <trkpt lat="49.95725" lon="2.09926">
        <ele>59.2</ele>
        <time>2022-04-12T10:44:52Z</time>
      </trkpt>
      <trkpt lat="49.95726" lon="2.09927">
        <ele>59.2</ele>
        <time>2022-04-12T10:44:53Z</time>
      </trkpt>
      <trkpt lat="49.95727" lon="2.09929">
        <ele>59.1</ele>
        <time>2022-04-12T10:44:55Z</time>
      </trkpt>
      <trkpt lat="49.95727" lon="2.0993">
        <ele>59.1</ele>
        <time>2022-04-12T10:44:56Z</time>
      </trkpt>
      <trkpt lat="49.95728" lon="2.09931">
        <ele>59.1</ele>
        <time>2022-04-12T10:44:57Z</time>
      </trkpt>
      <trkpt lat="49.95729" lon="2.09932">
        <ele>59.1</ele>
        <time>2022-04-12T10:44:58Z</time>
      </trkpt>
      <trkpt lat="49.9573" lon="2.09933">
        <ele>59</ele>
        <time>2022-04-12T10:44:59Z</time>
      </trkpt>
      <trkpt lat="49.9573" lon="2.09935">
        <ele>59</ele>
        <time>2022-04-12T10:45:00Z</time>
      </trkpt>
      <trkpt lat="49.95731" lon="2.09936">
        <ele>59</ele>
        <time>2022-04-12T10:45:01Z</time>
      </trkpt>
      <trkpt lat="49.95733" lon="2.09938">
        <ele>58.9</ele>
        <time>2022-04-12T10:45:03Z</time>
      </trkpt>
      <trkpt lat="49.95733" lon="2.0994">
        <ele>58.9</ele>
        <time>2022-04-12T10:45:04Z</time>
      </trkpt>
      <trkpt lat="49.95734" lon="2.09942">
        <ele>58.8</ele>
        <time>2022-04-12T10:45:05Z</time>
      </trkpt>
      <trkpt lat="49.95735" lon="2.09944">
        <ele>58.8</ele>
        <time>2022-04-12T10:45:06Z</time>
      </trkpt>
      <trkpt lat="49.95736" lon="2.09946">
        <ele>58.8</ele>
        <time>2022-04-12T10:45:07Z</time>
      </trkpt>
      <trkpt lat="49.95737" lon="2.09948">
        <ele>58.7</ele>
        <time>2022-04-12T10:45:08Z</time>
      </trkpt>
      <trkpt lat="49.95738" lon="2.09949">
        <ele>58.7</ele>
        <time>2022-04-12T10:45:09Z</time>
      </trkpt>
      <trkpt lat="49.95738" lon="2.09951">
        <ele>58.7</ele>
        <time>2022-04-12T10:45:10Z</time>
      </trkpt>
      <trkpt lat="49.95739" lon="2.09954">
        <ele>58.6</ele>
        <time>2022-04-12T10:45:12Z</time>
      </trkpt>
      <trkpt lat="49.9574" lon="2.09956">
        <ele>58.6</ele>
        <time>2022-04-12T10:45:13Z</time>
      </trkpt>
      <trkpt lat="49.95741" lon="2.09957">
        <ele>58.5</ele>
        <time>2022-04-12T10:45:14Z</time>
      </trkpt>
      <trkpt lat="49.95742" lon="2.0996">
        <ele>58.5</ele>
        <time>2022-04-12T10:45:16Z</time>
      </trkpt>
      <trkpt lat="49.95743" lon="2.09961">
        <ele>58.5</ele>
        <time>2022-04-12T10:45:17Z</time>
      </trkpt>
      <trkpt lat="49.95744" lon="2.09962">
        <ele>58.4</ele>
        <time>2022-04-12T10:45:18Z</time>
      </trkpt>
      <trkpt lat="49.95744" lon="2.09964">
        <ele>58.4</ele>
        <time>2022-04-12T10:45:19Z</time>
      </trkpt>
      <trkpt lat="49.95745" lon="2.09965">
        <ele>58.4</ele>
        <time>2022-04-12T10:45:20Z</time>
      </trkpt>
      <trkpt lat="49.95746" lon="2.09967">
        <ele>58.4</ele>
        <time>2022-04-12T10:45:21Z</time>
      </trkpt>
      <trkpt lat="49.95747" lon="2.09969">
        <ele>58.3</ele>
        <time>2022-04-12T10:45:23Z</time>
      </trkpt>
      <trkpt lat="49.95748" lon="2.09971">
        <ele>58.3</ele>
        <time>2022-04-12T10:45:24Z</time>
      </trkpt>
      <trkpt lat="49.95748" lon="2.09972">
        <ele>58.3</ele>
        <time>2022-04-12T10:45:25Z</time>
      </trkpt>
      <trkpt lat="49.95749" lon="2.09973">
        <ele>58.3</ele>
        <time>2022-04-12T10:45:26Z</time>
      </trkpt>
      <trkpt lat="49.9575" lon="2.09974">
        <ele>58.2</ele>
        <time>2022-04-12T10:45:27Z</time>
      </trkpt>
      <trkpt lat="49.95751" lon="2.09975">
        <ele>58.2</ele>
        <time>2022-04-12T10:45:28Z</time>
      </trkpt>
      <trkpt lat="49.95751" lon="2.09977">
        <ele>58.2</ele>
        <time>2022-04-12T10:45:29Z</time>
      </trkpt>
      <trkpt lat="49.95752" lon="2.09978">
        <ele>58.2</ele>
        <time>2022-04-12T10:45:30Z</time>
      </trkpt>
      <trkpt lat="49.95753" lon="2.0998">
        <ele>58.1</ele>
        <time>2022-04-12T10:45:31Z</time>
      </trkpt>
      <trkpt lat="49.95754" lon="2.09981">
        <ele>58.1</ele>
        <time>2022-04-12T10:45:33Z</time>
      </trkpt>
      <trkpt lat="49.95755" lon="2.09983">
        <ele>58.1</ele>
        <time>2022-04-12T10:45:34Z</time>
      </trkpt>
      <trkpt lat="49.95755" lon="2.09984">
        <ele>58.1</ele>
        <time>2022-04-12T10:45:35Z</time>
      </trkpt>
      <trkpt lat="49.95756" lon="2.09985">
        <ele>58.1</ele>
        <time>2022-04-12T10:45:36Z</time>
      </trkpt>
      <trkpt lat="49.95757" lon="2.09988">
        <ele>58</ele>
        <time>2022-04-12T10:45:37Z</time>
      </trkpt>
      <trkpt lat="49.95758" lon="2.09989">
        <ele>58</ele>
        <time>2022-04-12T10:45:38Z</time>
      </trkpt>
      <trkpt lat="49.95758" lon="2.0999">
        <ele>58</ele>
        <time>2022-04-12T10:45:39Z</time>
      </trkpt>
      <trkpt lat="49.9576" lon="2.09993">
        <ele>57.9</ele>
        <time>2022-04-12T10:45:40Z</time>
      </trkpt>
      <trkpt lat="49.9576" lon="2.09995">
        <ele>57.9</ele>
        <time>2022-04-12T10:45:42Z</time>
      </trkpt>
      <trkpt lat="49.95761" lon="2.09996">
        <ele>57.9</ele>
        <time>2022-04-12T10:45:43Z</time>
      </trkpt>
      <trkpt lat="49.95761" lon="2.09997">
        <ele>57.9</ele>
        <time>2022-04-12T10:45:44Z</time>
      </trkpt>
      <trkpt lat="49.95762" lon="2.09999">
        <ele>57.9</ele>
        <time>2022-04-12T10:45:45Z</time>
      </trkpt>
      <trkpt lat="49.95763" lon="2.10001">
        <ele>57.8</ele>
        <time>2022-04-12T10:45:46Z</time>
      </trkpt>
      <trkpt lat="49.95764" lon="2.10002">
        <ele>57.8</ele>
        <time>2022-04-12T10:45:47Z</time>
      </trkpt>
      <trkpt lat="49.95764" lon="2.10003">
        <ele>57.8</ele>
        <time>2022-04-12T10:45:48Z</time>
      </trkpt>
      <trkpt lat="49.95765" lon="2.10004">
        <ele>57.8</ele>
        <time>2022-04-12T10:45:49Z</time>
      </trkpt>
      <trkpt lat="49.95766" lon="2.10005">
        <ele>57.8</ele>
        <time>2022-04-12T10:45:50Z</time>
      </trkpt>
      <trkpt lat="49.95766" lon="2.10007">
        <ele>57.8</ele>
        <time>2022-04-12T10:45:51Z</time>
      </trkpt>
      <trkpt lat="49.95767" lon="2.10009">
        <ele>57.7</ele>
        <time>2022-04-12T10:45:53Z</time>
      </trkpt>
      <trkpt lat="49.95768" lon="2.1001">
        <ele>57.7</ele>
        <time>2022-04-12T10:45:54Z</time>
      </trkpt>
      <trkpt lat="49.95769" lon="2.10013">
        <ele>57.7</ele>
        <time>2022-04-12T10:45:55Z</time>
      </trkpt>
      <trkpt lat="49.9577" lon="2.10014">
        <ele>57.7</ele>
        <time>2022-04-12T10:45:56Z</time>
      </trkpt>
      <trkpt lat="49.9577" lon="2.10015">
        <ele>57.7</ele>
        <time>2022-04-12T10:45:57Z</time>
      </trkpt>
      <trkpt lat="49.95771" lon="2.10016">
        <ele>57.6</ele>
        <time>2022-04-12T10:45:58Z</time>
      </trkpt>
      <trkpt lat="49.95772" lon="2.10018">
        <ele>57.6</ele>
        <time>2022-04-12T10:45:59Z</time>
      </trkpt>
      <trkpt lat="49.95773" lon="2.1002">
        <ele>57.6</ele>
        <time>2022-04-12T10:46:00Z</time>
      </trkpt>
      <trkpt lat="49.95774" lon="2.10021">
        <ele>57.6</ele>
        <time>2022-04-12T10:46:01Z</time>
      </trkpt>
      <trkpt lat="49.95775" lon="2.10023">
        <ele>57.6</ele>
        <time>2022-04-12T10:46:03Z</time>
      </trkpt>
      <trkpt lat="49.95776" lon="2.10025">
        <ele>57.5</ele>
        <time>2022-04-12T10:46:04Z</time>
      </trkpt>
      <trkpt lat="49.95777" lon="2.10026">
        <ele>57.5</ele>
        <time>2022-04-12T10:46:05Z</time>
      </trkpt>
      <trkpt lat="49.95777" lon="2.10027">
        <ele>57.5</ele>
        <time>2022-04-12T10:46:06Z</time>
      </trkpt>
      <trkpt lat="49.95778" lon="2.10028">
        <ele>57.5</ele>
        <time>2022-04-12T10:46:07Z</time>
      </trkpt>
      <trkpt lat="49.95779" lon="2.10029">
        <ele>57.5</ele>
        <time>2022-04-12T10:46:08Z</time>
      </trkpt>
      <trkpt lat="49.9578" lon="2.10032">
        <ele>57.4</ele>
        <time>2022-04-12T10:46:10Z</time>
      </trkpt>
      <trkpt lat="49.95781" lon="2.10033">
        <ele>57.4</ele>
        <time>2022-04-12T10:46:11Z</time>
      </trkpt>
      <trkpt lat="49.95782" lon="2.10035">
        <ele>57.4</ele>
        <time>2022-04-12T10:46:12Z</time>
      </trkpt>
      <trkpt lat="49.95783" lon="2.10036">
        <ele>57.4</ele>
        <time>2022-04-12T10:46:13Z</time>
      </trkpt>
      <trkpt lat="49.95784" lon="2.10036">
        <ele>57.4</ele>
        <time>2022-04-12T10:46:14Z</time>
      </trkpt>
      <trkpt lat="49.95785" lon="2.10036">
        <ele>57.4</ele>
        <time>2022-04-12T10:46:15Z</time>
      </trkpt>
      <trkpt lat="49.95786" lon="2.10036">
        <ele>57.3</ele>
        <time>2022-04-12T10:46:16Z</time>
      </trkpt>
      <trkpt lat="49.95787" lon="2.10035">
        <ele>57.3</ele>
        <time>2022-04-12T10:46:17Z</time>
      </trkpt>
      <trkpt lat="49.95788" lon="2.10034">
        <ele>57.3</ele>
        <time>2022-04-12T10:46:18Z</time>
      </trkpt>
      <trkpt lat="49.95789" lon="2.10034">
        <ele>57.3</ele>
        <time>2022-04-12T10:46:19Z</time>
      </trkpt>
      <trkpt lat="49.95789" lon="2.10034">
        <ele>57.3</ele>
        <time>2022-04-12T10:46:20Z</time>
      </trkpt>
      <trkpt lat="49.95789" lon="2.10033">
        <ele>57.3</ele>
        <time>2022-04-12T10:46:21Z</time>
      </trkpt>
      <trkpt lat="49.95789" lon="2.10033">
        <ele>57.3</ele>
        <time>2022-04-12T10:46:22Z</time>
      </trkpt>
      <trkpt lat="49.95789" lon="2.10033">
        <ele>57.3</ele>
        <time>2022-04-12T10:46:23Z</time>
      </trkpt>
      <trkpt lat="49.95789" lon="2.10033">
        <ele>57.3</ele>
        <time>2022-04-12T10:46:24Z</time>
      </trkpt>
      <trkpt lat="49.95789" lon="2.10033">
        <ele>57.3</ele>
        <time>2022-04-12T10:46:25Z</time>
      </trkpt>
      <trkpt lat="49.95789" lon="2.10033">
        <ele>57.3</ele>
        <time>2022-04-12T10:46:26Z</time>
      </trkpt>
      <trkpt lat="49.95789" lon="2.10033">
        <ele>57.3</ele>
        <time>2022-04-12T10:46:27Z</time>
      </trkpt>
      <trkpt lat="49.95789" lon="2.10033">
        <ele>57.3</ele>
        <time>2022-04-12T10:46:28Z</time>
      </trkpt>
      <trkpt lat="49.9579" lon="2.10033">
        <ele>57.3</ele>
        <time>2022-04-12T10:46:29Z</time>
      </trkpt>
      <trkpt lat="49.9579" lon="2.10033">
        <ele>57.3</ele>
        <time>2022-04-12T10:46:30Z</time>
      </trkpt>
      <trkpt lat="49.9579" lon="2.10033">
        <ele>57.3</ele>
        <time>2022-04-12T10:46:31Z</time>
      </trkpt>
      <trkpt lat="49.9579" lon="2.10033">
        <ele>57.3</ele>
        <time>2022-04-12T10:46:32Z</time>
      </trkpt>
      <trkpt lat="49.9579" lon="2.10032">
        <ele>57.3</ele>
        <time>2022-04-12T10:46:34Z</time>
      </trkpt>
      <trkpt lat="49.95789" lon="2.10032">
        <ele>57.2</ele>
        <time>2022-04-12T10:46:35Z</time>
      </trkpt>
      <trkpt lat="49.95789" lon="2.10032">
        <ele>57.2</ele>
        <time>2022-04-12T10:46:36Z</time>
      </trkpt>
      <trkpt lat="49.95789" lon="2.10032">
        <ele>57.2</ele>
        <time>2022-04-12T10:46:37Z</time>
      </trkpt>
      <trkpt lat="49.95788" lon="2.10031">
        <ele>57.2</ele>
        <time>2022-04-12T10:46:38Z</time>
      </trkpt>
      <trkpt lat="49.95788" lon="2.10031">
        <ele>57.2</ele>
        <time>2022-04-12T10:46:39Z</time>
      </trkpt>
      <trkpt lat="49.95788" lon="2.10031">
        <ele>57.2</ele>
        <time>2022-04-12T10:46:40Z</time>
      </trkpt>
      <trkpt lat="49.95788" lon="2.10031">
        <ele>57.2</ele>
        <time>2022-04-12T10:46:41Z</time>
      </trkpt>
      <trkpt lat="49.95788" lon="2.10031">
        <ele>57.2</ele>
        <time>2022-04-12T10:46:43Z</time>
      </trkpt>
      <trkpt lat="49.95788" lon="2.10031">
        <ele>57.2</ele>
        <time>2022-04-12T10:46:45Z</time>
      </trkpt>
      <trkpt lat="49.95788" lon="2.10031">
        <ele>57.2</ele>
        <time>2022-04-12T10:46:46Z</time>
      </trkpt>
      <trkpt lat="49.95788" lon="2.10031">
        <ele>57.2</ele>
        <time>2022-04-12T10:46:47Z</time>
      </trkpt>
      <trkpt lat="49.95788" lon="2.10031">
        <ele>57.2</ele>
        <time>2022-04-12T10:46:48Z</time>
      </trkpt>
      <trkpt lat="49.95788" lon="2.10031">
        <ele>57.2</ele>
        <time>2022-04-12T10:46:49Z</time>
      </trkpt>
      <trkpt lat="49.95788" lon="2.10031">
        <ele>57.2</ele>
        <time>2022-04-12T10:46:50Z</time>
      </trkpt>
      <trkpt lat="49.95788" lon="2.10031">
        <ele>57.2</ele>
        <time>2022-04-12T10:46:51Z</time>
      </trkpt>
      <trkpt lat="49.95786" lon="2.10032">
        <ele>57.2</ele>
        <time>2022-04-12T10:46:52Z</time>
      </trkpt>
      <trkpt lat="49.95786" lon="2.10032">
        <ele>57.2</ele>
        <time>2022-04-12T10:46:53Z</time>
      </trkpt>
      <trkpt lat="49.95786" lon="2.10032">
        <ele>57.2</ele>
        <time>2022-04-12T10:46:54Z</time>
      </trkpt>
      <trkpt lat="49.95786" lon="2.10032">
        <ele>57.2</ele>
        <time>2022-04-12T10:46:55Z</time>
      </trkpt>
      <trkpt lat="49.95786" lon="2.10032">
        <ele>57.2</ele>
        <time>2022-04-12T10:46:56Z</time>
      </trkpt>
      <trkpt lat="49.95786" lon="2.10032">
        <ele>57.2</ele>
        <time>2022-04-12T10:46:57Z</time>
      </trkpt>
      <trkpt lat="49.95786" lon="2.10032">
        <ele>57.2</ele>
        <time>2022-04-12T10:46:58Z</time>
      </trkpt>
      <trkpt lat="49.95786" lon="2.10032">
        <ele>57.2</ele>
        <time>2022-04-12T10:46:59Z</time>
      </trkpt>
      <trkpt lat="49.95786" lon="2.10032">
        <ele>57.2</ele>
        <time>2022-04-12T10:47:00Z</time>
      </trkpt>
      <trkpt lat="49.95786" lon="2.10032">
        <ele>57.2</ele>
        <time>2022-04-12T10:47:01Z</time>
      </trkpt>
      <trkpt lat="49.95786" lon="2.10032">
        <ele>57.2</ele>
        <time>2022-04-12T10:47:02Z</time>
      </trkpt>
      <trkpt lat="49.95786" lon="2.10032">
        <ele>57.2</ele>
        <time>2022-04-12T10:47:03Z</time>
      </trkpt>
      <trkpt lat="49.95786" lon="2.10032">
        <ele>57.2</ele>
        <time>2022-04-12T10:47:04Z</time>
      </trkpt>
      <trkpt lat="49.95786" lon="2.10032">
        <ele>57.2</ele>
        <time>2022-04-12T10:47:05Z</time>
      </trkpt>
      <trkpt lat="49.95786" lon="2.10032">
        <ele>57.2</ele>
        <time>2022-04-12T10:47:06Z</time>
      </trkpt>
      <trkpt lat="49.95786" lon="2.10032">
        <ele>57.2</ele>
        <time>2022-04-12T10:47:07Z</time>
      </trkpt>
      <trkpt lat="49.95786" lon="2.10032">
        <ele>57.2</ele>
        <time>2022-04-12T10:47:08Z</time>
      </trkpt>
      <trkpt lat="49.95786" lon="2.10032">
        <ele>57.2</ele>
        <time>2022-04-12T10:47:09Z</time>
      </trkpt>
      <trkpt lat="49.95786" lon="2.10032">
        <ele>57.2</ele>
        <time>2022-04-12T10:47:10Z</time>
      </trkpt>
      <trkpt lat="49.95786" lon="2.10032">
        <ele>57.2</ele>
        <time>2022-04-12T10:47:11Z</time>
      </trkpt>
      <trkpt lat="49.95786" lon="2.10032">
        <ele>57.2</ele>
        <time>2022-04-12T10:47:12Z</time>
      </trkpt>
      <trkpt lat="49.95786" lon="2.10032">
        <ele>57.2</ele>
        <time>2022-04-12T10:47:13Z</time>
      </trkpt>
      <trkpt lat="49.95785" lon="2.10031">
        <ele>57.2</ele>
        <time>2022-04-12T10:47:14Z</time>
      </trkpt>
      <trkpt lat="49.95785" lon="2.10031">
        <ele>57.2</ele>
        <time>2022-04-12T10:47:16Z</time>
      </trkpt>
      <trkpt lat="49.95784" lon="2.10032">
        <ele>57.2</ele>
        <time>2022-04-12T10:47:17Z</time>
      </trkpt>
      <trkpt lat="49.95784" lon="2.10032">
        <ele>57.2</ele>
        <time>2022-04-12T10:47:18Z</time>
      </trkpt>
      <trkpt lat="49.95784" lon="2.10034">
        <ele>57.2</ele>
        <time>2022-04-12T10:47:19Z</time>
      </trkpt>
      <trkpt lat="49.95784" lon="2.10036">
        <ele>57.1</ele>
        <time>2022-04-12T10:47:20Z</time>
      </trkpt>
      <trkpt lat="49.95785" lon="2.10038">
        <ele>57.1</ele>
        <time>2022-04-12T10:47:22Z</time>
      </trkpt>
      <trkpt lat="49.95786" lon="2.10039">
        <ele>57.1</ele>
        <time>2022-04-12T10:47:23Z</time>
      </trkpt>
      <trkpt lat="49.95787" lon="2.1004">
        <ele>57.1</ele>
        <time>2022-04-12T10:47:24Z</time>
      </trkpt>
      <trkpt lat="49.95788" lon="2.1004">
        <ele>57.1</ele>
        <time>2022-04-12T10:47:25Z</time>
      </trkpt>
      <trkpt lat="49.95789" lon="2.10041">
        <ele>57.1</ele>
        <time>2022-04-12T10:47:26Z</time>
      </trkpt>
      <trkpt lat="49.95791" lon="2.10043">
        <ele>57</ele>
        <time>2022-04-12T10:47:27Z</time>
      </trkpt>
      <trkpt lat="49.95791" lon="2.10044">
        <ele>57</ele>
        <time>2022-04-12T10:47:28Z</time>
      </trkpt>
      <trkpt lat="49.95792" lon="2.10046">
        <ele>57</ele>
        <time>2022-04-12T10:47:29Z</time>
      </trkpt>
      <trkpt lat="49.95793" lon="2.10048">
        <ele>57</ele>
        <time>2022-04-12T10:47:30Z</time>
      </trkpt>
      <trkpt lat="49.95794" lon="2.1005">
        <ele>57</ele>
        <time>2022-04-12T10:47:32Z</time>
      </trkpt>
      <trkpt lat="49.95794" lon="2.10053">
        <ele>56.9</ele>
        <time>2022-04-12T10:47:33Z</time>
      </trkpt>
      <trkpt lat="49.95794" lon="2.10055">
        <ele>56.9</ele>
        <time>2022-04-12T10:47:34Z</time>
      </trkpt>
      <trkpt lat="49.95795" lon="2.10058">
        <ele>56.9</ele>
        <time>2022-04-12T10:47:35Z</time>
      </trkpt>
      <trkpt lat="49.95795" lon="2.10059">
        <ele>56.9</ele>
        <time>2022-04-12T10:47:36Z</time>
      </trkpt>
      <trkpt lat="49.95795" lon="2.1006">
        <ele>56.8</ele>
        <time>2022-04-12T10:47:37Z</time>
      </trkpt>
      <trkpt lat="49.95796" lon="2.10062">
        <ele>56.8</ele>
        <time>2022-04-12T10:47:38Z</time>
      </trkpt>
      <trkpt lat="49.95797" lon="2.10063">
        <ele>56.8</ele>
        <time>2022-04-12T10:47:40Z</time>
      </trkpt>
      <trkpt lat="49.95798" lon="2.10064">
        <ele>56.8</ele>
        <time>2022-04-12T10:47:41Z</time>
      </trkpt>
      <trkpt lat="49.95799" lon="2.10065">
        <ele>56.7</ele>
        <time>2022-04-12T10:47:42Z</time>
      </trkpt>
      <trkpt lat="49.95799" lon="2.10066">
        <ele>56.6</ele>
        <time>2022-04-12T10:47:43Z</time>
      </trkpt>
      <trkpt lat="49.958" lon="2.10067">
        <ele>56.6</ele>
        <time>2022-04-12T10:47:44Z</time>
      </trkpt>
      <trkpt lat="49.95802" lon="2.10069">
        <ele>56.5</ele>
        <time>2022-04-12T10:47:45Z</time>
      </trkpt>
      <trkpt lat="49.95803" lon="2.1007">
        <ele>56.5</ele>
        <time>2022-04-12T10:47:46Z</time>
      </trkpt>
      <trkpt lat="49.95803" lon="2.10071">
        <ele>56.5</ele>
        <time>2022-04-12T10:47:47Z</time>
      </trkpt>
      <trkpt lat="49.95804" lon="2.10073">
        <ele>56.4</ele>
        <time>2022-04-12T10:47:48Z</time>
      </trkpt>
      <trkpt lat="49.95805" lon="2.10073">
        <ele>56.4</ele>
        <time>2022-04-12T10:47:49Z</time>
      </trkpt>
      <trkpt lat="49.95806" lon="2.10075">
        <ele>56.3</ele>
        <time>2022-04-12T10:47:51Z</time>
      </trkpt>
      <trkpt lat="49.95808" lon="2.10079">
        <ele>56.2</ele>
        <time>2022-04-12T10:47:52Z</time>
      </trkpt>
      <trkpt lat="49.95809" lon="2.1008">
        <ele>56.2</ele>
        <time>2022-04-12T10:47:53Z</time>
      </trkpt>
      <trkpt lat="49.9581" lon="2.10083">
        <ele>56.1</ele>
        <time>2022-04-12T10:47:54Z</time>
      </trkpt>
      <trkpt lat="49.95811" lon="2.10085">
        <ele>56</ele>
        <time>2022-04-12T10:47:55Z</time>
      </trkpt>
      <trkpt lat="49.95813" lon="2.10089">
        <ele>55.9</ele>
        <time>2022-04-12T10:47:56Z</time>
      </trkpt>
      <trkpt lat="49.95814" lon="2.1009">
        <ele>55.9</ele>
        <time>2022-04-12T10:47:57Z</time>
      </trkpt>
      <trkpt lat="49.95815" lon="2.10093">
        <ele>55.8</ele>
        <time>2022-04-12T10:47:59Z</time>
      </trkpt>
      <trkpt lat="49.95816" lon="2.10095">
        <ele>55.7</ele>
        <time>2022-04-12T10:48:00Z</time>
      </trkpt>
      <trkpt lat="49.95817" lon="2.10096">
        <ele>55.7</ele>
        <time>2022-04-12T10:48:01Z</time>
      </trkpt>
      <trkpt lat="49.95818" lon="2.10098">
        <ele>55.6</ele>
        <time>2022-04-12T10:48:02Z</time>
      </trkpt>
      <trkpt lat="49.95819" lon="2.101">
        <ele>55.6</ele>
        <time>2022-04-12T10:48:03Z</time>
      </trkpt>
      <trkpt lat="49.9582" lon="2.10101">
        <ele>55.5</ele>
        <time>2022-04-12T10:48:04Z</time>
      </trkpt>
      <trkpt lat="49.9582" lon="2.10103">
        <ele>55.5</ele>
        <time>2022-04-12T10:48:05Z</time>
      </trkpt>
      <trkpt lat="49.95821" lon="2.10105">
        <ele>55.4</ele>
        <time>2022-04-12T10:48:06Z</time>
      </trkpt>
      <trkpt lat="49.95822" lon="2.10106">
        <ele>55.3</ele>
        <time>2022-04-12T10:48:07Z</time>
      </trkpt>
      <trkpt lat="49.95823" lon="2.10108">
        <ele>55.3</ele>
        <time>2022-04-12T10:48:08Z</time>
      </trkpt>
      <trkpt lat="49.95824" lon="2.1011">
        <ele>55.2</ele>
        <time>2022-04-12T10:48:10Z</time>
      </trkpt>
      <trkpt lat="49.95824" lon="2.10111">
        <ele>55.1</ele>
        <time>2022-04-12T10:48:11Z</time>
      </trkpt>
      <trkpt lat="49.95825" lon="2.10112">
        <ele>55.1</ele>
        <time>2022-04-12T10:48:12Z</time>
      </trkpt>
      <trkpt lat="49.95826" lon="2.10113">
        <ele>55</ele>
        <time>2022-04-12T10:48:13Z</time>
      </trkpt>
      <trkpt lat="49.95827" lon="2.10116">
        <ele>54.9</ele>
        <time>2022-04-12T10:48:14Z</time>
      </trkpt>
      <trkpt lat="49.95827" lon="2.10117">
        <ele>54.9</ele>
        <time>2022-04-12T10:48:15Z</time>
      </trkpt>
      <trkpt lat="49.95827" lon="2.10118">
        <ele>54.8</ele>
        <time>2022-04-12T10:48:16Z</time>
      </trkpt>
      <trkpt lat="49.95828" lon="2.1012">
        <ele>54.8</ele>
        <time>2022-04-12T10:48:17Z</time>
      </trkpt>
      <trkpt lat="49.95829" lon="2.10122">
        <ele>54.7</ele>
        <time>2022-04-12T10:48:18Z</time>
      </trkpt>
      <trkpt lat="49.95829" lon="2.10123">
        <ele>54.6</ele>
        <time>2022-04-12T10:48:20Z</time>
      </trkpt>
      <trkpt lat="49.9583" lon="2.10125">
        <ele>54.6</ele>
        <time>2022-04-12T10:48:21Z</time>
      </trkpt>
      <trkpt lat="49.95831" lon="2.10127">
        <ele>54.5</ele>
        <time>2022-04-12T10:48:22Z</time>
      </trkpt>
      <trkpt lat="49.95832" lon="2.10129">
        <ele>54.4</ele>
        <time>2022-04-12T10:48:23Z</time>
      </trkpt>
      <trkpt lat="49.95833" lon="2.10131">
        <ele>54.4</ele>
        <time>2022-04-12T10:48:24Z</time>
      </trkpt>
      <trkpt lat="49.95833" lon="2.10132">
        <ele>54.3</ele>
        <time>2022-04-12T10:48:25Z</time>
      </trkpt>
      <trkpt lat="49.95834" lon="2.10134">
        <ele>54.2</ele>
        <time>2022-04-12T10:48:26Z</time>
      </trkpt>
      <trkpt lat="49.95835" lon="2.10135">
        <ele>54.2</ele>
        <time>2022-04-12T10:48:27Z</time>
      </trkpt>
      <trkpt lat="49.95836" lon="2.10137">
        <ele>54.1</ele>
        <time>2022-04-12T10:48:28Z</time>
      </trkpt>
      <trkpt lat="49.95836" lon="2.10138">
        <ele>54</ele>
        <time>2022-04-12T10:48:30Z</time>
      </trkpt>
      <trkpt lat="49.95837" lon="2.10139">
        <ele>54</ele>
        <time>2022-04-12T10:48:31Z</time>
      </trkpt>
      <trkpt lat="49.95838" lon="2.10141">
        <ele>53.9</ele>
        <time>2022-04-12T10:48:32Z</time>
      </trkpt>
      <trkpt lat="49.95839" lon="2.10143">
        <ele>53.8</ele>
        <time>2022-04-12T10:48:33Z</time>
      </trkpt>
      <trkpt lat="49.9584" lon="2.10145">
        <ele>53.7</ele>
        <time>2022-04-12T10:48:35Z</time>
      </trkpt>
      <trkpt lat="49.95841" lon="2.10147">
        <ele>53.7</ele>
        <time>2022-04-12T10:48:36Z</time>
      </trkpt>
      <trkpt lat="49.95842" lon="2.10149">
        <ele>53.6</ele>
        <time>2022-04-12T10:48:37Z</time>
      </trkpt>
      <trkpt lat="49.95843" lon="2.10151">
        <ele>53.5</ele>
        <time>2022-04-12T10:48:38Z</time>
      </trkpt>
      <trkpt lat="49.95844" lon="2.10153">
        <ele>53.4</ele>
        <time>2022-04-12T10:48:40Z</time>
      </trkpt>
      <trkpt lat="49.95844" lon="2.10155">
        <ele>53.3</ele>
        <time>2022-04-12T10:48:41Z</time>
      </trkpt>
      <trkpt lat="49.95845" lon="2.10157">
        <ele>53.3</ele>
        <time>2022-04-12T10:48:42Z</time>
      </trkpt>
      <trkpt lat="49.95846" lon="2.10159">
        <ele>53.2</ele>
        <time>2022-04-12T10:48:43Z</time>
      </trkpt>
      <trkpt lat="49.95847" lon="2.1016">
        <ele>53.1</ele>
        <time>2022-04-12T10:48:44Z</time>
      </trkpt>
      <trkpt lat="49.95848" lon="2.10163">
        <ele>53</ele>
        <time>2022-04-12T10:48:45Z</time>
      </trkpt>
      <trkpt lat="49.95849" lon="2.10164">
        <ele>53</ele>
        <time>2022-04-12T10:48:46Z</time>
      </trkpt>
      <trkpt lat="49.95849" lon="2.10165">
        <ele>52.9</ele>
        <time>2022-04-12T10:48:47Z</time>
      </trkpt>
      <trkpt lat="49.95851" lon="2.10168">
        <ele>52.7</ele>
        <time>2022-04-12T10:48:48Z</time>
      </trkpt>
      <trkpt lat="49.95851" lon="2.10169">
        <ele>52.7</ele>
        <time>2022-04-12T10:48:49Z</time>
      </trkpt>
      <trkpt lat="49.95852" lon="2.1017">
        <ele>52.6</ele>
        <time>2022-04-12T10:48:50Z</time>
      </trkpt>
      <trkpt lat="49.95853" lon="2.10172">
        <ele>52.5</ele>
        <time>2022-04-12T10:48:52Z</time>
      </trkpt>
      <trkpt lat="49.95854" lon="2.10174">
        <ele>52.5</ele>
        <time>2022-04-12T10:48:53Z</time>
      </trkpt>
      <trkpt lat="49.95854" lon="2.10175">
        <ele>52.4</ele>
        <time>2022-04-12T10:48:54Z</time>
      </trkpt>
      <trkpt lat="49.95855" lon="2.10177">
        <ele>52.4</ele>
        <time>2022-04-12T10:48:55Z</time>
      </trkpt>
      <trkpt lat="49.95856" lon="2.10179">
        <ele>52.3</ele>
        <time>2022-04-12T10:48:56Z</time>
      </trkpt>
      <trkpt lat="49.95857" lon="2.1018">
        <ele>52.2</ele>
        <time>2022-04-12T10:48:57Z</time>
      </trkpt>
      <trkpt lat="49.95859" lon="2.10183">
        <ele>52.1</ele>
        <time>2022-04-12T10:48:58Z</time>
      </trkpt>
      <trkpt lat="49.9586" lon="2.10184">
        <ele>52.1</ele>
        <time>2022-04-12T10:49:00Z</time>
      </trkpt>
      <trkpt lat="49.95861" lon="2.10186">
        <ele>52</ele>
        <time>2022-04-12T10:49:01Z</time>
      </trkpt>
      <trkpt lat="49.95862" lon="2.10187">
        <ele>51.9</ele>
        <time>2022-04-12T10:49:02Z</time>
      </trkpt>
      <trkpt lat="49.95863" lon="2.10188">
        <ele>51.9</ele>
        <time>2022-04-12T10:49:03Z</time>
      </trkpt>
      <trkpt lat="49.95864" lon="2.1019">
        <ele>51.8</ele>
        <time>2022-04-12T10:49:04Z</time>
      </trkpt>
      <trkpt lat="49.95865" lon="2.10191">
        <ele>51.7</ele>
        <time>2022-04-12T10:49:05Z</time>
      </trkpt>
      <trkpt lat="49.95865" lon="2.10192">
        <ele>51.7</ele>
        <time>2022-04-12T10:49:06Z</time>
      </trkpt>
      <trkpt lat="49.95866" lon="2.10193">
        <ele>51.6</ele>
        <time>2022-04-12T10:49:07Z</time>
      </trkpt>
      <trkpt lat="49.95868" lon="2.10195">
        <ele>51.5</ele>
        <time>2022-04-12T10:49:08Z</time>
      </trkpt>
      <trkpt lat="49.95868" lon="2.10197">
        <ele>51.5</ele>
        <time>2022-04-12T10:49:09Z</time>
      </trkpt>
      <trkpt lat="49.95869" lon="2.10199">
        <ele>51.4</ele>
        <time>2022-04-12T10:49:10Z</time>
      </trkpt>
      <trkpt lat="49.9587" lon="2.10201">
        <ele>51.3</ele>
        <time>2022-04-12T10:49:11Z</time>
      </trkpt>
      <trkpt lat="49.95871" lon="2.10202">
        <ele>51.2</ele>
        <time>2022-04-12T10:49:12Z</time>
      </trkpt>
      <trkpt lat="49.95872" lon="2.10204">
        <ele>51.1</ele>
        <time>2022-04-12T10:49:13Z</time>
      </trkpt>
      <trkpt lat="49.95873" lon="2.10206">
        <ele>51</ele>
        <time>2022-04-12T10:49:15Z</time>
      </trkpt>
      <trkpt lat="49.95874" lon="2.10207">
        <ele>51</ele>
        <time>2022-04-12T10:49:16Z</time>
      </trkpt>
      <trkpt lat="49.95875" lon="2.10209">
        <ele>50.9</ele>
        <time>2022-04-12T10:49:17Z</time>
      </trkpt>
      <trkpt lat="49.95876" lon="2.1021">
        <ele>50.8</ele>
        <time>2022-04-12T10:49:18Z</time>
      </trkpt>
      <trkpt lat="49.95877" lon="2.10212">
        <ele>50.7</ele>
        <time>2022-04-12T10:49:19Z</time>
      </trkpt>
      <trkpt lat="49.95878" lon="2.10214">
        <ele>50.6</ele>
        <time>2022-04-12T10:49:20Z</time>
      </trkpt>
      <trkpt lat="49.95879" lon="2.10215">
        <ele>50.6</ele>
        <time>2022-04-12T10:49:21Z</time>
      </trkpt>
      <trkpt lat="49.9588" lon="2.10216">
        <ele>50.5</ele>
        <time>2022-04-12T10:49:22Z</time>
      </trkpt>
      <trkpt lat="49.95881" lon="2.10219">
        <ele>50.4</ele>
        <time>2022-04-12T10:49:24Z</time>
      </trkpt>
      <trkpt lat="49.95881" lon="2.1022">
        <ele>50.3</ele>
        <time>2022-04-12T10:49:25Z</time>
      </trkpt>
      <trkpt lat="49.95882" lon="2.10223">
        <ele>50.2</ele>
        <time>2022-04-12T10:49:26Z</time>
      </trkpt>
      <trkpt lat="49.95883" lon="2.10224">
        <ele>50.2</ele>
        <time>2022-04-12T10:49:27Z</time>
      </trkpt>
      <trkpt lat="49.95883" lon="2.10226">
        <ele>50.1</ele>
        <time>2022-04-12T10:49:28Z</time>
      </trkpt>
      <trkpt lat="49.95884" lon="2.10227">
        <ele>50.1</ele>
        <time>2022-04-12T10:49:29Z</time>
      </trkpt>
      <trkpt lat="49.95885" lon="2.10229">
        <ele>50</ele>
        <time>2022-04-12T10:49:30Z</time>
      </trkpt>
      <trkpt lat="49.95886" lon="2.10232">
        <ele>49.9</ele>
        <time>2022-04-12T10:49:31Z</time>
      </trkpt>
      <trkpt lat="49.95887" lon="2.10233">
        <ele>49.8</ele>
        <time>2022-04-12T10:49:32Z</time>
      </trkpt>
      <trkpt lat="49.95887" lon="2.10235">
        <ele>49.8</ele>
        <time>2022-04-12T10:49:33Z</time>
      </trkpt>
      <trkpt lat="49.95888" lon="2.10236">
        <ele>49.7</ele>
        <time>2022-04-12T10:49:34Z</time>
      </trkpt>
      <trkpt lat="49.95889" lon="2.10238">
        <ele>49.7</ele>
        <time>2022-04-12T10:49:35Z</time>
      </trkpt>
      <trkpt lat="49.95889" lon="2.1024">
        <ele>49.6</ele>
        <time>2022-04-12T10:49:37Z</time>
      </trkpt>
      <trkpt lat="49.9589" lon="2.10241">
        <ele>49.6</ele>
        <time>2022-04-12T10:49:38Z</time>
      </trkpt>
      <trkpt lat="49.95891" lon="2.10243">
        <ele>49.5</ele>
        <time>2022-04-12T10:49:39Z</time>
      </trkpt>
      <trkpt lat="49.95891" lon="2.10244">
        <ele>49.5</ele>
        <time>2022-04-12T10:49:40Z</time>
      </trkpt>
      <trkpt lat="49.95892" lon="2.10247">
        <ele>49.4</ele>
        <time>2022-04-12T10:49:41Z</time>
      </trkpt>
      <trkpt lat="49.95892" lon="2.10249">
        <ele>49.4</ele>
        <time>2022-04-12T10:49:42Z</time>
      </trkpt>
      <trkpt lat="49.95893" lon="2.1025">
        <ele>49.3</ele>
        <time>2022-04-12T10:49:43Z</time>
      </trkpt>
      <trkpt lat="49.95893" lon="2.10252">
        <ele>49.3</ele>
        <time>2022-04-12T10:49:44Z</time>
      </trkpt>
      <trkpt lat="49.95894" lon="2.10254">
        <ele>49.2</ele>
        <time>2022-04-12T10:49:45Z</time>
      </trkpt>
      <trkpt lat="49.95894" lon="2.10256">
        <ele>49.2</ele>
        <time>2022-04-12T10:49:46Z</time>
      </trkpt>
      <trkpt lat="49.95895" lon="2.10258">
        <ele>49.1</ele>
        <time>2022-04-12T10:49:47Z</time>
      </trkpt>
      <trkpt lat="49.95896" lon="2.10261">
        <ele>49</ele>
        <time>2022-04-12T10:49:48Z</time>
      </trkpt>
      <trkpt lat="49.95896" lon="2.10262">
        <ele>49</ele>
        <time>2022-04-12T10:49:50Z</time>
      </trkpt>
      <trkpt lat="49.95897" lon="2.10264">
        <ele>49</ele>
        <time>2022-04-12T10:49:51Z</time>
      </trkpt>
      <trkpt lat="49.95897" lon="2.10265">
        <ele>48.9</ele>
        <time>2022-04-12T10:49:52Z</time>
      </trkpt>
      <trkpt lat="49.95898" lon="2.10266">
        <ele>48.9</ele>
        <time>2022-04-12T10:49:53Z</time>
      </trkpt>
      <trkpt lat="49.95899" lon="2.10268">
        <ele>48.8</ele>
        <time>2022-04-12T10:49:54Z</time>
      </trkpt>
      <trkpt lat="49.95899" lon="2.10269">
        <ele>48.8</ele>
        <time>2022-04-12T10:49:55Z</time>
      </trkpt>
      <trkpt lat="49.959" lon="2.1027">
        <ele>48.8</ele>
        <time>2022-04-12T10:49:56Z</time>
      </trkpt>
      <trkpt lat="49.95901" lon="2.10271">
        <ele>48.7</ele>
        <time>2022-04-12T10:49:57Z</time>
      </trkpt>
      <trkpt lat="49.95902" lon="2.10272">
        <ele>48.7</ele>
        <time>2022-04-12T10:49:58Z</time>
      </trkpt>
      <trkpt lat="49.95903" lon="2.10273">
        <ele>48.6</ele>
        <time>2022-04-12T10:49:59Z</time>
      </trkpt>
      <trkpt lat="49.95904" lon="2.10274">
        <ele>48.6</ele>
        <time>2022-04-12T10:50:00Z</time>
      </trkpt>
      <trkpt lat="49.95904" lon="2.10276">
        <ele>48.6</ele>
        <time>2022-04-12T10:50:02Z</time>
      </trkpt>
      <trkpt lat="49.95905" lon="2.10277">
        <ele>48.5</ele>
        <time>2022-04-12T10:50:03Z</time>
      </trkpt>
      <trkpt lat="49.95905" lon="2.10278">
        <ele>48.5</ele>
        <time>2022-04-12T10:50:04Z</time>
      </trkpt>
      <trkpt lat="49.95906" lon="2.10279">
        <ele>48.5</ele>
        <time>2022-04-12T10:50:05Z</time>
      </trkpt>
      <trkpt lat="49.95906" lon="2.10281">
        <ele>48.4</ele>
        <time>2022-04-12T10:50:06Z</time>
      </trkpt>
      <trkpt lat="49.95907" lon="2.10282">
        <ele>48.4</ele>
        <time>2022-04-12T10:50:07Z</time>
      </trkpt>
      <trkpt lat="49.95907" lon="2.10284">
        <ele>48.4</ele>
        <time>2022-04-12T10:50:08Z</time>
      </trkpt>
      <trkpt lat="49.95908" lon="2.10285">
        <ele>48.3</ele>
        <time>2022-04-12T10:50:09Z</time>
      </trkpt>
      <trkpt lat="49.95909" lon="2.10286">
        <ele>48.3</ele>
        <time>2022-04-12T10:50:10Z</time>
      </trkpt>
      <trkpt lat="49.95909" lon="2.10287">
        <ele>48.2</ele>
        <time>2022-04-12T10:50:11Z</time>
      </trkpt>
      <trkpt lat="49.9591" lon="2.10289">
        <ele>48.2</ele>
        <time>2022-04-12T10:50:12Z</time>
      </trkpt>
      <trkpt lat="49.95911" lon="2.1029">
        <ele>48.2</ele>
        <time>2022-04-12T10:50:13Z</time>
      </trkpt>
      <trkpt lat="49.95912" lon="2.1029">
        <ele>48.1</ele>
        <time>2022-04-12T10:50:14Z</time>
      </trkpt>
      <trkpt lat="49.95912" lon="2.10291">
        <ele>48.1</ele>
        <time>2022-04-12T10:50:16Z</time>
      </trkpt>
      <trkpt lat="49.95913" lon="2.10292">
        <ele>48.1</ele>
        <time>2022-04-12T10:50:17Z</time>
      </trkpt>
      <trkpt lat="49.95914" lon="2.10293">
        <ele>48.1</ele>
        <time>2022-04-12T10:50:18Z</time>
      </trkpt>
      <trkpt lat="49.95914" lon="2.10294">
        <ele>48</ele>
        <time>2022-04-12T10:50:19Z</time>
      </trkpt>
      <trkpt lat="49.95915" lon="2.10295">
        <ele>48</ele>
        <time>2022-04-12T10:50:20Z</time>
      </trkpt>
      <trkpt lat="49.95916" lon="2.10296">
        <ele>48</ele>
        <time>2022-04-12T10:50:21Z</time>
      </trkpt>
      <trkpt lat="49.95916" lon="2.10298">
        <ele>47.9</ele>
        <time>2022-04-12T10:50:23Z</time>
      </trkpt>
      <trkpt lat="49.95917" lon="2.10299">
        <ele>47.9</ele>
        <time>2022-04-12T10:50:24Z</time>
      </trkpt>
      <trkpt lat="49.95917" lon="2.103">
        <ele>47.9</ele>
        <time>2022-04-12T10:50:25Z</time>
      </trkpt>
      <trkpt lat="49.95917" lon="2.10301">
        <ele>47.9</ele>
        <time>2022-04-12T10:50:26Z</time>
      </trkpt>
      <trkpt lat="49.95918" lon="2.10302">
        <ele>47.8</ele>
        <time>2022-04-12T10:50:27Z</time>
      </trkpt>
      <trkpt lat="49.95919" lon="2.10303">
        <ele>47.8</ele>
        <time>2022-04-12T10:50:28Z</time>
      </trkpt>
      <trkpt lat="49.95919" lon="2.10304">
        <ele>47.8</ele>
        <time>2022-04-12T10:50:29Z</time>
      </trkpt>
      <trkpt lat="49.95921" lon="2.10306">
        <ele>47.7</ele>
        <time>2022-04-12T10:50:30Z</time>
      </trkpt>
      <trkpt lat="49.95922" lon="2.10307">
        <ele>47.7</ele>
        <time>2022-04-12T10:50:31Z</time>
      </trkpt>
      <trkpt lat="49.95922" lon="2.10308">
        <ele>47.7</ele>
        <time>2022-04-12T10:50:33Z</time>
      </trkpt>
      <trkpt lat="49.95923" lon="2.10309">
        <ele>47.6</ele>
        <time>2022-04-12T10:50:34Z</time>
      </trkpt>
      <trkpt lat="49.95924" lon="2.1031">
        <ele>47.6</ele>
        <time>2022-04-12T10:50:35Z</time>
      </trkpt>
      <trkpt lat="49.95925" lon="2.10311">
        <ele>47.6</ele>
        <time>2022-04-12T10:50:36Z</time>
      </trkpt>
      <trkpt lat="49.95926" lon="2.10314">
        <ele>47.5</ele>
        <time>2022-04-12T10:50:37Z</time>
      </trkpt>
      <trkpt lat="49.95927" lon="2.10315">
        <ele>47.5</ele>
        <time>2022-04-12T10:50:38Z</time>
      </trkpt>
      <trkpt lat="49.95928" lon="2.10316">
        <ele>47.5</ele>
        <time>2022-04-12T10:50:39Z</time>
      </trkpt>
      <trkpt lat="49.9593" lon="2.10319">
        <ele>47.4</ele>
        <time>2022-04-12T10:50:41Z</time>
      </trkpt>
      <trkpt lat="49.95931" lon="2.1032">
        <ele>47.4</ele>
        <time>2022-04-12T10:50:42Z</time>
      </trkpt>
      <trkpt lat="49.95932" lon="2.10322">
        <ele>47.3</ele>
        <time>2022-04-12T10:50:43Z</time>
      </trkpt>
      <trkpt lat="49.95933" lon="2.10324">
        <ele>47.3</ele>
        <time>2022-04-12T10:50:44Z</time>
      </trkpt>
      <trkpt lat="49.95934" lon="2.10326">
        <ele>47.2</ele>
        <time>2022-04-12T10:50:45Z</time>
      </trkpt>
      <trkpt lat="49.95935" lon="2.10327">
        <ele>47.2</ele>
        <time>2022-04-12T10:50:46Z</time>
      </trkpt>
      <trkpt lat="49.95936" lon="2.10328">
        <ele>47.2</ele>
        <time>2022-04-12T10:50:47Z</time>
      </trkpt>
      <trkpt lat="49.95937" lon="2.1033">
        <ele>47.1</ele>
        <time>2022-04-12T10:50:48Z</time>
      </trkpt>
      <trkpt lat="49.95937" lon="2.10331">
        <ele>47.1</ele>
        <time>2022-04-12T10:50:49Z</time>
      </trkpt>
      <trkpt lat="49.95939" lon="2.10334">
        <ele>47</ele>
        <time>2022-04-12T10:50:50Z</time>
      </trkpt>
      <trkpt lat="49.95939" lon="2.10335">
        <ele>47</ele>
        <time>2022-04-12T10:50:51Z</time>
      </trkpt>
      <trkpt lat="49.9594" lon="2.10336">
        <ele>46.9</ele>
        <time>2022-04-12T10:50:52Z</time>
      </trkpt>
      <trkpt lat="49.95941" lon="2.10338">
        <ele>46.9</ele>
        <time>2022-04-12T10:50:54Z</time>
      </trkpt>
      <trkpt lat="49.95942" lon="2.10339">
        <ele>46.8</ele>
        <time>2022-04-12T10:50:55Z</time>
      </trkpt>
      <trkpt lat="49.95943" lon="2.10341">
        <ele>46.8</ele>
        <time>2022-04-12T10:50:56Z</time>
      </trkpt>
      <trkpt lat="49.95944" lon="2.10342">
        <ele>46.7</ele>
        <time>2022-04-12T10:50:57Z</time>
      </trkpt>
      <trkpt lat="49.95945" lon="2.10344">
        <ele>46.7</ele>
        <time>2022-04-12T10:50:58Z</time>
      </trkpt>
      <trkpt lat="49.95946" lon="2.10345">
        <ele>46.6</ele>
        <time>2022-04-12T10:50:59Z</time>
      </trkpt>
      <trkpt lat="49.95947" lon="2.10346">
        <ele>46.6</ele>
        <time>2022-04-12T10:51:00Z</time>
      </trkpt>
      <trkpt lat="49.95947" lon="2.10347">
        <ele>46.6</ele>
        <time>2022-04-12T10:51:01Z</time>
      </trkpt>
      <trkpt lat="49.95948" lon="2.10348">
        <ele>46.5</ele>
        <time>2022-04-12T10:51:02Z</time>
      </trkpt>
      <trkpt lat="49.95949" lon="2.10349">
        <ele>46.5</ele>
        <time>2022-04-12T10:51:03Z</time>
      </trkpt>
      <trkpt lat="49.9595" lon="2.1035">
        <ele>46.5</ele>
        <time>2022-04-12T10:51:04Z</time>
      </trkpt>
      <trkpt lat="49.9595" lon="2.10351">
        <ele>46.4</ele>
        <time>2022-04-12T10:51:05Z</time>
      </trkpt>
      <trkpt lat="49.95951" lon="2.10353">
        <ele>46.4</ele>
        <time>2022-04-12T10:51:07Z</time>
      </trkpt>
      <trkpt lat="49.95952" lon="2.10354">
        <ele>46.3</ele>
        <time>2022-04-12T10:51:08Z</time>
      </trkpt>
      <trkpt lat="49.95953" lon="2.10355">
        <ele>46.3</ele>
        <time>2022-04-12T10:51:09Z</time>
      </trkpt>
      <trkpt lat="49.95953" lon="2.10356">
        <ele>46.2</ele>
        <time>2022-04-12T10:51:10Z</time>
      </trkpt>
      <trkpt lat="49.95955" lon="2.10358">
        <ele>46.1</ele>
        <time>2022-04-12T10:51:11Z</time>
      </trkpt>
      <trkpt lat="49.95955" lon="2.10359">
        <ele>46.1</ele>
        <time>2022-04-12T10:51:12Z</time>
      </trkpt>
      <trkpt lat="49.95956" lon="2.1036">
        <ele>46.1</ele>
        <time>2022-04-12T10:51:13Z</time>
      </trkpt>
      <trkpt lat="49.95957" lon="2.10361">
        <ele>46</ele>
        <time>2022-04-12T10:51:14Z</time>
      </trkpt>
      <trkpt lat="49.95957" lon="2.10363">
        <ele>46</ele>
        <time>2022-04-12T10:51:15Z</time>
      </trkpt>
      <trkpt lat="49.95958" lon="2.10364">
        <ele>45.9</ele>
        <time>2022-04-12T10:51:17Z</time>
      </trkpt>
      <trkpt lat="49.95959" lon="2.10366">
        <ele>45.9</ele>
        <time>2022-04-12T10:51:18Z</time>
      </trkpt>
      <trkpt lat="49.9596" lon="2.1037">
        <ele>45.8</ele>
        <time>2022-04-12T10:51:20Z</time>
      </trkpt>
      <trkpt lat="49.9596" lon="2.10372">
        <ele>45.7</ele>
        <time>2022-04-12T10:51:21Z</time>
      </trkpt>
      <trkpt lat="49.95961" lon="2.10374">
        <ele>45.6</ele>
        <time>2022-04-12T10:51:22Z</time>
      </trkpt>
      <trkpt lat="49.95962" lon="2.10375">
        <ele>45.6</ele>
        <time>2022-04-12T10:51:23Z</time>
      </trkpt>
      <trkpt lat="49.95963" lon="2.10377">
        <ele>45.5</ele>
        <time>2022-04-12T10:51:24Z</time>
      </trkpt>
      <trkpt lat="49.95964" lon="2.10378">
        <ele>45.5</ele>
        <time>2022-04-12T10:51:25Z</time>
      </trkpt>
      <trkpt lat="49.95965" lon="2.1038">
        <ele>45.4</ele>
        <time>2022-04-12T10:51:27Z</time>
      </trkpt>
      <trkpt lat="49.95965" lon="2.10381">
        <ele>45.3</ele>
        <time>2022-04-12T10:51:28Z</time>
      </trkpt>
      <trkpt lat="49.95966" lon="2.10383">
        <ele>45.3</ele>
        <time>2022-04-12T10:51:29Z</time>
      </trkpt>
      <trkpt lat="49.95966" lon="2.10385">
        <ele>45.2</ele>
        <time>2022-04-12T10:51:30Z</time>
      </trkpt>
      <trkpt lat="49.95966" lon="2.10386">
        <ele>45.2</ele>
        <time>2022-04-12T10:51:31Z</time>
      </trkpt>
      <trkpt lat="49.95967" lon="2.10389">
        <ele>45.1</ele>
        <time>2022-04-12T10:51:32Z</time>
      </trkpt>
      <trkpt lat="49.95967" lon="2.1039">
        <ele>45.1</ele>
        <time>2022-04-12T10:51:33Z</time>
      </trkpt>
      <trkpt lat="49.95967" lon="2.10391">
        <ele>45</ele>
        <time>2022-04-12T10:51:34Z</time>
      </trkpt>
      <trkpt lat="49.95968" lon="2.10393">
        <ele>45</ele>
        <time>2022-04-12T10:51:35Z</time>
      </trkpt>
      <trkpt lat="49.95968" lon="2.10395">
        <ele>44.9</ele>
        <time>2022-04-12T10:51:36Z</time>
      </trkpt>
      <trkpt lat="49.95969" lon="2.10397">
        <ele>44.8</ele>
        <time>2022-04-12T10:51:38Z</time>
      </trkpt>
      <trkpt lat="49.9597" lon="2.10398">
        <ele>44.8</ele>
        <time>2022-04-12T10:51:39Z</time>
      </trkpt>
      <trkpt lat="49.95971" lon="2.104">
        <ele>44.7</ele>
        <time>2022-04-12T10:51:40Z</time>
      </trkpt>
      <trkpt lat="49.95972" lon="2.10403">
        <ele>44.6</ele>
        <time>2022-04-12T10:51:41Z</time>
      </trkpt>
      <trkpt lat="49.95973" lon="2.10404">
        <ele>44.6</ele>
        <time>2022-04-12T10:51:42Z</time>
      </trkpt>
      <trkpt lat="49.95973" lon="2.10405">
        <ele>44.5</ele>
        <time>2022-04-12T10:51:43Z</time>
      </trkpt>
      <trkpt lat="49.95975" lon="2.10407">
        <ele>44.5</ele>
        <time>2022-04-12T10:51:45Z</time>
      </trkpt>
      <trkpt lat="49.95976" lon="2.10409">
        <ele>44.4</ele>
        <time>2022-04-12T10:51:46Z</time>
      </trkpt>
      <trkpt lat="49.95977" lon="2.10412">
        <ele>44.3</ele>
        <time>2022-04-12T10:51:48Z</time>
      </trkpt>
      <trkpt lat="49.95977" lon="2.10414">
        <ele>44.2</ele>
        <time>2022-04-12T10:51:49Z</time>
      </trkpt>
      <trkpt lat="49.95978" lon="2.10416">
        <ele>44.2</ele>
        <time>2022-04-12T10:51:50Z</time>
      </trkpt>
      <trkpt lat="49.95979" lon="2.10418">
        <ele>44.1</ele>
        <time>2022-04-12T10:51:51Z</time>
      </trkpt>
      <trkpt lat="49.95981" lon="2.10422">
        <ele>44</ele>
        <time>2022-04-12T10:51:52Z</time>
      </trkpt>
      <trkpt lat="49.95981" lon="2.10423">
        <ele>44</ele>
        <time>2022-04-12T10:51:53Z</time>
      </trkpt>
      <trkpt lat="49.95982" lon="2.10427">
        <ele>43.8</ele>
        <time>2022-04-12T10:51:55Z</time>
      </trkpt>
      <trkpt lat="49.95983" lon="2.10429">
        <ele>43.8</ele>
        <time>2022-04-12T10:51:56Z</time>
      </trkpt>
      <trkpt lat="49.95984" lon="2.10431">
        <ele>43.7</ele>
        <time>2022-04-12T10:51:57Z</time>
      </trkpt>
      <trkpt lat="49.95985" lon="2.10433">
        <ele>43.7</ele>
        <time>2022-04-12T10:51:58Z</time>
      </trkpt>
      <trkpt lat="49.95986" lon="2.10436">
        <ele>43.6</ele>
        <time>2022-04-12T10:51:59Z</time>
      </trkpt>
      <trkpt lat="49.95987" lon="2.10438">
        <ele>43.5</ele>
        <time>2022-04-12T10:52:00Z</time>
      </trkpt>
      <trkpt lat="49.95987" lon="2.1044">
        <ele>43.4</ele>
        <time>2022-04-12T10:52:01Z</time>
      </trkpt>
      <trkpt lat="49.95989" lon="2.10443">
        <ele>43.3</ele>
        <time>2022-04-12T10:52:02Z</time>
      </trkpt>
      <trkpt lat="49.9599" lon="2.10445">
        <ele>43.3</ele>
        <time>2022-04-12T10:52:04Z</time>
      </trkpt>
      <trkpt lat="49.9599" lon="2.10446">
        <ele>43.2</ele>
        <time>2022-04-12T10:52:05Z</time>
      </trkpt>
      <trkpt lat="49.95991" lon="2.10447">
        <ele>43.2</ele>
        <time>2022-04-12T10:52:06Z</time>
      </trkpt>
      <trkpt lat="49.95991" lon="2.10448">
        <ele>43.1</ele>
        <time>2022-04-12T10:52:07Z</time>
      </trkpt>
      <trkpt lat="49.95993" lon="2.10451">
        <ele>43</ele>
        <time>2022-04-12T10:52:08Z</time>
      </trkpt>
      <trkpt lat="49.95993" lon="2.10452">
        <ele>43</ele>
        <time>2022-04-12T10:52:09Z</time>
      </trkpt>
      <trkpt lat="49.95993" lon="2.10454">
        <ele>43</ele>
        <time>2022-04-12T10:52:10Z</time>
      </trkpt>
      <trkpt lat="49.95994" lon="2.10455">
        <ele>42.9</ele>
        <time>2022-04-12T10:52:11Z</time>
      </trkpt>
      <trkpt lat="49.95995" lon="2.10457">
        <ele>42.8</ele>
        <time>2022-04-12T10:52:12Z</time>
      </trkpt>
      <trkpt lat="49.95996" lon="2.10459">
        <ele>42.8</ele>
        <time>2022-04-12T10:52:14Z</time>
      </trkpt>
      <trkpt lat="49.95997" lon="2.1046">
        <ele>42.7</ele>
        <time>2022-04-12T10:52:15Z</time>
      </trkpt>
      <trkpt lat="49.95998" lon="2.10461">
        <ele>42.7</ele>
        <time>2022-04-12T10:52:16Z</time>
      </trkpt>
      <trkpt lat="49.95998" lon="2.10463">
        <ele>42.6</ele>
        <time>2022-04-12T10:52:17Z</time>
      </trkpt>
      <trkpt lat="49.95999" lon="2.10464">
        <ele>42.6</ele>
        <time>2022-04-12T10:52:18Z</time>
      </trkpt>
      <trkpt lat="49.96" lon="2.10466">
        <ele>42.6</ele>
        <time>2022-04-12T10:52:19Z</time>
      </trkpt>
      <trkpt lat="49.96" lon="2.10467">
        <ele>42.5</ele>
        <time>2022-04-12T10:52:20Z</time>
      </trkpt>
      <trkpt lat="49.96001" lon="2.10469">
        <ele>42.5</ele>
        <time>2022-04-12T10:52:21Z</time>
      </trkpt>
      <trkpt lat="49.96001" lon="2.1047">
        <ele>42.5</ele>
        <time>2022-04-12T10:52:23Z</time>
      </trkpt>
      <trkpt lat="49.96002" lon="2.10472">
        <ele>42.4</ele>
        <time>2022-04-12T10:52:24Z</time>
      </trkpt>
      <trkpt lat="49.96003" lon="2.10473">
        <ele>42.4</ele>
        <time>2022-04-12T10:52:25Z</time>
      </trkpt>
      <trkpt lat="49.96003" lon="2.10474">
        <ele>42.4</ele>
        <time>2022-04-12T10:52:26Z</time>
      </trkpt>
      <trkpt lat="49.96004" lon="2.10476">
        <ele>42.3</ele>
        <time>2022-04-12T10:52:27Z</time>
      </trkpt>
      <trkpt lat="49.96005" lon="2.10477">
        <ele>42.3</ele>
        <time>2022-04-12T10:52:28Z</time>
      </trkpt>
      <trkpt lat="49.96006" lon="2.10478">
        <ele>42.3</ele>
        <time>2022-04-12T10:52:29Z</time>
      </trkpt>
      <trkpt lat="49.96006" lon="2.10479">
        <ele>42.2</ele>
        <time>2022-04-12T10:52:30Z</time>
      </trkpt>
      <trkpt lat="49.96006" lon="2.1048">
        <ele>42.2</ele>
        <time>2022-04-12T10:52:31Z</time>
      </trkpt>
      <trkpt lat="49.96007" lon="2.10482">
        <ele>42.2</ele>
        <time>2022-04-12T10:52:32Z</time>
      </trkpt>
      <trkpt lat="49.96007" lon="2.10482">
        <ele>42.1</ele>
        <time>2022-04-12T10:52:34Z</time>
      </trkpt>
      <trkpt lat="49.96008" lon="2.10483">
        <ele>42.1</ele>
        <time>2022-04-12T10:52:35Z</time>
      </trkpt>
      <trkpt lat="49.96008" lon="2.10485">
        <ele>42.1</ele>
        <time>2022-04-12T10:52:36Z</time>
      </trkpt>
      <trkpt lat="49.96009" lon="2.10486">
        <ele>42.1</ele>
        <time>2022-04-12T10:52:37Z</time>
      </trkpt>
      <trkpt lat="49.96009" lon="2.10487">
        <ele>42</ele>
        <time>2022-04-12T10:52:38Z</time>
      </trkpt>
      <trkpt lat="49.96009" lon="2.10488">
        <ele>42</ele>
        <time>2022-04-12T10:52:39Z</time>
      </trkpt>
      <trkpt lat="49.96009" lon="2.10489">
        <ele>42</ele>
        <time>2022-04-12T10:52:40Z</time>
      </trkpt>
      <trkpt lat="49.9601" lon="2.1049">
        <ele>41.9</ele>
        <time>2022-04-12T10:52:41Z</time>
      </trkpt>
      <trkpt lat="49.9601" lon="2.10491">
        <ele>41.9</ele>
        <time>2022-04-12T10:52:42Z</time>
      </trkpt>
      <trkpt lat="49.96011" lon="2.10492">
        <ele>41.8</ele>
        <time>2022-04-12T10:52:43Z</time>
      </trkpt>
      <trkpt lat="49.96011" lon="2.10494">
        <ele>41.8</ele>
        <time>2022-04-12T10:52:44Z</time>
      </trkpt>
      <trkpt lat="49.96012" lon="2.10495">
        <ele>41.7</ele>
        <time>2022-04-12T10:52:45Z</time>
      </trkpt>
      <trkpt lat="49.96012" lon="2.10496">
        <ele>41.7</ele>
        <time>2022-04-12T10:52:47Z</time>
      </trkpt>
      <trkpt lat="49.96013" lon="2.10498">
        <ele>41.7</ele>
        <time>2022-04-12T10:52:48Z</time>
      </trkpt>
      <trkpt lat="49.96013" lon="2.10499">
        <ele>41.6</ele>
        <time>2022-04-12T10:52:49Z</time>
      </trkpt>
      <trkpt lat="49.96013" lon="2.105">
        <ele>41.6</ele>
        <time>2022-04-12T10:52:50Z</time>
      </trkpt>
      <trkpt lat="49.96013" lon="2.10501">
        <ele>41.5</ele>
        <time>2022-04-12T10:52:51Z</time>
      </trkpt>
      <trkpt lat="49.96014" lon="2.10502">
        <ele>41.5</ele>
        <time>2022-04-12T10:52:52Z</time>
      </trkpt>
      <trkpt lat="49.96014" lon="2.10502">
        <ele>41.5</ele>
        <time>2022-04-12T10:52:53Z</time>
      </trkpt>
      <trkpt lat="49.96014" lon="2.10503">
        <ele>41.4</ele>
        <time>2022-04-12T10:52:54Z</time>
      </trkpt>
      <trkpt lat="49.96015" lon="2.10504">
        <ele>41.4</ele>
        <time>2022-04-12T10:52:55Z</time>
      </trkpt>
      <trkpt lat="49.96015" lon="2.10505">
        <ele>41.3</ele>
        <time>2022-04-12T10:52:56Z</time>
      </trkpt>
      <trkpt lat="49.96016" lon="2.10507">
        <ele>41.3</ele>
        <time>2022-04-12T10:52:58Z</time>
      </trkpt>
      <trkpt lat="49.96016" lon="2.10508">
        <ele>41.2</ele>
        <time>2022-04-12T10:52:59Z</time>
      </trkpt>
      <trkpt lat="49.96017" lon="2.10509">
        <ele>41.1</ele>
        <time>2022-04-12T10:53:00Z</time>
      </trkpt>
      <trkpt lat="49.96018" lon="2.10511">
        <ele>41.1</ele>
        <time>2022-04-12T10:53:01Z</time>
      </trkpt>
      <trkpt lat="49.96019" lon="2.10512">
        <ele>41</ele>
        <time>2022-04-12T10:53:02Z</time>
      </trkpt>
      <trkpt lat="49.96019" lon="2.10513">
        <ele>40.9</ele>
        <time>2022-04-12T10:53:03Z</time>
      </trkpt>
      <trkpt lat="49.9602" lon="2.10514">
        <ele>40.9</ele>
        <time>2022-04-12T10:53:04Z</time>
      </trkpt>
      <trkpt lat="49.96021" lon="2.10516">
        <ele>40.8</ele>
        <time>2022-04-12T10:53:05Z</time>
      </trkpt>
      <trkpt lat="49.96022" lon="2.10519">
        <ele>40.7</ele>
        <time>2022-04-12T10:53:07Z</time>
      </trkpt>
      <trkpt lat="49.96023" lon="2.10521">
        <ele>40.6</ele>
        <time>2022-04-12T10:53:08Z</time>
      </trkpt>
      <trkpt lat="49.96024" lon="2.10524">
        <ele>40.4</ele>
        <time>2022-04-12T10:53:09Z</time>
      </trkpt>
      <trkpt lat="49.96025" lon="2.10526">
        <ele>40.3</ele>
        <time>2022-04-12T10:53:10Z</time>
      </trkpt>
      <trkpt lat="49.96026" lon="2.10528">
        <ele>40.2</ele>
        <time>2022-04-12T10:53:11Z</time>
      </trkpt>
      <trkpt lat="49.96027" lon="2.1053">
        <ele>40.1</ele>
        <time>2022-04-12T10:53:12Z</time>
      </trkpt>
      <trkpt lat="49.96029" lon="2.10534">
        <ele>39.8</ele>
        <time>2022-04-12T10:53:13Z</time>
      </trkpt>
      <trkpt lat="49.9603" lon="2.10535">
        <ele>39.7</ele>
        <time>2022-04-12T10:53:15Z</time>
      </trkpt>
      <trkpt lat="49.96031" lon="2.10537">
        <ele>39.6</ele>
        <time>2022-04-12T10:53:16Z</time>
      </trkpt>
      <trkpt lat="49.96032" lon="2.10539">
        <ele>39.5</ele>
        <time>2022-04-12T10:53:17Z</time>
      </trkpt>
      <trkpt lat="49.96034" lon="2.10543">
        <ele>39.3</ele>
        <time>2022-04-12T10:53:18Z</time>
      </trkpt>
      <trkpt lat="49.96035" lon="2.10544">
        <ele>39.2</ele>
        <time>2022-04-12T10:53:19Z</time>
      </trkpt>
      <trkpt lat="49.96036" lon="2.10546">
        <ele>39</ele>
        <time>2022-04-12T10:53:20Z</time>
      </trkpt>
      <trkpt lat="49.96037" lon="2.10548">
        <ele>38.9</ele>
        <time>2022-04-12T10:53:21Z</time>
      </trkpt>
      <trkpt lat="49.96038" lon="2.1055">
        <ele>38.8</ele>
        <time>2022-04-12T10:53:22Z</time>
      </trkpt>
      <trkpt lat="49.96039" lon="2.10552">
        <ele>38.7</ele>
        <time>2022-04-12T10:53:23Z</time>
      </trkpt>
      <trkpt lat="49.96039" lon="2.10553">
        <ele>38.6</ele>
        <time>2022-04-12T10:53:25Z</time>
      </trkpt>
      <trkpt lat="49.9604" lon="2.10555">
        <ele>38.5</ele>
        <time>2022-04-12T10:53:26Z</time>
      </trkpt>
      <trkpt lat="49.96041" lon="2.10556">
        <ele>38.4</ele>
        <time>2022-04-12T10:53:27Z</time>
      </trkpt>
      <trkpt lat="49.96042" lon="2.10558">
        <ele>38.3</ele>
        <time>2022-04-12T10:53:28Z</time>
      </trkpt>
      <trkpt lat="49.96042" lon="2.10559">
        <ele>38.2</ele>
        <time>2022-04-12T10:53:29Z</time>
      </trkpt>
      <trkpt lat="49.96043" lon="2.1056">
        <ele>38.2</ele>
        <time>2022-04-12T10:53:30Z</time>
      </trkpt>
      <trkpt lat="49.96043" lon="2.10561">
        <ele>38.1</ele>
        <time>2022-04-12T10:53:31Z</time>
      </trkpt>
      <trkpt lat="49.96044" lon="2.10563">
        <ele>38</ele>
        <time>2022-04-12T10:53:32Z</time>
      </trkpt>
      <trkpt lat="49.96045" lon="2.10564">
        <ele>37.9</ele>
        <time>2022-04-12T10:53:33Z</time>
      </trkpt>
      <trkpt lat="49.96045" lon="2.10565">
        <ele>37.8</ele>
        <time>2022-04-12T10:53:35Z</time>
      </trkpt>
      <trkpt lat="49.96046" lon="2.10565">
        <ele>37.8</ele>
        <time>2022-04-12T10:53:36Z</time>
      </trkpt>
      <trkpt lat="49.96046" lon="2.10566">
        <ele>37.7</ele>
        <time>2022-04-12T10:53:37Z</time>
      </trkpt>
      <trkpt lat="49.96047" lon="2.10567">
        <ele>37.7</ele>
        <time>2022-04-12T10:53:38Z</time>
      </trkpt>
      <trkpt lat="49.96048" lon="2.10568">
        <ele>37.6</ele>
        <time>2022-04-12T10:53:39Z</time>
      </trkpt>
      <trkpt lat="49.96048" lon="2.10569">
        <ele>37.5</ele>
        <time>2022-04-12T10:53:40Z</time>
      </trkpt>
      <trkpt lat="49.96049" lon="2.1057">
        <ele>37.5</ele>
        <time>2022-04-12T10:53:41Z</time>
      </trkpt>
      <trkpt lat="49.96049" lon="2.10571">
        <ele>37.4</ele>
        <time>2022-04-12T10:53:42Z</time>
      </trkpt>
      <trkpt lat="49.9605" lon="2.10572">
        <ele>37.3</ele>
        <time>2022-04-12T10:53:43Z</time>
      </trkpt>
      <trkpt lat="49.9605" lon="2.10573">
        <ele>37.3</ele>
        <time>2022-04-12T10:53:45Z</time>
      </trkpt>
      <trkpt lat="49.96051" lon="2.10573">
        <ele>37.2</ele>
        <time>2022-04-12T10:53:46Z</time>
      </trkpt>
      <trkpt lat="49.96051" lon="2.10574">
        <ele>37.2</ele>
        <time>2022-04-12T10:53:47Z</time>
      </trkpt>
      <trkpt lat="49.96052" lon="2.10575">
        <ele>37.1</ele>
        <time>2022-04-12T10:53:48Z</time>
      </trkpt>
      <trkpt lat="49.96053" lon="2.10576">
        <ele>37</ele>
        <time>2022-04-12T10:53:49Z</time>
      </trkpt>
      <trkpt lat="49.96053" lon="2.10577">
        <ele>37</ele>
        <time>2022-04-12T10:53:50Z</time>
      </trkpt>
      <trkpt lat="49.96053" lon="2.10578">
        <ele>36.9</ele>
        <time>2022-04-12T10:53:51Z</time>
      </trkpt>
      <trkpt lat="49.96054" lon="2.10579">
        <ele>36.9</ele>
        <time>2022-04-12T10:53:52Z</time>
      </trkpt>
      <trkpt lat="49.96054" lon="2.10579">
        <ele>36.8</ele>
        <time>2022-04-12T10:53:53Z</time>
      </trkpt>
      <trkpt lat="49.96054" lon="2.1058">
        <ele>36.8</ele>
        <time>2022-04-12T10:53:55Z</time>
      </trkpt>
      <trkpt lat="49.96055" lon="2.1058">
        <ele>36.8</ele>
        <time>2022-04-12T10:53:56Z</time>
      </trkpt>
      <trkpt lat="49.96055" lon="2.10581">
        <ele>36.7</ele>
        <time>2022-04-12T10:53:57Z</time>
      </trkpt>
      <trkpt lat="49.96055" lon="2.10582">
        <ele>36.7</ele>
        <time>2022-04-12T10:53:58Z</time>
      </trkpt>
      <trkpt lat="49.96055" lon="2.10583">
        <ele>36.6</ele>
        <time>2022-04-12T10:53:59Z</time>
      </trkpt>
      <trkpt lat="49.96055" lon="2.10583">
        <ele>36.6</ele>
        <time>2022-04-12T10:54:00Z</time>
      </trkpt>
      <trkpt lat="49.96055" lon="2.10583">
        <ele>36.6</ele>
        <time>2022-04-12T10:54:01Z</time>
      </trkpt>
      <trkpt lat="49.96056" lon="2.10584">
        <ele>36.5</ele>
        <time>2022-04-12T10:54:03Z</time>
      </trkpt>
      <trkpt lat="49.96056" lon="2.10585">
        <ele>36.5</ele>
        <time>2022-04-12T10:54:04Z</time>
      </trkpt>
      <trkpt lat="49.96056" lon="2.10585">
        <ele>36.4</ele>
        <time>2022-04-12T10:54:05Z</time>
      </trkpt>
      <trkpt lat="49.96057" lon="2.10586">
        <ele>36.4</ele>
        <time>2022-04-12T10:54:06Z</time>
      </trkpt>
      <trkpt lat="49.96058" lon="2.10588">
        <ele>36.3</ele>
        <time>2022-04-12T10:54:07Z</time>
      </trkpt>
      <trkpt lat="49.96059" lon="2.10589">
        <ele>36.2</ele>
        <time>2022-04-12T10:54:08Z</time>
      </trkpt>
      <trkpt lat="49.96059" lon="2.1059">
        <ele>36.1</ele>
        <time>2022-04-12T10:54:10Z</time>
      </trkpt>
      <trkpt lat="49.9606" lon="2.10591">
        <ele>36.1</ele>
        <time>2022-04-12T10:54:11Z</time>
      </trkpt>
      <trkpt lat="49.96061" lon="2.10593">
        <ele>36</ele>
        <time>2022-04-12T10:54:12Z</time>
      </trkpt>
      <trkpt lat="49.96062" lon="2.10594">
        <ele>35.9</ele>
        <time>2022-04-12T10:54:13Z</time>
      </trkpt>
      <trkpt lat="49.96063" lon="2.10595">
        <ele>35.8</ele>
        <time>2022-04-12T10:54:14Z</time>
      </trkpt>
      <trkpt lat="49.96064" lon="2.10597">
        <ele>35.7</ele>
        <time>2022-04-12T10:54:15Z</time>
      </trkpt>
      <trkpt lat="49.96065" lon="2.10599">
        <ele>35.6</ele>
        <time>2022-04-12T10:54:16Z</time>
      </trkpt>
      <trkpt lat="49.96067" lon="2.10601">
        <ele>35.5</ele>
        <time>2022-04-12T10:54:18Z</time>
      </trkpt>
      <trkpt lat="49.96068" lon="2.10603">
        <ele>35.4</ele>
        <time>2022-04-12T10:54:19Z</time>
      </trkpt>
      <trkpt lat="49.96069" lon="2.10605">
        <ele>35.3</ele>
        <time>2022-04-12T10:54:20Z</time>
      </trkpt>
      <trkpt lat="49.96071" lon="2.10608">
        <ele>35.1</ele>
        <time>2022-04-12T10:54:21Z</time>
      </trkpt>
      <trkpt lat="49.96072" lon="2.10609">
        <ele>35.1</ele>
        <time>2022-04-12T10:54:22Z</time>
      </trkpt>
      <trkpt lat="49.96074" lon="2.10611">
        <ele>35</ele>
        <time>2022-04-12T10:54:23Z</time>
      </trkpt>
      <trkpt lat="49.96077" lon="2.10617">
        <ele>34.7</ele>
        <time>2022-04-12T10:54:25Z</time>
      </trkpt>
      <trkpt lat="49.96079" lon="2.1062">
        <ele>34.6</ele>
        <time>2022-04-12T10:54:26Z</time>
      </trkpt>
      <trkpt lat="49.9608" lon="2.1062">
        <ele>34.6</ele>
        <time>2022-04-12T10:54:27Z</time>
      </trkpt>
      <trkpt lat="49.96081" lon="2.10622">
        <ele>34.5</ele>
        <time>2022-04-12T10:54:28Z</time>
      </trkpt>
      <trkpt lat="49.96082" lon="2.10624">
        <ele>34.4</ele>
        <time>2022-04-12T10:54:29Z</time>
      </trkpt>
      <trkpt lat="49.96084" lon="2.10625">
        <ele>34.4</ele>
        <time>2022-04-12T10:54:30Z</time>
      </trkpt>
      <trkpt lat="49.96085" lon="2.10628">
        <ele>34.3</ele>
        <time>2022-04-12T10:54:32Z</time>
      </trkpt>
      <trkpt lat="49.96087" lon="2.10629">
        <ele>34.3</ele>
        <time>2022-04-12T10:54:33Z</time>
      </trkpt>
      <trkpt lat="49.96088" lon="2.10631">
        <ele>34.2</ele>
        <time>2022-04-12T10:54:34Z</time>
      </trkpt>
      <trkpt lat="49.96089" lon="2.10632">
        <ele>34.2</ele>
        <time>2022-04-12T10:54:35Z</time>
      </trkpt>
      <trkpt lat="49.96091" lon="2.10634">
        <ele>34.1</ele>
        <time>2022-04-12T10:54:37Z</time>
      </trkpt>
      <trkpt lat="49.96094" lon="2.10637">
        <ele>34</ele>
        <time>2022-04-12T10:54:38Z</time>
      </trkpt>
      <trkpt lat="49.96094" lon="2.10638">
        <ele>34</ele>
        <time>2022-04-12T10:54:39Z</time>
      </trkpt>
      <trkpt lat="49.96097" lon="2.10641">
        <ele>33.9</ele>
        <time>2022-04-12T10:54:41Z</time>
      </trkpt>
      <trkpt lat="49.96098" lon="2.10642">
        <ele>33.9</ele>
        <time>2022-04-12T10:54:42Z</time>
      </trkpt>
      <trkpt lat="49.96099" lon="2.10643">
        <ele>33.9</ele>
        <time>2022-04-12T10:54:43Z</time>
      </trkpt>
      <trkpt lat="49.96101" lon="2.10644">
        <ele>33.8</ele>
        <time>2022-04-12T10:54:44Z</time>
      </trkpt>
      <trkpt lat="49.96102" lon="2.10645">
        <ele>33.8</ele>
        <time>2022-04-12T10:54:45Z</time>
      </trkpt>
      <trkpt lat="49.96103" lon="2.10646">
        <ele>33.7</ele>
        <time>2022-04-12T10:54:46Z</time>
      </trkpt>
      <trkpt lat="49.96104" lon="2.10647">
        <ele>33.7</ele>
        <time>2022-04-12T10:54:47Z</time>
      </trkpt>
      <trkpt lat="49.96106" lon="2.10648">
        <ele>33.7</ele>
        <time>2022-04-12T10:54:48Z</time>
      </trkpt>
      <trkpt lat="49.96108" lon="2.1065">
        <ele>33.6</ele>
        <time>2022-04-12T10:54:49Z</time>
      </trkpt>
      <trkpt lat="49.96108" lon="2.10651">
        <ele>33.6</ele>
        <time>2022-04-12T10:54:51Z</time>
      </trkpt>
      <trkpt lat="49.96109" lon="2.10651">
        <ele>33.5</ele>
        <time>2022-04-12T10:54:52Z</time>
      </trkpt>
      <trkpt lat="49.9611" lon="2.10653">
        <ele>33.5</ele>
        <time>2022-04-12T10:54:53Z</time>
      </trkpt>
      <trkpt lat="49.96111" lon="2.10654">
        <ele>33.4</ele>
        <time>2022-04-12T10:54:54Z</time>
      </trkpt>
      <trkpt lat="49.96112" lon="2.10655">
        <ele>33.4</ele>
        <time>2022-04-12T10:54:55Z</time>
      </trkpt>
      <trkpt lat="49.96113" lon="2.10655">
        <ele>33.4</ele>
        <time>2022-04-12T10:54:56Z</time>
      </trkpt>
      <trkpt lat="49.96114" lon="2.10656">
        <ele>33.3</ele>
        <time>2022-04-12T10:54:57Z</time>
      </trkpt>
      <trkpt lat="49.96114" lon="2.10657">
        <ele>33.3</ele>
        <time>2022-04-12T10:54:58Z</time>
      </trkpt>
      <trkpt lat="49.96116" lon="2.10659">
        <ele>33.2</ele>
        <time>2022-04-12T10:54:59Z</time>
      </trkpt>
      <trkpt lat="49.96117" lon="2.1066">
        <ele>33.2</ele>
        <time>2022-04-12T10:55:01Z</time>
      </trkpt>
      <trkpt lat="49.96117" lon="2.1066">
        <ele>33.1</ele>
        <time>2022-04-12T10:55:02Z</time>
      </trkpt>
      <trkpt lat="49.96119" lon="2.10662">
        <ele>33</ele>
        <time>2022-04-12T10:55:03Z</time>
      </trkpt>
      <trkpt lat="49.9612" lon="2.10663">
        <ele>33</ele>
        <time>2022-04-12T10:55:04Z</time>
      </trkpt>
      <trkpt lat="49.9612" lon="2.10663">
        <ele>32.9</ele>
        <time>2022-04-12T10:55:05Z</time>
      </trkpt>
      <trkpt lat="49.96121" lon="2.10665">
        <ele>32.8</ele>
        <time>2022-04-12T10:55:06Z</time>
      </trkpt>
      <trkpt lat="49.96122" lon="2.10666">
        <ele>32.8</ele>
        <time>2022-04-12T10:55:07Z</time>
      </trkpt>
      <trkpt lat="49.96123" lon="2.10667">
        <ele>32.7</ele>
        <time>2022-04-12T10:55:08Z</time>
      </trkpt>
      <trkpt lat="49.96124" lon="2.10668">
        <ele>32.6</ele>
        <time>2022-04-12T10:55:10Z</time>
      </trkpt>
      <trkpt lat="49.96125" lon="2.10669">
        <ele>32.5</ele>
        <time>2022-04-12T10:55:11Z</time>
      </trkpt>
      <trkpt lat="49.96126" lon="2.10669">
        <ele>32.4</ele>
        <time>2022-04-12T10:55:12Z</time>
      </trkpt>
      <trkpt lat="49.96128" lon="2.1067">
        <ele>32.1</ele>
        <time>2022-04-12T10:55:13Z</time>
      </trkpt>
      <trkpt lat="49.96129" lon="2.10669">
        <ele>31.9</ele>
        <time>2022-04-12T10:55:14Z</time>
      </trkpt>
      <trkpt lat="49.96131" lon="2.10669">
        <ele>31.7</ele>
        <time>2022-04-12T10:55:15Z</time>
      </trkpt>
      <trkpt lat="49.96132" lon="2.10671">
        <ele>31.5</ele>
        <time>2022-04-12T10:55:17Z</time>
      </trkpt>
      <trkpt lat="49.96133" lon="2.10672">
        <ele>31.4</ele>
        <time>2022-04-12T10:55:18Z</time>
      </trkpt>
      <trkpt lat="49.96133" lon="2.10673">
        <ele>31.3</ele>
        <time>2022-04-12T10:55:19Z</time>
      </trkpt>
      <trkpt lat="49.96133" lon="2.10675">
        <ele>31.2</ele>
        <time>2022-04-12T10:55:20Z</time>
      </trkpt>
      <trkpt lat="49.96133" lon="2.10676">
        <ele>31.1</ele>
        <time>2022-04-12T10:55:22Z</time>
      </trkpt>
      <trkpt lat="49.96132" lon="2.10677">
        <ele>31</ele>
        <time>2022-04-12T10:55:23Z</time>
      </trkpt>
      <trkpt lat="49.96132" lon="2.10678">
        <ele>30.9</ele>
        <time>2022-04-12T10:55:24Z</time>
      </trkpt>
      <trkpt lat="49.96132" lon="2.10679">
        <ele>30.8</ele>
        <time>2022-04-12T10:55:25Z</time>
      </trkpt>
      <trkpt lat="49.96132" lon="2.1068">
        <ele>30.7</ele>
        <time>2022-04-12T10:55:27Z</time>
      </trkpt>
      <trkpt lat="49.96132" lon="2.10681">
        <ele>30.6</ele>
        <time>2022-04-12T10:55:28Z</time>
      </trkpt>
      <trkpt lat="49.96131" lon="2.10682">
        <ele>30.5</ele>
        <time>2022-04-12T10:55:29Z</time>
      </trkpt>
      <trkpt lat="49.96131" lon="2.10683">
        <ele>30.4</ele>
        <time>2022-04-12T10:55:30Z</time>
      </trkpt>
      <trkpt lat="49.9613" lon="2.10684">
        <ele>30.3</ele>
        <time>2022-04-12T10:55:32Z</time>
      </trkpt>
      <trkpt lat="49.9613" lon="2.10685">
        <ele>30.2</ele>
        <time>2022-04-12T10:55:33Z</time>
      </trkpt>
      <trkpt lat="49.9613" lon="2.10687">
        <ele>30</ele>
        <time>2022-04-12T10:55:34Z</time>
      </trkpt>
      <trkpt lat="49.96129" lon="2.10688">
        <ele>29.9</ele>
        <time>2022-04-12T10:55:35Z</time>
      </trkpt>
      <trkpt lat="49.96129" lon="2.10689">
        <ele>29.8</ele>
        <time>2022-04-12T10:55:36Z</time>
      </trkpt>
      <trkpt lat="49.96128" lon="2.10689">
        <ele>29.7</ele>
        <time>2022-04-12T10:55:37Z</time>
      </trkpt>
      <trkpt lat="49.96128" lon="2.10689">
        <ele>29.7</ele>
        <time>2022-04-12T10:55:38Z</time>
      </trkpt>
      <trkpt lat="49.96128" lon="2.10689">
        <ele>29.6</ele>
        <time>2022-04-12T10:55:39Z</time>
      </trkpt>
      <trkpt lat="49.96127" lon="2.1069">
        <ele>29.5</ele>
        <time>2022-04-12T10:55:41Z</time>
      </trkpt>
      <trkpt lat="49.96126" lon="2.10691">
        <ele>29.4</ele>
        <time>2022-04-12T10:55:42Z</time>
      </trkpt>
      <trkpt lat="49.96126" lon="2.10692">
        <ele>29.3</ele>
        <time>2022-04-12T10:55:43Z</time>
      </trkpt>
      <trkpt lat="49.96125" lon="2.10694">
        <ele>29.1</ele>
        <time>2022-04-12T10:55:45Z</time>
      </trkpt>
      <trkpt lat="49.96124" lon="2.10695">
        <ele>29</ele>
        <time>2022-04-12T10:55:46Z</time>
      </trkpt>
      <trkpt lat="49.96124" lon="2.10697">
        <ele>28.8</ele>
        <time>2022-04-12T10:55:47Z</time>
      </trkpt>
      <trkpt lat="49.96123" lon="2.10698">
        <ele>28.7</ele>
        <time>2022-04-12T10:55:48Z</time>
      </trkpt>
      <trkpt lat="49.96123" lon="2.10699">
        <ele>28.6</ele>
        <time>2022-04-12T10:55:49Z</time>
      </trkpt>
      <trkpt lat="49.96123" lon="2.10698">
        <ele>28.5</ele>
        <time>2022-04-12T10:55:50Z</time>
      </trkpt>
      <trkpt lat="49.96123" lon="2.10698">
        <ele>28.5</ele>
        <time>2022-04-12T10:55:51Z</time>
      </trkpt>
      <trkpt lat="49.96122" lon="2.10699">
        <ele>28.4</ele>
        <time>2022-04-12T10:55:52Z</time>
      </trkpt>
      <trkpt lat="49.96122" lon="2.107">
        <ele>28.3</ele>
        <time>2022-04-12T10:55:53Z</time>
      </trkpt>
      <trkpt lat="49.96121" lon="2.10701">
        <ele>28.2</ele>
        <time>2022-04-12T10:55:54Z</time>
      </trkpt>
      <trkpt lat="49.96121" lon="2.10703">
        <ele>28</ele>
        <time>2022-04-12T10:55:56Z</time>
      </trkpt>
      <trkpt lat="49.9612" lon="2.10705">
        <ele>27.9</ele>
        <time>2022-04-12T10:55:57Z</time>
      </trkpt>
      <trkpt lat="49.9612" lon="2.10706">
        <ele>27.8</ele>
        <time>2022-04-12T10:55:58Z</time>
      </trkpt>
      <trkpt lat="49.9612" lon="2.10707">
        <ele>27.7</ele>
        <time>2022-04-12T10:55:59Z</time>
      </trkpt>
      <trkpt lat="49.9612" lon="2.10709">
        <ele>27.5</ele>
        <time>2022-04-12T10:56:00Z</time>
      </trkpt>
      <trkpt lat="49.9612" lon="2.10711">
        <ele>27.4</ele>
        <time>2022-04-12T10:56:01Z</time>
      </trkpt>
      <trkpt lat="49.9612" lon="2.10713">
        <ele>27.2</ele>
        <time>2022-04-12T10:56:03Z</time>
      </trkpt>
      <trkpt lat="49.9612" lon="2.10715">
        <ele>27.1</ele>
        <time>2022-04-12T10:56:04Z</time>
      </trkpt>
      <trkpt lat="49.96121" lon="2.10716">
        <ele>26.9</ele>
        <time>2022-04-12T10:56:05Z</time>
      </trkpt>
      <trkpt lat="49.96122" lon="2.10717">
        <ele>26.8</ele>
        <time>2022-04-12T10:56:06Z</time>
      </trkpt>
      <trkpt lat="49.96122" lon="2.10719">
        <ele>26.7</ele>
        <time>2022-04-12T10:56:07Z</time>
      </trkpt>
      <trkpt lat="49.96121" lon="2.10721">
        <ele>26.5</ele>
        <time>2022-04-12T10:56:08Z</time>
      </trkpt>
      <trkpt lat="49.96121" lon="2.10722">
        <ele>26.4</ele>
        <time>2022-04-12T10:56:09Z</time>
      </trkpt>
      <trkpt lat="49.96121" lon="2.10723">
        <ele>26.3</ele>
        <time>2022-04-12T10:56:10Z</time>
      </trkpt>
      <trkpt lat="49.96121" lon="2.10724">
        <ele>26.3</ele>
        <time>2022-04-12T10:56:11Z</time>
      </trkpt>
      <trkpt lat="49.96121" lon="2.10726">
        <ele>26.2</ele>
        <time>2022-04-12T10:56:12Z</time>
      </trkpt>
      <trkpt lat="49.96121" lon="2.10728">
        <ele>26</ele>
        <time>2022-04-12T10:56:13Z</time>
      </trkpt>
      <trkpt lat="49.96121" lon="2.10729">
        <ele>25.9</ele>
        <time>2022-04-12T10:56:14Z</time>
      </trkpt>
      <trkpt lat="49.96121" lon="2.10731">
        <ele>25.8</ele>
        <time>2022-04-12T10:56:15Z</time>
      </trkpt>
      <trkpt lat="49.96121" lon="2.10733">
        <ele>25.6</ele>
        <time>2022-04-12T10:56:17Z</time>
      </trkpt>
      <trkpt lat="49.96121" lon="2.10734">
        <ele>25.5</ele>
        <time>2022-04-12T10:56:18Z</time>
      </trkpt>
      <trkpt lat="49.96121" lon="2.10735">
        <ele>25.4</ele>
        <time>2022-04-12T10:56:19Z</time>
      </trkpt>
      <trkpt lat="49.96121" lon="2.10738">
        <ele>25.2</ele>
        <time>2022-04-12T10:56:20Z</time>
      </trkpt>
      <trkpt lat="49.96121" lon="2.1074">
        <ele>25.1</ele>
        <time>2022-04-12T10:56:21Z</time>
      </trkpt>
      <trkpt lat="49.96121" lon="2.10741">
        <ele>25</ele>
        <time>2022-04-12T10:56:22Z</time>
      </trkpt>
      <trkpt lat="49.96121" lon="2.10744">
        <ele>24.8</ele>
        <time>2022-04-12T10:56:23Z</time>
      </trkpt>
      <trkpt lat="49.96121" lon="2.10747">
        <ele>24.7</ele>
        <time>2022-04-12T10:56:24Z</time>
      </trkpt>
      <trkpt lat="49.96121" lon="2.10752">
        <ele>24.3</ele>
        <time>2022-04-12T10:56:25Z</time>
      </trkpt>
      <trkpt lat="49.96122" lon="2.10754">
        <ele>24.3</ele>
        <time>2022-04-12T10:56:26Z</time>
      </trkpt>
      <trkpt lat="49.96123" lon="2.10761">
        <ele>23.9</ele>
        <time>2022-04-12T10:56:28Z</time>
      </trkpt>
      <trkpt lat="49.96124" lon="2.10765">
        <ele>23.7</ele>
        <time>2022-04-12T10:56:29Z</time>
      </trkpt>
      <trkpt lat="49.96125" lon="2.10767">
        <ele>23.6</ele>
        <time>2022-04-12T10:56:31Z</time>
      </trkpt>
      <trkpt lat="49.96125" lon="2.1077">
        <ele>23.5</ele>
        <time>2022-04-12T10:56:32Z</time>
      </trkpt>
      <trkpt lat="49.96126" lon="2.10772">
        <ele>23.4</ele>
        <time>2022-04-12T10:56:33Z</time>
      </trkpt>
      <trkpt lat="49.96127" lon="2.10774">
        <ele>23.3</ele>
        <time>2022-04-12T10:56:34Z</time>
      </trkpt>
      <trkpt lat="49.96128" lon="2.10776">
        <ele>23.2</ele>
        <time>2022-04-12T10:56:35Z</time>
      </trkpt>
      <trkpt lat="49.96128" lon="2.10778">
        <ele>23.1</ele>
        <time>2022-04-12T10:56:36Z</time>
      </trkpt>
      <trkpt lat="49.96129" lon="2.1078">
        <ele>23</ele>
        <time>2022-04-12T10:56:37Z</time>
      </trkpt>
      <trkpt lat="49.96129" lon="2.10782">
        <ele>22.9</ele>
        <time>2022-04-12T10:56:38Z</time>
      </trkpt>
      <trkpt lat="49.96131" lon="2.10785">
        <ele>22.9</ele>
        <time>2022-04-12T10:56:39Z</time>
      </trkpt>
      <trkpt lat="49.96132" lon="2.10788">
        <ele>22.8</ele>
        <time>2022-04-12T10:56:40Z</time>
      </trkpt>
      <trkpt lat="49.96133" lon="2.1079">
        <ele>22.8</ele>
        <time>2022-04-12T10:56:41Z</time>
      </trkpt>
      <trkpt lat="49.96134" lon="2.10791">
        <ele>22.8</ele>
        <time>2022-04-12T10:56:43Z</time>
      </trkpt>
      <trkpt lat="49.96134" lon="2.10793">
        <ele>22.7</ele>
        <time>2022-04-12T10:56:44Z</time>
      </trkpt>
      <trkpt lat="49.96136" lon="2.10795">
        <ele>22.7</ele>
        <time>2022-04-12T10:56:45Z</time>
      </trkpt>
      <trkpt lat="49.96137" lon="2.10796">
        <ele>22.7</ele>
        <time>2022-04-12T10:56:46Z</time>
      </trkpt>
      <trkpt lat="49.96137" lon="2.10796">
        <ele>22.7</ele>
        <time>2022-04-12T10:56:47Z</time>
      </trkpt>
      <trkpt lat="49.96139" lon="2.10798">
        <ele>22.6</ele>
        <time>2022-04-12T10:56:49Z</time>
      </trkpt>
      <trkpt lat="49.9614" lon="2.10798">
        <ele>22.6</ele>
        <time>2022-04-12T10:56:50Z</time>
      </trkpt>
      <trkpt lat="49.96141" lon="2.10798">
        <ele>22.6</ele>
        <time>2022-04-12T10:56:51Z</time>
      </trkpt>
      <trkpt lat="49.96142" lon="2.10798">
        <ele>22.6</ele>
        <time>2022-04-12T10:56:52Z</time>
      </trkpt>
      <trkpt lat="49.96143" lon="2.10799">
        <ele>22.6</ele>
        <time>2022-04-12T10:56:53Z</time>
      </trkpt>
      <trkpt lat="49.96144" lon="2.10799">
        <ele>22.6</ele>
        <time>2022-04-12T10:56:54Z</time>
      </trkpt>
      <trkpt lat="49.96145" lon="2.10799">
        <ele>22.5</ele>
        <time>2022-04-12T10:56:55Z</time>
      </trkpt>
      <trkpt lat="49.96146" lon="2.10799">
        <ele>22.5</ele>
        <time>2022-04-12T10:56:57Z</time>
      </trkpt>
      <trkpt lat="49.96147" lon="2.10799">
        <ele>22.5</ele>
        <time>2022-04-12T10:56:58Z</time>
      </trkpt>
      <trkpt lat="49.96148" lon="2.108">
        <ele>22.5</ele>
        <time>2022-04-12T10:56:59Z</time>
      </trkpt>
      <trkpt lat="49.9615" lon="2.108">
        <ele>22.5</ele>
        <time>2022-04-12T10:57:00Z</time>
      </trkpt>
      <trkpt lat="49.96151" lon="2.10801">
        <ele>22.4</ele>
        <time>2022-04-12T10:57:01Z</time>
      </trkpt>
      <trkpt lat="49.96152" lon="2.10801">
        <ele>22.4</ele>
        <time>2022-04-12T10:57:02Z</time>
      </trkpt>
      <trkpt lat="49.96155" lon="2.10802">
        <ele>22.4</ele>
        <time>2022-04-12T10:57:03Z</time>
      </trkpt>
      <trkpt lat="49.96156" lon="2.10803">
        <ele>22.4</ele>
        <time>2022-04-12T10:57:05Z</time>
      </trkpt>
      <trkpt lat="49.96157" lon="2.10803">
        <ele>22.3</ele>
        <time>2022-04-12T10:57:06Z</time>
      </trkpt>
      <trkpt lat="49.96158" lon="2.10804">
        <ele>22.3</ele>
        <time>2022-04-12T10:57:07Z</time>
      </trkpt>
      <trkpt lat="49.96159" lon="2.10804">
        <ele>22.3</ele>
        <time>2022-04-12T10:57:08Z</time>
      </trkpt>
      <trkpt lat="49.9616" lon="2.10805">
        <ele>22.3</ele>
        <time>2022-04-12T10:57:09Z</time>
      </trkpt>
      <trkpt lat="49.96162" lon="2.10806">
        <ele>22.3</ele>
        <time>2022-04-12T10:57:11Z</time>
      </trkpt>
      <trkpt lat="49.96163" lon="2.10808">
        <ele>22.2</ele>
        <time>2022-04-12T10:57:12Z</time>
      </trkpt>
      <trkpt lat="49.96164" lon="2.10809">
        <ele>22.2</ele>
        <time>2022-04-12T10:57:13Z</time>
      </trkpt>
      <trkpt lat="49.96165" lon="2.10811">
        <ele>22.2</ele>
        <time>2022-04-12T10:57:14Z</time>
      </trkpt>
      <trkpt lat="49.96166" lon="2.10812">
        <ele>22.2</ele>
        <time>2022-04-12T10:57:15Z</time>
      </trkpt>
      <trkpt lat="49.96167" lon="2.10813">
        <ele>22.1</ele>
        <time>2022-04-12T10:57:16Z</time>
      </trkpt>
      <trkpt lat="49.96168" lon="2.10814">
        <ele>22.1</ele>
        <time>2022-04-12T10:57:17Z</time>
      </trkpt>
      <trkpt lat="49.96169" lon="2.10814">
        <ele>22.1</ele>
        <time>2022-04-12T10:57:18Z</time>
      </trkpt>
      <trkpt lat="49.9617" lon="2.10815">
        <ele>22.1</ele>
        <time>2022-04-12T10:57:19Z</time>
      </trkpt>
      <trkpt lat="49.96171" lon="2.10816">
        <ele>22</ele>
        <time>2022-04-12T10:57:20Z</time>
      </trkpt>
      <trkpt lat="49.96172" lon="2.10817">
        <ele>22</ele>
        <time>2022-04-12T10:57:21Z</time>
      </trkpt>
      <trkpt lat="49.96173" lon="2.10817">
        <ele>22</ele>
        <time>2022-04-12T10:57:23Z</time>
      </trkpt>
      <trkpt lat="49.96174" lon="2.10818">
        <ele>22</ele>
        <time>2022-04-12T10:57:24Z</time>
      </trkpt>
      <trkpt lat="49.96175" lon="2.10818">
        <ele>22</ele>
        <time>2022-04-12T10:57:25Z</time>
      </trkpt>
      <trkpt lat="49.96176" lon="2.10819">
        <ele>21.9</ele>
        <time>2022-04-12T10:57:26Z</time>
      </trkpt>
      <trkpt lat="49.96177" lon="2.10819">
        <ele>21.9</ele>
        <time>2022-04-12T10:57:27Z</time>
      </trkpt>
      <trkpt lat="49.96178" lon="2.10819">
        <ele>21.9</ele>
        <time>2022-04-12T10:57:28Z</time>
      </trkpt>
      <trkpt lat="49.96179" lon="2.1082">
        <ele>21.9</ele>
        <time>2022-04-12T10:57:29Z</time>
      </trkpt>
      <trkpt lat="49.96181" lon="2.1082">
        <ele>21.8</ele>
        <time>2022-04-12T10:57:30Z</time>
      </trkpt>
      <trkpt lat="49.96182" lon="2.10821">
        <ele>21.8</ele>
        <time>2022-04-12T10:57:31Z</time>
      </trkpt>
      <trkpt lat="49.96184" lon="2.10822">
        <ele>21.8</ele>
        <time>2022-04-12T10:57:32Z</time>
      </trkpt>
      <trkpt lat="49.96185" lon="2.10822">
        <ele>21.8</ele>
        <time>2022-04-12T10:57:34Z</time>
      </trkpt>
      <trkpt lat="49.96186" lon="2.10822">
        <ele>21.7</ele>
        <time>2022-04-12T10:57:35Z</time>
      </trkpt>
      <trkpt lat="49.96187" lon="2.10823">
        <ele>21.7</ele>
        <time>2022-04-12T10:57:36Z</time>
      </trkpt>
      <trkpt lat="49.96188" lon="2.10824">
        <ele>21.7</ele>
        <time>2022-04-12T10:57:37Z</time>
      </trkpt>
      <trkpt lat="49.96189" lon="2.10825">
        <ele>21.7</ele>
        <time>2022-04-12T10:57:38Z</time>
      </trkpt>
      <trkpt lat="49.96189" lon="2.10827">
        <ele>21.7</ele>
        <time>2022-04-12T10:57:39Z</time>
      </trkpt>
      <trkpt lat="49.9619" lon="2.10829">
        <ele>21.7</ele>
        <time>2022-04-12T10:57:41Z</time>
      </trkpt>
      <trkpt lat="49.9619" lon="2.1083">
        <ele>21.7</ele>
        <time>2022-04-12T10:57:42Z</time>
      </trkpt>
      <trkpt lat="49.9619" lon="2.10831">
        <ele>21.7</ele>
        <time>2022-04-12T10:57:43Z</time>
      </trkpt>
      <trkpt lat="49.9619" lon="2.10832">
        <ele>21.7</ele>
        <time>2022-04-12T10:57:44Z</time>
      </trkpt>
      <trkpt lat="49.9619" lon="2.10833">
        <ele>21.7</ele>
        <time>2022-04-12T10:57:45Z</time>
      </trkpt>
      <trkpt lat="49.9619" lon="2.10833">
        <ele>21.7</ele>
        <time>2022-04-12T10:57:46Z</time>
      </trkpt>
      <trkpt lat="49.96189" lon="2.10834">
        <ele>21.7</ele>
        <time>2022-04-12T10:57:47Z</time>
      </trkpt>
      <trkpt lat="49.96189" lon="2.10834">
        <ele>21.7</ele>
        <time>2022-04-12T10:57:48Z</time>
      </trkpt>
      <trkpt lat="49.96189" lon="2.10834">
        <ele>21.7</ele>
        <time>2022-04-12T10:57:49Z</time>
      </trkpt>
      <trkpt lat="49.96189" lon="2.10834">
        <ele>21.7</ele>
        <time>2022-04-12T10:57:50Z</time>
      </trkpt>
      <trkpt lat="49.96188" lon="2.10834">
        <ele>21.6</ele>
        <time>2022-04-12T10:57:52Z</time>
      </trkpt>
      <trkpt lat="49.96188" lon="2.10834">
        <ele>21.6</ele>
        <time>2022-04-12T10:57:53Z</time>
      </trkpt>
      <trkpt lat="49.96188" lon="2.10834">
        <ele>21.6</ele>
        <time>2022-04-12T10:57:54Z</time>
      </trkpt>
      <trkpt lat="49.96188" lon="2.10834">
        <ele>21.6</ele>
        <time>2022-04-12T10:57:55Z</time>
      </trkpt>
      <trkpt lat="49.96187" lon="2.10834">
        <ele>21.6</ele>
        <time>2022-04-12T10:57:56Z</time>
      </trkpt>
      <trkpt lat="49.96187" lon="2.10834">
        <ele>21.6</ele>
        <time>2022-04-12T10:57:57Z</time>
      </trkpt>
      <trkpt lat="49.96187" lon="2.10834">
        <ele>21.6</ele>
        <time>2022-04-12T10:57:58Z</time>
      </trkpt>
      <trkpt lat="49.96187" lon="2.10834">
        <ele>21.6</ele>
        <time>2022-04-12T10:57:59Z</time>
      </trkpt>
      <trkpt lat="49.96186" lon="2.10834">
        <ele>21.6</ele>
        <time>2022-04-12T10:58:00Z</time>
      </trkpt>
      <trkpt lat="49.96186" lon="2.10834">
        <ele>21.6</ele>
        <time>2022-04-12T10:58:01Z</time>
      </trkpt>
      <trkpt lat="49.96186" lon="2.10834">
        <ele>21.6</ele>
        <time>2022-04-12T10:58:02Z</time>
      </trkpt>
      <trkpt lat="49.96186" lon="2.10833">
        <ele>21.6</ele>
        <time>2022-04-12T10:58:04Z</time>
      </trkpt>
      <trkpt lat="49.96186" lon="2.10833">
        <ele>21.6</ele>
        <time>2022-04-12T10:58:05Z</time>
      </trkpt>
      <trkpt lat="49.96186" lon="2.10831">
        <ele>21.6</ele>
        <time>2022-04-12T10:58:07Z</time>
      </trkpt>
      <trkpt lat="49.96186" lon="2.1083">
        <ele>21.6</ele>
        <time>2022-04-12T10:58:08Z</time>
      </trkpt>
      <trkpt lat="49.96186" lon="2.1083">
        <ele>21.6</ele>
        <time>2022-04-12T10:58:09Z</time>
      </trkpt>
      <trkpt lat="49.96186" lon="2.10829">
        <ele>21.6</ele>
        <time>2022-04-12T10:58:10Z</time>
      </trkpt>
      <trkpt lat="49.96186" lon="2.10828">
        <ele>21.6</ele>
        <time>2022-04-12T10:58:11Z</time>
      </trkpt>
      <trkpt lat="49.96185" lon="2.10828">
        <ele>21.6</ele>
        <time>2022-04-12T10:58:12Z</time>
      </trkpt>
      <trkpt lat="49.96185" lon="2.10827">
        <ele>21.6</ele>
        <time>2022-04-12T10:58:13Z</time>
      </trkpt>
      <trkpt lat="49.96185" lon="2.10827">
        <ele>21.6</ele>
        <time>2022-04-12T10:58:14Z</time>
      </trkpt>
      <trkpt lat="49.96185" lon="2.10827">
        <ele>21.5</ele>
        <time>2022-04-12T10:58:16Z</time>
      </trkpt>
      <trkpt lat="49.96185" lon="2.10827">
        <ele>21.5</ele>
        <time>2022-04-12T10:58:17Z</time>
      </trkpt>
      <trkpt lat="49.96185" lon="2.10827">
        <ele>21.5</ele>
        <time>2022-04-12T10:58:18Z</time>
      </trkpt>
      <trkpt lat="49.96185" lon="2.10827">
        <ele>21.5</ele>
        <time>2022-04-12T10:58:19Z</time>
      </trkpt>
      <trkpt lat="49.96185" lon="2.10827">
        <ele>21.5</ele>
        <time>2022-04-12T10:58:20Z</time>
      </trkpt>
      <trkpt lat="49.96185" lon="2.10827">
        <ele>21.5</ele>
        <time>2022-04-12T10:58:21Z</time>
      </trkpt>
      <trkpt lat="49.96185" lon="2.10827">
        <ele>21.5</ele>
        <time>2022-04-12T10:58:22Z</time>
      </trkpt>
      <trkpt lat="49.96185" lon="2.10826">
        <ele>21.5</ele>
        <time>2022-04-12T10:58:23Z</time>
      </trkpt>
      <trkpt lat="49.96185" lon="2.10826">
        <ele>21.5</ele>
        <time>2022-04-12T10:58:24Z</time>
      </trkpt>
      <trkpt lat="49.96185" lon="2.10826">
        <ele>21.5</ele>
        <time>2022-04-12T10:58:25Z</time>
      </trkpt>
      <trkpt lat="49.96185" lon="2.10826">
        <ele>21.5</ele>
        <time>2022-04-12T10:58:26Z</time>
      </trkpt>
      <trkpt lat="49.96185" lon="2.10826">
        <ele>21.5</ele>
        <time>2022-04-12T10:58:27Z</time>
      </trkpt>
      <trkpt lat="49.96185" lon="2.10826">
        <ele>21.5</ele>
        <time>2022-04-12T10:58:28Z</time>
      </trkpt>
      <trkpt lat="49.96185" lon="2.10826">
        <ele>21.5</ele>
        <time>2022-04-12T10:58:29Z</time>
      </trkpt>
      <trkpt lat="49.96185" lon="2.10826">
        <ele>21.5</ele>
        <time>2022-04-12T10:58:30Z</time>
      </trkpt>
      <trkpt lat="49.96185" lon="2.10826">
        <ele>21.5</ele>
        <time>2022-04-12T10:58:31Z</time>
      </trkpt>
      <trkpt lat="49.96185" lon="2.10826">
        <ele>21.5</ele>
        <time>2022-04-12T10:58:32Z</time>
      </trkpt>
      <trkpt lat="49.96185" lon="2.10826">
        <ele>21.5</ele>
        <time>2022-04-12T10:58:33Z</time>
      </trkpt>
      <trkpt lat="49.96185" lon="2.10826">
        <ele>21.5</ele>
        <time>2022-04-12T10:58:34Z</time>
      </trkpt>
      <trkpt lat="49.96185" lon="2.10826">
        <ele>21.5</ele>
        <time>2022-04-12T10:58:35Z</time>
      </trkpt>
      <trkpt lat="49.96184" lon="2.10826">
        <ele>21.5</ele>
        <time>2022-04-12T10:58:36Z</time>
      </trkpt>
      <trkpt lat="49.96184" lon="2.10824">
        <ele>21.5</ele>
        <time>2022-04-12T10:58:37Z</time>
      </trkpt>
      <trkpt lat="49.96184" lon="2.10824">
        <ele>21.5</ele>
        <time>2022-04-12T10:58:38Z</time>
      </trkpt>
      <trkpt lat="49.96185" lon="2.10824">
        <ele>21.5</ele>
        <time>2022-04-12T10:58:39Z</time>
      </trkpt>
      <trkpt lat="49.96185" lon="2.10823">
        <ele>21.5</ele>
        <time>2022-04-12T10:58:40Z</time>
      </trkpt>
      <trkpt lat="49.96185" lon="2.10823">
        <ele>21.5</ele>
        <time>2022-04-12T10:58:41Z</time>
      </trkpt>
      <trkpt lat="49.96186" lon="2.10822">
        <ele>21.5</ele>
        <time>2022-04-12T10:58:42Z</time>
      </trkpt>
      <trkpt lat="49.96186" lon="2.10822">
        <ele>21.5</ele>
        <time>2022-04-12T10:58:43Z</time>
      </trkpt>
      <trkpt lat="49.96187" lon="2.10822">
        <ele>21.5</ele>
        <time>2022-04-12T10:58:44Z</time>
      </trkpt>
      <trkpt lat="49.96187" lon="2.10821">
        <ele>21.5</ele>
        <time>2022-04-12T10:58:45Z</time>
      </trkpt>
      <trkpt lat="49.96188" lon="2.10821">
        <ele>21.4</ele>
        <time>2022-04-12T10:58:46Z</time>
      </trkpt>
      <trkpt lat="49.96189" lon="2.1082">
        <ele>21.4</ele>
        <time>2022-04-12T10:58:48Z</time>
      </trkpt>
      <trkpt lat="49.9619" lon="2.1082">
        <ele>21.4</ele>
        <time>2022-04-12T10:58:49Z</time>
      </trkpt>
      <trkpt lat="49.96191" lon="2.1082">
        <ele>21.4</ele>
        <time>2022-04-12T10:58:50Z</time>
      </trkpt>
      <trkpt lat="49.96191" lon="2.10821">
        <ele>21.4</ele>
        <time>2022-04-12T10:58:51Z</time>
      </trkpt>
      <trkpt lat="49.96192" lon="2.10821">
        <ele>21.4</ele>
        <time>2022-04-12T10:58:52Z</time>
      </trkpt>
      <trkpt lat="49.96193" lon="2.10822">
        <ele>21.4</ele>
        <time>2022-04-12T10:58:53Z</time>
      </trkpt>
      <trkpt lat="49.96193" lon="2.10822">
        <ele>21.4</ele>
        <time>2022-04-12T10:58:54Z</time>
      </trkpt>
      <trkpt lat="49.96193" lon="2.10822">
        <ele>21.3</ele>
        <time>2022-04-12T10:58:55Z</time>
      </trkpt>
      <trkpt lat="49.96193" lon="2.10823">
        <ele>21.3</ele>
        <time>2022-04-12T10:58:56Z</time>
      </trkpt>
      <trkpt lat="49.96193" lon="2.10823">
        <ele>21.3</ele>
        <time>2022-04-12T10:58:57Z</time>
      </trkpt>
      <trkpt lat="49.96193" lon="2.10823">
        <ele>21.3</ele>
        <time>2022-04-12T10:58:58Z</time>
      </trkpt>
      <trkpt lat="49.96193" lon="2.10823">
        <ele>21.3</ele>
        <time>2022-04-12T10:58:59Z</time>
      </trkpt>
      <trkpt lat="49.96194" lon="2.10823">
        <ele>21.3</ele>
        <time>2022-04-12T10:59:00Z</time>
      </trkpt>
      <trkpt lat="49.96194" lon="2.10824">
        <ele>21.3</ele>
        <time>2022-04-12T10:59:01Z</time>
      </trkpt>
      <trkpt lat="49.96194" lon="2.10824">
        <ele>21.3</ele>
        <time>2022-04-12T10:59:02Z</time>
      </trkpt>
      <trkpt lat="49.96194" lon="2.10824">
        <ele>21.3</ele>
        <time>2022-04-12T10:59:03Z</time>
      </trkpt>
      <trkpt lat="49.96194" lon="2.10824">
        <ele>21.3</ele>
        <time>2022-04-12T10:59:04Z</time>
      </trkpt>
      <trkpt lat="49.96194" lon="2.10824">
        <ele>21.3</ele>
        <time>2022-04-12T10:59:05Z</time>
      </trkpt>
      <trkpt lat="49.96194" lon="2.10825">
        <ele>21.3</ele>
        <time>2022-04-12T10:59:06Z</time>
      </trkpt>
      <trkpt lat="49.96194" lon="2.10825">
        <ele>21.3</ele>
        <time>2022-04-12T10:59:07Z</time>
      </trkpt>
      <trkpt lat="49.96195" lon="2.10825">
        <ele>21.3</ele>
        <time>2022-04-12T10:59:08Z</time>
      </trkpt>
      <trkpt lat="49.96195" lon="2.10825">
        <ele>21.3</ele>
        <time>2022-04-12T10:59:09Z</time>
      </trkpt>
      <trkpt lat="49.96195" lon="2.10825">
        <ele>21.3</ele>
        <time>2022-04-12T10:59:10Z</time>
      </trkpt>
      <trkpt lat="49.96195" lon="2.10826">
        <ele>21.3</ele>
        <time>2022-04-12T10:59:11Z</time>
      </trkpt>
      <trkpt lat="49.96195" lon="2.10825">
        <ele>21.3</ele>
        <time>2022-04-12T10:59:12Z</time>
      </trkpt>
      <trkpt lat="49.96195" lon="2.10826">
        <ele>21.3</ele>
        <time>2022-04-12T10:59:13Z</time>
      </trkpt>
      <trkpt lat="49.96196" lon="2.10826">
        <ele>21.3</ele>
        <time>2022-04-12T10:59:14Z</time>
      </trkpt>
      <trkpt lat="49.96196" lon="2.10826">
        <ele>21.3</ele>
        <time>2022-04-12T10:59:15Z</time>
      </trkpt>
      <trkpt lat="49.96196" lon="2.10826">
        <ele>21.3</ele>
        <time>2022-04-12T10:59:16Z</time>
      </trkpt>
      <trkpt lat="49.96196" lon="2.10826">
        <ele>21.3</ele>
        <time>2022-04-12T10:59:17Z</time>
      </trkpt>
      <trkpt lat="49.96196" lon="2.10827">
        <ele>21.3</ele>
        <time>2022-04-12T10:59:18Z</time>
      </trkpt>
      <trkpt lat="49.96196" lon="2.10827">
        <ele>21.3</ele>
        <time>2022-04-12T10:59:19Z</time>
      </trkpt>
      <trkpt lat="49.96196" lon="2.10827">
        <ele>21.3</ele>
        <time>2022-04-12T10:59:20Z</time>
      </trkpt>
      <trkpt lat="49.96196" lon="2.10827">
        <ele>21.3</ele>
        <time>2022-04-12T10:59:21Z</time>
      </trkpt>
      <trkpt lat="49.96196" lon="2.10827">
        <ele>21.3</ele>
        <time>2022-04-12T10:59:22Z</time>
      </trkpt>
      <trkpt lat="49.96197" lon="2.10827">
        <ele>21.3</ele>
        <time>2022-04-12T10:59:23Z</time>
      </trkpt>
      <trkpt lat="49.96197" lon="2.10828">
        <ele>21.3</ele>
        <time>2022-04-12T10:59:24Z</time>
      </trkpt>
      <trkpt lat="49.96197" lon="2.10828">
        <ele>21.2</ele>
        <time>2022-04-12T10:59:25Z</time>
      </trkpt>
      <trkpt lat="49.96197" lon="2.10828">
        <ele>21.2</ele>
        <time>2022-04-12T10:59:26Z</time>
      </trkpt>
      <trkpt lat="49.96197" lon="2.10828">
        <ele>21.2</ele>
        <time>2022-04-12T10:59:27Z</time>
      </trkpt>
      <trkpt lat="49.96197" lon="2.10828">
        <ele>21.2</ele>
        <time>2022-04-12T10:59:28Z</time>
      </trkpt>
      <trkpt lat="49.96197" lon="2.10829">
        <ele>21.2</ele>
        <time>2022-04-12T10:59:29Z</time>
      </trkpt>
      <trkpt lat="49.96197" lon="2.10829">
        <ele>21.2</ele>
        <time>2022-04-12T10:59:30Z</time>
      </trkpt>
      <trkpt lat="49.96198" lon="2.10829">
        <ele>21.2</ele>
        <time>2022-04-12T10:59:31Z</time>
      </trkpt>
      <trkpt lat="49.96198" lon="2.10829">
        <ele>21.2</ele>
        <time>2022-04-12T10:59:32Z</time>
      </trkpt>
      <trkpt lat="49.96198" lon="2.10829">
        <ele>21.2</ele>
        <time>2022-04-12T10:59:33Z</time>
      </trkpt>
      <trkpt lat="49.96199" lon="2.1083">
        <ele>21.2</ele>
        <time>2022-04-12T10:59:34Z</time>
      </trkpt>
      <trkpt lat="49.96199" lon="2.1083">
        <ele>21.2</ele>
        <time>2022-04-12T10:59:35Z</time>
      </trkpt>
      <trkpt lat="49.96199" lon="2.1083">
        <ele>21.2</ele>
        <time>2022-04-12T10:59:36Z</time>
      </trkpt>
      <trkpt lat="49.96199" lon="2.10828">
        <ele>21.2</ele>
        <time>2022-04-12T10:59:37Z</time>
      </trkpt>
      <trkpt lat="49.962" lon="2.10829">
        <ele>21.2</ele>
        <time>2022-04-12T10:59:38Z</time>
      </trkpt>
      <trkpt lat="49.96201" lon="2.10829">
        <ele>21.1</ele>
        <time>2022-04-12T10:59:39Z</time>
      </trkpt>
      <trkpt lat="49.96202" lon="2.10829">
        <ele>21.1</ele>
        <time>2022-04-12T10:59:41Z</time>
      </trkpt>
      <trkpt lat="49.96202" lon="2.10828">
        <ele>21.1</ele>
        <time>2022-04-12T10:59:42Z</time>
      </trkpt>
      <trkpt lat="49.96203" lon="2.10828">
        <ele>21.1</ele>
        <time>2022-04-12T10:59:43Z</time>
      </trkpt>
      <trkpt lat="49.96204" lon="2.10828">
        <ele>21.1</ele>
        <time>2022-04-12T10:59:44Z</time>
      </trkpt>
      <trkpt lat="49.96205" lon="2.10827">
        <ele>21.1</ele>
        <time>2022-04-12T10:59:45Z</time>
      </trkpt>
      <trkpt lat="49.96206" lon="2.10828">
        <ele>21.1</ele>
        <time>2022-04-12T10:59:46Z</time>
      </trkpt>
      <trkpt lat="49.96207" lon="2.10828">
        <ele>21</ele>
        <time>2022-04-12T10:59:47Z</time>
      </trkpt>
      <trkpt lat="49.96209" lon="2.10828">
        <ele>21</ele>
        <time>2022-04-12T10:59:49Z</time>
      </trkpt>
      <trkpt lat="49.96211" lon="2.10828">
        <ele>21</ele>
        <time>2022-04-12T10:59:50Z</time>
      </trkpt>
      <trkpt lat="49.96212" lon="2.10828">
        <ele>20.9</ele>
        <time>2022-04-12T10:59:51Z</time>
      </trkpt>
      <trkpt lat="49.96213" lon="2.10829">
        <ele>20.9</ele>
        <time>2022-04-12T10:59:52Z</time>
      </trkpt>
      <trkpt lat="49.96214" lon="2.10829">
        <ele>20.9</ele>
        <time>2022-04-12T10:59:53Z</time>
      </trkpt>
      <trkpt lat="49.96215" lon="2.1083">
        <ele>20.9</ele>
        <time>2022-04-12T10:59:54Z</time>
      </trkpt>
      <trkpt lat="49.96216" lon="2.1083">
        <ele>20.9</ele>
        <time>2022-04-12T10:59:56Z</time>
      </trkpt>
      <trkpt lat="49.96217" lon="2.1083">
        <ele>20.9</ele>
        <time>2022-04-12T10:59:57Z</time>
      </trkpt>
      <trkpt lat="49.96218" lon="2.10831">
        <ele>20.8</ele>
        <time>2022-04-12T10:59:58Z</time>
      </trkpt>
      <trkpt lat="49.9622" lon="2.10831">
        <ele>20.8</ele>
        <time>2022-04-12T10:59:59Z</time>
      </trkpt>
      <trkpt lat="49.96221" lon="2.10832">
        <ele>20.8</ele>
        <time>2022-04-12T11:00:00Z</time>
      </trkpt>
      <trkpt lat="49.96222" lon="2.10833">
        <ele>20.7</ele>
        <time>2022-04-12T11:00:01Z</time>
      </trkpt>
      <trkpt lat="49.96224" lon="2.10834">
        <ele>20.7</ele>
        <time>2022-04-12T11:00:02Z</time>
      </trkpt>
      <trkpt lat="49.96226" lon="2.10835">
        <ele>20.7</ele>
        <time>2022-04-12T11:00:04Z</time>
      </trkpt>
      <trkpt lat="49.96228" lon="2.10836">
        <ele>20.7</ele>
        <time>2022-04-12T11:00:05Z</time>
      </trkpt>
      <trkpt lat="49.96229" lon="2.10837">
        <ele>20.6</ele>
        <time>2022-04-12T11:00:06Z</time>
      </trkpt>
      <trkpt lat="49.96229" lon="2.10837">
        <ele>20.6</ele>
        <time>2022-04-12T11:00:07Z</time>
      </trkpt>
      <trkpt lat="49.96231" lon="2.10839">
        <ele>20.6</ele>
        <time>2022-04-12T11:00:08Z</time>
      </trkpt>
      <trkpt lat="49.96232" lon="2.10839">
        <ele>20.6</ele>
        <time>2022-04-12T11:00:09Z</time>
      </trkpt>
      <trkpt lat="49.96233" lon="2.1084">
        <ele>20.6</ele>
        <time>2022-04-12T11:00:10Z</time>
      </trkpt>
      <trkpt lat="49.96234" lon="2.10841">
        <ele>20.6</ele>
        <time>2022-04-12T11:00:11Z</time>
      </trkpt>
      <trkpt lat="49.96235" lon="2.10842">
        <ele>20.5</ele>
        <time>2022-04-12T11:00:13Z</time>
      </trkpt>
      <trkpt lat="49.96236" lon="2.10843">
        <ele>20.5</ele>
        <time>2022-04-12T11:00:14Z</time>
      </trkpt>
      <trkpt lat="49.96237" lon="2.10844">
        <ele>20.5</ele>
        <time>2022-04-12T11:00:15Z</time>
      </trkpt>
      <trkpt lat="49.96239" lon="2.10845">
        <ele>20.5</ele>
        <time>2022-04-12T11:00:16Z</time>
      </trkpt>
      <trkpt lat="49.9624" lon="2.10847">
        <ele>20.5</ele>
        <time>2022-04-12T11:00:17Z</time>
      </trkpt>
      <trkpt lat="49.96241" lon="2.10848">
        <ele>20.5</ele>
        <time>2022-04-12T11:00:18Z</time>
      </trkpt>
      <trkpt lat="49.96243" lon="2.10849">
        <ele>20.5</ele>
        <time>2022-04-12T11:00:19Z</time>
      </trkpt>
      <trkpt lat="49.96244" lon="2.1085">
        <ele>20.4</ele>
        <time>2022-04-12T11:00:20Z</time>
      </trkpt>
      <trkpt lat="49.96245" lon="2.10851">
        <ele>20.4</ele>
        <time>2022-04-12T11:00:21Z</time>
      </trkpt>
      <trkpt lat="49.96247" lon="2.10852">
        <ele>20.4</ele>
        <time>2022-04-12T11:00:23Z</time>
      </trkpt>
      <trkpt lat="49.96248" lon="2.10853">
        <ele>20.4</ele>
        <time>2022-04-12T11:00:24Z</time>
      </trkpt>
      <trkpt lat="49.96249" lon="2.10854">
        <ele>20.4</ele>
        <time>2022-04-12T11:00:25Z</time>
      </trkpt>
      <trkpt lat="49.96251" lon="2.10855">
        <ele>20.4</ele>
        <time>2022-04-12T11:00:26Z</time>
      </trkpt>
      <trkpt lat="49.96252" lon="2.10856">
        <ele>20.4</ele>
        <time>2022-04-12T11:00:27Z</time>
      </trkpt>
      <trkpt lat="49.96253" lon="2.10857">
        <ele>20.4</ele>
        <time>2022-04-12T11:00:28Z</time>
      </trkpt>
      <trkpt lat="49.96254" lon="2.10859">
        <ele>20.4</ele>
        <time>2022-04-12T11:00:29Z</time>
      </trkpt>
      <trkpt lat="49.96256" lon="2.1086">
        <ele>20.4</ele>
        <time>2022-04-12T11:00:31Z</time>
      </trkpt>
      <trkpt lat="49.96257" lon="2.10861">
        <ele>20.4</ele>
        <time>2022-04-12T11:00:32Z</time>
      </trkpt>
      <trkpt lat="49.96259" lon="2.10862">
        <ele>20.4</ele>
        <time>2022-04-12T11:00:33Z</time>
      </trkpt>
      <trkpt lat="49.9626" lon="2.10862">
        <ele>20.4</ele>
        <time>2022-04-12T11:00:34Z</time>
      </trkpt>
      <trkpt lat="49.96261" lon="2.10862">
        <ele>20.4</ele>
        <time>2022-04-12T11:00:35Z</time>
      </trkpt>
      <trkpt lat="49.96262" lon="2.10862">
        <ele>20.4</ele>
        <time>2022-04-12T11:00:36Z</time>
      </trkpt>
      <trkpt lat="49.96264" lon="2.10862">
        <ele>20.4</ele>
        <time>2022-04-12T11:00:38Z</time>
      </trkpt>
      <trkpt lat="49.96265" lon="2.10863">
        <ele>20.4</ele>
        <time>2022-04-12T11:00:39Z</time>
      </trkpt>
      <trkpt lat="49.96266" lon="2.10863">
        <ele>20.4</ele>
        <time>2022-04-12T11:00:40Z</time>
      </trkpt>
      <trkpt lat="49.96267" lon="2.10863">
        <ele>20.4</ele>
        <time>2022-04-12T11:00:41Z</time>
      </trkpt>
      <trkpt lat="49.96268" lon="2.10864">
        <ele>20.4</ele>
        <time>2022-04-12T11:00:42Z</time>
      </trkpt>
      <trkpt lat="49.96269" lon="2.10865">
        <ele>20.4</ele>
        <time>2022-04-12T11:00:43Z</time>
      </trkpt>
      <trkpt lat="49.9627" lon="2.10866">
        <ele>20.4</ele>
        <time>2022-04-12T11:00:45Z</time>
      </trkpt>
      <trkpt lat="49.96271" lon="2.10867">
        <ele>20.4</ele>
        <time>2022-04-12T11:00:46Z</time>
      </trkpt>
      <trkpt lat="49.96272" lon="2.10869">
        <ele>20.4</ele>
        <time>2022-04-12T11:00:47Z</time>
      </trkpt>
      <trkpt lat="49.96272" lon="2.10869">
        <ele>20.4</ele>
        <time>2022-04-12T11:00:48Z</time>
      </trkpt>
      <trkpt lat="49.96273" lon="2.10869">
        <ele>20.4</ele>
        <time>2022-04-12T11:00:49Z</time>
      </trkpt>
      <trkpt lat="49.96273" lon="2.10869">
        <ele>20.4</ele>
        <time>2022-04-12T11:00:51Z</time>
      </trkpt>
      <trkpt lat="49.96274" lon="2.10869">
        <ele>20.4</ele>
        <time>2022-04-12T11:00:52Z</time>
      </trkpt>
      <trkpt lat="49.96275" lon="2.10868">
        <ele>20.4</ele>
        <time>2022-04-12T11:00:53Z</time>
      </trkpt>
      <trkpt lat="49.96276" lon="2.10868">
        <ele>20.5</ele>
        <time>2022-04-12T11:00:54Z</time>
      </trkpt>
      <trkpt lat="49.96277" lon="2.10867">
        <ele>20.5</ele>
        <time>2022-04-12T11:00:55Z</time>
      </trkpt>
      <trkpt lat="49.96278" lon="2.10865">
        <ele>20.5</ele>
        <time>2022-04-12T11:00:56Z</time>
      </trkpt>
      <trkpt lat="49.96279" lon="2.10863">
        <ele>20.6</ele>
        <time>2022-04-12T11:00:57Z</time>
      </trkpt>
      <trkpt lat="49.9628" lon="2.10862">
        <ele>20.6</ele>
        <time>2022-04-12T11:00:58Z</time>
      </trkpt>
      <trkpt lat="49.96281" lon="2.10861">
        <ele>20.6</ele>
        <time>2022-04-12T11:00:59Z</time>
      </trkpt>
      <trkpt lat="49.96282" lon="2.10859">
        <ele>20.6</ele>
        <time>2022-04-12T11:01:01Z</time>
      </trkpt>
      <trkpt lat="49.96283" lon="2.10858">
        <ele>20.7</ele>
        <time>2022-04-12T11:01:02Z</time>
      </trkpt>
      <trkpt lat="49.96283" lon="2.10857">
        <ele>20.7</ele>
        <time>2022-04-12T11:01:03Z</time>
      </trkpt>
      <trkpt lat="49.96285" lon="2.10855">
        <ele>20.7</ele>
        <time>2022-04-12T11:01:04Z</time>
      </trkpt>
      <trkpt lat="49.96285" lon="2.10854">
        <ele>20.7</ele>
        <time>2022-04-12T11:01:05Z</time>
      </trkpt>
      <trkpt lat="49.96286" lon="2.10853">
        <ele>20.7</ele>
        <time>2022-04-12T11:01:06Z</time>
      </trkpt>
      <trkpt lat="49.96287" lon="2.1085">
        <ele>20.8</ele>
        <time>2022-04-12T11:01:07Z</time>
      </trkpt>
      <trkpt lat="49.96287" lon="2.10849">
        <ele>20.8</ele>
        <time>2022-04-12T11:01:08Z</time>
      </trkpt>
      <trkpt lat="49.96288" lon="2.10848">
        <ele>20.8</ele>
        <time>2022-04-12T11:01:09Z</time>
      </trkpt>
      <trkpt lat="49.96289" lon="2.10846">
        <ele>20.9</ele>
        <time>2022-04-12T11:01:11Z</time>
      </trkpt>
      <trkpt lat="49.9629" lon="2.10844">
        <ele>20.9</ele>
        <time>2022-04-12T11:01:12Z</time>
      </trkpt>
      <trkpt lat="49.96291" lon="2.10843">
        <ele>20.9</ele>
        <time>2022-04-12T11:01:13Z</time>
      </trkpt>
      <trkpt lat="49.96291" lon="2.10842">
        <ele>21</ele>
        <time>2022-04-12T11:01:14Z</time>
      </trkpt>
      <trkpt lat="49.96292" lon="2.1084">
        <ele>21</ele>
        <time>2022-04-12T11:01:15Z</time>
      </trkpt>
      <trkpt lat="49.96292" lon="2.10839">
        <ele>21</ele>
        <time>2022-04-12T11:01:16Z</time>
      </trkpt>
      <trkpt lat="49.96293" lon="2.10838">
        <ele>21</ele>
        <time>2022-04-12T11:01:17Z</time>
      </trkpt>
      <trkpt lat="49.96293" lon="2.10837">
        <ele>21</ele>
        <time>2022-04-12T11:01:18Z</time>
      </trkpt>
      <trkpt lat="49.96294" lon="2.10836">
        <ele>21.1</ele>
        <time>2022-04-12T11:01:19Z</time>
      </trkpt>
      <trkpt lat="49.96295" lon="2.10834">
        <ele>21.1</ele>
        <time>2022-04-12T11:01:21Z</time>
      </trkpt>
      <trkpt lat="49.96296" lon="2.10833">
        <ele>21.2</ele>
        <time>2022-04-12T11:01:22Z</time>
      </trkpt>
      <trkpt lat="49.96297" lon="2.10832">
        <ele>21.2</ele>
        <time>2022-04-12T11:01:23Z</time>
      </trkpt>
      <trkpt lat="49.96297" lon="2.10831">
        <ele>21.2</ele>
        <time>2022-04-12T11:01:24Z</time>
      </trkpt>
      <trkpt lat="49.96298" lon="2.1083">
        <ele>21.2</ele>
        <time>2022-04-12T11:01:25Z</time>
      </trkpt>
      <trkpt lat="49.96298" lon="2.10829">
        <ele>21.3</ele>
        <time>2022-04-12T11:01:26Z</time>
      </trkpt>
      <trkpt lat="49.96299" lon="2.10827">
        <ele>21.3</ele>
        <time>2022-04-12T11:01:27Z</time>
      </trkpt>
      <trkpt lat="49.963" lon="2.10826">
        <ele>21.3</ele>
        <time>2022-04-12T11:01:29Z</time>
      </trkpt>
      <trkpt lat="49.96301" lon="2.10825">
        <ele>21.4</ele>
        <time>2022-04-12T11:01:30Z</time>
      </trkpt>
      <trkpt lat="49.96302" lon="2.10824">
        <ele>21.4</ele>
        <time>2022-04-12T11:01:31Z</time>
      </trkpt>
      <trkpt lat="49.96303" lon="2.10823">
        <ele>21.5</ele>
        <time>2022-04-12T11:01:32Z</time>
      </trkpt>
      <trkpt lat="49.96305" lon="2.10821">
        <ele>21.6</ele>
        <time>2022-04-12T11:01:33Z</time>
      </trkpt>
      <trkpt lat="49.96305" lon="2.1082">
        <ele>21.6</ele>
        <time>2022-04-12T11:01:35Z</time>
      </trkpt>
      <trkpt lat="49.96306" lon="2.10819">
        <ele>21.6</ele>
        <time>2022-04-12T11:01:36Z</time>
      </trkpt>
      <trkpt lat="49.96308" lon="2.10817">
        <ele>21.7</ele>
        <time>2022-04-12T11:01:37Z</time>
      </trkpt>
      <trkpt lat="49.96308" lon="2.10816">
        <ele>21.7</ele>
        <time>2022-04-12T11:01:38Z</time>
      </trkpt>
      <trkpt lat="49.96309" lon="2.10815">
        <ele>21.8</ele>
        <time>2022-04-12T11:01:39Z</time>
      </trkpt>
      <trkpt lat="49.96311" lon="2.10813">
        <ele>21.9</ele>
        <time>2022-04-12T11:01:40Z</time>
      </trkpt>
      <trkpt lat="49.96311" lon="2.10812">
        <ele>21.9</ele>
        <time>2022-04-12T11:01:41Z</time>
      </trkpt>
      <trkpt lat="49.96312" lon="2.10811">
        <ele>21.9</ele>
        <time>2022-04-12T11:01:42Z</time>
      </trkpt>
      <trkpt lat="49.96314" lon="2.10809">
        <ele>22</ele>
        <time>2022-04-12T11:01:44Z</time>
      </trkpt>
      <trkpt lat="49.96315" lon="2.10808">
        <ele>22.1</ele>
        <time>2022-04-12T11:01:45Z</time>
      </trkpt>
      <trkpt lat="49.96317" lon="2.10806">
        <ele>22.2</ele>
        <time>2022-04-12T11:01:46Z</time>
      </trkpt>
      <trkpt lat="49.96318" lon="2.10805">
        <ele>22.3</ele>
        <time>2022-04-12T11:01:47Z</time>
      </trkpt>
      <trkpt lat="49.96318" lon="2.10805">
        <ele>22.3</ele>
        <time>2022-04-12T11:01:48Z</time>
      </trkpt>
      <trkpt lat="49.96319" lon="2.10804">
        <ele>22.4</ele>
        <time>2022-04-12T11:01:49Z</time>
      </trkpt>
      <trkpt lat="49.96321" lon="2.10802">
        <ele>22.5</ele>
        <time>2022-04-12T11:01:50Z</time>
      </trkpt>
      <trkpt lat="49.96323" lon="2.108">
        <ele>22.6</ele>
        <time>2022-04-12T11:01:51Z</time>
      </trkpt>
      <trkpt lat="49.96323" lon="2.10799">
        <ele>22.7</ele>
        <time>2022-04-12T11:01:53Z</time>
      </trkpt>
      <trkpt lat="49.96324" lon="2.10798">
        <ele>22.7</ele>
        <time>2022-04-12T11:01:54Z</time>
      </trkpt>
      <trkpt lat="49.96325" lon="2.10797">
        <ele>22.8</ele>
        <time>2022-04-12T11:01:55Z</time>
      </trkpt>
      <trkpt lat="49.96326" lon="2.10796">
        <ele>22.9</ele>
        <time>2022-04-12T11:01:56Z</time>
      </trkpt>
      <trkpt lat="49.96327" lon="2.10794">
        <ele>22.9</ele>
        <time>2022-04-12T11:01:57Z</time>
      </trkpt>
      <trkpt lat="49.96328" lon="2.10792">
        <ele>23</ele>
        <time>2022-04-12T11:01:58Z</time>
      </trkpt>
      <trkpt lat="49.96329" lon="2.10791">
        <ele>23.1</ele>
        <time>2022-04-12T11:01:59Z</time>
      </trkpt>
      <trkpt lat="49.9633" lon="2.10789">
        <ele>23.2</ele>
        <time>2022-04-12T11:02:00Z</time>
      </trkpt>
      <trkpt lat="49.96331" lon="2.10788">
        <ele>23.3</ele>
        <time>2022-04-12T11:02:01Z</time>
      </trkpt>
      <trkpt lat="49.96332" lon="2.10786">
        <ele>23.3</ele>
        <time>2022-04-12T11:02:03Z</time>
      </trkpt>
      <trkpt lat="49.96333" lon="2.10785">
        <ele>23.4</ele>
        <time>2022-04-12T11:02:04Z</time>
      </trkpt>
      <trkpt lat="49.96334" lon="2.10783">
        <ele>23.5</ele>
        <time>2022-04-12T11:02:05Z</time>
      </trkpt>
      <trkpt lat="49.96335" lon="2.10781">
        <ele>23.6</ele>
        <time>2022-04-12T11:02:06Z</time>
      </trkpt>
      <trkpt lat="49.96336" lon="2.1078">
        <ele>23.6</ele>
        <time>2022-04-12T11:02:07Z</time>
      </trkpt>
      <trkpt lat="49.96337" lon="2.10778">
        <ele>23.7</ele>
        <time>2022-04-12T11:02:08Z</time>
      </trkpt>
      <trkpt lat="49.96338" lon="2.10777">
        <ele>23.8</ele>
        <time>2022-04-12T11:02:09Z</time>
      </trkpt>
      <trkpt lat="49.96339" lon="2.10774">
        <ele>23.9</ele>
        <time>2022-04-12T11:02:10Z</time>
      </trkpt>
      <trkpt lat="49.9634" lon="2.10773">
        <ele>23.9</ele>
        <time>2022-04-12T11:02:11Z</time>
      </trkpt>
      <trkpt lat="49.9634" lon="2.10772">
        <ele>24</ele>
        <time>2022-04-12T11:02:12Z</time>
      </trkpt>
      <trkpt lat="49.96341" lon="2.1077">
        <ele>24</ele>
        <time>2022-04-12T11:02:13Z</time>
      </trkpt>
      <trkpt lat="49.96342" lon="2.10768">
        <ele>24.1</ele>
        <time>2022-04-12T11:02:15Z</time>
      </trkpt>
      <trkpt lat="49.96343" lon="2.10767">
        <ele>24.2</ele>
        <time>2022-04-12T11:02:16Z</time>
      </trkpt>
      <trkpt lat="49.96344" lon="2.10765">
        <ele>24.3</ele>
        <time>2022-04-12T11:02:17Z</time>
      </trkpt>
      <trkpt lat="49.96345" lon="2.10764">
        <ele>24.3</ele>
        <time>2022-04-12T11:02:18Z</time>
      </trkpt>
      <trkpt lat="49.96346" lon="2.10763">
        <ele>24.4</ele>
        <time>2022-04-12T11:02:19Z</time>
      </trkpt>
      <trkpt lat="49.96347" lon="2.10761">
        <ele>24.5</ele>
        <time>2022-04-12T11:02:20Z</time>
      </trkpt>
      <trkpt lat="49.96348" lon="2.1076">
        <ele>24.5</ele>
        <time>2022-04-12T11:02:21Z</time>
      </trkpt>
      <trkpt lat="49.96349" lon="2.10759">
        <ele>24.6</ele>
        <time>2022-04-12T11:02:22Z</time>
      </trkpt>
      <trkpt lat="49.9635" lon="2.10756">
        <ele>24.7</ele>
        <time>2022-04-12T11:02:23Z</time>
      </trkpt>
      <trkpt lat="49.96351" lon="2.10755">
        <ele>24.7</ele>
        <time>2022-04-12T11:02:24Z</time>
      </trkpt>
      <trkpt lat="49.96351" lon="2.10754">
        <ele>24.8</ele>
        <time>2022-04-12T11:02:25Z</time>
      </trkpt>
      <trkpt lat="49.96352" lon="2.10752">
        <ele>24.9</ele>
        <time>2022-04-12T11:02:27Z</time>
      </trkpt>
      <trkpt lat="49.96353" lon="2.10751">
        <ele>24.9</ele>
        <time>2022-04-12T11:02:28Z</time>
      </trkpt>
      <trkpt lat="49.96354" lon="2.10749">
        <ele>25</ele>
        <time>2022-04-12T11:02:29Z</time>
      </trkpt>
      <trkpt lat="49.96354" lon="2.10748">
        <ele>25.1</ele>
        <time>2022-04-12T11:02:30Z</time>
      </trkpt>
      <trkpt lat="49.96355" lon="2.10746">
        <ele>25.2</ele>
        <time>2022-04-12T11:02:31Z</time>
      </trkpt>
      <trkpt lat="49.96357" lon="2.10743">
        <ele>25.3</ele>
        <time>2022-04-12T11:02:33Z</time>
      </trkpt>
      <trkpt lat="49.96358" lon="2.10742">
        <ele>25.4</ele>
        <time>2022-04-12T11:02:34Z</time>
      </trkpt>
      <trkpt lat="49.96358" lon="2.10741">
        <ele>25.4</ele>
        <time>2022-04-12T11:02:35Z</time>
      </trkpt>
      <trkpt lat="49.96359" lon="2.10739">
        <ele>25.5</ele>
        <time>2022-04-12T11:02:36Z</time>
      </trkpt>
      <trkpt lat="49.9636" lon="2.10738">
        <ele>25.6</ele>
        <time>2022-04-12T11:02:37Z</time>
      </trkpt>
      <trkpt lat="49.9636" lon="2.10737">
        <ele>25.6</ele>
        <time>2022-04-12T11:02:38Z</time>
      </trkpt>
      <trkpt lat="49.96362" lon="2.10735">
        <ele>25.8</ele>
        <time>2022-04-12T11:02:39Z</time>
      </trkpt>
      <trkpt lat="49.96363" lon="2.10734">
        <ele>25.8</ele>
        <time>2022-04-12T11:02:40Z</time>
      </trkpt>
      <trkpt lat="49.96363" lon="2.10733">
        <ele>25.9</ele>
        <time>2022-04-12T11:02:41Z</time>
      </trkpt>
      <trkpt lat="49.96364" lon="2.10732">
        <ele>26</ele>
        <time>2022-04-12T11:02:42Z</time>
      </trkpt>
      <trkpt lat="49.96365" lon="2.10731">
        <ele>26.1</ele>
        <time>2022-04-12T11:02:43Z</time>
      </trkpt>
      <trkpt lat="49.96367" lon="2.1073">
        <ele>26.2</ele>
        <time>2022-04-12T11:02:45Z</time>
      </trkpt>
      <trkpt lat="49.96368" lon="2.10727">
        <ele>26.3</ele>
        <time>2022-04-12T11:02:46Z</time>
      </trkpt>
      <trkpt lat="49.96369" lon="2.10727">
        <ele>26.4</ele>
        <time>2022-04-12T11:02:47Z</time>
      </trkpt>
      <trkpt lat="49.9637" lon="2.10726">
        <ele>26.4</ele>
        <time>2022-04-12T11:02:48Z</time>
      </trkpt>
      <trkpt lat="49.96371" lon="2.10724">
        <ele>26.5</ele>
        <time>2022-04-12T11:02:49Z</time>
      </trkpt>
      <trkpt lat="49.96373" lon="2.10722">
        <ele>26.7</ele>
        <time>2022-04-12T11:02:51Z</time>
      </trkpt>
      <trkpt lat="49.96374" lon="2.10721">
        <ele>26.8</ele>
        <time>2022-04-12T11:02:52Z</time>
      </trkpt>
      <trkpt lat="49.96375" lon="2.1072">
        <ele>26.9</ele>
        <time>2022-04-12T11:02:53Z</time>
      </trkpt>
      <trkpt lat="49.96377" lon="2.10718">
        <ele>27</ele>
        <time>2022-04-12T11:02:54Z</time>
      </trkpt>
      <trkpt lat="49.96378" lon="2.10717">
        <ele>27.1</ele>
        <time>2022-04-12T11:02:55Z</time>
      </trkpt>
      <trkpt lat="49.9638" lon="2.10715">
        <ele>27.3</ele>
        <time>2022-04-12T11:02:56Z</time>
      </trkpt>
      <trkpt lat="49.9638" lon="2.10714">
        <ele>27.4</ele>
        <time>2022-04-12T11:02:57Z</time>
      </trkpt>
      <trkpt lat="49.96381" lon="2.10714">
        <ele>27.4</ele>
        <time>2022-04-12T11:02:58Z</time>
      </trkpt>
      <trkpt lat="49.96382" lon="2.10712">
        <ele>27.5</ele>
        <time>2022-04-12T11:02:59Z</time>
      </trkpt>
      <trkpt lat="49.96384" lon="2.10711">
        <ele>27.6</ele>
        <time>2022-04-12T11:03:01Z</time>
      </trkpt>
      <trkpt lat="49.96385" lon="2.1071">
        <ele>27.8</ele>
        <time>2022-04-12T11:03:02Z</time>
      </trkpt>
      <trkpt lat="49.96386" lon="2.10708">
        <ele>27.8</ele>
        <time>2022-04-12T11:03:03Z</time>
      </trkpt>
      <trkpt lat="49.96387" lon="2.10706">
        <ele>28</ele>
        <time>2022-04-12T11:03:04Z</time>
      </trkpt>
      <trkpt lat="49.96388" lon="2.10705">
        <ele>28.1</ele>
        <time>2022-04-12T11:03:05Z</time>
      </trkpt>
      <trkpt lat="49.96389" lon="2.10704">
        <ele>28.1</ele>
        <time>2022-04-12T11:03:06Z</time>
      </trkpt>
      <trkpt lat="49.9639" lon="2.10703">
        <ele>28.2</ele>
        <time>2022-04-12T11:03:07Z</time>
      </trkpt>
      <trkpt lat="49.96391" lon="2.10701">
        <ele>28.3</ele>
        <time>2022-04-12T11:03:08Z</time>
      </trkpt>
      <trkpt lat="49.96392" lon="2.107">
        <ele>28.4</ele>
        <time>2022-04-12T11:03:09Z</time>
      </trkpt>
      <trkpt lat="49.96394" lon="2.10698">
        <ele>28.6</ele>
        <time>2022-04-12T11:03:10Z</time>
      </trkpt>
      <trkpt lat="49.96395" lon="2.10697">
        <ele>28.7</ele>
        <time>2022-04-12T11:03:12Z</time>
      </trkpt>
      <trkpt lat="49.96396" lon="2.10695">
        <ele>28.6</ele>
        <time>2022-04-12T11:03:13Z</time>
      </trkpt>
      <trkpt lat="49.96397" lon="2.10694">
        <ele>28.6</ele>
        <time>2022-04-12T11:03:14Z</time>
      </trkpt>
      <trkpt lat="49.96398" lon="2.10692">
        <ele>28.5</ele>
        <time>2022-04-12T11:03:15Z</time>
      </trkpt>
      <trkpt lat="49.96399" lon="2.10691">
        <ele>28.4</ele>
        <time>2022-04-12T11:03:17Z</time>
      </trkpt>
      <trkpt lat="49.964" lon="2.1069">
        <ele>28.4</ele>
        <time>2022-04-12T11:03:18Z</time>
      </trkpt>
      <trkpt lat="49.964" lon="2.10689">
        <ele>28</ele>
        <time>2022-04-12T11:03:19Z</time>
      </trkpt>
      <trkpt lat="49.96401" lon="2.10688">
        <ele>28.2</ele>
        <time>2022-04-12T11:03:20Z</time>
      </trkpt>
      <trkpt lat="49.96402" lon="2.10687">
        <ele>28.2</ele>
        <time>2022-04-12T11:03:21Z</time>
      </trkpt>
      <trkpt lat="49.96403" lon="2.10687">
        <ele>28.1</ele>
        <time>2022-04-12T11:03:22Z</time>
      </trkpt>
      <trkpt lat="49.96404" lon="2.10687">
        <ele>27.8</ele>
        <time>2022-04-12T11:03:23Z</time>
      </trkpt>
      <trkpt lat="49.96405" lon="2.10687">
        <ele>27.7</ele>
        <time>2022-04-12T11:03:24Z</time>
      </trkpt>
      <trkpt lat="49.96406" lon="2.10686">
        <ele>27.3</ele>
        <time>2022-04-12T11:03:25Z</time>
      </trkpt>
      <trkpt lat="49.96407" lon="2.10685">
        <ele>27.3</ele>
        <time>2022-04-12T11:03:26Z</time>
      </trkpt>
      <trkpt lat="49.96408" lon="2.10684">
        <ele>27.5</ele>
        <time>2022-04-12T11:03:28Z</time>
      </trkpt>
      <trkpt lat="49.96409" lon="2.10683">
        <ele>27.2</ele>
        <time>2022-04-12T11:03:29Z</time>
      </trkpt>
      <trkpt lat="49.9641" lon="2.10682">
        <ele>27.1</ele>
        <time>2022-04-12T11:03:30Z</time>
      </trkpt>
      <trkpt lat="49.96411" lon="2.10681">
        <ele>27</ele>
        <time>2022-04-12T11:03:31Z</time>
      </trkpt>
      <trkpt lat="49.96411" lon="2.1068">
        <ele>27.3</ele>
        <time>2022-04-12T11:03:32Z</time>
      </trkpt>
      <trkpt lat="49.96412" lon="2.10679">
        <ele>26.9</ele>
        <time>2022-04-12T11:03:33Z</time>
      </trkpt>
      <trkpt lat="49.96413" lon="2.10678">
        <ele>26.9</ele>
        <time>2022-04-12T11:03:34Z</time>
      </trkpt>
      <trkpt lat="49.96414" lon="2.10677">
        <ele>26.8</ele>
        <time>2022-04-12T11:03:35Z</time>
      </trkpt>
      <trkpt lat="49.96415" lon="2.10676">
        <ele>26.8</ele>
        <time>2022-04-12T11:03:36Z</time>
      </trkpt>
      <trkpt lat="49.96416" lon="2.10674">
        <ele>26.7</ele>
        <time>2022-04-12T11:03:37Z</time>
      </trkpt>
      <trkpt lat="49.96417" lon="2.10673">
        <ele>26.4</ele>
        <time>2022-04-12T11:03:39Z</time>
      </trkpt>
      <trkpt lat="49.96418" lon="2.10672">
        <ele>26.3</ele>
        <time>2022-04-12T11:03:40Z</time>
      </trkpt>
      <trkpt lat="49.96419" lon="2.10671">
        <ele>26.6</ele>
        <time>2022-04-12T11:03:41Z</time>
      </trkpt>
      <trkpt lat="49.9642" lon="2.1067">
        <ele>26.5</ele>
        <time>2022-04-12T11:03:42Z</time>
      </trkpt>
      <trkpt lat="49.9642" lon="2.10668">
        <ele>26.2</ele>
        <time>2022-04-12T11:03:43Z</time>
      </trkpt>
      <trkpt lat="49.96421" lon="2.10667">
        <ele>26.1</ele>
        <time>2022-04-12T11:03:44Z</time>
      </trkpt>
      <trkpt lat="49.96422" lon="2.10666">
        <ele>26.3</ele>
        <time>2022-04-12T11:03:45Z</time>
      </trkpt>
      <trkpt lat="49.96423" lon="2.10665">
        <ele>26</ele>
        <time>2022-04-12T11:03:46Z</time>
      </trkpt>
      <trkpt lat="49.96425" lon="2.10663">
        <ele>25.9</ele>
        <time>2022-04-12T11:03:47Z</time>
      </trkpt>
      <trkpt lat="49.96425" lon="2.10663">
        <ele>25.9</ele>
        <time>2022-04-12T11:03:49Z</time>
      </trkpt>
      <trkpt lat="49.96426" lon="2.10662">
        <ele>25.8</ele>
        <time>2022-04-12T11:03:50Z</time>
      </trkpt>
      <trkpt lat="49.96427" lon="2.10661">
        <ele>25.8</ele>
        <time>2022-04-12T11:03:51Z</time>
      </trkpt>
      <trkpt lat="49.96428" lon="2.1066">
        <ele>25.7</ele>
        <time>2022-04-12T11:03:52Z</time>
      </trkpt>
      <trkpt lat="49.96429" lon="2.10659">
        <ele>25.4</ele>
        <time>2022-04-12T11:03:53Z</time>
      </trkpt>
      <trkpt lat="49.9643" lon="2.10658">
        <ele>25.6</ele>
        <time>2022-04-12T11:03:54Z</time>
      </trkpt>
      <trkpt lat="49.9643" lon="2.10657">
        <ele>25.5</ele>
        <time>2022-04-12T11:03:55Z</time>
      </trkpt>
      <trkpt lat="49.96431" lon="2.10656">
        <ele>25.2</ele>
        <time>2022-04-12T11:03:56Z</time>
      </trkpt>
      <trkpt lat="49.96431" lon="2.10654">
        <ele>25.1</ele>
        <time>2022-04-12T11:03:58Z</time>
      </trkpt>
      <trkpt lat="49.96432" lon="2.10653">
        <ele>25.3</ele>
        <time>2022-04-12T11:03:59Z</time>
      </trkpt>
      <trkpt lat="49.96433" lon="2.10652">
        <ele>25.3</ele>
        <time>2022-04-12T11:04:00Z</time>
      </trkpt>
      <trkpt lat="49.96434" lon="2.1065">
        <ele>25.2</ele>
        <time>2022-04-12T11:04:01Z</time>
      </trkpt>
      <trkpt lat="49.96435" lon="2.10649">
        <ele>25.1</ele>
        <time>2022-04-12T11:04:02Z</time>
      </trkpt>
      <trkpt lat="49.96436" lon="2.10648">
        <ele>25.1</ele>
        <time>2022-04-12T11:04:03Z</time>
      </trkpt>
      <trkpt lat="49.96437" lon="2.10646">
        <ele>24.7</ele>
        <time>2022-04-12T11:04:04Z</time>
      </trkpt>
      <trkpt lat="49.96438" lon="2.10645">
        <ele>24.9</ele>
        <time>2022-04-12T11:04:05Z</time>
      </trkpt>
      <trkpt lat="49.96439" lon="2.10644">
        <ele>24.9</ele>
        <time>2022-04-12T11:04:06Z</time>
      </trkpt>
      <trkpt lat="49.9644" lon="2.10642">
        <ele>24.5</ele>
        <time>2022-04-12T11:04:07Z</time>
      </trkpt>
      <trkpt lat="49.96441" lon="2.10641">
        <ele>24.7</ele>
        <time>2022-04-12T11:04:09Z</time>
      </trkpt>
      <trkpt lat="49.96441" lon="2.1064">
        <ele>24.6</ele>
        <time>2022-04-12T11:04:10Z</time>
      </trkpt>
      <trkpt lat="49.96442" lon="2.10639">
        <ele>24.2</ele>
        <time>2022-04-12T11:04:11Z</time>
      </trkpt>
      <trkpt lat="49.96442" lon="2.10637">
        <ele>24.4</ele>
        <time>2022-04-12T11:04:12Z</time>
      </trkpt>
      <trkpt lat="49.96443" lon="2.10636">
        <ele>24.4</ele>
        <time>2022-04-12T11:04:13Z</time>
      </trkpt>
      <trkpt lat="49.96444" lon="2.10634">
        <ele>24.3</ele>
        <time>2022-04-12T11:04:14Z</time>
      </trkpt>
      <trkpt lat="49.96444" lon="2.10633">
        <ele>24.3</ele>
        <time>2022-04-12T11:04:15Z</time>
      </trkpt>
      <trkpt lat="49.96444" lon="2.10631">
        <ele>24.5</ele>
        <time>2022-04-12T11:04:16Z</time>
      </trkpt>
      <trkpt lat="49.96445" lon="2.10628">
        <ele>24.3</ele>
        <time>2022-04-12T11:04:18Z</time>
      </trkpt>
      <trkpt lat="49.96446" lon="2.10627">
        <ele>24.2</ele>
        <time>2022-04-12T11:04:19Z</time>
      </trkpt>
      <trkpt lat="49.96446" lon="2.10626">
        <ele>24.2</ele>
        <time>2022-04-12T11:04:20Z</time>
      </trkpt>
      <trkpt lat="49.96448" lon="2.10623">
        <ele>24</ele>
        <time>2022-04-12T11:04:21Z</time>
      </trkpt>
      <trkpt lat="49.96449" lon="2.10622">
        <ele>23.9</ele>
        <time>2022-04-12T11:04:22Z</time>
      </trkpt>
      <trkpt lat="49.96449" lon="2.10621">
        <ele>23.9</ele>
        <time>2022-04-12T11:04:23Z</time>
      </trkpt>
      <trkpt lat="49.9645" lon="2.10619">
        <ele>23.7</ele>
        <time>2022-04-12T11:04:24Z</time>
      </trkpt>
      <trkpt lat="49.96451" lon="2.10618">
        <ele>23.6</ele>
        <time>2022-04-12T11:04:26Z</time>
      </trkpt>
      <trkpt lat="49.96452" lon="2.10617">
        <ele>23.6</ele>
        <time>2022-04-12T11:04:27Z</time>
      </trkpt>
      <trkpt lat="49.96453" lon="2.10615">
        <ele>23.4</ele>
        <time>2022-04-12T11:04:28Z</time>
      </trkpt>
      <trkpt lat="49.96454" lon="2.10614">
        <ele>23.3</ele>
        <time>2022-04-12T11:04:29Z</time>
      </trkpt>
      <trkpt lat="49.96454" lon="2.10613">
        <ele>23.2</ele>
        <time>2022-04-12T11:04:30Z</time>
      </trkpt>
      <trkpt lat="49.96456" lon="2.1061">
        <ele>23</ele>
        <time>2022-04-12T11:04:31Z</time>
      </trkpt>
      <trkpt lat="49.96457" lon="2.10609">
        <ele>22.9</ele>
        <time>2022-04-12T11:04:32Z</time>
      </trkpt>
      <trkpt lat="49.96457" lon="2.10608">
        <ele>22.9</ele>
        <time>2022-04-12T11:04:33Z</time>
      </trkpt>
      <trkpt lat="49.96459" lon="2.10606">
        <ele>22.6</ele>
        <time>2022-04-12T11:04:34Z</time>
      </trkpt>
      <trkpt lat="49.96459" lon="2.10605">
        <ele>22.6</ele>
        <time>2022-04-12T11:04:36Z</time>
      </trkpt>
      <trkpt lat="49.9646" lon="2.10603">
        <ele>22.5</ele>
        <time>2022-04-12T11:04:37Z</time>
      </trkpt>
      <trkpt lat="49.96461" lon="2.10601">
        <ele>22.3</ele>
        <time>2022-04-12T11:04:38Z</time>
      </trkpt>
      <trkpt lat="49.96462" lon="2.106">
        <ele>22.2</ele>
        <time>2022-04-12T11:04:39Z</time>
      </trkpt>
      <trkpt lat="49.96463" lon="2.10599">
        <ele>22.1</ele>
        <time>2022-04-12T11:04:40Z</time>
      </trkpt>
      <trkpt lat="49.96464" lon="2.10597">
        <ele>22.3</ele>
        <time>2022-04-12T11:04:42Z</time>
      </trkpt>
      <trkpt lat="49.96465" lon="2.10596">
        <ele>21.8</ele>
        <time>2022-04-12T11:04:43Z</time>
      </trkpt>
      <trkpt lat="49.96466" lon="2.10593">
        <ele>22</ele>
        <time>2022-04-12T11:04:44Z</time>
      </trkpt>
      <trkpt lat="49.96467" lon="2.10592">
        <ele>21.9</ele>
        <time>2022-04-12T11:04:45Z</time>
      </trkpt>
      <trkpt lat="49.96467" lon="2.10591">
        <ele>21.5</ele>
        <time>2022-04-12T11:04:46Z</time>
      </trkpt>
      <trkpt lat="49.96468" lon="2.1059">
        <ele>21.4</ele>
        <time>2022-04-12T11:04:47Z</time>
      </trkpt>
      <trkpt lat="49.96468" lon="2.10589">
        <ele>21.5</ele>
        <time>2022-04-12T11:04:48Z</time>
      </trkpt>
      <trkpt lat="49.96469" lon="2.10587">
        <ele>21.5</ele>
        <time>2022-04-12T11:04:49Z</time>
      </trkpt>
      <trkpt lat="49.96471" lon="2.10586">
        <ele>21.2</ele>
        <time>2022-04-12T11:04:51Z</time>
      </trkpt>
      <trkpt lat="49.96471" lon="2.10584">
        <ele>21.1</ele>
        <time>2022-04-12T11:04:52Z</time>
      </trkpt>
      <trkpt lat="49.96471" lon="2.10583">
        <ele>21.1</ele>
        <time>2022-04-12T11:04:53Z</time>
      </trkpt>
      <trkpt lat="49.96471" lon="2.10582">
        <ele>21</ele>
        <time>2022-04-12T11:04:54Z</time>
      </trkpt>
      <trkpt lat="49.96472" lon="2.10581">
        <ele>20.7</ele>
        <time>2022-04-12T11:04:56Z</time>
      </trkpt>
      <trkpt lat="49.96473" lon="2.10579">
        <ele>20.7</ele>
        <time>2022-04-12T11:04:57Z</time>
      </trkpt>
      <trkpt lat="49.96474" lon="2.10578">
        <ele>20.6</ele>
        <time>2022-04-12T11:04:58Z</time>
      </trkpt>
      <trkpt lat="49.96475" lon="2.10577">
        <ele>20.7</ele>
        <time>2022-04-12T11:04:59Z</time>
      </trkpt>
      <trkpt lat="49.96475" lon="2.10576">
        <ele>20.3</ele>
        <time>2022-04-12T11:05:00Z</time>
      </trkpt>
      <trkpt lat="49.96475" lon="2.10575">
        <ele>20.2</ele>
        <time>2022-04-12T11:05:01Z</time>
      </trkpt>
      <trkpt lat="49.96476" lon="2.10573">
        <ele>20.2</ele>
        <time>2022-04-12T11:05:03Z</time>
      </trkpt>
      <trkpt lat="49.96477" lon="2.10572">
        <ele>20.3</ele>
        <time>2022-04-12T11:05:04Z</time>
      </trkpt>
      <trkpt lat="49.96478" lon="2.1057">
        <ele>20.2</ele>
        <time>2022-04-12T11:05:05Z</time>
      </trkpt>
      <trkpt lat="49.96479" lon="2.10569">
        <ele>19.8</ele>
        <time>2022-04-12T11:05:07Z</time>
      </trkpt>
      <trkpt lat="49.9648" lon="2.10567">
        <ele>19.9</ele>
        <time>2022-04-12T11:05:08Z</time>
      </trkpt>
      <trkpt lat="49.96481" lon="2.10566">
        <ele>19.5</ele>
        <time>2022-04-12T11:05:09Z</time>
      </trkpt>
      <trkpt lat="49.96482" lon="2.10565">
        <ele>19.4</ele>
        <time>2022-04-12T11:05:10Z</time>
      </trkpt>
      <trkpt lat="49.96482" lon="2.10564">
        <ele>19.5</ele>
        <time>2022-04-12T11:05:11Z</time>
      </trkpt>
      <trkpt lat="49.96483" lon="2.10563">
        <ele>19.5</ele>
        <time>2022-04-12T11:05:12Z</time>
      </trkpt>
      <trkpt lat="49.96483" lon="2.10561">
        <ele>19.1</ele>
        <time>2022-04-12T11:05:13Z</time>
      </trkpt>
      <trkpt lat="49.96484" lon="2.1056">
        <ele>19.2</ele>
        <time>2022-04-12T11:05:15Z</time>
      </trkpt>
      <trkpt lat="49.96485" lon="2.10559">
        <ele>19.1</ele>
        <time>2022-04-12T11:05:16Z</time>
      </trkpt>
      <trkpt lat="49.96486" lon="2.10557">
        <ele>19.1</ele>
        <time>2022-04-12T11:05:17Z</time>
      </trkpt>
      <trkpt lat="49.96487" lon="2.10555">
        <ele>18.8</ele>
        <time>2022-04-12T11:05:18Z</time>
      </trkpt>
      <trkpt lat="49.96488" lon="2.10554">
        <ele>18.8</ele>
        <time>2022-04-12T11:05:19Z</time>
      </trkpt>
      <trkpt lat="49.96488" lon="2.10553">
        <ele>18.7</ele>
        <time>2022-04-12T11:05:20Z</time>
      </trkpt>
      <trkpt lat="49.9649" lon="2.10551">
        <ele>18.5</ele>
        <time>2022-04-12T11:05:21Z</time>
      </trkpt>
      <trkpt lat="49.9649" lon="2.1055">
        <ele>18.4</ele>
        <time>2022-04-12T11:05:22Z</time>
      </trkpt>
      <trkpt lat="49.96491" lon="2.10549">
        <ele>18.3</ele>
        <time>2022-04-12T11:05:23Z</time>
      </trkpt>
      <trkpt lat="49.96493" lon="2.10546">
        <ele>18.1</ele>
        <time>2022-04-12T11:05:25Z</time>
      </trkpt>
      <trkpt lat="49.96493" lon="2.10545">
        <ele>18.1</ele>
        <time>2022-04-12T11:05:26Z</time>
      </trkpt>
      <trkpt lat="49.96494" lon="2.10545">
        <ele>18</ele>
        <time>2022-04-12T11:05:27Z</time>
      </trkpt>
      <trkpt lat="49.96495" lon="2.10543">
        <ele>17.7</ele>
        <time>2022-04-12T11:05:28Z</time>
      </trkpt>
      <trkpt lat="49.96496" lon="2.10542">
        <ele>17.7</ele>
        <time>2022-04-12T11:05:29Z</time>
      </trkpt>
      <trkpt lat="49.96496" lon="2.10541">
        <ele>17.7</ele>
        <time>2022-04-12T11:05:30Z</time>
      </trkpt>
      <trkpt lat="49.96497" lon="2.1054">
        <ele>17.3</ele>
        <time>2022-04-12T11:05:31Z</time>
      </trkpt>
      <trkpt lat="49.96498" lon="2.10538">
        <ele>17.4</ele>
        <time>2022-04-12T11:05:32Z</time>
      </trkpt>
      <trkpt lat="49.96499" lon="2.10537">
        <ele>17.4</ele>
        <time>2022-04-12T11:05:34Z</time>
      </trkpt>
      <trkpt lat="49.965" lon="2.10536">
        <ele>17</ele>
        <time>2022-04-12T11:05:35Z</time>
      </trkpt>
      <trkpt lat="49.96501" lon="2.10535">
        <ele>17</ele>
        <time>2022-04-12T11:05:36Z</time>
      </trkpt>
      <trkpt lat="49.96502" lon="2.10534">
        <ele>17</ele>
        <time>2022-04-12T11:05:37Z</time>
      </trkpt>
      <trkpt lat="49.96503" lon="2.10532">
        <ele>16.7</ele>
        <time>2022-04-12T11:05:38Z</time>
      </trkpt>
      <trkpt lat="49.96504" lon="2.10531">
        <ele>16.7</ele>
        <time>2022-04-12T11:05:39Z</time>
      </trkpt>
      <trkpt lat="49.96505" lon="2.1053">
        <ele>16.7</ele>
        <time>2022-04-12T11:05:40Z</time>
      </trkpt>
      <trkpt lat="49.96505" lon="2.10529">
        <ele>16.4</ele>
        <time>2022-04-12T11:05:41Z</time>
      </trkpt>
      <trkpt lat="49.96506" lon="2.10527">
        <ele>16.4</ele>
        <time>2022-04-12T11:05:42Z</time>
      </trkpt>
      <trkpt lat="49.96507" lon="2.10526">
        <ele>16.3</ele>
        <time>2022-04-12T11:05:44Z</time>
      </trkpt>
      <trkpt lat="49.96509" lon="2.10524">
        <ele>16.1</ele>
        <time>2022-04-12T11:05:45Z</time>
      </trkpt>
      <trkpt lat="49.9651" lon="2.10523">
        <ele>16.1</ele>
        <time>2022-04-12T11:05:46Z</time>
      </trkpt>
      <trkpt lat="49.9651" lon="2.10522">
        <ele>16</ele>
        <time>2022-04-12T11:05:47Z</time>
      </trkpt>
      <trkpt lat="49.96512" lon="2.1052">
        <ele>15.8</ele>
        <time>2022-04-12T11:05:48Z</time>
      </trkpt>
      <trkpt lat="49.96512" lon="2.1052">
        <ele>15.8</ele>
        <time>2022-04-12T11:05:49Z</time>
      </trkpt>
      <trkpt lat="49.96513" lon="2.10519">
        <ele>15.7</ele>
        <time>2022-04-12T11:05:51Z</time>
      </trkpt>
      <trkpt lat="49.96514" lon="2.10518">
        <ele>15.4</ele>
        <time>2022-04-12T11:05:52Z</time>
      </trkpt>
      <trkpt lat="49.96515" lon="2.10517">
        <ele>15.4</ele>
        <time>2022-04-12T11:05:53Z</time>
      </trkpt>
      <trkpt lat="49.96516" lon="2.10516">
        <ele>15.4</ele>
        <time>2022-04-12T11:05:54Z</time>
      </trkpt>
      <trkpt lat="49.96518" lon="2.10514">
        <ele>15.2</ele>
        <time>2022-04-12T11:05:55Z</time>
      </trkpt>
      <trkpt lat="49.96519" lon="2.10513">
        <ele>15.1</ele>
        <time>2022-04-12T11:05:57Z</time>
      </trkpt>
      <trkpt lat="49.9652" lon="2.10512">
        <ele>14.9</ele>
        <time>2022-04-12T11:05:58Z</time>
      </trkpt>
      <trkpt lat="49.96521" lon="2.10511">
        <ele>14.9</ele>
        <time>2022-04-12T11:05:59Z</time>
      </trkpt>
      <trkpt lat="49.96521" lon="2.1051">
        <ele>14.8</ele>
        <time>2022-04-12T11:06:00Z</time>
      </trkpt>
      <trkpt lat="49.96523" lon="2.10508">
        <ele>14.7</ele>
        <time>2022-04-12T11:06:01Z</time>
      </trkpt>
      <trkpt lat="49.96524" lon="2.10507">
        <ele>14.6</ele>
        <time>2022-04-12T11:06:02Z</time>
      </trkpt>
      <trkpt lat="49.96524" lon="2.10506">
        <ele>14.6</ele>
        <time>2022-04-12T11:06:03Z</time>
      </trkpt>
      <trkpt lat="49.96526" lon="2.10504">
        <ele>14.4</ele>
        <time>2022-04-12T11:06:04Z</time>
      </trkpt>
      <trkpt lat="49.96526" lon="2.10503">
        <ele>14.4</ele>
        <time>2022-04-12T11:06:06Z</time>
      </trkpt>
      <trkpt lat="49.96527" lon="2.10502">
        <ele>14.3</ele>
        <time>2022-04-12T11:06:07Z</time>
      </trkpt>
      <trkpt lat="49.96528" lon="2.10501">
        <ele>14.2</ele>
        <time>2022-04-12T11:06:08Z</time>
      </trkpt>
      <trkpt lat="49.96529" lon="2.105">
        <ele>14.2</ele>
        <time>2022-04-12T11:06:09Z</time>
      </trkpt>
      <trkpt lat="49.9653" lon="2.10499">
        <ele>14.1</ele>
        <time>2022-04-12T11:06:10Z</time>
      </trkpt>
      <trkpt lat="49.96531" lon="2.10498">
        <ele>14.1</ele>
        <time>2022-04-12T11:06:12Z</time>
      </trkpt>
      <trkpt lat="49.96532" lon="2.10498">
        <ele>14.1</ele>
        <time>2022-04-12T11:06:13Z</time>
      </trkpt>
      <trkpt lat="49.96533" lon="2.10498">
        <ele>14</ele>
        <time>2022-04-12T11:06:14Z</time>
      </trkpt>
      <trkpt lat="49.96534" lon="2.10498">
        <ele>14</ele>
        <time>2022-04-12T11:06:15Z</time>
      </trkpt>
      <trkpt lat="49.96535" lon="2.10498">
        <ele>14</ele>
        <time>2022-04-12T11:06:16Z</time>
      </trkpt>
      <trkpt lat="49.96536" lon="2.10498">
        <ele>13.9</ele>
        <time>2022-04-12T11:06:17Z</time>
      </trkpt>
      <trkpt lat="49.96537" lon="2.105">
        <ele>13.9</ele>
        <time>2022-04-12T11:06:18Z</time>
      </trkpt>
      <trkpt lat="49.96537" lon="2.10501">
        <ele>13.8</ele>
        <time>2022-04-12T11:06:20Z</time>
      </trkpt>
      <trkpt lat="49.96538" lon="2.10502">
        <ele>13.8</ele>
        <time>2022-04-12T11:06:21Z</time>
      </trkpt>
      <trkpt lat="49.96539" lon="2.10503">
        <ele>13.8</ele>
        <time>2022-04-12T11:06:22Z</time>
      </trkpt>
      <trkpt lat="49.96539" lon="2.10504">
        <ele>13.7</ele>
        <time>2022-04-12T11:06:23Z</time>
      </trkpt>
      <trkpt lat="49.9654" lon="2.10505">
        <ele>13.7</ele>
        <time>2022-04-12T11:06:24Z</time>
      </trkpt>
      <trkpt lat="49.96541" lon="2.10506">
        <ele>13.7</ele>
        <time>2022-04-12T11:06:25Z</time>
      </trkpt>
      <trkpt lat="49.96542" lon="2.10508">
        <ele>13.6</ele>
        <time>2022-04-12T11:06:26Z</time>
      </trkpt>
      <trkpt lat="49.96542" lon="2.10509">
        <ele>13.6</ele>
        <time>2022-04-12T11:06:27Z</time>
      </trkpt>
      <trkpt lat="49.96543" lon="2.1051">
        <ele>13.5</ele>
        <time>2022-04-12T11:06:28Z</time>
      </trkpt>
      <trkpt lat="49.96544" lon="2.10512">
        <ele>13.5</ele>
        <time>2022-04-12T11:06:30Z</time>
      </trkpt>
      <trkpt lat="49.96545" lon="2.10513">
        <ele>13.5</ele>
        <time>2022-04-12T11:06:31Z</time>
      </trkpt>
      <trkpt lat="49.96545" lon="2.10514">
        <ele>13.5</ele>
        <time>2022-04-12T11:06:32Z</time>
      </trkpt>
      <trkpt lat="49.96546" lon="2.10515">
        <ele>13.4</ele>
        <time>2022-04-12T11:06:33Z</time>
      </trkpt>
      <trkpt lat="49.96547" lon="2.10516">
        <ele>13.4</ele>
        <time>2022-04-12T11:06:34Z</time>
      </trkpt>
      <trkpt lat="49.96548" lon="2.10517">
        <ele>13.4</ele>
        <time>2022-04-12T11:06:35Z</time>
      </trkpt>
      <trkpt lat="49.96549" lon="2.10518">
        <ele>13.3</ele>
        <time>2022-04-12T11:06:36Z</time>
      </trkpt>
      <trkpt lat="49.9655" lon="2.10519">
        <ele>13.3</ele>
        <time>2022-04-12T11:06:37Z</time>
      </trkpt>
      <trkpt lat="49.96552" lon="2.1052">
        <ele>13.2</ele>
        <time>2022-04-12T11:06:39Z</time>
      </trkpt>
      <trkpt lat="49.96553" lon="2.10521">
        <ele>13.2</ele>
        <time>2022-04-12T11:06:40Z</time>
      </trkpt>
      <trkpt lat="49.96554" lon="2.10521">
        <ele>13.2</ele>
        <time>2022-04-12T11:06:41Z</time>
      </trkpt>
      <trkpt lat="49.96555" lon="2.10522">
        <ele>13.2</ele>
        <time>2022-04-12T11:06:42Z</time>
      </trkpt>
      <trkpt lat="49.96557" lon="2.10522">
        <ele>13.1</ele>
        <time>2022-04-12T11:06:43Z</time>
      </trkpt>
      <trkpt lat="49.96558" lon="2.10523">
        <ele>13.1</ele>
        <time>2022-04-12T11:06:44Z</time>
      </trkpt>
      <trkpt lat="49.9656" lon="2.10523">
        <ele>13.1</ele>
        <time>2022-04-12T11:06:45Z</time>
      </trkpt>
      <trkpt lat="49.96561" lon="2.10524">
        <ele>13</ele>
        <time>2022-04-12T11:06:46Z</time>
      </trkpt>
      <trkpt lat="49.96562" lon="2.10525">
        <ele>13</ele>
        <time>2022-04-12T11:06:47Z</time>
      </trkpt>
      <trkpt lat="49.96564" lon="2.10525">
        <ele>13</ele>
        <time>2022-04-12T11:06:49Z</time>
      </trkpt>
      <trkpt lat="49.96565" lon="2.10526">
        <ele>12.9</ele>
        <time>2022-04-12T11:06:50Z</time>
      </trkpt>
      <trkpt lat="49.96566" lon="2.10527">
        <ele>12.9</ele>
        <time>2022-04-12T11:06:51Z</time>
      </trkpt>
      <trkpt lat="49.96568" lon="2.10528">
        <ele>12.8</ele>
        <time>2022-04-12T11:06:52Z</time>
      </trkpt>
      <trkpt lat="49.96569" lon="2.10529">
        <ele>12.8</ele>
        <time>2022-04-12T11:06:53Z</time>
      </trkpt>
      <trkpt lat="49.9657" lon="2.1053">
        <ele>12.7</ele>
        <time>2022-04-12T11:06:54Z</time>
      </trkpt>
      <trkpt lat="49.96572" lon="2.10532">
        <ele>12.7</ele>
        <time>2022-04-12T11:06:55Z</time>
      </trkpt>
      <trkpt lat="49.96573" lon="2.10533">
        <ele>12.7</ele>
        <time>2022-04-12T11:06:56Z</time>
      </trkpt>
      <trkpt lat="49.96574" lon="2.10534">
        <ele>12.6</ele>
        <time>2022-04-12T11:06:58Z</time>
      </trkpt>
      <trkpt lat="49.96575" lon="2.10535">
        <ele>12.6</ele>
        <time>2022-04-12T11:06:59Z</time>
      </trkpt>
      <trkpt lat="49.96577" lon="2.10537">
        <ele>12.5</ele>
        <time>2022-04-12T11:07:00Z</time>
      </trkpt>
      <trkpt lat="49.96578" lon="2.10538">
        <ele>12.5</ele>
        <time>2022-04-12T11:07:01Z</time>
      </trkpt>
      <trkpt lat="49.96579" lon="2.10539">
        <ele>12.5</ele>
        <time>2022-04-12T11:07:02Z</time>
      </trkpt>
      <trkpt lat="49.9658" lon="2.1054">
        <ele>12.5</ele>
        <time>2022-04-12T11:07:04Z</time>
      </trkpt>
      <trkpt lat="49.96581" lon="2.10541">
        <ele>12.4</ele>
        <time>2022-04-12T11:07:05Z</time>
      </trkpt>
      <trkpt lat="49.96582" lon="2.10541">
        <ele>12.4</ele>
        <time>2022-04-12T11:07:06Z</time>
      </trkpt>
      <trkpt lat="49.96583" lon="2.10541">
        <ele>12.4</ele>
        <time>2022-04-12T11:07:07Z</time>
      </trkpt>
      <trkpt lat="49.96584" lon="2.10541">
        <ele>12.4</ele>
        <time>2022-04-12T11:07:08Z</time>
      </trkpt>
      <trkpt lat="49.96584" lon="2.1054">
        <ele>12.3</ele>
        <time>2022-04-12T11:07:09Z</time>
      </trkpt>
      <trkpt lat="49.96585" lon="2.10539">
        <ele>12.3</ele>
        <time>2022-04-12T11:07:10Z</time>
      </trkpt>
      <trkpt lat="49.96585" lon="2.10538">
        <ele>12.3</ele>
        <time>2022-04-12T11:07:12Z</time>
      </trkpt>
      <trkpt lat="49.96584" lon="2.10538">
        <ele>12.3</ele>
        <time>2022-04-12T11:07:13Z</time>
      </trkpt>
      <trkpt lat="49.96584" lon="2.10538">
        <ele>12.3</ele>
        <time>2022-04-12T11:07:14Z</time>
      </trkpt>
      <trkpt lat="49.96584" lon="2.10538">
        <ele>12.3</ele>
        <time>2022-04-12T11:07:15Z</time>
      </trkpt>
      <trkpt lat="49.96583" lon="2.10539">
        <ele>12.3</ele>
        <time>2022-04-12T11:07:16Z</time>
      </trkpt>
      <trkpt lat="49.96583" lon="2.10539">
        <ele>12.2</ele>
        <time>2022-04-12T11:07:17Z</time>
      </trkpt>
      <trkpt lat="49.96582" lon="2.10539">
        <ele>12.2</ele>
        <time>2022-04-12T11:07:18Z</time>
      </trkpt>
      <trkpt lat="49.96582" lon="2.10539">
        <ele>12.2</ele>
        <time>2022-04-12T11:07:20Z</time>
      </trkpt>
      <trkpt lat="49.96581" lon="2.10539">
        <ele>12.2</ele>
        <time>2022-04-12T11:07:21Z</time>
      </trkpt>
      <trkpt lat="49.96581" lon="2.10539">
        <ele>12.2</ele>
        <time>2022-04-12T11:07:22Z</time>
      </trkpt>
      <trkpt lat="49.96582" lon="2.10539">
        <ele>12.2</ele>
        <time>2022-04-12T11:07:24Z</time>
      </trkpt>
      <trkpt lat="49.96582" lon="2.10539">
        <ele>12.2</ele>
        <time>2022-04-12T11:07:25Z</time>
      </trkpt>
      <trkpt lat="49.96582" lon="2.10538">
        <ele>12.2</ele>
        <time>2022-04-12T11:07:27Z</time>
      </trkpt>
      <trkpt lat="49.96583" lon="2.10538">
        <ele>12.2</ele>
        <time>2022-04-12T11:07:28Z</time>
      </trkpt>
      <trkpt lat="49.96583" lon="2.10537">
        <ele>12.1</ele>
        <time>2022-04-12T11:07:29Z</time>
      </trkpt>
      <trkpt lat="49.96583" lon="2.10536">
        <ele>12.1</ele>
        <time>2022-04-12T11:07:30Z</time>
      </trkpt>
      <trkpt lat="49.96584" lon="2.10535">
        <ele>12.1</ele>
        <time>2022-04-12T11:07:31Z</time>
      </trkpt>
      <trkpt lat="49.96584" lon="2.1053">
        <ele>12</ele>
        <time>2022-04-12T11:07:32Z</time>
      </trkpt>
      <trkpt lat="49.96584" lon="2.10528">
        <ele>12</ele>
        <time>2022-04-12T11:07:33Z</time>
      </trkpt>
      <trkpt lat="49.96584" lon="2.10525">
        <ele>11.9</ele>
        <time>2022-04-12T11:07:35Z</time>
      </trkpt>
      <trkpt lat="49.96585" lon="2.10523">
        <ele>11.9</ele>
        <time>2022-04-12T11:07:36Z</time>
      </trkpt>
      <trkpt lat="49.96586" lon="2.1052">
        <ele>11.9</ele>
        <time>2022-04-12T11:07:37Z</time>
      </trkpt>
      <trkpt lat="49.96586" lon="2.10519">
        <ele>11.8</ele>
        <time>2022-04-12T11:07:38Z</time>
      </trkpt>
      <trkpt lat="49.96587" lon="2.10518">
        <ele>11.8</ele>
        <time>2022-04-12T11:07:39Z</time>
      </trkpt>
      <trkpt lat="49.96588" lon="2.10516">
        <ele>11.8</ele>
        <time>2022-04-12T11:07:40Z</time>
      </trkpt>
      <trkpt lat="49.96589" lon="2.10514">
        <ele>11.8</ele>
        <time>2022-04-12T11:07:41Z</time>
      </trkpt>
      <trkpt lat="49.9659" lon="2.10513">
        <ele>11.8</ele>
        <time>2022-04-12T11:07:42Z</time>
      </trkpt>
      <trkpt lat="49.96591" lon="2.10511">
        <ele>11.7</ele>
        <time>2022-04-12T11:07:43Z</time>
      </trkpt>
      <trkpt lat="49.96592" lon="2.10507">
        <ele>11.7</ele>
        <time>2022-04-12T11:07:45Z</time>
      </trkpt>
      <trkpt lat="49.96593" lon="2.10506">
        <ele>11.7</ele>
        <time>2022-04-12T11:07:46Z</time>
      </trkpt>
      <trkpt lat="49.96594" lon="2.10505">
        <ele>11.7</ele>
        <time>2022-04-12T11:07:47Z</time>
      </trkpt>
      <trkpt lat="49.96595" lon="2.10503">
        <ele>11.7</ele>
        <time>2022-04-12T11:07:48Z</time>
      </trkpt>
      <trkpt lat="49.96596" lon="2.105">
        <ele>11.6</ele>
        <time>2022-04-12T11:07:49Z</time>
      </trkpt>
      <trkpt lat="49.96596" lon="2.10498">
        <ele>11.6</ele>
        <time>2022-04-12T11:07:50Z</time>
      </trkpt>
      <trkpt lat="49.96598" lon="2.10495">
        <ele>11.6</ele>
        <time>2022-04-12T11:07:51Z</time>
      </trkpt>
      <trkpt lat="49.96599" lon="2.10493">
        <ele>11.6</ele>
        <time>2022-04-12T11:07:53Z</time>
      </trkpt>
      <trkpt lat="49.966" lon="2.10491">
        <ele>11.6</ele>
        <time>2022-04-12T11:07:54Z</time>
      </trkpt>
      <trkpt lat="49.966" lon="2.1049">
        <ele>11.6</ele>
        <time>2022-04-12T11:07:55Z</time>
      </trkpt>
      <trkpt lat="49.96601" lon="2.10488">
        <ele>11.6</ele>
        <time>2022-04-12T11:07:56Z</time>
      </trkpt>
      <trkpt lat="49.96602" lon="2.10486">
        <ele>11.6</ele>
        <time>2022-04-12T11:07:57Z</time>
      </trkpt>
      <trkpt lat="49.96603" lon="2.10484">
        <ele>11.5</ele>
        <time>2022-04-12T11:07:58Z</time>
      </trkpt>
      <trkpt lat="49.96604" lon="2.10482">
        <ele>11.5</ele>
        <time>2022-04-12T11:07:59Z</time>
      </trkpt>
      <trkpt lat="49.96605" lon="2.10481">
        <ele>11.5</ele>
        <time>2022-04-12T11:08:01Z</time>
      </trkpt>
      <trkpt lat="49.96607" lon="2.10478">
        <ele>11.5</ele>
        <time>2022-04-12T11:08:02Z</time>
      </trkpt>
      <trkpt lat="49.96608" lon="2.10476">
        <ele>11.5</ele>
        <time>2022-04-12T11:08:03Z</time>
      </trkpt>
      <trkpt lat="49.96609" lon="2.10474">
        <ele>11.5</ele>
        <time>2022-04-12T11:08:04Z</time>
      </trkpt>
      <trkpt lat="49.9661" lon="2.10472">
        <ele>11.5</ele>
        <time>2022-04-12T11:08:05Z</time>
      </trkpt>
      <trkpt lat="49.96611" lon="2.1047">
        <ele>11.5</ele>
        <time>2022-04-12T11:08:07Z</time>
      </trkpt>
      <trkpt lat="49.96612" lon="2.10469">
        <ele>11.5</ele>
        <time>2022-04-12T11:08:08Z</time>
      </trkpt>
      <trkpt lat="49.96613" lon="2.10467">
        <ele>11.5</ele>
        <time>2022-04-12T11:08:09Z</time>
      </trkpt>
      <trkpt lat="49.96614" lon="2.10466">
        <ele>11.5</ele>
        <time>2022-04-12T11:08:10Z</time>
      </trkpt>
      <trkpt lat="49.96615" lon="2.10465">
        <ele>11.5</ele>
        <time>2022-04-12T11:08:11Z</time>
      </trkpt>
      <trkpt lat="49.96616" lon="2.10464">
        <ele>11.5</ele>
        <time>2022-04-12T11:08:12Z</time>
      </trkpt>
      <trkpt lat="49.96617" lon="2.10463">
        <ele>11.5</ele>
        <time>2022-04-12T11:08:14Z</time>
      </trkpt>
      <trkpt lat="49.96617" lon="2.10462">
        <ele>11.5</ele>
        <time>2022-04-12T11:08:15Z</time>
      </trkpt>
      <trkpt lat="49.96618" lon="2.10461">
        <ele>11.5</ele>
        <time>2022-04-12T11:08:16Z</time>
      </trkpt>
      <trkpt lat="49.96619" lon="2.1046">
        <ele>11.5</ele>
        <time>2022-04-12T11:08:17Z</time>
      </trkpt>
      <trkpt lat="49.96619" lon="2.10459">
        <ele>11.5</ele>
        <time>2022-04-12T11:08:18Z</time>
      </trkpt>
      <trkpt lat="49.96621" lon="2.10456">
        <ele>11.5</ele>
        <time>2022-04-12T11:08:20Z</time>
      </trkpt>
      <trkpt lat="49.96621" lon="2.10455">
        <ele>11.5</ele>
        <time>2022-04-12T11:08:21Z</time>
      </trkpt>
      <trkpt lat="49.96622" lon="2.10454">
        <ele>11.5</ele>
        <time>2022-04-12T11:08:22Z</time>
      </trkpt>
      <trkpt lat="49.96622" lon="2.10453">
        <ele>11.5</ele>
        <time>2022-04-12T11:08:23Z</time>
      </trkpt>
      <trkpt lat="49.96623" lon="2.10452">
        <ele>11.5</ele>
        <time>2022-04-12T11:08:24Z</time>
      </trkpt>
      <trkpt lat="49.96624" lon="2.10451">
        <ele>11.5</ele>
        <time>2022-04-12T11:08:25Z</time>
      </trkpt>
      <trkpt lat="49.96624" lon="2.10449">
        <ele>11.5</ele>
        <time>2022-04-12T11:08:26Z</time>
      </trkpt>
      <trkpt lat="49.96625" lon="2.10448">
        <ele>11.5</ele>
        <time>2022-04-12T11:08:27Z</time>
      </trkpt>
      <trkpt lat="49.96625" lon="2.10447">
        <ele>11.5</ele>
        <time>2022-04-12T11:08:28Z</time>
      </trkpt>
      <trkpt lat="49.96625" lon="2.10446">
        <ele>11.5</ele>
        <time>2022-04-12T11:08:29Z</time>
      </trkpt>
      <trkpt lat="49.96626" lon="2.10445">
        <ele>11.5</ele>
        <time>2022-04-12T11:08:31Z</time>
      </trkpt>
      <trkpt lat="49.96626" lon="2.10444">
        <ele>11.5</ele>
        <time>2022-04-12T11:08:32Z</time>
      </trkpt>
      <trkpt lat="49.96627" lon="2.10443">
        <ele>11.5</ele>
        <time>2022-04-12T11:08:33Z</time>
      </trkpt>
      <trkpt lat="49.96628" lon="2.10442">
        <ele>11.5</ele>
        <time>2022-04-12T11:08:34Z</time>
      </trkpt>
      <trkpt lat="49.96628" lon="2.10441">
        <ele>11.5</ele>
        <time>2022-04-12T11:08:35Z</time>
      </trkpt>
      <trkpt lat="49.96629" lon="2.1044">
        <ele>11.5</ele>
        <time>2022-04-12T11:08:36Z</time>
      </trkpt>
      <trkpt lat="49.9663" lon="2.10438">
        <ele>11.5</ele>
        <time>2022-04-12T11:08:37Z</time>
      </trkpt>
      <trkpt lat="49.96631" lon="2.10437">
        <ele>11.5</ele>
        <time>2022-04-12T11:08:38Z</time>
      </trkpt>
      <trkpt lat="49.96632" lon="2.10436">
        <ele>11.5</ele>
        <time>2022-04-12T11:08:40Z</time>
      </trkpt>
      <trkpt lat="49.96632" lon="2.10435">
        <ele>11.5</ele>
        <time>2022-04-12T11:08:41Z</time>
      </trkpt>
      <trkpt lat="49.96633" lon="2.10434">
        <ele>11.5</ele>
        <time>2022-04-12T11:08:42Z</time>
      </trkpt>
      <trkpt lat="49.96634" lon="2.10433">
        <ele>11.5</ele>
        <time>2022-04-12T11:08:43Z</time>
      </trkpt>
      <trkpt lat="49.96635" lon="2.10432">
        <ele>11.5</ele>
        <time>2022-04-12T11:08:45Z</time>
      </trkpt>
      <trkpt lat="49.96635" lon="2.10431">
        <ele>11.5</ele>
        <time>2022-04-12T11:08:46Z</time>
      </trkpt>
      <trkpt lat="49.96636" lon="2.1043">
        <ele>11.5</ele>
        <time>2022-04-12T11:08:47Z</time>
      </trkpt>
      <trkpt lat="49.96637" lon="2.10429">
        <ele>11.5</ele>
        <time>2022-04-12T11:08:48Z</time>
      </trkpt>
      <trkpt lat="49.96638" lon="2.10428">
        <ele>11.5</ele>
        <time>2022-04-12T11:08:49Z</time>
      </trkpt>
      <trkpt lat="49.96638" lon="2.10427">
        <ele>11.5</ele>
        <time>2022-04-12T11:08:50Z</time>
      </trkpt>
      <trkpt lat="49.96639" lon="2.10426">
        <ele>11.5</ele>
        <time>2022-04-12T11:08:51Z</time>
      </trkpt>
      <trkpt lat="49.9664" lon="2.10424">
        <ele>11.5</ele>
        <time>2022-04-12T11:08:52Z</time>
      </trkpt>
      <trkpt lat="49.96641" lon="2.10423">
        <ele>11.5</ele>
        <time>2022-04-12T11:08:53Z</time>
      </trkpt>
      <trkpt lat="49.96642" lon="2.10422">
        <ele>11.5</ele>
        <time>2022-04-12T11:08:55Z</time>
      </trkpt>
      <trkpt lat="49.96643" lon="2.10421">
        <ele>11.5</ele>
        <time>2022-04-12T11:08:56Z</time>
      </trkpt>
      <trkpt lat="49.96644" lon="2.1042">
        <ele>11.6</ele>
        <time>2022-04-12T11:08:57Z</time>
      </trkpt>
      <trkpt lat="49.96645" lon="2.10418">
        <ele>11.6</ele>
        <time>2022-04-12T11:08:58Z</time>
      </trkpt>
      <trkpt lat="49.96646" lon="2.10417">
        <ele>11.6</ele>
        <time>2022-04-12T11:08:59Z</time>
      </trkpt>
      <trkpt lat="49.96647" lon="2.10416">
        <ele>11.6</ele>
        <time>2022-04-12T11:09:00Z</time>
      </trkpt>
      <trkpt lat="49.96647" lon="2.10416">
        <ele>11.6</ele>
        <time>2022-04-12T11:09:01Z</time>
      </trkpt>
      <trkpt lat="49.96649" lon="2.10414">
        <ele>11.6</ele>
        <time>2022-04-12T11:09:03Z</time>
      </trkpt>
      <trkpt lat="49.9665" lon="2.10413">
        <ele>11.6</ele>
        <time>2022-04-12T11:09:04Z</time>
      </trkpt>
      <trkpt lat="49.96651" lon="2.10412">
        <ele>11.6</ele>
        <time>2022-04-12T11:09:05Z</time>
      </trkpt>
      <trkpt lat="49.96651" lon="2.1041">
        <ele>11.6</ele>
        <time>2022-04-12T11:09:06Z</time>
      </trkpt>
      <trkpt lat="49.96652" lon="2.10409">
        <ele>11.6</ele>
        <time>2022-04-12T11:09:07Z</time>
      </trkpt>
      <trkpt lat="49.96653" lon="2.10406">
        <ele>11.7</ele>
        <time>2022-04-12T11:09:08Z</time>
      </trkpt>
      <trkpt lat="49.96653" lon="2.10405">
        <ele>11.7</ele>
        <time>2022-04-12T11:09:09Z</time>
      </trkpt>
      <trkpt lat="49.96654" lon="2.10403">
        <ele>11.7</ele>
        <time>2022-04-12T11:09:10Z</time>
      </trkpt>
      <trkpt lat="49.96655" lon="2.10401">
        <ele>11.7</ele>
        <time>2022-04-12T11:09:11Z</time>
      </trkpt>
      <trkpt lat="49.96655" lon="2.10399">
        <ele>11.7</ele>
        <time>2022-04-12T11:09:13Z</time>
      </trkpt>
      <trkpt lat="49.96655" lon="2.10398">
        <ele>11.7</ele>
        <time>2022-04-12T11:09:14Z</time>
      </trkpt>
      <trkpt lat="49.96655" lon="2.10395">
        <ele>11.8</ele>
        <time>2022-04-12T11:09:15Z</time>
      </trkpt>
      <trkpt lat="49.96656" lon="2.10393">
        <ele>11.8</ele>
        <time>2022-04-12T11:09:16Z</time>
      </trkpt>
      <trkpt lat="49.96656" lon="2.10392">
        <ele>11.8</ele>
        <time>2022-04-12T11:09:17Z</time>
      </trkpt>
      <trkpt lat="49.96656" lon="2.1039">
        <ele>11.8</ele>
        <time>2022-04-12T11:09:18Z</time>
      </trkpt>
      <trkpt lat="49.96656" lon="2.10388">
        <ele>11.8</ele>
        <time>2022-04-12T11:09:19Z</time>
      </trkpt>
      <trkpt lat="49.96657" lon="2.10387">
        <ele>11.8</ele>
        <time>2022-04-12T11:09:20Z</time>
      </trkpt>
      <trkpt lat="49.96657" lon="2.10385">
        <ele>11.8</ele>
        <time>2022-04-12T11:09:21Z</time>
      </trkpt>
      <trkpt lat="49.96658" lon="2.10383">
        <ele>11.9</ele>
        <time>2022-04-12T11:09:22Z</time>
      </trkpt>
      <trkpt lat="49.96659" lon="2.1038">
        <ele>11.9</ele>
        <time>2022-04-12T11:09:23Z</time>
      </trkpt>
      <trkpt lat="49.96659" lon="2.10378">
        <ele>11.9</ele>
        <time>2022-04-12T11:09:25Z</time>
      </trkpt>
      <trkpt lat="49.96659" lon="2.10377">
        <ele>11.9</ele>
        <time>2022-04-12T11:09:26Z</time>
      </trkpt>
      <trkpt lat="49.9666" lon="2.10376">
        <ele>11.9</ele>
        <time>2022-04-12T11:09:27Z</time>
      </trkpt>
      <trkpt lat="49.9666" lon="2.10374">
        <ele>11.9</ele>
        <time>2022-04-12T11:09:28Z</time>
      </trkpt>
      <trkpt lat="49.96661" lon="2.10373">
        <ele>11.9</ele>
        <time>2022-04-12T11:09:29Z</time>
      </trkpt>
      <trkpt lat="49.96661" lon="2.10372">
        <ele>11.9</ele>
        <time>2022-04-12T11:09:30Z</time>
      </trkpt>
      <trkpt lat="49.96662" lon="2.1037">
        <ele>11.9</ele>
        <time>2022-04-12T11:09:31Z</time>
      </trkpt>
      <trkpt lat="49.96663" lon="2.10369">
        <ele>11.9</ele>
        <time>2022-04-12T11:09:32Z</time>
      </trkpt>
      <trkpt lat="49.96664" lon="2.10366">
        <ele>11.9</ele>
        <time>2022-04-12T11:09:33Z</time>
      </trkpt>
      <trkpt lat="49.96665" lon="2.10365">
        <ele>11.9</ele>
        <time>2022-04-12T11:09:35Z</time>
      </trkpt>
      <trkpt lat="49.96666" lon="2.10364">
        <ele>11.9</ele>
        <time>2022-04-12T11:09:36Z</time>
      </trkpt>
      <trkpt lat="49.96666" lon="2.10362">
        <ele>11.9</ele>
        <time>2022-04-12T11:09:37Z</time>
      </trkpt>
      <trkpt lat="49.96667" lon="2.10361">
        <ele>12</ele>
        <time>2022-04-12T11:09:38Z</time>
      </trkpt>
      <trkpt lat="49.96668" lon="2.10358">
        <ele>12</ele>
        <time>2022-04-12T11:09:39Z</time>
      </trkpt>
      <trkpt lat="49.96669" lon="2.10357">
        <ele>12</ele>
        <time>2022-04-12T11:09:41Z</time>
      </trkpt>
      <trkpt lat="49.96669" lon="2.10356">
        <ele>12</ele>
        <time>2022-04-12T11:09:42Z</time>
      </trkpt>
      <trkpt lat="49.9667" lon="2.10355">
        <ele>12</ele>
        <time>2022-04-12T11:09:43Z</time>
      </trkpt>
      <trkpt lat="49.96671" lon="2.10353">
        <ele>12</ele>
        <time>2022-04-12T11:09:44Z</time>
      </trkpt>
      <trkpt lat="49.96672" lon="2.1035">
        <ele>12</ele>
        <time>2022-04-12T11:09:45Z</time>
      </trkpt>
      <trkpt lat="49.96672" lon="2.10349">
        <ele>12</ele>
        <time>2022-04-12T11:09:46Z</time>
      </trkpt>
      <trkpt lat="49.96673" lon="2.10348">
        <ele>12</ele>
        <time>2022-04-12T11:09:47Z</time>
      </trkpt>
      <trkpt lat="49.96674" lon="2.10345">
        <ele>12</ele>
        <time>2022-04-12T11:09:48Z</time>
      </trkpt>
      <trkpt lat="49.96674" lon="2.10343">
        <ele>12</ele>
        <time>2022-04-12T11:09:49Z</time>
      </trkpt>
      <trkpt lat="49.96675" lon="2.10342">
        <ele>12</ele>
        <time>2022-04-12T11:09:50Z</time>
      </trkpt>
      <trkpt lat="49.96676" lon="2.10339">
        <ele>12</ele>
        <time>2022-04-12T11:09:51Z</time>
      </trkpt>
      <trkpt lat="49.96676" lon="2.10338">
        <ele>12</ele>
        <time>2022-04-12T11:09:53Z</time>
      </trkpt>
      <trkpt lat="49.96677" lon="2.10336">
        <ele>12</ele>
        <time>2022-04-12T11:09:54Z</time>
      </trkpt>
      <trkpt lat="49.96677" lon="2.10335">
        <ele>12</ele>
        <time>2022-04-12T11:09:55Z</time>
      </trkpt>
      <trkpt lat="49.96678" lon="2.10334">
        <ele>12</ele>
        <time>2022-04-12T11:09:56Z</time>
      </trkpt>
      <trkpt lat="49.96678" lon="2.10332">
        <ele>12</ele>
        <time>2022-04-12T11:09:57Z</time>
      </trkpt>
      <trkpt lat="49.96679" lon="2.10331">
        <ele>12</ele>
        <time>2022-04-12T11:09:58Z</time>
      </trkpt>
      <trkpt lat="49.96679" lon="2.10329">
        <ele>12</ele>
        <time>2022-04-12T11:09:59Z</time>
      </trkpt>
      <trkpt lat="49.96681" lon="2.10325">
        <ele>12</ele>
        <time>2022-04-12T11:10:01Z</time>
      </trkpt>
      <trkpt lat="49.96681" lon="2.10323">
        <ele>12</ele>
        <time>2022-04-12T11:10:02Z</time>
      </trkpt>
      <trkpt lat="49.96682" lon="2.10321">
        <ele>12</ele>
        <time>2022-04-12T11:10:03Z</time>
      </trkpt>
      <trkpt lat="49.96683" lon="2.10319">
        <ele>12</ele>
        <time>2022-04-12T11:10:05Z</time>
      </trkpt>
      <trkpt lat="49.96683" lon="2.10317">
        <ele>12</ele>
        <time>2022-04-12T11:10:06Z</time>
      </trkpt>
      <trkpt lat="49.96684" lon="2.10315">
        <ele>12</ele>
        <time>2022-04-12T11:10:07Z</time>
      </trkpt>
      <trkpt lat="49.96685" lon="2.10313">
        <ele>12</ele>
        <time>2022-04-12T11:10:08Z</time>
      </trkpt>
      <trkpt lat="49.96685" lon="2.10312">
        <ele>12</ele>
        <time>2022-04-12T11:10:09Z</time>
      </trkpt>
      <trkpt lat="49.96686" lon="2.10311">
        <ele>12</ele>
        <time>2022-04-12T11:10:10Z</time>
      </trkpt>
      <trkpt lat="49.96686" lon="2.1031">
        <ele>12</ele>
        <time>2022-04-12T11:10:11Z</time>
      </trkpt>
      <trkpt lat="49.96687" lon="2.10308">
        <ele>12</ele>
        <time>2022-04-12T11:10:12Z</time>
      </trkpt>
      <trkpt lat="49.96688" lon="2.10305">
        <ele>12</ele>
        <time>2022-04-12T11:10:13Z</time>
      </trkpt>
      <trkpt lat="49.96689" lon="2.10304">
        <ele>12</ele>
        <time>2022-04-12T11:10:14Z</time>
      </trkpt>
      <trkpt lat="49.96689" lon="2.10303">
        <ele>12</ele>
        <time>2022-04-12T11:10:15Z</time>
      </trkpt>
      <trkpt lat="49.9669" lon="2.103">
        <ele>12</ele>
        <time>2022-04-12T11:10:17Z</time>
      </trkpt>
      <trkpt lat="49.96691" lon="2.10299">
        <ele>12</ele>
        <time>2022-04-12T11:10:18Z</time>
      </trkpt>
      <trkpt lat="49.96691" lon="2.10298">
        <ele>12</ele>
        <time>2022-04-12T11:10:19Z</time>
      </trkpt>
      <trkpt lat="49.96692" lon="2.10296">
        <ele>12</ele>
        <time>2022-04-12T11:10:20Z</time>
      </trkpt>
      <trkpt lat="49.96692" lon="2.10295">
        <ele>12</ele>
        <time>2022-04-12T11:10:21Z</time>
      </trkpt>
      <trkpt lat="49.96693" lon="2.10293">
        <ele>12</ele>
        <time>2022-04-12T11:10:22Z</time>
      </trkpt>
      <trkpt lat="49.96693" lon="2.10292">
        <ele>12</ele>
        <time>2022-04-12T11:10:23Z</time>
      </trkpt>
      <trkpt lat="49.96694" lon="2.1029">
        <ele>12</ele>
        <time>2022-04-12T11:10:24Z</time>
      </trkpt>
      <trkpt lat="49.96694" lon="2.10289">
        <ele>12</ele>
        <time>2022-04-12T11:10:25Z</time>
      </trkpt>
      <trkpt lat="49.96695" lon="2.10287">
        <ele>12</ele>
        <time>2022-04-12T11:10:26Z</time>
      </trkpt>
      <trkpt lat="49.96695" lon="2.10285">
        <ele>12</ele>
        <time>2022-04-12T11:10:27Z</time>
      </trkpt>
      <trkpt lat="49.96696" lon="2.10283">
        <ele>12</ele>
        <time>2022-04-12T11:10:29Z</time>
      </trkpt>
      <trkpt lat="49.96697" lon="2.1028">
        <ele>12</ele>
        <time>2022-04-12T11:10:30Z</time>
      </trkpt>
      <trkpt lat="49.96697" lon="2.10279">
        <ele>12</ele>
        <time>2022-04-12T11:10:31Z</time>
      </trkpt>
      <trkpt lat="49.96698" lon="2.10278">
        <ele>12</ele>
        <time>2022-04-12T11:10:32Z</time>
      </trkpt>
      <trkpt lat="49.96699" lon="2.10274">
        <ele>12</ele>
        <time>2022-04-12T11:10:33Z</time>
      </trkpt>
      <trkpt lat="49.96699" lon="2.10273">
        <ele>12</ele>
        <time>2022-04-12T11:10:35Z</time>
      </trkpt>
      <trkpt lat="49.967" lon="2.10272">
        <ele>12</ele>
        <time>2022-04-12T11:10:36Z</time>
      </trkpt>
      <trkpt lat="49.967" lon="2.1027">
        <ele>12</ele>
        <time>2022-04-12T11:10:37Z</time>
      </trkpt>
      <trkpt lat="49.96701" lon="2.10269">
        <ele>12</ele>
        <time>2022-04-12T11:10:38Z</time>
      </trkpt>
      <trkpt lat="49.96702" lon="2.10266">
        <ele>12</ele>
        <time>2022-04-12T11:10:39Z</time>
      </trkpt>
      <trkpt lat="49.96702" lon="2.10265">
        <ele>12.1</ele>
        <time>2022-04-12T11:10:40Z</time>
      </trkpt>
      <trkpt lat="49.96703" lon="2.10264">
        <ele>12.1</ele>
        <time>2022-04-12T11:10:41Z</time>
      </trkpt>
      <trkpt lat="49.96704" lon="2.10261">
        <ele>12.1</ele>
        <time>2022-04-12T11:10:42Z</time>
      </trkpt>
      <trkpt lat="49.96704" lon="2.1026">
        <ele>12.1</ele>
        <time>2022-04-12T11:10:43Z</time>
      </trkpt>
      <trkpt lat="49.96705" lon="2.10259">
        <ele>12.1</ele>
        <time>2022-04-12T11:10:44Z</time>
      </trkpt>
      <trkpt lat="49.96705" lon="2.10257">
        <ele>12.1</ele>
        <time>2022-04-12T11:10:45Z</time>
      </trkpt>
      <trkpt lat="49.96706" lon="2.10255">
        <ele>12.1</ele>
        <time>2022-04-12T11:10:46Z</time>
      </trkpt>
      <trkpt lat="49.96707" lon="2.10254">
        <ele>12.1</ele>
        <time>2022-04-12T11:10:48Z</time>
      </trkpt>
      <trkpt lat="49.96708" lon="2.10251">
        <ele>12.1</ele>
        <time>2022-04-12T11:10:49Z</time>
      </trkpt>
      <trkpt lat="49.96708" lon="2.1025">
        <ele>12.1</ele>
        <time>2022-04-12T11:10:50Z</time>
      </trkpt>
      <trkpt lat="49.96709" lon="2.10249">
        <ele>12.1</ele>
        <time>2022-04-12T11:10:51Z</time>
      </trkpt>
      <trkpt lat="49.9671" lon="2.10247">
        <ele>12.1</ele>
        <time>2022-04-12T11:10:52Z</time>
      </trkpt>
      <trkpt lat="49.9671" lon="2.10245">
        <ele>12.1</ele>
        <time>2022-04-12T11:10:53Z</time>
      </trkpt>
      <trkpt lat="49.96711" lon="2.10243">
        <ele>12.1</ele>
        <time>2022-04-12T11:10:55Z</time>
      </trkpt>
      <trkpt lat="49.96712" lon="2.10241">
        <ele>12.1</ele>
        <time>2022-04-12T11:10:56Z</time>
      </trkpt>
      <trkpt lat="49.96712" lon="2.1024">
        <ele>12.1</ele>
        <time>2022-04-12T11:10:57Z</time>
      </trkpt>
      <trkpt lat="49.96713" lon="2.10239">
        <ele>12.1</ele>
        <time>2022-04-12T11:10:58Z</time>
      </trkpt>
      <trkpt lat="49.96714" lon="2.10237">
        <ele>12.1</ele>
        <time>2022-04-12T11:10:59Z</time>
      </trkpt>
      <trkpt lat="49.96715" lon="2.10236">
        <ele>12.1</ele>
        <time>2022-04-12T11:11:00Z</time>
      </trkpt>
      <trkpt lat="49.96716" lon="2.10234">
        <ele>12.1</ele>
        <time>2022-04-12T11:11:02Z</time>
      </trkpt>
      <trkpt lat="49.96717" lon="2.10231">
        <ele>12.1</ele>
        <time>2022-04-12T11:11:03Z</time>
      </trkpt>
      <trkpt lat="49.96718" lon="2.1023">
        <ele>12.1</ele>
        <time>2022-04-12T11:11:04Z</time>
      </trkpt>
      <trkpt lat="49.96718" lon="2.10229">
        <ele>12.1</ele>
        <time>2022-04-12T11:11:05Z</time>
      </trkpt>
      <trkpt lat="49.96719" lon="2.10227">
        <ele>12.1</ele>
        <time>2022-04-12T11:11:06Z</time>
      </trkpt>
      <trkpt lat="49.9672" lon="2.10225">
        <ele>12.1</ele>
        <time>2022-04-12T11:11:07Z</time>
      </trkpt>
      <trkpt lat="49.9672" lon="2.10223">
        <ele>12.1</ele>
        <time>2022-04-12T11:11:09Z</time>
      </trkpt>
      <trkpt lat="49.96721" lon="2.10221">
        <ele>12.1</ele>
        <time>2022-04-12T11:11:10Z</time>
      </trkpt>
      <trkpt lat="49.96721" lon="2.10219">
        <ele>12.1</ele>
        <time>2022-04-12T11:11:11Z</time>
      </trkpt>
      <trkpt lat="49.96722" lon="2.10218">
        <ele>12.1</ele>
        <time>2022-04-12T11:11:12Z</time>
      </trkpt>
      <trkpt lat="49.96722" lon="2.10216">
        <ele>12.1</ele>
        <time>2022-04-12T11:11:13Z</time>
      </trkpt>
      <trkpt lat="49.96723" lon="2.10215">
        <ele>12.1</ele>
        <time>2022-04-12T11:11:14Z</time>
      </trkpt>
      <trkpt lat="49.96724" lon="2.10213">
        <ele>12.1</ele>
        <time>2022-04-12T11:11:16Z</time>
      </trkpt>
      <trkpt lat="49.96724" lon="2.10212">
        <ele>12.1</ele>
        <time>2022-04-12T11:11:17Z</time>
      </trkpt>
      <trkpt lat="49.96725" lon="2.1021">
        <ele>12.1</ele>
        <time>2022-04-12T11:11:18Z</time>
      </trkpt>
      <trkpt lat="49.96725" lon="2.10209">
        <ele>12.1</ele>
        <time>2022-04-12T11:11:19Z</time>
      </trkpt>
      <trkpt lat="49.96726" lon="2.10208">
        <ele>12.1</ele>
        <time>2022-04-12T11:11:20Z</time>
      </trkpt>
      <trkpt lat="49.96726" lon="2.10206">
        <ele>12.1</ele>
        <time>2022-04-12T11:11:21Z</time>
      </trkpt>
      <trkpt lat="49.96727" lon="2.10205">
        <ele>12.1</ele>
        <time>2022-04-12T11:11:22Z</time>
      </trkpt>
      <trkpt lat="49.96727" lon="2.10203">
        <ele>12.1</ele>
        <time>2022-04-12T11:11:23Z</time>
      </trkpt>
      <trkpt lat="49.96728" lon="2.10202">
        <ele>12.1</ele>
        <time>2022-04-12T11:11:25Z</time>
      </trkpt>
      <trkpt lat="49.96728" lon="2.102">
        <ele>12.1</ele>
        <time>2022-04-12T11:11:26Z</time>
      </trkpt>
      <trkpt lat="49.96729" lon="2.10199">
        <ele>12.1</ele>
        <time>2022-04-12T11:11:27Z</time>
      </trkpt>
      <trkpt lat="49.96729" lon="2.10198">
        <ele>12.1</ele>
        <time>2022-04-12T11:11:28Z</time>
      </trkpt>
      <trkpt lat="49.9673" lon="2.10196">
        <ele>12.1</ele>
        <time>2022-04-12T11:11:29Z</time>
      </trkpt>
      <trkpt lat="49.9673" lon="2.10195">
        <ele>12.1</ele>
        <time>2022-04-12T11:11:30Z</time>
      </trkpt>
      <trkpt lat="49.96731" lon="2.10193">
        <ele>12.1</ele>
        <time>2022-04-12T11:11:31Z</time>
      </trkpt>
      <trkpt lat="49.96731" lon="2.10191">
        <ele>12.1</ele>
        <time>2022-04-12T11:11:32Z</time>
      </trkpt>
      <trkpt lat="49.96731" lon="2.10189">
        <ele>12.1</ele>
        <time>2022-04-12T11:11:34Z</time>
      </trkpt>
      <trkpt lat="49.96731" lon="2.10186">
        <ele>12.1</ele>
        <time>2022-04-12T11:11:35Z</time>
      </trkpt>
      <trkpt lat="49.96732" lon="2.10185">
        <ele>12.1</ele>
        <time>2022-04-12T11:11:36Z</time>
      </trkpt>
      <trkpt lat="49.96732" lon="2.10183">
        <ele>12.1</ele>
        <time>2022-04-12T11:11:37Z</time>
      </trkpt>
      <trkpt lat="49.96733" lon="2.10182">
        <ele>12.1</ele>
        <time>2022-04-12T11:11:38Z</time>
      </trkpt>
      <trkpt lat="49.96733" lon="2.1018">
        <ele>12.1</ele>
        <time>2022-04-12T11:11:39Z</time>
      </trkpt>
      <trkpt lat="49.96734" lon="2.10179">
        <ele>12.1</ele>
        <time>2022-04-12T11:11:40Z</time>
      </trkpt>
      <trkpt lat="49.96734" lon="2.10177">
        <ele>12.1</ele>
        <time>2022-04-12T11:11:41Z</time>
      </trkpt>
      <trkpt lat="49.96735" lon="2.10176">
        <ele>12</ele>
        <time>2022-04-12T11:11:42Z</time>
      </trkpt>
      <trkpt lat="49.96735" lon="2.10174">
        <ele>12</ele>
        <time>2022-04-12T11:11:44Z</time>
      </trkpt>
      <trkpt lat="49.96736" lon="2.10173">
        <ele>12</ele>
        <time>2022-04-12T11:11:45Z</time>
      </trkpt>
      <trkpt lat="49.96736" lon="2.10171">
        <ele>12</ele>
        <time>2022-04-12T11:11:46Z</time>
      </trkpt>
      <trkpt lat="49.96737" lon="2.1017">
        <ele>12</ele>
        <time>2022-04-12T11:11:47Z</time>
      </trkpt>
      <trkpt lat="49.96738" lon="2.10168">
        <ele>12</ele>
        <time>2022-04-12T11:11:48Z</time>
      </trkpt>
      <trkpt lat="49.96738" lon="2.10166">
        <ele>12</ele>
        <time>2022-04-12T11:11:49Z</time>
      </trkpt>
      <trkpt lat="49.96739" lon="2.10165">
        <ele>12</ele>
        <time>2022-04-12T11:11:50Z</time>
      </trkpt>
      <trkpt lat="49.9674" lon="2.10162">
        <ele>12</ele>
        <time>2022-04-12T11:11:51Z</time>
      </trkpt>
      <trkpt lat="49.9674" lon="2.10161">
        <ele>12</ele>
        <time>2022-04-12T11:11:52Z</time>
      </trkpt>
      <trkpt lat="49.9674" lon="2.1016">
        <ele>12</ele>
        <time>2022-04-12T11:11:53Z</time>
      </trkpt>
      <trkpt lat="49.96741" lon="2.10157">
        <ele>12</ele>
        <time>2022-04-12T11:11:54Z</time>
      </trkpt>
      <trkpt lat="49.96741" lon="2.10155">
        <ele>12</ele>
        <time>2022-04-12T11:11:56Z</time>
      </trkpt>
      <trkpt lat="49.96741" lon="2.10154">
        <ele>12</ele>
        <time>2022-04-12T11:11:57Z</time>
      </trkpt>
      <trkpt lat="49.96741" lon="2.10153">
        <ele>12</ele>
        <time>2022-04-12T11:11:58Z</time>
      </trkpt>
      <trkpt lat="49.96742" lon="2.10151">
        <ele>12</ele>
        <time>2022-04-12T11:11:59Z</time>
      </trkpt>
      <trkpt lat="49.96742" lon="2.1015">
        <ele>12</ele>
        <time>2022-04-12T11:12:00Z</time>
      </trkpt>
      <trkpt lat="49.96743" lon="2.10148">
        <ele>12</ele>
        <time>2022-04-12T11:12:01Z</time>
      </trkpt>
      <trkpt lat="49.96744" lon="2.10145">
        <ele>12</ele>
        <time>2022-04-12T11:12:03Z</time>
      </trkpt>
      <trkpt lat="49.96744" lon="2.10143">
        <ele>12</ele>
        <time>2022-04-12T11:12:05Z</time>
      </trkpt>
      <trkpt lat="49.96745" lon="2.1014">
        <ele>12</ele>
        <time>2022-04-12T11:12:06Z</time>
      </trkpt>
      <trkpt lat="49.96746" lon="2.10138">
        <ele>12</ele>
        <time>2022-04-12T11:12:07Z</time>
      </trkpt>
      <trkpt lat="49.96746" lon="2.10136">
        <ele>12</ele>
        <time>2022-04-12T11:12:08Z</time>
      </trkpt>
      <trkpt lat="49.96746" lon="2.10135">
        <ele>12</ele>
        <time>2022-04-12T11:12:09Z</time>
      </trkpt>
      <trkpt lat="49.96747" lon="2.10134">
        <ele>12</ele>
        <time>2022-04-12T11:12:10Z</time>
      </trkpt>
      <trkpt lat="49.96747" lon="2.10132">
        <ele>12</ele>
        <time>2022-04-12T11:12:12Z</time>
      </trkpt>
      <trkpt lat="49.96747" lon="2.10131">
        <ele>12.1</ele>
        <time>2022-04-12T11:12:13Z</time>
      </trkpt>
      <trkpt lat="49.96747" lon="2.10129">
        <ele>12.1</ele>
        <time>2022-04-12T11:12:14Z</time>
      </trkpt>
      <trkpt lat="49.96747" lon="2.10127">
        <ele>12.1</ele>
        <time>2022-04-12T11:12:15Z</time>
      </trkpt>
      <trkpt lat="49.96747" lon="2.10125">
        <ele>12.1</ele>
        <time>2022-04-12T11:12:16Z</time>
      </trkpt>
      <trkpt lat="49.96748" lon="2.10122">
        <ele>12.1</ele>
        <time>2022-04-12T11:12:18Z</time>
      </trkpt>
      <trkpt lat="49.96748" lon="2.1012">
        <ele>12.1</ele>
        <time>2022-04-12T11:12:19Z</time>
      </trkpt>
      <trkpt lat="49.96749" lon="2.10118">
        <ele>12.1</ele>
        <time>2022-04-12T11:12:20Z</time>
      </trkpt>
      <trkpt lat="49.96749" lon="2.10116">
        <ele>12.1</ele>
        <time>2022-04-12T11:12:21Z</time>
      </trkpt>
      <trkpt lat="49.96749" lon="2.10115">
        <ele>12.1</ele>
        <time>2022-04-12T11:12:22Z</time>
      </trkpt>
      <trkpt lat="49.9675" lon="2.10112">
        <ele>12.1</ele>
        <time>2022-04-12T11:12:23Z</time>
      </trkpt>
      <trkpt lat="49.9675" lon="2.10111">
        <ele>12.1</ele>
        <time>2022-04-12T11:12:24Z</time>
      </trkpt>
      <trkpt lat="49.9675" lon="2.1011">
        <ele>12.1</ele>
        <time>2022-04-12T11:12:25Z</time>
      </trkpt>
      <trkpt lat="49.96751" lon="2.10107">
        <ele>12.2</ele>
        <time>2022-04-12T11:12:26Z</time>
      </trkpt>
      <trkpt lat="49.96752" lon="2.10105">
        <ele>12.2</ele>
        <time>2022-04-12T11:12:28Z</time>
      </trkpt>
      <trkpt lat="49.96752" lon="2.10104">
        <ele>12.2</ele>
        <time>2022-04-12T11:12:29Z</time>
      </trkpt>
      <trkpt lat="49.96753" lon="2.10102">
        <ele>12.2</ele>
        <time>2022-04-12T11:12:30Z</time>
      </trkpt>
      <trkpt lat="49.96754" lon="2.10101">
        <ele>12.2</ele>
        <time>2022-04-12T11:12:31Z</time>
      </trkpt>
      <trkpt lat="49.96754" lon="2.101">
        <ele>12.2</ele>
        <time>2022-04-12T11:12:32Z</time>
      </trkpt>
      <trkpt lat="49.96755" lon="2.10099">
        <ele>12.2</ele>
        <time>2022-04-12T11:12:33Z</time>
      </trkpt>
      <trkpt lat="49.96756" lon="2.10098">
        <ele>12.2</ele>
        <time>2022-04-12T11:12:34Z</time>
      </trkpt>
      <trkpt lat="49.96756" lon="2.10096">
        <ele>12.2</ele>
        <time>2022-04-12T11:12:35Z</time>
      </trkpt>
      <trkpt lat="49.96757" lon="2.10095">
        <ele>12.2</ele>
        <time>2022-04-12T11:12:36Z</time>
      </trkpt>
      <trkpt lat="49.96758" lon="2.10093">
        <ele>12.2</ele>
        <time>2022-04-12T11:12:37Z</time>
      </trkpt>
      <trkpt lat="49.96758" lon="2.10091">
        <ele>12.2</ele>
        <time>2022-04-12T11:12:39Z</time>
      </trkpt>
      <trkpt lat="49.96759" lon="2.10089">
        <ele>12.3</ele>
        <time>2022-04-12T11:12:40Z</time>
      </trkpt>
      <trkpt lat="49.9676" lon="2.10088">
        <ele>12.3</ele>
        <time>2022-04-12T11:12:41Z</time>
      </trkpt>
      <trkpt lat="49.9676" lon="2.10087">
        <ele>12.3</ele>
        <time>2022-04-12T11:12:42Z</time>
      </trkpt>
      <trkpt lat="49.96761" lon="2.10085">
        <ele>12.3</ele>
        <time>2022-04-12T11:12:43Z</time>
      </trkpt>
      <trkpt lat="49.96761" lon="2.10084">
        <ele>12.3</ele>
        <time>2022-04-12T11:12:44Z</time>
      </trkpt>
      <trkpt lat="49.96762" lon="2.10082">
        <ele>12.3</ele>
        <time>2022-04-12T11:12:45Z</time>
      </trkpt>
      <trkpt lat="49.96763" lon="2.10081">
        <ele>12.3</ele>
        <time>2022-04-12T11:12:46Z</time>
      </trkpt>
      <trkpt lat="49.96763" lon="2.10079">
        <ele>12.3</ele>
        <time>2022-04-12T11:12:47Z</time>
      </trkpt>
      <trkpt lat="49.96764" lon="2.10077">
        <ele>12.3</ele>
        <time>2022-04-12T11:12:49Z</time>
      </trkpt>
      <trkpt lat="49.96765" lon="2.10074">
        <ele>12.3</ele>
        <time>2022-04-12T11:12:50Z</time>
      </trkpt>
      <trkpt lat="49.96765" lon="2.10073">
        <ele>12.3</ele>
        <time>2022-04-12T11:12:51Z</time>
      </trkpt>
      <trkpt lat="49.96765" lon="2.10072">
        <ele>12.3</ele>
        <time>2022-04-12T11:12:52Z</time>
      </trkpt>
      <trkpt lat="49.96766" lon="2.10069">
        <ele>12.3</ele>
        <time>2022-04-12T11:12:53Z</time>
      </trkpt>
      <trkpt lat="49.96767" lon="2.10068">
        <ele>12.3</ele>
        <time>2022-04-12T11:12:54Z</time>
      </trkpt>
      <trkpt lat="49.96767" lon="2.10067">
        <ele>12.3</ele>
        <time>2022-04-12T11:12:55Z</time>
      </trkpt>
      <trkpt lat="49.96768" lon="2.10065">
        <ele>12.3</ele>
        <time>2022-04-12T11:12:56Z</time>
      </trkpt>
      <trkpt lat="49.96768" lon="2.10063">
        <ele>12.3</ele>
        <time>2022-04-12T11:12:57Z</time>
      </trkpt>
      <trkpt lat="49.96768" lon="2.10061">
        <ele>12.3</ele>
        <time>2022-04-12T11:12:58Z</time>
      </trkpt>
      <trkpt lat="49.96769" lon="2.1006">
        <ele>12.3</ele>
        <time>2022-04-12T11:12:59Z</time>
      </trkpt>
      <trkpt lat="49.96769" lon="2.10058">
        <ele>12.3</ele>
        <time>2022-04-12T11:13:01Z</time>
      </trkpt>
      <trkpt lat="49.96769" lon="2.10056">
        <ele>12.3</ele>
        <time>2022-04-12T11:13:02Z</time>
      </trkpt>
      <trkpt lat="49.9677" lon="2.10054">
        <ele>12.3</ele>
        <time>2022-04-12T11:13:03Z</time>
      </trkpt>
      <trkpt lat="49.96771" lon="2.10053">
        <ele>12.3</ele>
        <time>2022-04-12T11:13:04Z</time>
      </trkpt>
      <trkpt lat="49.96771" lon="2.10051">
        <ele>12.3</ele>
        <time>2022-04-12T11:13:05Z</time>
      </trkpt>
      <trkpt lat="49.96771" lon="2.1005">
        <ele>12.3</ele>
        <time>2022-04-12T11:13:06Z</time>
      </trkpt>
      <trkpt lat="49.96772" lon="2.10048">
        <ele>12.3</ele>
        <time>2022-04-12T11:13:07Z</time>
      </trkpt>
      <trkpt lat="49.96772" lon="2.10047">
        <ele>12.3</ele>
        <time>2022-04-12T11:13:08Z</time>
      </trkpt>
      <trkpt lat="49.96773" lon="2.10045">
        <ele>12.3</ele>
        <time>2022-04-12T11:13:09Z</time>
      </trkpt>
      <trkpt lat="49.96773" lon="2.10043">
        <ele>12.3</ele>
        <time>2022-04-12T11:13:10Z</time>
      </trkpt>
      <trkpt lat="49.96774" lon="2.10041">
        <ele>12.3</ele>
        <time>2022-04-12T11:13:12Z</time>
      </trkpt>
      <trkpt lat="49.96775" lon="2.10039">
        <ele>12.3</ele>
        <time>2022-04-12T11:13:13Z</time>
      </trkpt>
      <trkpt lat="49.96775" lon="2.10036">
        <ele>12.3</ele>
        <time>2022-04-12T11:13:15Z</time>
      </trkpt>
      <trkpt lat="49.96776" lon="2.10034">
        <ele>12.3</ele>
        <time>2022-04-12T11:13:16Z</time>
      </trkpt>
      <trkpt lat="49.96776" lon="2.10032">
        <ele>12.3</ele>
        <time>2022-04-12T11:13:17Z</time>
      </trkpt>
      <trkpt lat="49.96777" lon="2.10029">
        <ele>12.3</ele>
        <time>2022-04-12T11:13:18Z</time>
      </trkpt>
      <trkpt lat="49.96777" lon="2.10028">
        <ele>12.3</ele>
        <time>2022-04-12T11:13:19Z</time>
      </trkpt>
      <trkpt lat="49.96778" lon="2.10026">
        <ele>12.3</ele>
        <time>2022-04-12T11:13:20Z</time>
      </trkpt>
      <trkpt lat="49.96779" lon="2.10023">
        <ele>12.3</ele>
        <time>2022-04-12T11:13:21Z</time>
      </trkpt>
      <trkpt lat="49.96779" lon="2.10022">
        <ele>12.3</ele>
        <time>2022-04-12T11:13:22Z</time>
      </trkpt>
      <trkpt lat="49.96779" lon="2.10021">
        <ele>12.3</ele>
        <time>2022-04-12T11:13:23Z</time>
      </trkpt>
      <trkpt lat="49.9678" lon="2.10019">
        <ele>12.3</ele>
        <time>2022-04-12T11:13:25Z</time>
      </trkpt>
      <trkpt lat="49.9678" lon="2.10017">
        <ele>12.3</ele>
        <time>2022-04-12T11:13:26Z</time>
      </trkpt>
      <trkpt lat="49.9678" lon="2.10015">
        <ele>12.3</ele>
        <time>2022-04-12T11:13:27Z</time>
      </trkpt>
      <trkpt lat="49.96781" lon="2.10012">
        <ele>12.3</ele>
        <time>2022-04-12T11:13:28Z</time>
      </trkpt>
      <trkpt lat="49.96781" lon="2.10011">
        <ele>12.3</ele>
        <time>2022-04-12T11:13:29Z</time>
      </trkpt>
      <trkpt lat="49.96782" lon="2.1001">
        <ele>12.3</ele>
        <time>2022-04-12T11:13:30Z</time>
      </trkpt>
      <trkpt lat="49.96782" lon="2.10008">
        <ele>12.3</ele>
        <time>2022-04-12T11:13:31Z</time>
      </trkpt>
      <trkpt lat="49.96782" lon="2.10007">
        <ele>12.3</ele>
        <time>2022-04-12T11:13:32Z</time>
      </trkpt>
      <trkpt lat="49.96783" lon="2.10005">
        <ele>12.3</ele>
        <time>2022-04-12T11:13:33Z</time>
      </trkpt>
      <trkpt lat="49.96783" lon="2.10003">
        <ele>12.3</ele>
        <time>2022-04-12T11:13:34Z</time>
      </trkpt>
      <trkpt lat="49.96784" lon="2.10001">
        <ele>12.3</ele>
        <time>2022-04-12T11:13:35Z</time>
      </trkpt>
      <trkpt lat="49.96784" lon="2.1">
        <ele>12.3</ele>
        <time>2022-04-12T11:13:37Z</time>
      </trkpt>
      <trkpt lat="49.96785" lon="2.09998">
        <ele>12.3</ele>
        <time>2022-04-12T11:13:38Z</time>
      </trkpt>
      <trkpt lat="49.96785" lon="2.09997">
        <ele>12.3</ele>
        <time>2022-04-12T11:13:39Z</time>
      </trkpt>
      <trkpt lat="49.96786" lon="2.09995">
        <ele>12.3</ele>
        <time>2022-04-12T11:13:40Z</time>
      </trkpt>
      <trkpt lat="49.96787" lon="2.09992">
        <ele>12.3</ele>
        <time>2022-04-12T11:13:41Z</time>
      </trkpt>
      <trkpt lat="49.96787" lon="2.09991">
        <ele>12.3</ele>
        <time>2022-04-12T11:13:43Z</time>
      </trkpt>
      <trkpt lat="49.96787" lon="2.09989">
        <ele>12.3</ele>
        <time>2022-04-12T11:13:44Z</time>
      </trkpt>
      <trkpt lat="49.96788" lon="2.09986">
        <ele>12.3</ele>
        <time>2022-04-12T11:13:45Z</time>
      </trkpt>
      <trkpt lat="49.96789" lon="2.09985">
        <ele>12.3</ele>
        <time>2022-04-12T11:13:46Z</time>
      </trkpt>
      <trkpt lat="49.96789" lon="2.09984">
        <ele>12.3</ele>
        <time>2022-04-12T11:13:47Z</time>
      </trkpt>
      <trkpt lat="49.9679" lon="2.09981">
        <ele>12.3</ele>
        <time>2022-04-12T11:13:48Z</time>
      </trkpt>
      <trkpt lat="49.9679" lon="2.09979">
        <ele>12.3</ele>
        <time>2022-04-12T11:13:49Z</time>
      </trkpt>
      <trkpt lat="49.96791" lon="2.09977">
        <ele>12.3</ele>
        <time>2022-04-12T11:13:50Z</time>
      </trkpt>
      <trkpt lat="49.96791" lon="2.09975">
        <ele>12.3</ele>
        <time>2022-04-12T11:13:51Z</time>
      </trkpt>
      <trkpt lat="49.96792" lon="2.09973">
        <ele>12.3</ele>
        <time>2022-04-12T11:13:52Z</time>
      </trkpt>
      <trkpt lat="49.96793" lon="2.09971">
        <ele>12.3</ele>
        <time>2022-04-12T11:13:53Z</time>
      </trkpt>
      <trkpt lat="49.96793" lon="2.09969">
        <ele>12.3</ele>
        <time>2022-04-12T11:13:55Z</time>
      </trkpt>
      <trkpt lat="49.96794" lon="2.09967">
        <ele>12.3</ele>
        <time>2022-04-12T11:13:56Z</time>
      </trkpt>
      <trkpt lat="49.96794" lon="2.09965">
        <ele>12.3</ele>
        <time>2022-04-12T11:13:57Z</time>
      </trkpt>
      <trkpt lat="49.96794" lon="2.09963">
        <ele>12.3</ele>
        <time>2022-04-12T11:13:58Z</time>
      </trkpt>
      <trkpt lat="49.96795" lon="2.0996">
        <ele>12.3</ele>
        <time>2022-04-12T11:14:00Z</time>
      </trkpt>
      <trkpt lat="49.96795" lon="2.09958">
        <ele>12.3</ele>
        <time>2022-04-12T11:14:01Z</time>
      </trkpt>
      <trkpt lat="49.96796" lon="2.09955">
        <ele>12.3</ele>
        <time>2022-04-12T11:14:02Z</time>
      </trkpt>
      <trkpt lat="49.96797" lon="2.09954">
        <ele>12.3</ele>
        <time>2022-04-12T11:14:03Z</time>
      </trkpt>
      <trkpt lat="49.96797" lon="2.09953">
        <ele>12.3</ele>
        <time>2022-04-12T11:14:04Z</time>
      </trkpt>
      <trkpt lat="49.96798" lon="2.09951">
        <ele>12.3</ele>
        <time>2022-04-12T11:14:05Z</time>
      </trkpt>
      <trkpt lat="49.96798" lon="2.09949">
        <ele>12.3</ele>
        <time>2022-04-12T11:14:06Z</time>
      </trkpt>
      <trkpt lat="49.96799" lon="2.09948">
        <ele>12.3</ele>
        <time>2022-04-12T11:14:07Z</time>
      </trkpt>
      <trkpt lat="49.968" lon="2.09945">
        <ele>12.3</ele>
        <time>2022-04-12T11:14:08Z</time>
      </trkpt>
      <trkpt lat="49.96801" lon="2.09944">
        <ele>12.3</ele>
        <time>2022-04-12T11:14:09Z</time>
      </trkpt>
      <trkpt lat="49.96801" lon="2.09943">
        <ele>12.3</ele>
        <time>2022-04-12T11:14:10Z</time>
      </trkpt>
      <trkpt lat="49.96802" lon="2.0994">
        <ele>12.4</ele>
        <time>2022-04-12T11:14:11Z</time>
      </trkpt>
      <trkpt lat="49.96803" lon="2.09939">
        <ele>12.4</ele>
        <time>2022-04-12T11:14:13Z</time>
      </trkpt>
      <trkpt lat="49.96803" lon="2.09938">
        <ele>12.4</ele>
        <time>2022-04-12T11:14:14Z</time>
      </trkpt>
      <trkpt lat="49.96804" lon="2.09935">
        <ele>12.4</ele>
        <time>2022-04-12T11:14:15Z</time>
      </trkpt>
      <trkpt lat="49.96805" lon="2.09934">
        <ele>12.4</ele>
        <time>2022-04-12T11:14:16Z</time>
      </trkpt>
      <trkpt lat="49.96805" lon="2.09933">
        <ele>12.4</ele>
        <time>2022-04-12T11:14:17Z</time>
      </trkpt>
      <trkpt lat="49.96806" lon="2.09931">
        <ele>12.4</ele>
        <time>2022-04-12T11:14:19Z</time>
      </trkpt>
      <trkpt lat="49.96807" lon="2.0993">
        <ele>12.4</ele>
        <time>2022-04-12T11:14:20Z</time>
      </trkpt>
      <trkpt lat="49.96808" lon="2.09927">
        <ele>12.4</ele>
        <time>2022-04-12T11:14:21Z</time>
      </trkpt>
      <trkpt lat="49.96808" lon="2.09926">
        <ele>12.4</ele>
        <time>2022-04-12T11:14:22Z</time>
      </trkpt>
      <trkpt lat="49.96808" lon="2.09925">
        <ele>12.4</ele>
        <time>2022-04-12T11:14:23Z</time>
      </trkpt>
      <trkpt lat="49.96809" lon="2.09923">
        <ele>12.5</ele>
        <time>2022-04-12T11:14:25Z</time>
      </trkpt>
      <trkpt lat="49.96809" lon="2.09921">
        <ele>12.5</ele>
        <time>2022-04-12T11:14:26Z</time>
      </trkpt>
      <trkpt lat="49.9681" lon="2.0992">
        <ele>12.5</ele>
        <time>2022-04-12T11:14:27Z</time>
      </trkpt>
      <trkpt lat="49.9681" lon="2.09918">
        <ele>12.5</ele>
        <time>2022-04-12T11:14:28Z</time>
      </trkpt>
      <trkpt lat="49.96811" lon="2.09916">
        <ele>12.5</ele>
        <time>2022-04-12T11:14:29Z</time>
      </trkpt>
      <trkpt lat="49.96811" lon="2.09915">
        <ele>12.5</ele>
        <time>2022-04-12T11:14:30Z</time>
      </trkpt>
      <trkpt lat="49.96811" lon="2.09913">
        <ele>12.5</ele>
        <time>2022-04-12T11:14:31Z</time>
      </trkpt>
      <trkpt lat="49.96811" lon="2.09911">
        <ele>12.5</ele>
        <time>2022-04-12T11:14:32Z</time>
      </trkpt>
      <trkpt lat="49.96812" lon="2.09909">
        <ele>12.5</ele>
        <time>2022-04-12T11:14:33Z</time>
      </trkpt>
      <trkpt lat="49.96812" lon="2.09906">
        <ele>12.5</ele>
        <time>2022-04-12T11:14:34Z</time>
      </trkpt>
      <trkpt lat="49.96812" lon="2.09904">
        <ele>12.5</ele>
        <time>2022-04-12T11:14:36Z</time>
      </trkpt>
      <trkpt lat="49.96813" lon="2.09903">
        <ele>12.5</ele>
        <time>2022-04-12T11:14:37Z</time>
      </trkpt>
      <trkpt lat="49.96813" lon="2.09901">
        <ele>12.5</ele>
        <time>2022-04-12T11:14:38Z</time>
      </trkpt>
      <trkpt lat="49.96813" lon="2.099">
        <ele>12.5</ele>
        <time>2022-04-12T11:14:39Z</time>
      </trkpt>
      <trkpt lat="49.96813" lon="2.09898">
        <ele>12.5</ele>
        <time>2022-04-12T11:14:40Z</time>
      </trkpt>
      <trkpt lat="49.96814" lon="2.09896">
        <ele>12.5</ele>
        <time>2022-04-12T11:14:41Z</time>
      </trkpt>
      <trkpt lat="49.96814" lon="2.09895">
        <ele>12.5</ele>
        <time>2022-04-12T11:14:42Z</time>
      </trkpt>
      <trkpt lat="49.96814" lon="2.09891">
        <ele>12.5</ele>
        <time>2022-04-12T11:14:44Z</time>
      </trkpt>
      <trkpt lat="49.96814" lon="2.0989">
        <ele>12.5</ele>
        <time>2022-04-12T11:14:45Z</time>
      </trkpt>
      <trkpt lat="49.96814" lon="2.09889">
        <ele>12.5</ele>
        <time>2022-04-12T11:14:46Z</time>
      </trkpt>
      <trkpt lat="49.96814" lon="2.09887">
        <ele>12.5</ele>
        <time>2022-04-12T11:14:47Z</time>
      </trkpt>
      <trkpt lat="49.96815" lon="2.09885">
        <ele>12.5</ele>
        <time>2022-04-12T11:14:48Z</time>
      </trkpt>
      <trkpt lat="49.96815" lon="2.09883">
        <ele>12.5</ele>
        <time>2022-04-12T11:14:49Z</time>
      </trkpt>
      <trkpt lat="49.96815" lon="2.09882">
        <ele>12.5</ele>
        <time>2022-04-12T11:14:51Z</time>
      </trkpt>
      <trkpt lat="49.96816" lon="2.0988">
        <ele>12.5</ele>
        <time>2022-04-12T11:14:52Z</time>
      </trkpt>
      <trkpt lat="49.96816" lon="2.09879">
        <ele>12.5</ele>
        <time>2022-04-12T11:14:53Z</time>
      </trkpt>
      <trkpt lat="49.96817" lon="2.09876">
        <ele>12.5</ele>
        <time>2022-04-12T11:14:54Z</time>
      </trkpt>
      <trkpt lat="49.96818" lon="2.09875">
        <ele>12.5</ele>
        <time>2022-04-12T11:14:55Z</time>
      </trkpt>
      <trkpt lat="49.96818" lon="2.09874">
        <ele>12.5</ele>
        <time>2022-04-12T11:14:56Z</time>
      </trkpt>
      <trkpt lat="49.96818" lon="2.09872">
        <ele>12.5</ele>
        <time>2022-04-12T11:14:57Z</time>
      </trkpt>
      <trkpt lat="49.96819" lon="2.0987">
        <ele>12.5</ele>
        <time>2022-04-12T11:14:58Z</time>
      </trkpt>
      <trkpt lat="49.9682" lon="2.09868">
        <ele>12.5</ele>
        <time>2022-04-12T11:15:00Z</time>
      </trkpt>
      <trkpt lat="49.96821" lon="2.09865">
        <ele>12.5</ele>
        <time>2022-04-12T11:15:01Z</time>
      </trkpt>
      <trkpt lat="49.96822" lon="2.09864">
        <ele>12.5</ele>
        <time>2022-04-12T11:15:02Z</time>
      </trkpt>
      <trkpt lat="49.96822" lon="2.09863">
        <ele>12.5</ele>
        <time>2022-04-12T11:15:03Z</time>
      </trkpt>
      <trkpt lat="49.96823" lon="2.09859">
        <ele>12.5</ele>
        <time>2022-04-12T11:15:04Z</time>
      </trkpt>
      <trkpt lat="49.96823" lon="2.09858">
        <ele>12.5</ele>
        <time>2022-04-12T11:15:05Z</time>
      </trkpt>
      <trkpt lat="49.96824" lon="2.09857">
        <ele>12.5</ele>
        <time>2022-04-12T11:15:06Z</time>
      </trkpt>
      <trkpt lat="49.96825" lon="2.09853">
        <ele>12.5</ele>
        <time>2022-04-12T11:15:07Z</time>
      </trkpt>
      <trkpt lat="49.96825" lon="2.09851">
        <ele>12.5</ele>
        <time>2022-04-12T11:15:09Z</time>
      </trkpt>
      <trkpt lat="49.96826" lon="2.0985">
        <ele>12.5</ele>
        <time>2022-04-12T11:15:10Z</time>
      </trkpt>
      <trkpt lat="49.96826" lon="2.09848">
        <ele>12.4</ele>
        <time>2022-04-12T11:15:11Z</time>
      </trkpt>
      <trkpt lat="49.96826" lon="2.09846">
        <ele>12.4</ele>
        <time>2022-04-12T11:15:12Z</time>
      </trkpt>
      <trkpt lat="49.96827" lon="2.09844">
        <ele>12.4</ele>
        <time>2022-04-12T11:15:13Z</time>
      </trkpt>
      <trkpt lat="49.96828" lon="2.09842">
        <ele>12.4</ele>
        <time>2022-04-12T11:15:14Z</time>
      </trkpt>
      <trkpt lat="49.96828" lon="2.09841">
        <ele>12.4</ele>
        <time>2022-04-12T11:15:16Z</time>
      </trkpt>
      <trkpt lat="49.96829" lon="2.09839">
        <ele>12.4</ele>
        <time>2022-04-12T11:15:17Z</time>
      </trkpt>
      <trkpt lat="49.9683" lon="2.09836">
        <ele>12.4</ele>
        <time>2022-04-12T11:15:19Z</time>
      </trkpt>
      <trkpt lat="49.9683" lon="2.09834">
        <ele>12.4</ele>
        <time>2022-04-12T11:15:20Z</time>
      </trkpt>
      <trkpt lat="49.9683" lon="2.09832">
        <ele>12.4</ele>
        <time>2022-04-12T11:15:21Z</time>
      </trkpt>
      <trkpt lat="49.96831" lon="2.09831">
        <ele>12.4</ele>
        <time>2022-04-12T11:15:22Z</time>
      </trkpt>
      <trkpt lat="49.96831" lon="2.09829">
        <ele>12.4</ele>
        <time>2022-04-12T11:15:23Z</time>
      </trkpt>
      <trkpt lat="49.96832" lon="2.09828">
        <ele>12.4</ele>
        <time>2022-04-12T11:15:24Z</time>
      </trkpt>
      <trkpt lat="49.96832" lon="2.09826">
        <ele>12.4</ele>
        <time>2022-04-12T11:15:25Z</time>
      </trkpt>
      <trkpt lat="49.96833" lon="2.09825">
        <ele>12.4</ele>
        <time>2022-04-12T11:15:26Z</time>
      </trkpt>
      <trkpt lat="49.96833" lon="2.09823">
        <ele>12.4</ele>
        <time>2022-04-12T11:15:27Z</time>
      </trkpt>
      <trkpt lat="49.96833" lon="2.09821">
        <ele>12.4</ele>
        <time>2022-04-12T11:15:28Z</time>
      </trkpt>
      <trkpt lat="49.96834" lon="2.0982">
        <ele>12.4</ele>
        <time>2022-04-12T11:15:30Z</time>
      </trkpt>
      <trkpt lat="49.96834" lon="2.09818">
        <ele>12.4</ele>
        <time>2022-04-12T11:15:31Z</time>
      </trkpt>
      <trkpt lat="49.96834" lon="2.09817">
        <ele>12.4</ele>
        <time>2022-04-12T11:15:32Z</time>
      </trkpt>
      <trkpt lat="49.96834" lon="2.09815">
        <ele>12.4</ele>
        <time>2022-04-12T11:15:33Z</time>
      </trkpt>
      <trkpt lat="49.96834" lon="2.09813">
        <ele>12.4</ele>
        <time>2022-04-12T11:15:34Z</time>
      </trkpt>
      <trkpt lat="49.96834" lon="2.09812">
        <ele>12.4</ele>
        <time>2022-04-12T11:15:35Z</time>
      </trkpt>
      <trkpt lat="49.96835" lon="2.09808">
        <ele>12.4</ele>
        <time>2022-04-12T11:15:37Z</time>
      </trkpt>
      <trkpt lat="49.96835" lon="2.09807">
        <ele>12.4</ele>
        <time>2022-04-12T11:15:38Z</time>
      </trkpt>
      <trkpt lat="49.96835" lon="2.09806">
        <ele>12.4</ele>
        <time>2022-04-12T11:15:39Z</time>
      </trkpt>
      <trkpt lat="49.96835" lon="2.09803">
        <ele>12.4</ele>
        <time>2022-04-12T11:15:40Z</time>
      </trkpt>
      <trkpt lat="49.96835" lon="2.09801">
        <ele>12.4</ele>
        <time>2022-04-12T11:15:41Z</time>
      </trkpt>
      <trkpt lat="49.96836" lon="2.098">
        <ele>12.4</ele>
        <time>2022-04-12T11:15:42Z</time>
      </trkpt>
      <trkpt lat="49.96836" lon="2.09797">
        <ele>12.4</ele>
        <time>2022-04-12T11:15:43Z</time>
      </trkpt>
      <trkpt lat="49.96836" lon="2.09796">
        <ele>12.4</ele>
        <time>2022-04-12T11:15:45Z</time>
      </trkpt>
      <trkpt lat="49.96837" lon="2.09794">
        <ele>12.4</ele>
        <time>2022-04-12T11:15:46Z</time>
      </trkpt>
      <trkpt lat="49.96837" lon="2.09791">
        <ele>12.4</ele>
        <time>2022-04-12T11:15:47Z</time>
      </trkpt>
      <trkpt lat="49.96837" lon="2.0979">
        <ele>12.4</ele>
        <time>2022-04-12T11:15:48Z</time>
      </trkpt>
      <trkpt lat="49.96837" lon="2.09788">
        <ele>12.4</ele>
        <time>2022-04-12T11:15:49Z</time>
      </trkpt>
      <trkpt lat="49.96837" lon="2.09786">
        <ele>12.3</ele>
        <time>2022-04-12T11:15:50Z</time>
      </trkpt>
      <trkpt lat="49.96838" lon="2.09784">
        <ele>12.3</ele>
        <time>2022-04-12T11:15:51Z</time>
      </trkpt>
      <trkpt lat="49.96838" lon="2.09782">
        <ele>12.3</ele>
        <time>2022-04-12T11:15:52Z</time>
      </trkpt>
      <trkpt lat="49.96839" lon="2.0978">
        <ele>12.3</ele>
        <time>2022-04-12T11:15:53Z</time>
      </trkpt>
      <trkpt lat="49.96839" lon="2.09777">
        <ele>12.3</ele>
        <time>2022-04-12T11:15:54Z</time>
      </trkpt>
      <trkpt lat="49.9684" lon="2.09774">
        <ele>12.3</ele>
        <time>2022-04-12T11:15:56Z</time>
      </trkpt>
      <trkpt lat="49.9684" lon="2.09772">
        <ele>12.3</ele>
        <time>2022-04-12T11:15:57Z</time>
      </trkpt>
      <trkpt lat="49.96841" lon="2.0977">
        <ele>12.3</ele>
        <time>2022-04-12T11:15:58Z</time>
      </trkpt>
      <trkpt lat="49.96841" lon="2.09768">
        <ele>12.3</ele>
        <time>2022-04-12T11:15:59Z</time>
      </trkpt>
      <trkpt lat="49.96842" lon="2.09766">
        <ele>12.3</ele>
        <time>2022-04-12T11:16:00Z</time>
      </trkpt>
      <trkpt lat="49.96842" lon="2.09765">
        <ele>12.3</ele>
        <time>2022-04-12T11:16:02Z</time>
      </trkpt>
      <trkpt lat="49.96843" lon="2.09763">
        <ele>12.3</ele>
        <time>2022-04-12T11:16:03Z</time>
      </trkpt>
      <trkpt lat="49.96843" lon="2.09761">
        <ele>12.3</ele>
        <time>2022-04-12T11:16:04Z</time>
      </trkpt>
      <trkpt lat="49.96844" lon="2.09759">
        <ele>12.3</ele>
        <time>2022-04-12T11:16:05Z</time>
      </trkpt>
      <trkpt lat="49.96845" lon="2.09756">
        <ele>12.3</ele>
        <time>2022-04-12T11:16:06Z</time>
      </trkpt>
      <trkpt lat="49.96845" lon="2.09754">
        <ele>12.3</ele>
        <time>2022-04-12T11:16:07Z</time>
      </trkpt>
      <trkpt lat="49.96845" lon="2.09753">
        <ele>12.3</ele>
        <time>2022-04-12T11:16:08Z</time>
      </trkpt>
      <trkpt lat="49.96846" lon="2.09751">
        <ele>12.3</ele>
        <time>2022-04-12T11:16:09Z</time>
      </trkpt>
      <trkpt lat="49.96846" lon="2.0975">
        <ele>12.2</ele>
        <time>2022-04-12T11:16:10Z</time>
      </trkpt>
      <trkpt lat="49.96846" lon="2.09748">
        <ele>12.2</ele>
        <time>2022-04-12T11:16:11Z</time>
      </trkpt>
      <trkpt lat="49.96847" lon="2.09746">
        <ele>12.2</ele>
        <time>2022-04-12T11:16:12Z</time>
      </trkpt>
      <trkpt lat="49.96847" lon="2.09745">
        <ele>12.2</ele>
        <time>2022-04-12T11:16:14Z</time>
      </trkpt>
      <trkpt lat="49.96847" lon="2.09743">
        <ele>12.2</ele>
        <time>2022-04-12T11:16:15Z</time>
      </trkpt>
      <trkpt lat="49.96848" lon="2.09742">
        <ele>12.2</ele>
        <time>2022-04-12T11:16:16Z</time>
      </trkpt>
      <trkpt lat="49.96848" lon="2.0974">
        <ele>12.2</ele>
        <time>2022-04-12T11:16:17Z</time>
      </trkpt>
      <trkpt lat="49.96849" lon="2.09736">
        <ele>12.2</ele>
        <time>2022-04-12T11:16:19Z</time>
      </trkpt>
      <trkpt lat="49.96849" lon="2.09735">
        <ele>12.2</ele>
        <time>2022-04-12T11:16:20Z</time>
      </trkpt>
      <trkpt lat="49.9685" lon="2.09733">
        <ele>12.2</ele>
        <time>2022-04-12T11:16:21Z</time>
      </trkpt>
      <trkpt lat="49.9685" lon="2.09732">
        <ele>12.2</ele>
        <time>2022-04-12T11:16:22Z</time>
      </trkpt>
      <trkpt lat="49.96851" lon="2.0973">
        <ele>12.2</ele>
        <time>2022-04-12T11:16:24Z</time>
      </trkpt>
      <trkpt lat="49.96851" lon="2.09729">
        <ele>12.1</ele>
        <time>2022-04-12T11:16:25Z</time>
      </trkpt>
      <trkpt lat="49.96852" lon="2.09728">
        <ele>12.1</ele>
        <time>2022-04-12T11:16:26Z</time>
      </trkpt>
      <trkpt lat="49.96852" lon="2.09726">
        <ele>12.1</ele>
        <time>2022-04-12T11:16:27Z</time>
      </trkpt>
      <trkpt lat="49.96852" lon="2.09725">
        <ele>12.1</ele>
        <time>2022-04-12T11:16:28Z</time>
      </trkpt>
      <trkpt lat="49.96853" lon="2.09723">
        <ele>12.1</ele>
        <time>2022-04-12T11:16:29Z</time>
      </trkpt>
      <trkpt lat="49.96853" lon="2.09722">
        <ele>12.1</ele>
        <time>2022-04-12T11:16:30Z</time>
      </trkpt>
      <trkpt lat="49.96854" lon="2.0972">
        <ele>12.1</ele>
        <time>2022-04-12T11:16:31Z</time>
      </trkpt>
      <trkpt lat="49.96854" lon="2.09718">
        <ele>12.1</ele>
        <time>2022-04-12T11:16:32Z</time>
      </trkpt>
      <trkpt lat="49.96855" lon="2.09716">
        <ele>12.1</ele>
        <time>2022-04-12T11:16:33Z</time>
      </trkpt>
      <trkpt lat="49.96855" lon="2.09714">
        <ele>12.1</ele>
        <time>2022-04-12T11:16:35Z</time>
      </trkpt>
      <trkpt lat="49.96855" lon="2.09713">
        <ele>12.1</ele>
        <time>2022-04-12T11:16:36Z</time>
      </trkpt>
      <trkpt lat="49.96855" lon="2.09711">
        <ele>12.1</ele>
        <time>2022-04-12T11:16:37Z</time>
      </trkpt>
      <trkpt lat="49.96855" lon="2.09709">
        <ele>12.1</ele>
        <time>2022-04-12T11:16:38Z</time>
      </trkpt>
      <trkpt lat="49.96855" lon="2.09707">
        <ele>12.1</ele>
        <time>2022-04-12T11:16:39Z</time>
      </trkpt>
      <trkpt lat="49.96854" lon="2.09706">
        <ele>12.1</ele>
        <time>2022-04-12T11:16:40Z</time>
      </trkpt>
      <trkpt lat="49.96854" lon="2.09704">
        <ele>12.1</ele>
        <time>2022-04-12T11:16:41Z</time>
      </trkpt>
      <trkpt lat="49.96855" lon="2.09703">
        <ele>12.1</ele>
        <time>2022-04-12T11:16:42Z</time>
      </trkpt>
      <trkpt lat="49.96855" lon="2.097">
        <ele>12.1</ele>
        <time>2022-04-12T11:16:43Z</time>
      </trkpt>
      <trkpt lat="49.96855" lon="2.09699">
        <ele>12.1</ele>
        <time>2022-04-12T11:16:45Z</time>
      </trkpt>
      <trkpt lat="49.96856" lon="2.09695">
        <ele>12.1</ele>
        <time>2022-04-12T11:16:46Z</time>
      </trkpt>
      <trkpt lat="49.96856" lon="2.09694">
        <ele>12.1</ele>
        <time>2022-04-12T11:16:47Z</time>
      </trkpt>
      <trkpt lat="49.96857" lon="2.09693">
        <ele>12.1</ele>
        <time>2022-04-12T11:16:48Z</time>
      </trkpt>
      <trkpt lat="49.96857" lon="2.09691">
        <ele>12.1</ele>
        <time>2022-04-12T11:16:49Z</time>
      </trkpt>
      <trkpt lat="49.96857" lon="2.09689">
        <ele>12.1</ele>
        <time>2022-04-12T11:16:50Z</time>
      </trkpt>
      <trkpt lat="49.96857" lon="2.09688">
        <ele>12.1</ele>
        <time>2022-04-12T11:16:51Z</time>
      </trkpt>
      <trkpt lat="49.96857" lon="2.09686">
        <ele>12.1</ele>
        <time>2022-04-12T11:16:52Z</time>
      </trkpt>
      <trkpt lat="49.96858" lon="2.09684">
        <ele>12.1</ele>
        <time>2022-04-12T11:16:53Z</time>
      </trkpt>
      <trkpt lat="49.96858" lon="2.09682">
        <ele>12.1</ele>
        <time>2022-04-12T11:16:55Z</time>
      </trkpt>
      <trkpt lat="49.96859" lon="2.09679">
        <ele>12.1</ele>
        <time>2022-04-12T11:16:56Z</time>
      </trkpt>
      <trkpt lat="49.96859" lon="2.09678">
        <ele>12.1</ele>
        <time>2022-04-12T11:16:57Z</time>
      </trkpt>
      <trkpt lat="49.96859" lon="2.09677">
        <ele>12.1</ele>
        <time>2022-04-12T11:16:58Z</time>
      </trkpt>
      <trkpt lat="49.9686" lon="2.09674">
        <ele>12.1</ele>
        <time>2022-04-12T11:16:59Z</time>
      </trkpt>
      <trkpt lat="49.96861" lon="2.09673">
        <ele>12.1</ele>
        <time>2022-04-12T11:17:01Z</time>
      </trkpt>
      <trkpt lat="49.96861" lon="2.09671">
        <ele>12.1</ele>
        <time>2022-04-12T11:17:02Z</time>
      </trkpt>
      <trkpt lat="49.96862" lon="2.0967">
        <ele>12.1</ele>
        <time>2022-04-12T11:17:03Z</time>
      </trkpt>
      <trkpt lat="49.96862" lon="2.09668">
        <ele>12.1</ele>
        <time>2022-04-12T11:17:04Z</time>
      </trkpt>
      <trkpt lat="49.96863" lon="2.09666">
        <ele>12.1</ele>
        <time>2022-04-12T11:17:05Z</time>
      </trkpt>
      <trkpt lat="49.96863" lon="2.09663">
        <ele>12.1</ele>
        <time>2022-04-12T11:17:06Z</time>
      </trkpt>
      <trkpt lat="49.96863" lon="2.09662">
        <ele>12.1</ele>
        <time>2022-04-12T11:17:07Z</time>
      </trkpt>
      <trkpt lat="49.96864" lon="2.09661">
        <ele>12.1</ele>
        <time>2022-04-12T11:17:08Z</time>
      </trkpt>
      <trkpt lat="49.96864" lon="2.09659">
        <ele>12.1</ele>
        <time>2022-04-12T11:17:09Z</time>
      </trkpt>
      <trkpt lat="49.96864" lon="2.09657">
        <ele>12.1</ele>
        <time>2022-04-12T11:17:11Z</time>
      </trkpt>
      <trkpt lat="49.96864" lon="2.09655">
        <ele>12.1</ele>
        <time>2022-04-12T11:17:12Z</time>
      </trkpt>
      <trkpt lat="49.96864" lon="2.09653">
        <ele>12.1</ele>
        <time>2022-04-12T11:17:13Z</time>
      </trkpt>
      <trkpt lat="49.96864" lon="2.09652">
        <ele>12.1</ele>
        <time>2022-04-12T11:17:14Z</time>
      </trkpt>
      <trkpt lat="49.96864" lon="2.0965">
        <ele>12.1</ele>
        <time>2022-04-12T11:17:15Z</time>
      </trkpt>
      <trkpt lat="49.96864" lon="2.09648">
        <ele>12.1</ele>
        <time>2022-04-12T11:17:16Z</time>
      </trkpt>
      <trkpt lat="49.96864" lon="2.09646">
        <ele>12.2</ele>
        <time>2022-04-12T11:17:17Z</time>
      </trkpt>
      <trkpt lat="49.96865" lon="2.09644">
        <ele>12.2</ele>
        <time>2022-04-12T11:17:18Z</time>
      </trkpt>
      <trkpt lat="49.96865" lon="2.09641">
        <ele>12.2</ele>
        <time>2022-04-12T11:17:19Z</time>
      </trkpt>
      <trkpt lat="49.96865" lon="2.0964">
        <ele>12.2</ele>
        <time>2022-04-12T11:17:21Z</time>
      </trkpt>
      <trkpt lat="49.96866" lon="2.09639">
        <ele>12.2</ele>
        <time>2022-04-12T11:17:22Z</time>
      </trkpt>
      <trkpt lat="49.96866" lon="2.09636">
        <ele>12.2</ele>
        <time>2022-04-12T11:17:23Z</time>
      </trkpt>
      <trkpt lat="49.96867" lon="2.09635">
        <ele>12.2</ele>
        <time>2022-04-12T11:17:24Z</time>
      </trkpt>
      <trkpt lat="49.96867" lon="2.09633">
        <ele>12.2</ele>
        <time>2022-04-12T11:17:25Z</time>
      </trkpt>
      <trkpt lat="49.96867" lon="2.09631">
        <ele>12.3</ele>
        <time>2022-04-12T11:17:27Z</time>
      </trkpt>
      <trkpt lat="49.96867" lon="2.09629">
        <ele>12.3</ele>
        <time>2022-04-12T11:17:28Z</time>
      </trkpt>
      <trkpt lat="49.96868" lon="2.09627">
        <ele>12.3</ele>
        <time>2022-04-12T11:17:29Z</time>
      </trkpt>
      <trkpt lat="49.96868" lon="2.09625">
        <ele>12.3</ele>
        <time>2022-04-12T11:17:30Z</time>
      </trkpt>
      <trkpt lat="49.96868" lon="2.09624">
        <ele>12.3</ele>
        <time>2022-04-12T11:17:31Z</time>
      </trkpt>
      <trkpt lat="49.96868" lon="2.09622">
        <ele>12.3</ele>
        <time>2022-04-12T11:17:32Z</time>
      </trkpt>
      <trkpt lat="49.96868" lon="2.0962">
        <ele>12.3</ele>
        <time>2022-04-12T11:17:33Z</time>
      </trkpt>
      <trkpt lat="49.96869" lon="2.09617">
        <ele>12.3</ele>
        <time>2022-04-12T11:17:35Z</time>
      </trkpt>
      <trkpt lat="49.9687" lon="2.09615">
        <ele>12.3</ele>
        <time>2022-04-12T11:17:36Z</time>
      </trkpt>
      <trkpt lat="49.9687" lon="2.09613">
        <ele>12.3</ele>
        <time>2022-04-12T11:17:37Z</time>
      </trkpt>
      <trkpt lat="49.9687" lon="2.09612">
        <ele>12.4</ele>
        <time>2022-04-12T11:17:38Z</time>
      </trkpt>
      <trkpt lat="49.96871" lon="2.0961">
        <ele>12.4</ele>
        <time>2022-04-12T11:17:39Z</time>
      </trkpt>
      <trkpt lat="49.96871" lon="2.09608">
        <ele>12.4</ele>
        <time>2022-04-12T11:17:40Z</time>
      </trkpt>
      <trkpt lat="49.96872" lon="2.09606">
        <ele>12.4</ele>
        <time>2022-04-12T11:17:42Z</time>
      </trkpt>
      <trkpt lat="49.96872" lon="2.09603">
        <ele>12.4</ele>
        <time>2022-04-12T11:17:43Z</time>
      </trkpt>
      <trkpt lat="49.96873" lon="2.09601">
        <ele>12.4</ele>
        <time>2022-04-12T11:17:44Z</time>
      </trkpt>
      <trkpt lat="49.96873" lon="2.096">
        <ele>12.4</ele>
        <time>2022-04-12T11:17:45Z</time>
      </trkpt>
      <trkpt lat="49.96873" lon="2.09598">
        <ele>12.4</ele>
        <time>2022-04-12T11:17:46Z</time>
      </trkpt>
      <trkpt lat="49.96873" lon="2.09595">
        <ele>12.4</ele>
        <time>2022-04-12T11:17:47Z</time>
      </trkpt>
      <trkpt lat="49.96873" lon="2.09592">
        <ele>12.5</ele>
        <time>2022-04-12T11:17:48Z</time>
      </trkpt>
      <trkpt lat="49.96873" lon="2.0959">
        <ele>12.5</ele>
        <time>2022-04-12T11:17:50Z</time>
      </trkpt>
      <trkpt lat="49.96873" lon="2.09588">
        <ele>12.5</ele>
        <time>2022-04-12T11:17:51Z</time>
      </trkpt>
      <trkpt lat="49.96873" lon="2.09587">
        <ele>12.5</ele>
        <time>2022-04-12T11:17:52Z</time>
      </trkpt>
      <trkpt lat="49.96873" lon="2.09585">
        <ele>12.5</ele>
        <time>2022-04-12T11:17:53Z</time>
      </trkpt>
      <trkpt lat="49.96874" lon="2.09583">
        <ele>12.6</ele>
        <time>2022-04-12T11:17:54Z</time>
      </trkpt>
      <trkpt lat="49.96874" lon="2.09581">
        <ele>12.6</ele>
        <time>2022-04-12T11:17:55Z</time>
      </trkpt>
      <trkpt lat="49.96874" lon="2.09579">
        <ele>12.6</ele>
        <time>2022-04-12T11:17:56Z</time>
      </trkpt>
      <trkpt lat="49.96875" lon="2.09577">
        <ele>12.6</ele>
        <time>2022-04-12T11:17:57Z</time>
      </trkpt>
      <trkpt lat="49.96875" lon="2.09575">
        <ele>12.6</ele>
        <time>2022-04-12T11:17:58Z</time>
      </trkpt>
      <trkpt lat="49.96876" lon="2.09573">
        <ele>12.7</ele>
        <time>2022-04-12T11:17:59Z</time>
      </trkpt>
      <trkpt lat="49.96876" lon="2.09569">
        <ele>12.7</ele>
        <time>2022-04-12T11:18:01Z</time>
      </trkpt>
      <trkpt lat="49.96877" lon="2.09568">
        <ele>12.7</ele>
        <time>2022-04-12T11:18:02Z</time>
      </trkpt>
      <trkpt lat="49.96877" lon="2.09567">
        <ele>12.7</ele>
        <time>2022-04-12T11:18:03Z</time>
      </trkpt>
      <trkpt lat="49.96878" lon="2.09564">
        <ele>12.7</ele>
        <time>2022-04-12T11:18:04Z</time>
      </trkpt>
      <trkpt lat="49.96878" lon="2.09563">
        <ele>12.8</ele>
        <time>2022-04-12T11:18:05Z</time>
      </trkpt>
      <trkpt lat="49.96879" lon="2.09561">
        <ele>12.8</ele>
        <time>2022-04-12T11:18:06Z</time>
      </trkpt>
      <trkpt lat="49.9688" lon="2.0956">
        <ele>12.8</ele>
        <time>2022-04-12T11:18:07Z</time>
      </trkpt>
      <trkpt lat="49.96881" lon="2.09558">
        <ele>12.8</ele>
        <time>2022-04-12T11:18:08Z</time>
      </trkpt>
      <trkpt lat="49.96882" lon="2.09556">
        <ele>12.8</ele>
        <time>2022-04-12T11:18:09Z</time>
      </trkpt>
      <trkpt lat="49.96883" lon="2.09555">
        <ele>12.8</ele>
        <time>2022-04-12T11:18:11Z</time>
      </trkpt>
      <trkpt lat="49.96884" lon="2.09554">
        <ele>12.8</ele>
        <time>2022-04-12T11:18:12Z</time>
      </trkpt>
      <trkpt lat="49.96885" lon="2.09552">
        <ele>12.9</ele>
        <time>2022-04-12T11:18:13Z</time>
      </trkpt>
      <trkpt lat="49.96886" lon="2.09551">
        <ele>12.9</ele>
        <time>2022-04-12T11:18:14Z</time>
      </trkpt>
      <trkpt lat="49.96887" lon="2.0955">
        <ele>12.9</ele>
        <time>2022-04-12T11:18:15Z</time>
      </trkpt>
      <trkpt lat="49.96888" lon="2.09549">
        <ele>12.9</ele>
        <time>2022-04-12T11:18:16Z</time>
      </trkpt>
      <trkpt lat="49.96889" lon="2.09548">
        <ele>12.9</ele>
        <time>2022-04-12T11:18:17Z</time>
      </trkpt>
      <trkpt lat="49.9689" lon="2.09546">
        <ele>12.9</ele>
        <time>2022-04-12T11:18:19Z</time>
      </trkpt>
      <trkpt lat="49.9689" lon="2.09545">
        <ele>12.9</ele>
        <time>2022-04-12T11:18:20Z</time>
      </trkpt>
      <trkpt lat="49.96891" lon="2.09544">
        <ele>12.9</ele>
        <time>2022-04-12T11:18:21Z</time>
      </trkpt>
      <trkpt lat="49.96892" lon="2.09542">
        <ele>13</ele>
        <time>2022-04-12T11:18:22Z</time>
      </trkpt>
      <trkpt lat="49.96893" lon="2.09541">
        <ele>13</ele>
        <time>2022-04-12T11:18:23Z</time>
      </trkpt>
      <trkpt lat="49.96893" lon="2.0954">
        <ele>13</ele>
        <time>2022-04-12T11:18:24Z</time>
      </trkpt>
      <trkpt lat="49.96894" lon="2.09538">
        <ele>13</ele>
        <time>2022-04-12T11:18:25Z</time>
      </trkpt>
      <trkpt lat="49.96894" lon="2.09536">
        <ele>13</ele>
        <time>2022-04-12T11:18:26Z</time>
      </trkpt>
      <trkpt lat="49.96895" lon="2.09535">
        <ele>13</ele>
        <time>2022-04-12T11:18:27Z</time>
      </trkpt>
      <trkpt lat="49.96896" lon="2.09533">
        <ele>13</ele>
        <time>2022-04-12T11:18:29Z</time>
      </trkpt>
      <trkpt lat="49.96896" lon="2.09532">
        <ele>13.1</ele>
        <time>2022-04-12T11:18:30Z</time>
      </trkpt>
      <trkpt lat="49.96897" lon="2.0953">
        <ele>13.1</ele>
        <time>2022-04-12T11:18:31Z</time>
      </trkpt>
      <trkpt lat="49.96897" lon="2.09529">
        <ele>13.1</ele>
        <time>2022-04-12T11:18:32Z</time>
      </trkpt>
      <trkpt lat="49.96898" lon="2.09528">
        <ele>13.1</ele>
        <time>2022-04-12T11:18:33Z</time>
      </trkpt>
      <trkpt lat="49.96898" lon="2.09526">
        <ele>13.1</ele>
        <time>2022-04-12T11:18:34Z</time>
      </trkpt>
      <trkpt lat="49.96899" lon="2.09525">
        <ele>13.1</ele>
        <time>2022-04-12T11:18:36Z</time>
      </trkpt>
      <trkpt lat="49.96899" lon="2.09523">
        <ele>13.1</ele>
        <time>2022-04-12T11:18:37Z</time>
      </trkpt>
      <trkpt lat="49.969" lon="2.09522">
        <ele>13.1</ele>
        <time>2022-04-12T11:18:38Z</time>
      </trkpt>
      <trkpt lat="49.969" lon="2.0952">
        <ele>13.1</ele>
        <time>2022-04-12T11:18:39Z</time>
      </trkpt>
      <trkpt lat="49.969" lon="2.09519">
        <ele>13.1</ele>
        <time>2022-04-12T11:18:40Z</time>
      </trkpt>
      <trkpt lat="49.969" lon="2.09517">
        <ele>13.1</ele>
        <time>2022-04-12T11:18:41Z</time>
      </trkpt>
      <trkpt lat="49.969" lon="2.09516">
        <ele>13.2</ele>
        <time>2022-04-12T11:18:43Z</time>
      </trkpt>
      <trkpt lat="49.96901" lon="2.09514">
        <ele>13.2</ele>
        <time>2022-04-12T11:18:44Z</time>
      </trkpt>
      <trkpt lat="49.96901" lon="2.09513">
        <ele>13.2</ele>
        <time>2022-04-12T11:18:45Z</time>
      </trkpt>
      <trkpt lat="49.96901" lon="2.09511">
        <ele>13.2</ele>
        <time>2022-04-12T11:18:46Z</time>
      </trkpt>
      <trkpt lat="49.96902" lon="2.0951">
        <ele>13.2</ele>
        <time>2022-04-12T11:18:47Z</time>
      </trkpt>
      <trkpt lat="49.96902" lon="2.09508">
        <ele>13.2</ele>
        <time>2022-04-12T11:18:48Z</time>
      </trkpt>
      <trkpt lat="49.96902" lon="2.09507">
        <ele>13.2</ele>
        <time>2022-04-12T11:18:49Z</time>
      </trkpt>
      <trkpt lat="49.96903" lon="2.09505">
        <ele>13.2</ele>
        <time>2022-04-12T11:18:50Z</time>
      </trkpt>
      <trkpt lat="49.96903" lon="2.09503">
        <ele>13.2</ele>
        <time>2022-04-12T11:18:52Z</time>
      </trkpt>
      <trkpt lat="49.96903" lon="2.09502">
        <ele>13.2</ele>
        <time>2022-04-12T11:18:53Z</time>
      </trkpt>
      <trkpt lat="49.96904" lon="2.095">
        <ele>13.3</ele>
        <time>2022-04-12T11:18:54Z</time>
      </trkpt>
      <trkpt lat="49.96904" lon="2.09499">
        <ele>13.3</ele>
        <time>2022-04-12T11:18:55Z</time>
      </trkpt>
      <trkpt lat="49.96904" lon="2.09497">
        <ele>13.3</ele>
        <time>2022-04-12T11:18:56Z</time>
      </trkpt>
      <trkpt lat="49.96904" lon="2.09494">
        <ele>13.3</ele>
        <time>2022-04-12T11:18:57Z</time>
      </trkpt>
      <trkpt lat="49.96904" lon="2.09492">
        <ele>13.3</ele>
        <time>2022-04-12T11:18:58Z</time>
      </trkpt>
      <trkpt lat="49.96904" lon="2.09491">
        <ele>13.3</ele>
        <time>2022-04-12T11:18:59Z</time>
      </trkpt>
      <trkpt lat="49.96904" lon="2.09489">
        <ele>13.3</ele>
        <time>2022-04-12T11:19:01Z</time>
      </trkpt>
      <trkpt lat="49.96904" lon="2.09488">
        <ele>13.3</ele>
        <time>2022-04-12T11:19:02Z</time>
      </trkpt>
      <trkpt lat="49.96905" lon="2.09486">
        <ele>13.3</ele>
        <time>2022-04-12T11:19:03Z</time>
      </trkpt>
      <trkpt lat="49.96905" lon="2.09484">
        <ele>13.4</ele>
        <time>2022-04-12T11:19:04Z</time>
      </trkpt>
      <trkpt lat="49.96905" lon="2.09482">
        <ele>13.4</ele>
        <time>2022-04-12T11:19:05Z</time>
      </trkpt>
      <trkpt lat="49.96906" lon="2.09481">
        <ele>13.4</ele>
        <time>2022-04-12T11:19:06Z</time>
      </trkpt>
      <trkpt lat="49.96906" lon="2.09479">
        <ele>13.4</ele>
        <time>2022-04-12T11:19:07Z</time>
      </trkpt>
      <trkpt lat="49.96907" lon="2.09477">
        <ele>13.4</ele>
        <time>2022-04-12T11:19:08Z</time>
      </trkpt>
      <trkpt lat="49.96907" lon="2.09475">
        <ele>13.4</ele>
        <time>2022-04-12T11:19:10Z</time>
      </trkpt>
      <trkpt lat="49.96907" lon="2.09473">
        <ele>13.4</ele>
        <time>2022-04-12T11:19:11Z</time>
      </trkpt>
      <trkpt lat="49.96907" lon="2.09471">
        <ele>13.4</ele>
        <time>2022-04-12T11:19:12Z</time>
      </trkpt>
      <trkpt lat="49.96908" lon="2.09469">
        <ele>13.4</ele>
        <time>2022-04-12T11:19:13Z</time>
      </trkpt>
      <trkpt lat="49.96908" lon="2.09467">
        <ele>13.4</ele>
        <time>2022-04-12T11:19:14Z</time>
      </trkpt>
      <trkpt lat="49.96908" lon="2.09465">
        <ele>13.4</ele>
        <time>2022-04-12T11:19:15Z</time>
      </trkpt>
      <trkpt lat="49.96908" lon="2.09463">
        <ele>13.5</ele>
        <time>2022-04-12T11:19:16Z</time>
      </trkpt>
      <trkpt lat="49.96907" lon="2.09459">
        <ele>13.5</ele>
        <time>2022-04-12T11:19:17Z</time>
      </trkpt>
      <trkpt lat="49.96907" lon="2.09458">
        <ele>13.5</ele>
        <time>2022-04-12T11:19:19Z</time>
      </trkpt>
      <trkpt lat="49.96907" lon="2.09457">
        <ele>13.5</ele>
        <time>2022-04-12T11:19:20Z</time>
      </trkpt>
      <trkpt lat="49.96908" lon="2.09453">
        <ele>13.5</ele>
        <time>2022-04-12T11:19:21Z</time>
      </trkpt>
      <trkpt lat="49.96908" lon="2.09452">
        <ele>13.5</ele>
        <time>2022-04-12T11:19:22Z</time>
      </trkpt>
      <trkpt lat="49.96908" lon="2.09451">
        <ele>13.5</ele>
        <time>2022-04-12T11:19:23Z</time>
      </trkpt>
      <trkpt lat="49.96908" lon="2.09448">
        <ele>13.5</ele>
        <time>2022-04-12T11:19:24Z</time>
      </trkpt>
      <trkpt lat="49.96908" lon="2.09446">
        <ele>13.5</ele>
        <time>2022-04-12T11:19:25Z</time>
      </trkpt>
      <trkpt lat="49.96908" lon="2.09444">
        <ele>13.5</ele>
        <time>2022-04-12T11:19:26Z</time>
      </trkpt>
      <trkpt lat="49.96909" lon="2.09442">
        <ele>13.5</ele>
        <time>2022-04-12T11:19:27Z</time>
      </trkpt>
      <trkpt lat="49.96909" lon="2.09439">
        <ele>13.5</ele>
        <time>2022-04-12T11:19:28Z</time>
      </trkpt>
      <trkpt lat="49.9691" lon="2.09438">
        <ele>13.5</ele>
        <time>2022-04-12T11:19:30Z</time>
      </trkpt>
      <trkpt lat="49.9691" lon="2.09437">
        <ele>13.5</ele>
        <time>2022-04-12T11:19:31Z</time>
      </trkpt>
      <trkpt lat="49.96911" lon="2.09434">
        <ele>13.5</ele>
        <time>2022-04-12T11:19:32Z</time>
      </trkpt>
      <trkpt lat="49.96911" lon="2.09432">
        <ele>13.5</ele>
        <time>2022-04-12T11:19:33Z</time>
      </trkpt>
      <trkpt lat="49.96911" lon="2.09431">
        <ele>13.5</ele>
        <time>2022-04-12T11:19:34Z</time>
      </trkpt>
      <trkpt lat="49.96912" lon="2.09428">
        <ele>13.5</ele>
        <time>2022-04-12T11:19:35Z</time>
      </trkpt>
      <trkpt lat="49.96913" lon="2.09427">
        <ele>13.5</ele>
        <time>2022-04-12T11:19:36Z</time>
      </trkpt>
      <trkpt lat="49.96913" lon="2.09426">
        <ele>13.5</ele>
        <time>2022-04-12T11:19:37Z</time>
      </trkpt>
      <trkpt lat="49.96913" lon="2.09424">
        <ele>13.5</ele>
        <time>2022-04-12T11:19:38Z</time>
      </trkpt>
      <trkpt lat="49.96914" lon="2.09422">
        <ele>13.5</ele>
        <time>2022-04-12T11:19:40Z</time>
      </trkpt>
      <trkpt lat="49.96915" lon="2.0942">
        <ele>13.5</ele>
        <time>2022-04-12T11:19:41Z</time>
      </trkpt>
      <trkpt lat="49.96916" lon="2.09419">
        <ele>13.5</ele>
        <time>2022-04-12T11:19:42Z</time>
      </trkpt>
      <trkpt lat="49.96916" lon="2.09417">
        <ele>13.5</ele>
        <time>2022-04-12T11:19:43Z</time>
      </trkpt>
      <trkpt lat="49.96917" lon="2.09415">
        <ele>13.5</ele>
        <time>2022-04-12T11:19:44Z</time>
      </trkpt>
      <trkpt lat="49.96918" lon="2.09411">
        <ele>13.5</ele>
        <time>2022-04-12T11:19:46Z</time>
      </trkpt>
      <trkpt lat="49.96918" lon="2.0941">
        <ele>13.5</ele>
        <time>2022-04-12T11:19:47Z</time>
      </trkpt>
      <trkpt lat="49.96919" lon="2.09409">
        <ele>13.5</ele>
        <time>2022-04-12T11:19:48Z</time>
      </trkpt>
      <trkpt lat="49.9692" lon="2.09406">
        <ele>13.6</ele>
        <time>2022-04-12T11:19:49Z</time>
      </trkpt>
      <trkpt lat="49.9692" lon="2.09405">
        <ele>13.6</ele>
        <time>2022-04-12T11:19:50Z</time>
      </trkpt>
      <trkpt lat="49.96921" lon="2.09404">
        <ele>13.6</ele>
        <time>2022-04-12T11:19:51Z</time>
      </trkpt>
      <trkpt lat="49.96922" lon="2.09403">
        <ele>13.6</ele>
        <time>2022-04-12T11:19:52Z</time>
      </trkpt>
      <trkpt lat="49.96923" lon="2.09401">
        <ele>13.6</ele>
        <time>2022-04-12T11:19:53Z</time>
      </trkpt>
      <trkpt lat="49.96924" lon="2.09399">
        <ele>13.6</ele>
        <time>2022-04-12T11:19:55Z</time>
      </trkpt>
      <trkpt lat="49.96926" lon="2.09398">
        <ele>13.6</ele>
        <time>2022-04-12T11:19:56Z</time>
      </trkpt>
      <trkpt lat="49.96927" lon="2.09397">
        <ele>13.6</ele>
        <time>2022-04-12T11:19:57Z</time>
      </trkpt>
      <trkpt lat="49.96927" lon="2.09397">
        <ele>13.6</ele>
        <time>2022-04-12T11:19:58Z</time>
      </trkpt>
      <trkpt lat="49.96929" lon="2.09397">
        <ele>13.6</ele>
        <time>2022-04-12T11:19:59Z</time>
      </trkpt>
      <trkpt lat="49.96929" lon="2.09396">
        <ele>13.6</ele>
        <time>2022-04-12T11:20:00Z</time>
      </trkpt>
      <trkpt lat="49.9693" lon="2.09395">
        <ele>13.6</ele>
        <time>2022-04-12T11:20:02Z</time>
      </trkpt>
      <trkpt lat="49.96931" lon="2.09394">
        <ele>13.6</ele>
        <time>2022-04-12T11:20:03Z</time>
      </trkpt>
      <trkpt lat="49.96932" lon="2.09394">
        <ele>13.6</ele>
        <time>2022-04-12T11:20:04Z</time>
      </trkpt>
      <trkpt lat="49.96933" lon="2.09393">
        <ele>13.5</ele>
        <time>2022-04-12T11:20:05Z</time>
      </trkpt>
      <trkpt lat="49.96935" lon="2.09392">
        <ele>13.5</ele>
        <time>2022-04-12T11:20:06Z</time>
      </trkpt>
      <trkpt lat="49.96935" lon="2.09391">
        <ele>13.5</ele>
        <time>2022-04-12T11:20:07Z</time>
      </trkpt>
      <trkpt lat="49.96937" lon="2.09391">
        <ele>13.5</ele>
        <time>2022-04-12T11:20:08Z</time>
      </trkpt>
      <trkpt lat="49.96939" lon="2.09391">
        <ele>13.5</ele>
        <time>2022-04-12T11:20:09Z</time>
      </trkpt>
      <trkpt lat="49.9694" lon="2.09391">
        <ele>13.5</ele>
        <time>2022-04-12T11:20:10Z</time>
      </trkpt>
      <trkpt lat="49.96941" lon="2.09392">
        <ele>13.5</ele>
        <time>2022-04-12T11:20:11Z</time>
      </trkpt>
      <trkpt lat="49.96943" lon="2.09392">
        <ele>13.5</ele>
        <time>2022-04-12T11:20:13Z</time>
      </trkpt>
      <trkpt lat="49.96944" lon="2.09393">
        <ele>13.5</ele>
        <time>2022-04-12T11:20:14Z</time>
      </trkpt>
      <trkpt lat="49.96944" lon="2.09393">
        <ele>13.5</ele>
        <time>2022-04-12T11:20:15Z</time>
      </trkpt>
      <trkpt lat="49.96946" lon="2.09394">
        <ele>13.5</ele>
        <time>2022-04-12T11:20:16Z</time>
      </trkpt>
      <trkpt lat="49.96947" lon="2.09394">
        <ele>13.5</ele>
        <time>2022-04-12T11:20:17Z</time>
      </trkpt>
      <trkpt lat="49.96949" lon="2.09394">
        <ele>13.5</ele>
        <time>2022-04-12T11:20:18Z</time>
      </trkpt>
      <trkpt lat="49.9695" lon="2.09394">
        <ele>13.5</ele>
        <time>2022-04-12T11:20:19Z</time>
      </trkpt>
      <trkpt lat="49.96951" lon="2.09394">
        <ele>13.4</ele>
        <time>2022-04-12T11:20:20Z</time>
      </trkpt>
      <trkpt lat="49.96952" lon="2.09394">
        <ele>13.4</ele>
        <time>2022-04-12T11:20:21Z</time>
      </trkpt>
      <trkpt lat="49.96954" lon="2.09394">
        <ele>13.4</ele>
        <time>2022-04-12T11:20:22Z</time>
      </trkpt>
      <trkpt lat="49.96955" lon="2.09393">
        <ele>13.4</ele>
        <time>2022-04-12T11:20:24Z</time>
      </trkpt>
      <trkpt lat="49.96956" lon="2.09392">
        <ele>13.4</ele>
        <time>2022-04-12T11:20:25Z</time>
      </trkpt>
      <trkpt lat="49.96957" lon="2.09392">
        <ele>13.4</ele>
        <time>2022-04-12T11:20:26Z</time>
      </trkpt>
      <trkpt lat="49.96959" lon="2.0939">
        <ele>13.4</ele>
        <time>2022-04-12T11:20:27Z</time>
      </trkpt>
      <trkpt lat="49.9696" lon="2.09389">
        <ele>13.4</ele>
        <time>2022-04-12T11:20:28Z</time>
      </trkpt>
      <trkpt lat="49.9696" lon="2.09389">
        <ele>13.4</ele>
        <time>2022-04-12T11:20:29Z</time>
      </trkpt>
      <trkpt lat="49.96962" lon="2.09387">
        <ele>13.4</ele>
        <time>2022-04-12T11:20:30Z</time>
      </trkpt>
      <trkpt lat="49.96963" lon="2.09386">
        <ele>13.4</ele>
        <time>2022-04-12T11:20:31Z</time>
      </trkpt>
      <trkpt lat="49.96963" lon="2.09385">
        <ele>13.4</ele>
        <time>2022-04-12T11:20:32Z</time>
      </trkpt>
      <trkpt lat="49.96964" lon="2.09384">
        <ele>13.4</ele>
        <time>2022-04-12T11:20:33Z</time>
      </trkpt>
      <trkpt lat="49.96965" lon="2.09382">
        <ele>13.4</ele>
        <time>2022-04-12T11:20:35Z</time>
      </trkpt>
      <trkpt lat="49.96966" lon="2.09381">
        <ele>13.4</ele>
        <time>2022-04-12T11:20:36Z</time>
      </trkpt>
      <trkpt lat="49.96966" lon="2.09379">
        <ele>13.4</ele>
        <time>2022-04-12T11:20:37Z</time>
      </trkpt>
      <trkpt lat="49.96967" lon="2.09377">
        <ele>13.5</ele>
        <time>2022-04-12T11:20:38Z</time>
      </trkpt>
      <trkpt lat="49.96967" lon="2.09375">
        <ele>13.5</ele>
        <time>2022-04-12T11:20:39Z</time>
      </trkpt>
      <trkpt lat="49.96968" lon="2.09372">
        <ele>13.5</ele>
        <time>2022-04-12T11:20:40Z</time>
      </trkpt>
      <trkpt lat="49.96968" lon="2.0937">
        <ele>13.5</ele>
        <time>2022-04-12T11:20:41Z</time>
      </trkpt>
      <trkpt lat="49.96968" lon="2.09367">
        <ele>13.5</ele>
        <time>2022-04-12T11:20:42Z</time>
      </trkpt>
      <trkpt lat="49.96968" lon="2.09362">
        <ele>13.5</ele>
        <time>2022-04-12T11:20:43Z</time>
      </trkpt>
      <trkpt lat="49.96968" lon="2.09361">
        <ele>13.5</ele>
        <time>2022-04-12T11:20:44Z</time>
      </trkpt>
      <trkpt lat="49.96968" lon="2.09358">
        <ele>13.5</ele>
        <time>2022-04-12T11:20:45Z</time>
      </trkpt>
      <trkpt lat="49.96968" lon="2.09356">
        <ele>13.5</ele>
        <time>2022-04-12T11:20:47Z</time>
      </trkpt>
      <trkpt lat="49.96967" lon="2.09353">
        <ele>13.5</ele>
        <time>2022-04-12T11:20:48Z</time>
      </trkpt>
      <trkpt lat="49.96967" lon="2.09351">
        <ele>13.5</ele>
        <time>2022-04-12T11:20:49Z</time>
      </trkpt>
      <trkpt lat="49.96966" lon="2.09349">
        <ele>13.5</ele>
        <time>2022-04-12T11:20:50Z</time>
      </trkpt>
      <trkpt lat="49.96965" lon="2.09347">
        <ele>13.5</ele>
        <time>2022-04-12T11:20:51Z</time>
      </trkpt>
      <trkpt lat="49.96964" lon="2.09345">
        <ele>13.5</ele>
        <time>2022-04-12T11:20:52Z</time>
      </trkpt>
      <trkpt lat="49.96963" lon="2.09342">
        <ele>13.5</ele>
        <time>2022-04-12T11:20:54Z</time>
      </trkpt>
      <trkpt lat="49.96962" lon="2.0934">
        <ele>13.5</ele>
        <time>2022-04-12T11:20:55Z</time>
      </trkpt>
      <trkpt lat="49.96961" lon="2.09339">
        <ele>13.5</ele>
        <time>2022-04-12T11:20:56Z</time>
      </trkpt>
      <trkpt lat="49.9696" lon="2.09337">
        <ele>13.5</ele>
        <time>2022-04-12T11:20:57Z</time>
      </trkpt>
      <trkpt lat="49.96958" lon="2.09336">
        <ele>13.5</ele>
        <time>2022-04-12T11:20:58Z</time>
      </trkpt>
      <trkpt lat="49.96957" lon="2.09334">
        <ele>13.5</ele>
        <time>2022-04-12T11:20:59Z</time>
      </trkpt>
      <trkpt lat="49.96956" lon="2.09332">
        <ele>13.5</ele>
        <time>2022-04-12T11:21:00Z</time>
      </trkpt>
      <trkpt lat="49.96955" lon="2.09331">
        <ele>13.5</ele>
        <time>2022-04-12T11:21:01Z</time>
      </trkpt>
      <trkpt lat="49.96954" lon="2.09329">
        <ele>13.5</ele>
        <time>2022-04-12T11:21:02Z</time>
      </trkpt>
      <trkpt lat="49.96953" lon="2.09327">
        <ele>13.5</ele>
        <time>2022-04-12T11:21:04Z</time>
      </trkpt>
      <trkpt lat="49.96952" lon="2.09325">
        <ele>13.5</ele>
        <time>2022-04-12T11:21:05Z</time>
      </trkpt>
      <trkpt lat="49.96951" lon="2.09323">
        <ele>13.5</ele>
        <time>2022-04-12T11:21:06Z</time>
      </trkpt>
      <trkpt lat="49.9695" lon="2.09321">
        <ele>13.4</ele>
        <time>2022-04-12T11:21:07Z</time>
      </trkpt>
      <trkpt lat="49.96949" lon="2.09319">
        <ele>13.4</ele>
        <time>2022-04-12T11:21:08Z</time>
      </trkpt>
      <trkpt lat="49.96949" lon="2.09316">
        <ele>13.3</ele>
        <time>2022-04-12T11:21:09Z</time>
      </trkpt>
      <trkpt lat="49.96949" lon="2.09314">
        <ele>13.3</ele>
        <time>2022-04-12T11:21:10Z</time>
      </trkpt>
      <trkpt lat="49.96949" lon="2.09311">
        <ele>13.3</ele>
        <time>2022-04-12T11:21:11Z</time>
      </trkpt>
      <trkpt lat="49.9695" lon="2.09309">
        <ele>13.2</ele>
        <time>2022-04-12T11:21:13Z</time>
      </trkpt>
      <trkpt lat="49.9695" lon="2.09307">
        <ele>13.2</ele>
        <time>2022-04-12T11:21:14Z</time>
      </trkpt>
      <trkpt lat="49.96951" lon="2.09304">
        <ele>13.2</ele>
        <time>2022-04-12T11:21:15Z</time>
      </trkpt>
      <trkpt lat="49.96952" lon="2.09303">
        <ele>13.2</ele>
        <time>2022-04-12T11:21:16Z</time>
      </trkpt>
      <trkpt lat="49.96952" lon="2.09302">
        <ele>13.2</ele>
        <time>2022-04-12T11:21:17Z</time>
      </trkpt>
      <trkpt lat="49.96953" lon="2.093">
        <ele>13.1</ele>
        <time>2022-04-12T11:21:19Z</time>
      </trkpt>
      <trkpt lat="49.96954" lon="2.09299">
        <ele>13.1</ele>
        <time>2022-04-12T11:21:20Z</time>
      </trkpt>
      <trkpt lat="49.96956" lon="2.09297">
        <ele>13.1</ele>
        <time>2022-04-12T11:21:21Z</time>
      </trkpt>
      <trkpt lat="49.96956" lon="2.09296">
        <ele>13.1</ele>
        <time>2022-04-12T11:21:22Z</time>
      </trkpt>
      <trkpt lat="49.96957" lon="2.09295">
        <ele>13.1</ele>
        <time>2022-04-12T11:21:23Z</time>
      </trkpt>
      <trkpt lat="49.96958" lon="2.09293">
        <ele>13.1</ele>
        <time>2022-04-12T11:21:24Z</time>
      </trkpt>
      <trkpt lat="49.96958" lon="2.09291">
        <ele>13</ele>
        <time>2022-04-12T11:21:25Z</time>
      </trkpt>
      <trkpt lat="49.9696" lon="2.09288">
        <ele>13</ele>
        <time>2022-04-12T11:21:26Z</time>
      </trkpt>
      <trkpt lat="49.96961" lon="2.09287">
        <ele>13</ele>
        <time>2022-04-12T11:21:28Z</time>
      </trkpt>
      <trkpt lat="49.96962" lon="2.09286">
        <ele>13</ele>
        <time>2022-04-12T11:21:29Z</time>
      </trkpt>
      <trkpt lat="49.96963" lon="2.09285">
        <ele>13</ele>
        <time>2022-04-12T11:21:30Z</time>
      </trkpt>
      <trkpt lat="49.96963" lon="2.09284">
        <ele>13</ele>
        <time>2022-04-12T11:21:31Z</time>
      </trkpt>
      <trkpt lat="49.96965" lon="2.09283">
        <ele>13</ele>
        <time>2022-04-12T11:21:32Z</time>
      </trkpt>
      <trkpt lat="49.96966" lon="2.09282">
        <ele>13</ele>
        <time>2022-04-12T11:21:33Z</time>
      </trkpt>
      <trkpt lat="49.96967" lon="2.0928">
        <ele>13</ele>
        <time>2022-04-12T11:21:34Z</time>
      </trkpt>
      <trkpt lat="49.96968" lon="2.09279">
        <ele>12.9</ele>
        <time>2022-04-12T11:21:35Z</time>
      </trkpt>
      <trkpt lat="49.9697" lon="2.09278">
        <ele>12.9</ele>
        <time>2022-04-12T11:21:37Z</time>
      </trkpt>
      <trkpt lat="49.96971" lon="2.09277">
        <ele>12.9</ele>
        <time>2022-04-12T11:21:38Z</time>
      </trkpt>
      <trkpt lat="49.96972" lon="2.09275">
        <ele>12.9</ele>
        <time>2022-04-12T11:21:39Z</time>
      </trkpt>
      <trkpt lat="49.96973" lon="2.09274">
        <ele>12.9</ele>
        <time>2022-04-12T11:21:40Z</time>
      </trkpt>
      <trkpt lat="49.96974" lon="2.09273">
        <ele>12.9</ele>
        <time>2022-04-12T11:21:41Z</time>
      </trkpt>
      <trkpt lat="49.96975" lon="2.09271">
        <ele>12.9</ele>
        <time>2022-04-12T11:21:42Z</time>
      </trkpt>
      <trkpt lat="49.96976" lon="2.0927">
        <ele>12.8</ele>
        <time>2022-04-12T11:21:43Z</time>
      </trkpt>
      <trkpt lat="49.96977" lon="2.09268">
        <ele>12.8</ele>
        <time>2022-04-12T11:21:45Z</time>
      </trkpt>
      <trkpt lat="49.96978" lon="2.09266">
        <ele>12.8</ele>
        <time>2022-04-12T11:21:46Z</time>
      </trkpt>
      <trkpt lat="49.96979" lon="2.09264">
        <ele>12.8</ele>
        <time>2022-04-12T11:21:47Z</time>
      </trkpt>
      <trkpt lat="49.9698" lon="2.09261">
        <ele>12.8</ele>
        <time>2022-04-12T11:21:48Z</time>
      </trkpt>
      <trkpt lat="49.9698" lon="2.0926">
        <ele>12.8</ele>
        <time>2022-04-12T11:21:49Z</time>
      </trkpt>
      <trkpt lat="49.9698" lon="2.09258">
        <ele>12.8</ele>
        <time>2022-04-12T11:21:50Z</time>
      </trkpt>
      <trkpt lat="49.96981" lon="2.09256">
        <ele>12.7</ele>
        <time>2022-04-12T11:21:52Z</time>
      </trkpt>
      <trkpt lat="49.96981" lon="2.09254">
        <ele>12.7</ele>
        <time>2022-04-12T11:21:53Z</time>
      </trkpt>
      <trkpt lat="49.96981" lon="2.0925">
        <ele>12.7</ele>
        <time>2022-04-12T11:21:54Z</time>
      </trkpt>
      <trkpt lat="49.96981" lon="2.09249">
        <ele>12.7</ele>
        <time>2022-04-12T11:21:55Z</time>
      </trkpt>
      <trkpt lat="49.96981" lon="2.09247">
        <ele>12.7</ele>
        <time>2022-04-12T11:21:56Z</time>
      </trkpt>
      <trkpt lat="49.96981" lon="2.09245">
        <ele>12.7</ele>
        <time>2022-04-12T11:21:57Z</time>
      </trkpt>
      <trkpt lat="49.96981" lon="2.09243">
        <ele>12.7</ele>
        <time>2022-04-12T11:21:58Z</time>
      </trkpt>
      <trkpt lat="49.96981" lon="2.09242">
        <ele>12.7</ele>
        <time>2022-04-12T11:21:59Z</time>
      </trkpt>
      <trkpt lat="49.96981" lon="2.0924">
        <ele>12.7</ele>
        <time>2022-04-12T11:22:01Z</time>
      </trkpt>
      <trkpt lat="49.96982" lon="2.09239">
        <ele>12.7</ele>
        <time>2022-04-12T11:22:02Z</time>
      </trkpt>
      <trkpt lat="49.96982" lon="2.09237">
        <ele>12.7</ele>
        <time>2022-04-12T11:22:03Z</time>
      </trkpt>
      <trkpt lat="49.96982" lon="2.09235">
        <ele>12.6</ele>
        <time>2022-04-12T11:22:04Z</time>
      </trkpt>
      <trkpt lat="49.96982" lon="2.09234">
        <ele>12.6</ele>
        <time>2022-04-12T11:22:05Z</time>
      </trkpt>
      <trkpt lat="49.96982" lon="2.09232">
        <ele>12.6</ele>
        <time>2022-04-12T11:22:06Z</time>
      </trkpt>
      <trkpt lat="49.96982" lon="2.0923">
        <ele>12.6</ele>
        <time>2022-04-12T11:22:07Z</time>
      </trkpt>
      <trkpt lat="49.96982" lon="2.09229">
        <ele>12.6</ele>
        <time>2022-04-12T11:22:08Z</time>
      </trkpt>
      <trkpt lat="49.96983" lon="2.09227">
        <ele>12.6</ele>
        <time>2022-04-12T11:22:09Z</time>
      </trkpt>
      <trkpt lat="49.96983" lon="2.09224">
        <ele>12.6</ele>
        <time>2022-04-12T11:22:11Z</time>
      </trkpt>
      <trkpt lat="49.96984" lon="2.09223">
        <ele>12.6</ele>
        <time>2022-04-12T11:22:12Z</time>
      </trkpt>
      <trkpt lat="49.96984" lon="2.09222">
        <ele>12.6</ele>
        <time>2022-04-12T11:22:13Z</time>
      </trkpt>
      <trkpt lat="49.96984" lon="2.0922">
        <ele>12.5</ele>
        <time>2022-04-12T11:22:14Z</time>
      </trkpt>
      <trkpt lat="49.96985" lon="2.09218">
        <ele>12.5</ele>
        <time>2022-04-12T11:22:16Z</time>
      </trkpt>
      <trkpt lat="49.96985" lon="2.09216">
        <ele>12.5</ele>
        <time>2022-04-12T11:22:17Z</time>
      </trkpt>
      <trkpt lat="49.96985" lon="2.09215">
        <ele>12.5</ele>
        <time>2022-04-12T11:22:18Z</time>
      </trkpt>
      <trkpt lat="49.96985" lon="2.09214">
        <ele>12.5</ele>
        <time>2022-04-12T11:22:19Z</time>
      </trkpt>
      <trkpt lat="49.96985" lon="2.09212">
        <ele>12.5</ele>
        <time>2022-04-12T11:22:20Z</time>
      </trkpt>
      <trkpt lat="49.96984" lon="2.09212">
        <ele>12.5</ele>
        <time>2022-04-12T11:22:21Z</time>
      </trkpt>
      <trkpt lat="49.96984" lon="2.09211">
        <ele>12.4</ele>
        <time>2022-04-12T11:22:22Z</time>
      </trkpt>
      <trkpt lat="49.96983" lon="2.09211">
        <ele>12.4</ele>
        <time>2022-04-12T11:22:23Z</time>
      </trkpt>
      <trkpt lat="49.96982" lon="2.09211">
        <ele>12.4</ele>
        <time>2022-04-12T11:22:24Z</time>
      </trkpt>
      <trkpt lat="49.96981" lon="2.0921">
        <ele>12.4</ele>
        <time>2022-04-12T11:22:25Z</time>
      </trkpt>
      <trkpt lat="49.96981" lon="2.0921">
        <ele>12.4</ele>
        <time>2022-04-12T11:22:26Z</time>
      </trkpt>
      <trkpt lat="49.9698" lon="2.09209">
        <ele>12.4</ele>
        <time>2022-04-12T11:22:28Z</time>
      </trkpt>
      <trkpt lat="49.96979" lon="2.09209">
        <ele>12.4</ele>
        <time>2022-04-12T11:22:29Z</time>
      </trkpt>
      <trkpt lat="49.96979" lon="2.09208">
        <ele>12.4</ele>
        <time>2022-04-12T11:22:30Z</time>
      </trkpt>
      <trkpt lat="49.96978" lon="2.09207">
        <ele>12.3</ele>
        <time>2022-04-12T11:22:32Z</time>
      </trkpt>
      <trkpt lat="49.96978" lon="2.09207">
        <ele>12.3</ele>
        <time>2022-04-12T11:22:33Z</time>
      </trkpt>
      <trkpt lat="49.96978" lon="2.09207">
        <ele>12.3</ele>
        <time>2022-04-12T11:22:34Z</time>
      </trkpt>
      <trkpt lat="49.96978" lon="2.09207">
        <ele>12.3</ele>
        <time>2022-04-12T11:22:35Z</time>
      </trkpt>
      <trkpt lat="49.96978" lon="2.09207">
        <ele>12.3</ele>
        <time>2022-04-12T11:22:36Z</time>
      </trkpt>
      <trkpt lat="49.96978" lon="2.09207">
        <ele>12.3</ele>
        <time>2022-04-12T11:22:37Z</time>
      </trkpt>
      <trkpt lat="49.96979" lon="2.09207">
        <ele>12.3</ele>
        <time>2022-04-12T11:22:38Z</time>
      </trkpt>
      <trkpt lat="49.96979" lon="2.09207">
        <ele>12.3</ele>
        <time>2022-04-12T11:22:39Z</time>
      </trkpt>
      <trkpt lat="49.96979" lon="2.09207">
        <ele>12.3</ele>
        <time>2022-04-12T11:22:40Z</time>
      </trkpt>
      <trkpt lat="49.96979" lon="2.09207">
        <ele>12.3</ele>
        <time>2022-04-12T11:22:41Z</time>
      </trkpt>
      <trkpt lat="49.96979" lon="2.09208">
        <ele>12.3</ele>
        <time>2022-04-12T11:22:42Z</time>
      </trkpt>
      <trkpt lat="49.96979" lon="2.09208">
        <ele>12.3</ele>
        <time>2022-04-12T11:22:43Z</time>
      </trkpt>
      <trkpt lat="49.96979" lon="2.09208">
        <ele>12.3</ele>
        <time>2022-04-12T11:22:44Z</time>
      </trkpt>
      <trkpt lat="49.96979" lon="2.09208">
        <ele>12.3</ele>
        <time>2022-04-12T11:22:45Z</time>
      </trkpt>
      <trkpt lat="49.96979" lon="2.09208">
        <ele>12.3</ele>
        <time>2022-04-12T11:22:46Z</time>
      </trkpt>
      <trkpt lat="49.96979" lon="2.09208">
        <ele>12.3</ele>
        <time>2022-04-12T11:22:47Z</time>
      </trkpt>
      <trkpt lat="49.96979" lon="2.09208">
        <ele>12.3</ele>
        <time>2022-04-12T11:22:48Z</time>
      </trkpt>
      <trkpt lat="49.96979" lon="2.09208">
        <ele>12.3</ele>
        <time>2022-04-12T11:22:49Z</time>
      </trkpt>
      <trkpt lat="49.96979" lon="2.09208">
        <ele>12.3</ele>
        <time>2022-04-12T11:22:50Z</time>
      </trkpt>
      <trkpt lat="49.96979" lon="2.09208">
        <ele>12.3</ele>
        <time>2022-04-12T11:22:51Z</time>
      </trkpt>
      <trkpt lat="49.96979" lon="2.09208">
        <ele>12.3</ele>
        <time>2022-04-12T11:22:52Z</time>
      </trkpt>
      <trkpt lat="49.96979" lon="2.09208">
        <ele>12.3</ele>
        <time>2022-04-12T11:22:53Z</time>
      </trkpt>
      <trkpt lat="49.96979" lon="2.09208">
        <ele>12.3</ele>
        <time>2022-04-12T11:22:54Z</time>
      </trkpt>
      <trkpt lat="49.96979" lon="2.09208">
        <ele>12.3</ele>
        <time>2022-04-12T11:22:55Z</time>
      </trkpt>
      <trkpt lat="49.96979" lon="2.09208">
        <ele>12.3</ele>
        <time>2022-04-12T11:22:56Z</time>
      </trkpt>
      <trkpt lat="49.96979" lon="2.09208">
        <ele>12.3</ele>
        <time>2022-04-12T11:22:57Z</time>
      </trkpt>
      <trkpt lat="49.96979" lon="2.09208">
        <ele>12.3</ele>
        <time>2022-04-12T11:22:58Z</time>
      </trkpt>
      <trkpt lat="49.96979" lon="2.09209">
        <ele>12.3</ele>
        <time>2022-04-12T11:22:59Z</time>
      </trkpt>
      <trkpt lat="49.96979" lon="2.09209">
        <ele>12.3</ele>
        <time>2022-04-12T11:23:00Z</time>
      </trkpt>
      <trkpt lat="49.96979" lon="2.09209">
        <ele>12.3</ele>
        <time>2022-04-12T11:23:01Z</time>
      </trkpt>
      <trkpt lat="49.96979" lon="2.09209">
        <ele>12.3</ele>
        <time>2022-04-12T11:23:02Z</time>
      </trkpt>
      <trkpt lat="49.96979" lon="2.09209">
        <ele>12.3</ele>
        <time>2022-04-12T11:23:03Z</time>
      </trkpt>
      <trkpt lat="49.96979" lon="2.09209">
        <ele>12.3</ele>
        <time>2022-04-12T11:23:04Z</time>
      </trkpt>
      <trkpt lat="49.96979" lon="2.09209">
        <ele>12.3</ele>
        <time>2022-04-12T11:23:05Z</time>
      </trkpt>
      <trkpt lat="49.96979" lon="2.09209">
        <ele>12.3</ele>
        <time>2022-04-12T11:23:06Z</time>
      </trkpt>
      <trkpt lat="49.96979" lon="2.09209">
        <ele>12.3</ele>
        <time>2022-04-12T11:23:07Z</time>
      </trkpt>
      <trkpt lat="49.96979" lon="2.09209">
        <ele>12.3</ele>
        <time>2022-04-12T11:23:08Z</time>
      </trkpt>
      <trkpt lat="49.96979" lon="2.09209">
        <ele>12.3</ele>
        <time>2022-04-12T11:23:09Z</time>
      </trkpt>
      <trkpt lat="49.96979" lon="2.09209">
        <ele>12.3</ele>
        <time>2022-04-12T11:23:10Z</time>
      </trkpt>
      <trkpt lat="49.96979" lon="2.09209">
        <ele>12.3</ele>
        <time>2022-04-12T11:23:11Z</time>
      </trkpt>
      <trkpt lat="49.96979" lon="2.09209">
        <ele>12.3</ele>
        <time>2022-04-12T11:23:12Z</time>
      </trkpt>
      <trkpt lat="49.96979" lon="2.09209">
        <ele>12.3</ele>
        <time>2022-04-12T11:23:13Z</time>
      </trkpt>
      <trkpt lat="49.96979" lon="2.09209">
        <ele>12.3</ele>
        <time>2022-04-12T11:23:14Z</time>
      </trkpt>
      <trkpt lat="49.96979" lon="2.0921">
        <ele>12.3</ele>
        <time>2022-04-12T11:23:15Z</time>
      </trkpt>
      <trkpt lat="49.96979" lon="2.0921">
        <ele>12.3</ele>
        <time>2022-04-12T11:23:16Z</time>
      </trkpt>
      <trkpt lat="49.96979" lon="2.0921">
        <ele>12.3</ele>
        <time>2022-04-12T11:23:17Z</time>
      </trkpt>
      <trkpt lat="49.96979" lon="2.0921">
        <ele>12.3</ele>
        <time>2022-04-12T11:23:18Z</time>
      </trkpt>
      <trkpt lat="49.96979" lon="2.0921">
        <ele>12.3</ele>
        <time>2022-04-12T11:23:19Z</time>
      </trkpt>
      <trkpt lat="49.96979" lon="2.0921">
        <ele>12.3</ele>
        <time>2022-04-12T11:23:20Z</time>
      </trkpt>
      <trkpt lat="49.96979" lon="2.0921">
        <ele>12.3</ele>
        <time>2022-04-12T11:23:21Z</time>
      </trkpt>
      <trkpt lat="49.96979" lon="2.0921">
        <ele>12.3</ele>
        <time>2022-04-12T11:23:22Z</time>
      </trkpt>
      <trkpt lat="49.96979" lon="2.0921">
        <ele>12.3</ele>
        <time>2022-04-12T11:23:23Z</time>
      </trkpt>
      <trkpt lat="49.96979" lon="2.0921">
        <ele>12.3</ele>
        <time>2022-04-12T11:23:24Z</time>
      </trkpt>
      <trkpt lat="49.96979" lon="2.0921">
        <ele>12.3</ele>
        <time>2022-04-12T11:23:25Z</time>
      </trkpt>
      <trkpt lat="49.96979" lon="2.0921">
        <ele>12.3</ele>
        <time>2022-04-12T11:23:26Z</time>
      </trkpt>
      <trkpt lat="49.96979" lon="2.0921">
        <ele>12.3</ele>
        <time>2022-04-12T11:23:27Z</time>
      </trkpt>
      <trkpt lat="49.96979" lon="2.0921">
        <ele>12.3</ele>
        <time>2022-04-12T11:23:28Z</time>
      </trkpt>
      <trkpt lat="49.96979" lon="2.0921">
        <ele>12.3</ele>
        <time>2022-04-12T11:23:29Z</time>
      </trkpt>
      <trkpt lat="49.9698" lon="2.0921">
        <ele>12.3</ele>
        <time>2022-04-12T11:23:30Z</time>
      </trkpt>
      <trkpt lat="49.9698" lon="2.0921">
        <ele>12.3</ele>
        <time>2022-04-12T11:23:31Z</time>
      </trkpt>
      <trkpt lat="49.9698" lon="2.09211">
        <ele>12.3</ele>
        <time>2022-04-12T11:23:32Z</time>
      </trkpt>
      <trkpt lat="49.9698" lon="2.09211">
        <ele>12.3</ele>
        <time>2022-04-12T11:23:33Z</time>
      </trkpt>
      <trkpt lat="49.9698" lon="2.09211">
        <ele>12.3</ele>
        <time>2022-04-12T11:23:34Z</time>
      </trkpt>
      <trkpt lat="49.9698" lon="2.09211">
        <ele>12.3</ele>
        <time>2022-04-12T11:23:35Z</time>
      </trkpt>
      <trkpt lat="49.9698" lon="2.09211">
        <ele>12.3</ele>
        <time>2022-04-12T11:23:36Z</time>
      </trkpt>
      <trkpt lat="49.9698" lon="2.09211">
        <ele>12.3</ele>
        <time>2022-04-12T11:23:37Z</time>
      </trkpt>
      <trkpt lat="49.9698" lon="2.09211">
        <ele>12.3</ele>
        <time>2022-04-12T11:23:38Z</time>
      </trkpt>
      <trkpt lat="49.9698" lon="2.09211">
        <ele>12.3</ele>
        <time>2022-04-12T11:23:39Z</time>
      </trkpt>
      <trkpt lat="49.9698" lon="2.09211">
        <ele>12.3</ele>
        <time>2022-04-12T11:23:40Z</time>
      </trkpt>
      <trkpt lat="49.9698" lon="2.09211">
        <ele>12.3</ele>
        <time>2022-04-12T11:23:41Z</time>
      </trkpt>
      <trkpt lat="49.9698" lon="2.09211">
        <ele>12.3</ele>
        <time>2022-04-12T11:23:42Z</time>
      </trkpt>
      <trkpt lat="49.9698" lon="2.09211">
        <ele>12.3</ele>
        <time>2022-04-12T11:23:43Z</time>
      </trkpt>
      <trkpt lat="49.9698" lon="2.09211">
        <ele>12.3</ele>
        <time>2022-04-12T11:23:44Z</time>
      </trkpt>
      <trkpt lat="49.9698" lon="2.09211">
        <ele>12.3</ele>
        <time>2022-04-12T11:23:45Z</time>
      </trkpt>
      <trkpt lat="49.9698" lon="2.09211">
        <ele>12.3</ele>
        <time>2022-04-12T11:23:46Z</time>
      </trkpt>
      <trkpt lat="49.9698" lon="2.09211">
        <ele>12.3</ele>
        <time>2022-04-12T11:23:47Z</time>
      </trkpt>
      <trkpt lat="49.9698" lon="2.09211">
        <ele>12.3</ele>
        <time>2022-04-12T11:23:48Z</time>
      </trkpt>
      <trkpt lat="49.9698" lon="2.09212">
        <ele>12.3</ele>
        <time>2022-04-12T11:23:49Z</time>
      </trkpt>
      <trkpt lat="49.9698" lon="2.09212">
        <ele>12.3</ele>
        <time>2022-04-12T11:23:50Z</time>
      </trkpt>
      <trkpt lat="49.9698" lon="2.09212">
        <ele>12.3</ele>
        <time>2022-04-12T11:23:51Z</time>
      </trkpt>
      <trkpt lat="49.9698" lon="2.09212">
        <ele>12.3</ele>
        <time>2022-04-12T11:23:52Z</time>
      </trkpt>
      <trkpt lat="49.9698" lon="2.09212">
        <ele>12.3</ele>
        <time>2022-04-12T11:23:53Z</time>
      </trkpt>
      <trkpt lat="49.9698" lon="2.09212">
        <ele>12.3</ele>
        <time>2022-04-12T11:23:54Z</time>
      </trkpt>
      <trkpt lat="49.9698" lon="2.09212">
        <ele>12.3</ele>
        <time>2022-04-12T11:23:55Z</time>
      </trkpt>
      <trkpt lat="49.9698" lon="2.09212">
        <ele>12.3</ele>
        <time>2022-04-12T11:23:56Z</time>
      </trkpt>
      <trkpt lat="49.9698" lon="2.09212">
        <ele>12.3</ele>
        <time>2022-04-12T11:23:57Z</time>
      </trkpt>
      <trkpt lat="49.9698" lon="2.09212">
        <ele>12.3</ele>
        <time>2022-04-12T11:23:58Z</time>
      </trkpt>
      <trkpt lat="49.9698" lon="2.09212">
        <ele>12.3</ele>
        <time>2022-04-12T11:23:59Z</time>
      </trkpt>
      <trkpt lat="49.9698" lon="2.09212">
        <ele>12.3</ele>
        <time>2022-04-12T11:24:00Z</time>
      </trkpt>
      <trkpt lat="49.9698" lon="2.09212">
        <ele>12.2</ele>
        <time>2022-04-12T11:24:01Z</time>
      </trkpt>
      <trkpt lat="49.9698" lon="2.09212">
        <ele>12.2</ele>
        <time>2022-04-12T11:24:02Z</time>
      </trkpt>
      <trkpt lat="49.9698" lon="2.09212">
        <ele>12.2</ele>
        <time>2022-04-12T11:24:03Z</time>
      </trkpt>
      <trkpt lat="49.9698" lon="2.09212">
        <ele>12.2</ele>
        <time>2022-04-12T11:24:04Z</time>
      </trkpt>
      <trkpt lat="49.9698" lon="2.09212">
        <ele>12.2</ele>
        <time>2022-04-12T11:24:05Z</time>
      </trkpt>
      <trkpt lat="49.9698" lon="2.09213">
        <ele>12.2</ele>
        <time>2022-04-12T11:24:06Z</time>
      </trkpt>
      <trkpt lat="49.9698" lon="2.09213">
        <ele>12.2</ele>
        <time>2022-04-12T11:24:07Z</time>
      </trkpt>
      <trkpt lat="49.9698" lon="2.09213">
        <ele>12.2</ele>
        <time>2022-04-12T11:24:08Z</time>
      </trkpt>
      <trkpt lat="49.9698" lon="2.09213">
        <ele>12.2</ele>
        <time>2022-04-12T11:24:09Z</time>
      </trkpt>
      <trkpt lat="49.9698" lon="2.09213">
        <ele>12.2</ele>
        <time>2022-04-12T11:24:10Z</time>
      </trkpt>
      <trkpt lat="49.9698" lon="2.09213">
        <ele>12.2</ele>
        <time>2022-04-12T11:24:11Z</time>
      </trkpt>
      <trkpt lat="49.9698" lon="2.09213">
        <ele>12.2</ele>
        <time>2022-04-12T11:24:12Z</time>
      </trkpt>
      <trkpt lat="49.9698" lon="2.09213">
        <ele>12.2</ele>
        <time>2022-04-12T11:24:13Z</time>
      </trkpt>
      <trkpt lat="49.9698" lon="2.09213">
        <ele>12.2</ele>
        <time>2022-04-12T11:24:14Z</time>
      </trkpt>
      <trkpt lat="49.9698" lon="2.09213">
        <ele>12.2</ele>
        <time>2022-04-12T11:24:15Z</time>
      </trkpt>
      <trkpt lat="49.9698" lon="2.09213">
        <ele>12.2</ele>
        <time>2022-04-12T11:24:16Z</time>
      </trkpt>
      <trkpt lat="49.9698" lon="2.09213">
        <ele>12.2</ele>
        <time>2022-04-12T11:24:17Z</time>
      </trkpt>
      <trkpt lat="49.9698" lon="2.09213">
        <ele>12.2</ele>
        <time>2022-04-12T11:24:18Z</time>
      </trkpt>
      <trkpt lat="49.9698" lon="2.09213">
        <ele>12.2</ele>
        <time>2022-04-12T11:24:19Z</time>
      </trkpt>
      <trkpt lat="49.9698" lon="2.09213">
        <ele>12.2</ele>
        <time>2022-04-12T11:24:20Z</time>
      </trkpt>
      <trkpt lat="49.9698" lon="2.09213">
        <ele>12.2</ele>
        <time>2022-04-12T11:24:21Z</time>
      </trkpt>
      <trkpt lat="49.9698" lon="2.09214">
        <ele>12.2</ele>
        <time>2022-04-12T11:24:22Z</time>
      </trkpt>
      <trkpt lat="49.96981" lon="2.09214">
        <ele>12.2</ele>
        <time>2022-04-12T11:24:23Z</time>
      </trkpt>
      <trkpt lat="49.96981" lon="2.09214">
        <ele>12.2</ele>
        <time>2022-04-12T11:24:24Z</time>
      </trkpt>
      <trkpt lat="49.96981" lon="2.09214">
        <ele>12.2</ele>
        <time>2022-04-12T11:24:25Z</time>
      </trkpt>
      <trkpt lat="49.96981" lon="2.09214">
        <ele>12.2</ele>
        <time>2022-04-12T11:24:26Z</time>
      </trkpt>
      <trkpt lat="49.96981" lon="2.09214">
        <ele>12.2</ele>
        <time>2022-04-12T11:24:27Z</time>
      </trkpt>
      <trkpt lat="49.96981" lon="2.09214">
        <ele>12.2</ele>
        <time>2022-04-12T11:24:28Z</time>
      </trkpt>
      <trkpt lat="49.96981" lon="2.09214">
        <ele>12.2</ele>
        <time>2022-04-12T11:24:29Z</time>
      </trkpt>
      <trkpt lat="49.96981" lon="2.09214">
        <ele>12.2</ele>
        <time>2022-04-12T11:24:30Z</time>
      </trkpt>
      <trkpt lat="49.96981" lon="2.09214">
        <ele>12.2</ele>
        <time>2022-04-12T11:24:31Z</time>
      </trkpt>
      <trkpt lat="49.96981" lon="2.09214">
        <ele>12.2</ele>
        <time>2022-04-12T11:24:32Z</time>
      </trkpt>
      <trkpt lat="49.96981" lon="2.09214">
        <ele>12.2</ele>
        <time>2022-04-12T11:24:33Z</time>
      </trkpt>
      <trkpt lat="49.96981" lon="2.09214">
        <ele>12.2</ele>
        <time>2022-04-12T11:24:34Z</time>
      </trkpt>
      <trkpt lat="49.96981" lon="2.09214">
        <ele>12.2</ele>
        <time>2022-04-12T11:24:35Z</time>
      </trkpt>
      <trkpt lat="49.96981" lon="2.09214">
        <ele>12.2</ele>
        <time>2022-04-12T11:24:36Z</time>
      </trkpt>
      <trkpt lat="49.96981" lon="2.09214">
        <ele>12.2</ele>
        <time>2022-04-12T11:24:37Z</time>
      </trkpt>
      <trkpt lat="49.96981" lon="2.09214">
        <ele>12.2</ele>
        <time>2022-04-12T11:24:38Z</time>
      </trkpt>
      <trkpt lat="49.96981" lon="2.09215">
        <ele>12.2</ele>
        <time>2022-04-12T11:24:39Z</time>
      </trkpt>
      <trkpt lat="49.96981" lon="2.09215">
        <ele>12.2</ele>
        <time>2022-04-12T11:24:40Z</time>
      </trkpt>
      <trkpt lat="49.96981" lon="2.09215">
        <ele>12.2</ele>
        <time>2022-04-12T11:24:41Z</time>
      </trkpt>
      <trkpt lat="49.96981" lon="2.09215">
        <ele>12.2</ele>
        <time>2022-04-12T11:24:42Z</time>
      </trkpt>
      <trkpt lat="49.96981" lon="2.09215">
        <ele>12.2</ele>
        <time>2022-04-12T11:24:43Z</time>
      </trkpt>
      <trkpt lat="49.96981" lon="2.09215">
        <ele>12.2</ele>
        <time>2022-04-12T11:24:44Z</time>
      </trkpt>
      <trkpt lat="49.96981" lon="2.09215">
        <ele>12.2</ele>
        <time>2022-04-12T11:24:45Z</time>
      </trkpt>
      <trkpt lat="49.96981" lon="2.09215">
        <ele>12.2</ele>
        <time>2022-04-12T11:24:46Z</time>
      </trkpt>
      <trkpt lat="49.96981" lon="2.09215">
        <ele>12.2</ele>
        <time>2022-04-12T11:24:47Z</time>
      </trkpt>
      <trkpt lat="49.96981" lon="2.09215">
        <ele>12.2</ele>
        <time>2022-04-12T11:24:48Z</time>
      </trkpt>
      <trkpt lat="49.96981" lon="2.09215">
        <ele>12.2</ele>
        <time>2022-04-12T11:24:49Z</time>
      </trkpt>
      <trkpt lat="49.96981" lon="2.09215">
        <ele>12.2</ele>
        <time>2022-04-12T11:24:50Z</time>
      </trkpt>
      <trkpt lat="49.96981" lon="2.09215">
        <ele>12.2</ele>
        <time>2022-04-12T11:24:51Z</time>
      </trkpt>
      <trkpt lat="49.96981" lon="2.09215">
        <ele>12.2</ele>
        <time>2022-04-12T11:24:52Z</time>
      </trkpt>
      <trkpt lat="49.96981" lon="2.09215">
        <ele>12.2</ele>
        <time>2022-04-12T11:24:53Z</time>
      </trkpt>
      <trkpt lat="49.96981" lon="2.09215">
        <ele>12.2</ele>
        <time>2022-04-12T11:24:54Z</time>
      </trkpt>
      <trkpt lat="49.96981" lon="2.09213">
        <ele>12.2</ele>
        <time>2022-04-12T11:24:55Z</time>
      </trkpt>
      <trkpt lat="49.96981" lon="2.09211">
        <ele>12.1</ele>
        <time>2022-04-12T11:24:56Z</time>
      </trkpt>
      <trkpt lat="49.96981" lon="2.09211">
        <ele>12.1</ele>
        <time>2022-04-12T11:24:57Z</time>
      </trkpt>
      <trkpt lat="49.96981" lon="2.09211">
        <ele>12.1</ele>
        <time>2022-04-12T11:24:58Z</time>
      </trkpt>
      <trkpt lat="49.96982" lon="2.09211">
        <ele>12.1</ele>
        <time>2022-04-12T11:24:59Z</time>
      </trkpt>
      <trkpt lat="49.96984" lon="2.09213">
        <ele>12.1</ele>
        <time>2022-04-12T11:25:00Z</time>
      </trkpt>
      <trkpt lat="49.96986" lon="2.09214">
        <ele>12</ele>
        <time>2022-04-12T11:25:01Z</time>
      </trkpt>
      <trkpt lat="49.96987" lon="2.09214">
        <ele>12</ele>
        <time>2022-04-12T11:25:03Z</time>
      </trkpt>
      <trkpt lat="49.96988" lon="2.09215">
        <ele>12</ele>
        <time>2022-04-12T11:25:04Z</time>
      </trkpt>
      <trkpt lat="49.96989" lon="2.09215">
        <ele>12</ele>
        <time>2022-04-12T11:25:05Z</time>
      </trkpt>
      <trkpt lat="49.9699" lon="2.09215">
        <ele>11.9</ele>
        <time>2022-04-12T11:25:06Z</time>
      </trkpt>
      <trkpt lat="49.96991" lon="2.09214">
        <ele>11.9</ele>
        <time>2022-04-12T11:25:07Z</time>
      </trkpt>
      <trkpt lat="49.96992" lon="2.09213">
        <ele>11.9</ele>
        <time>2022-04-12T11:25:08Z</time>
      </trkpt>
      <trkpt lat="49.96993" lon="2.09212">
        <ele>11.9</ele>
        <time>2022-04-12T11:25:09Z</time>
      </trkpt>
      <trkpt lat="49.96994" lon="2.0921">
        <ele>11.9</ele>
        <time>2022-04-12T11:25:10Z</time>
      </trkpt>
      <trkpt lat="49.96994" lon="2.09208">
        <ele>11.8</ele>
        <time>2022-04-12T11:25:11Z</time>
      </trkpt>
      <trkpt lat="49.96995" lon="2.09205">
        <ele>11.8</ele>
        <time>2022-04-12T11:25:12Z</time>
      </trkpt>
      <trkpt lat="49.96996" lon="2.09204">
        <ele>11.8</ele>
        <time>2022-04-12T11:25:13Z</time>
      </trkpt>
      <trkpt lat="49.96996" lon="2.09202">
        <ele>11.8</ele>
        <time>2022-04-12T11:25:14Z</time>
      </trkpt>
      <trkpt lat="49.96996" lon="2.09198">
        <ele>11.7</ele>
        <time>2022-04-12T11:25:15Z</time>
      </trkpt>
      <trkpt lat="49.96996" lon="2.09196">
        <ele>11.7</ele>
        <time>2022-04-12T11:25:16Z</time>
      </trkpt>
      <trkpt lat="49.96997" lon="2.09194">
        <ele>11.7</ele>
        <time>2022-04-12T11:25:17Z</time>
      </trkpt>
      <trkpt lat="49.96996" lon="2.09191">
        <ele>11.7</ele>
        <time>2022-04-12T11:25:18Z</time>
      </trkpt>
      <trkpt lat="49.96994" lon="2.09186">
        <ele>11.6</ele>
        <time>2022-04-12T11:25:20Z</time>
      </trkpt>
      <trkpt lat="49.96994" lon="2.09185">
        <ele>11.6</ele>
        <time>2022-04-12T11:25:21Z</time>
      </trkpt>
      <trkpt lat="49.96995" lon="2.09183">
        <ele>11.6</ele>
        <time>2022-04-12T11:25:22Z</time>
      </trkpt>
      <trkpt lat="49.96995" lon="2.09181">
        <ele>11.6</ele>
        <time>2022-04-12T11:25:23Z</time>
      </trkpt>
      <trkpt lat="49.96996" lon="2.09179">
        <ele>11.6</ele>
        <time>2022-04-12T11:25:24Z</time>
      </trkpt>
      <trkpt lat="49.96996" lon="2.09177">
        <ele>11.6</ele>
        <time>2022-04-12T11:25:25Z</time>
      </trkpt>
      <trkpt lat="49.96997" lon="2.09175">
        <ele>11.6</ele>
        <time>2022-04-12T11:25:26Z</time>
      </trkpt>
      <trkpt lat="49.96997" lon="2.09173">
        <ele>11.5</ele>
        <time>2022-04-12T11:25:27Z</time>
      </trkpt>
      <trkpt lat="49.96997" lon="2.09172">
        <ele>11.5</ele>
        <time>2022-04-12T11:25:28Z</time>
      </trkpt>
      <trkpt lat="49.96996" lon="2.09171">
        <ele>11.5</ele>
        <time>2022-04-12T11:25:30Z</time>
      </trkpt>
      <trkpt lat="49.96997" lon="2.09169">
        <ele>11.5</ele>
        <time>2022-04-12T11:25:31Z</time>
      </trkpt>
      <trkpt lat="49.96997" lon="2.09167">
        <ele>11.5</ele>
        <time>2022-04-12T11:25:32Z</time>
      </trkpt>
      <trkpt lat="49.96998" lon="2.09165">
        <ele>11.5</ele>
        <time>2022-04-12T11:25:33Z</time>
      </trkpt>
      <trkpt lat="49.96998" lon="2.09163">
        <ele>11.5</ele>
        <time>2022-04-12T11:25:34Z</time>
      </trkpt>
      <trkpt lat="49.96999" lon="2.0916">
        <ele>11.5</ele>
        <time>2022-04-12T11:25:36Z</time>
      </trkpt>
      <trkpt lat="49.96999" lon="2.09159">
        <ele>11.5</ele>
        <time>2022-04-12T11:25:37Z</time>
      </trkpt>
      <trkpt lat="49.97" lon="2.09158">
        <ele>11.5</ele>
        <time>2022-04-12T11:25:38Z</time>
      </trkpt>
      <trkpt lat="49.97001" lon="2.09155">
        <ele>11.4</ele>
        <time>2022-04-12T11:25:39Z</time>
      </trkpt>
      <trkpt lat="49.97001" lon="2.09153">
        <ele>11.4</ele>
        <time>2022-04-12T11:25:40Z</time>
      </trkpt>
      <trkpt lat="49.97001" lon="2.09152">
        <ele>11.4</ele>
        <time>2022-04-12T11:25:41Z</time>
      </trkpt>
      <trkpt lat="49.97002" lon="2.0915">
        <ele>11.4</ele>
        <time>2022-04-12T11:25:43Z</time>
      </trkpt>
      <trkpt lat="49.97003" lon="2.09148">
        <ele>11.4</ele>
        <time>2022-04-12T11:25:44Z</time>
      </trkpt>
      <trkpt lat="49.97004" lon="2.09146">
        <ele>11.4</ele>
        <time>2022-04-12T11:25:45Z</time>
      </trkpt>
      <trkpt lat="49.97005" lon="2.09144">
        <ele>11.4</ele>
        <time>2022-04-12T11:25:46Z</time>
      </trkpt>
      <trkpt lat="49.97005" lon="2.09142">
        <ele>11.4</ele>
        <time>2022-04-12T11:25:47Z</time>
      </trkpt>
      <trkpt lat="49.97006" lon="2.0914">
        <ele>11.4</ele>
        <time>2022-04-12T11:25:48Z</time>
      </trkpt>
      <trkpt lat="49.97007" lon="2.09138">
        <ele>11.4</ele>
        <time>2022-04-12T11:25:50Z</time>
      </trkpt>
      <trkpt lat="49.97007" lon="2.09136">
        <ele>11.3</ele>
        <time>2022-04-12T11:25:51Z</time>
      </trkpt>
      <trkpt lat="49.97007" lon="2.09135">
        <ele>11.3</ele>
        <time>2022-04-12T11:25:52Z</time>
      </trkpt>
      <trkpt lat="49.97008" lon="2.09133">
        <ele>11.3</ele>
        <time>2022-04-12T11:25:53Z</time>
      </trkpt>
      <trkpt lat="49.97009" lon="2.0913">
        <ele>11.3</ele>
        <time>2022-04-12T11:25:54Z</time>
      </trkpt>
      <trkpt lat="49.97009" lon="2.09129">
        <ele>11.3</ele>
        <time>2022-04-12T11:25:55Z</time>
      </trkpt>
      <trkpt lat="49.97009" lon="2.09127">
        <ele>11.3</ele>
        <time>2022-04-12T11:25:56Z</time>
      </trkpt>
      <trkpt lat="49.9701" lon="2.09124">
        <ele>11.3</ele>
        <time>2022-04-12T11:25:58Z</time>
      </trkpt>
      <trkpt lat="49.97011" lon="2.09123">
        <ele>11.3</ele>
        <time>2022-04-12T11:25:59Z</time>
      </trkpt>
      <trkpt lat="49.97011" lon="2.09122">
        <ele>11.3</ele>
        <time>2022-04-12T11:26:00Z</time>
      </trkpt>
      <trkpt lat="49.97012" lon="2.09121">
        <ele>11.3</ele>
        <time>2022-04-12T11:26:01Z</time>
      </trkpt>
      <trkpt lat="49.97012" lon="2.09119">
        <ele>11.3</ele>
        <time>2022-04-12T11:26:02Z</time>
      </trkpt>
      <trkpt lat="49.97013" lon="2.09117">
        <ele>11.3</ele>
        <time>2022-04-12T11:26:03Z</time>
      </trkpt>
      <trkpt lat="49.97014" lon="2.09115">
        <ele>11.3</ele>
        <time>2022-04-12T11:26:04Z</time>
      </trkpt>
      <trkpt lat="49.97014" lon="2.09114">
        <ele>11.3</ele>
        <time>2022-04-12T11:26:05Z</time>
      </trkpt>
      <trkpt lat="49.97014" lon="2.09112">
        <ele>11.2</ele>
        <time>2022-04-12T11:26:06Z</time>
      </trkpt>
      <trkpt lat="49.97016" lon="2.0911">
        <ele>11.2</ele>
        <time>2022-04-12T11:26:07Z</time>
      </trkpt>
      <trkpt lat="49.97016" lon="2.09109">
        <ele>11.2</ele>
        <time>2022-04-12T11:26:08Z</time>
      </trkpt>
      <trkpt lat="49.97017" lon="2.09108">
        <ele>11.2</ele>
        <time>2022-04-12T11:26:09Z</time>
      </trkpt>
      <trkpt lat="49.97017" lon="2.09106">
        <ele>11.2</ele>
        <time>2022-04-12T11:26:11Z</time>
      </trkpt>
      <trkpt lat="49.97018" lon="2.09104">
        <ele>11.2</ele>
        <time>2022-04-12T11:26:12Z</time>
      </trkpt>
      <trkpt lat="49.97019" lon="2.09103">
        <ele>11.2</ele>
        <time>2022-04-12T11:26:13Z</time>
      </trkpt>
      <trkpt lat="49.97019" lon="2.091">
        <ele>11.2</ele>
        <time>2022-04-12T11:26:14Z</time>
      </trkpt>
      <trkpt lat="49.9702" lon="2.09099">
        <ele>11.2</ele>
        <time>2022-04-12T11:26:15Z</time>
      </trkpt>
      <trkpt lat="49.9702" lon="2.09098">
        <ele>11.2</ele>
        <time>2022-04-12T11:26:16Z</time>
      </trkpt>
      <trkpt lat="49.97021" lon="2.09095">
        <ele>11.2</ele>
        <time>2022-04-12T11:26:17Z</time>
      </trkpt>
      <trkpt lat="49.97022" lon="2.09094">
        <ele>11.2</ele>
        <time>2022-04-12T11:26:18Z</time>
      </trkpt>
      <trkpt lat="49.97022" lon="2.09093">
        <ele>11.2</ele>
        <time>2022-04-12T11:26:19Z</time>
      </trkpt>
      <trkpt lat="49.97023" lon="2.09091">
        <ele>11.2</ele>
        <time>2022-04-12T11:26:21Z</time>
      </trkpt>
      <trkpt lat="49.97024" lon="2.09089">
        <ele>11.2</ele>
        <time>2022-04-12T11:26:22Z</time>
      </trkpt>
      <trkpt lat="49.97025" lon="2.09087">
        <ele>11.1</ele>
        <time>2022-04-12T11:26:23Z</time>
      </trkpt>
      <trkpt lat="49.97025" lon="2.09085">
        <ele>11.1</ele>
        <time>2022-04-12T11:26:24Z</time>
      </trkpt>
      <trkpt lat="49.97026" lon="2.09084">
        <ele>11.1</ele>
        <time>2022-04-12T11:26:25Z</time>
      </trkpt>
      <trkpt lat="49.97026" lon="2.09082">
        <ele>11.1</ele>
        <time>2022-04-12T11:26:26Z</time>
      </trkpt>
      <trkpt lat="49.97027" lon="2.09079">
        <ele>11.1</ele>
        <time>2022-04-12T11:26:28Z</time>
      </trkpt>
      <trkpt lat="49.97028" lon="2.09078">
        <ele>11.1</ele>
        <time>2022-04-12T11:26:29Z</time>
      </trkpt>
      <trkpt lat="49.97028" lon="2.09077">
        <ele>11.1</ele>
        <time>2022-04-12T11:26:30Z</time>
      </trkpt>
      <trkpt lat="49.97029" lon="2.09076">
        <ele>11.1</ele>
        <time>2022-04-12T11:26:31Z</time>
      </trkpt>
      <trkpt lat="49.97029" lon="2.09074">
        <ele>11.1</ele>
        <time>2022-04-12T11:26:32Z</time>
      </trkpt>
      <trkpt lat="49.9703" lon="2.09073">
        <ele>11.1</ele>
        <time>2022-04-12T11:26:33Z</time>
      </trkpt>
      <trkpt lat="49.97031" lon="2.09071">
        <ele>11.1</ele>
        <time>2022-04-12T11:26:34Z</time>
      </trkpt>
      <trkpt lat="49.97032" lon="2.09068">
        <ele>11.1</ele>
        <time>2022-04-12T11:26:36Z</time>
      </trkpt>
      <trkpt lat="49.97032" lon="2.09067">
        <ele>11.1</ele>
        <time>2022-04-12T11:26:37Z</time>
      </trkpt>
      <trkpt lat="49.97032" lon="2.09066">
        <ele>11.1</ele>
        <time>2022-04-12T11:26:38Z</time>
      </trkpt>
      <trkpt lat="49.97033" lon="2.09064">
        <ele>11.1</ele>
        <time>2022-04-12T11:26:39Z</time>
      </trkpt>
      <trkpt lat="49.97033" lon="2.09063">
        <ele>11.1</ele>
        <time>2022-04-12T11:26:40Z</time>
      </trkpt>
      <trkpt lat="49.97034" lon="2.09062">
        <ele>11.1</ele>
        <time>2022-04-12T11:26:41Z</time>
      </trkpt>
      <trkpt lat="49.97035" lon="2.09059">
        <ele>11.1</ele>
        <time>2022-04-12T11:26:42Z</time>
      </trkpt>
      <trkpt lat="49.97035" lon="2.09058">
        <ele>11.1</ele>
        <time>2022-04-12T11:26:43Z</time>
      </trkpt>
      <trkpt lat="49.97036" lon="2.09057">
        <ele>11.1</ele>
        <time>2022-04-12T11:26:44Z</time>
      </trkpt>
      <trkpt lat="49.97037" lon="2.09055">
        <ele>11.1</ele>
        <time>2022-04-12T11:26:45Z</time>
      </trkpt>
      <trkpt lat="49.97037" lon="2.09053">
        <ele>11.1</ele>
        <time>2022-04-12T11:26:47Z</time>
      </trkpt>
      <trkpt lat="49.97038" lon="2.09052">
        <ele>11.2</ele>
        <time>2022-04-12T11:26:48Z</time>
      </trkpt>
      <trkpt lat="49.97038" lon="2.0905">
        <ele>11.2</ele>
        <time>2022-04-12T11:26:49Z</time>
      </trkpt>
      <trkpt lat="49.97039" lon="2.09049">
        <ele>11.2</ele>
        <time>2022-04-12T11:26:50Z</time>
      </trkpt>
      <trkpt lat="49.97039" lon="2.09047">
        <ele>11.2</ele>
        <time>2022-04-12T11:26:51Z</time>
      </trkpt>
      <trkpt lat="49.9704" lon="2.09046">
        <ele>11.2</ele>
        <time>2022-04-12T11:26:52Z</time>
      </trkpt>
      <trkpt lat="49.9704" lon="2.09044">
        <ele>11.2</ele>
        <time>2022-04-12T11:26:53Z</time>
      </trkpt>
      <trkpt lat="49.97041" lon="2.09043">
        <ele>11.2</ele>
        <time>2022-04-12T11:26:54Z</time>
      </trkpt>
      <trkpt lat="49.97042" lon="2.09041">
        <ele>11.2</ele>
        <time>2022-04-12T11:26:55Z</time>
      </trkpt>
      <trkpt lat="49.97043" lon="2.0904">
        <ele>11.2</ele>
        <time>2022-04-12T11:26:56Z</time>
      </trkpt>
      <trkpt lat="49.97043" lon="2.09038">
        <ele>11.2</ele>
        <time>2022-04-12T11:26:58Z</time>
      </trkpt>
      <trkpt lat="49.97044" lon="2.09036">
        <ele>11.2</ele>
        <time>2022-04-12T11:26:59Z</time>
      </trkpt>
      <trkpt lat="49.97045" lon="2.09034">
        <ele>11.2</ele>
        <time>2022-04-12T11:27:00Z</time>
      </trkpt>
      <trkpt lat="49.97045" lon="2.09032">
        <ele>11.2</ele>
        <time>2022-04-12T11:27:01Z</time>
      </trkpt>
      <trkpt lat="49.97046" lon="2.0903">
        <ele>11.2</ele>
        <time>2022-04-12T11:27:02Z</time>
      </trkpt>
      <trkpt lat="49.97046" lon="2.09029">
        <ele>11.2</ele>
        <time>2022-04-12T11:27:03Z</time>
      </trkpt>
      <trkpt lat="49.97047" lon="2.09027">
        <ele>11.2</ele>
        <time>2022-04-12T11:27:04Z</time>
      </trkpt>
      <trkpt lat="49.97047" lon="2.09025">
        <ele>11.2</ele>
        <time>2022-04-12T11:27:05Z</time>
      </trkpt>
      <trkpt lat="49.97048" lon="2.09023">
        <ele>11.2</ele>
        <time>2022-04-12T11:27:06Z</time>
      </trkpt>
      <trkpt lat="49.97048" lon="2.09021">
        <ele>11.2</ele>
        <time>2022-04-12T11:27:07Z</time>
      </trkpt>
      <trkpt lat="49.97049" lon="2.09018">
        <ele>11.2</ele>
        <time>2022-04-12T11:27:08Z</time>
      </trkpt>
      <trkpt lat="49.97049" lon="2.09017">
        <ele>11.2</ele>
        <time>2022-04-12T11:27:10Z</time>
      </trkpt>
      <trkpt lat="49.9705" lon="2.09015">
        <ele>11.2</ele>
        <time>2022-04-12T11:27:11Z</time>
      </trkpt>
      <trkpt lat="49.9705" lon="2.09013">
        <ele>11.3</ele>
        <time>2022-04-12T11:27:12Z</time>
      </trkpt>
      <trkpt lat="49.97051" lon="2.09011">
        <ele>11.3</ele>
        <time>2022-04-12T11:27:13Z</time>
      </trkpt>
      <trkpt lat="49.97051" lon="2.0901">
        <ele>11.3</ele>
        <time>2022-04-12T11:27:14Z</time>
      </trkpt>
      <trkpt lat="49.97052" lon="2.09008">
        <ele>11.3</ele>
        <time>2022-04-12T11:27:15Z</time>
      </trkpt>
      <trkpt lat="49.97053" lon="2.09005">
        <ele>11.3</ele>
        <time>2022-04-12T11:27:16Z</time>
      </trkpt>
      <trkpt lat="49.97053" lon="2.09004">
        <ele>11.3</ele>
        <time>2022-04-12T11:27:17Z</time>
      </trkpt>
      <trkpt lat="49.97054" lon="2.09003">
        <ele>11.3</ele>
        <time>2022-04-12T11:27:18Z</time>
      </trkpt>
      <trkpt lat="49.97055" lon="2.08999">
        <ele>11.3</ele>
        <time>2022-04-12T11:27:19Z</time>
      </trkpt>
      <trkpt lat="49.97055" lon="2.08998">
        <ele>11.3</ele>
        <time>2022-04-12T11:27:21Z</time>
      </trkpt>
      <trkpt lat="49.97056" lon="2.08996">
        <ele>11.3</ele>
        <time>2022-04-12T11:27:22Z</time>
      </trkpt>
      <trkpt lat="49.97056" lon="2.08995">
        <ele>11.3</ele>
        <time>2022-04-12T11:27:23Z</time>
      </trkpt>
      <trkpt lat="49.97057" lon="2.08994">
        <ele>11.3</ele>
        <time>2022-04-12T11:27:24Z</time>
      </trkpt>
      <trkpt lat="49.97057" lon="2.08992">
        <ele>11.3</ele>
        <time>2022-04-12T11:27:25Z</time>
      </trkpt>
      <trkpt lat="49.97058" lon="2.08991">
        <ele>11.3</ele>
        <time>2022-04-12T11:27:26Z</time>
      </trkpt>
      <trkpt lat="49.97058" lon="2.08989">
        <ele>11.3</ele>
        <time>2022-04-12T11:27:27Z</time>
      </trkpt>
      <trkpt lat="49.97059" lon="2.08986">
        <ele>11.3</ele>
        <time>2022-04-12T11:27:28Z</time>
      </trkpt>
      <trkpt lat="49.9706" lon="2.08985">
        <ele>11.3</ele>
        <time>2022-04-12T11:27:30Z</time>
      </trkpt>
      <trkpt lat="49.97061" lon="2.08983">
        <ele>11.3</ele>
        <time>2022-04-12T11:27:31Z</time>
      </trkpt>
      <trkpt lat="49.97061" lon="2.08982">
        <ele>11.3</ele>
        <time>2022-04-12T11:27:32Z</time>
      </trkpt>
      <trkpt lat="49.97062" lon="2.0898">
        <ele>11.3</ele>
        <time>2022-04-12T11:27:33Z</time>
      </trkpt>
      <trkpt lat="49.97063" lon="2.08977">
        <ele>11.3</ele>
        <time>2022-04-12T11:27:34Z</time>
      </trkpt>
      <trkpt lat="49.97063" lon="2.08975">
        <ele>11.3</ele>
        <time>2022-04-12T11:27:36Z</time>
      </trkpt>
      <trkpt lat="49.97064" lon="2.08974">
        <ele>11.3</ele>
        <time>2022-04-12T11:27:37Z</time>
      </trkpt>
      <trkpt lat="49.97065" lon="2.08972">
        <ele>11.3</ele>
        <time>2022-04-12T11:27:38Z</time>
      </trkpt>
      <trkpt lat="49.97065" lon="2.08971">
        <ele>11.4</ele>
        <time>2022-04-12T11:27:39Z</time>
      </trkpt>
      <trkpt lat="49.97066" lon="2.08969">
        <ele>11.4</ele>
        <time>2022-04-12T11:27:40Z</time>
      </trkpt>
      <trkpt lat="49.97066" lon="2.08967">
        <ele>11.4</ele>
        <time>2022-04-12T11:27:41Z</time>
      </trkpt>
      <trkpt lat="49.97067" lon="2.08965">
        <ele>11.4</ele>
        <time>2022-04-12T11:27:43Z</time>
      </trkpt>
      <trkpt lat="49.97068" lon="2.08963">
        <ele>11.4</ele>
        <time>2022-04-12T11:27:44Z</time>
      </trkpt>
      <trkpt lat="49.97068" lon="2.0896">
        <ele>11.4</ele>
        <time>2022-04-12T11:27:45Z</time>
      </trkpt>
      <trkpt lat="49.97069" lon="2.08959">
        <ele>11.5</ele>
        <time>2022-04-12T11:27:46Z</time>
      </trkpt>
      <trkpt lat="49.97069" lon="2.08958">
        <ele>11.5</ele>
        <time>2022-04-12T11:27:47Z</time>
      </trkpt>
      <trkpt lat="49.97069" lon="2.08956">
        <ele>11.5</ele>
        <time>2022-04-12T11:27:48Z</time>
      </trkpt>
      <trkpt lat="49.9707" lon="2.08954">
        <ele>11.5</ele>
        <time>2022-04-12T11:27:49Z</time>
      </trkpt>
      <trkpt lat="49.9707" lon="2.08951">
        <ele>11.5</ele>
        <time>2022-04-12T11:27:51Z</time>
      </trkpt>
      <trkpt lat="49.97071" lon="2.0895">
        <ele>11.6</ele>
        <time>2022-04-12T11:27:52Z</time>
      </trkpt>
      <trkpt lat="49.97071" lon="2.08949">
        <ele>11.6</ele>
        <time>2022-04-12T11:27:53Z</time>
      </trkpt>
      <trkpt lat="49.97072" lon="2.08947">
        <ele>11.6</ele>
        <time>2022-04-12T11:27:54Z</time>
      </trkpt>
      <trkpt lat="49.97073" lon="2.08945">
        <ele>11.6</ele>
        <time>2022-04-12T11:27:55Z</time>
      </trkpt>
      <trkpt lat="49.97073" lon="2.08943">
        <ele>11.7</ele>
        <time>2022-04-12T11:27:56Z</time>
      </trkpt>
      <trkpt lat="49.97074" lon="2.08942">
        <ele>11.7</ele>
        <time>2022-04-12T11:27:58Z</time>
      </trkpt>
      <trkpt lat="49.97075" lon="2.08939">
        <ele>11.7</ele>
        <time>2022-04-12T11:27:59Z</time>
      </trkpt>
      <trkpt lat="49.97075" lon="2.08938">
        <ele>11.8</ele>
        <time>2022-04-12T11:28:00Z</time>
      </trkpt>
      <trkpt lat="49.97075" lon="2.08936">
        <ele>11.8</ele>
        <time>2022-04-12T11:28:01Z</time>
      </trkpt>
      <trkpt lat="49.97076" lon="2.08935">
        <ele>11.8</ele>
        <time>2022-04-12T11:28:02Z</time>
      </trkpt>
      <trkpt lat="49.97076" lon="2.08933">
        <ele>11.8</ele>
        <time>2022-04-12T11:28:03Z</time>
      </trkpt>
      <trkpt lat="49.97077" lon="2.08932">
        <ele>11.9</ele>
        <time>2022-04-12T11:28:04Z</time>
      </trkpt>
      <trkpt lat="49.97077" lon="2.08929">
        <ele>11.9</ele>
        <time>2022-04-12T11:28:05Z</time>
      </trkpt>
      <trkpt lat="49.97078" lon="2.08928">
        <ele>11.9</ele>
        <time>2022-04-12T11:28:06Z</time>
      </trkpt>
      <trkpt lat="49.97078" lon="2.08926">
        <ele>12</ele>
        <time>2022-04-12T11:28:07Z</time>
      </trkpt>
      <trkpt lat="49.97079" lon="2.08924">
        <ele>12</ele>
        <time>2022-04-12T11:28:09Z</time>
      </trkpt>
      <trkpt lat="49.97079" lon="2.08922">
        <ele>12</ele>
        <time>2022-04-12T11:28:10Z</time>
      </trkpt>
      <trkpt lat="49.9708" lon="2.0892">
        <ele>12</ele>
        <time>2022-04-12T11:28:11Z</time>
      </trkpt>
      <trkpt lat="49.9708" lon="2.08919">
        <ele>12.1</ele>
        <time>2022-04-12T11:28:12Z</time>
      </trkpt>
      <trkpt lat="49.97081" lon="2.08917">
        <ele>12.1</ele>
        <time>2022-04-12T11:28:13Z</time>
      </trkpt>
      <trkpt lat="49.97081" lon="2.08915">
        <ele>12.1</ele>
        <time>2022-04-12T11:28:14Z</time>
      </trkpt>
      <trkpt lat="49.97082" lon="2.08914">
        <ele>12.1</ele>
        <time>2022-04-12T11:28:15Z</time>
      </trkpt>
      <trkpt lat="49.97083" lon="2.0891">
        <ele>12.2</ele>
        <time>2022-04-12T11:28:16Z</time>
      </trkpt>
      <trkpt lat="49.97083" lon="2.08909">
        <ele>12.2</ele>
        <time>2022-04-12T11:28:17Z</time>
      </trkpt>
      <trkpt lat="49.97083" lon="2.08907">
        <ele>12.2</ele>
        <time>2022-04-12T11:28:19Z</time>
      </trkpt>
      <trkpt lat="49.97084" lon="2.08906">
        <ele>12.2</ele>
        <time>2022-04-12T11:28:20Z</time>
      </trkpt>
      <trkpt lat="49.97084" lon="2.08904">
        <ele>12.3</ele>
        <time>2022-04-12T11:28:21Z</time>
      </trkpt>
      <trkpt lat="49.97084" lon="2.08903">
        <ele>12.3</ele>
        <time>2022-04-12T11:28:22Z</time>
      </trkpt>
      <trkpt lat="49.97085" lon="2.08901">
        <ele>12.3</ele>
        <time>2022-04-12T11:28:23Z</time>
      </trkpt>
      <trkpt lat="49.97085" lon="2.089">
        <ele>12.3</ele>
        <time>2022-04-12T11:28:24Z</time>
      </trkpt>
      <trkpt lat="49.97086" lon="2.08899">
        <ele>12.3</ele>
        <time>2022-04-12T11:28:25Z</time>
      </trkpt>
      <trkpt lat="49.97086" lon="2.08897">
        <ele>12.3</ele>
        <time>2022-04-12T11:28:26Z</time>
      </trkpt>
      <trkpt lat="49.97087" lon="2.08896">
        <ele>12.3</ele>
        <time>2022-04-12T11:28:27Z</time>
      </trkpt>
      <trkpt lat="49.97087" lon="2.08894">
        <ele>12.3</ele>
        <time>2022-04-12T11:28:29Z</time>
      </trkpt>
      <trkpt lat="49.97088" lon="2.08892">
        <ele>12.3</ele>
        <time>2022-04-12T11:28:30Z</time>
      </trkpt>
      <trkpt lat="49.97088" lon="2.08891">
        <ele>12.3</ele>
        <time>2022-04-12T11:28:31Z</time>
      </trkpt>
      <trkpt lat="49.97088" lon="2.08889">
        <ele>12.4</ele>
        <time>2022-04-12T11:28:32Z</time>
      </trkpt>
      <trkpt lat="49.97089" lon="2.08888">
        <ele>12.4</ele>
        <time>2022-04-12T11:28:33Z</time>
      </trkpt>
      <trkpt lat="49.97089" lon="2.08887">
        <ele>12.4</ele>
        <time>2022-04-12T11:28:34Z</time>
      </trkpt>
      <trkpt lat="49.9709" lon="2.08885">
        <ele>12.4</ele>
        <time>2022-04-12T11:28:35Z</time>
      </trkpt>
      <trkpt lat="49.9709" lon="2.08883">
        <ele>12.4</ele>
        <time>2022-04-12T11:28:36Z</time>
      </trkpt>
      <trkpt lat="49.97091" lon="2.08882">
        <ele>12.3</ele>
        <time>2022-04-12T11:28:37Z</time>
      </trkpt>
      <trkpt lat="49.97091" lon="2.0888">
        <ele>12.3</ele>
        <time>2022-04-12T11:28:38Z</time>
      </trkpt>
      <trkpt lat="49.97092" lon="2.08879">
        <ele>12.3</ele>
        <time>2022-04-12T11:28:40Z</time>
      </trkpt>
      <trkpt lat="49.97092" lon="2.08877">
        <ele>12.3</ele>
        <time>2022-04-12T11:28:41Z</time>
      </trkpt>
      <trkpt lat="49.97093" lon="2.08876">
        <ele>12.3</ele>
        <time>2022-04-12T11:28:42Z</time>
      </trkpt>
      <trkpt lat="49.97093" lon="2.08874">
        <ele>12.3</ele>
        <time>2022-04-12T11:28:43Z</time>
      </trkpt>
      <trkpt lat="49.97094" lon="2.08873">
        <ele>12.3</ele>
        <time>2022-04-12T11:28:44Z</time>
      </trkpt>
      <trkpt lat="49.97094" lon="2.08871">
        <ele>12.3</ele>
        <time>2022-04-12T11:28:45Z</time>
      </trkpt>
      <trkpt lat="49.97094" lon="2.08869">
        <ele>12.3</ele>
        <time>2022-04-12T11:28:46Z</time>
      </trkpt>
      <trkpt lat="49.97095" lon="2.08868">
        <ele>12.2</ele>
        <time>2022-04-12T11:28:47Z</time>
      </trkpt>
      <trkpt lat="49.97095" lon="2.08866">
        <ele>12.2</ele>
        <time>2022-04-12T11:28:48Z</time>
      </trkpt>
      <trkpt lat="49.97095" lon="2.08865">
        <ele>12.2</ele>
        <time>2022-04-12T11:28:50Z</time>
      </trkpt>
      <trkpt lat="49.97096" lon="2.08863">
        <ele>12.2</ele>
        <time>2022-04-12T11:28:51Z</time>
      </trkpt>
      <trkpt lat="49.97096" lon="2.08862">
        <ele>12.2</ele>
        <time>2022-04-12T11:28:52Z</time>
      </trkpt>
      <trkpt lat="49.97096" lon="2.0886">
        <ele>12.2</ele>
        <time>2022-04-12T11:28:53Z</time>
      </trkpt>
      <trkpt lat="49.97097" lon="2.08858">
        <ele>12.2</ele>
        <time>2022-04-12T11:28:54Z</time>
      </trkpt>
      <trkpt lat="49.97097" lon="2.08856">
        <ele>12.2</ele>
        <time>2022-04-12T11:28:56Z</time>
      </trkpt>
      <trkpt lat="49.97098" lon="2.08854">
        <ele>12.2</ele>
        <time>2022-04-12T11:28:57Z</time>
      </trkpt>
      <trkpt lat="49.97098" lon="2.08852">
        <ele>12.2</ele>
        <time>2022-04-12T11:28:58Z</time>
      </trkpt>
      <trkpt lat="49.97098" lon="2.08851">
        <ele>12.2</ele>
        <time>2022-04-12T11:28:59Z</time>
      </trkpt>
      <trkpt lat="49.97099" lon="2.08848">
        <ele>12.2</ele>
        <time>2022-04-12T11:29:01Z</time>
      </trkpt>
      <trkpt lat="49.971" lon="2.08847">
        <ele>12.1</ele>
        <time>2022-04-12T11:29:02Z</time>
      </trkpt>
      <trkpt lat="49.971" lon="2.08845">
        <ele>12.1</ele>
        <time>2022-04-12T11:29:03Z</time>
      </trkpt>
      <trkpt lat="49.97101" lon="2.08844">
        <ele>12.1</ele>
        <time>2022-04-12T11:29:04Z</time>
      </trkpt>
      <trkpt lat="49.97101" lon="2.08842">
        <ele>12.1</ele>
        <time>2022-04-12T11:29:05Z</time>
      </trkpt>
      <trkpt lat="49.97102" lon="2.0884">
        <ele>12.1</ele>
        <time>2022-04-12T11:29:06Z</time>
      </trkpt>
      <trkpt lat="49.97103" lon="2.08838">
        <ele>12.1</ele>
        <time>2022-04-12T11:29:07Z</time>
      </trkpt>
      <trkpt lat="49.97104" lon="2.08836">
        <ele>12.1</ele>
        <time>2022-04-12T11:29:09Z</time>
      </trkpt>
      <trkpt lat="49.97105" lon="2.08834">
        <ele>12.1</ele>
        <time>2022-04-12T11:29:10Z</time>
      </trkpt>
      <trkpt lat="49.97105" lon="2.08832">
        <ele>12.1</ele>
        <time>2022-04-12T11:29:11Z</time>
      </trkpt>
      <trkpt lat="49.97106" lon="2.0883">
        <ele>12.1</ele>
        <time>2022-04-12T11:29:12Z</time>
      </trkpt>
      <trkpt lat="49.97107" lon="2.08829">
        <ele>12.1</ele>
        <time>2022-04-12T11:29:13Z</time>
      </trkpt>
      <trkpt lat="49.97108" lon="2.08827">
        <ele>12.1</ele>
        <time>2022-04-12T11:29:14Z</time>
      </trkpt>
      <trkpt lat="49.97109" lon="2.08824">
        <ele>12.1</ele>
        <time>2022-04-12T11:29:16Z</time>
      </trkpt>
      <trkpt lat="49.9711" lon="2.08823">
        <ele>12</ele>
        <time>2022-04-12T11:29:17Z</time>
      </trkpt>
      <trkpt lat="49.97111" lon="2.08821">
        <ele>12</ele>
        <time>2022-04-12T11:29:18Z</time>
      </trkpt>
      <trkpt lat="49.97112" lon="2.0882">
        <ele>12</ele>
        <time>2022-04-12T11:29:19Z</time>
      </trkpt>
      <trkpt lat="49.97113" lon="2.08818">
        <ele>12</ele>
        <time>2022-04-12T11:29:20Z</time>
      </trkpt>
      <trkpt lat="49.97113" lon="2.08816">
        <ele>12</ele>
        <time>2022-04-12T11:29:21Z</time>
      </trkpt>
      <trkpt lat="49.97115" lon="2.08813">
        <ele>12</ele>
        <time>2022-04-12T11:29:22Z</time>
      </trkpt>
      <trkpt lat="49.97116" lon="2.08812">
        <ele>12</ele>
        <time>2022-04-12T11:29:24Z</time>
      </trkpt>
      <trkpt lat="49.97116" lon="2.0881">
        <ele>12</ele>
        <time>2022-04-12T11:29:25Z</time>
      </trkpt>
      <trkpt lat="49.97117" lon="2.08809">
        <ele>12</ele>
        <time>2022-04-12T11:29:26Z</time>
      </trkpt>
      <trkpt lat="49.97117" lon="2.08808">
        <ele>12</ele>
        <time>2022-04-12T11:29:27Z</time>
      </trkpt>
      <trkpt lat="49.97118" lon="2.08806">
        <ele>12</ele>
        <time>2022-04-12T11:29:28Z</time>
      </trkpt>
      <trkpt lat="49.97119" lon="2.08805">
        <ele>12.1</ele>
        <time>2022-04-12T11:29:29Z</time>
      </trkpt>
      <trkpt lat="49.97119" lon="2.08804">
        <ele>12.1</ele>
        <time>2022-04-12T11:29:30Z</time>
      </trkpt>
      <trkpt lat="49.9712" lon="2.08802">
        <ele>12.1</ele>
        <time>2022-04-12T11:29:31Z</time>
      </trkpt>
      <trkpt lat="49.9712" lon="2.08801">
        <ele>12.1</ele>
        <time>2022-04-12T11:29:32Z</time>
      </trkpt>
      <trkpt lat="49.97121" lon="2.08799">
        <ele>12.1</ele>
        <time>2022-04-12T11:29:33Z</time>
      </trkpt>
      <trkpt lat="49.97121" lon="2.08798">
        <ele>12.1</ele>
        <time>2022-04-12T11:29:34Z</time>
      </trkpt>
      <trkpt lat="49.97122" lon="2.08796">
        <ele>12.1</ele>
        <time>2022-04-12T11:29:35Z</time>
      </trkpt>
      <trkpt lat="49.97122" lon="2.08794">
        <ele>12.1</ele>
        <time>2022-04-12T11:29:36Z</time>
      </trkpt>
      <trkpt lat="49.97123" lon="2.08792">
        <ele>12.1</ele>
        <time>2022-04-12T11:29:37Z</time>
      </trkpt>
      <trkpt lat="49.97123" lon="2.08791">
        <ele>12.1</ele>
        <time>2022-04-12T11:29:38Z</time>
      </trkpt>
      <trkpt lat="49.97124" lon="2.08789">
        <ele>12.1</ele>
        <time>2022-04-12T11:29:40Z</time>
      </trkpt>
      <trkpt lat="49.97124" lon="2.08788">
        <ele>12.2</ele>
        <time>2022-04-12T11:29:41Z</time>
      </trkpt>
      <trkpt lat="49.97124" lon="2.08786">
        <ele>12.2</ele>
        <time>2022-04-12T11:29:42Z</time>
      </trkpt>
      <trkpt lat="49.97125" lon="2.08785">
        <ele>12.2</ele>
        <time>2022-04-12T11:29:43Z</time>
      </trkpt>
      <trkpt lat="49.97125" lon="2.08784">
        <ele>12.2</ele>
        <time>2022-04-12T11:29:44Z</time>
      </trkpt>
      <trkpt lat="49.97126" lon="2.08782">
        <ele>12.2</ele>
        <time>2022-04-12T11:29:45Z</time>
      </trkpt>
      <trkpt lat="49.97126" lon="2.08781">
        <ele>12.2</ele>
        <time>2022-04-12T11:29:46Z</time>
      </trkpt>
      <trkpt lat="49.97127" lon="2.08778">
        <ele>12.2</ele>
        <time>2022-04-12T11:29:47Z</time>
      </trkpt>
      <trkpt lat="49.97128" lon="2.08777">
        <ele>12.2</ele>
        <time>2022-04-12T11:29:48Z</time>
      </trkpt>
      <trkpt lat="49.97128" lon="2.08775">
        <ele>12.2</ele>
        <time>2022-04-12T11:29:49Z</time>
      </trkpt>
      <trkpt lat="49.97129" lon="2.08774">
        <ele>12.3</ele>
        <time>2022-04-12T11:29:51Z</time>
      </trkpt>
      <trkpt lat="49.97129" lon="2.08772">
        <ele>12.3</ele>
        <time>2022-04-12T11:29:52Z</time>
      </trkpt>
      <trkpt lat="49.97129" lon="2.08771">
        <ele>12.3</ele>
        <time>2022-04-12T11:29:53Z</time>
      </trkpt>
      <trkpt lat="49.9713" lon="2.08768">
        <ele>12.3</ele>
        <time>2022-04-12T11:29:54Z</time>
      </trkpt>
      <trkpt lat="49.9713" lon="2.08766">
        <ele>12.3</ele>
        <time>2022-04-12T11:29:56Z</time>
      </trkpt>
      <trkpt lat="49.9713" lon="2.08765">
        <ele>12.3</ele>
        <time>2022-04-12T11:29:57Z</time>
      </trkpt>
      <trkpt lat="49.97131" lon="2.08763">
        <ele>12.3</ele>
        <time>2022-04-12T11:29:58Z</time>
      </trkpt>
      <trkpt lat="49.97131" lon="2.08762">
        <ele>12.3</ele>
        <time>2022-04-12T11:29:59Z</time>
      </trkpt>
      <trkpt lat="49.97131" lon="2.0876">
        <ele>12.3</ele>
        <time>2022-04-12T11:30:00Z</time>
      </trkpt>
      <trkpt lat="49.97132" lon="2.08759">
        <ele>12.4</ele>
        <time>2022-04-12T11:30:01Z</time>
      </trkpt>
      <trkpt lat="49.97132" lon="2.08757">
        <ele>12.4</ele>
        <time>2022-04-12T11:30:02Z</time>
      </trkpt>
      <trkpt lat="49.97133" lon="2.08756">
        <ele>12.4</ele>
        <time>2022-04-12T11:30:03Z</time>
      </trkpt>
      <trkpt lat="49.97134" lon="2.08755">
        <ele>12.4</ele>
        <time>2022-04-12T11:30:05Z</time>
      </trkpt>
      <trkpt lat="49.97134" lon="2.08753">
        <ele>12.4</ele>
        <time>2022-04-12T11:30:06Z</time>
      </trkpt>
      <trkpt lat="49.97135" lon="2.08751">
        <ele>12.4</ele>
        <time>2022-04-12T11:30:07Z</time>
      </trkpt>
      <trkpt lat="49.97135" lon="2.08749">
        <ele>12.4</ele>
        <time>2022-04-12T11:30:08Z</time>
      </trkpt>
      <trkpt lat="49.97135" lon="2.08748">
        <ele>12.4</ele>
        <time>2022-04-12T11:30:09Z</time>
      </trkpt>
      <trkpt lat="49.97136" lon="2.08746">
        <ele>12.4</ele>
        <time>2022-04-12T11:30:10Z</time>
      </trkpt>
      <trkpt lat="49.97136" lon="2.08743">
        <ele>12.4</ele>
        <time>2022-04-12T11:30:11Z</time>
      </trkpt>
      <trkpt lat="49.97137" lon="2.08742">
        <ele>12.4</ele>
        <time>2022-04-12T11:30:12Z</time>
      </trkpt>
      <trkpt lat="49.97137" lon="2.08741">
        <ele>12.4</ele>
        <time>2022-04-12T11:30:13Z</time>
      </trkpt>
      <trkpt lat="49.97137" lon="2.08739">
        <ele>12.4</ele>
        <time>2022-04-12T11:30:15Z</time>
      </trkpt>
      <trkpt lat="49.97137" lon="2.08737">
        <ele>12.5</ele>
        <time>2022-04-12T11:30:16Z</time>
      </trkpt>
      <trkpt lat="49.97138" lon="2.08736">
        <ele>12.5</ele>
        <time>2022-04-12T11:30:17Z</time>
      </trkpt>
      <trkpt lat="49.97138" lon="2.08734">
        <ele>12.5</ele>
        <time>2022-04-12T11:30:18Z</time>
      </trkpt>
      <trkpt lat="49.97139" lon="2.08732">
        <ele>12.5</ele>
        <time>2022-04-12T11:30:19Z</time>
      </trkpt>
      <trkpt lat="49.97139" lon="2.08731">
        <ele>12.5</ele>
        <time>2022-04-12T11:30:20Z</time>
      </trkpt>
      <trkpt lat="49.97139" lon="2.08729">
        <ele>12.5</ele>
        <time>2022-04-12T11:30:21Z</time>
      </trkpt>
      <trkpt lat="49.9714" lon="2.08727">
        <ele>12.5</ele>
        <time>2022-04-12T11:30:22Z</time>
      </trkpt>
      <trkpt lat="49.9714" lon="2.08725">
        <ele>12.5</ele>
        <time>2022-04-12T11:30:23Z</time>
      </trkpt>
      <trkpt lat="49.97141" lon="2.08722">
        <ele>12.5</ele>
        <time>2022-04-12T11:30:25Z</time>
      </trkpt>
      <trkpt lat="49.97141" lon="2.08721">
        <ele>12.5</ele>
        <time>2022-04-12T11:30:26Z</time>
      </trkpt>
      <trkpt lat="49.97142" lon="2.0872">
        <ele>12.5</ele>
        <time>2022-04-12T11:30:27Z</time>
      </trkpt>
      <trkpt lat="49.97142" lon="2.08718">
        <ele>12.5</ele>
        <time>2022-04-12T11:30:28Z</time>
      </trkpt>
      <trkpt lat="49.97143" lon="2.08717">
        <ele>12.5</ele>
        <time>2022-04-12T11:30:29Z</time>
      </trkpt>
      <trkpt lat="49.97143" lon="2.08715">
        <ele>12.5</ele>
        <time>2022-04-12T11:30:30Z</time>
      </trkpt>
      <trkpt lat="49.97144" lon="2.08714">
        <ele>12.5</ele>
        <time>2022-04-12T11:30:31Z</time>
      </trkpt>
      <trkpt lat="49.97144" lon="2.08712">
        <ele>12.6</ele>
        <time>2022-04-12T11:30:32Z</time>
      </trkpt>
      <trkpt lat="49.97145" lon="2.08711">
        <ele>12.6</ele>
        <time>2022-04-12T11:30:33Z</time>
      </trkpt>
      <trkpt lat="49.97146" lon="2.08708">
        <ele>12.6</ele>
        <time>2022-04-12T11:30:34Z</time>
      </trkpt>
      <trkpt lat="49.97146" lon="2.08706">
        <ele>12.6</ele>
        <time>2022-04-12T11:30:35Z</time>
      </trkpt>
      <trkpt lat="49.97147" lon="2.08704">
        <ele>12.6</ele>
        <time>2022-04-12T11:30:37Z</time>
      </trkpt>
      <trkpt lat="49.97147" lon="2.08702">
        <ele>12.6</ele>
        <time>2022-04-12T11:30:38Z</time>
      </trkpt>
      <trkpt lat="49.97148" lon="2.087">
        <ele>12.6</ele>
        <time>2022-04-12T11:30:39Z</time>
      </trkpt>
      <trkpt lat="49.97149" lon="2.08699">
        <ele>12.6</ele>
        <time>2022-04-12T11:30:40Z</time>
      </trkpt>
      <trkpt lat="49.9715" lon="2.08696">
        <ele>12.6</ele>
        <time>2022-04-12T11:30:41Z</time>
      </trkpt>
      <trkpt lat="49.9715" lon="2.08695">
        <ele>12.6</ele>
        <time>2022-04-12T11:30:42Z</time>
      </trkpt>
      <trkpt lat="49.97151" lon="2.08694">
        <ele>12.6</ele>
        <time>2022-04-12T11:30:43Z</time>
      </trkpt>
      <trkpt lat="49.97152" lon="2.08692">
        <ele>12.6</ele>
        <time>2022-04-12T11:30:45Z</time>
      </trkpt>
      <trkpt lat="49.97152" lon="2.0869">
        <ele>12.6</ele>
        <time>2022-04-12T11:30:46Z</time>
      </trkpt>
      <trkpt lat="49.97153" lon="2.08687">
        <ele>12.6</ele>
        <time>2022-04-12T11:30:47Z</time>
      </trkpt>
      <trkpt lat="49.97154" lon="2.08686">
        <ele>12.6</ele>
        <time>2022-04-12T11:30:48Z</time>
      </trkpt>
      <trkpt lat="49.97154" lon="2.08684">
        <ele>12.6</ele>
        <time>2022-04-12T11:30:49Z</time>
      </trkpt>
      <trkpt lat="49.97155" lon="2.08682">
        <ele>12.6</ele>
        <time>2022-04-12T11:30:50Z</time>
      </trkpt>
      <trkpt lat="49.97155" lon="2.08681">
        <ele>12.6</ele>
        <time>2022-04-12T11:30:51Z</time>
      </trkpt>
      <trkpt lat="49.97156" lon="2.08678">
        <ele>12.6</ele>
        <time>2022-04-12T11:30:53Z</time>
      </trkpt>
      <trkpt lat="49.97157" lon="2.08676">
        <ele>12.7</ele>
        <time>2022-04-12T11:30:54Z</time>
      </trkpt>
      <trkpt lat="49.97157" lon="2.08674">
        <ele>12.7</ele>
        <time>2022-04-12T11:30:55Z</time>
      </trkpt>
      <trkpt lat="49.97157" lon="2.08673">
        <ele>12.7</ele>
        <time>2022-04-12T11:30:56Z</time>
      </trkpt>
      <trkpt lat="49.97158" lon="2.08671">
        <ele>12.7</ele>
        <time>2022-04-12T11:30:57Z</time>
      </trkpt>
      <trkpt lat="49.97159" lon="2.08669">
        <ele>12.7</ele>
        <time>2022-04-12T11:30:59Z</time>
      </trkpt>
      <trkpt lat="49.97159" lon="2.08667">
        <ele>12.7</ele>
        <time>2022-04-12T11:31:00Z</time>
      </trkpt>
      <trkpt lat="49.9716" lon="2.08665">
        <ele>12.7</ele>
        <time>2022-04-12T11:31:01Z</time>
      </trkpt>
      <trkpt lat="49.97161" lon="2.08662">
        <ele>12.7</ele>
        <time>2022-04-12T11:31:02Z</time>
      </trkpt>
      <trkpt lat="49.97161" lon="2.08661">
        <ele>12.7</ele>
        <time>2022-04-12T11:31:03Z</time>
      </trkpt>
      <trkpt lat="49.97162" lon="2.0866">
        <ele>12.7</ele>
        <time>2022-04-12T11:31:04Z</time>
      </trkpt>
      <trkpt lat="49.97162" lon="2.08658">
        <ele>12.8</ele>
        <time>2022-04-12T11:31:05Z</time>
      </trkpt>
      <trkpt lat="49.97162" lon="2.08656">
        <ele>12.8</ele>
        <time>2022-04-12T11:31:06Z</time>
      </trkpt>
      <trkpt lat="49.97163" lon="2.08654">
        <ele>12.8</ele>
        <time>2022-04-12T11:31:08Z</time>
      </trkpt>
      <trkpt lat="49.97163" lon="2.08653">
        <ele>12.8</ele>
        <time>2022-04-12T11:31:09Z</time>
      </trkpt>
      <trkpt lat="49.97163" lon="2.08651">
        <ele>12.8</ele>
        <time>2022-04-12T11:31:10Z</time>
      </trkpt>
      <trkpt lat="49.97164" lon="2.08649">
        <ele>12.8</ele>
        <time>2022-04-12T11:31:11Z</time>
      </trkpt>
      <trkpt lat="49.97164" lon="2.08648">
        <ele>12.8</ele>
        <time>2022-04-12T11:31:12Z</time>
      </trkpt>
      <trkpt lat="49.97165" lon="2.08646">
        <ele>12.8</ele>
        <time>2022-04-12T11:31:13Z</time>
      </trkpt>
      <trkpt lat="49.97165" lon="2.08644">
        <ele>12.9</ele>
        <time>2022-04-12T11:31:14Z</time>
      </trkpt>
      <trkpt lat="49.97165" lon="2.08643">
        <ele>12.9</ele>
        <time>2022-04-12T11:31:15Z</time>
      </trkpt>
      <trkpt lat="49.97165" lon="2.08641">
        <ele>12.9</ele>
        <time>2022-04-12T11:31:16Z</time>
      </trkpt>
      <trkpt lat="49.97166" lon="2.08639">
        <ele>12.9</ele>
        <time>2022-04-12T11:31:18Z</time>
      </trkpt>
      <trkpt lat="49.97166" lon="2.08638">
        <ele>12.9</ele>
        <time>2022-04-12T11:31:19Z</time>
      </trkpt>
      <trkpt lat="49.97166" lon="2.08636">
        <ele>12.9</ele>
        <time>2022-04-12T11:31:20Z</time>
      </trkpt>
      <trkpt lat="49.97166" lon="2.08634">
        <ele>12.9</ele>
        <time>2022-04-12T11:31:21Z</time>
      </trkpt>
      <trkpt lat="49.97166" lon="2.08633">
        <ele>12.9</ele>
        <time>2022-04-12T11:31:22Z</time>
      </trkpt>
      <trkpt lat="49.97166" lon="2.08631">
        <ele>13</ele>
        <time>2022-04-12T11:31:23Z</time>
      </trkpt>
      <trkpt lat="49.97166" lon="2.0863">
        <ele>13</ele>
        <time>2022-04-12T11:31:24Z</time>
      </trkpt>
      <trkpt lat="49.97166" lon="2.08628">
        <ele>13</ele>
        <time>2022-04-12T11:31:25Z</time>
      </trkpt>
      <trkpt lat="49.97166" lon="2.08627">
        <ele>13</ele>
        <time>2022-04-12T11:31:27Z</time>
      </trkpt>
      <trkpt lat="49.97166" lon="2.08625">
        <ele>13</ele>
        <time>2022-04-12T11:31:28Z</time>
      </trkpt>
      <trkpt lat="49.97167" lon="2.08623">
        <ele>13</ele>
        <time>2022-04-12T11:31:29Z</time>
      </trkpt>
      <trkpt lat="49.97167" lon="2.08622">
        <ele>13</ele>
        <time>2022-04-12T11:31:30Z</time>
      </trkpt>
      <trkpt lat="49.97168" lon="2.0862">
        <ele>13.1</ele>
        <time>2022-04-12T11:31:31Z</time>
      </trkpt>
      <trkpt lat="49.97169" lon="2.08618">
        <ele>13.1</ele>
        <time>2022-04-12T11:31:32Z</time>
      </trkpt>
      <trkpt lat="49.97169" lon="2.08617">
        <ele>13.1</ele>
        <time>2022-04-12T11:31:33Z</time>
      </trkpt>
      <trkpt lat="49.9717" lon="2.08616">
        <ele>13.1</ele>
        <time>2022-04-12T11:31:34Z</time>
      </trkpt>
      <trkpt lat="49.97171" lon="2.08613">
        <ele>13.1</ele>
        <time>2022-04-12T11:31:36Z</time>
      </trkpt>
      <trkpt lat="49.97172" lon="2.08612">
        <ele>13.1</ele>
        <time>2022-04-12T11:31:37Z</time>
      </trkpt>
      <trkpt lat="49.97172" lon="2.08611">
        <ele>13.1</ele>
        <time>2022-04-12T11:31:38Z</time>
      </trkpt>
      <trkpt lat="49.97174" lon="2.08609">
        <ele>13.2</ele>
        <time>2022-04-12T11:31:39Z</time>
      </trkpt>
      <trkpt lat="49.97174" lon="2.08608">
        <ele>13.2</ele>
        <time>2022-04-12T11:31:40Z</time>
      </trkpt>
      <trkpt lat="49.97174" lon="2.08607">
        <ele>13.2</ele>
        <time>2022-04-12T11:31:41Z</time>
      </trkpt>
      <trkpt lat="49.97176" lon="2.08604">
        <ele>13.2</ele>
        <time>2022-04-12T11:31:42Z</time>
      </trkpt>
      <trkpt lat="49.97176" lon="2.08603">
        <ele>13.2</ele>
        <time>2022-04-12T11:31:43Z</time>
      </trkpt>
      <trkpt lat="49.97177" lon="2.08602">
        <ele>13.3</ele>
        <time>2022-04-12T11:31:44Z</time>
      </trkpt>
      <trkpt lat="49.97178" lon="2.08599">
        <ele>13.3</ele>
        <time>2022-04-12T11:31:46Z</time>
      </trkpt>
      <trkpt lat="49.97179" lon="2.08598">
        <ele>13.3</ele>
        <time>2022-04-12T11:31:47Z</time>
      </trkpt>
      <trkpt lat="49.97179" lon="2.08597">
        <ele>13.3</ele>
        <time>2022-04-12T11:31:48Z</time>
      </trkpt>
      <trkpt lat="49.9718" lon="2.08595">
        <ele>13.4</ele>
        <time>2022-04-12T11:31:49Z</time>
      </trkpt>
      <trkpt lat="49.97181" lon="2.08594">
        <ele>13.4</ele>
        <time>2022-04-12T11:31:50Z</time>
      </trkpt>
      <trkpt lat="49.97181" lon="2.08593">
        <ele>13.4</ele>
        <time>2022-04-12T11:31:51Z</time>
      </trkpt>
      <trkpt lat="49.97182" lon="2.08591">
        <ele>13.4</ele>
        <time>2022-04-12T11:31:52Z</time>
      </trkpt>
      <trkpt lat="49.97183" lon="2.08589">
        <ele>13.4</ele>
        <time>2022-04-12T11:31:53Z</time>
      </trkpt>
      <trkpt lat="49.97184" lon="2.08587">
        <ele>13.5</ele>
        <time>2022-04-12T11:31:55Z</time>
      </trkpt>
      <trkpt lat="49.97184" lon="2.08585">
        <ele>13.5</ele>
        <time>2022-04-12T11:31:56Z</time>
      </trkpt>
      <trkpt lat="49.97185" lon="2.08584">
        <ele>13.5</ele>
        <time>2022-04-12T11:31:57Z</time>
      </trkpt>
      <trkpt lat="49.97185" lon="2.08583">
        <ele>13.5</ele>
        <time>2022-04-12T11:31:58Z</time>
      </trkpt>
      <trkpt lat="49.97186" lon="2.08582">
        <ele>13.5</ele>
        <time>2022-04-12T11:31:59Z</time>
      </trkpt>
      <trkpt lat="49.97186" lon="2.0858">
        <ele>13.5</ele>
        <time>2022-04-12T11:32:00Z</time>
      </trkpt>
      <trkpt lat="49.97187" lon="2.08579">
        <ele>13.6</ele>
        <time>2022-04-12T11:32:01Z</time>
      </trkpt>
      <trkpt lat="49.97187" lon="2.08578">
        <ele>13.6</ele>
        <time>2022-04-12T11:32:03Z</time>
      </trkpt>
      <trkpt lat="49.97188" lon="2.08576">
        <ele>13.6</ele>
        <time>2022-04-12T11:32:04Z</time>
      </trkpt>
      <trkpt lat="49.97189" lon="2.08575">
        <ele>13.6</ele>
        <time>2022-04-12T11:32:05Z</time>
      </trkpt>
      <trkpt lat="49.97189" lon="2.08574">
        <ele>13.6</ele>
        <time>2022-04-12T11:32:06Z</time>
      </trkpt>
      <trkpt lat="49.9719" lon="2.08572">
        <ele>13.7</ele>
        <time>2022-04-12T11:32:07Z</time>
      </trkpt>
      <trkpt lat="49.9719" lon="2.08571">
        <ele>13.7</ele>
        <time>2022-04-12T11:32:08Z</time>
      </trkpt>
      <trkpt lat="49.9719" lon="2.08569">
        <ele>13.7</ele>
        <time>2022-04-12T11:32:09Z</time>
      </trkpt>
      <trkpt lat="49.97191" lon="2.08567">
        <ele>13.7</ele>
        <time>2022-04-12T11:32:10Z</time>
      </trkpt>
      <trkpt lat="49.97191" lon="2.08565">
        <ele>13.7</ele>
        <time>2022-04-12T11:32:12Z</time>
      </trkpt>
      <trkpt lat="49.97191" lon="2.08564">
        <ele>13.7</ele>
        <time>2022-04-12T11:32:13Z</time>
      </trkpt>
      <trkpt lat="49.97192" lon="2.08562">
        <ele>13.8</ele>
        <time>2022-04-12T11:32:14Z</time>
      </trkpt>
      <trkpt lat="49.97193" lon="2.0856">
        <ele>13.8</ele>
        <time>2022-04-12T11:32:15Z</time>
      </trkpt>
      <trkpt lat="49.97193" lon="2.08559">
        <ele>13.8</ele>
        <time>2022-04-12T11:32:16Z</time>
      </trkpt>
      <trkpt lat="49.97193" lon="2.08558">
        <ele>13.8</ele>
        <time>2022-04-12T11:32:17Z</time>
      </trkpt>
      <trkpt lat="49.97194" lon="2.08556">
        <ele>13.8</ele>
        <time>2022-04-12T11:32:18Z</time>
      </trkpt>
      <trkpt lat="49.97195" lon="2.08554">
        <ele>13.8</ele>
        <time>2022-04-12T11:32:19Z</time>
      </trkpt>
      <trkpt lat="49.97195" lon="2.08552">
        <ele>13.8</ele>
        <time>2022-04-12T11:32:21Z</time>
      </trkpt>
      <trkpt lat="49.97196" lon="2.08549">
        <ele>13.8</ele>
        <time>2022-04-12T11:32:22Z</time>
      </trkpt>
      <trkpt lat="49.97197" lon="2.08548">
        <ele>13.8</ele>
        <time>2022-04-12T11:32:23Z</time>
      </trkpt>
      <trkpt lat="49.97197" lon="2.08547">
        <ele>13.8</ele>
        <time>2022-04-12T11:32:24Z</time>
      </trkpt>
      <trkpt lat="49.97198" lon="2.08546">
        <ele>13.8</ele>
        <time>2022-04-12T11:32:25Z</time>
      </trkpt>
      <trkpt lat="49.97199" lon="2.08544">
        <ele>13.8</ele>
        <time>2022-04-12T11:32:26Z</time>
      </trkpt>
      <trkpt lat="49.972" lon="2.08543">
        <ele>13.9</ele>
        <time>2022-04-12T11:32:28Z</time>
      </trkpt>
      <trkpt lat="49.972" lon="2.08542">
        <ele>13.9</ele>
        <time>2022-04-12T11:32:29Z</time>
      </trkpt>
      <trkpt lat="49.97201" lon="2.08541">
        <ele>13.9</ele>
        <time>2022-04-12T11:32:30Z</time>
      </trkpt>
      <trkpt lat="49.97202" lon="2.0854">
        <ele>13.9</ele>
        <time>2022-04-12T11:32:31Z</time>
      </trkpt>
      <trkpt lat="49.97202" lon="2.08538">
        <ele>13.9</ele>
        <time>2022-04-12T11:32:32Z</time>
      </trkpt>
      <trkpt lat="49.97203" lon="2.08537">
        <ele>13.9</ele>
        <time>2022-04-12T11:32:33Z</time>
      </trkpt>
      <trkpt lat="49.97203" lon="2.08534">
        <ele>13.9</ele>
        <time>2022-04-12T11:32:35Z</time>
      </trkpt>
      <trkpt lat="49.97202" lon="2.08533">
        <ele>13.9</ele>
        <time>2022-04-12T11:32:36Z</time>
      </trkpt>
      <trkpt lat="49.97202" lon="2.08532">
        <ele>13.9</ele>
        <time>2022-04-12T11:32:37Z</time>
      </trkpt>
      <trkpt lat="49.97201" lon="2.08532">
        <ele>13.9</ele>
        <time>2022-04-12T11:32:38Z</time>
      </trkpt>
      <trkpt lat="49.97201" lon="2.08531">
        <ele>13.9</ele>
        <time>2022-04-12T11:32:39Z</time>
      </trkpt>
      <trkpt lat="49.97201" lon="2.08531">
        <ele>13.9</ele>
        <time>2022-04-12T11:32:40Z</time>
      </trkpt>
      <trkpt lat="49.97201" lon="2.08531">
        <ele>13.9</ele>
        <time>2022-04-12T11:32:41Z</time>
      </trkpt>
      <trkpt lat="49.97201" lon="2.08531">
        <ele>13.9</ele>
        <time>2022-04-12T11:32:42Z</time>
      </trkpt>
      <trkpt lat="49.97201" lon="2.08531">
        <ele>13.9</ele>
        <time>2022-04-12T11:32:43Z</time>
      </trkpt>
      <trkpt lat="49.97202" lon="2.0853">
        <ele>13.9</ele>
        <time>2022-04-12T11:32:44Z</time>
      </trkpt>
      <trkpt lat="49.97202" lon="2.08529">
        <ele>13.9</ele>
        <time>2022-04-12T11:32:45Z</time>
      </trkpt>
      <trkpt lat="49.97203" lon="2.08528">
        <ele>13.9</ele>
        <time>2022-04-12T11:32:46Z</time>
      </trkpt>
      <trkpt lat="49.97203" lon="2.08527">
        <ele>13.9</ele>
        <time>2022-04-12T11:32:47Z</time>
      </trkpt>
      <trkpt lat="49.97204" lon="2.08526">
        <ele>13.9</ele>
        <time>2022-04-12T11:32:48Z</time>
      </trkpt>
      <trkpt lat="49.97205" lon="2.08524">
        <ele>13.9</ele>
        <time>2022-04-12T11:32:49Z</time>
      </trkpt>
      <trkpt lat="49.97206" lon="2.08523">
        <ele>13.9</ele>
        <time>2022-04-12T11:32:50Z</time>
      </trkpt>
      <trkpt lat="49.97207" lon="2.08522">
        <ele>13.9</ele>
        <time>2022-04-12T11:32:51Z</time>
      </trkpt>
      <trkpt lat="49.97208" lon="2.08519">
        <ele>13.9</ele>
        <time>2022-04-12T11:32:52Z</time>
      </trkpt>
      <trkpt lat="49.97208" lon="2.08518">
        <ele>13.9</ele>
        <time>2022-04-12T11:32:54Z</time>
      </trkpt>
      <trkpt lat="49.97209" lon="2.08516">
        <ele>13.9</ele>
        <time>2022-04-12T11:32:55Z</time>
      </trkpt>
      <trkpt lat="49.97209" lon="2.08515">
        <ele>13.9</ele>
        <time>2022-04-12T11:32:56Z</time>
      </trkpt>
      <trkpt lat="49.9721" lon="2.08514">
        <ele>13.9</ele>
        <time>2022-04-12T11:32:57Z</time>
      </trkpt>
      <trkpt lat="49.97211" lon="2.08511">
        <ele>13.9</ele>
        <time>2022-04-12T11:32:58Z</time>
      </trkpt>
      <trkpt lat="49.97211" lon="2.08509">
        <ele>13.9</ele>
        <time>2022-04-12T11:32:59Z</time>
      </trkpt>
      <trkpt lat="49.97211" lon="2.08508">
        <ele>13.9</ele>
        <time>2022-04-12T11:33:00Z</time>
      </trkpt>
      <trkpt lat="49.97212" lon="2.08505">
        <ele>13.9</ele>
        <time>2022-04-12T11:33:01Z</time>
      </trkpt>
      <trkpt lat="49.97212" lon="2.08504">
        <ele>13.9</ele>
        <time>2022-04-12T11:33:03Z</time>
      </trkpt>
      <trkpt lat="49.97212" lon="2.08502">
        <ele>13.9</ele>
        <time>2022-04-12T11:33:04Z</time>
      </trkpt>
      <trkpt lat="49.97213" lon="2.085">
        <ele>13.9</ele>
        <time>2022-04-12T11:33:05Z</time>
      </trkpt>
      <trkpt lat="49.97213" lon="2.08499">
        <ele>13.9</ele>
        <time>2022-04-12T11:33:06Z</time>
      </trkpt>
      <trkpt lat="49.97214" lon="2.08497">
        <ele>13.9</ele>
        <time>2022-04-12T11:33:08Z</time>
      </trkpt>
      <trkpt lat="49.97215" lon="2.08494">
        <ele>13.9</ele>
        <time>2022-04-12T11:33:09Z</time>
      </trkpt>
      <trkpt lat="49.97215" lon="2.08493">
        <ele>13.9</ele>
        <time>2022-04-12T11:33:10Z</time>
      </trkpt>
      <trkpt lat="49.97216" lon="2.08492">
        <ele>13.9</ele>
        <time>2022-04-12T11:33:11Z</time>
      </trkpt>
      <trkpt lat="49.97217" lon="2.08489">
        <ele>13.9</ele>
        <time>2022-04-12T11:33:12Z</time>
      </trkpt>
      <trkpt lat="49.97217" lon="2.08487">
        <ele>13.9</ele>
        <time>2022-04-12T11:33:13Z</time>
      </trkpt>
      <trkpt lat="49.97218" lon="2.08486">
        <ele>13.9</ele>
        <time>2022-04-12T11:33:14Z</time>
      </trkpt>
      <trkpt lat="49.97219" lon="2.08483">
        <ele>13.9</ele>
        <time>2022-04-12T11:33:15Z</time>
      </trkpt>
      <trkpt lat="49.97219" lon="2.08482">
        <ele>13.9</ele>
        <time>2022-04-12T11:33:17Z</time>
      </trkpt>
      <trkpt lat="49.9722" lon="2.08481">
        <ele>13.9</ele>
        <time>2022-04-12T11:33:18Z</time>
      </trkpt>
      <trkpt lat="49.9722" lon="2.0848">
        <ele>13.9</ele>
        <time>2022-04-12T11:33:19Z</time>
      </trkpt>
      <trkpt lat="49.97221" lon="2.08479">
        <ele>13.9</ele>
        <time>2022-04-12T11:33:20Z</time>
      </trkpt>
      <trkpt lat="49.97222" lon="2.08477">
        <ele>13.9</ele>
        <time>2022-04-12T11:33:21Z</time>
      </trkpt>
      <trkpt lat="49.97223" lon="2.08476">
        <ele>13.9</ele>
        <time>2022-04-12T11:33:22Z</time>
      </trkpt>
      <trkpt lat="49.97223" lon="2.08474">
        <ele>13.9</ele>
        <time>2022-04-12T11:33:23Z</time>
      </trkpt>
      <trkpt lat="49.97224" lon="2.08473">
        <ele>13.9</ele>
        <time>2022-04-12T11:33:24Z</time>
      </trkpt>
      <trkpt lat="49.97224" lon="2.08471">
        <ele>13.9</ele>
        <time>2022-04-12T11:33:25Z</time>
      </trkpt>
      <trkpt lat="49.97224" lon="2.0847">
        <ele>13.9</ele>
        <time>2022-04-12T11:33:27Z</time>
      </trkpt>
      <trkpt lat="49.97225" lon="2.08468">
        <ele>13.8</ele>
        <time>2022-04-12T11:33:28Z</time>
      </trkpt>
      <trkpt lat="49.97225" lon="2.08466">
        <ele>13.8</ele>
        <time>2022-04-12T11:33:29Z</time>
      </trkpt>
      <trkpt lat="49.97225" lon="2.08465">
        <ele>13.8</ele>
        <time>2022-04-12T11:33:30Z</time>
      </trkpt>
      <trkpt lat="49.97226" lon="2.08463">
        <ele>13.8</ele>
        <time>2022-04-12T11:33:31Z</time>
      </trkpt>
      <trkpt lat="49.97226" lon="2.0846">
        <ele>13.8</ele>
        <time>2022-04-12T11:33:32Z</time>
      </trkpt>
      <trkpt lat="49.97226" lon="2.08459">
        <ele>13.8</ele>
        <time>2022-04-12T11:33:33Z</time>
      </trkpt>
      <trkpt lat="49.97227" lon="2.08457">
        <ele>13.8</ele>
        <time>2022-04-12T11:33:34Z</time>
      </trkpt>
      <trkpt lat="49.97227" lon="2.08456">
        <ele>13.8</ele>
        <time>2022-04-12T11:33:35Z</time>
      </trkpt>
      <trkpt lat="49.97228" lon="2.08454">
        <ele>13.7</ele>
        <time>2022-04-12T11:33:37Z</time>
      </trkpt>
      <trkpt lat="49.97228" lon="2.08453">
        <ele>13.7</ele>
        <time>2022-04-12T11:33:38Z</time>
      </trkpt>
      <trkpt lat="49.97229" lon="2.08451">
        <ele>13.7</ele>
        <time>2022-04-12T11:33:39Z</time>
      </trkpt>
      <trkpt lat="49.97229" lon="2.08449">
        <ele>13.7</ele>
        <time>2022-04-12T11:33:40Z</time>
      </trkpt>
      <trkpt lat="49.97229" lon="2.08447">
        <ele>13.7</ele>
        <time>2022-04-12T11:33:41Z</time>
      </trkpt>
      <trkpt lat="49.9723" lon="2.08444">
        <ele>13.7</ele>
        <time>2022-04-12T11:33:42Z</time>
      </trkpt>
      <trkpt lat="49.97231" lon="2.08443">
        <ele>13.7</ele>
        <time>2022-04-12T11:33:43Z</time>
      </trkpt>
      <trkpt lat="49.97231" lon="2.08442">
        <ele>13.6</ele>
        <time>2022-04-12T11:33:44Z</time>
      </trkpt>
      <trkpt lat="49.97231" lon="2.0844">
        <ele>13.6</ele>
        <time>2022-04-12T11:33:45Z</time>
      </trkpt>
      <trkpt lat="49.97232" lon="2.08438">
        <ele>13.6</ele>
        <time>2022-04-12T11:33:46Z</time>
      </trkpt>
      <trkpt lat="49.97232" lon="2.08436">
        <ele>13.6</ele>
        <time>2022-04-12T11:33:48Z</time>
      </trkpt>
      <trkpt lat="49.97233" lon="2.08434">
        <ele>13.6</ele>
        <time>2022-04-12T11:33:49Z</time>
      </trkpt>
      <trkpt lat="49.97234" lon="2.08432">
        <ele>13.6</ele>
        <time>2022-04-12T11:33:50Z</time>
      </trkpt>
      <trkpt lat="49.97235" lon="2.0843">
        <ele>13.5</ele>
        <time>2022-04-12T11:33:51Z</time>
      </trkpt>
      <trkpt lat="49.97235" lon="2.08428">
        <ele>13.5</ele>
        <time>2022-04-12T11:33:52Z</time>
      </trkpt>
      <trkpt lat="49.97236" lon="2.08426">
        <ele>13.5</ele>
        <time>2022-04-12T11:33:53Z</time>
      </trkpt>
      <trkpt lat="49.97237" lon="2.08425">
        <ele>13.5</ele>
        <time>2022-04-12T11:33:54Z</time>
      </trkpt>
      <trkpt lat="49.97238" lon="2.08422">
        <ele>13.4</ele>
        <time>2022-04-12T11:33:56Z</time>
      </trkpt>
      <trkpt lat="49.97239" lon="2.08419">
        <ele>13.4</ele>
        <time>2022-04-12T11:33:57Z</time>
      </trkpt>
      <trkpt lat="49.97239" lon="2.08418">
        <ele>13.4</ele>
        <time>2022-04-12T11:33:58Z</time>
      </trkpt>
      <trkpt lat="49.9724" lon="2.08417">
        <ele>13.4</ele>
        <time>2022-04-12T11:33:59Z</time>
      </trkpt>
      <trkpt lat="49.97241" lon="2.08414">
        <ele>13.4</ele>
        <time>2022-04-12T11:34:01Z</time>
      </trkpt>
      <trkpt lat="49.97241" lon="2.08413">
        <ele>13.3</ele>
        <time>2022-04-12T11:34:02Z</time>
      </trkpt>
      <trkpt lat="49.97242" lon="2.0841">
        <ele>13.3</ele>
        <time>2022-04-12T11:34:03Z</time>
      </trkpt>
      <trkpt lat="49.97243" lon="2.08409">
        <ele>13.3</ele>
        <time>2022-04-12T11:34:04Z</time>
      </trkpt>
      <trkpt lat="49.97243" lon="2.08407">
        <ele>13.3</ele>
        <time>2022-04-12T11:34:05Z</time>
      </trkpt>
      <trkpt lat="49.97245" lon="2.08405">
        <ele>13.3</ele>
        <time>2022-04-12T11:34:07Z</time>
      </trkpt>
      <trkpt lat="49.97245" lon="2.08403">
        <ele>13.2</ele>
        <time>2022-04-12T11:34:08Z</time>
      </trkpt>
      <trkpt lat="49.97246" lon="2.084">
        <ele>13.2</ele>
        <time>2022-04-12T11:34:09Z</time>
      </trkpt>
      <trkpt lat="49.97247" lon="2.08399">
        <ele>13.2</ele>
        <time>2022-04-12T11:34:11Z</time>
      </trkpt>
      <trkpt lat="49.97247" lon="2.08397">
        <ele>13.2</ele>
        <time>2022-04-12T11:34:12Z</time>
      </trkpt>
      <trkpt lat="49.97248" lon="2.08396">
        <ele>13.2</ele>
        <time>2022-04-12T11:34:13Z</time>
      </trkpt>
      <trkpt lat="49.97248" lon="2.08394">
        <ele>13.2</ele>
        <time>2022-04-12T11:34:14Z</time>
      </trkpt>
      <trkpt lat="49.97249" lon="2.08391">
        <ele>13.1</ele>
        <time>2022-04-12T11:34:15Z</time>
      </trkpt>
      <trkpt lat="49.97249" lon="2.0839">
        <ele>13.1</ele>
        <time>2022-04-12T11:34:16Z</time>
      </trkpt>
      <trkpt lat="49.9725" lon="2.08389">
        <ele>13.1</ele>
        <time>2022-04-12T11:34:17Z</time>
      </trkpt>
      <trkpt lat="49.97251" lon="2.08386">
        <ele>13.1</ele>
        <time>2022-04-12T11:34:18Z</time>
      </trkpt>
      <trkpt lat="49.97251" lon="2.08385">
        <ele>13.1</ele>
        <time>2022-04-12T11:34:19Z</time>
      </trkpt>
      <trkpt lat="49.97252" lon="2.08384">
        <ele>13</ele>
        <time>2022-04-12T11:34:20Z</time>
      </trkpt>
      <trkpt lat="49.97252" lon="2.08381">
        <ele>13</ele>
        <time>2022-04-12T11:34:22Z</time>
      </trkpt>
      <trkpt lat="49.97253" lon="2.08379">
        <ele>13</ele>
        <time>2022-04-12T11:34:24Z</time>
      </trkpt>
      <trkpt lat="49.97254" lon="2.08375">
        <ele>12.9</ele>
        <time>2022-04-12T11:34:25Z</time>
      </trkpt>
      <trkpt lat="49.97255" lon="2.08374">
        <ele>12.9</ele>
        <time>2022-04-12T11:34:26Z</time>
      </trkpt>
      <trkpt lat="49.97255" lon="2.08373">
        <ele>12.9</ele>
        <time>2022-04-12T11:34:27Z</time>
      </trkpt>
      <trkpt lat="49.97256" lon="2.08371">
        <ele>12.9</ele>
        <time>2022-04-12T11:34:28Z</time>
      </trkpt>
      <trkpt lat="49.97257" lon="2.08369">
        <ele>12.9</ele>
        <time>2022-04-12T11:34:30Z</time>
      </trkpt>
      <trkpt lat="49.97257" lon="2.08368">
        <ele>12.8</ele>
        <time>2022-04-12T11:34:31Z</time>
      </trkpt>
      <trkpt lat="49.97258" lon="2.08366">
        <ele>12.8</ele>
        <time>2022-04-12T11:34:32Z</time>
      </trkpt>
      <trkpt lat="49.97258" lon="2.08365">
        <ele>12.8</ele>
        <time>2022-04-12T11:34:33Z</time>
      </trkpt>
      <trkpt lat="49.97259" lon="2.08363">
        <ele>12.8</ele>
        <time>2022-04-12T11:34:34Z</time>
      </trkpt>
      <trkpt lat="49.97259" lon="2.08362">
        <ele>12.8</ele>
        <time>2022-04-12T11:34:35Z</time>
      </trkpt>
      <trkpt lat="49.9726" lon="2.0836">
        <ele>12.7</ele>
        <time>2022-04-12T11:34:36Z</time>
      </trkpt>
      <trkpt lat="49.9726" lon="2.08358">
        <ele>12.7</ele>
        <time>2022-04-12T11:34:37Z</time>
      </trkpt>
      <trkpt lat="49.97261" lon="2.08357">
        <ele>12.7</ele>
        <time>2022-04-12T11:34:38Z</time>
      </trkpt>
      <trkpt lat="49.97262" lon="2.08355">
        <ele>12.7</ele>
        <time>2022-04-12T11:34:40Z</time>
      </trkpt>
      <trkpt lat="49.97262" lon="2.08354">
        <ele>12.7</ele>
        <time>2022-04-12T11:34:41Z</time>
      </trkpt>
      <trkpt lat="49.97263" lon="2.08352">
        <ele>12.6</ele>
        <time>2022-04-12T11:34:42Z</time>
      </trkpt>
      <trkpt lat="49.97263" lon="2.0835">
        <ele>12.6</ele>
        <time>2022-04-12T11:34:43Z</time>
      </trkpt>
      <trkpt lat="49.97264" lon="2.08349">
        <ele>12.6</ele>
        <time>2022-04-12T11:34:44Z</time>
      </trkpt>
      <trkpt lat="49.97264" lon="2.08347">
        <ele>12.6</ele>
        <time>2022-04-12T11:34:45Z</time>
      </trkpt>
      <trkpt lat="49.97265" lon="2.08345">
        <ele>12.6</ele>
        <time>2022-04-12T11:34:46Z</time>
      </trkpt>
      <trkpt lat="49.97265" lon="2.08342">
        <ele>12.5</ele>
        <time>2022-04-12T11:34:47Z</time>
      </trkpt>
      <trkpt lat="49.97266" lon="2.08341">
        <ele>12.5</ele>
        <time>2022-04-12T11:34:48Z</time>
      </trkpt>
      <trkpt lat="49.97266" lon="2.08339">
        <ele>12.5</ele>
        <time>2022-04-12T11:34:49Z</time>
      </trkpt>
      <trkpt lat="49.97267" lon="2.08336">
        <ele>12.5</ele>
        <time>2022-04-12T11:34:51Z</time>
      </trkpt>
      <trkpt lat="49.97267" lon="2.08335">
        <ele>12.5</ele>
        <time>2022-04-12T11:34:52Z</time>
      </trkpt>
      <trkpt lat="49.97268" lon="2.08334">
        <ele>12.5</ele>
        <time>2022-04-12T11:34:53Z</time>
      </trkpt>
      <trkpt lat="49.97268" lon="2.08331">
        <ele>12.4</ele>
        <time>2022-04-12T11:34:55Z</time>
      </trkpt>
      <trkpt lat="49.97269" lon="2.08329">
        <ele>12.4</ele>
        <time>2022-04-12T11:34:56Z</time>
      </trkpt>
      <trkpt lat="49.97269" lon="2.08328">
        <ele>12.4</ele>
        <time>2022-04-12T11:34:57Z</time>
      </trkpt>
      <trkpt lat="49.9727" lon="2.08325">
        <ele>12.4</ele>
        <time>2022-04-12T11:34:59Z</time>
      </trkpt>
      <trkpt lat="49.9727" lon="2.08324">
        <ele>12.4</ele>
        <time>2022-04-12T11:35:00Z</time>
      </trkpt>
      <trkpt lat="49.97271" lon="2.08322">
        <ele>12.4</ele>
        <time>2022-04-12T11:35:01Z</time>
      </trkpt>
      <trkpt lat="49.97271" lon="2.08321">
        <ele>12.4</ele>
        <time>2022-04-12T11:35:02Z</time>
      </trkpt>
      <trkpt lat="49.97272" lon="2.0832">
        <ele>12.3</ele>
        <time>2022-04-12T11:35:03Z</time>
      </trkpt>
      <trkpt lat="49.97272" lon="2.08318">
        <ele>12.3</ele>
        <time>2022-04-12T11:35:04Z</time>
      </trkpt>
      <trkpt lat="49.97272" lon="2.08317">
        <ele>12.3</ele>
        <time>2022-04-12T11:35:05Z</time>
      </trkpt>
      <trkpt lat="49.97273" lon="2.08315">
        <ele>12.3</ele>
        <time>2022-04-12T11:35:06Z</time>
      </trkpt>
      <trkpt lat="49.97273" lon="2.08313">
        <ele>12.3</ele>
        <time>2022-04-12T11:35:07Z</time>
      </trkpt>
      <trkpt lat="49.97273" lon="2.08311">
        <ele>12.3</ele>
        <time>2022-04-12T11:35:09Z</time>
      </trkpt>
      <trkpt lat="49.97274" lon="2.08309">
        <ele>12.3</ele>
        <time>2022-04-12T11:35:10Z</time>
      </trkpt>
      <trkpt lat="49.97274" lon="2.08308">
        <ele>12.3</ele>
        <time>2022-04-12T11:35:11Z</time>
      </trkpt>
      <trkpt lat="49.97275" lon="2.08306">
        <ele>12.2</ele>
        <time>2022-04-12T11:35:12Z</time>
      </trkpt>
      <trkpt lat="49.97275" lon="2.08304">
        <ele>12.2</ele>
        <time>2022-04-12T11:35:13Z</time>
      </trkpt>
      <trkpt lat="49.97276" lon="2.08303">
        <ele>12.2</ele>
        <time>2022-04-12T11:35:14Z</time>
      </trkpt>
      <trkpt lat="49.97276" lon="2.08301">
        <ele>12.2</ele>
        <time>2022-04-12T11:35:15Z</time>
      </trkpt>
      <trkpt lat="49.97276" lon="2.08299">
        <ele>12.2</ele>
        <time>2022-04-12T11:35:16Z</time>
      </trkpt>
      <trkpt lat="49.97277" lon="2.08298">
        <ele>12.2</ele>
        <time>2022-04-12T11:35:17Z</time>
      </trkpt>
      <trkpt lat="49.97277" lon="2.08296">
        <ele>12.2</ele>
        <time>2022-04-12T11:35:19Z</time>
      </trkpt>
      <trkpt lat="49.97278" lon="2.08294">
        <ele>12.2</ele>
        <time>2022-04-12T11:35:20Z</time>
      </trkpt>
      <trkpt lat="49.97278" lon="2.08292">
        <ele>12.1</ele>
        <time>2022-04-12T11:35:21Z</time>
      </trkpt>
      <trkpt lat="49.97279" lon="2.08291">
        <ele>12.1</ele>
        <time>2022-04-12T11:35:22Z</time>
      </trkpt>
      <trkpt lat="49.97279" lon="2.08289">
        <ele>12.1</ele>
        <time>2022-04-12T11:35:23Z</time>
      </trkpt>
      <trkpt lat="49.9728" lon="2.08287">
        <ele>12.1</ele>
        <time>2022-04-12T11:35:24Z</time>
      </trkpt>
      <trkpt lat="49.97281" lon="2.08283">
        <ele>12.1</ele>
        <time>2022-04-12T11:35:25Z</time>
      </trkpt>
      <trkpt lat="49.97281" lon="2.08281">
        <ele>12.1</ele>
        <time>2022-04-12T11:35:27Z</time>
      </trkpt>
      <trkpt lat="49.97282" lon="2.08279">
        <ele>12.1</ele>
        <time>2022-04-12T11:35:28Z</time>
      </trkpt>
      <trkpt lat="49.97282" lon="2.08278">
        <ele>12.1</ele>
        <time>2022-04-12T11:35:30Z</time>
      </trkpt>
      <trkpt lat="49.97283" lon="2.08276">
        <ele>12.1</ele>
        <time>2022-04-12T11:35:32Z</time>
      </trkpt>
      <trkpt lat="49.97284" lon="2.08274">
        <ele>12.1</ele>
        <time>2022-04-12T11:35:33Z</time>
      </trkpt>
      <trkpt lat="49.97284" lon="2.08273">
        <ele>12</ele>
        <time>2022-04-12T11:35:34Z</time>
      </trkpt>
      <trkpt lat="49.97285" lon="2.08271">
        <ele>12</ele>
        <time>2022-04-12T11:35:35Z</time>
      </trkpt>
      <trkpt lat="49.97285" lon="2.08269">
        <ele>12</ele>
        <time>2022-04-12T11:35:36Z</time>
      </trkpt>
      <trkpt lat="49.97285" lon="2.08268">
        <ele>12</ele>
        <time>2022-04-12T11:35:37Z</time>
      </trkpt>
      <trkpt lat="49.97286" lon="2.08267">
        <ele>12</ele>
        <time>2022-04-12T11:35:38Z</time>
      </trkpt>
      <trkpt lat="49.97286" lon="2.08265">
        <ele>12</ele>
        <time>2022-04-12T11:35:39Z</time>
      </trkpt>
      <trkpt lat="49.97287" lon="2.08263">
        <ele>12</ele>
        <time>2022-04-12T11:35:40Z</time>
      </trkpt>
      <trkpt lat="49.97288" lon="2.08261">
        <ele>12</ele>
        <time>2022-04-12T11:35:41Z</time>
      </trkpt>
      <trkpt lat="49.97288" lon="2.08259">
        <ele>12</ele>
        <time>2022-04-12T11:35:42Z</time>
      </trkpt>
      <trkpt lat="49.97289" lon="2.08256">
        <ele>11.9</ele>
        <time>2022-04-12T11:35:44Z</time>
      </trkpt>
      <trkpt lat="49.9729" lon="2.08255">
        <ele>11.9</ele>
        <time>2022-04-12T11:35:45Z</time>
      </trkpt>
      <trkpt lat="49.9729" lon="2.08254">
        <ele>11.9</ele>
        <time>2022-04-12T11:35:46Z</time>
      </trkpt>
      <trkpt lat="49.97291" lon="2.08251">
        <ele>11.9</ele>
        <time>2022-04-12T11:35:47Z</time>
      </trkpt>
      <trkpt lat="49.97292" lon="2.0825">
        <ele>11.9</ele>
        <time>2022-04-12T11:35:48Z</time>
      </trkpt>
      <trkpt lat="49.97292" lon="2.08249">
        <ele>11.9</ele>
        <time>2022-04-12T11:35:49Z</time>
      </trkpt>
      <trkpt lat="49.97294" lon="2.08247">
        <ele>11.9</ele>
        <time>2022-04-12T11:35:50Z</time>
      </trkpt>
      <trkpt lat="49.97294" lon="2.08246">
        <ele>11.9</ele>
        <time>2022-04-12T11:35:51Z</time>
      </trkpt>
      <trkpt lat="49.97295" lon="2.08245">
        <ele>11.9</ele>
        <time>2022-04-12T11:35:52Z</time>
      </trkpt>
      <trkpt lat="49.97296" lon="2.08243">
        <ele>11.9</ele>
        <time>2022-04-12T11:35:54Z</time>
      </trkpt>
      <trkpt lat="49.97297" lon="2.08242">
        <ele>11.9</ele>
        <time>2022-04-12T11:35:55Z</time>
      </trkpt>
      <trkpt lat="49.97298" lon="2.08239">
        <ele>11.9</ele>
        <time>2022-04-12T11:35:56Z</time>
      </trkpt>
      <trkpt lat="49.97299" lon="2.08238">
        <ele>11.9</ele>
        <time>2022-04-12T11:35:57Z</time>
      </trkpt>
      <trkpt lat="49.97299" lon="2.08237">
        <ele>11.9</ele>
        <time>2022-04-12T11:35:58Z</time>
      </trkpt>
      <trkpt lat="49.97301" lon="2.08234">
        <ele>11.9</ele>
        <time>2022-04-12T11:35:59Z</time>
      </trkpt>
      <trkpt lat="49.97301" lon="2.08233">
        <ele>11.9</ele>
        <time>2022-04-12T11:36:00Z</time>
      </trkpt>
      <trkpt lat="49.97302" lon="2.08232">
        <ele>11.9</ele>
        <time>2022-04-12T11:36:01Z</time>
      </trkpt>
      <trkpt lat="49.97303" lon="2.0823">
        <ele>11.9</ele>
        <time>2022-04-12T11:36:03Z</time>
      </trkpt>
      <trkpt lat="49.97304" lon="2.08229">
        <ele>11.9</ele>
        <time>2022-04-12T11:36:04Z</time>
      </trkpt>
      <trkpt lat="49.97304" lon="2.08227">
        <ele>11.9</ele>
        <time>2022-04-12T11:36:05Z</time>
      </trkpt>
      <trkpt lat="49.97305" lon="2.08225">
        <ele>11.9</ele>
        <time>2022-04-12T11:36:06Z</time>
      </trkpt>
      <trkpt lat="49.97306" lon="2.08223">
        <ele>11.9</ele>
        <time>2022-04-12T11:36:08Z</time>
      </trkpt>
      <trkpt lat="49.97306" lon="2.08222">
        <ele>11.9</ele>
        <time>2022-04-12T11:36:09Z</time>
      </trkpt>
      <trkpt lat="49.97307" lon="2.0822">
        <ele>11.9</ele>
        <time>2022-04-12T11:36:10Z</time>
      </trkpt>
      <trkpt lat="49.97307" lon="2.08219">
        <ele>11.9</ele>
        <time>2022-04-12T11:36:11Z</time>
      </trkpt>
      <trkpt lat="49.97308" lon="2.08217">
        <ele>11.9</ele>
        <time>2022-04-12T11:36:12Z</time>
      </trkpt>
      <trkpt lat="49.97308" lon="2.08216">
        <ele>11.9</ele>
        <time>2022-04-12T11:36:13Z</time>
      </trkpt>
      <trkpt lat="49.97309" lon="2.08214">
        <ele>11.9</ele>
        <time>2022-04-12T11:36:14Z</time>
      </trkpt>
      <trkpt lat="49.97309" lon="2.08212">
        <ele>11.9</ele>
        <time>2022-04-12T11:36:15Z</time>
      </trkpt>
      <trkpt lat="49.97309" lon="2.08211">
        <ele>11.9</ele>
        <time>2022-04-12T11:36:16Z</time>
      </trkpt>
      <trkpt lat="49.9731" lon="2.08209">
        <ele>11.9</ele>
        <time>2022-04-12T11:36:17Z</time>
      </trkpt>
      <trkpt lat="49.9731" lon="2.08207">
        <ele>11.9</ele>
        <time>2022-04-12T11:36:19Z</time>
      </trkpt>
      <trkpt lat="49.97311" lon="2.08205">
        <ele>11.9</ele>
        <time>2022-04-12T11:36:20Z</time>
      </trkpt>
      <trkpt lat="49.97311" lon="2.08203">
        <ele>11.9</ele>
        <time>2022-04-12T11:36:21Z</time>
      </trkpt>
      <trkpt lat="49.97312" lon="2.08202">
        <ele>11.9</ele>
        <time>2022-04-12T11:36:22Z</time>
      </trkpt>
      <trkpt lat="49.97313" lon="2.082">
        <ele>11.9</ele>
        <time>2022-04-12T11:36:23Z</time>
      </trkpt>
      <trkpt lat="49.97313" lon="2.08199">
        <ele>11.9</ele>
        <time>2022-04-12T11:36:24Z</time>
      </trkpt>
      <trkpt lat="49.97313" lon="2.08197">
        <ele>11.9</ele>
        <time>2022-04-12T11:36:25Z</time>
      </trkpt>
      <trkpt lat="49.97314" lon="2.08196">
        <ele>11.9</ele>
        <time>2022-04-12T11:36:26Z</time>
      </trkpt>
      <trkpt lat="49.97314" lon="2.08194">
        <ele>11.9</ele>
        <time>2022-04-12T11:36:28Z</time>
      </trkpt>
      <trkpt lat="49.97315" lon="2.08193">
        <ele>11.9</ele>
        <time>2022-04-12T11:36:29Z</time>
      </trkpt>
      <trkpt lat="49.97316" lon="2.08193">
        <ele>11.9</ele>
        <time>2022-04-12T11:36:30Z</time>
      </trkpt>
      <trkpt lat="49.97318" lon="2.08193">
        <ele>11.9</ele>
        <time>2022-04-12T11:36:31Z</time>
      </trkpt>
      <trkpt lat="49.97319" lon="2.08193">
        <ele>11.9</ele>
        <time>2022-04-12T11:36:32Z</time>
      </trkpt>
      <trkpt lat="49.9732" lon="2.08192">
        <ele>11.9</ele>
        <time>2022-04-12T11:36:33Z</time>
      </trkpt>
      <trkpt lat="49.97321" lon="2.08191">
        <ele>11.9</ele>
        <time>2022-04-12T11:36:34Z</time>
      </trkpt>
      <trkpt lat="49.97322" lon="2.08191">
        <ele>11.9</ele>
        <time>2022-04-12T11:36:35Z</time>
      </trkpt>
      <trkpt lat="49.97322" lon="2.08191">
        <ele>11.9</ele>
        <time>2022-04-12T11:36:36Z</time>
      </trkpt>
      <trkpt lat="49.97322" lon="2.08191">
        <ele>11.9</ele>
        <time>2022-04-12T11:36:37Z</time>
      </trkpt>
      <trkpt lat="49.97322" lon="2.08191">
        <ele>11.9</ele>
        <time>2022-04-12T11:36:38Z</time>
      </trkpt>
      <trkpt lat="49.97322" lon="2.08191">
        <ele>11.9</ele>
        <time>2022-04-12T11:36:39Z</time>
      </trkpt>
      <trkpt lat="49.97322" lon="2.08192">
        <ele>11.9</ele>
        <time>2022-04-12T11:36:41Z</time>
      </trkpt>
      <trkpt lat="49.97322" lon="2.08192">
        <ele>11.9</ele>
        <time>2022-04-12T11:36:42Z</time>
      </trkpt>
      <trkpt lat="49.97321" lon="2.08192">
        <ele>11.9</ele>
        <time>2022-04-12T11:37:37Z</time>
      </trkpt>
      <trkpt lat="49.97321" lon="2.08192">
        <ele>11.9</ele>
        <time>2022-04-12T11:37:38Z</time>
      </trkpt>
      <trkpt lat="49.97321" lon="2.08192">
        <ele>11.9</ele>
        <time>2022-04-12T11:37:39Z</time>
      </trkpt>
      <trkpt lat="49.97321" lon="2.08192">
        <ele>11.9</ele>
        <time>2022-04-12T11:37:40Z</time>
      </trkpt>
      <trkpt lat="49.97321" lon="2.08192">
        <ele>11.9</ele>
        <time>2022-04-12T11:37:41Z</time>
      </trkpt>
      <trkpt lat="49.97321" lon="2.08192">
        <ele>11.9</ele>
        <time>2022-04-12T11:37:42Z</time>
      </trkpt>
      <trkpt lat="49.97321" lon="2.08192">
        <ele>11.9</ele>
        <time>2022-04-12T11:37:43Z</time>
      </trkpt>
      <trkpt lat="49.97321" lon="2.08192">
        <ele>11.9</ele>
        <time>2022-04-12T11:37:44Z</time>
      </trkpt>
      <trkpt lat="49.97321" lon="2.08192">
        <ele>11.9</ele>
        <time>2022-04-12T11:37:45Z</time>
      </trkpt>
      <trkpt lat="49.97321" lon="2.08192">
        <ele>11.9</ele>
        <time>2022-04-12T11:37:46Z</time>
      </trkpt>
      <trkpt lat="49.97321" lon="2.08192">
        <ele>11.9</ele>
        <time>2022-04-12T11:37:47Z</time>
      </trkpt>
      <trkpt lat="49.97321" lon="2.08192">
        <ele>11.9</ele>
        <time>2022-04-12T11:37:48Z</time>
      </trkpt>
      <trkpt lat="49.97321" lon="2.08192">
        <ele>11.9</ele>
        <time>2022-04-12T11:37:49Z</time>
      </trkpt>
      <trkpt lat="49.97321" lon="2.08192">
        <ele>11.9</ele>
        <time>2022-04-12T11:37:50Z</time>
      </trkpt>
      <trkpt lat="49.97321" lon="2.08192">
        <ele>11.9</ele>
        <time>2022-04-12T11:37:51Z</time>
      </trkpt>
      <trkpt lat="49.97321" lon="2.08192">
        <ele>11.9</ele>
        <time>2022-04-12T11:37:52Z</time>
      </trkpt>
      <trkpt lat="49.97321" lon="2.08192">
        <ele>11.9</ele>
        <time>2022-04-12T11:37:53Z</time>
      </trkpt>
      <trkpt lat="49.97321" lon="2.08192">
        <ele>11.9</ele>
        <time>2022-04-12T11:37:54Z</time>
      </trkpt>
      <trkpt lat="49.97321" lon="2.08192">
        <ele>11.9</ele>
        <time>2022-04-12T11:37:55Z</time>
      </trkpt>
      <trkpt lat="49.97321" lon="2.08192">
        <ele>11.9</ele>
        <time>2022-04-12T11:37:56Z</time>
      </trkpt>
      <trkpt lat="49.97321" lon="2.08192">
        <ele>11.9</ele>
        <time>2022-04-12T11:37:57Z</time>
      </trkpt>
      <trkpt lat="49.97321" lon="2.08192">
        <ele>11.9</ele>
        <time>2022-04-12T11:37:58Z</time>
      </trkpt>
      <trkpt lat="49.97321" lon="2.08192">
        <ele>11.9</ele>
        <time>2022-04-12T11:37:59Z</time>
      </trkpt>
      <trkpt lat="49.97321" lon="2.08192">
        <ele>11.9</ele>
        <time>2022-04-12T11:38:00Z</time>
      </trkpt>
      <trkpt lat="49.97321" lon="2.08192">
        <ele>11.9</ele>
        <time>2022-04-12T11:38:01Z</time>
      </trkpt>
      <trkpt lat="49.97321" lon="2.08192">
        <ele>11.9</ele>
        <time>2022-04-12T11:38:02Z</time>
      </trkpt>
      <trkpt lat="49.97321" lon="2.08192">
        <ele>11.9</ele>
        <time>2022-04-12T11:38:03Z</time>
      </trkpt>
      <trkpt lat="49.97321" lon="2.08192">
        <ele>11.9</ele>
        <time>2022-04-12T11:38:04Z</time>
      </trkpt>
      <trkpt lat="49.97321" lon="2.08192">
        <ele>11.9</ele>
        <time>2022-04-12T11:38:05Z</time>
      </trkpt>
      <trkpt lat="49.97321" lon="2.08192">
        <ele>11.9</ele>
        <time>2022-04-12T11:38:06Z</time>
      </trkpt>
      <trkpt lat="49.97321" lon="2.08192">
        <ele>11.9</ele>
        <time>2022-04-12T11:38:07Z</time>
      </trkpt>
      <trkpt lat="49.97321" lon="2.08192">
        <ele>11.9</ele>
        <time>2022-04-12T11:38:08Z</time>
      </trkpt>
      <trkpt lat="49.97321" lon="2.08192">
        <ele>11.9</ele>
        <time>2022-04-12T11:38:09Z</time>
      </trkpt>
      <trkpt lat="49.97321" lon="2.08192">
        <ele>11.9</ele>
        <time>2022-04-12T11:38:10Z</time>
      </trkpt>
      <trkpt lat="49.97321" lon="2.08192">
        <ele>11.9</ele>
        <time>2022-04-12T11:38:11Z</time>
      </trkpt>
      <trkpt lat="49.97321" lon="2.08192">
        <ele>11.9</ele>
        <time>2022-04-12T11:38:12Z</time>
      </trkpt>
      <trkpt lat="49.97321" lon="2.08192">
        <ele>11.9</ele>
        <time>2022-04-12T11:38:13Z</time>
      </trkpt>
      <trkpt lat="49.97321" lon="2.08192">
        <ele>11.9</ele>
        <time>2022-04-12T11:38:14Z</time>
      </trkpt>
      <trkpt lat="49.97321" lon="2.08192">
        <ele>11.9</ele>
        <time>2022-04-12T11:38:15Z</time>
      </trkpt>
      <trkpt lat="49.97321" lon="2.08192">
        <ele>11.9</ele>
        <time>2022-04-12T11:38:16Z</time>
      </trkpt>
      <trkpt lat="49.97321" lon="2.08192">
        <ele>11.9</ele>
        <time>2022-04-12T11:38:17Z</time>
      </trkpt>
      <trkpt lat="49.97321" lon="2.08192">
        <ele>11.9</ele>
        <time>2022-04-12T11:38:18Z</time>
      </trkpt>
      <trkpt lat="49.97321" lon="2.08192">
        <ele>11.9</ele>
        <time>2022-04-12T11:38:19Z</time>
      </trkpt>
      <trkpt lat="49.97321" lon="2.08192">
        <ele>11.9</ele>
        <time>2022-04-12T11:38:20Z</time>
      </trkpt>
      <trkpt lat="49.97321" lon="2.08192">
        <ele>11.9</ele>
        <time>2022-04-12T11:38:21Z</time>
      </trkpt>
      <trkpt lat="49.97321" lon="2.08192">
        <ele>11.9</ele>
        <time>2022-04-12T11:38:22Z</time>
      </trkpt>
      <trkpt lat="49.97321" lon="2.08192">
        <ele>11.9</ele>
        <time>2022-04-12T11:38:23Z</time>
      </trkpt>
      <trkpt lat="49.97321" lon="2.08192">
        <ele>11.9</ele>
        <time>2022-04-12T11:38:24Z</time>
      </trkpt>
      <trkpt lat="49.97321" lon="2.08192">
        <ele>11.9</ele>
        <time>2022-04-12T11:38:25Z</time>
      </trkpt>
      <trkpt lat="49.97321" lon="2.08192">
        <ele>11.9</ele>
        <time>2022-04-12T11:38:26Z</time>
      </trkpt>
      <trkpt lat="49.97321" lon="2.08192">
        <ele>11.9</ele>
        <time>2022-04-12T11:38:27Z</time>
      </trkpt>
      <trkpt lat="49.97321" lon="2.08192">
        <ele>11.9</ele>
        <time>2022-04-12T11:38:28Z</time>
      </trkpt>
      <trkpt lat="49.97321" lon="2.08192">
        <ele>11.9</ele>
        <time>2022-04-12T11:38:29Z</time>
      </trkpt>
      <trkpt lat="49.97321" lon="2.08192">
        <ele>11.9</ele>
        <time>2022-04-12T11:38:30Z</time>
      </trkpt>
      <trkpt lat="49.97321" lon="2.08192">
        <ele>11.9</ele>
        <time>2022-04-12T11:38:31Z</time>
      </trkpt>
      <trkpt lat="49.97321" lon="2.08192">
        <ele>11.9</ele>
        <time>2022-04-12T11:38:32Z</time>
      </trkpt>
      <trkpt lat="49.97321" lon="2.08192">
        <ele>11.9</ele>
        <time>2022-04-12T11:38:33Z</time>
      </trkpt>
      <trkpt lat="49.97321" lon="2.08192">
        <ele>11.9</ele>
        <time>2022-04-12T11:38:34Z</time>
      </trkpt>
      <trkpt lat="49.9732" lon="2.08196">
        <ele>12</ele>
        <time>2022-04-12T11:38:35Z</time>
      </trkpt>
      <trkpt lat="49.97319" lon="2.08198">
        <ele>12</ele>
        <time>2022-04-12T11:38:36Z</time>
      </trkpt>
      <trkpt lat="49.97319" lon="2.08198">
        <ele>12</ele>
        <time>2022-04-12T11:38:37Z</time>
      </trkpt>
      <trkpt lat="49.97319" lon="2.08198">
        <ele>12</ele>
        <time>2022-04-12T11:38:38Z</time>
      </trkpt>
      <trkpt lat="49.97319" lon="2.08198">
        <ele>12</ele>
        <time>2022-04-12T11:38:39Z</time>
      </trkpt>
      <trkpt lat="49.97319" lon="2.08198">
        <ele>12</ele>
        <time>2022-04-12T11:38:40Z</time>
      </trkpt>
      <trkpt lat="49.97319" lon="2.08198">
        <ele>12</ele>
        <time>2022-04-12T11:38:41Z</time>
      </trkpt>
      <trkpt lat="49.9732" lon="2.08198">
        <ele>12</ele>
        <time>2022-04-12T11:38:43Z</time>
      </trkpt>
      <trkpt lat="49.9732" lon="2.08198">
        <ele>12</ele>
        <time>2022-04-12T11:38:44Z</time>
      </trkpt>
      <trkpt lat="49.9732" lon="2.08197">
        <ele>12</ele>
        <time>2022-04-12T11:38:46Z</time>
      </trkpt>
      <trkpt lat="49.9732" lon="2.08196">
        <ele>12</ele>
        <time>2022-04-12T11:38:47Z</time>
      </trkpt>
      <trkpt lat="49.9732" lon="2.08195">
        <ele>12</ele>
        <time>2022-04-12T11:38:49Z</time>
      </trkpt>
      <trkpt lat="49.97321" lon="2.08194">
        <ele>12</ele>
        <time>2022-04-12T11:38:50Z</time>
      </trkpt>
      <trkpt lat="49.97321" lon="2.08192">
        <ele>12</ele>
        <time>2022-04-12T11:38:51Z</time>
      </trkpt>
      <trkpt lat="49.97321" lon="2.0819">
        <ele>12</ele>
        <time>2022-04-12T11:38:52Z</time>
      </trkpt>
      <trkpt lat="49.97322" lon="2.08189">
        <ele>12</ele>
        <time>2022-04-12T11:38:53Z</time>
      </trkpt>
      <trkpt lat="49.97322" lon="2.08188">
        <ele>12.1</ele>
        <time>2022-04-12T11:38:54Z</time>
      </trkpt>
      <trkpt lat="49.97323" lon="2.08186">
        <ele>12.1</ele>
        <time>2022-04-12T11:38:55Z</time>
      </trkpt>
      <trkpt lat="49.97323" lon="2.08185">
        <ele>12.1</ele>
        <time>2022-04-12T11:38:56Z</time>
      </trkpt>
      <trkpt lat="49.97324" lon="2.08183">
        <ele>12.1</ele>
        <time>2022-04-12T11:38:57Z</time>
      </trkpt>
      <trkpt lat="49.97325" lon="2.08181">
        <ele>12.1</ele>
        <time>2022-04-12T11:38:59Z</time>
      </trkpt>
      <trkpt lat="49.97325" lon="2.08179">
        <ele>12.1</ele>
        <time>2022-04-12T11:39:00Z</time>
      </trkpt>
      <trkpt lat="49.97326" lon="2.08176">
        <ele>12.1</ele>
        <time>2022-04-12T11:39:01Z</time>
      </trkpt>
      <trkpt lat="49.97326" lon="2.08175">
        <ele>12.1</ele>
        <time>2022-04-12T11:39:02Z</time>
      </trkpt>
      <trkpt lat="49.97326" lon="2.08174">
        <ele>12.1</ele>
        <time>2022-04-12T11:39:03Z</time>
      </trkpt>
      <trkpt lat="49.97327" lon="2.08172">
        <ele>12.2</ele>
        <time>2022-04-12T11:39:04Z</time>
      </trkpt>
      <trkpt lat="49.97327" lon="2.0817">
        <ele>12.2</ele>
        <time>2022-04-12T11:39:05Z</time>
      </trkpt>
      <trkpt lat="49.97328" lon="2.08167">
        <ele>12.2</ele>
        <time>2022-04-12T11:39:07Z</time>
      </trkpt>
      <trkpt lat="49.97328" lon="2.08165">
        <ele>12.2</ele>
        <time>2022-04-12T11:39:08Z</time>
      </trkpt>
      <trkpt lat="49.97328" lon="2.08163">
        <ele>12.2</ele>
        <time>2022-04-12T11:39:09Z</time>
      </trkpt>
      <trkpt lat="49.97329" lon="2.08161">
        <ele>12.2</ele>
        <time>2022-04-12T11:39:10Z</time>
      </trkpt>
      <trkpt lat="49.97329" lon="2.08159">
        <ele>12.2</ele>
        <time>2022-04-12T11:39:11Z</time>
      </trkpt>
      <trkpt lat="49.9733" lon="2.08157">
        <ele>12.2</ele>
        <time>2022-04-12T11:39:12Z</time>
      </trkpt>
      <trkpt lat="49.9733" lon="2.08154">
        <ele>12.3</ele>
        <time>2022-04-12T11:39:13Z</time>
      </trkpt>
      <trkpt lat="49.97331" lon="2.08152">
        <ele>12.3</ele>
        <time>2022-04-12T11:39:15Z</time>
      </trkpt>
      <trkpt lat="49.97332" lon="2.08149">
        <ele>12.3</ele>
        <time>2022-04-12T11:39:16Z</time>
      </trkpt>
      <trkpt lat="49.97333" lon="2.08146">
        <ele>12.3</ele>
        <time>2022-04-12T11:39:17Z</time>
      </trkpt>
      <trkpt lat="49.97334" lon="2.08145">
        <ele>12.3</ele>
        <time>2022-04-12T11:39:18Z</time>
      </trkpt>
      <trkpt lat="49.97335" lon="2.08142">
        <ele>12.3</ele>
        <time>2022-04-12T11:39:19Z</time>
      </trkpt>
      <trkpt lat="49.97336" lon="2.08141">
        <ele>12.3</ele>
        <time>2022-04-12T11:39:20Z</time>
      </trkpt>
      <trkpt lat="49.97336" lon="2.08139">
        <ele>12.4</ele>
        <time>2022-04-12T11:39:21Z</time>
      </trkpt>
      <trkpt lat="49.97337" lon="2.08137">
        <ele>12.4</ele>
        <time>2022-04-12T11:39:22Z</time>
      </trkpt>
      <trkpt lat="49.97338" lon="2.08135">
        <ele>12.4</ele>
        <time>2022-04-12T11:39:23Z</time>
      </trkpt>
      <trkpt lat="49.9734" lon="2.08134">
        <ele>12.4</ele>
        <time>2022-04-12T11:39:25Z</time>
      </trkpt>
      <trkpt lat="49.97341" lon="2.08133">
        <ele>12.4</ele>
        <time>2022-04-12T11:39:26Z</time>
      </trkpt>
      <trkpt lat="49.97342" lon="2.08131">
        <ele>12.4</ele>
        <time>2022-04-12T11:39:27Z</time>
      </trkpt>
      <trkpt lat="49.97344" lon="2.08129">
        <ele>12.4</ele>
        <time>2022-04-12T11:39:28Z</time>
      </trkpt>
      <trkpt lat="49.97344" lon="2.08128">
        <ele>12.5</ele>
        <time>2022-04-12T11:39:29Z</time>
      </trkpt>
      <trkpt lat="49.97345" lon="2.08127">
        <ele>12.5</ele>
        <time>2022-04-12T11:39:30Z</time>
      </trkpt>
      <trkpt lat="49.97346" lon="2.08126">
        <ele>12.5</ele>
        <time>2022-04-12T11:39:31Z</time>
      </trkpt>
      <trkpt lat="49.97347" lon="2.08124">
        <ele>12.5</ele>
        <time>2022-04-12T11:39:32Z</time>
      </trkpt>
      <trkpt lat="49.97348" lon="2.08122">
        <ele>12.5</ele>
        <time>2022-04-12T11:39:33Z</time>
      </trkpt>
      <trkpt lat="49.97349" lon="2.08121">
        <ele>12.5</ele>
        <time>2022-04-12T11:39:35Z</time>
      </trkpt>
      <trkpt lat="49.9735" lon="2.0812">
        <ele>12.5</ele>
        <time>2022-04-12T11:39:36Z</time>
      </trkpt>
      <trkpt lat="49.97351" lon="2.08118">
        <ele>12.5</ele>
        <time>2022-04-12T11:39:37Z</time>
      </trkpt>
      <trkpt lat="49.97352" lon="2.08117">
        <ele>12.6</ele>
        <time>2022-04-12T11:39:38Z</time>
      </trkpt>
      <trkpt lat="49.97353" lon="2.08114">
        <ele>12.6</ele>
        <time>2022-04-12T11:39:39Z</time>
      </trkpt>
      <trkpt lat="49.97354" lon="2.08114">
        <ele>12.6</ele>
        <time>2022-04-12T11:39:40Z</time>
      </trkpt>
      <trkpt lat="49.97354" lon="2.08113">
        <ele>12.6</ele>
        <time>2022-04-12T11:39:41Z</time>
      </trkpt>
      <trkpt lat="49.97355" lon="2.08112">
        <ele>12.6</ele>
        <time>2022-04-12T11:39:42Z</time>
      </trkpt>
      <trkpt lat="49.97356" lon="2.08111">
        <ele>12.6</ele>
        <time>2022-04-12T11:39:43Z</time>
      </trkpt>
      <trkpt lat="49.97357" lon="2.0811">
        <ele>12.7</ele>
        <time>2022-04-12T11:39:44Z</time>
      </trkpt>
      <trkpt lat="49.97358" lon="2.08109">
        <ele>12.7</ele>
        <time>2022-04-12T11:39:46Z</time>
      </trkpt>
      <trkpt lat="49.97359" lon="2.08108">
        <ele>12.7</ele>
        <time>2022-04-12T11:39:47Z</time>
      </trkpt>
      <trkpt lat="49.9736" lon="2.08106">
        <ele>12.7</ele>
        <time>2022-04-12T11:39:48Z</time>
      </trkpt>
      <trkpt lat="49.97361" lon="2.08105">
        <ele>12.7</ele>
        <time>2022-04-12T11:39:49Z</time>
      </trkpt>
      <trkpt lat="49.97361" lon="2.08104">
        <ele>12.7</ele>
        <time>2022-04-12T11:39:50Z</time>
      </trkpt>
      <trkpt lat="49.97362" lon="2.08103">
        <ele>12.7</ele>
        <time>2022-04-12T11:39:51Z</time>
      </trkpt>
      <trkpt lat="49.97363" lon="2.08101">
        <ele>12.8</ele>
        <time>2022-04-12T11:39:52Z</time>
      </trkpt>
      <trkpt lat="49.97364" lon="2.081">
        <ele>12.8</ele>
        <time>2022-04-12T11:39:53Z</time>
      </trkpt>
      <trkpt lat="49.97365" lon="2.08099">
        <ele>12.8</ele>
        <time>2022-04-12T11:39:55Z</time>
      </trkpt>
      <trkpt lat="49.97365" lon="2.08098">
        <ele>12.8</ele>
        <time>2022-04-12T11:39:56Z</time>
      </trkpt>
      <trkpt lat="49.97366" lon="2.08097">
        <ele>12.8</ele>
        <time>2022-04-12T11:39:57Z</time>
      </trkpt>
      <trkpt lat="49.97366" lon="2.08095">
        <ele>12.8</ele>
        <time>2022-04-12T11:39:58Z</time>
      </trkpt>
      <trkpt lat="49.97366" lon="2.08094">
        <ele>12.8</ele>
        <time>2022-04-12T11:39:59Z</time>
      </trkpt>
      <trkpt lat="49.97367" lon="2.08092">
        <ele>12.8</ele>
        <time>2022-04-12T11:40:00Z</time>
      </trkpt>
      <trkpt lat="49.97367" lon="2.08091">
        <ele>12.9</ele>
        <time>2022-04-12T11:40:01Z</time>
      </trkpt>
      <trkpt lat="49.97368" lon="2.08089">
        <ele>12.9</ele>
        <time>2022-04-12T11:40:02Z</time>
      </trkpt>
      <trkpt lat="49.97369" lon="2.08086">
        <ele>12.9</ele>
        <time>2022-04-12T11:40:03Z</time>
      </trkpt>
      <trkpt lat="49.97369" lon="2.08085">
        <ele>12.9</ele>
        <time>2022-04-12T11:40:05Z</time>
      </trkpt>
      <trkpt lat="49.9737" lon="2.08084">
        <ele>12.9</ele>
        <time>2022-04-12T11:40:06Z</time>
      </trkpt>
      <trkpt lat="49.97371" lon="2.08081">
        <ele>12.9</ele>
        <time>2022-04-12T11:40:07Z</time>
      </trkpt>
      <trkpt lat="49.97371" lon="2.0808">
        <ele>12.9</ele>
        <time>2022-04-12T11:40:08Z</time>
      </trkpt>
      <trkpt lat="49.97371" lon="2.08079">
        <ele>12.9</ele>
        <time>2022-04-12T11:40:09Z</time>
      </trkpt>
      <trkpt lat="49.97372" lon="2.08076">
        <ele>13</ele>
        <time>2022-04-12T11:40:10Z</time>
      </trkpt>
      <trkpt lat="49.97372" lon="2.08074">
        <ele>13</ele>
        <time>2022-04-12T11:40:11Z</time>
      </trkpt>
      <trkpt lat="49.97373" lon="2.08073">
        <ele>13</ele>
        <time>2022-04-12T11:40:12Z</time>
      </trkpt>
      <trkpt lat="49.97373" lon="2.08071">
        <ele>13</ele>
        <time>2022-04-12T11:40:13Z</time>
      </trkpt>
      <trkpt lat="49.97374" lon="2.08069">
        <ele>13</ele>
        <time>2022-04-12T11:40:14Z</time>
      </trkpt>
      <trkpt lat="49.97374" lon="2.08068">
        <ele>13</ele>
        <time>2022-04-12T11:40:16Z</time>
      </trkpt>
      <trkpt lat="49.97374" lon="2.08066">
        <ele>13.1</ele>
        <time>2022-04-12T11:40:17Z</time>
      </trkpt>
      <trkpt lat="49.97375" lon="2.08064">
        <ele>13.1</ele>
        <time>2022-04-12T11:40:18Z</time>
      </trkpt>
      <trkpt lat="49.97375" lon="2.08062">
        <ele>13.1</ele>
        <time>2022-04-12T11:40:19Z</time>
      </trkpt>
      <trkpt lat="49.97376" lon="2.08061">
        <ele>13.1</ele>
        <time>2022-04-12T11:40:20Z</time>
      </trkpt>
      <trkpt lat="49.97376" lon="2.08059">
        <ele>13.1</ele>
        <time>2022-04-12T11:40:21Z</time>
      </trkpt>
      <trkpt lat="49.97376" lon="2.08056">
        <ele>13.2</ele>
        <time>2022-04-12T11:40:22Z</time>
      </trkpt>
      <trkpt lat="49.97376" lon="2.08055">
        <ele>13.2</ele>
        <time>2022-04-12T11:40:23Z</time>
      </trkpt>
      <trkpt lat="49.97377" lon="2.08054">
        <ele>13.2</ele>
        <time>2022-04-12T11:40:24Z</time>
      </trkpt>
      <trkpt lat="49.97377" lon="2.08052">
        <ele>13.2</ele>
        <time>2022-04-12T11:40:25Z</time>
      </trkpt>
      <trkpt lat="49.97377" lon="2.0805">
        <ele>13.2</ele>
        <time>2022-04-12T11:40:27Z</time>
      </trkpt>
      <trkpt lat="49.97377" lon="2.08048">
        <ele>13.3</ele>
        <time>2022-04-12T11:40:28Z</time>
      </trkpt>
      <trkpt lat="49.97378" lon="2.08045">
        <ele>13.3</ele>
        <time>2022-04-12T11:40:29Z</time>
      </trkpt>
      <trkpt lat="49.97379" lon="2.08044">
        <ele>13.3</ele>
        <time>2022-04-12T11:40:30Z</time>
      </trkpt>
      <trkpt lat="49.97379" lon="2.08043">
        <ele>13.3</ele>
        <time>2022-04-12T11:40:31Z</time>
      </trkpt>
      <trkpt lat="49.97379" lon="2.08041">
        <ele>13.3</ele>
        <time>2022-04-12T11:40:32Z</time>
      </trkpt>
      <trkpt lat="49.97379" lon="2.0804">
        <ele>13.4</ele>
        <time>2022-04-12T11:40:33Z</time>
      </trkpt>
      <trkpt lat="49.9738" lon="2.08038">
        <ele>13.4</ele>
        <time>2022-04-12T11:40:34Z</time>
      </trkpt>
      <trkpt lat="49.9738" lon="2.08035">
        <ele>13.4</ele>
        <time>2022-04-12T11:40:35Z</time>
      </trkpt>
      <trkpt lat="49.9738" lon="2.08033">
        <ele>13.4</ele>
        <time>2022-04-12T11:40:37Z</time>
      </trkpt>
      <trkpt lat="49.97381" lon="2.08032">
        <ele>13.4</ele>
        <time>2022-04-12T11:40:38Z</time>
      </trkpt>
      <trkpt lat="49.97381" lon="2.0803">
        <ele>13.4</ele>
        <time>2022-04-12T11:40:39Z</time>
      </trkpt>
      <trkpt lat="49.97381" lon="2.08029">
        <ele>13.5</ele>
        <time>2022-04-12T11:40:40Z</time>
      </trkpt>
      <trkpt lat="49.97381" lon="2.08027">
        <ele>13.5</ele>
        <time>2022-04-12T11:40:41Z</time>
      </trkpt>
      <trkpt lat="49.97381" lon="2.08024">
        <ele>13.5</ele>
        <time>2022-04-12T11:40:42Z</time>
      </trkpt>
      <trkpt lat="49.97381" lon="2.08023">
        <ele>13.5</ele>
        <time>2022-04-12T11:40:43Z</time>
      </trkpt>
      <trkpt lat="49.97382" lon="2.08021">
        <ele>13.5</ele>
        <time>2022-04-12T11:40:44Z</time>
      </trkpt>
      <trkpt lat="49.97382" lon="2.08018">
        <ele>13.6</ele>
        <time>2022-04-12T11:40:45Z</time>
      </trkpt>
      <trkpt lat="49.97383" lon="2.08017">
        <ele>13.6</ele>
        <time>2022-04-12T11:40:47Z</time>
      </trkpt>
      <trkpt lat="49.97383" lon="2.08016">
        <ele>13.6</ele>
        <time>2022-04-12T11:40:48Z</time>
      </trkpt>
      <trkpt lat="49.97383" lon="2.08015">
        <ele>13.6</ele>
        <time>2022-04-12T11:40:49Z</time>
      </trkpt>
      <trkpt lat="49.97384" lon="2.08013">
        <ele>13.6</ele>
        <time>2022-04-12T11:40:50Z</time>
      </trkpt>
      <trkpt lat="49.97384" lon="2.08011">
        <ele>13.6</ele>
        <time>2022-04-12T11:40:51Z</time>
      </trkpt>
      <trkpt lat="49.97384" lon="2.08008">
        <ele>13.7</ele>
        <time>2022-04-12T11:40:52Z</time>
      </trkpt>
      <trkpt lat="49.97384" lon="2.08007">
        <ele>13.7</ele>
        <time>2022-04-12T11:40:53Z</time>
      </trkpt>
      <trkpt lat="49.97385" lon="2.08005">
        <ele>13.7</ele>
        <time>2022-04-12T11:40:54Z</time>
      </trkpt>
      <trkpt lat="49.97385" lon="2.08003">
        <ele>13.7</ele>
        <time>2022-04-12T11:40:55Z</time>
      </trkpt>
      <trkpt lat="49.97386" lon="2.08001">
        <ele>13.7</ele>
        <time>2022-04-12T11:40:56Z</time>
      </trkpt>
      <trkpt lat="49.97386" lon="2.07998">
        <ele>13.8</ele>
        <time>2022-04-12T11:40:58Z</time>
      </trkpt>
      <trkpt lat="49.97387" lon="2.07997">
        <ele>13.8</ele>
        <time>2022-04-12T11:40:59Z</time>
      </trkpt>
      <trkpt lat="49.97387" lon="2.07996">
        <ele>13.8</ele>
        <time>2022-04-12T11:41:00Z</time>
      </trkpt>
      <trkpt lat="49.97388" lon="2.07994">
        <ele>13.8</ele>
        <time>2022-04-12T11:41:01Z</time>
      </trkpt>
      <trkpt lat="49.97388" lon="2.07993">
        <ele>13.8</ele>
        <time>2022-04-12T11:41:02Z</time>
      </trkpt>
      <trkpt lat="49.97389" lon="2.07991">
        <ele>13.9</ele>
        <time>2022-04-12T11:41:03Z</time>
      </trkpt>
      <trkpt lat="49.9739" lon="2.07988">
        <ele>13.9</ele>
        <time>2022-04-12T11:41:04Z</time>
      </trkpt>
      <trkpt lat="49.97391" lon="2.07987">
        <ele>13.9</ele>
        <time>2022-04-12T11:41:05Z</time>
      </trkpt>
      <trkpt lat="49.97391" lon="2.07986">
        <ele>13.9</ele>
        <time>2022-04-12T11:41:06Z</time>
      </trkpt>
      <trkpt lat="49.97392" lon="2.07983">
        <ele>13.9</ele>
        <time>2022-04-12T11:41:08Z</time>
      </trkpt>
      <trkpt lat="49.97392" lon="2.07982">
        <ele>13.9</ele>
        <time>2022-04-12T11:41:09Z</time>
      </trkpt>
      <trkpt lat="49.97393" lon="2.07981">
        <ele>14</ele>
        <time>2022-04-12T11:41:10Z</time>
      </trkpt>
      <trkpt lat="49.97394" lon="2.07978">
        <ele>14</ele>
        <time>2022-04-12T11:41:11Z</time>
      </trkpt>
      <trkpt lat="49.97395" lon="2.07977">
        <ele>14</ele>
        <time>2022-04-12T11:41:12Z</time>
      </trkpt>
      <trkpt lat="49.97395" lon="2.07976">
        <ele>14</ele>
        <time>2022-04-12T11:41:13Z</time>
      </trkpt>
      <trkpt lat="49.97396" lon="2.07973">
        <ele>14</ele>
        <time>2022-04-12T11:41:14Z</time>
      </trkpt>
      <trkpt lat="49.97397" lon="2.07972">
        <ele>14</ele>
        <time>2022-04-12T11:41:15Z</time>
      </trkpt>
      <trkpt lat="49.97397" lon="2.0797">
        <ele>14</ele>
        <time>2022-04-12T11:41:16Z</time>
      </trkpt>
      <trkpt lat="49.97398" lon="2.07969">
        <ele>14</ele>
        <time>2022-04-12T11:41:18Z</time>
      </trkpt>
      <trkpt lat="49.97398" lon="2.07967">
        <ele>14.1</ele>
        <time>2022-04-12T11:41:19Z</time>
      </trkpt>
      <trkpt lat="49.97399" lon="2.07966">
        <ele>14.1</ele>
        <time>2022-04-12T11:41:20Z</time>
      </trkpt>
      <trkpt lat="49.97399" lon="2.07964">
        <ele>14.1</ele>
        <time>2022-04-12T11:41:21Z</time>
      </trkpt>
      <trkpt lat="49.974" lon="2.07963">
        <ele>14.1</ele>
        <time>2022-04-12T11:41:22Z</time>
      </trkpt>
      <trkpt lat="49.97401" lon="2.07961">
        <ele>14.1</ele>
        <time>2022-04-12T11:41:23Z</time>
      </trkpt>
      <trkpt lat="49.97402" lon="2.07958">
        <ele>14.1</ele>
        <time>2022-04-12T11:41:24Z</time>
      </trkpt>
      <trkpt lat="49.97402" lon="2.07957">
        <ele>14.1</ele>
        <time>2022-04-12T11:41:25Z</time>
      </trkpt>
      <trkpt lat="49.97402" lon="2.07956">
        <ele>14.1</ele>
        <time>2022-04-12T11:41:26Z</time>
      </trkpt>
      <trkpt lat="49.97403" lon="2.07953">
        <ele>14.1</ele>
        <time>2022-04-12T11:41:27Z</time>
      </trkpt>
      <trkpt lat="49.97404" lon="2.07952">
        <ele>14.1</ele>
        <time>2022-04-12T11:41:29Z</time>
      </trkpt>
      <trkpt lat="49.97404" lon="2.0795">
        <ele>14.1</ele>
        <time>2022-04-12T11:41:30Z</time>
      </trkpt>
      <trkpt lat="49.97405" lon="2.07948">
        <ele>14.1</ele>
        <time>2022-04-12T11:41:31Z</time>
      </trkpt>
      <trkpt lat="49.97405" lon="2.07946">
        <ele>14.1</ele>
        <time>2022-04-12T11:41:32Z</time>
      </trkpt>
      <trkpt lat="49.97406" lon="2.07945">
        <ele>14.1</ele>
        <time>2022-04-12T11:41:33Z</time>
      </trkpt>
      <trkpt lat="49.97406" lon="2.07944">
        <ele>14.1</ele>
        <time>2022-04-12T11:41:34Z</time>
      </trkpt>
      <trkpt lat="49.97407" lon="2.07942">
        <ele>14.1</ele>
        <time>2022-04-12T11:41:35Z</time>
      </trkpt>
      <trkpt lat="49.97408" lon="2.07941">
        <ele>14.1</ele>
        <time>2022-04-12T11:41:36Z</time>
      </trkpt>
      <trkpt lat="49.97409" lon="2.07939">
        <ele>14.1</ele>
        <time>2022-04-12T11:41:38Z</time>
      </trkpt>
      <trkpt lat="49.97409" lon="2.07937">
        <ele>14.1</ele>
        <time>2022-04-12T11:41:39Z</time>
      </trkpt>
      <trkpt lat="49.9741" lon="2.07934">
        <ele>14.1</ele>
        <time>2022-04-12T11:41:40Z</time>
      </trkpt>
      <trkpt lat="49.9741" lon="2.07933">
        <ele>14.1</ele>
        <time>2022-04-12T11:41:41Z</time>
      </trkpt>
      <trkpt lat="49.97411" lon="2.07932">
        <ele>14.1</ele>
        <time>2022-04-12T11:41:42Z</time>
      </trkpt>
      <trkpt lat="49.97411" lon="2.0793">
        <ele>14.1</ele>
        <time>2022-04-12T11:41:43Z</time>
      </trkpt>
      <trkpt lat="49.97412" lon="2.07929">
        <ele>14.1</ele>
        <time>2022-04-12T11:41:44Z</time>
      </trkpt>
      <trkpt lat="49.97413" lon="2.07927">
        <ele>14.1</ele>
        <time>2022-04-12T11:41:46Z</time>
      </trkpt>
      <trkpt lat="49.97414" lon="2.07924">
        <ele>14.1</ele>
        <time>2022-04-12T11:41:47Z</time>
      </trkpt>
      <trkpt lat="49.97414" lon="2.07923">
        <ele>14.1</ele>
        <time>2022-04-12T11:41:48Z</time>
      </trkpt>
      <trkpt lat="49.97415" lon="2.07922">
        <ele>14.1</ele>
        <time>2022-04-12T11:41:49Z</time>
      </trkpt>
      <trkpt lat="49.97415" lon="2.0792">
        <ele>14.1</ele>
        <time>2022-04-12T11:41:50Z</time>
      </trkpt>
      <trkpt lat="49.97416" lon="2.07919">
        <ele>14.1</ele>
        <time>2022-04-12T11:41:51Z</time>
      </trkpt>
      <trkpt lat="49.97416" lon="2.07917">
        <ele>14.1</ele>
        <time>2022-04-12T11:41:52Z</time>
      </trkpt>
      <trkpt lat="49.97417" lon="2.07915">
        <ele>14.1</ele>
        <time>2022-04-12T11:41:53Z</time>
      </trkpt>
      <trkpt lat="49.97418" lon="2.07914">
        <ele>14.1</ele>
        <time>2022-04-12T11:41:54Z</time>
      </trkpt>
      <trkpt lat="49.97419" lon="2.07912">
        <ele>14.1</ele>
        <time>2022-04-12T11:41:56Z</time>
      </trkpt>
      <trkpt lat="49.97419" lon="2.07911">
        <ele>14.1</ele>
        <time>2022-04-12T11:41:57Z</time>
      </trkpt>
      <trkpt lat="49.9742" lon="2.07909">
        <ele>14.1</ele>
        <time>2022-04-12T11:41:58Z</time>
      </trkpt>
      <trkpt lat="49.97421" lon="2.07907">
        <ele>14.1</ele>
        <time>2022-04-12T11:41:59Z</time>
      </trkpt>
      <trkpt lat="49.97421" lon="2.07906">
        <ele>14.1</ele>
        <time>2022-04-12T11:42:00Z</time>
      </trkpt>
      <trkpt lat="49.97421" lon="2.07904">
        <ele>14.1</ele>
        <time>2022-04-12T11:42:01Z</time>
      </trkpt>
      <trkpt lat="49.97422" lon="2.07902">
        <ele>14.1</ele>
        <time>2022-04-12T11:42:03Z</time>
      </trkpt>
      <trkpt lat="49.97422" lon="2.07899">
        <ele>14.1</ele>
        <time>2022-04-12T11:42:04Z</time>
      </trkpt>
      <trkpt lat="49.97422" lon="2.07898">
        <ele>14.1</ele>
        <time>2022-04-12T11:42:05Z</time>
      </trkpt>
      <trkpt lat="49.97422" lon="2.07897">
        <ele>14.1</ele>
        <time>2022-04-12T11:42:06Z</time>
      </trkpt>
      <trkpt lat="49.97422" lon="2.07895">
        <ele>14.1</ele>
        <time>2022-04-12T11:42:07Z</time>
      </trkpt>
      <trkpt lat="49.97422" lon="2.07894">
        <ele>14.1</ele>
        <time>2022-04-12T11:42:08Z</time>
      </trkpt>
      <trkpt lat="49.97422" lon="2.07892">
        <ele>14.1</ele>
        <time>2022-04-12T11:42:09Z</time>
      </trkpt>
      <trkpt lat="49.97422" lon="2.0789">
        <ele>14</ele>
        <time>2022-04-12T11:42:10Z</time>
      </trkpt>
      <trkpt lat="49.97423" lon="2.07889">
        <ele>14</ele>
        <time>2022-04-12T11:42:11Z</time>
      </trkpt>
      <trkpt lat="49.97423" lon="2.07887">
        <ele>14</ele>
        <time>2022-04-12T11:42:12Z</time>
      </trkpt>
      <trkpt lat="49.97423" lon="2.07885">
        <ele>14</ele>
        <time>2022-04-12T11:42:13Z</time>
      </trkpt>
      <trkpt lat="49.97423" lon="2.07883">
        <ele>14</ele>
        <time>2022-04-12T11:42:14Z</time>
      </trkpt>
      <trkpt lat="49.97423" lon="2.07882">
        <ele>13.9</ele>
        <time>2022-04-12T11:42:15Z</time>
      </trkpt>
      <trkpt lat="49.97424" lon="2.0788">
        <ele>13.9</ele>
        <time>2022-04-12T11:42:16Z</time>
      </trkpt>
      <trkpt lat="49.97424" lon="2.07878">
        <ele>13.9</ele>
        <time>2022-04-12T11:42:17Z</time>
      </trkpt>
      <trkpt lat="49.97424" lon="2.07877">
        <ele>13.9</ele>
        <time>2022-04-12T11:42:19Z</time>
      </trkpt>
      <trkpt lat="49.97424" lon="2.07875">
        <ele>13.9</ele>
        <time>2022-04-12T11:42:20Z</time>
      </trkpt>
      <trkpt lat="49.97425" lon="2.07873">
        <ele>13.8</ele>
        <time>2022-04-12T11:42:21Z</time>
      </trkpt>
      <trkpt lat="49.97425" lon="2.07872">
        <ele>13.8</ele>
        <time>2022-04-12T11:42:22Z</time>
      </trkpt>
      <trkpt lat="49.97426" lon="2.0787">
        <ele>13.8</ele>
        <time>2022-04-12T11:42:24Z</time>
      </trkpt>
      <trkpt lat="49.97426" lon="2.07869">
        <ele>13.8</ele>
        <time>2022-04-12T11:42:25Z</time>
      </trkpt>
      <trkpt lat="49.97427" lon="2.07867">
        <ele>13.7</ele>
        <time>2022-04-12T11:42:26Z</time>
      </trkpt>
      <trkpt lat="49.97427" lon="2.07866">
        <ele>13.7</ele>
        <time>2022-04-12T11:42:27Z</time>
      </trkpt>
      <trkpt lat="49.97428" lon="2.07865">
        <ele>13.7</ele>
        <time>2022-04-12T11:42:28Z</time>
      </trkpt>
      <trkpt lat="49.97428" lon="2.07863">
        <ele>13.7</ele>
        <time>2022-04-12T11:42:29Z</time>
      </trkpt>
      <trkpt lat="49.97429" lon="2.07862">
        <ele>13.6</ele>
        <time>2022-04-12T11:42:30Z</time>
      </trkpt>
      <trkpt lat="49.97429" lon="2.0786">
        <ele>13.6</ele>
        <time>2022-04-12T11:42:31Z</time>
      </trkpt>
      <trkpt lat="49.9743" lon="2.07859">
        <ele>13.6</ele>
        <time>2022-04-12T11:42:32Z</time>
      </trkpt>
      <trkpt lat="49.97431" lon="2.07856">
        <ele>13.5</ele>
        <time>2022-04-12T11:42:34Z</time>
      </trkpt>
      <trkpt lat="49.97431" lon="2.07855">
        <ele>13.5</ele>
        <time>2022-04-12T11:42:35Z</time>
      </trkpt>
      <trkpt lat="49.97432" lon="2.07854">
        <ele>13.4</ele>
        <time>2022-04-12T11:42:36Z</time>
      </trkpt>
      <trkpt lat="49.97432" lon="2.07852">
        <ele>13.4</ele>
        <time>2022-04-12T11:42:37Z</time>
      </trkpt>
      <trkpt lat="49.97433" lon="2.07851">
        <ele>13.4</ele>
        <time>2022-04-12T11:42:38Z</time>
      </trkpt>
      <trkpt lat="49.97433" lon="2.07849">
        <ele>13.3</ele>
        <time>2022-04-12T11:42:39Z</time>
      </trkpt>
      <trkpt lat="49.97434" lon="2.07848">
        <ele>13.3</ele>
        <time>2022-04-12T11:42:40Z</time>
      </trkpt>
      <trkpt lat="49.97434" lon="2.07847">
        <ele>13.2</ele>
        <time>2022-04-12T11:42:41Z</time>
      </trkpt>
      <trkpt lat="49.97435" lon="2.07844">
        <ele>13.2</ele>
        <time>2022-04-12T11:42:42Z</time>
      </trkpt>
      <trkpt lat="49.97435" lon="2.07843">
        <ele>13.1</ele>
        <time>2022-04-12T11:42:44Z</time>
      </trkpt>
      <trkpt lat="49.97436" lon="2.0784">
        <ele>13</ele>
        <time>2022-04-12T11:42:45Z</time>
      </trkpt>
      <trkpt lat="49.97437" lon="2.07838">
        <ele>12.9</ele>
        <time>2022-04-12T11:42:46Z</time>
      </trkpt>
      <trkpt lat="49.97438" lon="2.07837">
        <ele>12.9</ele>
        <time>2022-04-12T11:42:47Z</time>
      </trkpt>
      <trkpt lat="49.97438" lon="2.07836">
        <ele>12.9</ele>
        <time>2022-04-12T11:42:48Z</time>
      </trkpt>
      <trkpt lat="49.97439" lon="2.07834">
        <ele>12.8</ele>
        <time>2022-04-12T11:42:49Z</time>
      </trkpt>
      <trkpt lat="49.9744" lon="2.07833">
        <ele>12.8</ele>
        <time>2022-04-12T11:42:50Z</time>
      </trkpt>
      <trkpt lat="49.97441" lon="2.07833">
        <ele>12.7</ele>
        <time>2022-04-12T11:42:52Z</time>
      </trkpt>
      <trkpt lat="49.97442" lon="2.07832">
        <ele>12.6</ele>
        <time>2022-04-12T11:42:53Z</time>
      </trkpt>
      <trkpt lat="49.97443" lon="2.07831">
        <ele>12.6</ele>
        <time>2022-04-12T11:42:54Z</time>
      </trkpt>
      <trkpt lat="49.97445" lon="2.0783">
        <ele>12.5</ele>
        <time>2022-04-12T11:42:55Z</time>
      </trkpt>
      <trkpt lat="49.97447" lon="2.07829">
        <ele>12.4</ele>
        <time>2022-04-12T11:42:57Z</time>
      </trkpt>
      <trkpt lat="49.97447" lon="2.07829">
        <ele>12.4</ele>
        <time>2022-04-12T11:42:58Z</time>
      </trkpt>
      <trkpt lat="49.97448" lon="2.07829">
        <ele>12.4</ele>
        <time>2022-04-12T11:42:59Z</time>
      </trkpt>
      <trkpt lat="49.97449" lon="2.07829">
        <ele>12.3</ele>
        <time>2022-04-12T11:43:00Z</time>
      </trkpt>
      <trkpt lat="49.9745" lon="2.07828">
        <ele>12.3</ele>
        <time>2022-04-12T11:43:01Z</time>
      </trkpt>
      <trkpt lat="49.97451" lon="2.07828">
        <ele>12.2</ele>
        <time>2022-04-12T11:43:02Z</time>
      </trkpt>
      <trkpt lat="49.97453" lon="2.07828">
        <ele>12.2</ele>
        <time>2022-04-12T11:43:03Z</time>
      </trkpt>
      <trkpt lat="49.97454" lon="2.07827">
        <ele>12.2</ele>
        <time>2022-04-12T11:43:04Z</time>
      </trkpt>
      <trkpt lat="49.97455" lon="2.07827">
        <ele>12.1</ele>
        <time>2022-04-12T11:43:05Z</time>
      </trkpt>
      <trkpt lat="49.97456" lon="2.07827">
        <ele>12.1</ele>
        <time>2022-04-12T11:43:07Z</time>
      </trkpt>
      <trkpt lat="49.97458" lon="2.07826">
        <ele>12</ele>
        <time>2022-04-12T11:43:08Z</time>
      </trkpt>
      <trkpt lat="49.9746" lon="2.07825">
        <ele>12</ele>
        <time>2022-04-12T11:43:10Z</time>
      </trkpt>
      <trkpt lat="49.97461" lon="2.07825">
        <ele>12</ele>
        <time>2022-04-12T11:43:11Z</time>
      </trkpt>
      <trkpt lat="49.97461" lon="2.07825">
        <ele>12</ele>
        <time>2022-04-12T11:43:12Z</time>
      </trkpt>
      <trkpt lat="49.97462" lon="2.07825">
        <ele>11.9</ele>
        <time>2022-04-12T11:43:13Z</time>
      </trkpt>
      <trkpt lat="49.97463" lon="2.07825">
        <ele>11.9</ele>
        <time>2022-04-12T11:43:14Z</time>
      </trkpt>
      <trkpt lat="49.97464" lon="2.07825">
        <ele>11.9</ele>
        <time>2022-04-12T11:43:15Z</time>
      </trkpt>
      <trkpt lat="49.97465" lon="2.07826">
        <ele>11.9</ele>
        <time>2022-04-12T11:43:16Z</time>
      </trkpt>
      <trkpt lat="49.97465" lon="2.07826">
        <ele>11.9</ele>
        <time>2022-04-12T11:43:17Z</time>
      </trkpt>
      <trkpt lat="49.97466" lon="2.07826">
        <ele>11.9</ele>
        <time>2022-04-12T11:43:18Z</time>
      </trkpt>
      <trkpt lat="49.97467" lon="2.07826">
        <ele>11.9</ele>
        <time>2022-04-12T11:43:19Z</time>
      </trkpt>
      <trkpt lat="49.97468" lon="2.07825">
        <ele>11.9</ele>
        <time>2022-04-12T11:43:20Z</time>
      </trkpt>
      <trkpt lat="49.97469" lon="2.07825">
        <ele>11.9</ele>
        <time>2022-04-12T11:43:22Z</time>
      </trkpt>
      <trkpt lat="49.9747" lon="2.07825">
        <ele>11.9</ele>
        <time>2022-04-12T11:43:23Z</time>
      </trkpt>
      <trkpt lat="49.97472" lon="2.07824">
        <ele>11.9</ele>
        <time>2022-04-12T11:43:24Z</time>
      </trkpt>
      <trkpt lat="49.97473" lon="2.07823">
        <ele>11.9</ele>
        <time>2022-04-12T11:43:25Z</time>
      </trkpt>
      <trkpt lat="49.97474" lon="2.07823">
        <ele>11.8</ele>
        <time>2022-04-12T11:43:26Z</time>
      </trkpt>
      <trkpt lat="49.97474" lon="2.07822">
        <ele>11.8</ele>
        <time>2022-04-12T11:43:27Z</time>
      </trkpt>
      <trkpt lat="49.97476" lon="2.07821">
        <ele>11.8</ele>
        <time>2022-04-12T11:43:29Z</time>
      </trkpt>
      <trkpt lat="49.97477" lon="2.07821">
        <ele>11.8</ele>
        <time>2022-04-12T11:43:30Z</time>
      </trkpt>
      <trkpt lat="49.97478" lon="2.0782">
        <ele>11.8</ele>
        <time>2022-04-12T11:43:31Z</time>
      </trkpt>
      <trkpt lat="49.97479" lon="2.07819">
        <ele>11.8</ele>
        <time>2022-04-12T11:43:32Z</time>
      </trkpt>
      <trkpt lat="49.9748" lon="2.07819">
        <ele>11.8</ele>
        <time>2022-04-12T11:43:33Z</time>
      </trkpt>
      <trkpt lat="49.9748" lon="2.07818">
        <ele>11.8</ele>
        <time>2022-04-12T11:43:34Z</time>
      </trkpt>
      <trkpt lat="49.97481" lon="2.07817">
        <ele>11.9</ele>
        <time>2022-04-12T11:43:35Z</time>
      </trkpt>
      <trkpt lat="49.97482" lon="2.07816">
        <ele>11.9</ele>
        <time>2022-04-12T11:43:36Z</time>
      </trkpt>
      <trkpt lat="49.97482" lon="2.07815">
        <ele>11.9</ele>
        <time>2022-04-12T11:43:38Z</time>
      </trkpt>
      <trkpt lat="49.97483" lon="2.07814">
        <ele>11.9</ele>
        <time>2022-04-12T11:43:39Z</time>
      </trkpt>
      <trkpt lat="49.97483" lon="2.07813">
        <ele>11.9</ele>
        <time>2022-04-12T11:43:40Z</time>
      </trkpt>
      <trkpt lat="49.97484" lon="2.07812">
        <ele>11.9</ele>
        <time>2022-04-12T11:43:41Z</time>
      </trkpt>
      <trkpt lat="49.97485" lon="2.07812">
        <ele>11.9</ele>
        <time>2022-04-12T11:43:42Z</time>
      </trkpt>
      <trkpt lat="49.97485" lon="2.07812">
        <ele>11.9</ele>
        <time>2022-04-12T11:43:43Z</time>
      </trkpt>
      <trkpt lat="49.97486" lon="2.07812">
        <ele>11.9</ele>
        <time>2022-04-12T11:43:44Z</time>
      </trkpt>
      <trkpt lat="49.97486" lon="2.07813">
        <ele>11.9</ele>
        <time>2022-04-12T11:43:45Z</time>
      </trkpt>
      <trkpt lat="49.97486" lon="2.07814">
        <ele>11.9</ele>
        <time>2022-04-12T11:43:46Z</time>
      </trkpt>
      <trkpt lat="49.97486" lon="2.07814">
        <ele>11.9</ele>
        <time>2022-04-12T11:43:47Z</time>
      </trkpt>
      <trkpt lat="49.97486" lon="2.07814">
        <ele>11.9</ele>
        <time>2022-04-12T11:43:48Z</time>
      </trkpt>
      <trkpt lat="49.97486" lon="2.07814">
        <ele>11.9</ele>
        <time>2022-04-12T11:43:49Z</time>
      </trkpt>
      <trkpt lat="49.97486" lon="2.07814">
        <ele>11.9</ele>
        <time>2022-04-12T11:43:50Z</time>
      </trkpt>
      <trkpt lat="49.97486" lon="2.07814">
        <ele>11.9</ele>
        <time>2022-04-12T11:43:51Z</time>
      </trkpt>
      <trkpt lat="49.97486" lon="2.07814">
        <ele>11.9</ele>
        <time>2022-04-12T11:43:52Z</time>
      </trkpt>
      <trkpt lat="49.97486" lon="2.07814">
        <ele>11.9</ele>
        <time>2022-04-12T11:43:53Z</time>
      </trkpt>
      <trkpt lat="49.97486" lon="2.07814">
        <ele>11.9</ele>
        <time>2022-04-12T11:43:54Z</time>
      </trkpt>
      <trkpt lat="49.97486" lon="2.07814">
        <ele>11.9</ele>
        <time>2022-04-12T11:43:55Z</time>
      </trkpt>
      <trkpt lat="49.97486" lon="2.07814">
        <ele>11.9</ele>
        <time>2022-04-12T11:43:56Z</time>
      </trkpt>
      <trkpt lat="49.97486" lon="2.07814">
        <ele>11.9</ele>
        <time>2022-04-12T11:43:57Z</time>
      </trkpt>
      <trkpt lat="49.97486" lon="2.07814">
        <ele>11.9</ele>
        <time>2022-04-12T11:43:58Z</time>
      </trkpt>
      <trkpt lat="49.97486" lon="2.07814">
        <ele>11.9</ele>
        <time>2022-04-12T11:43:59Z</time>
      </trkpt>
      <trkpt lat="49.97486" lon="2.07814">
        <ele>11.9</ele>
        <time>2022-04-12T11:44:00Z</time>
      </trkpt>
      <trkpt lat="49.97485" lon="2.07813">
        <ele>11.9</ele>
        <time>2022-04-12T11:44:01Z</time>
      </trkpt>
      <trkpt lat="49.97485" lon="2.07813">
        <ele>11.9</ele>
        <time>2022-04-12T11:44:02Z</time>
      </trkpt>
      <trkpt lat="49.97485" lon="2.07813">
        <ele>11.9</ele>
        <time>2022-04-12T11:44:03Z</time>
      </trkpt>
      <trkpt lat="49.97485" lon="2.07813">
        <ele>11.9</ele>
        <time>2022-04-12T11:44:04Z</time>
      </trkpt>
      <trkpt lat="49.97485" lon="2.07813">
        <ele>11.9</ele>
        <time>2022-04-12T11:44:05Z</time>
      </trkpt>
      <trkpt lat="49.97485" lon="2.07813">
        <ele>11.9</ele>
        <time>2022-04-12T11:44:06Z</time>
      </trkpt>
      <trkpt lat="49.97485" lon="2.07813">
        <ele>11.9</ele>
        <time>2022-04-12T11:44:07Z</time>
      </trkpt>
      <trkpt lat="49.97485" lon="2.07813">
        <ele>11.9</ele>
        <time>2022-04-12T11:44:08Z</time>
      </trkpt>
      <trkpt lat="49.97485" lon="2.07813">
        <ele>11.9</ele>
        <time>2022-04-12T11:44:09Z</time>
      </trkpt>
      <trkpt lat="49.97484" lon="2.07814">
        <ele>11.9</ele>
        <time>2022-04-12T11:44:10Z</time>
      </trkpt>
      <trkpt lat="49.97482" lon="2.07815">
        <ele>11.9</ele>
        <time>2022-04-12T11:44:11Z</time>
      </trkpt>
      <trkpt lat="49.97484" lon="2.07814">
        <ele>11.9</ele>
        <time>2022-04-12T11:44:12Z</time>
      </trkpt>
      <trkpt lat="49.97485" lon="2.07814">
        <ele>11.9</ele>
        <time>2022-04-12T11:44:13Z</time>
      </trkpt>
      <trkpt lat="49.97485" lon="2.07813">
        <ele>11.9</ele>
        <time>2022-04-12T11:44:14Z</time>
      </trkpt>
      <trkpt lat="49.97485" lon="2.07813">
        <ele>11.9</ele>
        <time>2022-04-12T11:44:15Z</time>
      </trkpt>
      <trkpt lat="49.97485" lon="2.07812">
        <ele>11.9</ele>
        <time>2022-04-12T11:44:16Z</time>
      </trkpt>
      <trkpt lat="49.97485" lon="2.07811">
        <ele>11.9</ele>
        <time>2022-04-12T11:44:17Z</time>
      </trkpt>
      <trkpt lat="49.97486" lon="2.07809">
        <ele>11.9</ele>
        <time>2022-04-12T11:44:18Z</time>
      </trkpt>
      <trkpt lat="49.97486" lon="2.07807">
        <ele>11.9</ele>
        <time>2022-04-12T11:44:19Z</time>
      </trkpt>
      <trkpt lat="49.97485" lon="2.07805">
        <ele>11.9</ele>
        <time>2022-04-12T11:44:20Z</time>
      </trkpt>
      <trkpt lat="49.97486" lon="2.07802">
        <ele>11.9</ele>
        <time>2022-04-12T11:44:22Z</time>
      </trkpt>
      <trkpt lat="49.97486" lon="2.07801">
        <ele>11.9</ele>
        <time>2022-04-12T11:44:23Z</time>
      </trkpt>
      <trkpt lat="49.97486" lon="2.078">
        <ele>11.9</ele>
        <time>2022-04-12T11:44:24Z</time>
      </trkpt>
      <trkpt lat="49.97487" lon="2.07798">
        <ele>11.9</ele>
        <time>2022-04-12T11:44:25Z</time>
      </trkpt>
      <trkpt lat="49.97488" lon="2.07797">
        <ele>11.9</ele>
        <time>2022-04-12T11:44:27Z</time>
      </trkpt>
      <trkpt lat="49.97489" lon="2.07795">
        <ele>11.9</ele>
        <time>2022-04-12T11:44:28Z</time>
      </trkpt>
      <trkpt lat="49.97491" lon="2.07794">
        <ele>11.8</ele>
        <time>2022-04-12T11:44:29Z</time>
      </trkpt>
      <trkpt lat="49.97492" lon="2.07792">
        <ele>11.8</ele>
        <time>2022-04-12T11:44:30Z</time>
      </trkpt>
      <trkpt lat="49.97493" lon="2.07791">
        <ele>11.8</ele>
        <time>2022-04-12T11:44:31Z</time>
      </trkpt>
      <trkpt lat="49.97494" lon="2.0779">
        <ele>11.8</ele>
        <time>2022-04-12T11:44:32Z</time>
      </trkpt>
      <trkpt lat="49.97496" lon="2.07789">
        <ele>11.8</ele>
        <time>2022-04-12T11:44:33Z</time>
      </trkpt>
      <trkpt lat="49.97497" lon="2.07788">
        <ele>11.8</ele>
        <time>2022-04-12T11:44:34Z</time>
      </trkpt>
      <trkpt lat="49.97498" lon="2.07787">
        <ele>11.8</ele>
        <time>2022-04-12T11:44:36Z</time>
      </trkpt>
      <trkpt lat="49.97499" lon="2.07786">
        <ele>11.7</ele>
        <time>2022-04-12T11:44:37Z</time>
      </trkpt>
      <trkpt lat="49.97499" lon="2.07785">
        <ele>11.7</ele>
        <time>2022-04-12T11:44:38Z</time>
      </trkpt>
      <trkpt lat="49.975" lon="2.07784">
        <ele>11.7</ele>
        <time>2022-04-12T11:44:39Z</time>
      </trkpt>
      <trkpt lat="49.97501" lon="2.07783">
        <ele>11.7</ele>
        <time>2022-04-12T11:44:40Z</time>
      </trkpt>
      <trkpt lat="49.97502" lon="2.07783">
        <ele>11.7</ele>
        <time>2022-04-12T11:44:41Z</time>
      </trkpt>
      <trkpt lat="49.97504" lon="2.07782">
        <ele>11.7</ele>
        <time>2022-04-12T11:44:42Z</time>
      </trkpt>
      <trkpt lat="49.97505" lon="2.07782">
        <ele>11.7</ele>
        <time>2022-04-12T11:44:44Z</time>
      </trkpt>
      <trkpt lat="49.97506" lon="2.07781">
        <ele>11.7</ele>
        <time>2022-04-12T11:44:45Z</time>
      </trkpt>
      <trkpt lat="49.97507" lon="2.07779">
        <ele>11.7</ele>
        <time>2022-04-12T11:44:46Z</time>
      </trkpt>
      <trkpt lat="49.97508" lon="2.07778">
        <ele>11.6</ele>
        <time>2022-04-12T11:44:47Z</time>
      </trkpt>
      <trkpt lat="49.97509" lon="2.07778">
        <ele>11.6</ele>
        <time>2022-04-12T11:44:48Z</time>
      </trkpt>
      <trkpt lat="49.97511" lon="2.07776">
        <ele>11.6</ele>
        <time>2022-04-12T11:44:49Z</time>
      </trkpt>
      <trkpt lat="49.97511" lon="2.07775">
        <ele>11.6</ele>
        <time>2022-04-12T11:44:50Z</time>
      </trkpt>
      <trkpt lat="49.97512" lon="2.07774">
        <ele>11.6</ele>
        <time>2022-04-12T11:44:51Z</time>
      </trkpt>
      <trkpt lat="49.97514" lon="2.07772">
        <ele>11.6</ele>
        <time>2022-04-12T11:44:53Z</time>
      </trkpt>
      <trkpt lat="49.97514" lon="2.07771">
        <ele>11.6</ele>
        <time>2022-04-12T11:44:54Z</time>
      </trkpt>
      <trkpt lat="49.97515" lon="2.0777">
        <ele>11.6</ele>
        <time>2022-04-12T11:44:55Z</time>
      </trkpt>
      <trkpt lat="49.97516" lon="2.07769">
        <ele>11.5</ele>
        <time>2022-04-12T11:44:56Z</time>
      </trkpt>
      <trkpt lat="49.97518" lon="2.07768">
        <ele>11.5</ele>
        <time>2022-04-12T11:44:57Z</time>
      </trkpt>
      <trkpt lat="49.97519" lon="2.07767">
        <ele>11.5</ele>
        <time>2022-04-12T11:44:58Z</time>
      </trkpt>
      <trkpt lat="49.9752" lon="2.07766">
        <ele>11.5</ele>
        <time>2022-04-12T11:44:59Z</time>
      </trkpt>
      <trkpt lat="49.97521" lon="2.07764">
        <ele>11.5</ele>
        <time>2022-04-12T11:45:00Z</time>
      </trkpt>
      <trkpt lat="49.97522" lon="2.07762">
        <ele>11.4</ele>
        <time>2022-04-12T11:45:01Z</time>
      </trkpt>
      <trkpt lat="49.97523" lon="2.0776">
        <ele>11.4</ele>
        <time>2022-04-12T11:45:03Z</time>
      </trkpt>
      <trkpt lat="49.97524" lon="2.07758">
        <ele>11.4</ele>
        <time>2022-04-12T11:45:04Z</time>
      </trkpt>
      <trkpt lat="49.97525" lon="2.07757">
        <ele>11.4</ele>
        <time>2022-04-12T11:45:05Z</time>
      </trkpt>
      <trkpt lat="49.97526" lon="2.07755">
        <ele>11.3</ele>
        <time>2022-04-12T11:45:06Z</time>
      </trkpt>
      <trkpt lat="49.97527" lon="2.07754">
        <ele>11.3</ele>
        <time>2022-04-12T11:45:08Z</time>
      </trkpt>
      <trkpt lat="49.97528" lon="2.07753">
        <ele>11.3</ele>
        <time>2022-04-12T11:45:09Z</time>
      </trkpt>
      <trkpt lat="49.9753" lon="2.0775">
        <ele>11.3</ele>
        <time>2022-04-12T11:45:10Z</time>
      </trkpt>
      <trkpt lat="49.9753" lon="2.07749">
        <ele>11.3</ele>
        <time>2022-04-12T11:45:11Z</time>
      </trkpt>
      <trkpt lat="49.97531" lon="2.07748">
        <ele>11.3</ele>
        <time>2022-04-12T11:45:12Z</time>
      </trkpt>
      <trkpt lat="49.97532" lon="2.07747">
        <ele>11.3</ele>
        <time>2022-04-12T11:45:13Z</time>
      </trkpt>
      <trkpt lat="49.97533" lon="2.07746">
        <ele>11.3</ele>
        <time>2022-04-12T11:45:14Z</time>
      </trkpt>
      <trkpt lat="49.97534" lon="2.07745">
        <ele>11.3</ele>
        <time>2022-04-12T11:45:15Z</time>
      </trkpt>
      <trkpt lat="49.97535" lon="2.07743">
        <ele>11.3</ele>
        <time>2022-04-12T11:45:16Z</time>
      </trkpt>
      <trkpt lat="49.97535" lon="2.07742">
        <ele>11.3</ele>
        <time>2022-04-12T11:45:17Z</time>
      </trkpt>
      <trkpt lat="49.97537" lon="2.07739">
        <ele>11.2</ele>
        <time>2022-04-12T11:45:19Z</time>
      </trkpt>
      <trkpt lat="49.97538" lon="2.07738">
        <ele>11.2</ele>
        <time>2022-04-12T11:45:20Z</time>
      </trkpt>
      <trkpt lat="49.97538" lon="2.07737">
        <ele>11.2</ele>
        <time>2022-04-12T11:45:21Z</time>
      </trkpt>
      <trkpt lat="49.9754" lon="2.07735">
        <ele>11.2</ele>
        <time>2022-04-12T11:45:22Z</time>
      </trkpt>
      <trkpt lat="49.9754" lon="2.07734">
        <ele>11.2</ele>
        <time>2022-04-12T11:45:23Z</time>
      </trkpt>
      <trkpt lat="49.97541" lon="2.07732">
        <ele>11.2</ele>
        <time>2022-04-12T11:45:24Z</time>
      </trkpt>
      <trkpt lat="49.97542" lon="2.07731">
        <ele>11.2</ele>
        <time>2022-04-12T11:45:25Z</time>
      </trkpt>
      <trkpt lat="49.97543" lon="2.07729">
        <ele>11.2</ele>
        <time>2022-04-12T11:45:26Z</time>
      </trkpt>
      <trkpt lat="49.97544" lon="2.07727">
        <ele>11.2</ele>
        <time>2022-04-12T11:45:27Z</time>
      </trkpt>
      <trkpt lat="49.97545" lon="2.07726">
        <ele>11.2</ele>
        <time>2022-04-12T11:45:29Z</time>
      </trkpt>
      <trkpt lat="49.97545" lon="2.07725">
        <ele>11.2</ele>
        <time>2022-04-12T11:45:30Z</time>
      </trkpt>
      <trkpt lat="49.97546" lon="2.07723">
        <ele>11.2</ele>
        <time>2022-04-12T11:45:31Z</time>
      </trkpt>
      <trkpt lat="49.97547" lon="2.07722">
        <ele>11.2</ele>
        <time>2022-04-12T11:45:32Z</time>
      </trkpt>
      <trkpt lat="49.97548" lon="2.0772">
        <ele>11.2</ele>
        <time>2022-04-12T11:45:34Z</time>
      </trkpt>
      <trkpt lat="49.97549" lon="2.07721">
        <ele>11.2</ele>
        <time>2022-04-12T11:45:35Z</time>
      </trkpt>
      <trkpt lat="49.9755" lon="2.07721">
        <ele>11.2</ele>
        <time>2022-04-12T11:45:36Z</time>
      </trkpt>
      <trkpt lat="49.9755" lon="2.07721">
        <ele>11.2</ele>
        <time>2022-04-12T11:45:37Z</time>
      </trkpt>
      <trkpt lat="49.97551" lon="2.07722">
        <ele>11.2</ele>
        <time>2022-04-12T11:45:38Z</time>
      </trkpt>
      <trkpt lat="49.97551" lon="2.07722">
        <ele>11.2</ele>
        <time>2022-04-12T11:45:39Z</time>
      </trkpt>
      <trkpt lat="49.97551" lon="2.07722">
        <ele>11.2</ele>
        <time>2022-04-12T11:45:40Z</time>
      </trkpt>
      <trkpt lat="49.97551" lon="2.07722">
        <ele>11.2</ele>
        <time>2022-04-12T11:45:41Z</time>
      </trkpt>
      <trkpt lat="49.97551" lon="2.07722">
        <ele>11.2</ele>
        <time>2022-04-12T11:45:42Z</time>
      </trkpt>
      <trkpt lat="49.97551" lon="2.07722">
        <ele>11.2</ele>
        <time>2022-04-12T11:45:43Z</time>
      </trkpt>
      <trkpt lat="49.97551" lon="2.07721">
        <ele>11.2</ele>
        <time>2022-04-12T11:45:44Z</time>
      </trkpt>
      <trkpt lat="49.97551" lon="2.07721">
        <ele>11.2</ele>
        <time>2022-04-12T11:45:45Z</time>
      </trkpt>
      <trkpt lat="49.97552" lon="2.0772">
        <ele>11.2</ele>
        <time>2022-04-12T11:45:46Z</time>
      </trkpt>
      <trkpt lat="49.97552" lon="2.07719">
        <ele>11.2</ele>
        <time>2022-04-12T11:45:48Z</time>
      </trkpt>
      <trkpt lat="49.97553" lon="2.07718">
        <ele>11.2</ele>
        <time>2022-04-12T11:45:49Z</time>
      </trkpt>
      <trkpt lat="49.97553" lon="2.07717">
        <ele>11.2</ele>
        <time>2022-04-12T11:45:50Z</time>
      </trkpt>
      <trkpt lat="49.97554" lon="2.07715">
        <ele>11.2</ele>
        <time>2022-04-12T11:45:51Z</time>
      </trkpt>
      <trkpt lat="49.97555" lon="2.07714">
        <ele>11.2</ele>
        <time>2022-04-12T11:45:53Z</time>
      </trkpt>
      <trkpt lat="49.97556" lon="2.07712">
        <ele>11.2</ele>
        <time>2022-04-12T11:45:54Z</time>
      </trkpt>
      <trkpt lat="49.97556" lon="2.07711">
        <ele>11.2</ele>
        <time>2022-04-12T11:45:55Z</time>
      </trkpt>
      <trkpt lat="49.97557" lon="2.0771">
        <ele>11.2</ele>
        <time>2022-04-12T11:45:56Z</time>
      </trkpt>
      <trkpt lat="49.97557" lon="2.07709">
        <ele>11.2</ele>
        <time>2022-04-12T11:45:57Z</time>
      </trkpt>
      <trkpt lat="49.97557" lon="2.07707">
        <ele>11.2</ele>
        <time>2022-04-12T11:45:58Z</time>
      </trkpt>
      <trkpt lat="49.97558" lon="2.07706">
        <ele>11.2</ele>
        <time>2022-04-12T11:45:59Z</time>
      </trkpt>
      <trkpt lat="49.97558" lon="2.07705">
        <ele>11.2</ele>
        <time>2022-04-12T11:46:00Z</time>
      </trkpt>
      <trkpt lat="49.97558" lon="2.07704">
        <ele>11.2</ele>
        <time>2022-04-12T11:46:01Z</time>
      </trkpt>
      <trkpt lat="49.97559" lon="2.07703">
        <ele>11.2</ele>
        <time>2022-04-12T11:46:02Z</time>
      </trkpt>
      <trkpt lat="49.97559" lon="2.07701">
        <ele>11.2</ele>
        <time>2022-04-12T11:46:03Z</time>
      </trkpt>
      <trkpt lat="49.9756" lon="2.07699">
        <ele>11.2</ele>
        <time>2022-04-12T11:46:05Z</time>
      </trkpt>
      <trkpt lat="49.97561" lon="2.07697">
        <ele>11.2</ele>
        <time>2022-04-12T11:46:06Z</time>
      </trkpt>
      <trkpt lat="49.97561" lon="2.07695">
        <ele>11.2</ele>
        <time>2022-04-12T11:46:07Z</time>
      </trkpt>
      <trkpt lat="49.97562" lon="2.07693">
        <ele>11.2</ele>
        <time>2022-04-12T11:46:08Z</time>
      </trkpt>
      <trkpt lat="49.97563" lon="2.0769">
        <ele>11.3</ele>
        <time>2022-04-12T11:46:09Z</time>
      </trkpt>
      <trkpt lat="49.97564" lon="2.07689">
        <ele>11.3</ele>
        <time>2022-04-12T11:46:11Z</time>
      </trkpt>
      <trkpt lat="49.97565" lon="2.07688">
        <ele>11.3</ele>
        <time>2022-04-12T11:46:12Z</time>
      </trkpt>
      <trkpt lat="49.97565" lon="2.07686">
        <ele>11.3</ele>
        <time>2022-04-12T11:46:13Z</time>
      </trkpt>
      <trkpt lat="49.97566" lon="2.07685">
        <ele>11.3</ele>
        <time>2022-04-12T11:46:14Z</time>
      </trkpt>
      <trkpt lat="49.97567" lon="2.07682">
        <ele>11.3</ele>
        <time>2022-04-12T11:46:15Z</time>
      </trkpt>
      <trkpt lat="49.97568" lon="2.07681">
        <ele>11.3</ele>
        <time>2022-04-12T11:46:16Z</time>
      </trkpt>
      <trkpt lat="49.97568" lon="2.0768">
        <ele>11.3</ele>
        <time>2022-04-12T11:46:17Z</time>
      </trkpt>
      <trkpt lat="49.97569" lon="2.07679">
        <ele>11.3</ele>
        <time>2022-04-12T11:46:18Z</time>
      </trkpt>
      <trkpt lat="49.9757" lon="2.07677">
        <ele>11.3</ele>
        <time>2022-04-12T11:46:20Z</time>
      </trkpt>
      <trkpt lat="49.97571" lon="2.07676">
        <ele>11.3</ele>
        <time>2022-04-12T11:46:21Z</time>
      </trkpt>
      <trkpt lat="49.97571" lon="2.07674">
        <ele>11.3</ele>
        <time>2022-04-12T11:46:22Z</time>
      </trkpt>
      <trkpt lat="49.97572" lon="2.07673">
        <ele>11.2</ele>
        <time>2022-04-12T11:46:23Z</time>
      </trkpt>
      <trkpt lat="49.97573" lon="2.07671">
        <ele>11.2</ele>
        <time>2022-04-12T11:46:24Z</time>
      </trkpt>
      <trkpt lat="49.97574" lon="2.07669">
        <ele>11.2</ele>
        <time>2022-04-12T11:46:25Z</time>
      </trkpt>
      <trkpt lat="49.97575" lon="2.07668">
        <ele>11.2</ele>
        <time>2022-04-12T11:46:26Z</time>
      </trkpt>
      <trkpt lat="49.97575" lon="2.07667">
        <ele>11.2</ele>
        <time>2022-04-12T11:46:27Z</time>
      </trkpt>
      <trkpt lat="49.97576" lon="2.07665">
        <ele>11.2</ele>
        <time>2022-04-12T11:46:28Z</time>
      </trkpt>
      <trkpt lat="49.97577" lon="2.07664">
        <ele>11.2</ele>
        <time>2022-04-12T11:46:29Z</time>
      </trkpt>
      <trkpt lat="49.97578" lon="2.07663">
        <ele>11.2</ele>
        <time>2022-04-12T11:46:31Z</time>
      </trkpt>
      <trkpt lat="49.97579" lon="2.07661">
        <ele>11.2</ele>
        <time>2022-04-12T11:46:32Z</time>
      </trkpt>
      <trkpt lat="49.97579" lon="2.0766">
        <ele>11.2</ele>
        <time>2022-04-12T11:46:33Z</time>
      </trkpt>
      <trkpt lat="49.9758" lon="2.07659">
        <ele>11.2</ele>
        <time>2022-04-12T11:46:34Z</time>
      </trkpt>
      <trkpt lat="49.97581" lon="2.07658">
        <ele>11.2</ele>
        <time>2022-04-12T11:46:35Z</time>
      </trkpt>
      <trkpt lat="49.97582" lon="2.07657">
        <ele>11.2</ele>
        <time>2022-04-12T11:46:36Z</time>
      </trkpt>
      <trkpt lat="49.97583" lon="2.07656">
        <ele>11.2</ele>
        <time>2022-04-12T11:46:37Z</time>
      </trkpt>
      <trkpt lat="49.97584" lon="2.07654">
        <ele>11.1</ele>
        <time>2022-04-12T11:46:38Z</time>
      </trkpt>
      <trkpt lat="49.97585" lon="2.07653">
        <ele>11.1</ele>
        <time>2022-04-12T11:46:39Z</time>
      </trkpt>
      <trkpt lat="49.97585" lon="2.07652">
        <ele>11.1</ele>
        <time>2022-04-12T11:46:40Z</time>
      </trkpt>
      <trkpt lat="49.97586" lon="2.07651">
        <ele>11.1</ele>
        <time>2022-04-12T11:46:42Z</time>
      </trkpt>
      <trkpt lat="49.97587" lon="2.07649">
        <ele>11.1</ele>
        <time>2022-04-12T11:46:43Z</time>
      </trkpt>
      <trkpt lat="49.97588" lon="2.07648">
        <ele>11.1</ele>
        <time>2022-04-12T11:46:44Z</time>
      </trkpt>
      <trkpt lat="49.97589" lon="2.07645">
        <ele>11.1</ele>
        <time>2022-04-12T11:46:45Z</time>
      </trkpt>
      <trkpt lat="49.9759" lon="2.07644">
        <ele>11.1</ele>
        <time>2022-04-12T11:46:46Z</time>
      </trkpt>
      <trkpt lat="49.9759" lon="2.07643">
        <ele>11.1</ele>
        <time>2022-04-12T11:46:47Z</time>
      </trkpt>
      <trkpt lat="49.97591" lon="2.07641">
        <ele>11.1</ele>
        <time>2022-04-12T11:46:48Z</time>
      </trkpt>
      <trkpt lat="49.97592" lon="2.0764">
        <ele>11.1</ele>
        <time>2022-04-12T11:46:49Z</time>
      </trkpt>
      <trkpt lat="49.97593" lon="2.07639">
        <ele>11.1</ele>
        <time>2022-04-12T11:46:50Z</time>
      </trkpt>
      <trkpt lat="49.97594" lon="2.07637">
        <ele>11.1</ele>
        <time>2022-04-12T11:46:52Z</time>
      </trkpt>
      <trkpt lat="49.97594" lon="2.07636">
        <ele>11.1</ele>
        <time>2022-04-12T11:46:53Z</time>
      </trkpt>
      <trkpt lat="49.97595" lon="2.07635">
        <ele>11</ele>
        <time>2022-04-12T11:46:54Z</time>
      </trkpt>
      <trkpt lat="49.97596" lon="2.07633">
        <ele>11</ele>
        <time>2022-04-12T11:46:55Z</time>
      </trkpt>
      <trkpt lat="49.97597" lon="2.07631">
        <ele>11</ele>
        <time>2022-04-12T11:46:56Z</time>
      </trkpt>
      <trkpt lat="49.97598" lon="2.07629">
        <ele>11</ele>
        <time>2022-04-12T11:46:57Z</time>
      </trkpt>
      <trkpt lat="49.97599" lon="2.07628">
        <ele>11</ele>
        <time>2022-04-12T11:46:58Z</time>
      </trkpt>
      <trkpt lat="49.976" lon="2.07628">
        <ele>11</ele>
        <time>2022-04-12T11:46:59Z</time>
      </trkpt>
      <trkpt lat="49.976" lon="2.07626">
        <ele>11</ele>
        <time>2022-04-12T11:47:00Z</time>
      </trkpt>
      <trkpt lat="49.97602" lon="2.07624">
        <ele>11</ele>
        <time>2022-04-12T11:47:01Z</time>
      </trkpt>
      <trkpt lat="49.97603" lon="2.07623">
        <ele>11</ele>
        <time>2022-04-12T11:47:03Z</time>
      </trkpt>
      <trkpt lat="49.97604" lon="2.07621">
        <ele>11</ele>
        <time>2022-04-12T11:47:04Z</time>
      </trkpt>
      <trkpt lat="49.97605" lon="2.0762">
        <ele>11</ele>
        <time>2022-04-12T11:47:05Z</time>
      </trkpt>
      <trkpt lat="49.97606" lon="2.07618">
        <ele>11</ele>
        <time>2022-04-12T11:47:06Z</time>
      </trkpt>
      <trkpt lat="49.97607" lon="2.07616">
        <ele>11</ele>
        <time>2022-04-12T11:47:07Z</time>
      </trkpt>
      <trkpt lat="49.97608" lon="2.07615">
        <ele>11</ele>
        <time>2022-04-12T11:47:08Z</time>
      </trkpt>
      <trkpt lat="49.97609" lon="2.07613">
        <ele>11</ele>
        <time>2022-04-12T11:47:10Z</time>
      </trkpt>
      <trkpt lat="49.9761" lon="2.07611">
        <ele>11</ele>
        <time>2022-04-12T11:47:11Z</time>
      </trkpt>
      <trkpt lat="49.97611" lon="2.07609">
        <ele>11</ele>
        <time>2022-04-12T11:47:12Z</time>
      </trkpt>
      <trkpt lat="49.97612" lon="2.07608">
        <ele>11</ele>
        <time>2022-04-12T11:47:13Z</time>
      </trkpt>
      <trkpt lat="49.97613" lon="2.07606">
        <ele>11</ele>
        <time>2022-04-12T11:47:14Z</time>
      </trkpt>
      <trkpt lat="49.97614" lon="2.07605">
        <ele>11</ele>
        <time>2022-04-12T11:47:16Z</time>
      </trkpt>
      <trkpt lat="49.97615" lon="2.07603">
        <ele>11</ele>
        <time>2022-04-12T11:47:17Z</time>
      </trkpt>
      <trkpt lat="49.97615" lon="2.07602">
        <ele>11</ele>
        <time>2022-04-12T11:47:18Z</time>
      </trkpt>
      <trkpt lat="49.97616" lon="2.07601">
        <ele>11</ele>
        <time>2022-04-12T11:47:19Z</time>
      </trkpt>
      <trkpt lat="49.97617" lon="2.07599">
        <ele>11</ele>
        <time>2022-04-12T11:47:20Z</time>
      </trkpt>
      <trkpt lat="49.97618" lon="2.07598">
        <ele>11</ele>
        <time>2022-04-12T11:47:21Z</time>
      </trkpt>
      <trkpt lat="49.97618" lon="2.07597">
        <ele>11</ele>
        <time>2022-04-12T11:47:22Z</time>
      </trkpt>
      <trkpt lat="49.97619" lon="2.07596">
        <ele>11</ele>
        <time>2022-04-12T11:47:23Z</time>
      </trkpt>
      <trkpt lat="49.97621" lon="2.07594">
        <ele>11.1</ele>
        <time>2022-04-12T11:47:24Z</time>
      </trkpt>
      <trkpt lat="49.97622" lon="2.07593">
        <ele>11.1</ele>
        <time>2022-04-12T11:47:25Z</time>
      </trkpt>
      <trkpt lat="49.97622" lon="2.07592">
        <ele>11.1</ele>
        <time>2022-04-12T11:47:26Z</time>
      </trkpt>
      <trkpt lat="49.97623" lon="2.07591">
        <ele>11.1</ele>
        <time>2022-04-12T11:47:28Z</time>
      </trkpt>
      <trkpt lat="49.97624" lon="2.07591">
        <ele>11.1</ele>
        <time>2022-04-12T11:47:29Z</time>
      </trkpt>
      <trkpt lat="49.97625" lon="2.0759">
        <ele>11.1</ele>
        <time>2022-04-12T11:47:30Z</time>
      </trkpt>
      <trkpt lat="49.97626" lon="2.07589">
        <ele>11.1</ele>
        <time>2022-04-12T11:47:31Z</time>
      </trkpt>
      <trkpt lat="49.97627" lon="2.07588">
        <ele>11.1</ele>
        <time>2022-04-12T11:47:32Z</time>
      </trkpt>
      <trkpt lat="49.97628" lon="2.07587">
        <ele>11.1</ele>
        <time>2022-04-12T11:47:33Z</time>
      </trkpt>
      <trkpt lat="49.97629" lon="2.07586">
        <ele>11.1</ele>
        <time>2022-04-12T11:47:34Z</time>
      </trkpt>
      <trkpt lat="49.9763" lon="2.07585">
        <ele>11.1</ele>
        <time>2022-04-12T11:47:35Z</time>
      </trkpt>
      <trkpt lat="49.97631" lon="2.07584">
        <ele>11.1</ele>
        <time>2022-04-12T11:47:36Z</time>
      </trkpt>
      <trkpt lat="49.97632" lon="2.07583">
        <ele>11.2</ele>
        <time>2022-04-12T11:47:37Z</time>
      </trkpt>
      <trkpt lat="49.97633" lon="2.07581">
        <ele>11.2</ele>
        <time>2022-04-12T11:47:39Z</time>
      </trkpt>
      <trkpt lat="49.97634" lon="2.0758">
        <ele>11.2</ele>
        <time>2022-04-12T11:47:40Z</time>
      </trkpt>
      <trkpt lat="49.97635" lon="2.07579">
        <ele>11.2</ele>
        <time>2022-04-12T11:47:41Z</time>
      </trkpt>
      <trkpt lat="49.97636" lon="2.07578">
        <ele>11.2</ele>
        <time>2022-04-12T11:47:42Z</time>
      </trkpt>
      <trkpt lat="49.97638" lon="2.07576">
        <ele>11.2</ele>
        <time>2022-04-12T11:47:43Z</time>
      </trkpt>
      <trkpt lat="49.97638" lon="2.07575">
        <ele>11.2</ele>
        <time>2022-04-12T11:47:44Z</time>
      </trkpt>
      <trkpt lat="49.97639" lon="2.07574">
        <ele>11.2</ele>
        <time>2022-04-12T11:47:45Z</time>
      </trkpt>
      <trkpt lat="49.9764" lon="2.07572">
        <ele>11.2</ele>
        <time>2022-04-12T11:47:46Z</time>
      </trkpt>
      <trkpt lat="49.97641" lon="2.07571">
        <ele>11.2</ele>
        <time>2022-04-12T11:47:47Z</time>
      </trkpt>
      <trkpt lat="49.97641" lon="2.0757">
        <ele>11.2</ele>
        <time>2022-04-12T11:47:48Z</time>
      </trkpt>
      <trkpt lat="49.97642" lon="2.07568">
        <ele>11.2</ele>
        <time>2022-04-12T11:47:49Z</time>
      </trkpt>
      <trkpt lat="49.97643" lon="2.07567">
        <ele>11.3</ele>
        <time>2022-04-12T11:47:51Z</time>
      </trkpt>
      <trkpt lat="49.97643" lon="2.07565">
        <ele>11.3</ele>
        <time>2022-04-12T11:47:52Z</time>
      </trkpt>
      <trkpt lat="49.97644" lon="2.07562">
        <ele>11.3</ele>
        <time>2022-04-12T11:47:53Z</time>
      </trkpt>
      <trkpt lat="49.97645" lon="2.07561">
        <ele>11.3</ele>
        <time>2022-04-12T11:47:54Z</time>
      </trkpt>
      <trkpt lat="49.97645" lon="2.0756">
        <ele>11.3</ele>
        <time>2022-04-12T11:47:55Z</time>
      </trkpt>
      <trkpt lat="49.97646" lon="2.07559">
        <ele>11.3</ele>
        <time>2022-04-12T11:47:56Z</time>
      </trkpt>
      <trkpt lat="49.97646" lon="2.07557">
        <ele>11.4</ele>
        <time>2022-04-12T11:47:57Z</time>
      </trkpt>
      <trkpt lat="49.97647" lon="2.07555">
        <ele>11.4</ele>
        <time>2022-04-12T11:47:58Z</time>
      </trkpt>
      <trkpt lat="49.97648" lon="2.07553">
        <ele>11.4</ele>
        <time>2022-04-12T11:47:59Z</time>
      </trkpt>
      <trkpt lat="49.97649" lon="2.07552">
        <ele>11.4</ele>
        <time>2022-04-12T11:48:01Z</time>
      </trkpt>
      <trkpt lat="49.97649" lon="2.07551">
        <ele>11.4</ele>
        <time>2022-04-12T11:48:02Z</time>
      </trkpt>
      <trkpt lat="49.9765" lon="2.07548">
        <ele>11.4</ele>
        <time>2022-04-12T11:48:03Z</time>
      </trkpt>
      <trkpt lat="49.97651" lon="2.07547">
        <ele>11.5</ele>
        <time>2022-04-12T11:48:04Z</time>
      </trkpt>
      <trkpt lat="49.97651" lon="2.07546">
        <ele>11.5</ele>
        <time>2022-04-12T11:48:05Z</time>
      </trkpt>
      <trkpt lat="49.97653" lon="2.07544">
        <ele>11.5</ele>
        <time>2022-04-12T11:48:06Z</time>
      </trkpt>
      <trkpt lat="49.97653" lon="2.07543">
        <ele>11.5</ele>
        <time>2022-04-12T11:48:07Z</time>
      </trkpt>
      <trkpt lat="49.97654" lon="2.07542">
        <ele>11.5</ele>
        <time>2022-04-12T11:48:08Z</time>
      </trkpt>
      <trkpt lat="49.97654" lon="2.07541">
        <ele>11.5</ele>
        <time>2022-04-12T11:48:10Z</time>
      </trkpt>
      <trkpt lat="49.97655" lon="2.07539">
        <ele>11.6</ele>
        <time>2022-04-12T11:48:11Z</time>
      </trkpt>
      <trkpt lat="49.97655" lon="2.07538">
        <ele>11.6</ele>
        <time>2022-04-12T11:48:12Z</time>
      </trkpt>
      <trkpt lat="49.97656" lon="2.07536">
        <ele>11.6</ele>
        <time>2022-04-12T11:48:13Z</time>
      </trkpt>
      <trkpt lat="49.97656" lon="2.07535">
        <ele>11.6</ele>
        <time>2022-04-12T11:48:14Z</time>
      </trkpt>
      <trkpt lat="49.97657" lon="2.07534">
        <ele>11.6</ele>
        <time>2022-04-12T11:48:15Z</time>
      </trkpt>
      <trkpt lat="49.97657" lon="2.07532">
        <ele>11.6</ele>
        <time>2022-04-12T11:48:16Z</time>
      </trkpt>
      <trkpt lat="49.97657" lon="2.07531">
        <ele>11.7</ele>
        <time>2022-04-12T11:48:17Z</time>
      </trkpt>
      <trkpt lat="49.97658" lon="2.07529">
        <ele>11.7</ele>
        <time>2022-04-12T11:48:18Z</time>
      </trkpt>
      <trkpt lat="49.97658" lon="2.07527">
        <ele>11.7</ele>
        <time>2022-04-12T11:48:20Z</time>
      </trkpt>
      <trkpt lat="49.97659" lon="2.07525">
        <ele>11.7</ele>
        <time>2022-04-12T11:48:21Z</time>
      </trkpt>
      <trkpt lat="49.97659" lon="2.07524">
        <ele>11.8</ele>
        <time>2022-04-12T11:48:22Z</time>
      </trkpt>
      <trkpt lat="49.9766" lon="2.07521">
        <ele>11.8</ele>
        <time>2022-04-12T11:48:23Z</time>
      </trkpt>
      <trkpt lat="49.9766" lon="2.0752">
        <ele>11.8</ele>
        <time>2022-04-12T11:48:24Z</time>
      </trkpt>
      <trkpt lat="49.97661" lon="2.07519">
        <ele>11.8</ele>
        <time>2022-04-12T11:48:25Z</time>
      </trkpt>
      <trkpt lat="49.97662" lon="2.07516">
        <ele>11.9</ele>
        <time>2022-04-12T11:48:26Z</time>
      </trkpt>
      <trkpt lat="49.97662" lon="2.07515">
        <ele>11.9</ele>
        <time>2022-04-12T11:48:27Z</time>
      </trkpt>
      <trkpt lat="49.97663" lon="2.07514">
        <ele>11.9</ele>
        <time>2022-04-12T11:48:28Z</time>
      </trkpt>
      <trkpt lat="49.97664" lon="2.07512">
        <ele>11.9</ele>
        <time>2022-04-12T11:48:29Z</time>
      </trkpt>
      <trkpt lat="49.97664" lon="2.07511">
        <ele>12</ele>
        <time>2022-04-12T11:48:30Z</time>
      </trkpt>
      <trkpt lat="49.97665" lon="2.07509">
        <ele>12</ele>
        <time>2022-04-12T11:48:32Z</time>
      </trkpt>
      <trkpt lat="49.97666" lon="2.07508">
        <ele>12</ele>
        <time>2022-04-12T11:48:33Z</time>
      </trkpt>
      <trkpt lat="49.97666" lon="2.07507">
        <ele>12.1</ele>
        <time>2022-04-12T11:48:34Z</time>
      </trkpt>
      <trkpt lat="49.97667" lon="2.07505">
        <ele>12.1</ele>
        <time>2022-04-12T11:48:35Z</time>
      </trkpt>
      <trkpt lat="49.97668" lon="2.07502">
        <ele>12.1</ele>
        <time>2022-04-12T11:48:36Z</time>
      </trkpt>
      <trkpt lat="49.97668" lon="2.07501">
        <ele>12.1</ele>
        <time>2022-04-12T11:48:37Z</time>
      </trkpt>
      <trkpt lat="49.97668" lon="2.075">
        <ele>12.2</ele>
        <time>2022-04-12T11:48:38Z</time>
      </trkpt>
      <trkpt lat="49.97669" lon="2.07497">
        <ele>12.2</ele>
        <time>2022-04-12T11:48:39Z</time>
      </trkpt>
      <trkpt lat="49.9767" lon="2.07495">
        <ele>12.2</ele>
        <time>2022-04-12T11:48:40Z</time>
      </trkpt>
      <trkpt lat="49.9767" lon="2.07494">
        <ele>12.3</ele>
        <time>2022-04-12T11:48:41Z</time>
      </trkpt>
      <trkpt lat="49.97671" lon="2.07491">
        <ele>12.3</ele>
        <time>2022-04-12T11:48:43Z</time>
      </trkpt>
      <trkpt lat="49.97671" lon="2.0749">
        <ele>12.3</ele>
        <time>2022-04-12T11:48:44Z</time>
      </trkpt>
      <trkpt lat="49.97672" lon="2.07489">
        <ele>12.4</ele>
        <time>2022-04-12T11:48:45Z</time>
      </trkpt>
      <trkpt lat="49.97672" lon="2.07487">
        <ele>12.4</ele>
        <time>2022-04-12T11:48:46Z</time>
      </trkpt>
      <trkpt lat="49.97673" lon="2.07485">
        <ele>12.4</ele>
        <time>2022-04-12T11:48:47Z</time>
      </trkpt>
      <trkpt lat="49.97673" lon="2.07484">
        <ele>12.5</ele>
        <time>2022-04-12T11:48:48Z</time>
      </trkpt>
      <trkpt lat="49.97674" lon="2.07482">
        <ele>12.5</ele>
        <time>2022-04-12T11:48:50Z</time>
      </trkpt>
      <trkpt lat="49.97674" lon="2.07481">
        <ele>12.5</ele>
        <time>2022-04-12T11:48:51Z</time>
      </trkpt>
      <trkpt lat="49.97674" lon="2.07479">
        <ele>12.5</ele>
        <time>2022-04-12T11:48:52Z</time>
      </trkpt>
      <trkpt lat="49.97673" lon="2.07476">
        <ele>12.6</ele>
        <time>2022-04-12T11:48:53Z</time>
      </trkpt>
      <trkpt lat="49.97673" lon="2.07475">
        <ele>12.6</ele>
        <time>2022-04-12T11:48:54Z</time>
      </trkpt>
      <trkpt lat="49.97673" lon="2.07474">
        <ele>12.7</ele>
        <time>2022-04-12T11:48:55Z</time>
      </trkpt>
      <trkpt lat="49.97672" lon="2.07472">
        <ele>12.7</ele>
        <time>2022-04-12T11:48:57Z</time>
      </trkpt>
      <trkpt lat="49.97671" lon="2.0747">
        <ele>12.7</ele>
        <time>2022-04-12T11:48:58Z</time>
      </trkpt>
      <trkpt lat="49.97671" lon="2.07468">
        <ele>12.8</ele>
        <time>2022-04-12T11:48:59Z</time>
      </trkpt>
      <trkpt lat="49.9767" lon="2.07466">
        <ele>12.8</ele>
        <time>2022-04-12T11:49:00Z</time>
      </trkpt>
      <trkpt lat="49.97669" lon="2.07464">
        <ele>12.9</ele>
        <time>2022-04-12T11:49:01Z</time>
      </trkpt>
      <trkpt lat="49.97668" lon="2.07462">
        <ele>12.9</ele>
        <time>2022-04-12T11:49:03Z</time>
      </trkpt>
      <trkpt lat="49.97667" lon="2.07461">
        <ele>13</ele>
        <time>2022-04-12T11:49:04Z</time>
      </trkpt>
      <trkpt lat="49.97666" lon="2.07459">
        <ele>13</ele>
        <time>2022-04-12T11:49:05Z</time>
      </trkpt>
      <trkpt lat="49.97665" lon="2.07458">
        <ele>13.1</ele>
        <time>2022-04-12T11:49:06Z</time>
      </trkpt>
      <trkpt lat="49.97664" lon="2.07457">
        <ele>13.1</ele>
        <time>2022-04-12T11:49:07Z</time>
      </trkpt>
      <trkpt lat="49.97663" lon="2.07456">
        <ele>13.1</ele>
        <time>2022-04-12T11:49:08Z</time>
      </trkpt>
      <trkpt lat="49.97662" lon="2.07455">
        <ele>13.2</ele>
        <time>2022-04-12T11:49:09Z</time>
      </trkpt>
      <trkpt lat="49.97661" lon="2.07453">
        <ele>13.2</ele>
        <time>2022-04-12T11:49:10Z</time>
      </trkpt>
      <trkpt lat="49.97659" lon="2.07451">
        <ele>13.3</ele>
        <time>2022-04-12T11:49:12Z</time>
      </trkpt>
      <trkpt lat="49.97658" lon="2.0745">
        <ele>13.3</ele>
        <time>2022-04-12T11:49:13Z</time>
      </trkpt>
      <trkpt lat="49.97657" lon="2.07449">
        <ele>13.4</ele>
        <time>2022-04-12T11:49:14Z</time>
      </trkpt>
      <trkpt lat="49.97656" lon="2.07448">
        <ele>13.4</ele>
        <time>2022-04-12T11:49:15Z</time>
      </trkpt>
      <trkpt lat="49.97655" lon="2.07446">
        <ele>13.4</ele>
        <time>2022-04-12T11:49:16Z</time>
      </trkpt>
      <trkpt lat="49.97654" lon="2.07445">
        <ele>13.5</ele>
        <time>2022-04-12T11:49:17Z</time>
      </trkpt>
      <trkpt lat="49.97652" lon="2.07443">
        <ele>13.5</ele>
        <time>2022-04-12T11:49:18Z</time>
      </trkpt>
      <trkpt lat="49.97651" lon="2.07442">
        <ele>13.6</ele>
        <time>2022-04-12T11:49:20Z</time>
      </trkpt>
      <trkpt lat="49.9765" lon="2.07441">
        <ele>13.6</ele>
        <time>2022-04-12T11:49:21Z</time>
      </trkpt>
      <trkpt lat="49.97649" lon="2.07441">
        <ele>13.6</ele>
        <time>2022-04-12T11:49:22Z</time>
      </trkpt>
      <trkpt lat="49.97648" lon="2.0744">
        <ele>13.6</ele>
        <time>2022-04-12T11:49:23Z</time>
      </trkpt>
      <trkpt lat="49.97647" lon="2.07439">
        <ele>13.6</ele>
        <time>2022-04-12T11:49:24Z</time>
      </trkpt>
      <trkpt lat="49.97646" lon="2.07437">
        <ele>13.7</ele>
        <time>2022-04-12T11:49:25Z</time>
      </trkpt>
      <trkpt lat="49.97645" lon="2.07436">
        <ele>13.7</ele>
        <time>2022-04-12T11:49:27Z</time>
      </trkpt>
      <trkpt lat="49.97643" lon="2.07435">
        <ele>13.7</ele>
        <time>2022-04-12T11:49:28Z</time>
      </trkpt>
      <trkpt lat="49.97642" lon="2.07434">
        <ele>13.7</ele>
        <time>2022-04-12T11:49:29Z</time>
      </trkpt>
      <trkpt lat="49.97641" lon="2.07433">
        <ele>13.7</ele>
        <time>2022-04-12T11:49:30Z</time>
      </trkpt>
      <trkpt lat="49.9764" lon="2.07432">
        <ele>13.7</ele>
        <time>2022-04-12T11:49:32Z</time>
      </trkpt>
      <trkpt lat="49.97639" lon="2.07432">
        <ele>13.8</ele>
        <time>2022-04-12T11:49:33Z</time>
      </trkpt>
      <trkpt lat="49.97638" lon="2.07431">
        <ele>13.8</ele>
        <time>2022-04-12T11:49:34Z</time>
      </trkpt>
      <trkpt lat="49.97636" lon="2.0743">
        <ele>13.8</ele>
        <time>2022-04-12T11:49:35Z</time>
      </trkpt>
      <trkpt lat="49.97636" lon="2.07429">
        <ele>13.8</ele>
        <time>2022-04-12T11:49:36Z</time>
      </trkpt>
      <trkpt lat="49.97635" lon="2.07429">
        <ele>13.8</ele>
        <time>2022-04-12T11:49:37Z</time>
      </trkpt>
      <trkpt lat="49.97634" lon="2.07427">
        <ele>13.8</ele>
        <time>2022-04-12T11:49:38Z</time>
      </trkpt>
      <trkpt lat="49.97633" lon="2.07426">
        <ele>13.8</ele>
        <time>2022-04-12T11:49:40Z</time>
      </trkpt>
      <trkpt lat="49.97632" lon="2.07425">
        <ele>13.8</ele>
        <time>2022-04-12T11:49:41Z</time>
      </trkpt>
      <trkpt lat="49.97631" lon="2.07424">
        <ele>13.8</ele>
        <time>2022-04-12T11:49:42Z</time>
      </trkpt>
      <trkpt lat="49.9763" lon="2.07423">
        <ele>13.8</ele>
        <time>2022-04-12T11:49:43Z</time>
      </trkpt>
      <trkpt lat="49.97629" lon="2.07422">
        <ele>13.8</ele>
        <time>2022-04-12T11:49:44Z</time>
      </trkpt>
      <trkpt lat="49.97628" lon="2.0742">
        <ele>13.8</ele>
        <time>2022-04-12T11:49:45Z</time>
      </trkpt>
      <trkpt lat="49.97627" lon="2.07419">
        <ele>13.8</ele>
        <time>2022-04-12T11:49:46Z</time>
      </trkpt>
      <trkpt lat="49.97627" lon="2.07418">
        <ele>13.8</ele>
        <time>2022-04-12T11:49:47Z</time>
      </trkpt>
      <trkpt lat="49.97626" lon="2.07417">
        <ele>13.8</ele>
        <time>2022-04-12T11:49:49Z</time>
      </trkpt>
      <trkpt lat="49.97625" lon="2.07416">
        <ele>13.9</ele>
        <time>2022-04-12T11:49:50Z</time>
      </trkpt>
      <trkpt lat="49.97624" lon="2.07415">
        <ele>13.9</ele>
        <time>2022-04-12T11:49:51Z</time>
      </trkpt>
      <trkpt lat="49.97623" lon="2.07414">
        <ele>13.9</ele>
        <time>2022-04-12T11:49:52Z</time>
      </trkpt>
      <trkpt lat="49.97622" lon="2.07413">
        <ele>13.9</ele>
        <time>2022-04-12T11:49:53Z</time>
      </trkpt>
      <trkpt lat="49.97621" lon="2.07412">
        <ele>13.9</ele>
        <time>2022-04-12T11:49:54Z</time>
      </trkpt>
      <trkpt lat="49.97619" lon="2.0741">
        <ele>13.9</ele>
        <time>2022-04-12T11:49:55Z</time>
      </trkpt>
      <trkpt lat="49.97619" lon="2.07409">
        <ele>13.9</ele>
        <time>2022-04-12T11:49:56Z</time>
      </trkpt>
      <trkpt lat="49.97618" lon="2.07408">
        <ele>13.9</ele>
        <time>2022-04-12T11:49:57Z</time>
      </trkpt>
      <trkpt lat="49.97616" lon="2.07406">
        <ele>13.9</ele>
        <time>2022-04-12T11:49:59Z</time>
      </trkpt>
      <trkpt lat="49.97616" lon="2.07406">
        <ele>13.9</ele>
        <time>2022-04-12T11:50:00Z</time>
      </trkpt>
      <trkpt lat="49.97615" lon="2.07405">
        <ele>13.9</ele>
        <time>2022-04-12T11:50:01Z</time>
      </trkpt>
      <trkpt lat="49.97613" lon="2.07403">
        <ele>14</ele>
        <time>2022-04-12T11:50:02Z</time>
      </trkpt>
      <trkpt lat="49.97612" lon="2.07402">
        <ele>14</ele>
        <time>2022-04-12T11:50:03Z</time>
      </trkpt>
      <trkpt lat="49.97612" lon="2.07401">
        <ele>14</ele>
        <time>2022-04-12T11:50:04Z</time>
      </trkpt>
      <trkpt lat="49.97611" lon="2.074">
        <ele>14</ele>
        <time>2022-04-12T11:50:05Z</time>
      </trkpt>
      <trkpt lat="49.9761" lon="2.07399">
        <ele>14</ele>
        <time>2022-04-12T11:50:06Z</time>
      </trkpt>
      <trkpt lat="49.97609" lon="2.07398">
        <ele>14.1</ele>
        <time>2022-04-12T11:50:08Z</time>
      </trkpt>
      <trkpt lat="49.97607" lon="2.07396">
        <ele>14.1</ele>
        <time>2022-04-12T11:50:09Z</time>
      </trkpt>
      <trkpt lat="49.97607" lon="2.07395">
        <ele>14.1</ele>
        <time>2022-04-12T11:50:10Z</time>
      </trkpt>
      <trkpt lat="49.97606" lon="2.07394">
        <ele>14.1</ele>
        <time>2022-04-12T11:50:11Z</time>
      </trkpt>
      <trkpt lat="49.97604" lon="2.07392">
        <ele>14.1</ele>
        <time>2022-04-12T11:50:12Z</time>
      </trkpt>
      <trkpt lat="49.97604" lon="2.07391">
        <ele>14.2</ele>
        <time>2022-04-12T11:50:13Z</time>
      </trkpt>
      <trkpt lat="49.97603" lon="2.0739">
        <ele>14.2</ele>
        <time>2022-04-12T11:50:14Z</time>
      </trkpt>
      <trkpt lat="49.97601" lon="2.07388">
        <ele>14.2</ele>
        <time>2022-04-12T11:50:16Z</time>
      </trkpt>
      <trkpt lat="49.97601" lon="2.07388">
        <ele>14.2</ele>
        <time>2022-04-12T11:50:17Z</time>
      </trkpt>
      <trkpt lat="49.976" lon="2.07387">
        <ele>14.2</ele>
        <time>2022-04-12T11:50:18Z</time>
      </trkpt>
      <trkpt lat="49.97599" lon="2.07386">
        <ele>14.2</ele>
        <time>2022-04-12T11:50:19Z</time>
      </trkpt>
      <trkpt lat="49.97598" lon="2.07385">
        <ele>14.3</ele>
        <time>2022-04-12T11:50:20Z</time>
      </trkpt>
      <trkpt lat="49.97597" lon="2.07383">
        <ele>14.3</ele>
        <time>2022-04-12T11:50:21Z</time>
      </trkpt>
      <trkpt lat="49.97596" lon="2.07381">
        <ele>14.3</ele>
        <time>2022-04-12T11:50:22Z</time>
      </trkpt>
      <trkpt lat="49.97596" lon="2.0738">
        <ele>14.3</ele>
        <time>2022-04-12T11:50:24Z</time>
      </trkpt>
      <trkpt lat="49.97595" lon="2.07379">
        <ele>14.3</ele>
        <time>2022-04-12T11:50:25Z</time>
      </trkpt>
      <trkpt lat="49.97595" lon="2.07378">
        <ele>14.3</ele>
        <time>2022-04-12T11:50:26Z</time>
      </trkpt>
      <trkpt lat="49.97594" lon="2.07376">
        <ele>14.3</ele>
        <time>2022-04-12T11:50:27Z</time>
      </trkpt>
      <trkpt lat="49.97594" lon="2.07374">
        <ele>14.3</ele>
        <time>2022-04-12T11:50:28Z</time>
      </trkpt>
      <trkpt lat="49.97594" lon="2.07373">
        <ele>14.3</ele>
        <time>2022-04-12T11:50:29Z</time>
      </trkpt>
      <trkpt lat="49.97593" lon="2.07371">
        <ele>14.3</ele>
        <time>2022-04-12T11:50:31Z</time>
      </trkpt>
      <trkpt lat="49.97593" lon="2.0737">
        <ele>14.3</ele>
        <time>2022-04-12T11:50:32Z</time>
      </trkpt>
      <trkpt lat="49.97594" lon="2.07368">
        <ele>14.3</ele>
        <time>2022-04-12T11:50:33Z</time>
      </trkpt>
      <trkpt lat="49.97594" lon="2.07367">
        <ele>14.3</ele>
        <time>2022-04-12T11:50:34Z</time>
      </trkpt>
      <trkpt lat="49.97594" lon="2.07366">
        <ele>14.3</ele>
        <time>2022-04-12T11:50:35Z</time>
      </trkpt>
      <trkpt lat="49.97595" lon="2.07364">
        <ele>14.3</ele>
        <time>2022-04-12T11:50:36Z</time>
      </trkpt>
      <trkpt lat="49.97595" lon="2.07363">
        <ele>14.2</ele>
        <time>2022-04-12T11:50:37Z</time>
      </trkpt>
      <trkpt lat="49.97596" lon="2.07362">
        <ele>14.2</ele>
        <time>2022-04-12T11:50:38Z</time>
      </trkpt>
      <trkpt lat="49.97597" lon="2.0736">
        <ele>14.2</ele>
        <time>2022-04-12T11:50:39Z</time>
      </trkpt>
      <trkpt lat="49.97598" lon="2.07358">
        <ele>14.2</ele>
        <time>2022-04-12T11:50:41Z</time>
      </trkpt>
      <trkpt lat="49.97599" lon="2.07356">
        <ele>14.1</ele>
        <time>2022-04-12T11:50:42Z</time>
      </trkpt>
      <trkpt lat="49.976" lon="2.07355">
        <ele>14.1</ele>
        <time>2022-04-12T11:50:43Z</time>
      </trkpt>
      <trkpt lat="49.97601" lon="2.07354">
        <ele>14.1</ele>
        <time>2022-04-12T11:50:44Z</time>
      </trkpt>
      <trkpt lat="49.97601" lon="2.07352">
        <ele>14</ele>
        <time>2022-04-12T11:50:46Z</time>
      </trkpt>
      <trkpt lat="49.97602" lon="2.07351">
        <ele>14</ele>
        <time>2022-04-12T11:50:47Z</time>
      </trkpt>
      <trkpt lat="49.97603" lon="2.0735">
        <ele>14</ele>
        <time>2022-04-12T11:50:48Z</time>
      </trkpt>
      <trkpt lat="49.97603" lon="2.07348">
        <ele>14</ele>
        <time>2022-04-12T11:50:49Z</time>
      </trkpt>
      <trkpt lat="49.97604" lon="2.07347">
        <ele>13.9</ele>
        <time>2022-04-12T11:50:50Z</time>
      </trkpt>
      <trkpt lat="49.97605" lon="2.07346">
        <ele>13.9</ele>
        <time>2022-04-12T11:50:51Z</time>
      </trkpt>
      <trkpt lat="49.97606" lon="2.07344">
        <ele>13.9</ele>
        <time>2022-04-12T11:50:52Z</time>
      </trkpt>
      <trkpt lat="49.97607" lon="2.07343">
        <ele>13.8</ele>
        <time>2022-04-12T11:50:53Z</time>
      </trkpt>
      <trkpt lat="49.97607" lon="2.07342">
        <ele>13.8</ele>
        <time>2022-04-12T11:50:54Z</time>
      </trkpt>
      <trkpt lat="49.97608" lon="2.07341">
        <ele>13.8</ele>
        <time>2022-04-12T11:50:55Z</time>
      </trkpt>
      <trkpt lat="49.97609" lon="2.07339">
        <ele>13.8</ele>
        <time>2022-04-12T11:50:57Z</time>
      </trkpt>
      <trkpt lat="49.9761" lon="2.07338">
        <ele>13.7</ele>
        <time>2022-04-12T11:50:58Z</time>
      </trkpt>
      <trkpt lat="49.9761" lon="2.07337">
        <ele>13.7</ele>
        <time>2022-04-12T11:50:59Z</time>
      </trkpt>
      <trkpt lat="49.97611" lon="2.07335">
        <ele>13.7</ele>
        <time>2022-04-12T11:51:00Z</time>
      </trkpt>
      <trkpt lat="49.97611" lon="2.07334">
        <ele>13.6</ele>
        <time>2022-04-12T11:51:02Z</time>
      </trkpt>
      <trkpt lat="49.97611" lon="2.07332">
        <ele>13.6</ele>
        <time>2022-04-12T11:51:03Z</time>
      </trkpt>
      <trkpt lat="49.97611" lon="2.0733">
        <ele>13.6</ele>
        <time>2022-04-12T11:51:04Z</time>
      </trkpt>
      <trkpt lat="49.9761" lon="2.07329">
        <ele>13.6</ele>
        <time>2022-04-12T11:51:05Z</time>
      </trkpt>
      <trkpt lat="49.97611" lon="2.07328">
        <ele>13.5</ele>
        <time>2022-04-12T11:51:07Z</time>
      </trkpt>
      <trkpt lat="49.97611" lon="2.07328">
        <ele>13.5</ele>
        <time>2022-04-12T11:51:08Z</time>
      </trkpt>
      <trkpt lat="49.97611" lon="2.07327">
        <ele>13.5</ele>
        <time>2022-04-12T11:51:09Z</time>
      </trkpt>
      <trkpt lat="49.97612" lon="2.07326">
        <ele>13.5</ele>
        <time>2022-04-12T11:51:10Z</time>
      </trkpt>
      <trkpt lat="49.97613" lon="2.07326">
        <ele>13.5</ele>
        <time>2022-04-12T11:51:11Z</time>
      </trkpt>
      <trkpt lat="49.97614" lon="2.07325">
        <ele>13.5</ele>
        <time>2022-04-12T11:51:12Z</time>
      </trkpt>
      <trkpt lat="49.97615" lon="2.07322">
        <ele>13.4</ele>
        <time>2022-04-12T11:51:14Z</time>
      </trkpt>
      <trkpt lat="49.97616" lon="2.07321">
        <ele>13.4</ele>
        <time>2022-04-12T11:51:15Z</time>
      </trkpt>
      <trkpt lat="49.97617" lon="2.0732">
        <ele>13.3</ele>
        <time>2022-04-12T11:51:16Z</time>
      </trkpt>
      <trkpt lat="49.97618" lon="2.07319">
        <ele>13.3</ele>
        <time>2022-04-12T11:51:17Z</time>
      </trkpt>
      <trkpt lat="49.97619" lon="2.07317">
        <ele>13.3</ele>
        <time>2022-04-12T11:51:18Z</time>
      </trkpt>
      <trkpt lat="49.9762" lon="2.07316">
        <ele>13.2</ele>
        <time>2022-04-12T11:51:19Z</time>
      </trkpt>
      <trkpt lat="49.9762" lon="2.07315">
        <ele>13.2</ele>
        <time>2022-04-12T11:51:21Z</time>
      </trkpt>
      <trkpt lat="49.97622" lon="2.07312">
        <ele>13.2</ele>
        <time>2022-04-12T11:51:22Z</time>
      </trkpt>
      <trkpt lat="49.97622" lon="2.07311">
        <ele>13.1</ele>
        <time>2022-04-12T11:51:23Z</time>
      </trkpt>
      <trkpt lat="49.97623" lon="2.0731">
        <ele>13.1</ele>
        <time>2022-04-12T11:51:24Z</time>
      </trkpt>
      <trkpt lat="49.97623" lon="2.07308">
        <ele>13.1</ele>
        <time>2022-04-12T11:51:25Z</time>
      </trkpt>
      <trkpt lat="49.97624" lon="2.07307">
        <ele>13.1</ele>
        <time>2022-04-12T11:51:26Z</time>
      </trkpt>
      <trkpt lat="49.97625" lon="2.07305">
        <ele>13</ele>
        <time>2022-04-12T11:51:28Z</time>
      </trkpt>
      <trkpt lat="49.97625" lon="2.07303">
        <ele>13</ele>
        <time>2022-04-12T11:51:29Z</time>
      </trkpt>
      <trkpt lat="49.97626" lon="2.07302">
        <ele>13</ele>
        <time>2022-04-12T11:51:30Z</time>
      </trkpt>
      <trkpt lat="49.97627" lon="2.07301">
        <ele>12.9</ele>
        <time>2022-04-12T11:51:31Z</time>
      </trkpt>
      <trkpt lat="49.97628" lon="2.07299">
        <ele>12.9</ele>
        <time>2022-04-12T11:51:32Z</time>
      </trkpt>
      <trkpt lat="49.97628" lon="2.07297">
        <ele>12.9</ele>
        <time>2022-04-12T11:51:33Z</time>
      </trkpt>
      <trkpt lat="49.9763" lon="2.07295">
        <ele>12.8</ele>
        <time>2022-04-12T11:51:34Z</time>
      </trkpt>
      <trkpt lat="49.9763" lon="2.07294">
        <ele>12.8</ele>
        <time>2022-04-12T11:51:36Z</time>
      </trkpt>
      <trkpt lat="49.97631" lon="2.07293">
        <ele>12.8</ele>
        <time>2022-04-12T11:51:37Z</time>
      </trkpt>
      <trkpt lat="49.97631" lon="2.07291">
        <ele>12.8</ele>
        <time>2022-04-12T11:51:38Z</time>
      </trkpt>
      <trkpt lat="49.97632" lon="2.0729">
        <ele>12.7</ele>
        <time>2022-04-12T11:51:39Z</time>
      </trkpt>
      <trkpt lat="49.97633" lon="2.07288">
        <ele>12.7</ele>
        <time>2022-04-12T11:51:40Z</time>
      </trkpt>
      <trkpt lat="49.97633" lon="2.07287">
        <ele>12.7</ele>
        <time>2022-04-12T11:51:41Z</time>
      </trkpt>
      <trkpt lat="49.97634" lon="2.07286">
        <ele>12.7</ele>
        <time>2022-04-12T11:51:42Z</time>
      </trkpt>
      <trkpt lat="49.97635" lon="2.07284">
        <ele>12.6</ele>
        <time>2022-04-12T11:51:43Z</time>
      </trkpt>
      <trkpt lat="49.97636" lon="2.07282">
        <ele>12.6</ele>
        <time>2022-04-12T11:51:45Z</time>
      </trkpt>
      <trkpt lat="49.97636" lon="2.07281">
        <ele>12.6</ele>
        <time>2022-04-12T11:51:46Z</time>
      </trkpt>
      <trkpt lat="49.97637" lon="2.0728">
        <ele>12.6</ele>
        <time>2022-04-12T11:51:47Z</time>
      </trkpt>
      <trkpt lat="49.97638" lon="2.07278">
        <ele>12.5</ele>
        <time>2022-04-12T11:51:49Z</time>
      </trkpt>
      <trkpt lat="49.97639" lon="2.07277">
        <ele>12.5</ele>
        <time>2022-04-12T11:51:50Z</time>
      </trkpt>
      <trkpt lat="49.97641" lon="2.07275">
        <ele>12.4</ele>
        <time>2022-04-12T11:51:51Z</time>
      </trkpt>
      <trkpt lat="49.97641" lon="2.07274">
        <ele>12.4</ele>
        <time>2022-04-12T11:51:52Z</time>
      </trkpt>
      <trkpt lat="49.97642" lon="2.07273">
        <ele>12.4</ele>
        <time>2022-04-12T11:51:53Z</time>
      </trkpt>
      <trkpt lat="49.97643" lon="2.07271">
        <ele>12.4</ele>
        <time>2022-04-12T11:51:55Z</time>
      </trkpt>
      <trkpt lat="49.97644" lon="2.0727">
        <ele>12.4</ele>
        <time>2022-04-12T11:51:56Z</time>
      </trkpt>
      <trkpt lat="49.97645" lon="2.07269">
        <ele>12.3</ele>
        <time>2022-04-12T11:51:57Z</time>
      </trkpt>
      <trkpt lat="49.97646" lon="2.07268">
        <ele>12.3</ele>
        <time>2022-04-12T11:51:58Z</time>
      </trkpt>
      <trkpt lat="49.97647" lon="2.07267">
        <ele>12.3</ele>
        <time>2022-04-12T11:52:00Z</time>
      </trkpt>
      <trkpt lat="49.97648" lon="2.07266">
        <ele>12.2</ele>
        <time>2022-04-12T11:52:01Z</time>
      </trkpt>
      <trkpt lat="49.97649" lon="2.07265">
        <ele>12.2</ele>
        <time>2022-04-12T11:52:02Z</time>
      </trkpt>
      <trkpt lat="49.9765" lon="2.07264">
        <ele>12.2</ele>
        <time>2022-04-12T11:52:03Z</time>
      </trkpt>
      <trkpt lat="49.97651" lon="2.07263">
        <ele>12.2</ele>
        <time>2022-04-12T11:52:04Z</time>
      </trkpt>
      <trkpt lat="49.97651" lon="2.07262">
        <ele>12.2</ele>
        <time>2022-04-12T11:52:05Z</time>
      </trkpt>
      <trkpt lat="49.97652" lon="2.0726">
        <ele>12.1</ele>
        <time>2022-04-12T11:52:06Z</time>
      </trkpt>
      <trkpt lat="49.97653" lon="2.07259">
        <ele>12.1</ele>
        <time>2022-04-12T11:52:07Z</time>
      </trkpt>
      <trkpt lat="49.97654" lon="2.07257">
        <ele>12.1</ele>
        <time>2022-04-12T11:52:09Z</time>
      </trkpt>
      <trkpt lat="49.97654" lon="2.07256">
        <ele>12</ele>
        <time>2022-04-12T11:52:10Z</time>
      </trkpt>
      <trkpt lat="49.97655" lon="2.07255">
        <ele>12</ele>
        <time>2022-04-12T11:52:11Z</time>
      </trkpt>
      <trkpt lat="49.97656" lon="2.07254">
        <ele>12</ele>
        <time>2022-04-12T11:52:12Z</time>
      </trkpt>
      <trkpt lat="49.97657" lon="2.07253">
        <ele>12</ele>
        <time>2022-04-12T11:52:13Z</time>
      </trkpt>
      <trkpt lat="49.97658" lon="2.07251">
        <ele>11.9</ele>
        <time>2022-04-12T11:52:14Z</time>
      </trkpt>
      <trkpt lat="49.97659" lon="2.07251">
        <ele>11.9</ele>
        <time>2022-04-12T11:52:15Z</time>
      </trkpt>
      <trkpt lat="49.97659" lon="2.0725">
        <ele>11.9</ele>
        <time>2022-04-12T11:52:16Z</time>
      </trkpt>
      <trkpt lat="49.9766" lon="2.07249">
        <ele>11.9</ele>
        <time>2022-04-12T11:52:17Z</time>
      </trkpt>
      <trkpt lat="49.97661" lon="2.07248">
        <ele>11.9</ele>
        <time>2022-04-12T11:52:19Z</time>
      </trkpt>
      <trkpt lat="49.97661" lon="2.07247">
        <ele>11.9</ele>
        <time>2022-04-12T11:52:20Z</time>
      </trkpt>
      <trkpt lat="49.97662" lon="2.07246">
        <ele>11.8</ele>
        <time>2022-04-12T11:52:21Z</time>
      </trkpt>
      <trkpt lat="49.97663" lon="2.07244">
        <ele>11.8</ele>
        <time>2022-04-12T11:52:22Z</time>
      </trkpt>
      <trkpt lat="49.97664" lon="2.07243">
        <ele>11.8</ele>
        <time>2022-04-12T11:52:23Z</time>
      </trkpt>
      <trkpt lat="49.97664" lon="2.07242">
        <ele>11.8</ele>
        <time>2022-04-12T11:52:24Z</time>
      </trkpt>
      <trkpt lat="49.97666" lon="2.0724">
        <ele>11.8</ele>
        <time>2022-04-12T11:52:25Z</time>
      </trkpt>
      <trkpt lat="49.97666" lon="2.07239">
        <ele>11.8</ele>
        <time>2022-04-12T11:52:26Z</time>
      </trkpt>
      <trkpt lat="49.97667" lon="2.07237">
        <ele>11.8</ele>
        <time>2022-04-12T11:52:27Z</time>
      </trkpt>
      <trkpt lat="49.97668" lon="2.07234">
        <ele>11.7</ele>
        <time>2022-04-12T11:52:28Z</time>
      </trkpt>
      <trkpt lat="49.97669" lon="2.07233">
        <ele>11.7</ele>
        <time>2022-04-12T11:52:30Z</time>
      </trkpt>
      <trkpt lat="49.9767" lon="2.07232">
        <ele>11.7</ele>
        <time>2022-04-12T11:52:31Z</time>
      </trkpt>
      <trkpt lat="49.9767" lon="2.07231">
        <ele>11.7</ele>
        <time>2022-04-12T11:52:32Z</time>
      </trkpt>
      <trkpt lat="49.97671" lon="2.07229">
        <ele>11.7</ele>
        <time>2022-04-12T11:52:33Z</time>
      </trkpt>
      <trkpt lat="49.97671" lon="2.07228">
        <ele>11.7</ele>
        <time>2022-04-12T11:52:34Z</time>
      </trkpt>
      <trkpt lat="49.97672" lon="2.07226">
        <ele>11.6</ele>
        <time>2022-04-12T11:52:35Z</time>
      </trkpt>
      <trkpt lat="49.97673" lon="2.07225">
        <ele>11.6</ele>
        <time>2022-04-12T11:52:36Z</time>
      </trkpt>
      <trkpt lat="49.97673" lon="2.07223">
        <ele>11.6</ele>
        <time>2022-04-12T11:52:38Z</time>
      </trkpt>
      <trkpt lat="49.97674" lon="2.07222">
        <ele>11.6</ele>
        <time>2022-04-12T11:52:39Z</time>
      </trkpt>
      <trkpt lat="49.97675" lon="2.07221">
        <ele>11.6</ele>
        <time>2022-04-12T11:52:40Z</time>
      </trkpt>
      <trkpt lat="49.97676" lon="2.07219">
        <ele>11.6</ele>
        <time>2022-04-12T11:52:42Z</time>
      </trkpt>
      <trkpt lat="49.97677" lon="2.07218">
        <ele>11.5</ele>
        <time>2022-04-12T11:52:43Z</time>
      </trkpt>
      <trkpt lat="49.97678" lon="2.07216">
        <ele>11.5</ele>
        <time>2022-04-12T11:52:44Z</time>
      </trkpt>
      <trkpt lat="49.97679" lon="2.07215">
        <ele>11.5</ele>
        <time>2022-04-12T11:52:45Z</time>
      </trkpt>
      <trkpt lat="49.9768" lon="2.07215">
        <ele>11.5</ele>
        <time>2022-04-12T11:52:46Z</time>
      </trkpt>
      <trkpt lat="49.97681" lon="2.07214">
        <ele>11.5</ele>
        <time>2022-04-12T11:52:47Z</time>
      </trkpt>
      <trkpt lat="49.97682" lon="2.07212">
        <ele>11.5</ele>
        <time>2022-04-12T11:52:48Z</time>
      </trkpt>
      <trkpt lat="49.97683" lon="2.07211">
        <ele>11.5</ele>
        <time>2022-04-12T11:52:49Z</time>
      </trkpt>
      <trkpt lat="49.97683" lon="2.0721">
        <ele>11.5</ele>
        <time>2022-04-12T11:52:51Z</time>
      </trkpt>
      <trkpt lat="49.97684" lon="2.07208">
        <ele>11.5</ele>
        <time>2022-04-12T11:52:52Z</time>
      </trkpt>
      <trkpt lat="49.97685" lon="2.07207">
        <ele>11.5</ele>
        <time>2022-04-12T11:52:53Z</time>
      </trkpt>
      <trkpt lat="49.97685" lon="2.07205">
        <ele>11.5</ele>
        <time>2022-04-12T11:52:54Z</time>
      </trkpt>
      <trkpt lat="49.97686" lon="2.07204">
        <ele>11.4</ele>
        <time>2022-04-12T11:52:55Z</time>
      </trkpt>
      <trkpt lat="49.97686" lon="2.07202">
        <ele>11.4</ele>
        <time>2022-04-12T11:52:56Z</time>
      </trkpt>
      <trkpt lat="49.97687" lon="2.07201">
        <ele>11.4</ele>
        <time>2022-04-12T11:52:57Z</time>
      </trkpt>
      <trkpt lat="49.97687" lon="2.072">
        <ele>11.4</ele>
        <time>2022-04-12T11:52:58Z</time>
      </trkpt>
      <trkpt lat="49.97688" lon="2.07198">
        <ele>11.4</ele>
        <time>2022-04-12T11:52:59Z</time>
      </trkpt>
      <trkpt lat="49.97689" lon="2.07197">
        <ele>11.4</ele>
        <time>2022-04-12T11:53:00Z</time>
      </trkpt>
      <trkpt lat="49.9769" lon="2.07195">
        <ele>11.4</ele>
        <time>2022-04-12T11:53:02Z</time>
      </trkpt>
      <trkpt lat="49.9769" lon="2.07194">
        <ele>11.4</ele>
        <time>2022-04-12T11:53:03Z</time>
      </trkpt>
      <trkpt lat="49.97691" lon="2.07193">
        <ele>11.4</ele>
        <time>2022-04-12T11:53:04Z</time>
      </trkpt>
      <trkpt lat="49.97691" lon="2.07191">
        <ele>11.4</ele>
        <time>2022-04-12T11:53:05Z</time>
      </trkpt>
      <trkpt lat="49.97692" lon="2.0719">
        <ele>11.4</ele>
        <time>2022-04-12T11:53:06Z</time>
      </trkpt>
      <trkpt lat="49.97692" lon="2.07188">
        <ele>11.4</ele>
        <time>2022-04-12T11:53:07Z</time>
      </trkpt>
      <trkpt lat="49.97693" lon="2.07187">
        <ele>11.3</ele>
        <time>2022-04-12T11:53:08Z</time>
      </trkpt>
      <trkpt lat="49.97693" lon="2.07185">
        <ele>11.3</ele>
        <time>2022-04-12T11:53:09Z</time>
      </trkpt>
      <trkpt lat="49.97694" lon="2.07183">
        <ele>11.3</ele>
        <time>2022-04-12T11:53:10Z</time>
      </trkpt>
      <trkpt lat="49.97695" lon="2.07182">
        <ele>11.3</ele>
        <time>2022-04-12T11:53:12Z</time>
      </trkpt>
      <trkpt lat="49.97695" lon="2.0718">
        <ele>11.3</ele>
        <time>2022-04-12T11:53:13Z</time>
      </trkpt>
      <trkpt lat="49.97696" lon="2.07178">
        <ele>11.3</ele>
        <time>2022-04-12T11:53:14Z</time>
      </trkpt>
      <trkpt lat="49.97697" lon="2.07177">
        <ele>11.3</ele>
        <time>2022-04-12T11:53:15Z</time>
      </trkpt>
      <trkpt lat="49.97698" lon="2.07175">
        <ele>11.3</ele>
        <time>2022-04-12T11:53:16Z</time>
      </trkpt>
      <trkpt lat="49.97699" lon="2.07173">
        <ele>11.3</ele>
        <time>2022-04-12T11:53:17Z</time>
      </trkpt>
      <trkpt lat="49.97699" lon="2.07172">
        <ele>11.3</ele>
        <time>2022-04-12T11:53:18Z</time>
      </trkpt>
      <trkpt lat="49.977" lon="2.07171">
        <ele>11.2</ele>
        <time>2022-04-12T11:53:19Z</time>
      </trkpt>
      <trkpt lat="49.97701" lon="2.07169">
        <ele>11.2</ele>
        <time>2022-04-12T11:53:20Z</time>
      </trkpt>
      <trkpt lat="49.97702" lon="2.07168">
        <ele>11.2</ele>
        <time>2022-04-12T11:53:21Z</time>
      </trkpt>
      <trkpt lat="49.97703" lon="2.07165">
        <ele>11.2</ele>
        <time>2022-04-12T11:53:23Z</time>
      </trkpt>
      <trkpt lat="49.97703" lon="2.07164">
        <ele>11.2</ele>
        <time>2022-04-12T11:53:24Z</time>
      </trkpt>
      <trkpt lat="49.97704" lon="2.07163">
        <ele>11.2</ele>
        <time>2022-04-12T11:53:25Z</time>
      </trkpt>
      <trkpt lat="49.97705" lon="2.07161">
        <ele>11.2</ele>
        <time>2022-04-12T11:53:26Z</time>
      </trkpt>
      <trkpt lat="49.97705" lon="2.0716">
        <ele>11.2</ele>
        <time>2022-04-12T11:53:27Z</time>
      </trkpt>
      <trkpt lat="49.97706" lon="2.07159">
        <ele>11.2</ele>
        <time>2022-04-12T11:53:28Z</time>
      </trkpt>
      <trkpt lat="49.97707" lon="2.07156">
        <ele>11.2</ele>
        <time>2022-04-12T11:53:29Z</time>
      </trkpt>
      <trkpt lat="49.97708" lon="2.07155">
        <ele>11.2</ele>
        <time>2022-04-12T11:53:30Z</time>
      </trkpt>
      <trkpt lat="49.97708" lon="2.07154">
        <ele>11.2</ele>
        <time>2022-04-12T11:53:31Z</time>
      </trkpt>
      <trkpt lat="49.97709" lon="2.07152">
        <ele>11.2</ele>
        <time>2022-04-12T11:53:33Z</time>
      </trkpt>
      <trkpt lat="49.97709" lon="2.07151">
        <ele>11.2</ele>
        <time>2022-04-12T11:53:34Z</time>
      </trkpt>
      <trkpt lat="49.9771" lon="2.07149">
        <ele>11.2</ele>
        <time>2022-04-12T11:53:35Z</time>
      </trkpt>
      <trkpt lat="49.9771" lon="2.07147">
        <ele>11.2</ele>
        <time>2022-04-12T11:53:36Z</time>
      </trkpt>
      <trkpt lat="49.9771" lon="2.07146">
        <ele>11.2</ele>
        <time>2022-04-12T11:53:37Z</time>
      </trkpt>
      <trkpt lat="49.97711" lon="2.07145">
        <ele>11.2</ele>
        <time>2022-04-12T11:53:38Z</time>
      </trkpt>
      <trkpt lat="49.97711" lon="2.07143">
        <ele>11.2</ele>
        <time>2022-04-12T11:53:39Z</time>
      </trkpt>
      <trkpt lat="49.97712" lon="2.07142">
        <ele>11.2</ele>
        <time>2022-04-12T11:53:40Z</time>
      </trkpt>
      <trkpt lat="49.97712" lon="2.0714">
        <ele>11.2</ele>
        <time>2022-04-12T11:53:41Z</time>
      </trkpt>
      <trkpt lat="49.97713" lon="2.07137">
        <ele>11.2</ele>
        <time>2022-04-12T11:53:43Z</time>
      </trkpt>
      <trkpt lat="49.97714" lon="2.07136">
        <ele>11.2</ele>
        <time>2022-04-12T11:53:44Z</time>
      </trkpt>
      <trkpt lat="49.97714" lon="2.07135">
        <ele>11.2</ele>
        <time>2022-04-12T11:53:45Z</time>
      </trkpt>
      <trkpt lat="49.97715" lon="2.07134">
        <ele>11.2</ele>
        <time>2022-04-12T11:53:46Z</time>
      </trkpt>
      <trkpt lat="49.97716" lon="2.07134">
        <ele>11.2</ele>
        <time>2022-04-12T11:53:47Z</time>
      </trkpt>
      <trkpt lat="49.97717" lon="2.07133">
        <ele>11.2</ele>
        <time>2022-04-12T11:53:48Z</time>
      </trkpt>
      <trkpt lat="49.97718" lon="2.07132">
        <ele>11.2</ele>
        <time>2022-04-12T11:53:49Z</time>
      </trkpt>
      <trkpt lat="49.97718" lon="2.07131">
        <ele>11.2</ele>
        <time>2022-04-12T11:53:51Z</time>
      </trkpt>
      <trkpt lat="49.97719" lon="2.0713">
        <ele>11.2</ele>
        <time>2022-04-12T11:53:52Z</time>
      </trkpt>
      <trkpt lat="49.9772" lon="2.07129">
        <ele>11.2</ele>
        <time>2022-04-12T11:53:53Z</time>
      </trkpt>
      <trkpt lat="49.9772" lon="2.07128">
        <ele>11.2</ele>
        <time>2022-04-12T11:53:54Z</time>
      </trkpt>
      <trkpt lat="49.97721" lon="2.07127">
        <ele>11.2</ele>
        <time>2022-04-12T11:53:55Z</time>
      </trkpt>
      <trkpt lat="49.97722" lon="2.07125">
        <ele>11.2</ele>
        <time>2022-04-12T11:53:56Z</time>
      </trkpt>
      <trkpt lat="49.97722" lon="2.07123">
        <ele>11.2</ele>
        <time>2022-04-12T11:53:58Z</time>
      </trkpt>
      <trkpt lat="49.97723" lon="2.07122">
        <ele>11.2</ele>
        <time>2022-04-12T11:53:59Z</time>
      </trkpt>
      <trkpt lat="49.97723" lon="2.0712">
        <ele>11.2</ele>
        <time>2022-04-12T11:54:00Z</time>
      </trkpt>
      <trkpt lat="49.97724" lon="2.07119">
        <ele>11.2</ele>
        <time>2022-04-12T11:54:01Z</time>
      </trkpt>
      <trkpt lat="49.97725" lon="2.07118">
        <ele>11.2</ele>
        <time>2022-04-12T11:54:02Z</time>
      </trkpt>
      <trkpt lat="49.97725" lon="2.07117">
        <ele>11.2</ele>
        <time>2022-04-12T11:54:03Z</time>
      </trkpt>
      <trkpt lat="49.97726" lon="2.07115">
        <ele>11.2</ele>
        <time>2022-04-12T11:54:04Z</time>
      </trkpt>
      <trkpt lat="49.97727" lon="2.07114">
        <ele>11.2</ele>
        <time>2022-04-12T11:54:05Z</time>
      </trkpt>
      <trkpt lat="49.97728" lon="2.07111">
        <ele>11.2</ele>
        <time>2022-04-12T11:54:07Z</time>
      </trkpt>
      <trkpt lat="49.97729" lon="2.0711">
        <ele>11.2</ele>
        <time>2022-04-12T11:54:08Z</time>
      </trkpt>
      <trkpt lat="49.97729" lon="2.07109">
        <ele>11.2</ele>
        <time>2022-04-12T11:54:09Z</time>
      </trkpt>
      <trkpt lat="49.9773" lon="2.07108">
        <ele>11.2</ele>
        <time>2022-04-12T11:54:10Z</time>
      </trkpt>
      <trkpt lat="49.9773" lon="2.07107">
        <ele>11.2</ele>
        <time>2022-04-12T11:54:11Z</time>
      </trkpt>
      <trkpt lat="49.97731" lon="2.07106">
        <ele>11.2</ele>
        <time>2022-04-12T11:54:12Z</time>
      </trkpt>
      <trkpt lat="49.97732" lon="2.07105">
        <ele>11.2</ele>
        <time>2022-04-12T11:54:13Z</time>
      </trkpt>
      <trkpt lat="49.97733" lon="2.07104">
        <ele>11.2</ele>
        <time>2022-04-12T11:54:14Z</time>
      </trkpt>
      <trkpt lat="49.97734" lon="2.07103">
        <ele>11.2</ele>
        <time>2022-04-12T11:54:16Z</time>
      </trkpt>
      <trkpt lat="49.97735" lon="2.07102">
        <ele>11.2</ele>
        <time>2022-04-12T11:54:17Z</time>
      </trkpt>
      <trkpt lat="49.97736" lon="2.07101">
        <ele>11.2</ele>
        <time>2022-04-12T11:54:18Z</time>
      </trkpt>
      <trkpt lat="49.97736" lon="2.071">
        <ele>11.2</ele>
        <time>2022-04-12T11:54:19Z</time>
      </trkpt>
      <trkpt lat="49.97737" lon="2.07099">
        <ele>11.2</ele>
        <time>2022-04-12T11:54:20Z</time>
      </trkpt>
      <trkpt lat="49.97738" lon="2.07098">
        <ele>11.2</ele>
        <time>2022-04-12T11:54:22Z</time>
      </trkpt>
      <trkpt lat="49.97739" lon="2.07099">
        <ele>11.2</ele>
        <time>2022-04-12T11:54:23Z</time>
      </trkpt>
      <trkpt lat="49.97741" lon="2.07101">
        <ele>11.2</ele>
        <time>2022-04-12T11:54:24Z</time>
      </trkpt>
      <trkpt lat="49.97741" lon="2.07102">
        <ele>11.2</ele>
        <time>2022-04-12T11:54:25Z</time>
      </trkpt>
      <trkpt lat="49.97742" lon="2.07102">
        <ele>11.2</ele>
        <time>2022-04-12T11:54:26Z</time>
      </trkpt>
      <trkpt lat="49.97743" lon="2.07104">
        <ele>11.2</ele>
        <time>2022-04-12T11:54:28Z</time>
      </trkpt>
      <trkpt lat="49.97742" lon="2.07105">
        <ele>11.2</ele>
        <time>2022-04-12T11:54:29Z</time>
      </trkpt>
      <trkpt lat="49.97742" lon="2.07106">
        <ele>11.2</ele>
        <time>2022-04-12T11:54:30Z</time>
      </trkpt>
      <trkpt lat="49.97741" lon="2.07105">
        <ele>11.2</ele>
        <time>2022-04-12T11:54:31Z</time>
      </trkpt>
      <trkpt lat="49.9774" lon="2.07105">
        <ele>11.2</ele>
        <time>2022-04-12T11:54:32Z</time>
      </trkpt>
      <trkpt lat="49.9774" lon="2.07105">
        <ele>11.2</ele>
        <time>2022-04-12T11:54:33Z</time>
      </trkpt>
      <trkpt lat="49.97739" lon="2.07105">
        <ele>11.2</ele>
        <time>2022-04-12T11:54:34Z</time>
      </trkpt>
      <trkpt lat="49.97739" lon="2.07105">
        <ele>11.2</ele>
        <time>2022-04-12T11:54:35Z</time>
      </trkpt>
      <trkpt lat="49.97739" lon="2.07105">
        <ele>11.2</ele>
        <time>2022-04-12T11:54:36Z</time>
      </trkpt>
      <trkpt lat="49.97739" lon="2.07105">
        <ele>11.2</ele>
        <time>2022-04-12T11:54:37Z</time>
      </trkpt>
      <trkpt lat="49.97739" lon="2.07104">
        <ele>11.2</ele>
        <time>2022-04-12T11:54:38Z</time>
      </trkpt>
      <trkpt lat="49.97739" lon="2.07104">
        <ele>11.2</ele>
        <time>2022-04-12T11:54:39Z</time>
      </trkpt>
      <trkpt lat="49.97739" lon="2.07103">
        <ele>11.2</ele>
        <time>2022-04-12T11:54:40Z</time>
      </trkpt>
      <trkpt lat="49.97739" lon="2.07101">
        <ele>11.2</ele>
        <time>2022-04-12T11:54:42Z</time>
      </trkpt>
      <trkpt lat="49.97739" lon="2.071">
        <ele>11.2</ele>
        <time>2022-04-12T11:54:43Z</time>
      </trkpt>
      <trkpt lat="49.97739" lon="2.07099">
        <ele>11.2</ele>
        <time>2022-04-12T11:54:44Z</time>
      </trkpt>
      <trkpt lat="49.97739" lon="2.07099">
        <ele>11.2</ele>
        <time>2022-04-12T11:54:45Z</time>
      </trkpt>
      <trkpt lat="49.97738" lon="2.07099">
        <ele>11.2</ele>
        <time>2022-04-12T11:54:46Z</time>
      </trkpt>
      <trkpt lat="49.97738" lon="2.07098">
        <ele>11.2</ele>
        <time>2022-04-12T11:54:47Z</time>
      </trkpt>
      <trkpt lat="49.97738" lon="2.07098">
        <ele>11.2</ele>
        <time>2022-04-12T11:54:48Z</time>
      </trkpt>
      <trkpt lat="49.97738" lon="2.07098">
        <ele>11.2</ele>
        <time>2022-04-12T11:54:49Z</time>
      </trkpt>
      <trkpt lat="49.97738" lon="2.07098">
        <ele>11.2</ele>
        <time>2022-04-12T11:54:50Z</time>
      </trkpt>
      <trkpt lat="49.97738" lon="2.07097">
        <ele>11.2</ele>
        <time>2022-04-12T11:54:51Z</time>
      </trkpt>
      <trkpt lat="49.97739" lon="2.07097">
        <ele>11.2</ele>
        <time>2022-04-12T11:54:52Z</time>
      </trkpt>
      <trkpt lat="49.97739" lon="2.07097">
        <ele>11.2</ele>
        <time>2022-04-12T11:54:53Z</time>
      </trkpt>
      <trkpt lat="49.97739" lon="2.07096">
        <ele>11.2</ele>
        <time>2022-04-12T11:54:54Z</time>
      </trkpt>
      <trkpt lat="49.9774" lon="2.07096">
        <ele>11.2</ele>
        <time>2022-04-12T11:54:56Z</time>
      </trkpt>
      <trkpt lat="49.97741" lon="2.07095">
        <ele>11.2</ele>
        <time>2022-04-12T11:54:57Z</time>
      </trkpt>
      <trkpt lat="49.97742" lon="2.07093">
        <ele>11.2</ele>
        <time>2022-04-12T11:54:58Z</time>
      </trkpt>
      <trkpt lat="49.97744" lon="2.07091">
        <ele>11.2</ele>
        <time>2022-04-12T11:54:59Z</time>
      </trkpt>
      <trkpt lat="49.97745" lon="2.0709">
        <ele>11.2</ele>
        <time>2022-04-12T11:55:00Z</time>
      </trkpt>
      <trkpt lat="49.97746" lon="2.07089">
        <ele>11.2</ele>
        <time>2022-04-12T11:55:01Z</time>
      </trkpt>
      <trkpt lat="49.97748" lon="2.07087">
        <ele>11.2</ele>
        <time>2022-04-12T11:55:02Z</time>
      </trkpt>
      <trkpt lat="49.97749" lon="2.07086">
        <ele>11.1</ele>
        <time>2022-04-12T11:55:03Z</time>
      </trkpt>
      <trkpt lat="49.9775" lon="2.07085">
        <ele>11.1</ele>
        <time>2022-04-12T11:55:04Z</time>
      </trkpt>
      <trkpt lat="49.97751" lon="2.07083">
        <ele>11.1</ele>
        <time>2022-04-12T11:55:06Z</time>
      </trkpt>
      <trkpt lat="49.97752" lon="2.07081">
        <ele>11.1</ele>
        <time>2022-04-12T11:55:07Z</time>
      </trkpt>
      <trkpt lat="49.97753" lon="2.0708">
        <ele>11.1</ele>
        <time>2022-04-12T11:55:08Z</time>
      </trkpt>
      <trkpt lat="49.97754" lon="2.07078">
        <ele>11.1</ele>
        <time>2022-04-12T11:55:09Z</time>
      </trkpt>
      <trkpt lat="49.97755" lon="2.07077">
        <ele>11.1</ele>
        <time>2022-04-12T11:55:10Z</time>
      </trkpt>
      <trkpt lat="49.97756" lon="2.07076">
        <ele>11.1</ele>
        <time>2022-04-12T11:55:11Z</time>
      </trkpt>
      <trkpt lat="49.97757" lon="2.07075">
        <ele>11.1</ele>
        <time>2022-04-12T11:55:12Z</time>
      </trkpt>
      <trkpt lat="49.97758" lon="2.07073">
        <ele>11.1</ele>
        <time>2022-04-12T11:55:14Z</time>
      </trkpt>
      <trkpt lat="49.97759" lon="2.07072">
        <ele>11.1</ele>
        <time>2022-04-12T11:55:15Z</time>
      </trkpt>
      <trkpt lat="49.9776" lon="2.07071">
        <ele>11.1</ele>
        <time>2022-04-12T11:55:16Z</time>
      </trkpt>
      <trkpt lat="49.9776" lon="2.07069">
        <ele>11.1</ele>
        <time>2022-04-12T11:55:17Z</time>
      </trkpt>
      <trkpt lat="49.97762" lon="2.07067">
        <ele>11.1</ele>
        <time>2022-04-12T11:55:18Z</time>
      </trkpt>
      <trkpt lat="49.97762" lon="2.07066">
        <ele>11.1</ele>
        <time>2022-04-12T11:55:19Z</time>
      </trkpt>
      <trkpt lat="49.97763" lon="2.07065">
        <ele>11.1</ele>
        <time>2022-04-12T11:55:20Z</time>
      </trkpt>
      <trkpt lat="49.97764" lon="2.07064">
        <ele>11.1</ele>
        <time>2022-04-12T11:55:21Z</time>
      </trkpt>
      <trkpt lat="49.97765" lon="2.07063">
        <ele>11.1</ele>
        <time>2022-04-12T11:55:22Z</time>
      </trkpt>
      <trkpt lat="49.97765" lon="2.07061">
        <ele>11.1</ele>
        <time>2022-04-12T11:55:24Z</time>
      </trkpt>
      <trkpt lat="49.97767" lon="2.07059">
        <ele>11.1</ele>
        <time>2022-04-12T11:55:25Z</time>
      </trkpt>
      <trkpt lat="49.97767" lon="2.07058">
        <ele>11.1</ele>
        <time>2022-04-12T11:55:26Z</time>
      </trkpt>
      <trkpt lat="49.97768" lon="2.07057">
        <ele>11.1</ele>
        <time>2022-04-12T11:55:27Z</time>
      </trkpt>
      <trkpt lat="49.9777" lon="2.07054">
        <ele>11.1</ele>
        <time>2022-04-12T11:55:28Z</time>
      </trkpt>
      <trkpt lat="49.9777" lon="2.07053">
        <ele>11.1</ele>
        <time>2022-04-12T11:55:29Z</time>
      </trkpt>
      <trkpt lat="49.97771" lon="2.07052">
        <ele>11.1</ele>
        <time>2022-04-12T11:55:30Z</time>
      </trkpt>
      <trkpt lat="49.97773" lon="2.0705">
        <ele>11.1</ele>
        <time>2022-04-12T11:55:31Z</time>
      </trkpt>
      <trkpt lat="49.97773" lon="2.07049">
        <ele>11.1</ele>
        <time>2022-04-12T11:55:33Z</time>
      </trkpt>
      <trkpt lat="49.97774" lon="2.07048">
        <ele>11</ele>
        <time>2022-04-12T11:55:34Z</time>
      </trkpt>
      <trkpt lat="49.97775" lon="2.07047">
        <ele>11</ele>
        <time>2022-04-12T11:55:35Z</time>
      </trkpt>
      <trkpt lat="49.97776" lon="2.07046">
        <ele>11</ele>
        <time>2022-04-12T11:55:36Z</time>
      </trkpt>
      <trkpt lat="49.97777" lon="2.07045">
        <ele>11</ele>
        <time>2022-04-12T11:55:37Z</time>
      </trkpt>
      <trkpt lat="49.97778" lon="2.07043">
        <ele>11</ele>
        <time>2022-04-12T11:55:38Z</time>
      </trkpt>
      <trkpt lat="49.9778" lon="2.0704">
        <ele>11</ele>
        <time>2022-04-12T11:55:39Z</time>
      </trkpt>
      <trkpt lat="49.97781" lon="2.07039">
        <ele>11</ele>
        <time>2022-04-12T11:55:41Z</time>
      </trkpt>
      <trkpt lat="49.97781" lon="2.07038">
        <ele>11</ele>
        <time>2022-04-12T11:55:42Z</time>
      </trkpt>
      <trkpt lat="49.97782" lon="2.07037">
        <ele>11</ele>
        <time>2022-04-12T11:55:43Z</time>
      </trkpt>
      <trkpt lat="49.97783" lon="2.07036">
        <ele>11</ele>
        <time>2022-04-12T11:55:44Z</time>
      </trkpt>
      <trkpt lat="49.97784" lon="2.07033">
        <ele>11</ele>
        <time>2022-04-12T11:55:45Z</time>
      </trkpt>
      <trkpt lat="49.97785" lon="2.07033">
        <ele>11</ele>
        <time>2022-04-12T11:55:46Z</time>
      </trkpt>
      <trkpt lat="49.97785" lon="2.07032">
        <ele>11</ele>
        <time>2022-04-12T11:55:47Z</time>
      </trkpt>
      <trkpt lat="49.97787" lon="2.0703">
        <ele>11</ele>
        <time>2022-04-12T11:55:48Z</time>
      </trkpt>
      <trkpt lat="49.97788" lon="2.07029">
        <ele>11</ele>
        <time>2022-04-12T11:55:49Z</time>
      </trkpt>
      <trkpt lat="49.97789" lon="2.07028">
        <ele>11</ele>
        <time>2022-04-12T11:55:51Z</time>
      </trkpt>
      <trkpt lat="49.9779" lon="2.07026">
        <ele>11</ele>
        <time>2022-04-12T11:55:52Z</time>
      </trkpt>
      <trkpt lat="49.97791" lon="2.07026">
        <ele>11</ele>
        <time>2022-04-12T11:55:53Z</time>
      </trkpt>
      <trkpt lat="49.97792" lon="2.07025">
        <ele>11</ele>
        <time>2022-04-12T11:55:54Z</time>
      </trkpt>
      <trkpt lat="49.97793" lon="2.07024">
        <ele>11</ele>
        <time>2022-04-12T11:55:55Z</time>
      </trkpt>
      <trkpt lat="49.97795" lon="2.07023">
        <ele>11</ele>
        <time>2022-04-12T11:55:56Z</time>
      </trkpt>
      <trkpt lat="49.97796" lon="2.07022">
        <ele>11</ele>
        <time>2022-04-12T11:55:57Z</time>
      </trkpt>
      <trkpt lat="49.97797" lon="2.0702">
        <ele>11</ele>
        <time>2022-04-12T11:55:58Z</time>
      </trkpt>
      <trkpt lat="49.97798" lon="2.0702">
        <ele>11</ele>
        <time>2022-04-12T11:55:59Z</time>
      </trkpt>
      <trkpt lat="49.97799" lon="2.07019">
        <ele>11</ele>
        <time>2022-04-12T11:56:00Z</time>
      </trkpt>
      <trkpt lat="49.978" lon="2.07018">
        <ele>11</ele>
        <time>2022-04-12T11:56:02Z</time>
      </trkpt>
      <trkpt lat="49.97802" lon="2.07016">
        <ele>11</ele>
        <time>2022-04-12T11:56:03Z</time>
      </trkpt>
      <trkpt lat="49.97802" lon="2.07015">
        <ele>11</ele>
        <time>2022-04-12T11:56:04Z</time>
      </trkpt>
      <trkpt lat="49.97803" lon="2.07014">
        <ele>11</ele>
        <time>2022-04-12T11:56:05Z</time>
      </trkpt>
      <trkpt lat="49.97804" lon="2.07013">
        <ele>11</ele>
        <time>2022-04-12T11:56:07Z</time>
      </trkpt>
      <trkpt lat="49.97806" lon="2.07012">
        <ele>11</ele>
        <time>2022-04-12T11:56:08Z</time>
      </trkpt>
      <trkpt lat="49.97807" lon="2.07011">
        <ele>11</ele>
        <time>2022-04-12T11:56:09Z</time>
      </trkpt>
      <trkpt lat="49.97808" lon="2.0701">
        <ele>11</ele>
        <time>2022-04-12T11:56:10Z</time>
      </trkpt>
      <trkpt lat="49.97809" lon="2.07009">
        <ele>11</ele>
        <time>2022-04-12T11:56:11Z</time>
      </trkpt>
      <trkpt lat="49.9781" lon="2.07008">
        <ele>11</ele>
        <time>2022-04-12T11:56:12Z</time>
      </trkpt>
      <trkpt lat="49.97811" lon="2.07007">
        <ele>11</ele>
        <time>2022-04-12T11:56:13Z</time>
      </trkpt>
      <trkpt lat="49.97813" lon="2.07005">
        <ele>11</ele>
        <time>2022-04-12T11:56:14Z</time>
      </trkpt>
      <trkpt lat="49.97813" lon="2.07005">
        <ele>11</ele>
        <time>2022-04-12T11:56:15Z</time>
      </trkpt>
      <trkpt lat="49.97814" lon="2.07004">
        <ele>11</ele>
        <time>2022-04-12T11:56:16Z</time>
      </trkpt>
      <trkpt lat="49.97815" lon="2.07003">
        <ele>11</ele>
        <time>2022-04-12T11:56:18Z</time>
      </trkpt>
      <trkpt lat="49.97816" lon="2.07002">
        <ele>11</ele>
        <time>2022-04-12T11:56:19Z</time>
      </trkpt>
      <trkpt lat="49.97817" lon="2.07001">
        <ele>11</ele>
        <time>2022-04-12T11:56:20Z</time>
      </trkpt>
      <trkpt lat="49.97818" lon="2.07">
        <ele>11</ele>
        <time>2022-04-12T11:56:21Z</time>
      </trkpt>
      <trkpt lat="49.97819" lon="2.06999">
        <ele>11</ele>
        <time>2022-04-12T11:56:22Z</time>
      </trkpt>
      <trkpt lat="49.9782" lon="2.06998">
        <ele>11</ele>
        <time>2022-04-12T11:56:23Z</time>
      </trkpt>
      <trkpt lat="49.97822" lon="2.06997">
        <ele>11</ele>
        <time>2022-04-12T11:56:25Z</time>
      </trkpt>
      <trkpt lat="49.97823" lon="2.06997">
        <ele>11</ele>
        <time>2022-04-12T11:56:26Z</time>
      </trkpt>
      <trkpt lat="49.97823" lon="2.06998">
        <ele>11</ele>
        <time>2022-04-12T11:56:27Z</time>
      </trkpt>
      <trkpt lat="49.97823" lon="2.06998">
        <ele>11</ele>
        <time>2022-04-12T11:56:28Z</time>
      </trkpt>
      <trkpt lat="49.97824" lon="2.06998">
        <ele>11</ele>
        <time>2022-04-12T11:56:29Z</time>
      </trkpt>
      <trkpt lat="49.97824" lon="2.06998">
        <ele>11</ele>
        <time>2022-04-12T11:56:30Z</time>
      </trkpt>
      <trkpt lat="49.97823" lon="2.06998">
        <ele>11</ele>
        <time>2022-04-12T11:56:31Z</time>
      </trkpt>
      <trkpt lat="49.97823" lon="2.06998">
        <ele>11</ele>
        <time>2022-04-12T11:56:32Z</time>
      </trkpt>
      <trkpt lat="49.97823" lon="2.06998">
        <ele>11</ele>
        <time>2022-04-12T11:56:33Z</time>
      </trkpt>
      <trkpt lat="49.97823" lon="2.06998">
        <ele>11</ele>
        <time>2022-04-12T11:56:34Z</time>
      </trkpt>
      <trkpt lat="49.97823" lon="2.06998">
        <ele>11</ele>
        <time>2022-04-12T11:56:35Z</time>
      </trkpt>
      <trkpt lat="49.97824" lon="2.06998">
        <ele>11</ele>
        <time>2022-04-12T11:56:37Z</time>
      </trkpt>
      <trkpt lat="49.97824" lon="2.06998">
        <ele>11</ele>
        <time>2022-04-12T11:56:38Z</time>
      </trkpt>
      <trkpt lat="49.97825" lon="2.06997">
        <ele>11</ele>
        <time>2022-04-12T11:56:39Z</time>
      </trkpt>
      <trkpt lat="49.97825" lon="2.06997">
        <ele>11</ele>
        <time>2022-04-12T11:56:40Z</time>
      </trkpt>
      <trkpt lat="49.97826" lon="2.06996">
        <ele>11</ele>
        <time>2022-04-12T11:56:42Z</time>
      </trkpt>
      <trkpt lat="49.97826" lon="2.06995">
        <ele>11</ele>
        <time>2022-04-12T11:56:43Z</time>
      </trkpt>
      <trkpt lat="49.97827" lon="2.06994">
        <ele>11</ele>
        <time>2022-04-12T11:56:44Z</time>
      </trkpt>
      <trkpt lat="49.97827" lon="2.06993">
        <ele>11</ele>
        <time>2022-04-12T11:56:45Z</time>
      </trkpt>
      <trkpt lat="49.97828" lon="2.06992">
        <ele>11</ele>
        <time>2022-04-12T11:56:46Z</time>
      </trkpt>
      <trkpt lat="49.9783" lon="2.06989">
        <ele>11</ele>
        <time>2022-04-12T11:56:47Z</time>
      </trkpt>
      <trkpt lat="49.9783" lon="2.06988">
        <ele>11</ele>
        <time>2022-04-12T11:56:48Z</time>
      </trkpt>
      <trkpt lat="49.97831" lon="2.06987">
        <ele>11</ele>
        <time>2022-04-12T11:56:50Z</time>
      </trkpt>
      <trkpt lat="49.97832" lon="2.06985">
        <ele>11</ele>
        <time>2022-04-12T11:56:51Z</time>
      </trkpt>
      <trkpt lat="49.97832" lon="2.06984">
        <ele>11</ele>
        <time>2022-04-12T11:56:52Z</time>
      </trkpt>
      <trkpt lat="49.97833" lon="2.06983">
        <ele>11</ele>
        <time>2022-04-12T11:56:53Z</time>
      </trkpt>
      <trkpt lat="49.97834" lon="2.0698">
        <ele>11</ele>
        <time>2022-04-12T11:56:54Z</time>
      </trkpt>
      <trkpt lat="49.97835" lon="2.06979">
        <ele>11</ele>
        <time>2022-04-12T11:56:55Z</time>
      </trkpt>
      <trkpt lat="49.97835" lon="2.06978">
        <ele>11</ele>
        <time>2022-04-12T11:56:56Z</time>
      </trkpt>
      <trkpt lat="49.97837" lon="2.06976">
        <ele>11</ele>
        <time>2022-04-12T11:56:57Z</time>
      </trkpt>
      <trkpt lat="49.97837" lon="2.06975">
        <ele>11.1</ele>
        <time>2022-04-12T11:56:58Z</time>
      </trkpt>
      <trkpt lat="49.97838" lon="2.06974">
        <ele>11.1</ele>
        <time>2022-04-12T11:56:59Z</time>
      </trkpt>
      <trkpt lat="49.97839" lon="2.06971">
        <ele>11.1</ele>
        <time>2022-04-12T11:57:01Z</time>
      </trkpt>
      <trkpt lat="49.9784" lon="2.06971">
        <ele>11.1</ele>
        <time>2022-04-12T11:57:02Z</time>
      </trkpt>
      <trkpt lat="49.9784" lon="2.0697">
        <ele>11.1</ele>
        <time>2022-04-12T11:57:03Z</time>
      </trkpt>
      <trkpt lat="49.97841" lon="2.06969">
        <ele>11.1</ele>
        <time>2022-04-12T11:57:04Z</time>
      </trkpt>
      <trkpt lat="49.97842" lon="2.06968">
        <ele>11.2</ele>
        <time>2022-04-12T11:57:05Z</time>
      </trkpt>
      <trkpt lat="49.97843" lon="2.06967">
        <ele>11.2</ele>
        <time>2022-04-12T11:57:06Z</time>
      </trkpt>
      <trkpt lat="49.97845" lon="2.06966">
        <ele>11.2</ele>
        <time>2022-04-12T11:57:07Z</time>
      </trkpt>
      <trkpt lat="49.97846" lon="2.06964">
        <ele>11.2</ele>
        <time>2022-04-12T11:57:08Z</time>
      </trkpt>
      <trkpt lat="49.97847" lon="2.06963">
        <ele>11.2</ele>
        <time>2022-04-12T11:57:10Z</time>
      </trkpt>
      <trkpt lat="49.97848" lon="2.06962">
        <ele>11.3</ele>
        <time>2022-04-12T11:57:11Z</time>
      </trkpt>
      <trkpt lat="49.97849" lon="2.0696">
        <ele>11.3</ele>
        <time>2022-04-12T11:57:12Z</time>
      </trkpt>
      <trkpt lat="49.9785" lon="2.06959">
        <ele>11.3</ele>
        <time>2022-04-12T11:57:13Z</time>
      </trkpt>
      <trkpt lat="49.97852" lon="2.06957">
        <ele>11.3</ele>
        <time>2022-04-12T11:57:14Z</time>
      </trkpt>
      <trkpt lat="49.97853" lon="2.06956">
        <ele>11.3</ele>
        <time>2022-04-12T11:57:15Z</time>
      </trkpt>
      <trkpt lat="49.97854" lon="2.06956">
        <ele>11.3</ele>
        <time>2022-04-12T11:57:16Z</time>
      </trkpt>
      <trkpt lat="49.97855" lon="2.06953">
        <ele>11.4</ele>
        <time>2022-04-12T11:57:17Z</time>
      </trkpt>
      <trkpt lat="49.97856" lon="2.06952">
        <ele>11.4</ele>
        <time>2022-04-12T11:57:19Z</time>
      </trkpt>
      <trkpt lat="49.97857" lon="2.06951">
        <ele>11.4</ele>
        <time>2022-04-12T11:57:20Z</time>
      </trkpt>
      <trkpt lat="49.97858" lon="2.06951">
        <ele>11.4</ele>
        <time>2022-04-12T11:57:21Z</time>
      </trkpt>
      <trkpt lat="49.97859" lon="2.0695">
        <ele>11.4</ele>
        <time>2022-04-12T11:57:22Z</time>
      </trkpt>
      <trkpt lat="49.9786" lon="2.06949">
        <ele>11.4</ele>
        <time>2022-04-12T11:57:23Z</time>
      </trkpt>
      <trkpt lat="49.97861" lon="2.06948">
        <ele>11.4</ele>
        <time>2022-04-12T11:57:24Z</time>
      </trkpt>
      <trkpt lat="49.97861" lon="2.06947">
        <ele>11.4</ele>
        <time>2022-04-12T11:57:25Z</time>
      </trkpt>
      <trkpt lat="49.97864" lon="2.06946">
        <ele>11.4</ele>
        <time>2022-04-12T11:57:27Z</time>
      </trkpt>
      <trkpt lat="49.97865" lon="2.06945">
        <ele>11.4</ele>
        <time>2022-04-12T11:57:28Z</time>
      </trkpt>
      <trkpt lat="49.97867" lon="2.06945">
        <ele>11.4</ele>
        <time>2022-04-12T11:57:29Z</time>
      </trkpt>
      <trkpt lat="49.97868" lon="2.06945">
        <ele>11.4</ele>
        <time>2022-04-12T11:57:31Z</time>
      </trkpt>
      <trkpt lat="49.97869" lon="2.06945">
        <ele>11.4</ele>
        <time>2022-04-12T11:57:32Z</time>
      </trkpt>
      <trkpt lat="49.9787" lon="2.06945">
        <ele>11.4</ele>
        <time>2022-04-12T11:57:33Z</time>
      </trkpt>
      <trkpt lat="49.97871" lon="2.06944">
        <ele>11.4</ele>
        <time>2022-04-12T11:57:34Z</time>
      </trkpt>
      <trkpt lat="49.97872" lon="2.06944">
        <ele>11.4</ele>
        <time>2022-04-12T11:57:35Z</time>
      </trkpt>
      <trkpt lat="49.97874" lon="2.06942">
        <ele>11.4</ele>
        <time>2022-04-12T11:57:36Z</time>
      </trkpt>
      <trkpt lat="49.97875" lon="2.06942">
        <ele>11.4</ele>
        <time>2022-04-12T11:57:38Z</time>
      </trkpt>
      <trkpt lat="49.97876" lon="2.06941">
        <ele>11.4</ele>
        <time>2022-04-12T11:57:39Z</time>
      </trkpt>
      <trkpt lat="49.97877" lon="2.06941">
        <ele>11.4</ele>
        <time>2022-04-12T11:57:40Z</time>
      </trkpt>
      <trkpt lat="49.97878" lon="2.0694">
        <ele>11.4</ele>
        <time>2022-04-12T11:57:41Z</time>
      </trkpt>
      <trkpt lat="49.97879" lon="2.06939">
        <ele>11.4</ele>
        <time>2022-04-12T11:57:42Z</time>
      </trkpt>
      <trkpt lat="49.9788" lon="2.06938">
        <ele>11.5</ele>
        <time>2022-04-12T11:57:43Z</time>
      </trkpt>
      <trkpt lat="49.97881" lon="2.06937">
        <ele>11.5</ele>
        <time>2022-04-12T11:57:44Z</time>
      </trkpt>
      <trkpt lat="49.97882" lon="2.06937">
        <ele>11.5</ele>
        <time>2022-04-12T11:57:46Z</time>
      </trkpt>
      <trkpt lat="49.97883" lon="2.06936">
        <ele>11.5</ele>
        <time>2022-04-12T11:57:47Z</time>
      </trkpt>
      <trkpt lat="49.97884" lon="2.06935">
        <ele>11.5</ele>
        <time>2022-04-12T11:57:48Z</time>
      </trkpt>
      <trkpt lat="49.97885" lon="2.06935">
        <ele>11.5</ele>
        <time>2022-04-12T11:57:49Z</time>
      </trkpt>
      <trkpt lat="49.97886" lon="2.06933">
        <ele>11.5</ele>
        <time>2022-04-12T11:57:50Z</time>
      </trkpt>
      <trkpt lat="49.97887" lon="2.06932">
        <ele>11.5</ele>
        <time>2022-04-12T11:57:51Z</time>
      </trkpt>
      <trkpt lat="49.97888" lon="2.06931">
        <ele>11.5</ele>
        <time>2022-04-12T11:57:52Z</time>
      </trkpt>
      <trkpt lat="49.97889" lon="2.0693">
        <ele>11.5</ele>
        <time>2022-04-12T11:57:54Z</time>
      </trkpt>
      <trkpt lat="49.9789" lon="2.06929">
        <ele>11.5</ele>
        <time>2022-04-12T11:57:55Z</time>
      </trkpt>
      <trkpt lat="49.97891" lon="2.06928">
        <ele>11.5</ele>
        <time>2022-04-12T11:57:56Z</time>
      </trkpt>
      <trkpt lat="49.97892" lon="2.06927">
        <ele>11.5</ele>
        <time>2022-04-12T11:57:57Z</time>
      </trkpt>
      <trkpt lat="49.97893" lon="2.06926">
        <ele>11.5</ele>
        <time>2022-04-12T11:57:58Z</time>
      </trkpt>
      <trkpt lat="49.97894" lon="2.06925">
        <ele>11.5</ele>
        <time>2022-04-12T11:57:59Z</time>
      </trkpt>
      <trkpt lat="49.97895" lon="2.06925">
        <ele>11.5</ele>
        <time>2022-04-12T11:58:00Z</time>
      </trkpt>
      <trkpt lat="49.97897" lon="2.06924">
        <ele>11.5</ele>
        <time>2022-04-12T11:58:02Z</time>
      </trkpt>
      <trkpt lat="49.97898" lon="2.06923">
        <ele>11.5</ele>
        <time>2022-04-12T11:58:03Z</time>
      </trkpt>
      <trkpt lat="49.97899" lon="2.06923">
        <ele>11.5</ele>
        <time>2022-04-12T11:58:04Z</time>
      </trkpt>
      <trkpt lat="49.979" lon="2.06923">
        <ele>11.5</ele>
        <time>2022-04-12T11:58:06Z</time>
      </trkpt>
      <trkpt lat="49.97901" lon="2.06922">
        <ele>11.5</ele>
        <time>2022-04-12T11:58:07Z</time>
      </trkpt>
      <trkpt lat="49.97902" lon="2.06921">
        <ele>11.5</ele>
        <time>2022-04-12T11:58:08Z</time>
      </trkpt>
      <trkpt lat="49.97903" lon="2.0692">
        <ele>11.5</ele>
        <time>2022-04-12T11:58:09Z</time>
      </trkpt>
      <trkpt lat="49.97904" lon="2.0692">
        <ele>11.5</ele>
        <time>2022-04-12T11:58:10Z</time>
      </trkpt>
      <trkpt lat="49.97905" lon="2.06919">
        <ele>11.5</ele>
        <time>2022-04-12T11:58:11Z</time>
      </trkpt>
      <trkpt lat="49.97906" lon="2.06919">
        <ele>11.5</ele>
        <time>2022-04-12T11:58:12Z</time>
      </trkpt>
      <trkpt lat="49.97907" lon="2.06918">
        <ele>11.5</ele>
        <time>2022-04-12T11:58:13Z</time>
      </trkpt>
      <trkpt lat="49.97908" lon="2.06917">
        <ele>11.5</ele>
        <time>2022-04-12T11:58:15Z</time>
      </trkpt>
      <trkpt lat="49.97909" lon="2.06916">
        <ele>11.5</ele>
        <time>2022-04-12T11:58:16Z</time>
      </trkpt>
      <trkpt lat="49.97911" lon="2.06914">
        <ele>11.5</ele>
        <time>2022-04-12T11:58:17Z</time>
      </trkpt>
      <trkpt lat="49.97911" lon="2.06913">
        <ele>11.5</ele>
        <time>2022-04-12T11:58:18Z</time>
      </trkpt>
      <trkpt lat="49.97912" lon="2.06913">
        <ele>11.5</ele>
        <time>2022-04-12T11:58:19Z</time>
      </trkpt>
      <trkpt lat="49.97913" lon="2.06912">
        <ele>11.5</ele>
        <time>2022-04-12T11:58:20Z</time>
      </trkpt>
      <trkpt lat="49.97914" lon="2.06911">
        <ele>11.5</ele>
        <time>2022-04-12T11:58:21Z</time>
      </trkpt>
      <trkpt lat="49.97915" lon="2.0691">
        <ele>11.5</ele>
        <time>2022-04-12T11:58:23Z</time>
      </trkpt>
      <trkpt lat="49.97916" lon="2.06909">
        <ele>11.5</ele>
        <time>2022-04-12T11:58:24Z</time>
      </trkpt>
      <trkpt lat="49.97917" lon="2.06908">
        <ele>11.5</ele>
        <time>2022-04-12T11:58:25Z</time>
      </trkpt>
      <trkpt lat="49.97918" lon="2.06908">
        <ele>11.5</ele>
        <time>2022-04-12T11:58:26Z</time>
      </trkpt>
      <trkpt lat="49.9792" lon="2.06906">
        <ele>11.5</ele>
        <time>2022-04-12T11:58:27Z</time>
      </trkpt>
      <trkpt lat="49.9792" lon="2.06905">
        <ele>11.5</ele>
        <time>2022-04-12T11:58:28Z</time>
      </trkpt>
      <trkpt lat="49.97921" lon="2.06904">
        <ele>11.5</ele>
        <time>2022-04-12T11:58:29Z</time>
      </trkpt>
      <trkpt lat="49.97922" lon="2.06903">
        <ele>11.5</ele>
        <time>2022-04-12T11:58:31Z</time>
      </trkpt>
      <trkpt lat="49.97923" lon="2.06902">
        <ele>11.5</ele>
        <time>2022-04-12T11:58:32Z</time>
      </trkpt>
      <trkpt lat="49.97924" lon="2.06901">
        <ele>11.5</ele>
        <time>2022-04-12T11:58:33Z</time>
      </trkpt>
      <trkpt lat="49.97925" lon="2.06899">
        <ele>11.5</ele>
        <time>2022-04-12T11:58:34Z</time>
      </trkpt>
      <trkpt lat="49.97926" lon="2.06898">
        <ele>11.5</ele>
        <time>2022-04-12T11:58:35Z</time>
      </trkpt>
      <trkpt lat="49.97927" lon="2.06897">
        <ele>11.5</ele>
        <time>2022-04-12T11:58:36Z</time>
      </trkpt>
      <trkpt lat="49.97928" lon="2.06896">
        <ele>11.5</ele>
        <time>2022-04-12T11:58:37Z</time>
      </trkpt>
      <trkpt lat="49.97929" lon="2.06895">
        <ele>11.5</ele>
        <time>2022-04-12T11:58:39Z</time>
      </trkpt>
      <trkpt lat="49.9793" lon="2.06895">
        <ele>11.5</ele>
        <time>2022-04-12T11:58:40Z</time>
      </trkpt>
      <trkpt lat="49.97931" lon="2.06894">
        <ele>11.5</ele>
        <time>2022-04-12T11:58:41Z</time>
      </trkpt>
      <trkpt lat="49.97932" lon="2.06893">
        <ele>11.5</ele>
        <time>2022-04-12T11:58:42Z</time>
      </trkpt>
      <trkpt lat="49.97933" lon="2.06892">
        <ele>11.5</ele>
        <time>2022-04-12T11:58:43Z</time>
      </trkpt>
      <trkpt lat="49.97934" lon="2.06891">
        <ele>11.5</ele>
        <time>2022-04-12T11:58:44Z</time>
      </trkpt>
      <trkpt lat="49.97935" lon="2.0689">
        <ele>11.5</ele>
        <time>2022-04-12T11:58:45Z</time>
      </trkpt>
      <trkpt lat="49.97936" lon="2.06889">
        <ele>11.5</ele>
        <time>2022-04-12T11:58:46Z</time>
      </trkpt>
      <trkpt lat="49.97936" lon="2.06889">
        <ele>11.5</ele>
        <time>2022-04-12T11:58:48Z</time>
      </trkpt>
      <trkpt lat="49.97937" lon="2.06887">
        <ele>11.5</ele>
        <time>2022-04-12T11:58:49Z</time>
      </trkpt>
      <trkpt lat="49.97938" lon="2.06886">
        <ele>11.5</ele>
        <time>2022-04-12T11:58:50Z</time>
      </trkpt>
      <trkpt lat="49.97939" lon="2.06885">
        <ele>11.5</ele>
        <time>2022-04-12T11:58:51Z</time>
      </trkpt>
      <trkpt lat="49.9794" lon="2.06884">
        <ele>11.5</ele>
        <time>2022-04-12T11:58:52Z</time>
      </trkpt>
      <trkpt lat="49.97941" lon="2.06883">
        <ele>11.5</ele>
        <time>2022-04-12T11:58:53Z</time>
      </trkpt>
      <trkpt lat="49.97942" lon="2.06882">
        <ele>11.6</ele>
        <time>2022-04-12T11:58:54Z</time>
      </trkpt>
      <trkpt lat="49.97943" lon="2.06881">
        <ele>11.6</ele>
        <time>2022-04-12T11:58:56Z</time>
      </trkpt>
      <trkpt lat="49.97944" lon="2.0688">
        <ele>11.6</ele>
        <time>2022-04-12T11:58:57Z</time>
      </trkpt>
      <trkpt lat="49.97946" lon="2.06879">
        <ele>11.6</ele>
        <time>2022-04-12T11:58:58Z</time>
      </trkpt>
      <trkpt lat="49.97946" lon="2.06879">
        <ele>11.6</ele>
        <time>2022-04-12T11:58:59Z</time>
      </trkpt>
      <trkpt lat="49.97947" lon="2.06878">
        <ele>11.6</ele>
        <time>2022-04-12T11:59:00Z</time>
      </trkpt>
      <trkpt lat="49.97948" lon="2.06878">
        <ele>11.6</ele>
        <time>2022-04-12T11:59:01Z</time>
      </trkpt>
      <trkpt lat="49.97949" lon="2.06877">
        <ele>11.7</ele>
        <time>2022-04-12T11:59:02Z</time>
      </trkpt>
      <trkpt lat="49.9795" lon="2.06877">
        <ele>11.7</ele>
        <time>2022-04-12T11:59:03Z</time>
      </trkpt>
      <trkpt lat="49.97952" lon="2.06876">
        <ele>11.7</ele>
        <time>2022-04-12T11:59:05Z</time>
      </trkpt>
      <trkpt lat="49.97953" lon="2.06875">
        <ele>11.7</ele>
        <time>2022-04-12T11:59:06Z</time>
      </trkpt>
      <trkpt lat="49.97954" lon="2.06875">
        <ele>11.7</ele>
        <time>2022-04-12T11:59:07Z</time>
      </trkpt>
      <trkpt lat="49.97955" lon="2.06874">
        <ele>11.7</ele>
        <time>2022-04-12T11:59:08Z</time>
      </trkpt>
      <trkpt lat="49.97956" lon="2.06873">
        <ele>11.8</ele>
        <time>2022-04-12T11:59:09Z</time>
      </trkpt>
      <trkpt lat="49.97957" lon="2.06873">
        <ele>11.8</ele>
        <time>2022-04-12T11:59:10Z</time>
      </trkpt>
      <trkpt lat="49.97959" lon="2.06872">
        <ele>11.8</ele>
        <time>2022-04-12T11:59:11Z</time>
      </trkpt>
      <trkpt lat="49.97959" lon="2.06871">
        <ele>11.8</ele>
        <time>2022-04-12T11:59:13Z</time>
      </trkpt>
      <trkpt lat="49.9796" lon="2.06871">
        <ele>11.9</ele>
        <time>2022-04-12T11:59:14Z</time>
      </trkpt>
      <trkpt lat="49.97962" lon="2.0687">
        <ele>11.9</ele>
        <time>2022-04-12T11:59:15Z</time>
      </trkpt>
      <trkpt lat="49.97963" lon="2.0687">
        <ele>11.9</ele>
        <time>2022-04-12T11:59:16Z</time>
      </trkpt>
      <trkpt lat="49.97964" lon="2.06869">
        <ele>11.9</ele>
        <time>2022-04-12T11:59:17Z</time>
      </trkpt>
      <trkpt lat="49.97965" lon="2.06869">
        <ele>12</ele>
        <time>2022-04-12T11:59:18Z</time>
      </trkpt>
      <trkpt lat="49.97966" lon="2.06868">
        <ele>12</ele>
        <time>2022-04-12T11:59:20Z</time>
      </trkpt>
      <trkpt lat="49.97967" lon="2.06867">
        <ele>12</ele>
        <time>2022-04-12T11:59:21Z</time>
      </trkpt>
      <trkpt lat="49.97968" lon="2.06867">
        <ele>12.1</ele>
        <time>2022-04-12T11:59:22Z</time>
      </trkpt>
      <trkpt lat="49.97969" lon="2.06866">
        <ele>12.1</ele>
        <time>2022-04-12T11:59:23Z</time>
      </trkpt>
      <trkpt lat="49.9797" lon="2.06865">
        <ele>12.1</ele>
        <time>2022-04-12T11:59:24Z</time>
      </trkpt>
      <trkpt lat="49.97971" lon="2.06865">
        <ele>12.2</ele>
        <time>2022-04-12T11:59:25Z</time>
      </trkpt>
      <trkpt lat="49.97971" lon="2.06864">
        <ele>12.2</ele>
        <time>2022-04-12T11:59:27Z</time>
      </trkpt>
      <trkpt lat="49.97972" lon="2.06863">
        <ele>12.2</ele>
        <time>2022-04-12T11:59:28Z</time>
      </trkpt>
      <trkpt lat="49.97973" lon="2.06863">
        <ele>12.2</ele>
        <time>2022-04-12T11:59:29Z</time>
      </trkpt>
      <trkpt lat="49.97974" lon="2.06862">
        <ele>12.3</ele>
        <time>2022-04-12T11:59:30Z</time>
      </trkpt>
      <trkpt lat="49.97974" lon="2.06861">
        <ele>12.3</ele>
        <time>2022-04-12T11:59:32Z</time>
      </trkpt>
      <trkpt lat="49.97975" lon="2.06861">
        <ele>12.3</ele>
        <time>2022-04-12T11:59:33Z</time>
      </trkpt>
      <trkpt lat="49.97976" lon="2.0686">
        <ele>12.3</ele>
        <time>2022-04-12T11:59:34Z</time>
      </trkpt>
      <trkpt lat="49.97976" lon="2.0686">
        <ele>12.3</ele>
        <time>2022-04-12T11:59:35Z</time>
      </trkpt>
      <trkpt lat="49.97977" lon="2.06859">
        <ele>12.4</ele>
        <time>2022-04-12T11:59:36Z</time>
      </trkpt>
      <trkpt lat="49.97978" lon="2.06858">
        <ele>12.4</ele>
        <time>2022-04-12T11:59:37Z</time>
      </trkpt>
      <trkpt lat="49.97978" lon="2.06855">
        <ele>12.4</ele>
        <time>2022-04-12T11:59:38Z</time>
      </trkpt>
      <trkpt lat="49.97978" lon="2.06854">
        <ele>12.5</ele>
        <time>2022-04-12T11:59:39Z</time>
      </trkpt>
      <trkpt lat="49.97978" lon="2.06852">
        <ele>12.5</ele>
        <time>2022-04-12T11:59:41Z</time>
      </trkpt>
      <trkpt lat="49.97978" lon="2.06851">
        <ele>12.5</ele>
        <time>2022-04-12T11:59:42Z</time>
      </trkpt>
      <trkpt lat="49.97978" lon="2.0685">
        <ele>12.5</ele>
        <time>2022-04-12T11:59:43Z</time>
      </trkpt>
      <trkpt lat="49.97977" lon="2.06848">
        <ele>12.5</ele>
        <time>2022-04-12T11:59:44Z</time>
      </trkpt>
      <trkpt lat="49.97977" lon="2.06846">
        <ele>12.5</ele>
        <time>2022-04-12T11:59:46Z</time>
      </trkpt>
      <trkpt lat="49.97977" lon="2.06844">
        <ele>12.5</ele>
        <time>2022-04-12T11:59:47Z</time>
      </trkpt>
      <trkpt lat="49.97976" lon="2.06841">
        <ele>12.5</ele>
        <time>2022-04-12T11:59:48Z</time>
      </trkpt>
      <trkpt lat="49.97976" lon="2.0684">
        <ele>12.4</ele>
        <time>2022-04-12T11:59:49Z</time>
      </trkpt>
      <trkpt lat="49.97975" lon="2.06838">
        <ele>12.4</ele>
        <time>2022-04-12T11:59:50Z</time>
      </trkpt>
      <trkpt lat="49.97975" lon="2.06835">
        <ele>12.3</ele>
        <time>2022-04-12T11:59:52Z</time>
      </trkpt>
      <trkpt lat="49.97975" lon="2.06834">
        <ele>12.3</ele>
        <time>2022-04-12T11:59:53Z</time>
      </trkpt>
      <trkpt lat="49.97975" lon="2.06833">
        <ele>12.3</ele>
        <time>2022-04-12T11:59:54Z</time>
      </trkpt>
      <trkpt lat="49.97975" lon="2.06831">
        <ele>12.2</ele>
        <time>2022-04-12T11:59:55Z</time>
      </trkpt>
      <trkpt lat="49.97975" lon="2.06828">
        <ele>12.1</ele>
        <time>2022-04-12T11:59:56Z</time>
      </trkpt>
      <trkpt lat="49.97975" lon="2.06824">
        <ele>12</ele>
        <time>2022-04-12T11:59:57Z</time>
      </trkpt>
      <trkpt lat="49.97975" lon="2.06823">
        <ele>12</ele>
        <time>2022-04-12T11:59:59Z</time>
      </trkpt>
      <trkpt lat="49.97976" lon="2.06821">
        <ele>12</ele>
        <time>2022-04-12T12:00:00Z</time>
      </trkpt>
      <trkpt lat="49.97976" lon="2.0682">
        <ele>11.9</ele>
        <time>2022-04-12T12:00:01Z</time>
      </trkpt>
      <trkpt lat="49.97976" lon="2.06818">
        <ele>11.9</ele>
        <time>2022-04-12T12:00:02Z</time>
      </trkpt>
      <trkpt lat="49.97976" lon="2.06817">
        <ele>11.9</ele>
        <time>2022-04-12T12:00:03Z</time>
      </trkpt>
      <trkpt lat="49.97976" lon="2.06815">
        <ele>11.8</ele>
        <time>2022-04-12T12:00:04Z</time>
      </trkpt>
      <trkpt lat="49.97975" lon="2.06813">
        <ele>11.8</ele>
        <time>2022-04-12T12:00:05Z</time>
      </trkpt>
      <trkpt lat="49.97975" lon="2.06811">
        <ele>11.7</ele>
        <time>2022-04-12T12:00:06Z</time>
      </trkpt>
      <trkpt lat="49.97974" lon="2.06809">
        <ele>11.7</ele>
        <time>2022-04-12T12:00:07Z</time>
      </trkpt>
      <trkpt lat="49.97973" lon="2.06808">
        <ele>11.7</ele>
        <time>2022-04-12T12:00:09Z</time>
      </trkpt>
      <trkpt lat="49.97972" lon="2.06806">
        <ele>11.6</ele>
        <time>2022-04-12T12:00:10Z</time>
      </trkpt>
      <trkpt lat="49.97971" lon="2.06805">
        <ele>11.6</ele>
        <time>2022-04-12T12:00:11Z</time>
      </trkpt>
      <trkpt lat="49.97971" lon="2.06804">
        <ele>11.6</ele>
        <time>2022-04-12T12:00:12Z</time>
      </trkpt>
      <trkpt lat="49.97969" lon="2.06802">
        <ele>11.5</ele>
        <time>2022-04-12T12:00:13Z</time>
      </trkpt>
      <trkpt lat="49.97968" lon="2.06802">
        <ele>11.5</ele>
        <time>2022-04-12T12:00:14Z</time>
      </trkpt>
      <trkpt lat="49.97968" lon="2.06801">
        <ele>11.5</ele>
        <time>2022-04-12T12:00:15Z</time>
      </trkpt>
      <trkpt lat="49.97967" lon="2.068">
        <ele>11.5</ele>
        <time>2022-04-12T12:00:17Z</time>
      </trkpt>
      <trkpt lat="49.97966" lon="2.06799">
        <ele>11.5</ele>
        <time>2022-04-12T12:00:18Z</time>
      </trkpt>
      <trkpt lat="49.97965" lon="2.06799">
        <ele>11.4</ele>
        <time>2022-04-12T12:00:19Z</time>
      </trkpt>
      <trkpt lat="49.97963" lon="2.06796">
        <ele>11.4</ele>
        <time>2022-04-12T12:00:20Z</time>
      </trkpt>
      <trkpt lat="49.97963" lon="2.06795">
        <ele>11.4</ele>
        <time>2022-04-12T12:00:21Z</time>
      </trkpt>
      <trkpt lat="49.97962" lon="2.06794">
        <ele>11.4</ele>
        <time>2022-04-12T12:00:22Z</time>
      </trkpt>
      <trkpt lat="49.97961" lon="2.06793">
        <ele>11.4</ele>
        <time>2022-04-12T12:00:23Z</time>
      </trkpt>
      <trkpt lat="49.97961" lon="2.06791">
        <ele>11.4</ele>
        <time>2022-04-12T12:00:25Z</time>
      </trkpt>
      <trkpt lat="49.9796" lon="2.0679">
        <ele>11.3</ele>
        <time>2022-04-12T12:00:26Z</time>
      </trkpt>
      <trkpt lat="49.97959" lon="2.06788">
        <ele>11.3</ele>
        <time>2022-04-12T12:00:27Z</time>
      </trkpt>
      <trkpt lat="49.97958" lon="2.06787">
        <ele>11.3</ele>
        <time>2022-04-12T12:00:28Z</time>
      </trkpt>
      <trkpt lat="49.97957" lon="2.06786">
        <ele>11.3</ele>
        <time>2022-04-12T12:00:29Z</time>
      </trkpt>
      <trkpt lat="49.97956" lon="2.06785">
        <ele>11.3</ele>
        <time>2022-04-12T12:00:30Z</time>
      </trkpt>
      <trkpt lat="49.97955" lon="2.06784">
        <ele>11.3</ele>
        <time>2022-04-12T12:00:31Z</time>
      </trkpt>
      <trkpt lat="49.97955" lon="2.06782">
        <ele>11.3</ele>
        <time>2022-04-12T12:00:33Z</time>
      </trkpt>
      <trkpt lat="49.97954" lon="2.06781">
        <ele>11.3</ele>
        <time>2022-04-12T12:00:34Z</time>
      </trkpt>
      <trkpt lat="49.97953" lon="2.0678">
        <ele>11.3</ele>
        <time>2022-04-12T12:00:35Z</time>
      </trkpt>
      <trkpt lat="49.97952" lon="2.06779">
        <ele>11.3</ele>
        <time>2022-04-12T12:00:36Z</time>
      </trkpt>
      <trkpt lat="49.97951" lon="2.06776">
        <ele>11.3</ele>
        <time>2022-04-12T12:00:37Z</time>
      </trkpt>
      <trkpt lat="49.97951" lon="2.06775">
        <ele>11.3</ele>
        <time>2022-04-12T12:00:38Z</time>
      </trkpt>
      <trkpt lat="49.9795" lon="2.06774">
        <ele>11.3</ele>
        <time>2022-04-12T12:00:39Z</time>
      </trkpt>
      <trkpt lat="49.97948" lon="2.06772">
        <ele>11.3</ele>
        <time>2022-04-12T12:00:40Z</time>
      </trkpt>
      <trkpt lat="49.97948" lon="2.06771">
        <ele>11.3</ele>
        <time>2022-04-12T12:00:42Z</time>
      </trkpt>
      <trkpt lat="49.97947" lon="2.0677">
        <ele>11.3</ele>
        <time>2022-04-12T12:00:43Z</time>
      </trkpt>
      <trkpt lat="49.97947" lon="2.06769">
        <ele>11.3</ele>
        <time>2022-04-12T12:00:44Z</time>
      </trkpt>
      <trkpt lat="49.97946" lon="2.06768">
        <ele>11.3</ele>
        <time>2022-04-12T12:00:45Z</time>
      </trkpt>
      <trkpt lat="49.97945" lon="2.06767">
        <ele>11.3</ele>
        <time>2022-04-12T12:00:46Z</time>
      </trkpt>
      <trkpt lat="49.97944" lon="2.06766">
        <ele>11.3</ele>
        <time>2022-04-12T12:00:47Z</time>
      </trkpt>
      <trkpt lat="49.97943" lon="2.06764">
        <ele>11.3</ele>
        <time>2022-04-12T12:00:48Z</time>
      </trkpt>
      <trkpt lat="49.97942" lon="2.06763">
        <ele>11.3</ele>
        <time>2022-04-12T12:00:49Z</time>
      </trkpt>
      <trkpt lat="49.97942" lon="2.06762">
        <ele>11.3</ele>
        <time>2022-04-12T12:00:51Z</time>
      </trkpt>
      <trkpt lat="49.97941" lon="2.06761">
        <ele>11.3</ele>
        <time>2022-04-12T12:00:52Z</time>
      </trkpt>
      <trkpt lat="49.9794" lon="2.0676">
        <ele>11.3</ele>
        <time>2022-04-12T12:00:53Z</time>
      </trkpt>
      <trkpt lat="49.97938" lon="2.06758">
        <ele>11.3</ele>
        <time>2022-04-12T12:00:54Z</time>
      </trkpt>
      <trkpt lat="49.97937" lon="2.06757">
        <ele>11.3</ele>
        <time>2022-04-12T12:00:55Z</time>
      </trkpt>
      <trkpt lat="49.97937" lon="2.06756">
        <ele>11.4</ele>
        <time>2022-04-12T12:00:56Z</time>
      </trkpt>
      <trkpt lat="49.97936" lon="2.06755">
        <ele>11.4</ele>
        <time>2022-04-12T12:00:58Z</time>
      </trkpt>
      <trkpt lat="49.97935" lon="2.06754">
        <ele>11.4</ele>
        <time>2022-04-12T12:00:59Z</time>
      </trkpt>
      <trkpt lat="49.97934" lon="2.06754">
        <ele>11.4</ele>
        <time>2022-04-12T12:01:00Z</time>
      </trkpt>
      <trkpt lat="49.97932" lon="2.06751">
        <ele>11.4</ele>
        <time>2022-04-12T12:01:01Z</time>
      </trkpt>
      <trkpt lat="49.97932" lon="2.0675">
        <ele>11.4</ele>
        <time>2022-04-12T12:01:02Z</time>
      </trkpt>
      <trkpt lat="49.97931" lon="2.06749">
        <ele>11.4</ele>
        <time>2022-04-12T12:01:03Z</time>
      </trkpt>
      <trkpt lat="49.9793" lon="2.06747">
        <ele>11.4</ele>
        <time>2022-04-12T12:01:04Z</time>
      </trkpt>
      <trkpt lat="49.9793" lon="2.06746">
        <ele>11.5</ele>
        <time>2022-04-12T12:01:06Z</time>
      </trkpt>
      <trkpt lat="49.97929" lon="2.06745">
        <ele>11.5</ele>
        <time>2022-04-12T12:01:07Z</time>
      </trkpt>
      <trkpt lat="49.97929" lon="2.06743">
        <ele>11.5</ele>
        <time>2022-04-12T12:01:08Z</time>
      </trkpt>
      <trkpt lat="49.97928" lon="2.06742">
        <ele>11.5</ele>
        <time>2022-04-12T12:01:09Z</time>
      </trkpt>
      <trkpt lat="49.97928" lon="2.0674">
        <ele>11.5</ele>
        <time>2022-04-12T12:01:10Z</time>
      </trkpt>
      <trkpt lat="49.97927" lon="2.06737">
        <ele>11.6</ele>
        <time>2022-04-12T12:01:11Z</time>
      </trkpt>
      <trkpt lat="49.97926" lon="2.06736">
        <ele>11.6</ele>
        <time>2022-04-12T12:01:13Z</time>
      </trkpt>
      <trkpt lat="49.97926" lon="2.06735">
        <ele>11.6</ele>
        <time>2022-04-12T12:01:14Z</time>
      </trkpt>
      <trkpt lat="49.97925" lon="2.06733">
        <ele>11.6</ele>
        <time>2022-04-12T12:01:15Z</time>
      </trkpt>
      <trkpt lat="49.97925" lon="2.06732">
        <ele>11.6</ele>
        <time>2022-04-12T12:01:16Z</time>
      </trkpt>
      <trkpt lat="49.97925" lon="2.0673">
        <ele>11.7</ele>
        <time>2022-04-12T12:01:17Z</time>
      </trkpt>
      <trkpt lat="49.97924" lon="2.06728">
        <ele>11.7</ele>
        <time>2022-04-12T12:01:18Z</time>
      </trkpt>
      <trkpt lat="49.97924" lon="2.06727">
        <ele>11.7</ele>
        <time>2022-04-12T12:01:19Z</time>
      </trkpt>
      <trkpt lat="49.97923" lon="2.06725">
        <ele>11.7</ele>
        <time>2022-04-12T12:01:21Z</time>
      </trkpt>
      <trkpt lat="49.97922" lon="2.06724">
        <ele>11.8</ele>
        <time>2022-04-12T12:01:22Z</time>
      </trkpt>
      <trkpt lat="49.97922" lon="2.06722">
        <ele>11.8</ele>
        <time>2022-04-12T12:01:23Z</time>
      </trkpt>
      <trkpt lat="49.97921" lon="2.06721">
        <ele>11.8</ele>
        <time>2022-04-12T12:01:24Z</time>
      </trkpt>
      <trkpt lat="49.9792" lon="2.0672">
        <ele>11.8</ele>
        <time>2022-04-12T12:01:25Z</time>
      </trkpt>
      <trkpt lat="49.9792" lon="2.06718">
        <ele>11.9</ele>
        <time>2022-04-12T12:01:26Z</time>
      </trkpt>
      <trkpt lat="49.97919" lon="2.06716">
        <ele>11.9</ele>
        <time>2022-04-12T12:01:27Z</time>
      </trkpt>
      <trkpt lat="49.97918" lon="2.06715">
        <ele>11.9</ele>
        <time>2022-04-12T12:01:29Z</time>
      </trkpt>
      <trkpt lat="49.97918" lon="2.06714">
        <ele>11.9</ele>
        <time>2022-04-12T12:01:30Z</time>
      </trkpt>
      <trkpt lat="49.97917" lon="2.06712">
        <ele>12</ele>
        <time>2022-04-12T12:01:31Z</time>
      </trkpt>
      <trkpt lat="49.97916" lon="2.06711">
        <ele>12</ele>
        <time>2022-04-12T12:01:32Z</time>
      </trkpt>
      <trkpt lat="49.97916" lon="2.0671">
        <ele>12</ele>
        <time>2022-04-12T12:01:33Z</time>
      </trkpt>
      <trkpt lat="49.97915" lon="2.06708">
        <ele>12</ele>
        <time>2022-04-12T12:01:34Z</time>
      </trkpt>
      <trkpt lat="49.97915" lon="2.06707">
        <ele>12.1</ele>
        <time>2022-04-12T12:01:35Z</time>
      </trkpt>
      <trkpt lat="49.97915" lon="2.06705">
        <ele>12.1</ele>
        <time>2022-04-12T12:01:37Z</time>
      </trkpt>
      <trkpt lat="49.97915" lon="2.06704">
        <ele>12.3</ele>
        <time>2022-04-12T12:01:38Z</time>
      </trkpt>
      <trkpt lat="49.97915" lon="2.06702">
        <ele>12.3</ele>
        <time>2022-04-12T12:01:39Z</time>
      </trkpt>
      <trkpt lat="49.97915" lon="2.06701">
        <ele>12.3</ele>
        <time>2022-04-12T12:01:40Z</time>
      </trkpt>
      <trkpt lat="49.97916" lon="2.067">
        <ele>12.3</ele>
        <time>2022-04-12T12:01:42Z</time>
      </trkpt>
      <trkpt lat="49.97917" lon="2.06699">
        <ele>12.4</ele>
        <time>2022-04-12T12:01:43Z</time>
      </trkpt>
      <trkpt lat="49.97918" lon="2.06698">
        <ele>12.4</ele>
        <time>2022-04-12T12:01:44Z</time>
      </trkpt>
      <trkpt lat="49.97919" lon="2.06698">
        <ele>12.4</ele>
        <time>2022-04-12T12:01:45Z</time>
      </trkpt>
      <trkpt lat="49.9792" lon="2.06697">
        <ele>12.4</ele>
        <time>2022-04-12T12:01:46Z</time>
      </trkpt>
      <trkpt lat="49.97921" lon="2.06697">
        <ele>12.4</ele>
        <time>2022-04-12T12:01:47Z</time>
      </trkpt>
      <trkpt lat="49.97922" lon="2.06696">
        <ele>12.5</ele>
        <time>2022-04-12T12:01:48Z</time>
      </trkpt>
      <trkpt lat="49.97923" lon="2.06695">
        <ele>12.5</ele>
        <time>2022-04-12T12:01:49Z</time>
      </trkpt>
      <trkpt lat="49.97924" lon="2.06694">
        <ele>12.5</ele>
        <time>2022-04-12T12:01:50Z</time>
      </trkpt>
      <trkpt lat="49.97925" lon="2.06693">
        <ele>12.5</ele>
        <time>2022-04-12T12:01:51Z</time>
      </trkpt>
      <trkpt lat="49.97926" lon="2.06692">
        <ele>12.6</ele>
        <time>2022-04-12T12:01:53Z</time>
      </trkpt>
      <trkpt lat="49.97926" lon="2.06691">
        <ele>12.6</ele>
        <time>2022-04-12T12:01:54Z</time>
      </trkpt>
      <trkpt lat="49.97927" lon="2.06689">
        <ele>12.6</ele>
        <time>2022-04-12T12:01:55Z</time>
      </trkpt>
      <trkpt lat="49.97928" lon="2.06688">
        <ele>12.6</ele>
        <time>2022-04-12T12:01:56Z</time>
      </trkpt>
      <trkpt lat="49.97928" lon="2.06687">
        <ele>12.7</ele>
        <time>2022-04-12T12:01:57Z</time>
      </trkpt>
      <trkpt lat="49.97929" lon="2.06685">
        <ele>12.7</ele>
        <time>2022-04-12T12:01:58Z</time>
      </trkpt>
      <trkpt lat="49.9793" lon="2.06684">
        <ele>12.7</ele>
        <time>2022-04-12T12:02:00Z</time>
      </trkpt>
      <trkpt lat="49.97931" lon="2.06683">
        <ele>12.7</ele>
        <time>2022-04-12T12:02:01Z</time>
      </trkpt>
      <trkpt lat="49.97931" lon="2.06682">
        <ele>12.8</ele>
        <time>2022-04-12T12:02:02Z</time>
      </trkpt>
      <trkpt lat="49.97932" lon="2.06681">
        <ele>12.8</ele>
        <time>2022-04-12T12:02:03Z</time>
      </trkpt>
      <trkpt lat="49.97933" lon="2.0668">
        <ele>12.8</ele>
        <time>2022-04-12T12:02:04Z</time>
      </trkpt>
      <trkpt lat="49.97934" lon="2.06679">
        <ele>12.9</ele>
        <time>2022-04-12T12:02:05Z</time>
      </trkpt>
      <trkpt lat="49.97935" lon="2.06677">
        <ele>12.9</ele>
        <time>2022-04-12T12:02:06Z</time>
      </trkpt>
      <trkpt lat="49.97935" lon="2.06676">
        <ele>12.9</ele>
        <time>2022-04-12T12:02:07Z</time>
      </trkpt>
      <trkpt lat="49.97936" lon="2.06675">
        <ele>13</ele>
        <time>2022-04-12T12:02:08Z</time>
      </trkpt>
      <trkpt lat="49.97937" lon="2.06674">
        <ele>13</ele>
        <time>2022-04-12T12:02:10Z</time>
      </trkpt>
      <trkpt lat="49.97938" lon="2.06673">
        <ele>13</ele>
        <time>2022-04-12T12:02:11Z</time>
      </trkpt>
      <trkpt lat="49.97939" lon="2.06672">
        <ele>13.1</ele>
        <time>2022-04-12T12:02:12Z</time>
      </trkpt>
      <trkpt lat="49.9794" lon="2.06671">
        <ele>13.1</ele>
        <time>2022-04-12T12:02:13Z</time>
      </trkpt>
      <trkpt lat="49.97941" lon="2.0667">
        <ele>13.1</ele>
        <time>2022-04-12T12:02:14Z</time>
      </trkpt>
      <trkpt lat="49.97942" lon="2.06669">
        <ele>13.2</ele>
        <time>2022-04-12T12:02:16Z</time>
      </trkpt>
      <trkpt lat="49.97944" lon="2.06667">
        <ele>13.2</ele>
        <time>2022-04-12T12:02:17Z</time>
      </trkpt>
      <trkpt lat="49.97944" lon="2.06666">
        <ele>13.2</ele>
        <time>2022-04-12T12:02:18Z</time>
      </trkpt>
      <trkpt lat="49.97945" lon="2.06665">
        <ele>13.3</ele>
        <time>2022-04-12T12:02:19Z</time>
      </trkpt>
      <trkpt lat="49.97947" lon="2.06664">
        <ele>13.3</ele>
        <time>2022-04-12T12:02:20Z</time>
      </trkpt>
      <trkpt lat="49.97947" lon="2.06663">
        <ele>13.4</ele>
        <time>2022-04-12T12:02:21Z</time>
      </trkpt>
      <trkpt lat="49.97948" lon="2.06662">
        <ele>13.4</ele>
        <time>2022-04-12T12:02:22Z</time>
      </trkpt>
      <trkpt lat="49.9795" lon="2.0666">
        <ele>13.4</ele>
        <time>2022-04-12T12:02:24Z</time>
      </trkpt>
      <trkpt lat="49.97951" lon="2.0666">
        <ele>13.5</ele>
        <time>2022-04-12T12:02:25Z</time>
      </trkpt>
      <trkpt lat="49.97951" lon="2.06659">
        <ele>13.5</ele>
        <time>2022-04-12T12:02:26Z</time>
      </trkpt>
      <trkpt lat="49.97952" lon="2.06658">
        <ele>13.5</ele>
        <time>2022-04-12T12:02:27Z</time>
      </trkpt>
      <trkpt lat="49.97953" lon="2.06657">
        <ele>13.6</ele>
        <time>2022-04-12T12:02:28Z</time>
      </trkpt>
      <trkpt lat="49.97954" lon="2.06656">
        <ele>13.6</ele>
        <time>2022-04-12T12:02:29Z</time>
      </trkpt>
      <trkpt lat="49.97955" lon="2.06655">
        <ele>13.6</ele>
        <time>2022-04-12T12:02:31Z</time>
      </trkpt>
      <trkpt lat="49.97956" lon="2.06654">
        <ele>13.7</ele>
        <time>2022-04-12T12:02:32Z</time>
      </trkpt>
      <trkpt lat="49.97956" lon="2.06653">
        <ele>13.7</ele>
        <time>2022-04-12T12:02:33Z</time>
      </trkpt>
      <trkpt lat="49.97957" lon="2.06651">
        <ele>13.7</ele>
        <time>2022-04-12T12:02:34Z</time>
      </trkpt>
      <trkpt lat="49.97957" lon="2.0665">
        <ele>13.8</ele>
        <time>2022-04-12T12:02:35Z</time>
      </trkpt>
      <trkpt lat="49.97958" lon="2.06648">
        <ele>13.8</ele>
        <time>2022-04-12T12:02:36Z</time>
      </trkpt>
      <trkpt lat="49.97959" lon="2.06645">
        <ele>13.9</ele>
        <time>2022-04-12T12:02:38Z</time>
      </trkpt>
      <trkpt lat="49.9796" lon="2.06644">
        <ele>14</ele>
        <time>2022-04-12T12:02:39Z</time>
      </trkpt>
      <trkpt lat="49.9796" lon="2.06643">
        <ele>14</ele>
        <time>2022-04-12T12:02:40Z</time>
      </trkpt>
      <trkpt lat="49.97961" lon="2.06641">
        <ele>14.1</ele>
        <time>2022-04-12T12:02:41Z</time>
      </trkpt>
      <trkpt lat="49.97961" lon="2.0664">
        <ele>14.2</ele>
        <time>2022-04-12T12:02:42Z</time>
      </trkpt>
      <trkpt lat="49.97961" lon="2.06638">
        <ele>14.2</ele>
        <time>2022-04-12T12:02:43Z</time>
      </trkpt>
      <trkpt lat="49.97962" lon="2.06635">
        <ele>14.4</ele>
        <time>2022-04-12T12:02:44Z</time>
      </trkpt>
      <trkpt lat="49.97962" lon="2.06634">
        <ele>14.4</ele>
        <time>2022-04-12T12:02:46Z</time>
      </trkpt>
      <trkpt lat="49.97963" lon="2.06632">
        <ele>14.5</ele>
        <time>2022-04-12T12:02:47Z</time>
      </trkpt>
      <trkpt lat="49.97963" lon="2.06631">
        <ele>14.5</ele>
        <time>2022-04-12T12:02:48Z</time>
      </trkpt>
      <trkpt lat="49.97964" lon="2.06629">
        <ele>14.6</ele>
        <time>2022-04-12T12:02:49Z</time>
      </trkpt>
      <trkpt lat="49.97964" lon="2.06628">
        <ele>14.7</ele>
        <time>2022-04-12T12:02:50Z</time>
      </trkpt>
      <trkpt lat="49.97966" lon="2.06625">
        <ele>14.8</ele>
        <time>2022-04-12T12:02:51Z</time>
      </trkpt>
      <trkpt lat="49.97966" lon="2.06624">
        <ele>14.9</ele>
        <time>2022-04-12T12:02:53Z</time>
      </trkpt>
      <trkpt lat="49.97967" lon="2.06623">
        <ele>14.9</ele>
        <time>2022-04-12T12:02:54Z</time>
      </trkpt>
      <trkpt lat="49.97968" lon="2.0662">
        <ele>15</ele>
        <time>2022-04-12T12:02:55Z</time>
      </trkpt>
      <trkpt lat="49.97969" lon="2.06619">
        <ele>15.1</ele>
        <time>2022-04-12T12:02:56Z</time>
      </trkpt>
      <trkpt lat="49.97969" lon="2.06618">
        <ele>15.2</ele>
        <time>2022-04-12T12:02:57Z</time>
      </trkpt>
      <trkpt lat="49.9797" lon="2.06616">
        <ele>15.3</ele>
        <time>2022-04-12T12:02:58Z</time>
      </trkpt>
      <trkpt lat="49.97971" lon="2.06615">
        <ele>15.3</ele>
        <time>2022-04-12T12:03:00Z</time>
      </trkpt>
      <trkpt lat="49.97971" lon="2.06614">
        <ele>15.4</ele>
        <time>2022-04-12T12:03:01Z</time>
      </trkpt>
      <trkpt lat="49.97972" lon="2.06611">
        <ele>15.5</ele>
        <time>2022-04-12T12:03:02Z</time>
      </trkpt>
      <trkpt lat="49.97973" lon="2.0661">
        <ele>15.6</ele>
        <time>2022-04-12T12:03:03Z</time>
      </trkpt>
      <trkpt lat="49.97973" lon="2.06609">
        <ele>15.6</ele>
        <time>2022-04-12T12:03:04Z</time>
      </trkpt>
      <trkpt lat="49.97974" lon="2.06606">
        <ele>15.8</ele>
        <time>2022-04-12T12:03:05Z</time>
      </trkpt>
      <trkpt lat="49.97975" lon="2.06605">
        <ele>15.8</ele>
        <time>2022-04-12T12:03:07Z</time>
      </trkpt>
      <trkpt lat="49.97975" lon="2.06604">
        <ele>15.9</ele>
        <time>2022-04-12T12:03:08Z</time>
      </trkpt>
      <trkpt lat="49.97975" lon="2.06602">
        <ele>16</ele>
        <time>2022-04-12T12:03:09Z</time>
      </trkpt>
      <trkpt lat="49.97976" lon="2.066">
        <ele>16</ele>
        <time>2022-04-12T12:03:10Z</time>
      </trkpt>
      <trkpt lat="49.97976" lon="2.06599">
        <ele>16.1</ele>
        <time>2022-04-12T12:03:11Z</time>
      </trkpt>
      <trkpt lat="49.97976" lon="2.06597">
        <ele>16.2</ele>
        <time>2022-04-12T12:03:12Z</time>
      </trkpt>
      <trkpt lat="49.97976" lon="2.06595">
        <ele>16.3</ele>
        <time>2022-04-12T12:03:13Z</time>
      </trkpt>
      <trkpt lat="49.97977" lon="2.06593">
        <ele>16.3</ele>
        <time>2022-04-12T12:03:15Z</time>
      </trkpt>
      <trkpt lat="49.97978" lon="2.0659">
        <ele>16.5</ele>
        <time>2022-04-12T12:03:16Z</time>
      </trkpt>
      <trkpt lat="49.97978" lon="2.06589">
        <ele>16.5</ele>
        <time>2022-04-12T12:03:17Z</time>
      </trkpt>
      <trkpt lat="49.97978" lon="2.06588">
        <ele>16.6</ele>
        <time>2022-04-12T12:03:18Z</time>
      </trkpt>
      <trkpt lat="49.97979" lon="2.06585">
        <ele>16.7</ele>
        <time>2022-04-12T12:03:19Z</time>
      </trkpt>
      <trkpt lat="49.9798" lon="2.06584">
        <ele>16.8</ele>
        <time>2022-04-12T12:03:20Z</time>
      </trkpt>
      <trkpt lat="49.9798" lon="2.06582">
        <ele>16.9</ele>
        <time>2022-04-12T12:03:22Z</time>
      </trkpt>
      <trkpt lat="49.97981" lon="2.06581">
        <ele>16.9</ele>
        <time>2022-04-12T12:03:23Z</time>
      </trkpt>
      <trkpt lat="49.97981" lon="2.06579">
        <ele>17</ele>
        <time>2022-04-12T12:03:24Z</time>
      </trkpt>
      <trkpt lat="49.97982" lon="2.06578">
        <ele>17.1</ele>
        <time>2022-04-12T12:03:25Z</time>
      </trkpt>
      <trkpt lat="49.97982" lon="2.06577">
        <ele>17.1</ele>
        <time>2022-04-12T12:03:26Z</time>
      </trkpt>
      <trkpt lat="49.97983" lon="2.06575">
        <ele>17.2</ele>
        <time>2022-04-12T12:03:27Z</time>
      </trkpt>
      <trkpt lat="49.97984" lon="2.06574">
        <ele>17.3</ele>
        <time>2022-04-12T12:03:28Z</time>
      </trkpt>
      <trkpt lat="49.97984" lon="2.06572">
        <ele>17.3</ele>
        <time>2022-04-12T12:03:30Z</time>
      </trkpt>
      <trkpt lat="49.97985" lon="2.06571">
        <ele>17.4</ele>
        <time>2022-04-12T12:03:31Z</time>
      </trkpt>
      <trkpt lat="49.97986" lon="2.06569">
        <ele>17.5</ele>
        <time>2022-04-12T12:03:32Z</time>
      </trkpt>
      <trkpt lat="49.97986" lon="2.06569">
        <ele>17.5</ele>
        <time>2022-04-12T12:03:33Z</time>
      </trkpt>
      <trkpt lat="49.97987" lon="2.06567">
        <ele>17.6</ele>
        <time>2022-04-12T12:03:34Z</time>
      </trkpt>
      <trkpt lat="49.97988" lon="2.06566">
        <ele>17.7</ele>
        <time>2022-04-12T12:03:36Z</time>
      </trkpt>
      <trkpt lat="49.97989" lon="2.06565">
        <ele>17.7</ele>
        <time>2022-04-12T12:03:37Z</time>
      </trkpt>
      <trkpt lat="49.9799" lon="2.06565">
        <ele>17.8</ele>
        <time>2022-04-12T12:03:38Z</time>
      </trkpt>
      <trkpt lat="49.97991" lon="2.06565">
        <ele>17.8</ele>
        <time>2022-04-12T12:03:39Z</time>
      </trkpt>
      <trkpt lat="49.97992" lon="2.06564">
        <ele>17.9</ele>
        <time>2022-04-12T12:03:40Z</time>
      </trkpt>
      <trkpt lat="49.97993" lon="2.06564">
        <ele>18</ele>
        <time>2022-04-12T12:03:42Z</time>
      </trkpt>
      <trkpt lat="49.97993" lon="2.06564">
        <ele>18.2</ele>
        <time>2022-04-12T12:03:43Z</time>
      </trkpt>
      <trkpt lat="49.97994" lon="2.06563">
        <ele>18.2</ele>
        <time>2022-04-12T12:03:44Z</time>
      </trkpt>
      <trkpt lat="49.97995" lon="2.06563">
        <ele>18.2</ele>
        <time>2022-04-12T12:03:45Z</time>
      </trkpt>
      <trkpt lat="49.97996" lon="2.06563">
        <ele>18.2</ele>
        <time>2022-04-12T12:03:46Z</time>
      </trkpt>
      <trkpt lat="49.97997" lon="2.06563">
        <ele>18.2</ele>
        <time>2022-04-12T12:03:47Z</time>
      </trkpt>
      <trkpt lat="49.97998" lon="2.06564">
        <ele>18.1</ele>
        <time>2022-04-12T12:03:48Z</time>
      </trkpt>
      <trkpt lat="49.97999" lon="2.06564">
        <ele>18.1</ele>
        <time>2022-04-12T12:03:49Z</time>
      </trkpt>
      <trkpt lat="49.98" lon="2.06565">
        <ele>18.1</ele>
        <time>2022-04-12T12:03:50Z</time>
      </trkpt>
      <trkpt lat="49.98001" lon="2.06565">
        <ele>18.1</ele>
        <time>2022-04-12T12:03:51Z</time>
      </trkpt>
      <trkpt lat="49.98002" lon="2.06565">
        <ele>18</ele>
        <time>2022-04-12T12:03:52Z</time>
      </trkpt>
      <trkpt lat="49.98003" lon="2.06566">
        <ele>18</ele>
        <time>2022-04-12T12:03:53Z</time>
      </trkpt>
      <trkpt lat="49.98004" lon="2.06567">
        <ele>18</ele>
        <time>2022-04-12T12:03:55Z</time>
      </trkpt>
      <trkpt lat="49.98005" lon="2.06568">
        <ele>18</ele>
        <time>2022-04-12T12:03:56Z</time>
      </trkpt>
      <trkpt lat="49.98006" lon="2.06569">
        <ele>17.9</ele>
        <time>2022-04-12T12:03:57Z</time>
      </trkpt>
      <trkpt lat="49.98007" lon="2.0657">
        <ele>17.9</ele>
        <time>2022-04-12T12:03:58Z</time>
      </trkpt>
      <trkpt lat="49.98008" lon="2.0657">
        <ele>17.9</ele>
        <time>2022-04-12T12:03:59Z</time>
      </trkpt>
      <trkpt lat="49.98009" lon="2.06571">
        <ele>17.9</ele>
        <time>2022-04-12T12:04:00Z</time>
      </trkpt>
      <trkpt lat="49.9801" lon="2.06572">
        <ele>17.9</ele>
        <time>2022-04-12T12:04:02Z</time>
      </trkpt>
      <trkpt lat="49.98011" lon="2.06573">
        <ele>17.8</ele>
        <time>2022-04-12T12:04:03Z</time>
      </trkpt>
      <trkpt lat="49.98012" lon="2.06573">
        <ele>17.8</ele>
        <time>2022-04-12T12:04:04Z</time>
      </trkpt>
      <trkpt lat="49.98013" lon="2.06574">
        <ele>17.8</ele>
        <time>2022-04-12T12:04:06Z</time>
      </trkpt>
      <trkpt lat="49.98014" lon="2.06574">
        <ele>17.8</ele>
        <time>2022-04-12T12:04:07Z</time>
      </trkpt>
      <trkpt lat="49.98015" lon="2.06575">
        <ele>17.8</ele>
        <time>2022-04-12T12:04:08Z</time>
      </trkpt>
      <trkpt lat="49.98016" lon="2.06575">
        <ele>17.8</ele>
        <time>2022-04-12T12:04:09Z</time>
      </trkpt>
      <trkpt lat="49.98017" lon="2.06575">
        <ele>17.8</ele>
        <time>2022-04-12T12:04:11Z</time>
      </trkpt>
      <trkpt lat="49.98018" lon="2.06575">
        <ele>17.7</ele>
        <time>2022-04-12T12:04:12Z</time>
      </trkpt>
      <trkpt lat="49.98019" lon="2.06576">
        <ele>17.7</ele>
        <time>2022-04-12T12:04:13Z</time>
      </trkpt>
      <trkpt lat="49.9802" lon="2.06576">
        <ele>17.7</ele>
        <time>2022-04-12T12:04:14Z</time>
      </trkpt>
      <trkpt lat="49.98021" lon="2.06577">
        <ele>17.7</ele>
        <time>2022-04-12T12:04:15Z</time>
      </trkpt>
      <trkpt lat="49.98021" lon="2.06578">
        <ele>17.7</ele>
        <time>2022-04-12T12:04:16Z</time>
      </trkpt>
      <trkpt lat="49.98023" lon="2.06578">
        <ele>17.7</ele>
        <time>2022-04-12T12:04:18Z</time>
      </trkpt>
      <trkpt lat="49.98024" lon="2.06578">
        <ele>17.7</ele>
        <time>2022-04-12T12:04:19Z</time>
      </trkpt>
      <trkpt lat="49.98024" lon="2.06577">
        <ele>17.7</ele>
        <time>2022-04-12T12:04:20Z</time>
      </trkpt>
      <trkpt lat="49.98025" lon="2.06576">
        <ele>17.6</ele>
        <time>2022-04-12T12:04:21Z</time>
      </trkpt>
      <trkpt lat="49.98026" lon="2.06574">
        <ele>17.6</ele>
        <time>2022-04-12T12:04:22Z</time>
      </trkpt>
      <trkpt lat="49.98027" lon="2.06573">
        <ele>17.6</ele>
        <time>2022-04-12T12:04:24Z</time>
      </trkpt>
      <trkpt lat="49.98028" lon="2.06572">
        <ele>17.6</ele>
        <time>2022-04-12T12:04:25Z</time>
      </trkpt>
      <trkpt lat="49.98029" lon="2.0657">
        <ele>17.6</ele>
        <time>2022-04-12T12:04:26Z</time>
      </trkpt>
      <trkpt lat="49.9803" lon="2.06569">
        <ele>17.6</ele>
        <time>2022-04-12T12:04:27Z</time>
      </trkpt>
      <trkpt lat="49.98031" lon="2.06568">
        <ele>17.6</ele>
        <time>2022-04-12T12:04:28Z</time>
      </trkpt>
      <trkpt lat="49.98032" lon="2.06567">
        <ele>17.6</ele>
        <time>2022-04-12T12:04:29Z</time>
      </trkpt>
      <trkpt lat="49.98033" lon="2.06566">
        <ele>17.5</ele>
        <time>2022-04-12T12:04:30Z</time>
      </trkpt>
      <trkpt lat="49.98034" lon="2.06566">
        <ele>17.5</ele>
        <time>2022-04-12T12:04:31Z</time>
      </trkpt>
      <trkpt lat="49.98035" lon="2.06566">
        <ele>17.5</ele>
        <time>2022-04-12T12:04:32Z</time>
      </trkpt>
      <trkpt lat="49.98036" lon="2.06566">
        <ele>17.5</ele>
        <time>2022-04-12T12:04:33Z</time>
      </trkpt>
      <trkpt lat="49.98037" lon="2.06566">
        <ele>17.5</ele>
        <time>2022-04-12T12:04:34Z</time>
      </trkpt>
      <trkpt lat="49.98038" lon="2.06566">
        <ele>17.5</ele>
        <time>2022-04-12T12:04:35Z</time>
      </trkpt>
      <trkpt lat="49.98038" lon="2.06566">
        <ele>17.5</ele>
        <time>2022-04-12T12:04:36Z</time>
      </trkpt>
      <trkpt lat="49.9804" lon="2.06565">
        <ele>17.5</ele>
        <time>2022-04-12T12:04:38Z</time>
      </trkpt>
      <trkpt lat="49.9804" lon="2.06564">
        <ele>17.5</ele>
        <time>2022-04-12T12:04:39Z</time>
      </trkpt>
      <trkpt lat="49.9804" lon="2.06563">
        <ele>17.5</ele>
        <time>2022-04-12T12:04:40Z</time>
      </trkpt>
      <trkpt lat="49.9804" lon="2.06562">
        <ele>17.5</ele>
        <time>2022-04-12T12:04:42Z</time>
      </trkpt>
      <trkpt lat="49.9804" lon="2.0656">
        <ele>17.5</ele>
        <time>2022-04-12T12:04:43Z</time>
      </trkpt>
      <trkpt lat="49.9804" lon="2.06559">
        <ele>17.5</ele>
        <time>2022-04-12T12:04:44Z</time>
      </trkpt>
      <trkpt lat="49.9804" lon="2.06559">
        <ele>17.5</ele>
        <time>2022-04-12T12:04:45Z</time>
      </trkpt>
      <trkpt lat="49.98039" lon="2.06557">
        <ele>17.5</ele>
        <time>2022-04-12T12:04:46Z</time>
      </trkpt>
      <trkpt lat="49.98039" lon="2.06556">
        <ele>17.5</ele>
        <time>2022-04-12T12:04:48Z</time>
      </trkpt>
      <trkpt lat="49.98039" lon="2.06554">
        <ele>17.5</ele>
        <time>2022-04-12T12:04:49Z</time>
      </trkpt>
      <trkpt lat="49.98039" lon="2.06553">
        <ele>17.5</ele>
        <time>2022-04-12T12:04:50Z</time>
      </trkpt>
      <trkpt lat="49.98039" lon="2.06552">
        <ele>17.5</ele>
        <time>2022-04-12T12:04:51Z</time>
      </trkpt>
      <trkpt lat="49.98039" lon="2.06551">
        <ele>17.5</ele>
        <time>2022-04-12T12:04:52Z</time>
      </trkpt>
      <trkpt lat="49.9804" lon="2.06551">
        <ele>17.5</ele>
        <time>2022-04-12T12:04:53Z</time>
      </trkpt>
      <trkpt lat="49.9804" lon="2.06551">
        <ele>17.5</ele>
        <time>2022-04-12T12:04:55Z</time>
      </trkpt>
      <trkpt lat="49.9804" lon="2.06551">
        <ele>17.5</ele>
        <time>2022-04-12T12:04:56Z</time>
      </trkpt>
      <trkpt lat="49.9804" lon="2.06551">
        <ele>17.5</ele>
        <time>2022-04-12T12:04:57Z</time>
      </trkpt>
      <trkpt lat="49.9804" lon="2.06552">
        <ele>17.5</ele>
        <time>2022-04-12T12:04:58Z</time>
      </trkpt>
      <trkpt lat="49.9804" lon="2.06552">
        <ele>17.5</ele>
        <time>2022-04-12T12:04:59Z</time>
      </trkpt>
      <trkpt lat="49.9804" lon="2.06552">
        <ele>17.5</ele>
        <time>2022-04-12T12:05:00Z</time>
      </trkpt>
      <trkpt lat="49.98039" lon="2.06552">
        <ele>17.5</ele>
        <time>2022-04-12T12:05:01Z</time>
      </trkpt>
      <trkpt lat="49.98039" lon="2.06553">
        <ele>17.5</ele>
        <time>2022-04-12T12:05:02Z</time>
      </trkpt>
      <trkpt lat="49.98039" lon="2.06553">
        <ele>17.5</ele>
        <time>2022-04-12T12:05:03Z</time>
      </trkpt>
      <trkpt lat="49.98039" lon="2.06553">
        <ele>17.5</ele>
        <time>2022-04-12T12:05:04Z</time>
      </trkpt>
      <trkpt lat="49.98038" lon="2.06554">
        <ele>17.5</ele>
        <time>2022-04-12T12:05:05Z</time>
      </trkpt>
      <trkpt lat="49.98038" lon="2.06554">
        <ele>17.5</ele>
        <time>2022-04-12T12:05:06Z</time>
      </trkpt>
      <trkpt lat="49.98038" lon="2.06555">
        <ele>17.5</ele>
        <time>2022-04-12T12:05:07Z</time>
      </trkpt>
      <trkpt lat="49.98037" lon="2.06555">
        <ele>17.5</ele>
        <time>2022-04-12T12:05:08Z</time>
      </trkpt>
      <trkpt lat="49.98037" lon="2.06555">
        <ele>17.5</ele>
        <time>2022-04-12T12:05:09Z</time>
      </trkpt>
      <trkpt lat="49.98037" lon="2.06555">
        <ele>17.5</ele>
        <time>2022-04-12T12:05:10Z</time>
      </trkpt>
      <trkpt lat="49.98037" lon="2.06556">
        <ele>17.5</ele>
        <time>2022-04-12T12:05:11Z</time>
      </trkpt>
      <trkpt lat="49.98036" lon="2.06556">
        <ele>17.5</ele>
        <time>2022-04-12T12:05:12Z</time>
      </trkpt>
      <trkpt lat="49.98036" lon="2.06556">
        <ele>17.5</ele>
        <time>2022-04-12T12:05:13Z</time>
      </trkpt>
      <trkpt lat="49.98036" lon="2.06557">
        <ele>17.5</ele>
        <time>2022-04-12T12:05:14Z</time>
      </trkpt>
      <trkpt lat="49.98036" lon="2.06557">
        <ele>17.5</ele>
        <time>2022-04-12T12:05:15Z</time>
      </trkpt>
      <trkpt lat="49.98036" lon="2.06558">
        <ele>17.5</ele>
        <time>2022-04-12T12:05:16Z</time>
      </trkpt>
      <trkpt lat="49.98036" lon="2.06559">
        <ele>17.5</ele>
        <time>2022-04-12T12:05:17Z</time>
      </trkpt>
      <trkpt lat="49.98036" lon="2.06559">
        <ele>17.5</ele>
        <time>2022-04-12T12:05:18Z</time>
      </trkpt>
      <trkpt lat="49.98036" lon="2.06559">
        <ele>17.5</ele>
        <time>2022-04-12T12:05:19Z</time>
      </trkpt>
      <trkpt lat="49.98036" lon="2.06559">
        <ele>17.5</ele>
        <time>2022-04-12T12:05:20Z</time>
      </trkpt>
      <trkpt lat="49.98036" lon="2.0656">
        <ele>17.5</ele>
        <time>2022-04-12T12:05:21Z</time>
      </trkpt>
      <trkpt lat="49.98036" lon="2.0656">
        <ele>17.5</ele>
        <time>2022-04-12T12:05:22Z</time>
      </trkpt>
      <trkpt lat="49.98036" lon="2.0656">
        <ele>17.5</ele>
        <time>2022-04-12T12:05:23Z</time>
      </trkpt>
      <trkpt lat="49.98036" lon="2.0656">
        <ele>17.5</ele>
        <time>2022-04-12T12:05:24Z</time>
      </trkpt>
      <trkpt lat="49.98036" lon="2.0656">
        <ele>17.5</ele>
        <time>2022-04-12T12:05:25Z</time>
      </trkpt>
      <trkpt lat="49.98036" lon="2.0656">
        <ele>17.5</ele>
        <time>2022-04-12T12:05:26Z</time>
      </trkpt>
      <trkpt lat="49.98036" lon="2.0656">
        <ele>17.5</ele>
        <time>2022-04-12T12:05:27Z</time>
      </trkpt>
      <trkpt lat="49.98036" lon="2.0656">
        <ele>17.5</ele>
        <time>2022-04-12T12:05:28Z</time>
      </trkpt>
      <trkpt lat="49.98036" lon="2.0656">
        <ele>17.5</ele>
        <time>2022-04-12T12:05:29Z</time>
      </trkpt>
      <trkpt lat="49.98036" lon="2.0656">
        <ele>17.5</ele>
        <time>2022-04-12T12:05:30Z</time>
      </trkpt>
      <trkpt lat="49.98036" lon="2.0656">
        <ele>17.5</ele>
        <time>2022-04-12T12:05:31Z</time>
      </trkpt>
      <trkpt lat="49.98036" lon="2.0656">
        <ele>17.5</ele>
        <time>2022-04-12T12:05:32Z</time>
      </trkpt>
      <trkpt lat="49.98036" lon="2.0656">
        <ele>17.5</ele>
        <time>2022-04-12T12:05:33Z</time>
      </trkpt>
      <trkpt lat="49.98036" lon="2.0656">
        <ele>17.5</ele>
        <time>2022-04-12T12:05:34Z</time>
      </trkpt>
      <trkpt lat="49.98036" lon="2.0656">
        <ele>17.5</ele>
        <time>2022-04-12T12:05:35Z</time>
      </trkpt>
      <trkpt lat="49.98036" lon="2.0656">
        <ele>17.5</ele>
        <time>2022-04-12T12:05:36Z</time>
      </trkpt>
      <trkpt lat="49.98036" lon="2.0656">
        <ele>17.5</ele>
        <time>2022-04-12T12:05:37Z</time>
      </trkpt>
      <trkpt lat="49.98036" lon="2.0656">
        <ele>17.5</ele>
        <time>2022-04-12T12:05:38Z</time>
      </trkpt>
      <trkpt lat="49.98036" lon="2.0656">
        <ele>17.5</ele>
        <time>2022-04-12T12:05:39Z</time>
      </trkpt>
      <trkpt lat="49.98036" lon="2.0656">
        <ele>17.5</ele>
        <time>2022-04-12T12:05:40Z</time>
      </trkpt>
      <trkpt lat="49.98036" lon="2.0656">
        <ele>17.5</ele>
        <time>2022-04-12T12:05:41Z</time>
      </trkpt>
      <trkpt lat="49.98036" lon="2.0656">
        <ele>17.5</ele>
        <time>2022-04-12T12:05:42Z</time>
      </trkpt>
      <trkpt lat="49.98036" lon="2.0656">
        <ele>17.5</ele>
        <time>2022-04-12T12:05:43Z</time>
      </trkpt>
      <trkpt lat="49.98036" lon="2.0656">
        <ele>17.5</ele>
        <time>2022-04-12T12:05:44Z</time>
      </trkpt>
      <trkpt lat="49.98036" lon="2.0656">
        <ele>17.5</ele>
        <time>2022-04-12T12:05:45Z</time>
      </trkpt>
      <trkpt lat="49.98036" lon="2.0656">
        <ele>17.5</ele>
        <time>2022-04-12T12:05:46Z</time>
      </trkpt>
      <trkpt lat="49.98036" lon="2.0656">
        <ele>17.5</ele>
        <time>2022-04-12T12:05:47Z</time>
      </trkpt>
      <trkpt lat="49.98036" lon="2.0656">
        <ele>17.5</ele>
        <time>2022-04-12T12:05:48Z</time>
      </trkpt>
      <trkpt lat="49.98036" lon="2.0656">
        <ele>17.5</ele>
        <time>2022-04-12T12:05:49Z</time>
      </trkpt>
      <trkpt lat="49.98036" lon="2.0656">
        <ele>17.5</ele>
        <time>2022-04-12T12:05:50Z</time>
      </trkpt>
      <trkpt lat="49.98036" lon="2.0656">
        <ele>17.5</ele>
        <time>2022-04-12T12:05:51Z</time>
      </trkpt>
      <trkpt lat="49.98036" lon="2.0656">
        <ele>17.5</ele>
        <time>2022-04-12T12:05:52Z</time>
      </trkpt>
      <trkpt lat="49.98036" lon="2.0656">
        <ele>17.5</ele>
        <time>2022-04-12T12:05:53Z</time>
      </trkpt>
      <trkpt lat="49.98036" lon="2.0656">
        <ele>17.5</ele>
        <time>2022-04-12T12:05:54Z</time>
      </trkpt>
      <trkpt lat="49.98036" lon="2.0656">
        <ele>17.5</ele>
        <time>2022-04-12T12:05:55Z</time>
      </trkpt>
      <trkpt lat="49.98036" lon="2.0656">
        <ele>17.5</ele>
        <time>2022-04-12T12:05:56Z</time>
      </trkpt>
      <trkpt lat="49.98036" lon="2.0656">
        <ele>17.5</ele>
        <time>2022-04-12T12:05:57Z</time>
      </trkpt>
      <trkpt lat="49.98036" lon="2.0656">
        <ele>17.5</ele>
        <time>2022-04-12T12:05:58Z</time>
      </trkpt>
      <trkpt lat="49.98036" lon="2.0656">
        <ele>17.5</ele>
        <time>2022-04-12T12:05:59Z</time>
      </trkpt>
      <trkpt lat="49.98036" lon="2.0656">
        <ele>17.5</ele>
        <time>2022-04-12T12:06:00Z</time>
      </trkpt>
      <trkpt lat="49.98036" lon="2.0656">
        <ele>17.5</ele>
        <time>2022-04-12T12:06:01Z</time>
      </trkpt>
      <trkpt lat="49.98036" lon="2.0656">
        <ele>17.5</ele>
        <time>2022-04-12T12:06:02Z</time>
      </trkpt>
      <trkpt lat="49.98036" lon="2.0656">
        <ele>17.5</ele>
        <time>2022-04-12T12:06:03Z</time>
      </trkpt>
      <trkpt lat="49.98036" lon="2.0656">
        <ele>17.5</ele>
        <time>2022-04-12T12:06:04Z</time>
      </trkpt>
      <trkpt lat="49.98036" lon="2.0656">
        <ele>17.5</ele>
        <time>2022-04-12T12:06:05Z</time>
      </trkpt>
      <trkpt lat="49.98036" lon="2.0656">
        <ele>17.5</ele>
        <time>2022-04-12T12:06:06Z</time>
      </trkpt>
      <trkpt lat="49.98036" lon="2.0656">
        <ele>17.5</ele>
        <time>2022-04-12T12:06:07Z</time>
      </trkpt>
      <trkpt lat="49.98036" lon="2.0656">
        <ele>17.5</ele>
        <time>2022-04-12T12:06:08Z</time>
      </trkpt>
      <trkpt lat="49.98036" lon="2.0656">
        <ele>17.5</ele>
        <time>2022-04-12T12:06:09Z</time>
      </trkpt>
      <trkpt lat="49.98036" lon="2.0656">
        <ele>17.5</ele>
        <time>2022-04-12T12:06:10Z</time>
      </trkpt>
      <trkpt lat="49.98036" lon="2.0656">
        <ele>17.5</ele>
        <time>2022-04-12T12:06:11Z</time>
      </trkpt>
      <trkpt lat="49.98036" lon="2.0656">
        <ele>17.5</ele>
        <time>2022-04-12T12:06:12Z</time>
      </trkpt>
      <trkpt lat="49.98036" lon="2.0656">
        <ele>17.5</ele>
        <time>2022-04-12T12:06:13Z</time>
      </trkpt>
      <trkpt lat="49.98036" lon="2.0656">
        <ele>17.5</ele>
        <time>2022-04-12T12:06:14Z</time>
      </trkpt>
      <trkpt lat="49.98036" lon="2.0656">
        <ele>17.5</ele>
        <time>2022-04-12T12:06:15Z</time>
      </trkpt>
      <trkpt lat="49.98036" lon="2.0656">
        <ele>17.5</ele>
        <time>2022-04-12T12:06:16Z</time>
      </trkpt>
      <trkpt lat="49.98036" lon="2.0656">
        <ele>17.5</ele>
        <time>2022-04-12T12:06:17Z</time>
      </trkpt>
      <trkpt lat="49.98036" lon="2.0656">
        <ele>17.5</ele>
        <time>2022-04-12T12:06:18Z</time>
      </trkpt>
      <trkpt lat="49.98036" lon="2.0656">
        <ele>17.5</ele>
        <time>2022-04-12T12:06:19Z</time>
      </trkpt>
      <trkpt lat="49.98036" lon="2.0656">
        <ele>17.5</ele>
        <time>2022-04-12T12:06:20Z</time>
      </trkpt>
      <trkpt lat="49.98036" lon="2.0656">
        <ele>17.5</ele>
        <time>2022-04-12T12:06:21Z</time>
      </trkpt>
      <trkpt lat="49.98036" lon="2.0656">
        <ele>17.5</ele>
        <time>2022-04-12T12:06:22Z</time>
      </trkpt>
      <trkpt lat="49.98036" lon="2.0656">
        <ele>17.5</ele>
        <time>2022-04-12T12:06:23Z</time>
      </trkpt>
      <trkpt lat="49.98036" lon="2.0656">
        <ele>17.5</ele>
        <time>2022-04-12T12:06:24Z</time>
      </trkpt>
      <trkpt lat="49.98036" lon="2.0656">
        <ele>17.5</ele>
        <time>2022-04-12T12:06:25Z</time>
      </trkpt>
      <trkpt lat="49.98036" lon="2.0656">
        <ele>17.5</ele>
        <time>2022-04-12T12:06:26Z</time>
      </trkpt>
      <trkpt lat="49.98036" lon="2.0656">
        <ele>17.5</ele>
        <time>2022-04-12T12:06:27Z</time>
      </trkpt>
      <trkpt lat="49.98036" lon="2.0656">
        <ele>17.5</ele>
        <time>2022-04-12T12:06:28Z</time>
      </trkpt>
      <trkpt lat="49.98036" lon="2.0656">
        <ele>17.5</ele>
        <time>2022-04-12T12:06:29Z</time>
      </trkpt>
      <trkpt lat="49.98036" lon="2.0656">
        <ele>17.5</ele>
        <time>2022-04-12T12:06:30Z</time>
      </trkpt>
      <trkpt lat="49.98036" lon="2.0656">
        <ele>17.5</ele>
        <time>2022-04-12T12:06:31Z</time>
      </trkpt>
      <trkpt lat="49.98037" lon="2.06561">
        <ele>17.5</ele>
        <time>2022-04-12T12:06:32Z</time>
      </trkpt>
      <trkpt lat="49.98037" lon="2.06561">
        <ele>17.5</ele>
        <time>2022-04-12T12:06:33Z</time>
      </trkpt>
      <trkpt lat="49.98037" lon="2.06561">
        <ele>17.5</ele>
        <time>2022-04-12T12:06:34Z</time>
      </trkpt>
      <trkpt lat="49.98037" lon="2.06561">
        <ele>17.5</ele>
        <time>2022-04-12T12:06:35Z</time>
      </trkpt>
      <trkpt lat="49.98037" lon="2.06561">
        <ele>17.5</ele>
        <time>2022-04-12T12:06:36Z</time>
      </trkpt>
      <trkpt lat="49.98037" lon="2.06561">
        <ele>17.5</ele>
        <time>2022-04-12T12:06:37Z</time>
      </trkpt>
      <trkpt lat="49.98037" lon="2.06561">
        <ele>17.5</ele>
        <time>2022-04-12T12:06:38Z</time>
      </trkpt>
      <trkpt lat="49.98037" lon="2.06561">
        <ele>17.5</ele>
        <time>2022-04-12T12:06:39Z</time>
      </trkpt>
      <trkpt lat="49.98037" lon="2.06561">
        <ele>17.5</ele>
        <time>2022-04-12T12:06:40Z</time>
      </trkpt>
      <trkpt lat="49.98037" lon="2.06561">
        <ele>17.5</ele>
        <time>2022-04-12T12:06:41Z</time>
      </trkpt>
      <trkpt lat="49.98037" lon="2.06561">
        <ele>17.5</ele>
        <time>2022-04-12T12:06:42Z</time>
      </trkpt>
      <trkpt lat="49.98037" lon="2.06561">
        <ele>17.5</ele>
        <time>2022-04-12T12:06:43Z</time>
      </trkpt>
      <trkpt lat="49.98037" lon="2.06561">
        <ele>17.5</ele>
        <time>2022-04-12T12:06:44Z</time>
      </trkpt>
      <trkpt lat="49.98037" lon="2.06561">
        <ele>17.5</ele>
        <time>2022-04-12T12:06:45Z</time>
      </trkpt>
      <trkpt lat="49.98037" lon="2.06561">
        <ele>17.5</ele>
        <time>2022-04-12T12:06:46Z</time>
      </trkpt>
      <trkpt lat="49.98037" lon="2.06561">
        <ele>17.5</ele>
        <time>2022-04-12T12:06:47Z</time>
      </trkpt>
      <trkpt lat="49.98037" lon="2.06561">
        <ele>17.5</ele>
        <time>2022-04-12T12:06:48Z</time>
      </trkpt>
      <trkpt lat="49.98037" lon="2.06561">
        <ele>17.5</ele>
        <time>2022-04-12T12:06:49Z</time>
      </trkpt>
      <trkpt lat="49.98037" lon="2.06561">
        <ele>17.5</ele>
        <time>2022-04-12T12:06:50Z</time>
      </trkpt>
      <trkpt lat="49.98037" lon="2.06561">
        <ele>17.5</ele>
        <time>2022-04-12T12:06:51Z</time>
      </trkpt>
      <trkpt lat="49.98037" lon="2.06561">
        <ele>17.5</ele>
        <time>2022-04-12T12:06:52Z</time>
      </trkpt>
      <trkpt lat="49.98037" lon="2.06561">
        <ele>17.5</ele>
        <time>2022-04-12T12:06:53Z</time>
      </trkpt>
      <trkpt lat="49.98037" lon="2.06561">
        <ele>17.5</ele>
        <time>2022-04-12T12:06:54Z</time>
      </trkpt>
      <trkpt lat="49.98037" lon="2.06561">
        <ele>17.5</ele>
        <time>2022-04-12T12:06:55Z</time>
      </trkpt>
      <trkpt lat="49.98037" lon="2.06561">
        <ele>17.5</ele>
        <time>2022-04-12T12:06:56Z</time>
      </trkpt>
      <trkpt lat="49.98037" lon="2.06561">
        <ele>17.5</ele>
        <time>2022-04-12T12:06:57Z</time>
      </trkpt>
      <trkpt lat="49.98037" lon="2.06561">
        <ele>17.5</ele>
        <time>2022-04-12T12:06:58Z</time>
      </trkpt>
      <trkpt lat="49.98037" lon="2.06561">
        <ele>17.5</ele>
        <time>2022-04-12T12:06:59Z</time>
      </trkpt>
      <trkpt lat="49.98037" lon="2.06561">
        <ele>17.5</ele>
        <time>2022-04-12T12:07:00Z</time>
      </trkpt>
      <trkpt lat="49.98037" lon="2.06561">
        <ele>17.5</ele>
        <time>2022-04-12T12:07:02Z</time>
      </trkpt>
      <trkpt lat="49.98037" lon="2.06561">
        <ele>17.5</ele>
        <time>2022-04-12T12:07:03Z</time>
      </trkpt>
      <trkpt lat="49.98037" lon="2.06561">
        <ele>17.5</ele>
        <time>2022-04-12T12:07:04Z</time>
      </trkpt>
      <trkpt lat="49.98037" lon="2.06561">
        <ele>17.5</ele>
        <time>2022-04-12T12:07:05Z</time>
      </trkpt>
      <trkpt lat="49.98037" lon="2.06561">
        <ele>17.5</ele>
        <time>2022-04-12T12:07:06Z</time>
      </trkpt>
      <trkpt lat="49.98037" lon="2.06561">
        <ele>17.5</ele>
        <time>2022-04-12T12:07:07Z</time>
      </trkpt>
      <trkpt lat="49.98037" lon="2.06561">
        <ele>17.5</ele>
        <time>2022-04-12T12:07:08Z</time>
      </trkpt>
      <trkpt lat="49.98037" lon="2.06561">
        <ele>17.5</ele>
        <time>2022-04-12T12:07:09Z</time>
      </trkpt>
      <trkpt lat="49.98037" lon="2.06561">
        <ele>17.5</ele>
        <time>2022-04-12T12:07:10Z</time>
      </trkpt>
      <trkpt lat="49.98037" lon="2.06561">
        <ele>17.5</ele>
        <time>2022-04-12T12:07:11Z</time>
      </trkpt>
      <trkpt lat="49.98037" lon="2.06561">
        <ele>17.5</ele>
        <time>2022-04-12T12:07:12Z</time>
      </trkpt>
      <trkpt lat="49.98037" lon="2.06561">
        <ele>17.5</ele>
        <time>2022-04-12T12:07:13Z</time>
      </trkpt>
      <trkpt lat="49.98037" lon="2.06561">
        <ele>17.5</ele>
        <time>2022-04-12T12:07:14Z</time>
      </trkpt>
      <trkpt lat="49.98037" lon="2.06561">
        <ele>17.5</ele>
        <time>2022-04-12T12:07:15Z</time>
      </trkpt>
      <trkpt lat="49.98037" lon="2.06561">
        <ele>17.5</ele>
        <time>2022-04-12T12:07:16Z</time>
      </trkpt>
      <trkpt lat="49.98037" lon="2.06561">
        <ele>17.5</ele>
        <time>2022-04-12T12:07:17Z</time>
      </trkpt>
      <trkpt lat="49.98037" lon="2.06561">
        <ele>17.5</ele>
        <time>2022-04-12T12:07:18Z</time>
      </trkpt>
      <trkpt lat="49.98037" lon="2.06561">
        <ele>17.5</ele>
        <time>2022-04-12T12:07:19Z</time>
      </trkpt>
      <trkpt lat="49.98037" lon="2.06561">
        <ele>17.5</ele>
        <time>2022-04-12T12:07:20Z</time>
      </trkpt>
      <trkpt lat="49.98037" lon="2.06561">
        <ele>17.5</ele>
        <time>2022-04-12T12:07:21Z</time>
      </trkpt>
      <trkpt lat="49.98037" lon="2.06561">
        <ele>17.5</ele>
        <time>2022-04-12T12:07:22Z</time>
      </trkpt>
      <trkpt lat="49.98037" lon="2.06561">
        <ele>17.5</ele>
        <time>2022-04-12T12:07:23Z</time>
      </trkpt>
      <trkpt lat="49.98037" lon="2.06561">
        <ele>17.5</ele>
        <time>2022-04-12T12:07:24Z</time>
      </trkpt>
      <trkpt lat="49.98037" lon="2.06561">
        <ele>17.5</ele>
        <time>2022-04-12T12:07:25Z</time>
      </trkpt>
      <trkpt lat="49.98037" lon="2.06561">
        <ele>17.5</ele>
        <time>2022-04-12T12:07:26Z</time>
      </trkpt>
      <trkpt lat="49.98037" lon="2.06561">
        <ele>17.5</ele>
        <time>2022-04-12T12:07:27Z</time>
      </trkpt>
      <trkpt lat="49.98037" lon="2.06561">
        <ele>17.5</ele>
        <time>2022-04-12T12:07:28Z</time>
      </trkpt>
      <trkpt lat="49.98037" lon="2.06561">
        <ele>17.5</ele>
        <time>2022-04-12T12:07:29Z</time>
      </trkpt>
      <trkpt lat="49.98037" lon="2.06561">
        <ele>17.5</ele>
        <time>2022-04-12T12:07:30Z</time>
      </trkpt>
      <trkpt lat="49.98037" lon="2.06561">
        <ele>17.5</ele>
        <time>2022-04-12T12:07:31Z</time>
      </trkpt>
      <trkpt lat="49.98037" lon="2.06561">
        <ele>17.5</ele>
        <time>2022-04-12T12:07:32Z</time>
      </trkpt>
      <trkpt lat="49.98037" lon="2.06561">
        <ele>17.5</ele>
        <time>2022-04-12T12:07:33Z</time>
      </trkpt>
      <trkpt lat="49.98037" lon="2.06561">
        <ele>17.5</ele>
        <time>2022-04-12T12:07:34Z</time>
      </trkpt>
      <trkpt lat="49.98037" lon="2.06561">
        <ele>17.5</ele>
        <time>2022-04-12T12:07:35Z</time>
      </trkpt>
      <trkpt lat="49.98037" lon="2.06561">
        <ele>17.5</ele>
        <time>2022-04-12T12:07:36Z</time>
      </trkpt>
      <trkpt lat="49.98037" lon="2.06561">
        <ele>17.5</ele>
        <time>2022-04-12T12:07:37Z</time>
      </trkpt>
      <trkpt lat="49.98037" lon="2.06561">
        <ele>17.5</ele>
        <time>2022-04-12T12:07:38Z</time>
      </trkpt>
      <trkpt lat="49.98037" lon="2.06561">
        <ele>17.5</ele>
        <time>2022-04-12T12:07:39Z</time>
      </trkpt>
      <trkpt lat="49.98037" lon="2.06561">
        <ele>17.5</ele>
        <time>2022-04-12T12:07:40Z</time>
      </trkpt>
      <trkpt lat="49.98037" lon="2.06561">
        <ele>17.5</ele>
        <time>2022-04-12T12:07:41Z</time>
      </trkpt>
      <trkpt lat="49.98037" lon="2.06561">
        <ele>17.5</ele>
        <time>2022-04-12T12:07:42Z</time>
      </trkpt>
      <trkpt lat="49.98037" lon="2.06561">
        <ele>17.5</ele>
        <time>2022-04-12T12:07:43Z</time>
      </trkpt>
      <trkpt lat="49.98037" lon="2.06561">
        <ele>17.5</ele>
        <time>2022-04-12T12:07:44Z</time>
      </trkpt>
      <trkpt lat="49.98037" lon="2.06561">
        <ele>17.5</ele>
        <time>2022-04-12T12:07:45Z</time>
      </trkpt>
      <trkpt lat="49.98037" lon="2.06561">
        <ele>17.5</ele>
        <time>2022-04-12T12:07:46Z</time>
      </trkpt>
      <trkpt lat="49.98037" lon="2.06561">
        <ele>17.5</ele>
        <time>2022-04-12T12:07:47Z</time>
      </trkpt>
      <trkpt lat="49.98037" lon="2.06561">
        <ele>17.5</ele>
        <time>2022-04-12T12:07:48Z</time>
      </trkpt>
      <trkpt lat="49.98037" lon="2.06561">
        <ele>17.5</ele>
        <time>2022-04-12T12:07:49Z</time>
      </trkpt>
      <trkpt lat="49.98037" lon="2.06561">
        <ele>17.5</ele>
        <time>2022-04-12T12:07:50Z</time>
      </trkpt>
      <trkpt lat="49.98037" lon="2.06561">
        <ele>17.5</ele>
        <time>2022-04-12T12:07:51Z</time>
      </trkpt>
      <trkpt lat="49.98037" lon="2.06561">
        <ele>17.5</ele>
        <time>2022-04-12T12:07:52Z</time>
      </trkpt>
      <trkpt lat="49.98037" lon="2.06561">
        <ele>17.5</ele>
        <time>2022-04-12T12:07:53Z</time>
      </trkpt>
      <trkpt lat="49.98037" lon="2.06561">
        <ele>17.5</ele>
        <time>2022-04-12T12:07:54Z</time>
      </trkpt>
      <trkpt lat="49.98037" lon="2.06561">
        <ele>17.5</ele>
        <time>2022-04-12T12:07:55Z</time>
      </trkpt>
      <trkpt lat="49.98037" lon="2.06561">
        <ele>17.5</ele>
        <time>2022-04-12T12:07:56Z</time>
      </trkpt>
      <trkpt lat="49.98037" lon="2.06561">
        <ele>17.5</ele>
        <time>2022-04-12T12:07:57Z</time>
      </trkpt>
      <trkpt lat="49.98037" lon="2.06561">
        <ele>17.5</ele>
        <time>2022-04-12T12:07:58Z</time>
      </trkpt>
      <trkpt lat="49.98037" lon="2.06561">
        <ele>17.5</ele>
        <time>2022-04-12T12:07:59Z</time>
      </trkpt>
      <trkpt lat="49.98037" lon="2.06561">
        <ele>17.5</ele>
        <time>2022-04-12T12:08:00Z</time>
      </trkpt>
      <trkpt lat="49.98037" lon="2.06561">
        <ele>17.5</ele>
        <time>2022-04-12T12:08:01Z</time>
      </trkpt>
      <trkpt lat="49.98037" lon="2.06561">
        <ele>17.5</ele>
        <time>2022-04-12T12:08:02Z</time>
      </trkpt>
      <trkpt lat="49.98037" lon="2.06561">
        <ele>17.5</ele>
        <time>2022-04-12T12:08:03Z</time>
      </trkpt>
      <trkpt lat="49.98037" lon="2.06561">
        <ele>17.5</ele>
        <time>2022-04-12T12:08:04Z</time>
      </trkpt>
      <trkpt lat="49.98037" lon="2.06561">
        <ele>17.5</ele>
        <time>2022-04-12T12:08:05Z</time>
      </trkpt>
      <trkpt lat="49.98037" lon="2.06561">
        <ele>17.5</ele>
        <time>2022-04-12T12:08:06Z</time>
      </trkpt>
      <trkpt lat="49.98037" lon="2.06561">
        <ele>17.5</ele>
        <time>2022-04-12T12:08:07Z</time>
      </trkpt>
      <trkpt lat="49.98037" lon="2.06561">
        <ele>17.5</ele>
        <time>2022-04-12T12:08:08Z</time>
      </trkpt>
      <trkpt lat="49.98037" lon="2.06561">
        <ele>17.5</ele>
        <time>2022-04-12T12:08:09Z</time>
      </trkpt>
      <trkpt lat="49.98037" lon="2.06561">
        <ele>17.5</ele>
        <time>2022-04-12T12:08:10Z</time>
      </trkpt>
      <trkpt lat="49.98037" lon="2.06561">
        <ele>17.5</ele>
        <time>2022-04-12T12:08:11Z</time>
      </trkpt>
      <trkpt lat="49.98037" lon="2.06561">
        <ele>17.5</ele>
        <time>2022-04-12T12:08:12Z</time>
      </trkpt>
      <trkpt lat="49.98037" lon="2.06561">
        <ele>17.5</ele>
        <time>2022-04-12T12:08:13Z</time>
      </trkpt>
      <trkpt lat="49.98037" lon="2.06561">
        <ele>17.5</ele>
        <time>2022-04-12T12:08:14Z</time>
      </trkpt>
      <trkpt lat="49.98037" lon="2.06561">
        <ele>17.5</ele>
        <time>2022-04-12T12:08:15Z</time>
      </trkpt>
      <trkpt lat="49.98037" lon="2.06561">
        <ele>17.5</ele>
        <time>2022-04-12T12:08:16Z</time>
      </trkpt>
      <trkpt lat="49.98037" lon="2.06561">
        <ele>17.5</ele>
        <time>2022-04-12T12:08:17Z</time>
      </trkpt>
      <trkpt lat="49.98037" lon="2.06561">
        <ele>17.5</ele>
        <time>2022-04-12T12:08:18Z</time>
      </trkpt>
      <trkpt lat="49.98037" lon="2.06561">
        <ele>17.5</ele>
        <time>2022-04-12T12:08:19Z</time>
      </trkpt>
      <trkpt lat="49.98037" lon="2.06561">
        <ele>17.5</ele>
        <time>2022-04-12T12:08:20Z</time>
      </trkpt>
      <trkpt lat="49.98037" lon="2.06561">
        <ele>17.5</ele>
        <time>2022-04-12T12:08:21Z</time>
      </trkpt>
      <trkpt lat="49.98037" lon="2.06561">
        <ele>17.5</ele>
        <time>2022-04-12T12:08:22Z</time>
      </trkpt>
      <trkpt lat="49.98037" lon="2.06561">
        <ele>17.5</ele>
        <time>2022-04-12T12:08:23Z</time>
      </trkpt>
      <trkpt lat="49.98037" lon="2.06561">
        <ele>17.5</ele>
        <time>2022-04-12T12:08:24Z</time>
      </trkpt>
      <trkpt lat="49.98037" lon="2.06561">
        <ele>17.5</ele>
        <time>2022-04-12T12:08:25Z</time>
      </trkpt>
      <trkpt lat="49.98037" lon="2.06561">
        <ele>17.5</ele>
        <time>2022-04-12T12:08:26Z</time>
      </trkpt>
      <trkpt lat="49.98037" lon="2.06561">
        <ele>17.5</ele>
        <time>2022-04-12T12:08:27Z</time>
      </trkpt>
      <trkpt lat="49.98037" lon="2.06561">
        <ele>17.5</ele>
        <time>2022-04-12T12:08:28Z</time>
      </trkpt>
      <trkpt lat="49.98037" lon="2.06561">
        <ele>17.5</ele>
        <time>2022-04-12T12:08:29Z</time>
      </trkpt>
      <trkpt lat="49.98037" lon="2.06561">
        <ele>17.5</ele>
        <time>2022-04-12T12:08:30Z</time>
      </trkpt>
      <trkpt lat="49.98037" lon="2.06561">
        <ele>17.5</ele>
        <time>2022-04-12T12:08:31Z</time>
      </trkpt>
      <trkpt lat="49.98037" lon="2.06561">
        <ele>17.5</ele>
        <time>2022-04-12T12:08:32Z</time>
      </trkpt>
      <trkpt lat="49.98037" lon="2.06561">
        <ele>17.5</ele>
        <time>2022-04-12T12:08:33Z</time>
      </trkpt>
      <trkpt lat="49.98037" lon="2.06561">
        <ele>17.5</ele>
        <time>2022-04-12T12:08:34Z</time>
      </trkpt>
      <trkpt lat="49.98037" lon="2.06561">
        <ele>17.5</ele>
        <time>2022-04-12T12:08:35Z</time>
      </trkpt>
      <trkpt lat="49.98037" lon="2.06561">
        <ele>17.5</ele>
        <time>2022-04-12T12:08:36Z</time>
      </trkpt>
      <trkpt lat="49.98037" lon="2.06561">
        <ele>17.5</ele>
        <time>2022-04-12T12:08:37Z</time>
      </trkpt>
      <trkpt lat="49.98037" lon="2.06561">
        <ele>17.5</ele>
        <time>2022-04-12T12:08:38Z</time>
      </trkpt>
      <trkpt lat="49.98037" lon="2.06561">
        <ele>17.5</ele>
        <time>2022-04-12T12:08:39Z</time>
      </trkpt>
      <trkpt lat="49.98037" lon="2.06561">
        <ele>17.5</ele>
        <time>2022-04-12T12:08:40Z</time>
      </trkpt>
      <trkpt lat="49.98037" lon="2.06561">
        <ele>17.5</ele>
        <time>2022-04-12T12:08:41Z</time>
      </trkpt>
      <trkpt lat="49.98037" lon="2.06561">
        <ele>17.5</ele>
        <time>2022-04-12T12:08:42Z</time>
      </trkpt>
      <trkpt lat="49.98037" lon="2.06561">
        <ele>17.5</ele>
        <time>2022-04-12T12:08:43Z</time>
      </trkpt>
      <trkpt lat="49.98037" lon="2.06561">
        <ele>17.5</ele>
        <time>2022-04-12T12:08:44Z</time>
      </trkpt>
      <trkpt lat="49.98037" lon="2.06561">
        <ele>17.5</ele>
        <time>2022-04-12T12:08:45Z</time>
      </trkpt>
      <trkpt lat="49.98037" lon="2.06561">
        <ele>17.5</ele>
        <time>2022-04-12T12:08:46Z</time>
      </trkpt>
      <trkpt lat="49.98037" lon="2.06561">
        <ele>17.5</ele>
        <time>2022-04-12T12:08:47Z</time>
      </trkpt>
      <trkpt lat="49.98037" lon="2.06561">
        <ele>17.5</ele>
        <time>2022-04-12T12:08:48Z</time>
      </trkpt>
      <trkpt lat="49.98037" lon="2.06561">
        <ele>17.5</ele>
        <time>2022-04-12T12:08:49Z</time>
      </trkpt>
      <trkpt lat="49.98037" lon="2.06561">
        <ele>17.5</ele>
        <time>2022-04-12T12:08:50Z</time>
      </trkpt>
      <trkpt lat="49.98037" lon="2.06561">
        <ele>17.5</ele>
        <time>2022-04-12T12:08:51Z</time>
      </trkpt>
      <trkpt lat="49.98037" lon="2.06561">
        <ele>17.5</ele>
        <time>2022-04-12T12:08:52Z</time>
      </trkpt>
      <trkpt lat="49.98037" lon="2.06561">
        <ele>17.5</ele>
        <time>2022-04-12T12:08:53Z</time>
      </trkpt>
      <trkpt lat="49.98037" lon="2.06561">
        <ele>17.5</ele>
        <time>2022-04-12T12:08:54Z</time>
      </trkpt>
      <trkpt lat="49.98037" lon="2.06561">
        <ele>17.5</ele>
        <time>2022-04-12T12:08:55Z</time>
      </trkpt>
      <trkpt lat="49.98037" lon="2.06561">
        <ele>17.5</ele>
        <time>2022-04-12T12:08:56Z</time>
      </trkpt>
      <trkpt lat="49.98037" lon="2.06561">
        <ele>17.5</ele>
        <time>2022-04-12T12:08:57Z</time>
      </trkpt>
      <trkpt lat="49.98037" lon="2.0656">
        <ele>17.5</ele>
        <time>2022-04-12T12:08:58Z</time>
      </trkpt>
      <trkpt lat="49.98037" lon="2.0656">
        <ele>17.5</ele>
        <time>2022-04-12T12:08:59Z</time>
      </trkpt>
      <trkpt lat="49.98037" lon="2.0656">
        <ele>17.5</ele>
        <time>2022-04-12T12:09:00Z</time>
      </trkpt>
      <trkpt lat="49.98037" lon="2.0656">
        <ele>17.5</ele>
        <time>2022-04-12T12:09:01Z</time>
      </trkpt>
      <trkpt lat="49.98037" lon="2.0656">
        <ele>17.5</ele>
        <time>2022-04-12T12:09:02Z</time>
      </trkpt>
      <trkpt lat="49.98037" lon="2.0656">
        <ele>17.5</ele>
        <time>2022-04-12T12:09:03Z</time>
      </trkpt>
      <trkpt lat="49.98037" lon="2.06561">
        <ele>17.5</ele>
        <time>2022-04-12T12:09:04Z</time>
      </trkpt>
      <trkpt lat="49.98037" lon="2.06561">
        <ele>17.5</ele>
        <time>2022-04-12T12:09:05Z</time>
      </trkpt>
      <trkpt lat="49.98037" lon="2.06561">
        <ele>17.5</ele>
        <time>2022-04-12T12:09:06Z</time>
      </trkpt>
      <trkpt lat="49.98037" lon="2.06561">
        <ele>17.5</ele>
        <time>2022-04-12T12:09:07Z</time>
      </trkpt>
      <trkpt lat="49.98037" lon="2.06561">
        <ele>17.5</ele>
        <time>2022-04-12T12:09:08Z</time>
      </trkpt>
      <trkpt lat="49.98037" lon="2.06561">
        <ele>17.5</ele>
        <time>2022-04-12T12:09:09Z</time>
      </trkpt>
      <trkpt lat="49.98037" lon="2.06561">
        <ele>17.5</ele>
        <time>2022-04-12T12:09:10Z</time>
      </trkpt>
      <trkpt lat="49.98038" lon="2.06561">
        <ele>17.5</ele>
        <time>2022-04-12T12:09:12Z</time>
      </trkpt>
      <trkpt lat="49.98038" lon="2.06561">
        <ele>17.5</ele>
        <time>2022-04-12T12:09:13Z</time>
      </trkpt>
      <trkpt lat="49.98038" lon="2.06561">
        <ele>17.5</ele>
        <time>2022-04-12T12:09:14Z</time>
      </trkpt>
      <trkpt lat="49.98038" lon="2.06561">
        <ele>17.5</ele>
        <time>2022-04-12T12:09:15Z</time>
      </trkpt>
      <trkpt lat="49.98038" lon="2.06561">
        <ele>17.5</ele>
        <time>2022-04-12T12:09:16Z</time>
      </trkpt>
      <trkpt lat="49.98038" lon="2.0656">
        <ele>17.5</ele>
        <time>2022-04-12T12:09:17Z</time>
      </trkpt>
      <trkpt lat="49.98038" lon="2.0656">
        <ele>17.5</ele>
        <time>2022-04-12T12:09:18Z</time>
      </trkpt>
      <trkpt lat="49.98037" lon="2.06561">
        <ele>17.5</ele>
        <time>2022-04-12T12:09:19Z</time>
      </trkpt>
      <trkpt lat="49.98037" lon="2.06561">
        <ele>17.5</ele>
        <time>2022-04-12T12:09:20Z</time>
      </trkpt>
      <trkpt lat="49.98037" lon="2.06561">
        <ele>17.5</ele>
        <time>2022-04-12T12:09:21Z</time>
      </trkpt>
      <trkpt lat="49.98037" lon="2.06561">
        <ele>17.5</ele>
        <time>2022-04-12T12:09:22Z</time>
      </trkpt>
      <trkpt lat="49.98037" lon="2.06561">
        <ele>17.5</ele>
        <time>2022-04-12T12:09:23Z</time>
      </trkpt>
      <trkpt lat="49.98037" lon="2.06561">
        <ele>17.5</ele>
        <time>2022-04-12T12:09:24Z</time>
      </trkpt>
      <trkpt lat="49.98037" lon="2.06561">
        <ele>17.5</ele>
        <time>2022-04-12T12:09:25Z</time>
      </trkpt>
      <trkpt lat="49.98037" lon="2.06561">
        <ele>17.5</ele>
        <time>2022-04-12T12:09:26Z</time>
      </trkpt>
      <trkpt lat="49.98037" lon="2.06561">
        <ele>17.5</ele>
        <time>2022-04-12T12:09:27Z</time>
      </trkpt>
      <trkpt lat="49.98037" lon="2.06561">
        <ele>17.5</ele>
        <time>2022-04-12T12:09:28Z</time>
      </trkpt>
      <trkpt lat="49.98037" lon="2.06561">
        <ele>17.5</ele>
        <time>2022-04-12T12:09:29Z</time>
      </trkpt>
      <trkpt lat="49.98037" lon="2.06561">
        <ele>17.5</ele>
        <time>2022-04-12T12:09:30Z</time>
      </trkpt>
      <trkpt lat="49.98037" lon="2.06561">
        <ele>17.5</ele>
        <time>2022-04-12T12:09:31Z</time>
      </trkpt>
      <trkpt lat="49.98037" lon="2.06561">
        <ele>17.5</ele>
        <time>2022-04-12T12:09:32Z</time>
      </trkpt>
      <trkpt lat="49.98037" lon="2.06561">
        <ele>17.5</ele>
        <time>2022-04-12T12:09:33Z</time>
      </trkpt>
      <trkpt lat="49.98037" lon="2.06561">
        <ele>17.5</ele>
        <time>2022-04-12T12:09:34Z</time>
      </trkpt>
      <trkpt lat="49.98037" lon="2.06561">
        <ele>17.5</ele>
        <time>2022-04-12T12:09:35Z</time>
      </trkpt>
      <trkpt lat="49.98037" lon="2.06561">
        <ele>17.5</ele>
        <time>2022-04-12T12:09:36Z</time>
      </trkpt>
      <trkpt lat="49.98037" lon="2.06561">
        <ele>17.5</ele>
        <time>2022-04-12T12:09:37Z</time>
      </trkpt>
      <trkpt lat="49.98037" lon="2.06561">
        <ele>17.5</ele>
        <time>2022-04-12T12:09:38Z</time>
      </trkpt>
      <trkpt lat="49.98037" lon="2.06561">
        <ele>17.5</ele>
        <time>2022-04-12T12:09:39Z</time>
      </trkpt>
      <trkpt lat="49.98037" lon="2.06561">
        <ele>17.5</ele>
        <time>2022-04-12T12:09:40Z</time>
      </trkpt>
      <trkpt lat="49.98037" lon="2.06561">
        <ele>17.5</ele>
        <time>2022-04-12T12:09:41Z</time>
      </trkpt>
      <trkpt lat="49.98037" lon="2.06561">
        <ele>17.5</ele>
        <time>2022-04-12T12:09:42Z</time>
      </trkpt>
      <trkpt lat="49.98037" lon="2.06561">
        <ele>17.5</ele>
        <time>2022-04-12T12:09:43Z</time>
      </trkpt>
      <trkpt lat="49.98037" lon="2.06561">
        <ele>17.5</ele>
        <time>2022-04-12T12:09:44Z</time>
      </trkpt>
      <trkpt lat="49.98037" lon="2.06561">
        <ele>17.5</ele>
        <time>2022-04-12T12:09:45Z</time>
      </trkpt>
      <trkpt lat="49.98037" lon="2.06561">
        <ele>17.5</ele>
        <time>2022-04-12T12:09:46Z</time>
      </trkpt>
      <trkpt lat="49.98037" lon="2.06561">
        <ele>17.5</ele>
        <time>2022-04-12T12:09:47Z</time>
      </trkpt>
      <trkpt lat="49.98037" lon="2.06561">
        <ele>17.5</ele>
        <time>2022-04-12T12:09:48Z</time>
      </trkpt>
      <trkpt lat="49.98037" lon="2.06561">
        <ele>17.5</ele>
        <time>2022-04-12T12:09:49Z</time>
      </trkpt>
      <trkpt lat="49.98037" lon="2.06561">
        <ele>17.5</ele>
        <time>2022-04-12T12:09:50Z</time>
      </trkpt>
      <trkpt lat="49.98037" lon="2.06561">
        <ele>17.5</ele>
        <time>2022-04-12T12:09:51Z</time>
      </trkpt>
      <trkpt lat="49.98037" lon="2.06561">
        <ele>17.5</ele>
        <time>2022-04-12T12:09:52Z</time>
      </trkpt>
      <trkpt lat="49.98037" lon="2.06561">
        <ele>17.5</ele>
        <time>2022-04-12T12:09:53Z</time>
      </trkpt>
      <trkpt lat="49.98037" lon="2.06561">
        <ele>17.5</ele>
        <time>2022-04-12T12:09:54Z</time>
      </trkpt>
      <trkpt lat="49.98037" lon="2.06561">
        <ele>17.5</ele>
        <time>2022-04-12T12:09:55Z</time>
      </trkpt>
      <trkpt lat="49.98037" lon="2.06561">
        <ele>17.5</ele>
        <time>2022-04-12T12:09:56Z</time>
      </trkpt>
      <trkpt lat="49.98037" lon="2.06561">
        <ele>17.5</ele>
        <time>2022-04-12T12:09:57Z</time>
      </trkpt>
      <trkpt lat="49.98037" lon="2.06561">
        <ele>17.5</ele>
        <time>2022-04-12T12:09:58Z</time>
      </trkpt>
      <trkpt lat="49.98037" lon="2.06561">
        <ele>17.5</ele>
        <time>2022-04-12T12:09:59Z</time>
      </trkpt>
      <trkpt lat="49.98037" lon="2.06561">
        <ele>17.5</ele>
        <time>2022-04-12T12:10:00Z</time>
      </trkpt>
      <trkpt lat="49.98037" lon="2.06561">
        <ele>17.5</ele>
        <time>2022-04-12T12:10:01Z</time>
      </trkpt>
      <trkpt lat="49.98037" lon="2.06561">
        <ele>17.5</ele>
        <time>2022-04-12T12:10:02Z</time>
      </trkpt>
      <trkpt lat="49.98037" lon="2.06561">
        <ele>17.5</ele>
        <time>2022-04-12T12:10:03Z</time>
      </trkpt>
      <trkpt lat="49.98037" lon="2.06561">
        <ele>17.5</ele>
        <time>2022-04-12T12:10:04Z</time>
      </trkpt>
      <trkpt lat="49.98037" lon="2.06561">
        <ele>17.5</ele>
        <time>2022-04-12T12:10:05Z</time>
      </trkpt>
      <trkpt lat="49.98037" lon="2.06561">
        <ele>17.5</ele>
        <time>2022-04-12T12:10:06Z</time>
      </trkpt>
      <trkpt lat="49.98037" lon="2.06561">
        <ele>17.5</ele>
        <time>2022-04-12T12:10:07Z</time>
      </trkpt>
      <trkpt lat="49.98037" lon="2.06561">
        <ele>17.5</ele>
        <time>2022-04-12T12:10:08Z</time>
      </trkpt>
      <trkpt lat="49.98037" lon="2.06561">
        <ele>17.5</ele>
        <time>2022-04-12T12:10:09Z</time>
      </trkpt>
      <trkpt lat="49.98037" lon="2.06561">
        <ele>17.5</ele>
        <time>2022-04-12T12:10:10Z</time>
      </trkpt>
      <trkpt lat="49.98037" lon="2.06561">
        <ele>17.5</ele>
        <time>2022-04-12T12:10:11Z</time>
      </trkpt>
      <trkpt lat="49.98037" lon="2.06561">
        <ele>17.5</ele>
        <time>2022-04-12T12:10:12Z</time>
      </trkpt>
      <trkpt lat="49.98037" lon="2.06561">
        <ele>17.5</ele>
        <time>2022-04-12T12:10:13Z</time>
      </trkpt>
      <trkpt lat="49.98037" lon="2.06561">
        <ele>17.5</ele>
        <time>2022-04-12T12:10:14Z</time>
      </trkpt>
      <trkpt lat="49.98037" lon="2.06561">
        <ele>17.5</ele>
        <time>2022-04-12T12:10:15Z</time>
      </trkpt>
      <trkpt lat="49.98037" lon="2.06561">
        <ele>17.5</ele>
        <time>2022-04-12T12:10:16Z</time>
      </trkpt>
      <trkpt lat="49.98037" lon="2.06561">
        <ele>17.5</ele>
        <time>2022-04-12T12:10:17Z</time>
      </trkpt>
      <trkpt lat="49.98037" lon="2.06561">
        <ele>17.5</ele>
        <time>2022-04-12T12:10:18Z</time>
      </trkpt>
      <trkpt lat="49.98037" lon="2.06561">
        <ele>17.5</ele>
        <time>2022-04-12T12:10:19Z</time>
      </trkpt>
      <trkpt lat="49.98037" lon="2.06561">
        <ele>17.5</ele>
        <time>2022-04-12T12:10:20Z</time>
      </trkpt>
      <trkpt lat="49.98037" lon="2.06561">
        <ele>17.5</ele>
        <time>2022-04-12T12:10:21Z</time>
      </trkpt>
      <trkpt lat="49.98037" lon="2.06561">
        <ele>17.5</ele>
        <time>2022-04-12T12:10:22Z</time>
      </trkpt>
      <trkpt lat="49.98037" lon="2.06561">
        <ele>17.5</ele>
        <time>2022-04-12T12:10:23Z</time>
      </trkpt>
      <trkpt lat="49.98037" lon="2.06561">
        <ele>17.5</ele>
        <time>2022-04-12T12:10:24Z</time>
      </trkpt>
      <trkpt lat="49.98037" lon="2.06561">
        <ele>17.5</ele>
        <time>2022-04-12T12:10:25Z</time>
      </trkpt>
      <trkpt lat="49.98037" lon="2.06561">
        <ele>17.5</ele>
        <time>2022-04-12T12:10:26Z</time>
      </trkpt>
      <trkpt lat="49.98037" lon="2.06561">
        <ele>17.5</ele>
        <time>2022-04-12T12:10:27Z</time>
      </trkpt>
      <trkpt lat="49.98037" lon="2.06561">
        <ele>17.5</ele>
        <time>2022-04-12T12:10:28Z</time>
      </trkpt>
      <trkpt lat="49.98037" lon="2.06561">
        <ele>17.5</ele>
        <time>2022-04-12T12:10:29Z</time>
      </trkpt>
      <trkpt lat="49.98037" lon="2.06561">
        <ele>17.5</ele>
        <time>2022-04-12T12:10:30Z</time>
      </trkpt>
      <trkpt lat="49.98037" lon="2.06561">
        <ele>17.5</ele>
        <time>2022-04-12T12:10:31Z</time>
      </trkpt>
      <trkpt lat="49.98037" lon="2.06561">
        <ele>17.5</ele>
        <time>2022-04-12T12:10:32Z</time>
      </trkpt>
      <trkpt lat="49.98037" lon="2.06561">
        <ele>17.5</ele>
        <time>2022-04-12T12:10:33Z</time>
      </trkpt>
      <trkpt lat="49.98037" lon="2.06561">
        <ele>17.5</ele>
        <time>2022-04-12T12:10:34Z</time>
      </trkpt>
      <trkpt lat="49.98037" lon="2.06561">
        <ele>17.5</ele>
        <time>2022-04-12T12:10:35Z</time>
      </trkpt>
      <trkpt lat="49.98037" lon="2.06561">
        <ele>17.5</ele>
        <time>2022-04-12T12:10:36Z</time>
      </trkpt>
      <trkpt lat="49.98037" lon="2.06561">
        <ele>17.5</ele>
        <time>2022-04-12T12:10:37Z</time>
      </trkpt>
      <trkpt lat="49.98037" lon="2.06561">
        <ele>17.5</ele>
        <time>2022-04-12T12:10:38Z</time>
      </trkpt>
      <trkpt lat="49.98037" lon="2.06561">
        <ele>17.5</ele>
        <time>2022-04-12T12:10:39Z</time>
      </trkpt>
      <trkpt lat="49.98037" lon="2.06561">
        <ele>17.5</ele>
        <time>2022-04-12T12:10:40Z</time>
      </trkpt>
      <trkpt lat="49.98037" lon="2.06561">
        <ele>17.5</ele>
        <time>2022-04-12T12:10:41Z</time>
      </trkpt>
      <trkpt lat="49.98037" lon="2.06561">
        <ele>17.5</ele>
        <time>2022-04-12T12:10:42Z</time>
      </trkpt>
      <trkpt lat="49.98037" lon="2.06561">
        <ele>17.5</ele>
        <time>2022-04-12T12:10:43Z</time>
      </trkpt>
      <trkpt lat="49.98037" lon="2.06561">
        <ele>17.5</ele>
        <time>2022-04-12T12:10:44Z</time>
      </trkpt>
      <trkpt lat="49.98037" lon="2.06561">
        <ele>17.5</ele>
        <time>2022-04-12T12:10:45Z</time>
      </trkpt>
      <trkpt lat="49.98037" lon="2.06561">
        <ele>17.5</ele>
        <time>2022-04-12T12:10:46Z</time>
      </trkpt>
      <trkpt lat="49.98037" lon="2.06561">
        <ele>17.5</ele>
        <time>2022-04-12T12:10:47Z</time>
      </trkpt>
      <trkpt lat="49.98037" lon="2.06561">
        <ele>17.5</ele>
        <time>2022-04-12T12:10:48Z</time>
      </trkpt>
      <trkpt lat="49.98037" lon="2.06561">
        <ele>17.5</ele>
        <time>2022-04-12T12:10:49Z</time>
      </trkpt>
      <trkpt lat="49.98037" lon="2.06561">
        <ele>17.5</ele>
        <time>2022-04-12T12:10:50Z</time>
      </trkpt>
      <trkpt lat="49.98037" lon="2.06561">
        <ele>17.5</ele>
        <time>2022-04-12T12:10:51Z</time>
      </trkpt>
      <trkpt lat="49.98037" lon="2.06561">
        <ele>17.5</ele>
        <time>2022-04-12T12:10:52Z</time>
      </trkpt>
      <trkpt lat="49.98037" lon="2.06561">
        <ele>17.5</ele>
        <time>2022-04-12T12:10:53Z</time>
      </trkpt>
      <trkpt lat="49.98037" lon="2.06561">
        <ele>17.5</ele>
        <time>2022-04-12T12:10:54Z</time>
      </trkpt>
      <trkpt lat="49.98037" lon="2.06561">
        <ele>17.5</ele>
        <time>2022-04-12T12:10:55Z</time>
      </trkpt>
      <trkpt lat="49.98037" lon="2.06561">
        <ele>17.5</ele>
        <time>2022-04-12T12:10:56Z</time>
      </trkpt>
      <trkpt lat="49.98037" lon="2.06561">
        <ele>17.5</ele>
        <time>2022-04-12T12:10:57Z</time>
      </trkpt>
      <trkpt lat="49.98037" lon="2.06561">
        <ele>17.5</ele>
        <time>2022-04-12T12:10:58Z</time>
      </trkpt>
      <trkpt lat="49.98037" lon="2.06561">
        <ele>17.5</ele>
        <time>2022-04-12T12:10:59Z</time>
      </trkpt>
      <trkpt lat="49.98037" lon="2.06561">
        <ele>17.5</ele>
        <time>2022-04-12T12:11:00Z</time>
      </trkpt>
      <trkpt lat="49.98037" lon="2.06561">
        <ele>17.5</ele>
        <time>2022-04-12T12:11:01Z</time>
      </trkpt>
      <trkpt lat="49.98037" lon="2.06561">
        <ele>17.5</ele>
        <time>2022-04-12T12:11:02Z</time>
      </trkpt>
      <trkpt lat="49.98037" lon="2.06561">
        <ele>17.5</ele>
        <time>2022-04-12T12:11:03Z</time>
      </trkpt>
      <trkpt lat="49.98037" lon="2.06561">
        <ele>17.5</ele>
        <time>2022-04-12T12:11:04Z</time>
      </trkpt>
      <trkpt lat="49.98037" lon="2.06561">
        <ele>17.5</ele>
        <time>2022-04-12T12:11:05Z</time>
      </trkpt>
      <trkpt lat="49.98037" lon="2.06561">
        <ele>17.5</ele>
        <time>2022-04-12T12:11:06Z</time>
      </trkpt>
      <trkpt lat="49.98037" lon="2.06561">
        <ele>17.5</ele>
        <time>2022-04-12T12:11:07Z</time>
      </trkpt>
      <trkpt lat="49.98037" lon="2.06561">
        <ele>17.5</ele>
        <time>2022-04-12T12:11:08Z</time>
      </trkpt>
      <trkpt lat="49.98037" lon="2.06561">
        <ele>17.5</ele>
        <time>2022-04-12T12:11:09Z</time>
      </trkpt>
      <trkpt lat="49.98037" lon="2.06561">
        <ele>17.5</ele>
        <time>2022-04-12T12:11:10Z</time>
      </trkpt>
      <trkpt lat="49.98037" lon="2.06561">
        <ele>17.5</ele>
        <time>2022-04-12T12:11:11Z</time>
      </trkpt>
      <trkpt lat="49.98037" lon="2.06561">
        <ele>17.5</ele>
        <time>2022-04-12T12:11:12Z</time>
      </trkpt>
      <trkpt lat="49.98037" lon="2.06561">
        <ele>17.5</ele>
        <time>2022-04-12T12:11:13Z</time>
      </trkpt>
      <trkpt lat="49.98037" lon="2.06561">
        <ele>17.5</ele>
        <time>2022-04-12T12:11:14Z</time>
      </trkpt>
      <trkpt lat="49.98037" lon="2.06561">
        <ele>17.5</ele>
        <time>2022-04-12T12:11:15Z</time>
      </trkpt>
      <trkpt lat="49.98037" lon="2.06561">
        <ele>17.5</ele>
        <time>2022-04-12T12:11:16Z</time>
      </trkpt>
      <trkpt lat="49.98037" lon="2.06561">
        <ele>17.5</ele>
        <time>2022-04-12T12:11:17Z</time>
      </trkpt>
      <trkpt lat="49.98037" lon="2.06561">
        <ele>17.5</ele>
        <time>2022-04-12T12:11:18Z</time>
      </trkpt>
      <trkpt lat="49.98037" lon="2.06561">
        <ele>17.5</ele>
        <time>2022-04-12T12:11:19Z</time>
      </trkpt>
      <trkpt lat="49.98037" lon="2.06561">
        <ele>17.5</ele>
        <time>2022-04-12T12:11:20Z</time>
      </trkpt>
      <trkpt lat="49.98037" lon="2.06561">
        <ele>17.5</ele>
        <time>2022-04-12T12:11:21Z</time>
      </trkpt>
      <trkpt lat="49.98037" lon="2.06561">
        <ele>17.5</ele>
        <time>2022-04-12T12:11:22Z</time>
      </trkpt>
      <trkpt lat="49.98037" lon="2.06561">
        <ele>17.5</ele>
        <time>2022-04-12T12:11:23Z</time>
      </trkpt>
      <trkpt lat="49.98037" lon="2.06561">
        <ele>17.5</ele>
        <time>2022-04-12T12:11:24Z</time>
      </trkpt>
      <trkpt lat="49.98037" lon="2.06561">
        <ele>17.5</ele>
        <time>2022-04-12T12:11:25Z</time>
      </trkpt>
      <trkpt lat="49.98037" lon="2.06561">
        <ele>17.5</ele>
        <time>2022-04-12T12:11:26Z</time>
      </trkpt>
      <trkpt lat="49.98037" lon="2.06561">
        <ele>17.5</ele>
        <time>2022-04-12T12:11:27Z</time>
      </trkpt>
      <trkpt lat="49.98037" lon="2.06561">
        <ele>17.5</ele>
        <time>2022-04-12T12:11:28Z</time>
      </trkpt>
      <trkpt lat="49.98037" lon="2.06561">
        <ele>17.5</ele>
        <time>2022-04-12T12:11:29Z</time>
      </trkpt>
      <trkpt lat="49.98037" lon="2.06561">
        <ele>17.5</ele>
        <time>2022-04-12T12:11:30Z</time>
      </trkpt>
      <trkpt lat="49.98037" lon="2.06561">
        <ele>17.5</ele>
        <time>2022-04-12T12:11:31Z</time>
      </trkpt>
      <trkpt lat="49.98037" lon="2.06561">
        <ele>17.5</ele>
        <time>2022-04-12T12:11:32Z</time>
      </trkpt>
      <trkpt lat="49.98037" lon="2.06561">
        <ele>17.5</ele>
        <time>2022-04-12T12:11:33Z</time>
      </trkpt>
      <trkpt lat="49.98037" lon="2.06561">
        <ele>17.5</ele>
        <time>2022-04-12T12:11:34Z</time>
      </trkpt>
      <trkpt lat="49.98037" lon="2.06561">
        <ele>17.5</ele>
        <time>2022-04-12T12:11:35Z</time>
      </trkpt>
      <trkpt lat="49.98037" lon="2.06561">
        <ele>17.5</ele>
        <time>2022-04-12T12:11:36Z</time>
      </trkpt>
      <trkpt lat="49.98037" lon="2.06561">
        <ele>17.5</ele>
        <time>2022-04-12T12:11:37Z</time>
      </trkpt>
      <trkpt lat="49.98037" lon="2.06561">
        <ele>17.5</ele>
        <time>2022-04-12T12:11:38Z</time>
      </trkpt>
      <trkpt lat="49.98037" lon="2.06561">
        <ele>17.5</ele>
        <time>2022-04-12T12:11:39Z</time>
      </trkpt>
      <trkpt lat="49.98037" lon="2.06561">
        <ele>17.5</ele>
        <time>2022-04-12T12:11:40Z</time>
      </trkpt>
      <trkpt lat="49.98037" lon="2.06561">
        <ele>17.5</ele>
        <time>2022-04-12T12:11:41Z</time>
      </trkpt>
      <trkpt lat="49.98037" lon="2.06561">
        <ele>17.5</ele>
        <time>2022-04-12T12:11:42Z</time>
      </trkpt>
      <trkpt lat="49.98037" lon="2.06561">
        <ele>17.5</ele>
        <time>2022-04-12T12:11:43Z</time>
      </trkpt>
      <trkpt lat="49.98037" lon="2.06561">
        <ele>17.5</ele>
        <time>2022-04-12T12:11:44Z</time>
      </trkpt>
      <trkpt lat="49.98037" lon="2.06561">
        <ele>17.5</ele>
        <time>2022-04-12T12:11:45Z</time>
      </trkpt>
      <trkpt lat="49.98037" lon="2.06561">
        <ele>17.5</ele>
        <time>2022-04-12T12:11:46Z</time>
      </trkpt>
      <trkpt lat="49.98037" lon="2.06561">
        <ele>17.5</ele>
        <time>2022-04-12T12:11:47Z</time>
      </trkpt>
      <trkpt lat="49.98037" lon="2.06561">
        <ele>17.5</ele>
        <time>2022-04-12T12:11:48Z</time>
      </trkpt>
      <trkpt lat="49.98037" lon="2.06561">
        <ele>17.5</ele>
        <time>2022-04-12T12:11:49Z</time>
      </trkpt>
      <trkpt lat="49.98037" lon="2.06561">
        <ele>17.5</ele>
        <time>2022-04-12T12:11:50Z</time>
      </trkpt>
      <trkpt lat="49.98037" lon="2.06561">
        <ele>17.5</ele>
        <time>2022-04-12T12:11:51Z</time>
      </trkpt>
      <trkpt lat="49.98037" lon="2.06561">
        <ele>17.5</ele>
        <time>2022-04-12T12:11:52Z</time>
      </trkpt>
      <trkpt lat="49.98037" lon="2.06561">
        <ele>17.5</ele>
        <time>2022-04-12T12:11:53Z</time>
      </trkpt>
      <trkpt lat="49.98037" lon="2.06561">
        <ele>17.5</ele>
        <time>2022-04-12T12:11:54Z</time>
      </trkpt>
      <trkpt lat="49.98037" lon="2.06561">
        <ele>17.5</ele>
        <time>2022-04-12T12:11:55Z</time>
      </trkpt>
      <trkpt lat="49.98037" lon="2.06561">
        <ele>17.5</ele>
        <time>2022-04-12T12:11:56Z</time>
      </trkpt>
      <trkpt lat="49.98037" lon="2.06561">
        <ele>17.5</ele>
        <time>2022-04-12T12:11:57Z</time>
      </trkpt>
      <trkpt lat="49.98037" lon="2.06561">
        <ele>17.5</ele>
        <time>2022-04-12T12:11:58Z</time>
      </trkpt>
      <trkpt lat="49.98037" lon="2.06561">
        <ele>17.5</ele>
        <time>2022-04-12T12:11:59Z</time>
      </trkpt>
      <trkpt lat="49.98037" lon="2.06561">
        <ele>17.5</ele>
        <time>2022-04-12T12:12:00Z</time>
      </trkpt>
      <trkpt lat="49.98037" lon="2.06561">
        <ele>17.5</ele>
        <time>2022-04-12T12:12:01Z</time>
      </trkpt>
      <trkpt lat="49.98037" lon="2.06561">
        <ele>17.5</ele>
        <time>2022-04-12T12:12:02Z</time>
      </trkpt>
      <trkpt lat="49.98037" lon="2.06561">
        <ele>17.5</ele>
        <time>2022-04-12T12:12:03Z</time>
      </trkpt>
      <trkpt lat="49.98037" lon="2.06561">
        <ele>17.5</ele>
        <time>2022-04-12T12:12:04Z</time>
      </trkpt>
      <trkpt lat="49.98037" lon="2.06561">
        <ele>17.5</ele>
        <time>2022-04-12T12:12:05Z</time>
      </trkpt>
      <trkpt lat="49.98037" lon="2.06561">
        <ele>17.5</ele>
        <time>2022-04-12T12:12:06Z</time>
      </trkpt>
      <trkpt lat="49.98037" lon="2.06561">
        <ele>17.5</ele>
        <time>2022-04-12T12:12:07Z</time>
      </trkpt>
      <trkpt lat="49.98037" lon="2.06561">
        <ele>17.5</ele>
        <time>2022-04-12T12:12:08Z</time>
      </trkpt>
      <trkpt lat="49.98037" lon="2.06561">
        <ele>17.5</ele>
        <time>2022-04-12T12:12:09Z</time>
      </trkpt>
      <trkpt lat="49.98037" lon="2.06561">
        <ele>17.5</ele>
        <time>2022-04-12T12:12:10Z</time>
      </trkpt>
      <trkpt lat="49.98037" lon="2.06561">
        <ele>17.5</ele>
        <time>2022-04-12T12:12:11Z</time>
      </trkpt>
      <trkpt lat="49.98037" lon="2.06561">
        <ele>17.5</ele>
        <time>2022-04-12T12:12:12Z</time>
      </trkpt>
      <trkpt lat="49.98037" lon="2.06561">
        <ele>17.5</ele>
        <time>2022-04-12T12:12:13Z</time>
      </trkpt>
      <trkpt lat="49.98037" lon="2.06561">
        <ele>17.5</ele>
        <time>2022-04-12T12:12:14Z</time>
      </trkpt>
      <trkpt lat="49.98037" lon="2.06561">
        <ele>17.5</ele>
        <time>2022-04-12T12:12:15Z</time>
      </trkpt>
      <trkpt lat="49.98037" lon="2.06561">
        <ele>17.5</ele>
        <time>2022-04-12T12:12:16Z</time>
      </trkpt>
      <trkpt lat="49.98037" lon="2.06561">
        <ele>17.5</ele>
        <time>2022-04-12T12:12:17Z</time>
      </trkpt>
      <trkpt lat="49.98037" lon="2.06561">
        <ele>17.5</ele>
        <time>2022-04-12T12:12:18Z</time>
      </trkpt>
      <trkpt lat="49.98037" lon="2.06561">
        <ele>17.5</ele>
        <time>2022-04-12T12:12:19Z</time>
      </trkpt>
      <trkpt lat="49.98037" lon="2.06561">
        <ele>17.5</ele>
        <time>2022-04-12T12:12:20Z</time>
      </trkpt>
      <trkpt lat="49.98037" lon="2.06561">
        <ele>17.5</ele>
        <time>2022-04-12T12:12:21Z</time>
      </trkpt>
      <trkpt lat="49.98037" lon="2.06561">
        <ele>17.5</ele>
        <time>2022-04-12T12:12:22Z</time>
      </trkpt>
      <trkpt lat="49.98037" lon="2.06561">
        <ele>17.5</ele>
        <time>2022-04-12T12:12:23Z</time>
      </trkpt>
      <trkpt lat="49.98037" lon="2.06561">
        <ele>17.5</ele>
        <time>2022-04-12T12:12:24Z</time>
      </trkpt>
      <trkpt lat="49.98037" lon="2.06561">
        <ele>17.5</ele>
        <time>2022-04-12T12:12:25Z</time>
      </trkpt>
      <trkpt lat="49.98037" lon="2.06561">
        <ele>17.5</ele>
        <time>2022-04-12T12:12:26Z</time>
      </trkpt>
      <trkpt lat="49.98037" lon="2.06561">
        <ele>17.5</ele>
        <time>2022-04-12T12:12:27Z</time>
      </trkpt>
      <trkpt lat="49.98037" lon="2.06561">
        <ele>17.5</ele>
        <time>2022-04-12T12:12:28Z</time>
      </trkpt>
      <trkpt lat="49.98037" lon="2.06561">
        <ele>17.5</ele>
        <time>2022-04-12T12:12:29Z</time>
      </trkpt>
      <trkpt lat="49.98037" lon="2.06561">
        <ele>17.5</ele>
        <time>2022-04-12T12:12:30Z</time>
      </trkpt>
      <trkpt lat="49.98037" lon="2.06561">
        <ele>17.5</ele>
        <time>2022-04-12T12:12:31Z</time>
      </trkpt>
      <trkpt lat="49.98037" lon="2.06561">
        <ele>17.5</ele>
        <time>2022-04-12T12:12:32Z</time>
      </trkpt>
      <trkpt lat="49.98037" lon="2.06561">
        <ele>17.5</ele>
        <time>2022-04-12T12:12:33Z</time>
      </trkpt>
      <trkpt lat="49.98037" lon="2.06561">
        <ele>17.5</ele>
        <time>2022-04-12T12:12:34Z</time>
      </trkpt>
      <trkpt lat="49.98037" lon="2.06561">
        <ele>17.5</ele>
        <time>2022-04-12T12:12:35Z</time>
      </trkpt>
      <trkpt lat="49.98037" lon="2.06561">
        <ele>17.5</ele>
        <time>2022-04-12T12:12:36Z</time>
      </trkpt>
      <trkpt lat="49.98037" lon="2.06561">
        <ele>17.5</ele>
        <time>2022-04-12T12:12:37Z</time>
      </trkpt>
      <trkpt lat="49.98037" lon="2.06561">
        <ele>17.5</ele>
        <time>2022-04-12T12:12:38Z</time>
      </trkpt>
      <trkpt lat="49.98037" lon="2.06561">
        <ele>17.5</ele>
        <time>2022-04-12T12:12:39Z</time>
      </trkpt>
      <trkpt lat="49.98037" lon="2.06561">
        <ele>17.5</ele>
        <time>2022-04-12T12:12:40Z</time>
      </trkpt>
      <trkpt lat="49.98037" lon="2.06561">
        <ele>17.5</ele>
        <time>2022-04-12T12:12:41Z</time>
      </trkpt>
      <trkpt lat="49.98037" lon="2.06561">
        <ele>17.5</ele>
        <time>2022-04-12T12:12:42Z</time>
      </trkpt>
      <trkpt lat="49.98037" lon="2.06561">
        <ele>17.5</ele>
        <time>2022-04-12T12:12:43Z</time>
      </trkpt>
      <trkpt lat="49.98037" lon="2.06561">
        <ele>17.5</ele>
        <time>2022-04-12T12:12:44Z</time>
      </trkpt>
      <trkpt lat="49.98037" lon="2.06561">
        <ele>17.5</ele>
        <time>2022-04-12T12:12:45Z</time>
      </trkpt>
      <trkpt lat="49.98037" lon="2.06561">
        <ele>17.5</ele>
        <time>2022-04-12T12:12:46Z</time>
      </trkpt>
      <trkpt lat="49.98037" lon="2.06561">
        <ele>17.5</ele>
        <time>2022-04-12T12:12:47Z</time>
      </trkpt>
      <trkpt lat="49.98037" lon="2.06561">
        <ele>17.5</ele>
        <time>2022-04-12T12:12:48Z</time>
      </trkpt>
      <trkpt lat="49.98037" lon="2.06561">
        <ele>17.5</ele>
        <time>2022-04-12T12:12:49Z</time>
      </trkpt>
      <trkpt lat="49.98037" lon="2.06561">
        <ele>17.5</ele>
        <time>2022-04-12T12:12:50Z</time>
      </trkpt>
      <trkpt lat="49.98037" lon="2.06561">
        <ele>17.5</ele>
        <time>2022-04-12T12:12:51Z</time>
      </trkpt>
      <trkpt lat="49.98037" lon="2.06561">
        <ele>17.5</ele>
        <time>2022-04-12T12:12:52Z</time>
      </trkpt>
      <trkpt lat="49.98037" lon="2.06561">
        <ele>17.5</ele>
        <time>2022-04-12T12:12:53Z</time>
      </trkpt>
      <trkpt lat="49.98037" lon="2.06561">
        <ele>17.5</ele>
        <time>2022-04-12T12:12:54Z</time>
      </trkpt>
      <trkpt lat="49.98037" lon="2.06561">
        <ele>17.5</ele>
        <time>2022-04-12T12:12:55Z</time>
      </trkpt>
      <trkpt lat="49.98037" lon="2.06561">
        <ele>17.5</ele>
        <time>2022-04-12T12:12:56Z</time>
      </trkpt>
      <trkpt lat="49.98037" lon="2.06561">
        <ele>17.5</ele>
        <time>2022-04-12T12:12:57Z</time>
      </trkpt>
      <trkpt lat="49.98037" lon="2.06561">
        <ele>17.5</ele>
        <time>2022-04-12T12:12:58Z</time>
      </trkpt>
      <trkpt lat="49.98037" lon="2.06561">
        <ele>17.5</ele>
        <time>2022-04-12T12:12:59Z</time>
      </trkpt>
      <trkpt lat="49.98037" lon="2.06561">
        <ele>17.5</ele>
        <time>2022-04-12T12:13:00Z</time>
      </trkpt>
      <trkpt lat="49.98037" lon="2.06561">
        <ele>17.5</ele>
        <time>2022-04-12T12:13:01Z</time>
      </trkpt>
      <trkpt lat="49.98037" lon="2.06561">
        <ele>17.5</ele>
        <time>2022-04-12T12:13:02Z</time>
      </trkpt>
      <trkpt lat="49.98037" lon="2.06561">
        <ele>17.5</ele>
        <time>2022-04-12T12:13:03Z</time>
      </trkpt>
      <trkpt lat="49.98037" lon="2.06561">
        <ele>17.5</ele>
        <time>2022-04-12T12:13:04Z</time>
      </trkpt>
      <trkpt lat="49.98037" lon="2.06561">
        <ele>17.5</ele>
        <time>2022-04-12T12:13:05Z</time>
      </trkpt>
      <trkpt lat="49.98037" lon="2.06561">
        <ele>17.5</ele>
        <time>2022-04-12T12:13:06Z</time>
      </trkpt>
      <trkpt lat="49.98037" lon="2.06561">
        <ele>17.5</ele>
        <time>2022-04-12T12:13:07Z</time>
      </trkpt>
      <trkpt lat="49.98037" lon="2.06561">
        <ele>17.5</ele>
        <time>2022-04-12T12:13:08Z</time>
      </trkpt>
      <trkpt lat="49.98037" lon="2.06561">
        <ele>17.5</ele>
        <time>2022-04-12T12:13:09Z</time>
      </trkpt>
      <trkpt lat="49.98037" lon="2.06561">
        <ele>17.5</ele>
        <time>2022-04-12T12:13:10Z</time>
      </trkpt>
      <trkpt lat="49.98037" lon="2.06561">
        <ele>17.5</ele>
        <time>2022-04-12T12:13:11Z</time>
      </trkpt>
      <trkpt lat="49.98037" lon="2.06561">
        <ele>17.5</ele>
        <time>2022-04-12T12:13:12Z</time>
      </trkpt>
      <trkpt lat="49.98037" lon="2.06561">
        <ele>17.5</ele>
        <time>2022-04-12T12:13:13Z</time>
      </trkpt>
      <trkpt lat="49.98037" lon="2.06561">
        <ele>17.5</ele>
        <time>2022-04-12T12:13:14Z</time>
      </trkpt>
      <trkpt lat="49.98037" lon="2.06561">
        <ele>17.5</ele>
        <time>2022-04-12T12:13:15Z</time>
      </trkpt>
      <trkpt lat="49.98037" lon="2.06561">
        <ele>17.5</ele>
        <time>2022-04-12T12:13:16Z</time>
      </trkpt>
      <trkpt lat="49.98037" lon="2.06561">
        <ele>17.5</ele>
        <time>2022-04-12T12:13:17Z</time>
      </trkpt>
      <trkpt lat="49.98037" lon="2.06561">
        <ele>17.5</ele>
        <time>2022-04-12T12:13:18Z</time>
      </trkpt>
      <trkpt lat="49.98037" lon="2.06561">
        <ele>17.5</ele>
        <time>2022-04-12T12:13:19Z</time>
      </trkpt>
      <trkpt lat="49.98037" lon="2.06561">
        <ele>17.5</ele>
        <time>2022-04-12T12:13:20Z</time>
      </trkpt>
      <trkpt lat="49.98037" lon="2.06561">
        <ele>17.5</ele>
        <time>2022-04-12T12:13:21Z</time>
      </trkpt>
      <trkpt lat="49.98037" lon="2.06561">
        <ele>17.5</ele>
        <time>2022-04-12T12:13:22Z</time>
      </trkpt>
      <trkpt lat="49.98037" lon="2.06561">
        <ele>17.5</ele>
        <time>2022-04-12T12:13:23Z</time>
      </trkpt>
      <trkpt lat="49.98037" lon="2.06561">
        <ele>17.5</ele>
        <time>2022-04-12T12:13:24Z</time>
      </trkpt>
      <trkpt lat="49.98037" lon="2.06561">
        <ele>17.5</ele>
        <time>2022-04-12T12:13:25Z</time>
      </trkpt>
      <trkpt lat="49.98037" lon="2.06561">
        <ele>17.5</ele>
        <time>2022-04-12T12:13:26Z</time>
      </trkpt>
      <trkpt lat="49.98037" lon="2.06561">
        <ele>17.5</ele>
        <time>2022-04-12T12:13:27Z</time>
      </trkpt>
      <trkpt lat="49.98037" lon="2.06561">
        <ele>17.5</ele>
        <time>2022-04-12T12:13:28Z</time>
      </trkpt>
      <trkpt lat="49.98037" lon="2.06561">
        <ele>17.5</ele>
        <time>2022-04-12T12:13:29Z</time>
      </trkpt>
      <trkpt lat="49.98037" lon="2.06561">
        <ele>17.5</ele>
        <time>2022-04-12T12:13:30Z</time>
      </trkpt>
      <trkpt lat="49.98037" lon="2.06561">
        <ele>17.5</ele>
        <time>2022-04-12T12:13:31Z</time>
      </trkpt>
      <trkpt lat="49.98037" lon="2.06561">
        <ele>17.5</ele>
        <time>2022-04-12T12:13:32Z</time>
      </trkpt>
      <trkpt lat="49.98037" lon="2.06561">
        <ele>17.5</ele>
        <time>2022-04-12T12:13:33Z</time>
      </trkpt>
      <trkpt lat="49.98037" lon="2.06561">
        <ele>17.5</ele>
        <time>2022-04-12T12:13:34Z</time>
      </trkpt>
      <trkpt lat="49.98037" lon="2.06561">
        <ele>17.5</ele>
        <time>2022-04-12T12:13:35Z</time>
      </trkpt>
      <trkpt lat="49.98037" lon="2.06561">
        <ele>17.5</ele>
        <time>2022-04-12T12:13:36Z</time>
      </trkpt>
      <trkpt lat="49.98037" lon="2.06561">
        <ele>17.5</ele>
        <time>2022-04-12T12:13:37Z</time>
      </trkpt>
      <trkpt lat="49.98037" lon="2.06561">
        <ele>17.5</ele>
        <time>2022-04-12T12:13:38Z</time>
      </trkpt>
      <trkpt lat="49.98037" lon="2.06561">
        <ele>17.5</ele>
        <time>2022-04-12T12:13:39Z</time>
      </trkpt>
      <trkpt lat="49.98037" lon="2.06561">
        <ele>17.5</ele>
        <time>2022-04-12T12:13:40Z</time>
      </trkpt>
      <trkpt lat="49.98037" lon="2.06561">
        <ele>17.5</ele>
        <time>2022-04-12T12:13:41Z</time>
      </trkpt>
      <trkpt lat="49.98037" lon="2.06561">
        <ele>17.5</ele>
        <time>2022-04-12T12:13:42Z</time>
      </trkpt>
      <trkpt lat="49.98037" lon="2.06561">
        <ele>17.5</ele>
        <time>2022-04-12T12:13:43Z</time>
      </trkpt>
      <trkpt lat="49.98037" lon="2.06561">
        <ele>17.5</ele>
        <time>2022-04-12T12:13:44Z</time>
      </trkpt>
      <trkpt lat="49.98037" lon="2.06561">
        <ele>17.5</ele>
        <time>2022-04-12T12:13:45Z</time>
      </trkpt>
      <trkpt lat="49.98037" lon="2.06561">
        <ele>17.5</ele>
        <time>2022-04-12T12:13:46Z</time>
      </trkpt>
      <trkpt lat="49.98037" lon="2.06561">
        <ele>17.5</ele>
        <time>2022-04-12T12:13:47Z</time>
      </trkpt>
      <trkpt lat="49.98037" lon="2.06561">
        <ele>17.5</ele>
        <time>2022-04-12T12:13:48Z</time>
      </trkpt>
      <trkpt lat="49.98037" lon="2.06561">
        <ele>17.5</ele>
        <time>2022-04-12T12:13:49Z</time>
      </trkpt>
      <trkpt lat="49.98037" lon="2.06561">
        <ele>17.5</ele>
        <time>2022-04-12T12:13:50Z</time>
      </trkpt>
      <trkpt lat="49.98037" lon="2.06561">
        <ele>17.5</ele>
        <time>2022-04-12T12:13:51Z</time>
      </trkpt>
      <trkpt lat="49.98037" lon="2.06561">
        <ele>17.5</ele>
        <time>2022-04-12T12:13:52Z</time>
      </trkpt>
      <trkpt lat="49.98037" lon="2.06561">
        <ele>17.5</ele>
        <time>2022-04-12T12:13:53Z</time>
      </trkpt>
      <trkpt lat="49.98037" lon="2.06561">
        <ele>17.5</ele>
        <time>2022-04-12T12:13:54Z</time>
      </trkpt>
      <trkpt lat="49.98037" lon="2.06561">
        <ele>17.5</ele>
        <time>2022-04-12T12:13:55Z</time>
      </trkpt>
      <trkpt lat="49.98037" lon="2.06561">
        <ele>17.5</ele>
        <time>2022-04-12T12:13:56Z</time>
      </trkpt>
      <trkpt lat="49.98037" lon="2.06561">
        <ele>17.5</ele>
        <time>2022-04-12T12:13:57Z</time>
      </trkpt>
      <trkpt lat="49.98037" lon="2.06561">
        <ele>17.5</ele>
        <time>2022-04-12T12:13:58Z</time>
      </trkpt>
      <trkpt lat="49.98037" lon="2.06561">
        <ele>17.5</ele>
        <time>2022-04-12T12:13:59Z</time>
      </trkpt>
      <trkpt lat="49.98037" lon="2.06561">
        <ele>17.5</ele>
        <time>2022-04-12T12:14:00Z</time>
      </trkpt>
      <trkpt lat="49.98037" lon="2.06561">
        <ele>17.5</ele>
        <time>2022-04-12T12:14:01Z</time>
      </trkpt>
      <trkpt lat="49.98037" lon="2.06561">
        <ele>17.5</ele>
        <time>2022-04-12T12:14:02Z</time>
      </trkpt>
      <trkpt lat="49.98037" lon="2.06561">
        <ele>17.5</ele>
        <time>2022-04-12T12:14:03Z</time>
      </trkpt>
      <trkpt lat="49.98037" lon="2.06561">
        <ele>17.5</ele>
        <time>2022-04-12T12:14:04Z</time>
      </trkpt>
      <trkpt lat="49.98037" lon="2.06561">
        <ele>17.5</ele>
        <time>2022-04-12T12:14:05Z</time>
      </trkpt>
      <trkpt lat="49.98037" lon="2.06561">
        <ele>17.5</ele>
        <time>2022-04-12T12:14:06Z</time>
      </trkpt>
      <trkpt lat="49.98037" lon="2.06561">
        <ele>17.5</ele>
        <time>2022-04-12T12:14:07Z</time>
      </trkpt>
      <trkpt lat="49.98037" lon="2.06561">
        <ele>17.5</ele>
        <time>2022-04-12T12:14:08Z</time>
      </trkpt>
      <trkpt lat="49.98037" lon="2.06561">
        <ele>17.5</ele>
        <time>2022-04-12T12:14:09Z</time>
      </trkpt>
      <trkpt lat="49.98037" lon="2.06561">
        <ele>17.5</ele>
        <time>2022-04-12T12:14:10Z</time>
      </trkpt>
      <trkpt lat="49.98037" lon="2.06561">
        <ele>17.5</ele>
        <time>2022-04-12T12:14:11Z</time>
      </trkpt>
      <trkpt lat="49.98037" lon="2.06561">
        <ele>17.5</ele>
        <time>2022-04-12T12:14:12Z</time>
      </trkpt>
      <trkpt lat="49.98037" lon="2.06561">
        <ele>17.5</ele>
        <time>2022-04-12T12:14:13Z</time>
      </trkpt>
      <trkpt lat="49.98037" lon="2.06561">
        <ele>17.5</ele>
        <time>2022-04-12T12:14:14Z</time>
      </trkpt>
      <trkpt lat="49.98037" lon="2.06561">
        <ele>17.5</ele>
        <time>2022-04-12T12:14:15Z</time>
      </trkpt>
      <trkpt lat="49.98037" lon="2.06561">
        <ele>17.5</ele>
        <time>2022-04-12T12:14:16Z</time>
      </trkpt>
      <trkpt lat="49.98037" lon="2.06561">
        <ele>17.5</ele>
        <time>2022-04-12T12:14:17Z</time>
      </trkpt>
      <trkpt lat="49.98037" lon="2.06561">
        <ele>17.5</ele>
        <time>2022-04-12T12:14:18Z</time>
      </trkpt>
      <trkpt lat="49.98037" lon="2.06561">
        <ele>17.5</ele>
        <time>2022-04-12T12:14:19Z</time>
      </trkpt>
      <trkpt lat="49.98037" lon="2.06561">
        <ele>17.5</ele>
        <time>2022-04-12T12:14:20Z</time>
      </trkpt>
      <trkpt lat="49.98037" lon="2.06561">
        <ele>17.5</ele>
        <time>2022-04-12T12:14:21Z</time>
      </trkpt>
      <trkpt lat="49.98037" lon="2.06561">
        <ele>17.5</ele>
        <time>2022-04-12T12:14:22Z</time>
      </trkpt>
      <trkpt lat="49.98037" lon="2.06561">
        <ele>17.5</ele>
        <time>2022-04-12T12:14:23Z</time>
      </trkpt>
      <trkpt lat="49.98037" lon="2.06561">
        <ele>17.5</ele>
        <time>2022-04-12T12:14:24Z</time>
      </trkpt>
      <trkpt lat="49.98037" lon="2.06561">
        <ele>17.5</ele>
        <time>2022-04-12T12:14:25Z</time>
      </trkpt>
      <trkpt lat="49.98037" lon="2.06561">
        <ele>17.5</ele>
        <time>2022-04-12T12:14:26Z</time>
      </trkpt>
      <trkpt lat="49.98037" lon="2.06561">
        <ele>17.5</ele>
        <time>2022-04-12T12:14:27Z</time>
      </trkpt>
      <trkpt lat="49.98037" lon="2.06561">
        <ele>17.5</ele>
        <time>2022-04-12T12:14:28Z</time>
      </trkpt>
      <trkpt lat="49.98037" lon="2.06561">
        <ele>17.6</ele>
        <time>2022-04-12T12:14:29Z</time>
      </trkpt>
      <trkpt lat="49.98037" lon="2.06561">
        <ele>17.6</ele>
        <time>2022-04-12T12:14:30Z</time>
      </trkpt>
      <trkpt lat="49.98037" lon="2.06561">
        <ele>17.6</ele>
        <time>2022-04-12T12:14:31Z</time>
      </trkpt>
      <trkpt lat="49.98037" lon="2.06561">
        <ele>17.6</ele>
        <time>2022-04-12T12:14:32Z</time>
      </trkpt>
      <trkpt lat="49.98037" lon="2.06561">
        <ele>17.6</ele>
        <time>2022-04-12T12:14:33Z</time>
      </trkpt>
      <trkpt lat="49.98037" lon="2.06561">
        <ele>17.6</ele>
        <time>2022-04-12T12:14:34Z</time>
      </trkpt>
      <trkpt lat="49.98037" lon="2.06561">
        <ele>17.6</ele>
        <time>2022-04-12T12:14:35Z</time>
      </trkpt>
      <trkpt lat="49.98037" lon="2.06561">
        <ele>17.6</ele>
        <time>2022-04-12T12:14:36Z</time>
      </trkpt>
      <trkpt lat="49.98037" lon="2.06561">
        <ele>17.6</ele>
        <time>2022-04-12T12:14:37Z</time>
      </trkpt>
      <trkpt lat="49.98037" lon="2.06561">
        <ele>17.6</ele>
        <time>2022-04-12T12:14:38Z</time>
      </trkpt>
      <trkpt lat="49.98037" lon="2.06561">
        <ele>17.6</ele>
        <time>2022-04-12T12:14:39Z</time>
      </trkpt>
      <trkpt lat="49.98037" lon="2.06561">
        <ele>17.6</ele>
        <time>2022-04-12T12:14:40Z</time>
      </trkpt>
      <trkpt lat="49.98037" lon="2.06561">
        <ele>17.6</ele>
        <time>2022-04-12T12:14:41Z</time>
      </trkpt>
      <trkpt lat="49.98037" lon="2.06561">
        <ele>17.6</ele>
        <time>2022-04-12T12:14:42Z</time>
      </trkpt>
      <trkpt lat="49.98037" lon="2.06561">
        <ele>17.6</ele>
        <time>2022-04-12T12:14:43Z</time>
      </trkpt>
      <trkpt lat="49.98037" lon="2.06561">
        <ele>17.6</ele>
        <time>2022-04-12T12:14:44Z</time>
      </trkpt>
      <trkpt lat="49.98037" lon="2.06561">
        <ele>17.6</ele>
        <time>2022-04-12T12:14:45Z</time>
      </trkpt>
      <trkpt lat="49.98037" lon="2.06561">
        <ele>17.6</ele>
        <time>2022-04-12T12:14:46Z</time>
      </trkpt>
      <trkpt lat="49.98037" lon="2.06561">
        <ele>17.6</ele>
        <time>2022-04-12T12:14:47Z</time>
      </trkpt>
      <trkpt lat="49.98037" lon="2.06561">
        <ele>17.6</ele>
        <time>2022-04-12T12:14:48Z</time>
      </trkpt>
      <trkpt lat="49.98037" lon="2.06561">
        <ele>17.6</ele>
        <time>2022-04-12T12:14:49Z</time>
      </trkpt>
      <trkpt lat="49.98037" lon="2.06561">
        <ele>17.6</ele>
        <time>2022-04-12T12:14:50Z</time>
      </trkpt>
      <trkpt lat="49.98037" lon="2.06561">
        <ele>17.6</ele>
        <time>2022-04-12T12:14:51Z</time>
      </trkpt>
      <trkpt lat="49.98037" lon="2.06561">
        <ele>17.6</ele>
        <time>2022-04-12T12:14:52Z</time>
      </trkpt>
      <trkpt lat="49.98037" lon="2.06561">
        <ele>17.6</ele>
        <time>2022-04-12T12:14:53Z</time>
      </trkpt>
      <trkpt lat="49.98037" lon="2.06561">
        <ele>17.6</ele>
        <time>2022-04-12T12:14:54Z</time>
      </trkpt>
      <trkpt lat="49.98037" lon="2.06561">
        <ele>17.6</ele>
        <time>2022-04-12T12:14:55Z</time>
      </trkpt>
      <trkpt lat="49.98037" lon="2.06561">
        <ele>17.6</ele>
        <time>2022-04-12T12:14:56Z</time>
      </trkpt>
      <trkpt lat="49.98037" lon="2.06561">
        <ele>17.6</ele>
        <time>2022-04-12T12:14:57Z</time>
      </trkpt>
      <trkpt lat="49.98037" lon="2.06561">
        <ele>17.6</ele>
        <time>2022-04-12T12:14:58Z</time>
      </trkpt>
      <trkpt lat="49.98037" lon="2.06561">
        <ele>17.6</ele>
        <time>2022-04-12T12:14:59Z</time>
      </trkpt>
      <trkpt lat="49.98037" lon="2.06561">
        <ele>17.6</ele>
        <time>2022-04-12T12:15:00Z</time>
      </trkpt>
      <trkpt lat="49.98037" lon="2.06561">
        <ele>17.6</ele>
        <time>2022-04-12T12:15:01Z</time>
      </trkpt>
      <trkpt lat="49.98037" lon="2.06561">
        <ele>17.7</ele>
        <time>2022-04-12T12:15:02Z</time>
      </trkpt>
      <trkpt lat="49.98037" lon="2.06561">
        <ele>17.7</ele>
        <time>2022-04-12T12:15:03Z</time>
      </trkpt>
      <trkpt lat="49.98037" lon="2.06561">
        <ele>17.7</ele>
        <time>2022-04-12T12:15:04Z</time>
      </trkpt>
      <trkpt lat="49.98037" lon="2.06561">
        <ele>17.7</ele>
        <time>2022-04-12T12:15:05Z</time>
      </trkpt>
      <trkpt lat="49.98037" lon="2.06561">
        <ele>17.7</ele>
        <time>2022-04-12T12:15:06Z</time>
      </trkpt>
      <trkpt lat="49.98037" lon="2.06561">
        <ele>17.7</ele>
        <time>2022-04-12T12:15:07Z</time>
      </trkpt>
      <trkpt lat="49.98037" lon="2.06561">
        <ele>17.7</ele>
        <time>2022-04-12T12:15:08Z</time>
      </trkpt>
      <trkpt lat="49.98037" lon="2.06561">
        <ele>17.7</ele>
        <time>2022-04-12T12:15:09Z</time>
      </trkpt>
      <trkpt lat="49.98037" lon="2.06561">
        <ele>17.7</ele>
        <time>2022-04-12T12:15:10Z</time>
      </trkpt>
      <trkpt lat="49.98037" lon="2.06561">
        <ele>17.7</ele>
        <time>2022-04-12T12:15:11Z</time>
      </trkpt>
      <trkpt lat="49.98037" lon="2.06561">
        <ele>17.7</ele>
        <time>2022-04-12T12:15:12Z</time>
      </trkpt>
      <trkpt lat="49.98037" lon="2.06561">
        <ele>17.7</ele>
        <time>2022-04-12T12:15:13Z</time>
      </trkpt>
      <trkpt lat="49.98037" lon="2.06561">
        <ele>17.7</ele>
        <time>2022-04-12T12:15:14Z</time>
      </trkpt>
      <trkpt lat="49.98037" lon="2.06561">
        <ele>17.7</ele>
        <time>2022-04-12T12:15:15Z</time>
      </trkpt>
      <trkpt lat="49.98037" lon="2.06561">
        <ele>17.7</ele>
        <time>2022-04-12T12:15:16Z</time>
      </trkpt>
      <trkpt lat="49.98037" lon="2.06561">
        <ele>17.7</ele>
        <time>2022-04-12T12:15:17Z</time>
      </trkpt>
      <trkpt lat="49.98037" lon="2.06561">
        <ele>17.7</ele>
        <time>2022-04-12T12:15:18Z</time>
      </trkpt>
      <trkpt lat="49.98037" lon="2.06561">
        <ele>17.7</ele>
        <time>2022-04-12T12:15:19Z</time>
      </trkpt>
      <trkpt lat="49.98037" lon="2.06561">
        <ele>17.7</ele>
        <time>2022-04-12T12:15:20Z</time>
      </trkpt>
      <trkpt lat="49.98037" lon="2.06561">
        <ele>17.7</ele>
        <time>2022-04-12T12:15:21Z</time>
      </trkpt>
      <trkpt lat="49.98037" lon="2.06561">
        <ele>17.7</ele>
        <time>2022-04-12T12:15:22Z</time>
      </trkpt>
      <trkpt lat="49.98037" lon="2.06561">
        <ele>17.7</ele>
        <time>2022-04-12T12:15:23Z</time>
      </trkpt>
      <trkpt lat="49.98037" lon="2.06561">
        <ele>17.7</ele>
        <time>2022-04-12T12:15:24Z</time>
      </trkpt>
      <trkpt lat="49.98037" lon="2.06561">
        <ele>17.7</ele>
        <time>2022-04-12T12:15:25Z</time>
      </trkpt>
      <trkpt lat="49.98037" lon="2.06561">
        <ele>17.7</ele>
        <time>2022-04-12T12:15:26Z</time>
      </trkpt>
      <trkpt lat="49.98037" lon="2.06561">
        <ele>17.7</ele>
        <time>2022-04-12T12:15:27Z</time>
      </trkpt>
      <trkpt lat="49.98037" lon="2.06561">
        <ele>17.7</ele>
        <time>2022-04-12T12:15:28Z</time>
      </trkpt>
      <trkpt lat="49.98037" lon="2.06561">
        <ele>17.7</ele>
        <time>2022-04-12T12:15:29Z</time>
      </trkpt>
      <trkpt lat="49.98037" lon="2.06561">
        <ele>17.7</ele>
        <time>2022-04-12T12:15:30Z</time>
      </trkpt>
      <trkpt lat="49.98037" lon="2.06561">
        <ele>17.7</ele>
        <time>2022-04-12T12:15:31Z</time>
      </trkpt>
      <trkpt lat="49.98037" lon="2.06561">
        <ele>17.7</ele>
        <time>2022-04-12T12:15:32Z</time>
      </trkpt>
      <trkpt lat="49.98037" lon="2.06561">
        <ele>17.7</ele>
        <time>2022-04-12T12:15:33Z</time>
      </trkpt>
      <trkpt lat="49.98037" lon="2.06561">
        <ele>17.7</ele>
        <time>2022-04-12T12:15:34Z</time>
      </trkpt>
      <trkpt lat="49.98037" lon="2.06561">
        <ele>17.7</ele>
        <time>2022-04-12T12:15:35Z</time>
      </trkpt>
      <trkpt lat="49.98037" lon="2.06561">
        <ele>17.8</ele>
        <time>2022-04-12T12:15:36Z</time>
      </trkpt>
      <trkpt lat="49.98037" lon="2.06561">
        <ele>17.8</ele>
        <time>2022-04-12T12:15:37Z</time>
      </trkpt>
      <trkpt lat="49.98037" lon="2.06561">
        <ele>17.8</ele>
        <time>2022-04-12T12:15:38Z</time>
      </trkpt>
      <trkpt lat="49.98037" lon="2.06561">
        <ele>17.8</ele>
        <time>2022-04-12T12:15:39Z</time>
      </trkpt>
      <trkpt lat="49.98037" lon="2.06561">
        <ele>17.8</ele>
        <time>2022-04-12T12:15:40Z</time>
      </trkpt>
      <trkpt lat="49.98037" lon="2.06561">
        <ele>17.8</ele>
        <time>2022-04-12T12:15:41Z</time>
      </trkpt>
      <trkpt lat="49.98037" lon="2.06561">
        <ele>17.8</ele>
        <time>2022-04-12T12:15:42Z</time>
      </trkpt>
      <trkpt lat="49.98037" lon="2.06561">
        <ele>17.8</ele>
        <time>2022-04-12T12:15:43Z</time>
      </trkpt>
      <trkpt lat="49.98037" lon="2.06561">
        <ele>17.8</ele>
        <time>2022-04-12T12:15:44Z</time>
      </trkpt>
      <trkpt lat="49.98037" lon="2.06561">
        <ele>17.8</ele>
        <time>2022-04-12T12:15:45Z</time>
      </trkpt>
      <trkpt lat="49.98037" lon="2.06561">
        <ele>17.8</ele>
        <time>2022-04-12T12:15:46Z</time>
      </trkpt>
      <trkpt lat="49.98037" lon="2.06561">
        <ele>17.8</ele>
        <time>2022-04-12T12:15:47Z</time>
      </trkpt>
      <trkpt lat="49.98037" lon="2.06561">
        <ele>17.8</ele>
        <time>2022-04-12T12:15:48Z</time>
      </trkpt>
      <trkpt lat="49.98037" lon="2.06561">
        <ele>17.8</ele>
        <time>2022-04-12T12:15:49Z</time>
      </trkpt>
      <trkpt lat="49.98037" lon="2.06561">
        <ele>17.8</ele>
        <time>2022-04-12T12:15:50Z</time>
      </trkpt>
      <trkpt lat="49.98037" lon="2.06561">
        <ele>17.8</ele>
        <time>2022-04-12T12:15:51Z</time>
      </trkpt>
      <trkpt lat="49.98037" lon="2.06561">
        <ele>17.8</ele>
        <time>2022-04-12T12:15:52Z</time>
      </trkpt>
      <trkpt lat="49.98037" lon="2.06561">
        <ele>17.8</ele>
        <time>2022-04-12T12:15:53Z</time>
      </trkpt>
      <trkpt lat="49.98037" lon="2.06561">
        <ele>17.8</ele>
        <time>2022-04-12T12:15:54Z</time>
      </trkpt>
      <trkpt lat="49.98037" lon="2.06561">
        <ele>17.8</ele>
        <time>2022-04-12T12:15:55Z</time>
      </trkpt>
      <trkpt lat="49.98037" lon="2.06561">
        <ele>17.8</ele>
        <time>2022-04-12T12:15:56Z</time>
      </trkpt>
      <trkpt lat="49.98037" lon="2.06561">
        <ele>17.8</ele>
        <time>2022-04-12T12:15:57Z</time>
      </trkpt>
      <trkpt lat="49.98037" lon="2.06561">
        <ele>17.8</ele>
        <time>2022-04-12T12:15:58Z</time>
      </trkpt>
      <trkpt lat="49.98037" lon="2.06561">
        <ele>17.8</ele>
        <time>2022-04-12T12:15:59Z</time>
      </trkpt>
      <trkpt lat="49.98037" lon="2.06561">
        <ele>17.8</ele>
        <time>2022-04-12T12:16:00Z</time>
      </trkpt>
      <trkpt lat="49.98037" lon="2.06561">
        <ele>17.8</ele>
        <time>2022-04-12T12:16:01Z</time>
      </trkpt>
      <trkpt lat="49.98037" lon="2.06561">
        <ele>17.8</ele>
        <time>2022-04-12T12:16:02Z</time>
      </trkpt>
      <trkpt lat="49.98037" lon="2.06561">
        <ele>17.8</ele>
        <time>2022-04-12T12:16:03Z</time>
      </trkpt>
      <trkpt lat="49.98037" lon="2.06561">
        <ele>17.8</ele>
        <time>2022-04-12T12:16:04Z</time>
      </trkpt>
      <trkpt lat="49.98037" lon="2.06561">
        <ele>17.8</ele>
        <time>2022-04-12T12:16:05Z</time>
      </trkpt>
      <trkpt lat="49.98037" lon="2.06561">
        <ele>17.8</ele>
        <time>2022-04-12T12:16:06Z</time>
      </trkpt>
      <trkpt lat="49.98037" lon="2.06561">
        <ele>17.8</ele>
        <time>2022-04-12T12:16:07Z</time>
      </trkpt>
      <trkpt lat="49.98037" lon="2.06561">
        <ele>17.8</ele>
        <time>2022-04-12T12:16:08Z</time>
      </trkpt>
      <trkpt lat="49.98037" lon="2.06561">
        <ele>17.8</ele>
        <time>2022-04-12T12:16:09Z</time>
      </trkpt>
      <trkpt lat="49.98037" lon="2.06561">
        <ele>17.8</ele>
        <time>2022-04-12T12:16:10Z</time>
      </trkpt>
      <trkpt lat="49.98037" lon="2.06561">
        <ele>17.8</ele>
        <time>2022-04-12T12:16:11Z</time>
      </trkpt>
      <trkpt lat="49.98037" lon="2.06561">
        <ele>17.8</ele>
        <time>2022-04-12T12:16:12Z</time>
      </trkpt>
      <trkpt lat="49.98037" lon="2.06561">
        <ele>17.8</ele>
        <time>2022-04-12T12:16:13Z</time>
      </trkpt>
      <trkpt lat="49.98037" lon="2.06561">
        <ele>17.8</ele>
        <time>2022-04-12T12:16:14Z</time>
      </trkpt>
      <trkpt lat="49.98037" lon="2.06561">
        <ele>17.8</ele>
        <time>2022-04-12T12:16:15Z</time>
      </trkpt>
      <trkpt lat="49.98037" lon="2.06561">
        <ele>17.8</ele>
        <time>2022-04-12T12:16:16Z</time>
      </trkpt>
      <trkpt lat="49.98037" lon="2.06561">
        <ele>17.8</ele>
        <time>2022-04-12T12:16:17Z</time>
      </trkpt>
      <trkpt lat="49.98037" lon="2.06561">
        <ele>17.8</ele>
        <time>2022-04-12T12:16:18Z</time>
      </trkpt>
      <trkpt lat="49.98037" lon="2.06561">
        <ele>17.8</ele>
        <time>2022-04-12T12:16:19Z</time>
      </trkpt>
      <trkpt lat="49.98037" lon="2.06561">
        <ele>17.8</ele>
        <time>2022-04-12T12:16:20Z</time>
      </trkpt>
      <trkpt lat="49.98037" lon="2.06561">
        <ele>17.8</ele>
        <time>2022-04-12T12:16:21Z</time>
      </trkpt>
      <trkpt lat="49.98037" lon="2.06561">
        <ele>17.8</ele>
        <time>2022-04-12T12:16:22Z</time>
      </trkpt>
      <trkpt lat="49.98037" lon="2.06561">
        <ele>17.8</ele>
        <time>2022-04-12T12:16:23Z</time>
      </trkpt>
      <trkpt lat="49.98037" lon="2.06561">
        <ele>17.8</ele>
        <time>2022-04-12T12:16:24Z</time>
      </trkpt>
      <trkpt lat="49.98037" lon="2.06561">
        <ele>17.8</ele>
        <time>2022-04-12T12:16:25Z</time>
      </trkpt>
      <trkpt lat="49.98037" lon="2.06561">
        <ele>17.8</ele>
        <time>2022-04-12T12:16:26Z</time>
      </trkpt>
      <trkpt lat="49.98037" lon="2.06561">
        <ele>17.8</ele>
        <time>2022-04-12T12:16:27Z</time>
      </trkpt>
      <trkpt lat="49.98037" lon="2.06561">
        <ele>17.8</ele>
        <time>2022-04-12T12:16:28Z</time>
      </trkpt>
      <trkpt lat="49.98037" lon="2.06561">
        <ele>17.8</ele>
        <time>2022-04-12T12:16:29Z</time>
      </trkpt>
      <trkpt lat="49.98037" lon="2.06561">
        <ele>17.8</ele>
        <time>2022-04-12T12:16:30Z</time>
      </trkpt>
      <trkpt lat="49.98037" lon="2.06561">
        <ele>17.8</ele>
        <time>2022-04-12T12:16:31Z</time>
      </trkpt>
      <trkpt lat="49.98037" lon="2.06561">
        <ele>17.8</ele>
        <time>2022-04-12T12:16:32Z</time>
      </trkpt>
      <trkpt lat="49.98037" lon="2.06561">
        <ele>17.8</ele>
        <time>2022-04-12T12:16:33Z</time>
      </trkpt>
      <trkpt lat="49.98037" lon="2.06561">
        <ele>17.8</ele>
        <time>2022-04-12T12:16:34Z</time>
      </trkpt>
      <trkpt lat="49.98037" lon="2.06561">
        <ele>17.8</ele>
        <time>2022-04-12T12:16:35Z</time>
      </trkpt>
      <trkpt lat="49.98037" lon="2.06561">
        <ele>17.8</ele>
        <time>2022-04-12T12:16:36Z</time>
      </trkpt>
      <trkpt lat="49.98037" lon="2.06561">
        <ele>17.8</ele>
        <time>2022-04-12T12:16:37Z</time>
      </trkpt>
      <trkpt lat="49.98037" lon="2.06561">
        <ele>17.8</ele>
        <time>2022-04-12T12:16:38Z</time>
      </trkpt>
      <trkpt lat="49.98037" lon="2.06561">
        <ele>17.8</ele>
        <time>2022-04-12T12:16:39Z</time>
      </trkpt>
      <trkpt lat="49.98037" lon="2.06561">
        <ele>17.8</ele>
        <time>2022-04-12T12:16:40Z</time>
      </trkpt>
      <trkpt lat="49.98037" lon="2.06561">
        <ele>17.8</ele>
        <time>2022-04-12T12:16:41Z</time>
      </trkpt>
      <trkpt lat="49.98037" lon="2.06561">
        <ele>17.8</ele>
        <time>2022-04-12T12:16:42Z</time>
      </trkpt>
      <trkpt lat="49.98037" lon="2.06561">
        <ele>17.8</ele>
        <time>2022-04-12T12:16:43Z</time>
      </trkpt>
      <trkpt lat="49.98037" lon="2.06561">
        <ele>17.8</ele>
        <time>2022-04-12T12:16:44Z</time>
      </trkpt>
      <trkpt lat="49.98037" lon="2.06561">
        <ele>17.8</ele>
        <time>2022-04-12T12:16:45Z</time>
      </trkpt>
      <trkpt lat="49.98037" lon="2.06561">
        <ele>17.8</ele>
        <time>2022-04-12T12:16:46Z</time>
      </trkpt>
      <trkpt lat="49.98037" lon="2.06561">
        <ele>17.8</ele>
        <time>2022-04-12T12:16:47Z</time>
      </trkpt>
      <trkpt lat="49.98037" lon="2.06561">
        <ele>17.8</ele>
        <time>2022-04-12T12:16:48Z</time>
      </trkpt>
      <trkpt lat="49.98037" lon="2.06561">
        <ele>17.8</ele>
        <time>2022-04-12T12:16:49Z</time>
      </trkpt>
      <trkpt lat="49.98037" lon="2.06561">
        <ele>17.8</ele>
        <time>2022-04-12T12:16:50Z</time>
      </trkpt>
      <trkpt lat="49.98037" lon="2.06561">
        <ele>17.8</ele>
        <time>2022-04-12T12:16:51Z</time>
      </trkpt>
      <trkpt lat="49.98037" lon="2.06561">
        <ele>17.8</ele>
        <time>2022-04-12T12:16:52Z</time>
      </trkpt>
      <trkpt lat="49.98037" lon="2.06561">
        <ele>17.8</ele>
        <time>2022-04-12T12:16:53Z</time>
      </trkpt>
      <trkpt lat="49.98037" lon="2.06561">
        <ele>17.8</ele>
        <time>2022-04-12T12:16:54Z</time>
      </trkpt>
      <trkpt lat="49.98037" lon="2.06561">
        <ele>17.8</ele>
        <time>2022-04-12T12:16:55Z</time>
      </trkpt>
      <trkpt lat="49.98037" lon="2.06561">
        <ele>17.8</ele>
        <time>2022-04-12T12:16:56Z</time>
      </trkpt>
      <trkpt lat="49.98037" lon="2.06561">
        <ele>17.8</ele>
        <time>2022-04-12T12:16:57Z</time>
      </trkpt>
      <trkpt lat="49.98037" lon="2.06561">
        <ele>17.8</ele>
        <time>2022-04-12T12:16:58Z</time>
      </trkpt>
      <trkpt lat="49.98037" lon="2.06561">
        <ele>17.8</ele>
        <time>2022-04-12T12:16:59Z</time>
      </trkpt>
      <trkpt lat="49.98037" lon="2.06561">
        <ele>17.8</ele>
        <time>2022-04-12T12:17:00Z</time>
      </trkpt>
      <trkpt lat="49.98037" lon="2.06561">
        <ele>17.8</ele>
        <time>2022-04-12T12:17:01Z</time>
      </trkpt>
      <trkpt lat="49.98037" lon="2.06561">
        <ele>17.8</ele>
        <time>2022-04-12T12:17:02Z</time>
      </trkpt>
      <trkpt lat="49.98037" lon="2.06561">
        <ele>17.8</ele>
        <time>2022-04-12T12:17:03Z</time>
      </trkpt>
      <trkpt lat="49.98037" lon="2.06561">
        <ele>17.8</ele>
        <time>2022-04-12T12:17:04Z</time>
      </trkpt>
      <trkpt lat="49.98037" lon="2.06561">
        <ele>17.8</ele>
        <time>2022-04-12T12:17:05Z</time>
      </trkpt>
      <trkpt lat="49.98037" lon="2.06561">
        <ele>17.8</ele>
        <time>2022-04-12T12:17:06Z</time>
      </trkpt>
      <trkpt lat="49.98037" lon="2.06561">
        <ele>17.8</ele>
        <time>2022-04-12T12:17:07Z</time>
      </trkpt>
      <trkpt lat="49.98037" lon="2.06561">
        <ele>17.8</ele>
        <time>2022-04-12T12:17:08Z</time>
      </trkpt>
      <trkpt lat="49.98037" lon="2.06561">
        <ele>17.8</ele>
        <time>2022-04-12T12:17:09Z</time>
      </trkpt>
      <trkpt lat="49.98037" lon="2.06561">
        <ele>17.8</ele>
        <time>2022-04-12T12:17:10Z</time>
      </trkpt>
      <trkpt lat="49.98037" lon="2.06561">
        <ele>17.8</ele>
        <time>2022-04-12T12:17:11Z</time>
      </trkpt>
      <trkpt lat="49.98037" lon="2.06561">
        <ele>17.8</ele>
        <time>2022-04-12T12:17:12Z</time>
      </trkpt>
      <trkpt lat="49.98037" lon="2.06561">
        <ele>17.8</ele>
        <time>2022-04-12T12:17:13Z</time>
      </trkpt>
      <trkpt lat="49.98037" lon="2.06561">
        <ele>17.8</ele>
        <time>2022-04-12T12:17:14Z</time>
      </trkpt>
      <trkpt lat="49.98037" lon="2.06561">
        <ele>17.8</ele>
        <time>2022-04-12T12:17:15Z</time>
      </trkpt>
      <trkpt lat="49.98037" lon="2.06561">
        <ele>17.8</ele>
        <time>2022-04-12T12:17:16Z</time>
      </trkpt>
      <trkpt lat="49.98037" lon="2.06561">
        <ele>17.8</ele>
        <time>2022-04-12T12:17:17Z</time>
      </trkpt>
      <trkpt lat="49.98037" lon="2.06561">
        <ele>17.8</ele>
        <time>2022-04-12T12:17:18Z</time>
      </trkpt>
      <trkpt lat="49.98037" lon="2.06561">
        <ele>17.8</ele>
        <time>2022-04-12T12:17:19Z</time>
      </trkpt>
      <trkpt lat="49.98037" lon="2.06561">
        <ele>17.8</ele>
        <time>2022-04-12T12:17:20Z</time>
      </trkpt>
      <trkpt lat="49.98037" lon="2.06561">
        <ele>17.8</ele>
        <time>2022-04-12T12:17:21Z</time>
      </trkpt>
      <trkpt lat="49.98037" lon="2.06561">
        <ele>17.8</ele>
        <time>2022-04-12T12:17:22Z</time>
      </trkpt>
      <trkpt lat="49.98037" lon="2.06561">
        <ele>17.8</ele>
        <time>2022-04-12T12:17:23Z</time>
      </trkpt>
      <trkpt lat="49.98037" lon="2.06561">
        <ele>17.8</ele>
        <time>2022-04-12T12:17:24Z</time>
      </trkpt>
      <trkpt lat="49.98037" lon="2.06561">
        <ele>17.8</ele>
        <time>2022-04-12T12:17:25Z</time>
      </trkpt>
      <trkpt lat="49.98037" lon="2.06561">
        <ele>17.8</ele>
        <time>2022-04-12T12:17:26Z</time>
      </trkpt>
      <trkpt lat="49.98037" lon="2.06561">
        <ele>17.8</ele>
        <time>2022-04-12T12:17:27Z</time>
      </trkpt>
      <trkpt lat="49.98037" lon="2.06561">
        <ele>17.8</ele>
        <time>2022-04-12T12:17:28Z</time>
      </trkpt>
      <trkpt lat="49.98037" lon="2.06561">
        <ele>17.8</ele>
        <time>2022-04-12T12:17:29Z</time>
      </trkpt>
      <trkpt lat="49.98037" lon="2.06561">
        <ele>17.8</ele>
        <time>2022-04-12T12:17:30Z</time>
      </trkpt>
      <trkpt lat="49.98037" lon="2.06561">
        <ele>17.8</ele>
        <time>2022-04-12T12:17:31Z</time>
      </trkpt>
      <trkpt lat="49.98037" lon="2.06561">
        <ele>17.8</ele>
        <time>2022-04-12T12:17:32Z</time>
      </trkpt>
      <trkpt lat="49.98037" lon="2.06561">
        <ele>17.8</ele>
        <time>2022-04-12T12:17:33Z</time>
      </trkpt>
      <trkpt lat="49.98037" lon="2.06561">
        <ele>17.8</ele>
        <time>2022-04-12T12:17:34Z</time>
      </trkpt>
      <trkpt lat="49.98037" lon="2.06561">
        <ele>17.8</ele>
        <time>2022-04-12T12:17:35Z</time>
      </trkpt>
      <trkpt lat="49.98037" lon="2.06561">
        <ele>17.8</ele>
        <time>2022-04-12T12:17:36Z</time>
      </trkpt>
      <trkpt lat="49.98037" lon="2.06561">
        <ele>17.8</ele>
        <time>2022-04-12T12:17:37Z</time>
      </trkpt>
      <trkpt lat="49.98037" lon="2.06561">
        <ele>17.8</ele>
        <time>2022-04-12T12:17:38Z</time>
      </trkpt>
      <trkpt lat="49.98037" lon="2.06561">
        <ele>17.8</ele>
        <time>2022-04-12T12:17:39Z</time>
      </trkpt>
      <trkpt lat="49.98037" lon="2.06561">
        <ele>17.8</ele>
        <time>2022-04-12T12:17:40Z</time>
      </trkpt>
      <trkpt lat="49.98037" lon="2.06561">
        <ele>17.8</ele>
        <time>2022-04-12T12:17:41Z</time>
      </trkpt>
      <trkpt lat="49.98037" lon="2.06561">
        <ele>17.8</ele>
        <time>2022-04-12T12:17:42Z</time>
      </trkpt>
      <trkpt lat="49.98037" lon="2.06561">
        <ele>17.8</ele>
        <time>2022-04-12T12:17:43Z</time>
      </trkpt>
      <trkpt lat="49.98037" lon="2.06561">
        <ele>17.8</ele>
        <time>2022-04-12T12:17:44Z</time>
      </trkpt>
      <trkpt lat="49.98037" lon="2.06561">
        <ele>17.8</ele>
        <time>2022-04-12T12:17:45Z</time>
      </trkpt>
      <trkpt lat="49.98037" lon="2.06561">
        <ele>17.8</ele>
        <time>2022-04-12T12:17:46Z</time>
      </trkpt>
      <trkpt lat="49.98037" lon="2.06561">
        <ele>17.8</ele>
        <time>2022-04-12T12:17:47Z</time>
      </trkpt>
      <trkpt lat="49.98037" lon="2.06561">
        <ele>17.8</ele>
        <time>2022-04-12T12:17:48Z</time>
      </trkpt>
      <trkpt lat="49.98037" lon="2.06561">
        <ele>17.8</ele>
        <time>2022-04-12T12:17:49Z</time>
      </trkpt>
      <trkpt lat="49.98037" lon="2.06561">
        <ele>17.8</ele>
        <time>2022-04-12T12:17:50Z</time>
      </trkpt>
      <trkpt lat="49.98037" lon="2.06561">
        <ele>17.8</ele>
        <time>2022-04-12T12:17:51Z</time>
      </trkpt>
      <trkpt lat="49.98037" lon="2.06561">
        <ele>17.8</ele>
        <time>2022-04-12T12:17:52Z</time>
      </trkpt>
      <trkpt lat="49.98037" lon="2.06561">
        <ele>17.8</ele>
        <time>2022-04-12T12:17:53Z</time>
      </trkpt>
      <trkpt lat="49.98037" lon="2.06561">
        <ele>17.8</ele>
        <time>2022-04-12T12:17:54Z</time>
      </trkpt>
      <trkpt lat="49.98037" lon="2.06561">
        <ele>17.8</ele>
        <time>2022-04-12T12:17:55Z</time>
      </trkpt>
      <trkpt lat="49.98037" lon="2.06561">
        <ele>17.8</ele>
        <time>2022-04-12T12:17:56Z</time>
      </trkpt>
      <trkpt lat="49.98037" lon="2.06561">
        <ele>17.8</ele>
        <time>2022-04-12T12:17:57Z</time>
      </trkpt>
      <trkpt lat="49.98037" lon="2.06561">
        <ele>17.8</ele>
        <time>2022-04-12T12:17:58Z</time>
      </trkpt>
      <trkpt lat="49.98037" lon="2.06561">
        <ele>17.8</ele>
        <time>2022-04-12T12:17:59Z</time>
      </trkpt>
      <trkpt lat="49.98037" lon="2.06561">
        <ele>17.8</ele>
        <time>2022-04-12T12:18:00Z</time>
      </trkpt>
      <trkpt lat="49.98037" lon="2.06561">
        <ele>17.8</ele>
        <time>2022-04-12T12:18:01Z</time>
      </trkpt>
      <trkpt lat="49.98037" lon="2.06561">
        <ele>17.8</ele>
        <time>2022-04-12T12:18:02Z</time>
      </trkpt>
      <trkpt lat="49.98037" lon="2.06561">
        <ele>17.8</ele>
        <time>2022-04-12T12:18:03Z</time>
      </trkpt>
      <trkpt lat="49.98037" lon="2.06561">
        <ele>17.8</ele>
        <time>2022-04-12T12:18:04Z</time>
      </trkpt>
      <trkpt lat="49.98037" lon="2.06561">
        <ele>17.8</ele>
        <time>2022-04-12T12:18:05Z</time>
      </trkpt>
      <trkpt lat="49.98037" lon="2.06561">
        <ele>17.8</ele>
        <time>2022-04-12T12:18:06Z</time>
      </trkpt>
      <trkpt lat="49.98037" lon="2.06561">
        <ele>17.8</ele>
        <time>2022-04-12T12:18:07Z</time>
      </trkpt>
      <trkpt lat="49.98037" lon="2.06561">
        <ele>17.8</ele>
        <time>2022-04-12T12:18:08Z</time>
      </trkpt>
      <trkpt lat="49.98037" lon="2.06561">
        <ele>17.8</ele>
        <time>2022-04-12T12:18:09Z</time>
      </trkpt>
      <trkpt lat="49.98037" lon="2.06561">
        <ele>17.8</ele>
        <time>2022-04-12T12:18:10Z</time>
      </trkpt>
      <trkpt lat="49.98037" lon="2.06561">
        <ele>17.8</ele>
        <time>2022-04-12T12:18:11Z</time>
      </trkpt>
      <trkpt lat="49.98037" lon="2.06561">
        <ele>17.8</ele>
        <time>2022-04-12T12:18:12Z</time>
      </trkpt>
      <trkpt lat="49.98037" lon="2.06561">
        <ele>17.8</ele>
        <time>2022-04-12T12:18:13Z</time>
      </trkpt>
      <trkpt lat="49.98037" lon="2.06561">
        <ele>17.8</ele>
        <time>2022-04-12T12:18:14Z</time>
      </trkpt>
      <trkpt lat="49.98037" lon="2.06561">
        <ele>17.8</ele>
        <time>2022-04-12T12:18:15Z</time>
      </trkpt>
      <trkpt lat="49.98037" lon="2.06561">
        <ele>17.8</ele>
        <time>2022-04-12T12:18:16Z</time>
      </trkpt>
      <trkpt lat="49.98037" lon="2.06561">
        <ele>17.8</ele>
        <time>2022-04-12T12:18:17Z</time>
      </trkpt>
      <trkpt lat="49.98037" lon="2.06561">
        <ele>17.8</ele>
        <time>2022-04-12T12:18:18Z</time>
      </trkpt>
      <trkpt lat="49.98037" lon="2.06561">
        <ele>17.8</ele>
        <time>2022-04-12T12:18:19Z</time>
      </trkpt>
      <trkpt lat="49.98037" lon="2.06561">
        <ele>17.8</ele>
        <time>2022-04-12T12:18:20Z</time>
      </trkpt>
      <trkpt lat="49.98037" lon="2.06561">
        <ele>17.8</ele>
        <time>2022-04-12T12:18:21Z</time>
      </trkpt>
      <trkpt lat="49.98037" lon="2.06561">
        <ele>17.8</ele>
        <time>2022-04-12T12:18:22Z</time>
      </trkpt>
      <trkpt lat="49.98037" lon="2.06561">
        <ele>17.8</ele>
        <time>2022-04-12T12:18:23Z</time>
      </trkpt>
      <trkpt lat="49.98037" lon="2.06561">
        <ele>17.8</ele>
        <time>2022-04-12T12:18:24Z</time>
      </trkpt>
      <trkpt lat="49.98037" lon="2.06561">
        <ele>17.8</ele>
        <time>2022-04-12T12:18:25Z</time>
      </trkpt>
      <trkpt lat="49.98037" lon="2.06561">
        <ele>17.8</ele>
        <time>2022-04-12T12:18:26Z</time>
      </trkpt>
      <trkpt lat="49.98037" lon="2.06561">
        <ele>17.8</ele>
        <time>2022-04-12T12:18:27Z</time>
      </trkpt>
      <trkpt lat="49.98037" lon="2.06561">
        <ele>17.8</ele>
        <time>2022-04-12T12:18:28Z</time>
      </trkpt>
      <trkpt lat="49.98037" lon="2.06561">
        <ele>17.8</ele>
        <time>2022-04-12T12:18:29Z</time>
      </trkpt>
      <trkpt lat="49.98037" lon="2.06561">
        <ele>17.8</ele>
        <time>2022-04-12T12:18:30Z</time>
      </trkpt>
      <trkpt lat="49.98037" lon="2.06561">
        <ele>17.8</ele>
        <time>2022-04-12T12:18:31Z</time>
      </trkpt>
      <trkpt lat="49.98037" lon="2.06561">
        <ele>17.8</ele>
        <time>2022-04-12T12:18:32Z</time>
      </trkpt>
      <trkpt lat="49.98037" lon="2.06561">
        <ele>17.8</ele>
        <time>2022-04-12T12:18:33Z</time>
      </trkpt>
      <trkpt lat="49.98037" lon="2.06561">
        <ele>17.8</ele>
        <time>2022-04-12T12:18:34Z</time>
      </trkpt>
      <trkpt lat="49.98037" lon="2.06561">
        <ele>17.8</ele>
        <time>2022-04-12T12:18:35Z</time>
      </trkpt>
      <trkpt lat="49.98037" lon="2.06561">
        <ele>17.8</ele>
        <time>2022-04-12T12:18:36Z</time>
      </trkpt>
      <trkpt lat="49.98037" lon="2.06561">
        <ele>17.8</ele>
        <time>2022-04-12T12:18:37Z</time>
      </trkpt>
      <trkpt lat="49.98037" lon="2.06561">
        <ele>17.8</ele>
        <time>2022-04-12T12:18:38Z</time>
      </trkpt>
      <trkpt lat="49.98037" lon="2.06561">
        <ele>17.8</ele>
        <time>2022-04-12T12:18:39Z</time>
      </trkpt>
      <trkpt lat="49.98037" lon="2.06561">
        <ele>17.8</ele>
        <time>2022-04-12T12:18:40Z</time>
      </trkpt>
      <trkpt lat="49.98037" lon="2.06561">
        <ele>17.8</ele>
        <time>2022-04-12T12:18:41Z</time>
      </trkpt>
      <trkpt lat="49.98037" lon="2.06561">
        <ele>17.8</ele>
        <time>2022-04-12T12:18:42Z</time>
      </trkpt>
      <trkpt lat="49.98037" lon="2.06561">
        <ele>17.8</ele>
        <time>2022-04-12T12:18:43Z</time>
      </trkpt>
      <trkpt lat="49.98037" lon="2.06561">
        <ele>17.8</ele>
        <time>2022-04-12T12:18:44Z</time>
      </trkpt>
      <trkpt lat="49.98037" lon="2.06561">
        <ele>17.8</ele>
        <time>2022-04-12T12:18:45Z</time>
      </trkpt>
      <trkpt lat="49.98037" lon="2.06561">
        <ele>17.8</ele>
        <time>2022-04-12T12:18:46Z</time>
      </trkpt>
      <trkpt lat="49.98037" lon="2.06561">
        <ele>17.8</ele>
        <time>2022-04-12T12:18:47Z</time>
      </trkpt>
      <trkpt lat="49.98037" lon="2.06561">
        <ele>17.8</ele>
        <time>2022-04-12T12:18:48Z</time>
      </trkpt>
      <trkpt lat="49.98037" lon="2.06561">
        <ele>17.8</ele>
        <time>2022-04-12T12:18:49Z</time>
      </trkpt>
      <trkpt lat="49.98037" lon="2.06561">
        <ele>17.8</ele>
        <time>2022-04-12T12:18:50Z</time>
      </trkpt>
      <trkpt lat="49.98037" lon="2.06561">
        <ele>17.8</ele>
        <time>2022-04-12T12:18:51Z</time>
      </trkpt>
      <trkpt lat="49.98037" lon="2.06561">
        <ele>17.8</ele>
        <time>2022-04-12T12:18:52Z</time>
      </trkpt>
      <trkpt lat="49.98037" lon="2.06561">
        <ele>17.8</ele>
        <time>2022-04-12T12:18:53Z</time>
      </trkpt>
      <trkpt lat="49.98037" lon="2.06561">
        <ele>17.8</ele>
        <time>2022-04-12T12:18:54Z</time>
      </trkpt>
      <trkpt lat="49.98037" lon="2.06561">
        <ele>17.8</ele>
        <time>2022-04-12T12:18:55Z</time>
      </trkpt>
      <trkpt lat="49.98037" lon="2.06561">
        <ele>17.8</ele>
        <time>2022-04-12T12:18:56Z</time>
      </trkpt>
      <trkpt lat="49.98037" lon="2.06561">
        <ele>17.8</ele>
        <time>2022-04-12T12:18:57Z</time>
      </trkpt>
      <trkpt lat="49.98037" lon="2.06561">
        <ele>17.8</ele>
        <time>2022-04-12T12:18:58Z</time>
      </trkpt>
      <trkpt lat="49.98037" lon="2.06561">
        <ele>17.8</ele>
        <time>2022-04-12T12:18:59Z</time>
      </trkpt>
      <trkpt lat="49.98037" lon="2.06561">
        <ele>17.8</ele>
        <time>2022-04-12T12:19:00Z</time>
      </trkpt>
      <trkpt lat="49.98037" lon="2.06561">
        <ele>17.8</ele>
        <time>2022-04-12T12:19:01Z</time>
      </trkpt>
      <trkpt lat="49.98037" lon="2.06561">
        <ele>17.8</ele>
        <time>2022-04-12T12:19:02Z</time>
      </trkpt>
      <trkpt lat="49.98037" lon="2.06561">
        <ele>17.8</ele>
        <time>2022-04-12T12:19:03Z</time>
      </trkpt>
      <trkpt lat="49.98037" lon="2.06561">
        <ele>17.8</ele>
        <time>2022-04-12T12:19:04Z</time>
      </trkpt>
      <trkpt lat="49.98037" lon="2.06561">
        <ele>17.8</ele>
        <time>2022-04-12T12:19:05Z</time>
      </trkpt>
      <trkpt lat="49.98037" lon="2.06561">
        <ele>17.8</ele>
        <time>2022-04-12T12:19:06Z</time>
      </trkpt>
      <trkpt lat="49.98037" lon="2.06561">
        <ele>17.8</ele>
        <time>2022-04-12T12:19:07Z</time>
      </trkpt>
      <trkpt lat="49.98037" lon="2.06561">
        <ele>17.8</ele>
        <time>2022-04-12T12:19:08Z</time>
      </trkpt>
      <trkpt lat="49.98037" lon="2.06561">
        <ele>17.8</ele>
        <time>2022-04-12T12:19:09Z</time>
      </trkpt>
      <trkpt lat="49.98037" lon="2.06561">
        <ele>17.8</ele>
        <time>2022-04-12T12:19:10Z</time>
      </trkpt>
      <trkpt lat="49.98037" lon="2.06561">
        <ele>17.8</ele>
        <time>2022-04-12T12:19:11Z</time>
      </trkpt>
      <trkpt lat="49.98037" lon="2.06561">
        <ele>17.8</ele>
        <time>2022-04-12T12:19:12Z</time>
      </trkpt>
      <trkpt lat="49.98037" lon="2.06561">
        <ele>17.8</ele>
        <time>2022-04-12T12:19:13Z</time>
      </trkpt>
      <trkpt lat="49.98037" lon="2.06561">
        <ele>17.8</ele>
        <time>2022-04-12T12:19:14Z</time>
      </trkpt>
      <trkpt lat="49.98037" lon="2.06561">
        <ele>17.8</ele>
        <time>2022-04-12T12:19:15Z</time>
      </trkpt>
      <trkpt lat="49.98037" lon="2.06561">
        <ele>17.8</ele>
        <time>2022-04-12T12:19:16Z</time>
      </trkpt>
      <trkpt lat="49.98037" lon="2.06561">
        <ele>17.8</ele>
        <time>2022-04-12T12:19:17Z</time>
      </trkpt>
      <trkpt lat="49.98037" lon="2.06561">
        <ele>17.8</ele>
        <time>2022-04-12T12:19:18Z</time>
      </trkpt>
      <trkpt lat="49.98037" lon="2.06561">
        <ele>17.8</ele>
        <time>2022-04-12T12:19:19Z</time>
      </trkpt>
      <trkpt lat="49.98037" lon="2.06561">
        <ele>17.8</ele>
        <time>2022-04-12T12:19:20Z</time>
      </trkpt>
      <trkpt lat="49.98037" lon="2.06561">
        <ele>17.8</ele>
        <time>2022-04-12T12:19:21Z</time>
      </trkpt>
      <trkpt lat="49.98037" lon="2.06561">
        <ele>17.8</ele>
        <time>2022-04-12T12:19:22Z</time>
      </trkpt>
      <trkpt lat="49.98037" lon="2.06561">
        <ele>17.8</ele>
        <time>2022-04-12T12:19:23Z</time>
      </trkpt>
      <trkpt lat="49.98037" lon="2.06561">
        <ele>17.8</ele>
        <time>2022-04-12T12:19:24Z</time>
      </trkpt>
      <trkpt lat="49.98037" lon="2.06561">
        <ele>17.8</ele>
        <time>2022-04-12T12:19:25Z</time>
      </trkpt>
      <trkpt lat="49.98037" lon="2.06561">
        <ele>17.8</ele>
        <time>2022-04-12T12:19:26Z</time>
      </trkpt>
      <trkpt lat="49.98037" lon="2.06561">
        <ele>17.8</ele>
        <time>2022-04-12T12:19:27Z</time>
      </trkpt>
      <trkpt lat="49.98037" lon="2.06561">
        <ele>17.8</ele>
        <time>2022-04-12T12:19:28Z</time>
      </trkpt>
      <trkpt lat="49.98037" lon="2.06561">
        <ele>17.8</ele>
        <time>2022-04-12T12:19:29Z</time>
      </trkpt>
      <trkpt lat="49.98037" lon="2.06561">
        <ele>17.8</ele>
        <time>2022-04-12T12:19:30Z</time>
      </trkpt>
      <trkpt lat="49.98037" lon="2.06561">
        <ele>17.8</ele>
        <time>2022-04-12T12:19:31Z</time>
      </trkpt>
      <trkpt lat="49.98037" lon="2.06561">
        <ele>17.8</ele>
        <time>2022-04-12T12:19:32Z</time>
      </trkpt>
      <trkpt lat="49.98037" lon="2.06561">
        <ele>17.8</ele>
        <time>2022-04-12T12:19:33Z</time>
      </trkpt>
      <trkpt lat="49.98037" lon="2.06561">
        <ele>17.8</ele>
        <time>2022-04-12T12:19:34Z</time>
      </trkpt>
      <trkpt lat="49.98037" lon="2.06561">
        <ele>17.8</ele>
        <time>2022-04-12T12:19:35Z</time>
      </trkpt>
      <trkpt lat="49.98037" lon="2.06561">
        <ele>17.8</ele>
        <time>2022-04-12T12:19:36Z</time>
      </trkpt>
      <trkpt lat="49.98037" lon="2.06561">
        <ele>17.8</ele>
        <time>2022-04-12T12:19:37Z</time>
      </trkpt>
      <trkpt lat="49.98037" lon="2.06561">
        <ele>17.8</ele>
        <time>2022-04-12T12:19:38Z</time>
      </trkpt>
      <trkpt lat="49.98037" lon="2.06561">
        <ele>17.8</ele>
        <time>2022-04-12T12:19:39Z</time>
      </trkpt>
      <trkpt lat="49.98037" lon="2.06561">
        <ele>17.8</ele>
        <time>2022-04-12T12:19:40Z</time>
      </trkpt>
      <trkpt lat="49.98037" lon="2.06561">
        <ele>17.8</ele>
        <time>2022-04-12T12:19:41Z</time>
      </trkpt>
      <trkpt lat="49.98037" lon="2.06561">
        <ele>17.8</ele>
        <time>2022-04-12T12:19:42Z</time>
      </trkpt>
      <trkpt lat="49.98037" lon="2.06561">
        <ele>17.8</ele>
        <time>2022-04-12T12:19:43Z</time>
      </trkpt>
      <trkpt lat="49.98037" lon="2.06561">
        <ele>17.8</ele>
        <time>2022-04-12T12:19:44Z</time>
      </trkpt>
      <trkpt lat="49.98037" lon="2.06561">
        <ele>17.8</ele>
        <time>2022-04-12T12:19:45Z</time>
      </trkpt>
      <trkpt lat="49.98037" lon="2.06561">
        <ele>17.8</ele>
        <time>2022-04-12T12:19:46Z</time>
      </trkpt>
      <trkpt lat="49.98037" lon="2.06561">
        <ele>17.8</ele>
        <time>2022-04-12T12:19:47Z</time>
      </trkpt>
      <trkpt lat="49.98037" lon="2.06561">
        <ele>17.8</ele>
        <time>2022-04-12T12:19:48Z</time>
      </trkpt>
      <trkpt lat="49.98037" lon="2.06561">
        <ele>17.8</ele>
        <time>2022-04-12T12:19:49Z</time>
      </trkpt>
      <trkpt lat="49.98037" lon="2.06561">
        <ele>17.8</ele>
        <time>2022-04-12T12:19:50Z</time>
      </trkpt>
      <trkpt lat="49.98037" lon="2.06561">
        <ele>17.8</ele>
        <time>2022-04-12T12:19:51Z</time>
      </trkpt>
      <trkpt lat="49.98037" lon="2.06561">
        <ele>17.8</ele>
        <time>2022-04-12T12:19:52Z</time>
      </trkpt>
      <trkpt lat="49.98037" lon="2.06561">
        <ele>17.8</ele>
        <time>2022-04-12T12:19:53Z</time>
      </trkpt>
      <trkpt lat="49.98037" lon="2.06561">
        <ele>17.8</ele>
        <time>2022-04-12T12:19:54Z</time>
      </trkpt>
      <trkpt lat="49.98037" lon="2.06561">
        <ele>17.8</ele>
        <time>2022-04-12T12:19:55Z</time>
      </trkpt>
      <trkpt lat="49.98037" lon="2.06561">
        <ele>17.8</ele>
        <time>2022-04-12T12:19:56Z</time>
      </trkpt>
      <trkpt lat="49.98037" lon="2.06561">
        <ele>17.8</ele>
        <time>2022-04-12T12:19:57Z</time>
      </trkpt>
      <trkpt lat="49.98037" lon="2.06561">
        <ele>17.8</ele>
        <time>2022-04-12T12:19:58Z</time>
      </trkpt>
      <trkpt lat="49.98037" lon="2.06561">
        <ele>17.8</ele>
        <time>2022-04-12T12:19:59Z</time>
      </trkpt>
      <trkpt lat="49.98037" lon="2.06561">
        <ele>17.8</ele>
        <time>2022-04-12T12:20:00Z</time>
      </trkpt>
      <trkpt lat="49.98037" lon="2.06561">
        <ele>17.8</ele>
        <time>2022-04-12T12:20:01Z</time>
      </trkpt>
      <trkpt lat="49.98037" lon="2.06561">
        <ele>17.8</ele>
        <time>2022-04-12T12:20:02Z</time>
      </trkpt>
      <trkpt lat="49.98037" lon="2.06561">
        <ele>17.8</ele>
        <time>2022-04-12T12:20:03Z</time>
      </trkpt>
      <trkpt lat="49.98037" lon="2.06561">
        <ele>17.8</ele>
        <time>2022-04-12T12:20:04Z</time>
      </trkpt>
      <trkpt lat="49.98037" lon="2.06561">
        <ele>17.8</ele>
        <time>2022-04-12T12:20:05Z</time>
      </trkpt>
      <trkpt lat="49.98037" lon="2.06561">
        <ele>17.8</ele>
        <time>2022-04-12T12:20:06Z</time>
      </trkpt>
      <trkpt lat="49.98037" lon="2.06561">
        <ele>17.8</ele>
        <time>2022-04-12T12:20:07Z</time>
      </trkpt>
      <trkpt lat="49.98037" lon="2.06561">
        <ele>17.8</ele>
        <time>2022-04-12T12:20:08Z</time>
      </trkpt>
      <trkpt lat="49.98037" lon="2.06561">
        <ele>17.8</ele>
        <time>2022-04-12T12:20:09Z</time>
      </trkpt>
      <trkpt lat="49.98037" lon="2.06561">
        <ele>17.8</ele>
        <time>2022-04-12T12:20:10Z</time>
      </trkpt>
      <trkpt lat="49.98037" lon="2.06561">
        <ele>17.8</ele>
        <time>2022-04-12T12:20:11Z</time>
      </trkpt>
      <trkpt lat="49.98037" lon="2.06561">
        <ele>17.8</ele>
        <time>2022-04-12T12:20:12Z</time>
      </trkpt>
      <trkpt lat="49.98037" lon="2.06561">
        <ele>17.8</ele>
        <time>2022-04-12T12:20:13Z</time>
      </trkpt>
      <trkpt lat="49.98037" lon="2.06561">
        <ele>17.8</ele>
        <time>2022-04-12T12:20:14Z</time>
      </trkpt>
      <trkpt lat="49.98037" lon="2.06561">
        <ele>17.8</ele>
        <time>2022-04-12T12:20:15Z</time>
      </trkpt>
      <trkpt lat="49.98037" lon="2.06561">
        <ele>17.8</ele>
        <time>2022-04-12T12:20:16Z</time>
      </trkpt>
      <trkpt lat="49.98037" lon="2.06561">
        <ele>17.8</ele>
        <time>2022-04-12T12:20:17Z</time>
      </trkpt>
      <trkpt lat="49.98037" lon="2.06561">
        <ele>17.8</ele>
        <time>2022-04-12T12:20:18Z</time>
      </trkpt>
      <trkpt lat="49.98037" lon="2.06561">
        <ele>17.8</ele>
        <time>2022-04-12T12:20:19Z</time>
      </trkpt>
      <trkpt lat="49.98037" lon="2.06561">
        <ele>17.8</ele>
        <time>2022-04-12T12:20:20Z</time>
      </trkpt>
      <trkpt lat="49.98037" lon="2.06561">
        <ele>17.8</ele>
        <time>2022-04-12T12:20:21Z</time>
      </trkpt>
      <trkpt lat="49.98037" lon="2.06561">
        <ele>17.8</ele>
        <time>2022-04-12T12:20:22Z</time>
      </trkpt>
      <trkpt lat="49.98037" lon="2.06561">
        <ele>17.8</ele>
        <time>2022-04-12T12:20:23Z</time>
      </trkpt>
      <trkpt lat="49.98037" lon="2.06561">
        <ele>17.8</ele>
        <time>2022-04-12T12:20:24Z</time>
      </trkpt>
      <trkpt lat="49.98037" lon="2.06561">
        <ele>17.8</ele>
        <time>2022-04-12T12:20:25Z</time>
      </trkpt>
      <trkpt lat="49.98037" lon="2.06561">
        <ele>17.8</ele>
        <time>2022-04-12T12:20:26Z</time>
      </trkpt>
      <trkpt lat="49.98037" lon="2.06561">
        <ele>17.8</ele>
        <time>2022-04-12T12:20:27Z</time>
      </trkpt>
      <trkpt lat="49.98037" lon="2.06561">
        <ele>17.8</ele>
        <time>2022-04-12T12:20:28Z</time>
      </trkpt>
      <trkpt lat="49.98037" lon="2.06561">
        <ele>17.8</ele>
        <time>2022-04-12T12:20:29Z</time>
      </trkpt>
      <trkpt lat="49.98037" lon="2.06561">
        <ele>17.8</ele>
        <time>2022-04-12T12:20:30Z</time>
      </trkpt>
      <trkpt lat="49.98037" lon="2.06561">
        <ele>17.8</ele>
        <time>2022-04-12T12:20:31Z</time>
      </trkpt>
      <trkpt lat="49.98037" lon="2.06561">
        <ele>17.8</ele>
        <time>2022-04-12T12:20:32Z</time>
      </trkpt>
      <trkpt lat="49.98037" lon="2.06561">
        <ele>17.8</ele>
        <time>2022-04-12T12:20:33Z</time>
      </trkpt>
      <trkpt lat="49.98037" lon="2.06561">
        <ele>17.8</ele>
        <time>2022-04-12T12:20:34Z</time>
      </trkpt>
      <trkpt lat="49.98037" lon="2.06561">
        <ele>17.8</ele>
        <time>2022-04-12T12:20:35Z</time>
      </trkpt>
      <trkpt lat="49.98037" lon="2.06561">
        <ele>17.8</ele>
        <time>2022-04-12T12:20:36Z</time>
      </trkpt>
      <trkpt lat="49.98037" lon="2.06561">
        <ele>17.8</ele>
        <time>2022-04-12T12:20:37Z</time>
      </trkpt>
      <trkpt lat="49.98037" lon="2.06561">
        <ele>17.8</ele>
        <time>2022-04-12T12:20:38Z</time>
      </trkpt>
      <trkpt lat="49.98037" lon="2.06561">
        <ele>17.8</ele>
        <time>2022-04-12T12:20:39Z</time>
      </trkpt>
      <trkpt lat="49.98037" lon="2.06561">
        <ele>17.8</ele>
        <time>2022-04-12T12:20:40Z</time>
      </trkpt>
      <trkpt lat="49.98037" lon="2.06561">
        <ele>17.8</ele>
        <time>2022-04-12T12:20:41Z</time>
      </trkpt>
      <trkpt lat="49.98037" lon="2.06561">
        <ele>17.8</ele>
        <time>2022-04-12T12:20:42Z</time>
      </trkpt>
      <trkpt lat="49.98037" lon="2.06561">
        <ele>17.8</ele>
        <time>2022-04-12T12:20:43Z</time>
      </trkpt>
      <trkpt lat="49.98037" lon="2.06561">
        <ele>17.8</ele>
        <time>2022-04-12T12:20:44Z</time>
      </trkpt>
      <trkpt lat="49.98037" lon="2.06561">
        <ele>17.8</ele>
        <time>2022-04-12T12:20:45Z</time>
      </trkpt>
      <trkpt lat="49.98037" lon="2.06561">
        <ele>17.8</ele>
        <time>2022-04-12T12:20:46Z</time>
      </trkpt>
      <trkpt lat="49.98037" lon="2.06561">
        <ele>17.8</ele>
        <time>2022-04-12T12:20:47Z</time>
      </trkpt>
      <trkpt lat="49.98037" lon="2.06561">
        <ele>17.8</ele>
        <time>2022-04-12T12:20:48Z</time>
      </trkpt>
      <trkpt lat="49.98037" lon="2.06561">
        <ele>17.8</ele>
        <time>2022-04-12T12:20:49Z</time>
      </trkpt>
      <trkpt lat="49.98037" lon="2.06561">
        <ele>17.8</ele>
        <time>2022-04-12T12:20:50Z</time>
      </trkpt>
      <trkpt lat="49.98037" lon="2.06561">
        <ele>17.8</ele>
        <time>2022-04-12T12:20:51Z</time>
      </trkpt>
      <trkpt lat="49.98037" lon="2.06561">
        <ele>17.8</ele>
        <time>2022-04-12T12:20:52Z</time>
      </trkpt>
      <trkpt lat="49.98037" lon="2.06561">
        <ele>17.8</ele>
        <time>2022-04-12T12:20:53Z</time>
      </trkpt>
      <trkpt lat="49.98037" lon="2.06561">
        <ele>17.8</ele>
        <time>2022-04-12T12:20:54Z</time>
      </trkpt>
      <trkpt lat="49.98037" lon="2.06561">
        <ele>17.8</ele>
        <time>2022-04-12T12:20:55Z</time>
      </trkpt>
      <trkpt lat="49.98037" lon="2.06561">
        <ele>17.8</ele>
        <time>2022-04-12T12:20:56Z</time>
      </trkpt>
      <trkpt lat="49.98037" lon="2.06561">
        <ele>17.8</ele>
        <time>2022-04-12T12:20:57Z</time>
      </trkpt>
      <trkpt lat="49.98037" lon="2.06561">
        <ele>17.8</ele>
        <time>2022-04-12T12:20:58Z</time>
      </trkpt>
      <trkpt lat="49.98037" lon="2.06561">
        <ele>17.8</ele>
        <time>2022-04-12T12:20:59Z</time>
      </trkpt>
      <trkpt lat="49.98037" lon="2.06561">
        <ele>17.8</ele>
        <time>2022-04-12T12:21:00Z</time>
      </trkpt>
      <trkpt lat="49.98037" lon="2.06561">
        <ele>17.8</ele>
        <time>2022-04-12T12:21:01Z</time>
      </trkpt>
      <trkpt lat="49.98037" lon="2.06561">
        <ele>17.8</ele>
        <time>2022-04-12T12:21:02Z</time>
      </trkpt>
      <trkpt lat="49.98037" lon="2.06561">
        <ele>17.8</ele>
        <time>2022-04-12T12:21:03Z</time>
      </trkpt>
      <trkpt lat="49.98037" lon="2.06561">
        <ele>17.8</ele>
        <time>2022-04-12T12:21:04Z</time>
      </trkpt>
      <trkpt lat="49.98037" lon="2.06561">
        <ele>17.8</ele>
        <time>2022-04-12T12:21:05Z</time>
      </trkpt>
      <trkpt lat="49.98037" lon="2.06561">
        <ele>17.8</ele>
        <time>2022-04-12T12:21:06Z</time>
      </trkpt>
      <trkpt lat="49.98037" lon="2.06561">
        <ele>17.8</ele>
        <time>2022-04-12T12:21:07Z</time>
      </trkpt>
      <trkpt lat="49.98037" lon="2.06561">
        <ele>17.8</ele>
        <time>2022-04-12T12:21:08Z</time>
      </trkpt>
      <trkpt lat="49.98037" lon="2.06561">
        <ele>17.8</ele>
        <time>2022-04-12T12:21:09Z</time>
      </trkpt>
      <trkpt lat="49.98037" lon="2.06561">
        <ele>17.8</ele>
        <time>2022-04-12T12:21:10Z</time>
      </trkpt>
      <trkpt lat="49.98037" lon="2.06561">
        <ele>17.8</ele>
        <time>2022-04-12T12:21:11Z</time>
      </trkpt>
      <trkpt lat="49.98037" lon="2.06561">
        <ele>17.8</ele>
        <time>2022-04-12T12:21:12Z</time>
      </trkpt>
      <trkpt lat="49.98037" lon="2.06561">
        <ele>17.8</ele>
        <time>2022-04-12T12:21:13Z</time>
      </trkpt>
      <trkpt lat="49.98037" lon="2.06561">
        <ele>17.8</ele>
        <time>2022-04-12T12:21:14Z</time>
      </trkpt>
      <trkpt lat="49.98037" lon="2.06561">
        <ele>17.8</ele>
        <time>2022-04-12T12:21:15Z</time>
      </trkpt>
      <trkpt lat="49.98037" lon="2.06561">
        <ele>17.8</ele>
        <time>2022-04-12T12:21:16Z</time>
      </trkpt>
      <trkpt lat="49.98037" lon="2.06561">
        <ele>17.8</ele>
        <time>2022-04-12T12:21:17Z</time>
      </trkpt>
      <trkpt lat="49.98037" lon="2.06561">
        <ele>17.8</ele>
        <time>2022-04-12T12:21:18Z</time>
      </trkpt>
      <trkpt lat="49.98037" lon="2.06561">
        <ele>17.8</ele>
        <time>2022-04-12T12:21:19Z</time>
      </trkpt>
      <trkpt lat="49.98037" lon="2.06561">
        <ele>17.8</ele>
        <time>2022-04-12T12:21:20Z</time>
      </trkpt>
      <trkpt lat="49.98037" lon="2.06561">
        <ele>17.8</ele>
        <time>2022-04-12T12:21:21Z</time>
      </trkpt>
      <trkpt lat="49.98037" lon="2.06561">
        <ele>17.8</ele>
        <time>2022-04-12T12:21:22Z</time>
      </trkpt>
      <trkpt lat="49.98037" lon="2.06561">
        <ele>17.8</ele>
        <time>2022-04-12T12:21:23Z</time>
      </trkpt>
      <trkpt lat="49.98037" lon="2.06561">
        <ele>17.8</ele>
        <time>2022-04-12T12:21:24Z</time>
      </trkpt>
      <trkpt lat="49.98037" lon="2.06561">
        <ele>17.8</ele>
        <time>2022-04-12T12:21:25Z</time>
      </trkpt>
      <trkpt lat="49.98037" lon="2.06561">
        <ele>17.8</ele>
        <time>2022-04-12T12:21:26Z</time>
      </trkpt>
      <trkpt lat="49.98037" lon="2.06561">
        <ele>17.8</ele>
        <time>2022-04-12T12:21:27Z</time>
      </trkpt>
      <trkpt lat="49.98037" lon="2.06561">
        <ele>17.8</ele>
        <time>2022-04-12T12:21:28Z</time>
      </trkpt>
      <trkpt lat="49.98037" lon="2.06561">
        <ele>17.8</ele>
        <time>2022-04-12T12:21:29Z</time>
      </trkpt>
      <trkpt lat="49.98037" lon="2.06561">
        <ele>17.8</ele>
        <time>2022-04-12T12:21:30Z</time>
      </trkpt>
      <trkpt lat="49.98037" lon="2.06561">
        <ele>17.8</ele>
        <time>2022-04-12T12:21:31Z</time>
      </trkpt>
      <trkpt lat="49.98037" lon="2.06561">
        <ele>17.8</ele>
        <time>2022-04-12T12:21:32Z</time>
      </trkpt>
      <trkpt lat="49.98037" lon="2.06561">
        <ele>17.8</ele>
        <time>2022-04-12T12:21:33Z</time>
      </trkpt>
      <trkpt lat="49.98037" lon="2.06561">
        <ele>17.8</ele>
        <time>2022-04-12T12:21:34Z</time>
      </trkpt>
      <trkpt lat="49.98037" lon="2.06561">
        <ele>17.8</ele>
        <time>2022-04-12T12:21:35Z</time>
      </trkpt>
      <trkpt lat="49.98037" lon="2.06561">
        <ele>17.8</ele>
        <time>2022-04-12T12:21:36Z</time>
      </trkpt>
      <trkpt lat="49.98037" lon="2.06561">
        <ele>17.8</ele>
        <time>2022-04-12T12:21:37Z</time>
      </trkpt>
      <trkpt lat="49.98037" lon="2.06561">
        <ele>17.8</ele>
        <time>2022-04-12T12:21:38Z</time>
      </trkpt>
      <trkpt lat="49.98037" lon="2.06561">
        <ele>17.8</ele>
        <time>2022-04-12T12:21:39Z</time>
      </trkpt>
      <trkpt lat="49.98037" lon="2.06561">
        <ele>17.8</ele>
        <time>2022-04-12T12:21:40Z</time>
      </trkpt>
      <trkpt lat="49.98037" lon="2.06561">
        <ele>17.8</ele>
        <time>2022-04-12T12:21:41Z</time>
      </trkpt>
      <trkpt lat="49.98037" lon="2.06561">
        <ele>17.8</ele>
        <time>2022-04-12T12:21:42Z</time>
      </trkpt>
      <trkpt lat="49.98037" lon="2.06561">
        <ele>17.8</ele>
        <time>2022-04-12T12:21:43Z</time>
      </trkpt>
      <trkpt lat="49.98037" lon="2.06561">
        <ele>17.8</ele>
        <time>2022-04-12T12:21:44Z</time>
      </trkpt>
      <trkpt lat="49.98037" lon="2.06561">
        <ele>17.8</ele>
        <time>2022-04-12T12:21:45Z</time>
      </trkpt>
      <trkpt lat="49.98037" lon="2.06561">
        <ele>17.8</ele>
        <time>2022-04-12T12:21:46Z</time>
      </trkpt>
      <trkpt lat="49.98037" lon="2.06561">
        <ele>17.8</ele>
        <time>2022-04-12T12:21:47Z</time>
      </trkpt>
      <trkpt lat="49.98037" lon="2.06561">
        <ele>17.8</ele>
        <time>2022-04-12T12:21:48Z</time>
      </trkpt>
      <trkpt lat="49.98037" lon="2.06561">
        <ele>17.8</ele>
        <time>2022-04-12T12:21:49Z</time>
      </trkpt>
      <trkpt lat="49.98037" lon="2.06561">
        <ele>17.8</ele>
        <time>2022-04-12T12:21:50Z</time>
      </trkpt>
      <trkpt lat="49.98037" lon="2.06561">
        <ele>17.8</ele>
        <time>2022-04-12T12:21:51Z</time>
      </trkpt>
      <trkpt lat="49.98037" lon="2.06561">
        <ele>17.8</ele>
        <time>2022-04-12T12:21:52Z</time>
      </trkpt>
      <trkpt lat="49.98037" lon="2.06561">
        <ele>17.8</ele>
        <time>2022-04-12T12:21:53Z</time>
      </trkpt>
      <trkpt lat="49.98037" lon="2.06561">
        <ele>17.8</ele>
        <time>2022-04-12T12:21:54Z</time>
      </trkpt>
      <trkpt lat="49.98037" lon="2.06561">
        <ele>17.8</ele>
        <time>2022-04-12T12:21:55Z</time>
      </trkpt>
      <trkpt lat="49.98037" lon="2.06561">
        <ele>17.8</ele>
        <time>2022-04-12T12:21:56Z</time>
      </trkpt>
      <trkpt lat="49.98037" lon="2.06561">
        <ele>17.8</ele>
        <time>2022-04-12T12:21:57Z</time>
      </trkpt>
      <trkpt lat="49.98037" lon="2.06561">
        <ele>17.8</ele>
        <time>2022-04-12T12:21:58Z</time>
      </trkpt>
      <trkpt lat="49.98037" lon="2.06561">
        <ele>17.8</ele>
        <time>2022-04-12T12:21:59Z</time>
      </trkpt>
      <trkpt lat="49.98037" lon="2.06561">
        <ele>17.8</ele>
        <time>2022-04-12T12:22:00Z</time>
      </trkpt>
      <trkpt lat="49.98037" lon="2.06561">
        <ele>17.8</ele>
        <time>2022-04-12T12:22:01Z</time>
      </trkpt>
      <trkpt lat="49.98037" lon="2.06561">
        <ele>17.8</ele>
        <time>2022-04-12T12:22:02Z</time>
      </trkpt>
      <trkpt lat="49.98037" lon="2.06561">
        <ele>17.8</ele>
        <time>2022-04-12T12:22:03Z</time>
      </trkpt>
      <trkpt lat="49.98037" lon="2.06561">
        <ele>17.8</ele>
        <time>2022-04-12T12:22:04Z</time>
      </trkpt>
      <trkpt lat="49.98037" lon="2.06561">
        <ele>17.8</ele>
        <time>2022-04-12T12:22:05Z</time>
      </trkpt>
      <trkpt lat="49.98037" lon="2.06561">
        <ele>17.8</ele>
        <time>2022-04-12T12:22:06Z</time>
      </trkpt>
      <trkpt lat="49.98037" lon="2.06561">
        <ele>17.8</ele>
        <time>2022-04-12T12:22:07Z</time>
      </trkpt>
      <trkpt lat="49.98037" lon="2.06561">
        <ele>17.8</ele>
        <time>2022-04-12T12:22:08Z</time>
      </trkpt>
      <trkpt lat="49.98037" lon="2.06561">
        <ele>17.8</ele>
        <time>2022-04-12T12:22:09Z</time>
      </trkpt>
      <trkpt lat="49.98037" lon="2.06561">
        <ele>17.8</ele>
        <time>2022-04-12T12:22:10Z</time>
      </trkpt>
      <trkpt lat="49.98037" lon="2.06561">
        <ele>17.8</ele>
        <time>2022-04-12T12:22:11Z</time>
      </trkpt>
      <trkpt lat="49.98037" lon="2.06561">
        <ele>17.8</ele>
        <time>2022-04-12T12:22:12Z</time>
      </trkpt>
      <trkpt lat="49.98037" lon="2.06561">
        <ele>17.8</ele>
        <time>2022-04-12T12:22:13Z</time>
      </trkpt>
      <trkpt lat="49.98037" lon="2.06561">
        <ele>17.8</ele>
        <time>2022-04-12T12:22:14Z</time>
      </trkpt>
      <trkpt lat="49.98037" lon="2.06561">
        <ele>17.8</ele>
        <time>2022-04-12T12:22:15Z</time>
      </trkpt>
      <trkpt lat="49.98037" lon="2.06561">
        <ele>17.8</ele>
        <time>2022-04-12T12:22:16Z</time>
      </trkpt>
      <trkpt lat="49.98037" lon="2.06561">
        <ele>17.8</ele>
        <time>2022-04-12T12:22:17Z</time>
      </trkpt>
      <trkpt lat="49.98037" lon="2.06561">
        <ele>17.8</ele>
        <time>2022-04-12T12:22:18Z</time>
      </trkpt>
      <trkpt lat="49.98037" lon="2.06561">
        <ele>17.8</ele>
        <time>2022-04-12T12:22:19Z</time>
      </trkpt>
      <trkpt lat="49.98037" lon="2.06561">
        <ele>17.8</ele>
        <time>2022-04-12T12:22:20Z</time>
      </trkpt>
      <trkpt lat="49.98037" lon="2.06561">
        <ele>17.8</ele>
        <time>2022-04-12T12:22:21Z</time>
      </trkpt>
      <trkpt lat="49.98037" lon="2.06561">
        <ele>17.8</ele>
        <time>2022-04-12T12:22:22Z</time>
      </trkpt>
      <trkpt lat="49.98037" lon="2.06561">
        <ele>17.8</ele>
        <time>2022-04-12T12:22:23Z</time>
      </trkpt>
      <trkpt lat="49.98037" lon="2.06561">
        <ele>17.8</ele>
        <time>2022-04-12T12:22:24Z</time>
      </trkpt>
      <trkpt lat="49.98037" lon="2.06561">
        <ele>17.8</ele>
        <time>2022-04-12T12:22:25Z</time>
      </trkpt>
      <trkpt lat="49.98037" lon="2.06561">
        <ele>17.8</ele>
        <time>2022-04-12T12:22:26Z</time>
      </trkpt>
      <trkpt lat="49.98037" lon="2.06561">
        <ele>17.8</ele>
        <time>2022-04-12T12:22:27Z</time>
      </trkpt>
      <trkpt lat="49.98037" lon="2.06561">
        <ele>17.8</ele>
        <time>2022-04-12T12:22:28Z</time>
      </trkpt>
      <trkpt lat="49.98037" lon="2.06561">
        <ele>17.8</ele>
        <time>2022-04-12T12:22:29Z</time>
      </trkpt>
      <trkpt lat="49.98037" lon="2.06561">
        <ele>17.8</ele>
        <time>2022-04-12T12:22:30Z</time>
      </trkpt>
      <trkpt lat="49.98037" lon="2.06561">
        <ele>17.8</ele>
        <time>2022-04-12T12:22:31Z</time>
      </trkpt>
      <trkpt lat="49.98037" lon="2.06561">
        <ele>17.8</ele>
        <time>2022-04-12T12:22:32Z</time>
      </trkpt>
      <trkpt lat="49.98037" lon="2.06561">
        <ele>17.8</ele>
        <time>2022-04-12T12:22:33Z</time>
      </trkpt>
      <trkpt lat="49.98037" lon="2.06561">
        <ele>17.8</ele>
        <time>2022-04-12T12:22:34Z</time>
      </trkpt>
      <trkpt lat="49.98037" lon="2.06561">
        <ele>17.8</ele>
        <time>2022-04-12T12:22:35Z</time>
      </trkpt>
      <trkpt lat="49.98037" lon="2.06561">
        <ele>17.8</ele>
        <time>2022-04-12T12:22:36Z</time>
      </trkpt>
      <trkpt lat="49.98037" lon="2.06561">
        <ele>17.8</ele>
        <time>2022-04-12T12:22:37Z</time>
      </trkpt>
      <trkpt lat="49.98037" lon="2.06561">
        <ele>17.8</ele>
        <time>2022-04-12T12:22:38Z</time>
      </trkpt>
      <trkpt lat="49.98037" lon="2.06561">
        <ele>17.8</ele>
        <time>2022-04-12T12:22:39Z</time>
      </trkpt>
      <trkpt lat="49.98037" lon="2.06561">
        <ele>17.8</ele>
        <time>2022-04-12T12:22:40Z</time>
      </trkpt>
      <trkpt lat="49.98037" lon="2.06561">
        <ele>17.8</ele>
        <time>2022-04-12T12:22:41Z</time>
      </trkpt>
      <trkpt lat="49.98037" lon="2.06561">
        <ele>17.8</ele>
        <time>2022-04-12T12:22:42Z</time>
      </trkpt>
      <trkpt lat="49.98037" lon="2.06561">
        <ele>17.8</ele>
        <time>2022-04-12T12:22:43Z</time>
      </trkpt>
      <trkpt lat="49.98037" lon="2.06561">
        <ele>17.8</ele>
        <time>2022-04-12T12:22:44Z</time>
      </trkpt>
      <trkpt lat="49.98037" lon="2.06561">
        <ele>17.8</ele>
        <time>2022-04-12T12:22:45Z</time>
      </trkpt>
      <trkpt lat="49.98037" lon="2.06561">
        <ele>17.8</ele>
        <time>2022-04-12T12:22:46Z</time>
      </trkpt>
      <trkpt lat="49.98037" lon="2.06561">
        <ele>17.8</ele>
        <time>2022-04-12T12:22:47Z</time>
      </trkpt>
      <trkpt lat="49.98037" lon="2.06561">
        <ele>17.8</ele>
        <time>2022-04-12T12:22:48Z</time>
      </trkpt>
      <trkpt lat="49.98037" lon="2.06561">
        <ele>17.8</ele>
        <time>2022-04-12T12:22:49Z</time>
      </trkpt>
      <trkpt lat="49.98037" lon="2.06561">
        <ele>17.8</ele>
        <time>2022-04-12T12:22:50Z</time>
      </trkpt>
      <trkpt lat="49.98037" lon="2.06561">
        <ele>17.8</ele>
        <time>2022-04-12T12:22:51Z</time>
      </trkpt>
      <trkpt lat="49.98037" lon="2.06561">
        <ele>17.8</ele>
        <time>2022-04-12T12:22:52Z</time>
      </trkpt>
      <trkpt lat="49.98037" lon="2.06561">
        <ele>17.8</ele>
        <time>2022-04-12T12:22:53Z</time>
      </trkpt>
      <trkpt lat="49.98037" lon="2.06561">
        <ele>17.8</ele>
        <time>2022-04-12T12:22:54Z</time>
      </trkpt>
      <trkpt lat="49.98037" lon="2.06561">
        <ele>17.8</ele>
        <time>2022-04-12T12:22:55Z</time>
      </trkpt>
      <trkpt lat="49.98037" lon="2.06561">
        <ele>17.8</ele>
        <time>2022-04-12T12:22:56Z</time>
      </trkpt>
      <trkpt lat="49.98037" lon="2.06561">
        <ele>17.8</ele>
        <time>2022-04-12T12:22:57Z</time>
      </trkpt>
      <trkpt lat="49.98037" lon="2.06561">
        <ele>17.8</ele>
        <time>2022-04-12T12:22:58Z</time>
      </trkpt>
      <trkpt lat="49.98037" lon="2.06561">
        <ele>17.8</ele>
        <time>2022-04-12T12:22:59Z</time>
      </trkpt>
      <trkpt lat="49.98037" lon="2.06561">
        <ele>17.8</ele>
        <time>2022-04-12T12:23:00Z</time>
      </trkpt>
      <trkpt lat="49.98037" lon="2.06561">
        <ele>17.8</ele>
        <time>2022-04-12T12:23:01Z</time>
      </trkpt>
      <trkpt lat="49.98037" lon="2.06561">
        <ele>17.8</ele>
        <time>2022-04-12T12:23:02Z</time>
      </trkpt>
      <trkpt lat="49.98037" lon="2.06561">
        <ele>17.8</ele>
        <time>2022-04-12T12:23:03Z</time>
      </trkpt>
      <trkpt lat="49.98037" lon="2.06561">
        <ele>17.8</ele>
        <time>2022-04-12T12:23:04Z</time>
      </trkpt>
      <trkpt lat="49.98037" lon="2.06561">
        <ele>17.8</ele>
        <time>2022-04-12T12:23:05Z</time>
      </trkpt>
      <trkpt lat="49.98037" lon="2.06561">
        <ele>17.8</ele>
        <time>2022-04-12T12:23:06Z</time>
      </trkpt>
      <trkpt lat="49.98037" lon="2.06561">
        <ele>17.8</ele>
        <time>2022-04-12T12:23:07Z</time>
      </trkpt>
      <trkpt lat="49.98037" lon="2.06561">
        <ele>17.8</ele>
        <time>2022-04-12T12:23:08Z</time>
      </trkpt>
      <trkpt lat="49.98037" lon="2.06561">
        <ele>17.8</ele>
        <time>2022-04-12T12:23:09Z</time>
      </trkpt>
      <trkpt lat="49.98037" lon="2.06561">
        <ele>17.8</ele>
        <time>2022-04-12T12:23:10Z</time>
      </trkpt>
      <trkpt lat="49.98037" lon="2.06561">
        <ele>17.8</ele>
        <time>2022-04-12T12:23:11Z</time>
      </trkpt>
      <trkpt lat="49.98037" lon="2.06561">
        <ele>17.8</ele>
        <time>2022-04-12T12:23:12Z</time>
      </trkpt>
      <trkpt lat="49.98037" lon="2.06561">
        <ele>17.8</ele>
        <time>2022-04-12T12:23:13Z</time>
      </trkpt>
      <trkpt lat="49.98037" lon="2.06561">
        <ele>17.8</ele>
        <time>2022-04-12T12:23:14Z</time>
      </trkpt>
      <trkpt lat="49.98037" lon="2.06561">
        <ele>17.8</ele>
        <time>2022-04-12T12:23:15Z</time>
      </trkpt>
      <trkpt lat="49.98037" lon="2.06561">
        <ele>17.8</ele>
        <time>2022-04-12T12:23:16Z</time>
      </trkpt>
      <trkpt lat="49.98037" lon="2.06561">
        <ele>17.8</ele>
        <time>2022-04-12T12:23:17Z</time>
      </trkpt>
      <trkpt lat="49.98037" lon="2.06561">
        <ele>17.8</ele>
        <time>2022-04-12T12:23:18Z</time>
      </trkpt>
      <trkpt lat="49.98037" lon="2.06561">
        <ele>17.8</ele>
        <time>2022-04-12T12:23:19Z</time>
      </trkpt>
      <trkpt lat="49.98037" lon="2.06561">
        <ele>17.8</ele>
        <time>2022-04-12T12:23:20Z</time>
      </trkpt>
      <trkpt lat="49.98037" lon="2.06561">
        <ele>17.8</ele>
        <time>2022-04-12T12:23:21Z</time>
      </trkpt>
      <trkpt lat="49.98037" lon="2.06561">
        <ele>17.8</ele>
        <time>2022-04-12T12:23:22Z</time>
      </trkpt>
      <trkpt lat="49.98037" lon="2.06561">
        <ele>17.8</ele>
        <time>2022-04-12T12:23:23Z</time>
      </trkpt>
      <trkpt lat="49.98037" lon="2.06561">
        <ele>17.8</ele>
        <time>2022-04-12T12:23:24Z</time>
      </trkpt>
      <trkpt lat="49.98037" lon="2.06561">
        <ele>17.8</ele>
        <time>2022-04-12T12:23:25Z</time>
      </trkpt>
      <trkpt lat="49.98037" lon="2.06561">
        <ele>17.8</ele>
        <time>2022-04-12T12:23:26Z</time>
      </trkpt>
      <trkpt lat="49.98037" lon="2.06561">
        <ele>17.8</ele>
        <time>2022-04-12T12:23:27Z</time>
      </trkpt>
      <trkpt lat="49.98037" lon="2.06561">
        <ele>17.8</ele>
        <time>2022-04-12T12:23:28Z</time>
      </trkpt>
      <trkpt lat="49.98037" lon="2.06561">
        <ele>17.8</ele>
        <time>2022-04-12T12:23:29Z</time>
      </trkpt>
      <trkpt lat="49.98037" lon="2.06561">
        <ele>17.8</ele>
        <time>2022-04-12T12:23:30Z</time>
      </trkpt>
      <trkpt lat="49.98037" lon="2.06561">
        <ele>17.8</ele>
        <time>2022-04-12T12:23:31Z</time>
      </trkpt>
      <trkpt lat="49.98037" lon="2.06561">
        <ele>17.8</ele>
        <time>2022-04-12T12:23:32Z</time>
      </trkpt>
      <trkpt lat="49.98037" lon="2.06561">
        <ele>17.8</ele>
        <time>2022-04-12T12:23:33Z</time>
      </trkpt>
      <trkpt lat="49.98037" lon="2.06561">
        <ele>17.8</ele>
        <time>2022-04-12T12:23:34Z</time>
      </trkpt>
      <trkpt lat="49.98037" lon="2.06561">
        <ele>17.8</ele>
        <time>2022-04-12T12:23:35Z</time>
      </trkpt>
      <trkpt lat="49.98037" lon="2.06561">
        <ele>17.8</ele>
        <time>2022-04-12T12:23:36Z</time>
      </trkpt>
      <trkpt lat="49.98037" lon="2.06561">
        <ele>17.8</ele>
        <time>2022-04-12T12:23:37Z</time>
      </trkpt>
      <trkpt lat="49.98037" lon="2.06561">
        <ele>17.8</ele>
        <time>2022-04-12T12:23:38Z</time>
      </trkpt>
      <trkpt lat="49.98037" lon="2.06561">
        <ele>17.8</ele>
        <time>2022-04-12T12:23:39Z</time>
      </trkpt>
      <trkpt lat="49.98037" lon="2.06561">
        <ele>17.8</ele>
        <time>2022-04-12T12:23:40Z</time>
      </trkpt>
      <trkpt lat="49.98037" lon="2.06561">
        <ele>17.8</ele>
        <time>2022-04-12T12:23:41Z</time>
      </trkpt>
      <trkpt lat="49.98037" lon="2.06561">
        <ele>17.8</ele>
        <time>2022-04-12T12:23:42Z</time>
      </trkpt>
      <trkpt lat="49.98037" lon="2.06561">
        <ele>17.8</ele>
        <time>2022-04-12T12:23:43Z</time>
      </trkpt>
      <trkpt lat="49.98037" lon="2.06561">
        <ele>17.8</ele>
        <time>2022-04-12T12:23:44Z</time>
      </trkpt>
      <trkpt lat="49.98037" lon="2.06561">
        <ele>17.8</ele>
        <time>2022-04-12T12:23:45Z</time>
      </trkpt>
      <trkpt lat="49.98037" lon="2.06561">
        <ele>17.8</ele>
        <time>2022-04-12T12:23:46Z</time>
      </trkpt>
      <trkpt lat="49.98037" lon="2.06561">
        <ele>17.8</ele>
        <time>2022-04-12T12:23:47Z</time>
      </trkpt>
      <trkpt lat="49.98037" lon="2.06561">
        <ele>17.8</ele>
        <time>2022-04-12T12:23:48Z</time>
      </trkpt>
      <trkpt lat="49.98037" lon="2.06561">
        <ele>17.8</ele>
        <time>2022-04-12T12:23:49Z</time>
      </trkpt>
      <trkpt lat="49.98037" lon="2.06561">
        <ele>17.8</ele>
        <time>2022-04-12T12:23:50Z</time>
      </trkpt>
      <trkpt lat="49.98037" lon="2.06561">
        <ele>17.8</ele>
        <time>2022-04-12T12:23:51Z</time>
      </trkpt>
      <trkpt lat="49.98037" lon="2.06561">
        <ele>17.8</ele>
        <time>2022-04-12T12:23:52Z</time>
      </trkpt>
      <trkpt lat="49.98037" lon="2.06561">
        <ele>17.8</ele>
        <time>2022-04-12T12:23:53Z</time>
      </trkpt>
      <trkpt lat="49.98037" lon="2.06561">
        <ele>17.8</ele>
        <time>2022-04-12T12:23:54Z</time>
      </trkpt>
      <trkpt lat="49.98037" lon="2.06561">
        <ele>17.8</ele>
        <time>2022-04-12T12:23:55Z</time>
      </trkpt>
      <trkpt lat="49.98037" lon="2.06561">
        <ele>17.8</ele>
        <time>2022-04-12T12:23:56Z</time>
      </trkpt>
      <trkpt lat="49.98037" lon="2.06561">
        <ele>17.8</ele>
        <time>2022-04-12T12:23:57Z</time>
      </trkpt>
      <trkpt lat="49.98037" lon="2.06561">
        <ele>17.8</ele>
        <time>2022-04-12T12:23:58Z</time>
      </trkpt>
      <trkpt lat="49.98037" lon="2.06561">
        <ele>17.8</ele>
        <time>2022-04-12T12:23:59Z</time>
      </trkpt>
      <trkpt lat="49.98037" lon="2.06561">
        <ele>17.8</ele>
        <time>2022-04-12T12:24:00Z</time>
      </trkpt>
      <trkpt lat="49.98037" lon="2.06561">
        <ele>17.8</ele>
        <time>2022-04-12T12:24:01Z</time>
      </trkpt>
      <trkpt lat="49.98037" lon="2.06561">
        <ele>17.8</ele>
        <time>2022-04-12T12:24:02Z</time>
      </trkpt>
      <trkpt lat="49.98037" lon="2.06561">
        <ele>17.8</ele>
        <time>2022-04-12T12:24:03Z</time>
      </trkpt>
      <trkpt lat="49.98037" lon="2.06561">
        <ele>17.8</ele>
        <time>2022-04-12T12:24:04Z</time>
      </trkpt>
      <trkpt lat="49.98037" lon="2.06561">
        <ele>17.8</ele>
        <time>2022-04-12T12:24:05Z</time>
      </trkpt>
      <trkpt lat="49.98037" lon="2.06561">
        <ele>17.8</ele>
        <time>2022-04-12T12:24:06Z</time>
      </trkpt>
      <trkpt lat="49.98037" lon="2.06561">
        <ele>17.8</ele>
        <time>2022-04-12T12:24:07Z</time>
      </trkpt>
      <trkpt lat="49.98037" lon="2.06561">
        <ele>17.8</ele>
        <time>2022-04-12T12:24:08Z</time>
      </trkpt>
      <trkpt lat="49.98037" lon="2.06561">
        <ele>17.8</ele>
        <time>2022-04-12T12:24:09Z</time>
      </trkpt>
      <trkpt lat="49.98037" lon="2.06561">
        <ele>17.8</ele>
        <time>2022-04-12T12:24:10Z</time>
      </trkpt>
      <trkpt lat="49.98037" lon="2.06561">
        <ele>17.8</ele>
        <time>2022-04-12T12:24:11Z</time>
      </trkpt>
      <trkpt lat="49.98037" lon="2.06561">
        <ele>17.8</ele>
        <time>2022-04-12T12:24:12Z</time>
      </trkpt>
      <trkpt lat="49.98037" lon="2.06561">
        <ele>17.8</ele>
        <time>2022-04-12T12:24:13Z</time>
      </trkpt>
      <trkpt lat="49.98037" lon="2.06561">
        <ele>17.8</ele>
        <time>2022-04-12T12:24:14Z</time>
      </trkpt>
      <trkpt lat="49.98037" lon="2.06561">
        <ele>17.8</ele>
        <time>2022-04-12T12:24:15Z</time>
      </trkpt>
      <trkpt lat="49.98037" lon="2.06561">
        <ele>17.8</ele>
        <time>2022-04-12T12:24:16Z</time>
      </trkpt>
      <trkpt lat="49.98037" lon="2.06561">
        <ele>17.8</ele>
        <time>2022-04-12T12:24:17Z</time>
      </trkpt>
      <trkpt lat="49.98037" lon="2.06561">
        <ele>17.8</ele>
        <time>2022-04-12T12:24:18Z</time>
      </trkpt>
      <trkpt lat="49.98037" lon="2.06561">
        <ele>17.8</ele>
        <time>2022-04-12T12:24:19Z</time>
      </trkpt>
      <trkpt lat="49.98037" lon="2.06561">
        <ele>17.8</ele>
        <time>2022-04-12T12:24:20Z</time>
      </trkpt>
      <trkpt lat="49.98037" lon="2.06561">
        <ele>17.8</ele>
        <time>2022-04-12T12:24:21Z</time>
      </trkpt>
      <trkpt lat="49.98037" lon="2.06561">
        <ele>17.8</ele>
        <time>2022-04-12T12:24:22Z</time>
      </trkpt>
      <trkpt lat="49.98037" lon="2.06561">
        <ele>17.8</ele>
        <time>2022-04-12T12:24:23Z</time>
      </trkpt>
      <trkpt lat="49.98037" lon="2.06561">
        <ele>17.8</ele>
        <time>2022-04-12T12:24:24Z</time>
      </trkpt>
      <trkpt lat="49.98037" lon="2.06561">
        <ele>17.8</ele>
        <time>2022-04-12T12:24:25Z</time>
      </trkpt>
      <trkpt lat="49.98037" lon="2.06561">
        <ele>17.8</ele>
        <time>2022-04-12T12:24:26Z</time>
      </trkpt>
      <trkpt lat="49.98037" lon="2.06561">
        <ele>17.8</ele>
        <time>2022-04-12T12:24:27Z</time>
      </trkpt>
      <trkpt lat="49.98037" lon="2.06561">
        <ele>17.8</ele>
        <time>2022-04-12T12:24:28Z</time>
      </trkpt>
      <trkpt lat="49.98037" lon="2.06561">
        <ele>17.8</ele>
        <time>2022-04-12T12:24:29Z</time>
      </trkpt>
      <trkpt lat="49.98037" lon="2.06561">
        <ele>17.8</ele>
        <time>2022-04-12T12:24:30Z</time>
      </trkpt>
      <trkpt lat="49.98037" lon="2.06561">
        <ele>17.8</ele>
        <time>2022-04-12T12:24:31Z</time>
      </trkpt>
      <trkpt lat="49.98037" lon="2.06561">
        <ele>17.8</ele>
        <time>2022-04-12T12:24:32Z</time>
      </trkpt>
      <trkpt lat="49.98037" lon="2.06561">
        <ele>17.8</ele>
        <time>2022-04-12T12:24:33Z</time>
      </trkpt>
      <trkpt lat="49.98037" lon="2.06561">
        <ele>17.8</ele>
        <time>2022-04-12T12:24:34Z</time>
      </trkpt>
      <trkpt lat="49.98037" lon="2.06561">
        <ele>17.8</ele>
        <time>2022-04-12T12:24:35Z</time>
      </trkpt>
      <trkpt lat="49.98037" lon="2.06561">
        <ele>17.8</ele>
        <time>2022-04-12T12:24:36Z</time>
      </trkpt>
      <trkpt lat="49.98037" lon="2.06561">
        <ele>17.8</ele>
        <time>2022-04-12T12:24:37Z</time>
      </trkpt>
      <trkpt lat="49.98037" lon="2.06561">
        <ele>17.8</ele>
        <time>2022-04-12T12:24:38Z</time>
      </trkpt>
      <trkpt lat="49.98037" lon="2.06561">
        <ele>17.8</ele>
        <time>2022-04-12T12:24:39Z</time>
      </trkpt>
      <trkpt lat="49.98037" lon="2.06561">
        <ele>17.8</ele>
        <time>2022-04-12T12:24:40Z</time>
      </trkpt>
      <trkpt lat="49.98037" lon="2.06561">
        <ele>17.8</ele>
        <time>2022-04-12T12:24:41Z</time>
      </trkpt>
      <trkpt lat="49.98037" lon="2.06561">
        <ele>17.8</ele>
        <time>2022-04-12T12:24:42Z</time>
      </trkpt>
      <trkpt lat="49.98037" lon="2.06561">
        <ele>17.8</ele>
        <time>2022-04-12T12:24:43Z</time>
      </trkpt>
      <trkpt lat="49.98037" lon="2.06561">
        <ele>17.8</ele>
        <time>2022-04-12T12:24:44Z</time>
      </trkpt>
      <trkpt lat="49.98037" lon="2.06561">
        <ele>17.8</ele>
        <time>2022-04-12T12:24:45Z</time>
      </trkpt>
      <trkpt lat="49.98037" lon="2.06561">
        <ele>17.8</ele>
        <time>2022-04-12T12:24:46Z</time>
      </trkpt>
      <trkpt lat="49.98037" lon="2.06561">
        <ele>17.8</ele>
        <time>2022-04-12T12:24:47Z</time>
      </trkpt>
      <trkpt lat="49.98037" lon="2.06561">
        <ele>17.8</ele>
        <time>2022-04-12T12:24:48Z</time>
      </trkpt>
      <trkpt lat="49.98037" lon="2.06561">
        <ele>17.8</ele>
        <time>2022-04-12T12:24:49Z</time>
      </trkpt>
      <trkpt lat="49.98037" lon="2.06561">
        <ele>17.8</ele>
        <time>2022-04-12T12:24:50Z</time>
      </trkpt>
      <trkpt lat="49.98037" lon="2.06561">
        <ele>17.8</ele>
        <time>2022-04-12T12:24:51Z</time>
      </trkpt>
      <trkpt lat="49.98037" lon="2.06561">
        <ele>17.8</ele>
        <time>2022-04-12T12:24:52Z</time>
      </trkpt>
      <trkpt lat="49.98037" lon="2.06561">
        <ele>17.8</ele>
        <time>2022-04-12T12:24:53Z</time>
      </trkpt>
      <trkpt lat="49.98037" lon="2.06561">
        <ele>17.8</ele>
        <time>2022-04-12T12:24:54Z</time>
      </trkpt>
      <trkpt lat="49.98037" lon="2.06561">
        <ele>17.8</ele>
        <time>2022-04-12T12:24:55Z</time>
      </trkpt>
      <trkpt lat="49.98037" lon="2.06561">
        <ele>17.8</ele>
        <time>2022-04-12T12:24:56Z</time>
      </trkpt>
      <trkpt lat="49.98037" lon="2.06561">
        <ele>17.8</ele>
        <time>2022-04-12T12:24:57Z</time>
      </trkpt>
      <trkpt lat="49.98037" lon="2.06561">
        <ele>17.8</ele>
        <time>2022-04-12T12:24:58Z</time>
      </trkpt>
      <trkpt lat="49.98037" lon="2.06561">
        <ele>17.8</ele>
        <time>2022-04-12T12:24:59Z</time>
      </trkpt>
      <trkpt lat="49.98037" lon="2.06561">
        <ele>17.8</ele>
        <time>2022-04-12T12:25:00Z</time>
      </trkpt>
      <trkpt lat="49.98037" lon="2.06561">
        <ele>17.8</ele>
        <time>2022-04-12T12:25:01Z</time>
      </trkpt>
      <trkpt lat="49.98037" lon="2.06561">
        <ele>17.8</ele>
        <time>2022-04-12T12:25:02Z</time>
      </trkpt>
      <trkpt lat="49.98037" lon="2.06561">
        <ele>17.8</ele>
        <time>2022-04-12T12:25:03Z</time>
      </trkpt>
      <trkpt lat="49.98037" lon="2.06561">
        <ele>17.8</ele>
        <time>2022-04-12T12:25:04Z</time>
      </trkpt>
      <trkpt lat="49.98037" lon="2.06561">
        <ele>17.8</ele>
        <time>2022-04-12T12:25:05Z</time>
      </trkpt>
      <trkpt lat="49.98037" lon="2.06561">
        <ele>17.8</ele>
        <time>2022-04-12T12:25:06Z</time>
      </trkpt>
      <trkpt lat="49.98037" lon="2.06561">
        <ele>17.8</ele>
        <time>2022-04-12T12:25:07Z</time>
      </trkpt>
      <trkpt lat="49.98037" lon="2.06561">
        <ele>17.8</ele>
        <time>2022-04-12T12:25:08Z</time>
      </trkpt>
      <trkpt lat="49.98037" lon="2.06561">
        <ele>17.8</ele>
        <time>2022-04-12T12:25:09Z</time>
      </trkpt>
      <trkpt lat="49.98037" lon="2.06561">
        <ele>17.8</ele>
        <time>2022-04-12T12:25:10Z</time>
      </trkpt>
      <trkpt lat="49.98037" lon="2.06561">
        <ele>17.8</ele>
        <time>2022-04-12T12:25:11Z</time>
      </trkpt>
      <trkpt lat="49.98037" lon="2.06561">
        <ele>17.8</ele>
        <time>2022-04-12T12:25:12Z</time>
      </trkpt>
      <trkpt lat="49.98037" lon="2.06561">
        <ele>17.8</ele>
        <time>2022-04-12T12:25:13Z</time>
      </trkpt>
      <trkpt lat="49.98037" lon="2.06561">
        <ele>17.8</ele>
        <time>2022-04-12T12:25:14Z</time>
      </trkpt>
      <trkpt lat="49.98037" lon="2.06561">
        <ele>17.8</ele>
        <time>2022-04-12T12:25:15Z</time>
      </trkpt>
      <trkpt lat="49.98037" lon="2.06561">
        <ele>17.8</ele>
        <time>2022-04-12T12:25:16Z</time>
      </trkpt>
      <trkpt lat="49.98037" lon="2.06561">
        <ele>17.8</ele>
        <time>2022-04-12T12:25:17Z</time>
      </trkpt>
      <trkpt lat="49.98037" lon="2.06561">
        <ele>17.8</ele>
        <time>2022-04-12T12:25:18Z</time>
      </trkpt>
      <trkpt lat="49.98037" lon="2.06561">
        <ele>17.8</ele>
        <time>2022-04-12T12:25:19Z</time>
      </trkpt>
      <trkpt lat="49.98037" lon="2.06561">
        <ele>17.8</ele>
        <time>2022-04-12T12:25:20Z</time>
      </trkpt>
      <trkpt lat="49.98037" lon="2.06561">
        <ele>17.8</ele>
        <time>2022-04-12T12:25:21Z</time>
      </trkpt>
      <trkpt lat="49.98037" lon="2.06561">
        <ele>17.8</ele>
        <time>2022-04-12T12:25:22Z</time>
      </trkpt>
      <trkpt lat="49.98037" lon="2.06561">
        <ele>17.8</ele>
        <time>2022-04-12T12:25:23Z</time>
      </trkpt>
      <trkpt lat="49.98037" lon="2.06561">
        <ele>17.8</ele>
        <time>2022-04-12T12:25:24Z</time>
      </trkpt>
      <trkpt lat="49.98037" lon="2.06561">
        <ele>17.8</ele>
        <time>2022-04-12T12:25:25Z</time>
      </trkpt>
      <trkpt lat="49.98037" lon="2.06561">
        <ele>17.8</ele>
        <time>2022-04-12T12:25:26Z</time>
      </trkpt>
      <trkpt lat="49.98037" lon="2.06561">
        <ele>17.8</ele>
        <time>2022-04-12T12:25:27Z</time>
      </trkpt>
      <trkpt lat="49.98037" lon="2.06561">
        <ele>17.8</ele>
        <time>2022-04-12T12:25:28Z</time>
      </trkpt>
      <trkpt lat="49.98037" lon="2.06561">
        <ele>17.8</ele>
        <time>2022-04-12T12:25:29Z</time>
      </trkpt>
      <trkpt lat="49.98037" lon="2.06561">
        <ele>17.8</ele>
        <time>2022-04-12T12:25:30Z</time>
      </trkpt>
      <trkpt lat="49.98037" lon="2.06561">
        <ele>17.8</ele>
        <time>2022-04-12T12:25:31Z</time>
      </trkpt>
      <trkpt lat="49.98037" lon="2.06561">
        <ele>17.8</ele>
        <time>2022-04-12T12:25:32Z</time>
      </trkpt>
      <trkpt lat="49.98037" lon="2.06561">
        <ele>17.8</ele>
        <time>2022-04-12T12:25:33Z</time>
      </trkpt>
      <trkpt lat="49.98037" lon="2.06561">
        <ele>17.8</ele>
        <time>2022-04-12T12:25:34Z</time>
      </trkpt>
      <trkpt lat="49.98037" lon="2.06561">
        <ele>17.8</ele>
        <time>2022-04-12T12:25:35Z</time>
      </trkpt>
      <trkpt lat="49.98037" lon="2.06561">
        <ele>17.8</ele>
        <time>2022-04-12T12:25:36Z</time>
      </trkpt>
      <trkpt lat="49.98037" lon="2.06561">
        <ele>17.8</ele>
        <time>2022-04-12T12:25:37Z</time>
      </trkpt>
      <trkpt lat="49.98037" lon="2.06561">
        <ele>17.8</ele>
        <time>2022-04-12T12:25:38Z</time>
      </trkpt>
      <trkpt lat="49.98037" lon="2.06561">
        <ele>17.8</ele>
        <time>2022-04-12T12:25:39Z</time>
      </trkpt>
      <trkpt lat="49.98037" lon="2.06561">
        <ele>17.8</ele>
        <time>2022-04-12T12:25:40Z</time>
      </trkpt>
      <trkpt lat="49.98037" lon="2.06561">
        <ele>17.8</ele>
        <time>2022-04-12T12:25:41Z</time>
      </trkpt>
      <trkpt lat="49.98037" lon="2.06561">
        <ele>17.8</ele>
        <time>2022-04-12T12:25:42Z</time>
      </trkpt>
      <trkpt lat="49.98037" lon="2.06561">
        <ele>17.8</ele>
        <time>2022-04-12T12:25:43Z</time>
      </trkpt>
      <trkpt lat="49.98037" lon="2.06561">
        <ele>17.8</ele>
        <time>2022-04-12T12:25:44Z</time>
      </trkpt>
      <trkpt lat="49.98037" lon="2.06561">
        <ele>17.8</ele>
        <time>2022-04-12T12:25:45Z</time>
      </trkpt>
      <trkpt lat="49.98037" lon="2.06561">
        <ele>17.8</ele>
        <time>2022-04-12T12:25:46Z</time>
      </trkpt>
      <trkpt lat="49.98037" lon="2.06561">
        <ele>17.8</ele>
        <time>2022-04-12T12:25:47Z</time>
      </trkpt>
      <trkpt lat="49.98037" lon="2.06561">
        <ele>17.8</ele>
        <time>2022-04-12T12:25:48Z</time>
      </trkpt>
      <trkpt lat="49.98038" lon="2.06559">
        <ele>17.7</ele>
        <time>2022-04-12T12:25:49Z</time>
      </trkpt>
      <trkpt lat="49.98039" lon="2.06558">
        <ele>17.7</ele>
        <time>2022-04-12T12:25:50Z</time>
      </trkpt>
      <trkpt lat="49.98039" lon="2.06558">
        <ele>17.7</ele>
        <time>2022-04-12T12:25:51Z</time>
      </trkpt>
      <trkpt lat="49.98039" lon="2.06559">
        <ele>17.7</ele>
        <time>2022-04-12T12:25:52Z</time>
      </trkpt>
      <trkpt lat="49.98039" lon="2.06559">
        <ele>17.7</ele>
        <time>2022-04-12T12:25:53Z</time>
      </trkpt>
      <trkpt lat="49.98039" lon="2.06559">
        <ele>17.7</ele>
        <time>2022-04-12T12:25:54Z</time>
      </trkpt>
      <trkpt lat="49.98038" lon="2.06559">
        <ele>17.7</ele>
        <time>2022-04-12T12:25:55Z</time>
      </trkpt>
      <trkpt lat="49.98038" lon="2.0656">
        <ele>17.7</ele>
        <time>2022-04-12T12:25:56Z</time>
      </trkpt>
      <trkpt lat="49.98038" lon="2.0656">
        <ele>17.7</ele>
        <time>2022-04-12T12:25:57Z</time>
      </trkpt>
      <trkpt lat="49.98038" lon="2.0656">
        <ele>17.7</ele>
        <time>2022-04-12T12:25:58Z</time>
      </trkpt>
      <trkpt lat="49.98037" lon="2.0656">
        <ele>17.7</ele>
        <time>2022-04-12T12:26:00Z</time>
      </trkpt>
      <trkpt lat="49.98037" lon="2.06561">
        <ele>17.7</ele>
        <time>2022-04-12T12:26:01Z</time>
      </trkpt>
      <trkpt lat="49.98037" lon="2.06561">
        <ele>17.7</ele>
        <time>2022-04-12T12:26:02Z</time>
      </trkpt>
      <trkpt lat="49.98037" lon="2.06561">
        <ele>17.7</ele>
        <time>2022-04-12T12:26:04Z</time>
      </trkpt>
      <trkpt lat="49.98036" lon="2.06561">
        <ele>17.7</ele>
        <time>2022-04-12T12:26:05Z</time>
      </trkpt>
      <trkpt lat="49.98035" lon="2.06562">
        <ele>17.7</ele>
        <time>2022-04-12T12:26:06Z</time>
      </trkpt>
      <trkpt lat="49.98034" lon="2.06563">
        <ele>17.6</ele>
        <time>2022-04-12T12:26:08Z</time>
      </trkpt>
      <trkpt lat="49.98034" lon="2.06562">
        <ele>17.6</ele>
        <time>2022-04-12T12:26:09Z</time>
      </trkpt>
      <trkpt lat="49.98033" lon="2.06563">
        <ele>17.6</ele>
        <time>2022-04-12T12:26:11Z</time>
      </trkpt>
      <trkpt lat="49.98033" lon="2.06563">
        <ele>17.6</ele>
        <time>2022-04-12T12:26:12Z</time>
      </trkpt>
      <trkpt lat="49.98032" lon="2.06564">
        <ele>17.6</ele>
        <time>2022-04-12T12:26:13Z</time>
      </trkpt>
      <trkpt lat="49.98032" lon="2.06565">
        <ele>17.6</ele>
        <time>2022-04-12T12:26:14Z</time>
      </trkpt>
      <trkpt lat="49.98031" lon="2.06567">
        <ele>17.6</ele>
        <time>2022-04-12T12:26:16Z</time>
      </trkpt>
      <trkpt lat="49.9803" lon="2.06568">
        <ele>17.6</ele>
        <time>2022-04-12T12:26:17Z</time>
      </trkpt>
      <trkpt lat="49.9803" lon="2.06569">
        <ele>17.6</ele>
        <time>2022-04-12T12:26:18Z</time>
      </trkpt>
      <trkpt lat="49.98029" lon="2.0657">
        <ele>17.6</ele>
        <time>2022-04-12T12:26:19Z</time>
      </trkpt>
      <trkpt lat="49.98029" lon="2.06572">
        <ele>17.5</ele>
        <time>2022-04-12T12:26:20Z</time>
      </trkpt>
      <trkpt lat="49.98029" lon="2.06574">
        <ele>17.5</ele>
        <time>2022-04-12T12:26:21Z</time>
      </trkpt>
      <trkpt lat="49.98028" lon="2.06577">
        <ele>17.5</ele>
        <time>2022-04-12T12:26:23Z</time>
      </trkpt>
      <trkpt lat="49.98028" lon="2.0658">
        <ele>17.5</ele>
        <time>2022-04-12T12:26:24Z</time>
      </trkpt>
      <trkpt lat="49.98028" lon="2.06581">
        <ele>17.5</ele>
        <time>2022-04-12T12:26:25Z</time>
      </trkpt>
      <trkpt lat="49.98029" lon="2.06584">
        <ele>17.5</ele>
        <time>2022-04-12T12:26:27Z</time>
      </trkpt>
      <trkpt lat="49.98031" lon="2.06585">
        <ele>17.5</ele>
        <time>2022-04-12T12:26:28Z</time>
      </trkpt>
      <trkpt lat="49.98032" lon="2.06586">
        <ele>17.5</ele>
        <time>2022-04-12T12:26:29Z</time>
      </trkpt>
      <trkpt lat="49.98035" lon="2.06586">
        <ele>17.5</ele>
        <time>2022-04-12T12:26:30Z</time>
      </trkpt>
      <trkpt lat="49.98036" lon="2.06586">
        <ele>17.5</ele>
        <time>2022-04-12T12:26:32Z</time>
      </trkpt>
      <trkpt lat="49.98037" lon="2.06585">
        <ele>17.4</ele>
        <time>2022-04-12T12:26:33Z</time>
      </trkpt>
      <trkpt lat="49.98038" lon="2.06585">
        <ele>17.4</ele>
        <time>2022-04-12T12:26:34Z</time>
      </trkpt>
      <trkpt lat="49.98039" lon="2.06585">
        <ele>17.4</ele>
        <time>2022-04-12T12:26:35Z</time>
      </trkpt>
      <trkpt lat="49.98041" lon="2.06585">
        <ele>17.4</ele>
        <time>2022-04-12T12:26:37Z</time>
      </trkpt>
      <trkpt lat="49.98042" lon="2.06585">
        <ele>17.4</ele>
        <time>2022-04-12T12:26:38Z</time>
      </trkpt>
      <trkpt lat="49.98042" lon="2.06584">
        <ele>17.4</ele>
        <time>2022-04-12T12:26:39Z</time>
      </trkpt>
      <trkpt lat="49.98043" lon="2.06584">
        <ele>17.4</ele>
        <time>2022-04-12T12:26:40Z</time>
      </trkpt>
      <trkpt lat="49.98043" lon="2.06584">
        <ele>17.4</ele>
        <time>2022-04-12T12:26:41Z</time>
      </trkpt>
      <trkpt lat="49.98044" lon="2.06584">
        <ele>17.4</ele>
        <time>2022-04-12T12:26:42Z</time>
      </trkpt>
      <trkpt lat="49.98045" lon="2.06584">
        <ele>17.4</ele>
        <time>2022-04-12T12:26:43Z</time>
      </trkpt>
      <trkpt lat="49.98045" lon="2.06584">
        <ele>17.4</ele>
        <time>2022-04-12T12:26:44Z</time>
      </trkpt>
      <trkpt lat="49.98046" lon="2.06584">
        <ele>17.4</ele>
        <time>2022-04-12T12:26:45Z</time>
      </trkpt>
      <trkpt lat="49.98047" lon="2.06584">
        <ele>17.4</ele>
        <time>2022-04-12T12:26:46Z</time>
      </trkpt>
      <trkpt lat="49.98048" lon="2.06585">
        <ele>17.4</ele>
        <time>2022-04-12T12:26:48Z</time>
      </trkpt>
      <trkpt lat="49.98049" lon="2.06585">
        <ele>17.4</ele>
        <time>2022-04-12T12:26:49Z</time>
      </trkpt>
      <trkpt lat="49.9805" lon="2.06586">
        <ele>17.4</ele>
        <time>2022-04-12T12:26:50Z</time>
      </trkpt>
      <trkpt lat="49.98051" lon="2.06587">
        <ele>17.4</ele>
        <time>2022-04-12T12:26:51Z</time>
      </trkpt>
      <trkpt lat="49.98052" lon="2.06587">
        <ele>17.4</ele>
        <time>2022-04-12T12:26:52Z</time>
      </trkpt>
      <trkpt lat="49.98053" lon="2.06588">
        <ele>17.4</ele>
        <time>2022-04-12T12:26:53Z</time>
      </trkpt>
      <trkpt lat="49.98054" lon="2.06589">
        <ele>17.4</ele>
        <time>2022-04-12T12:26:54Z</time>
      </trkpt>
      <trkpt lat="49.98055" lon="2.0659">
        <ele>17.4</ele>
        <time>2022-04-12T12:26:55Z</time>
      </trkpt>
      <trkpt lat="49.98056" lon="2.06591">
        <ele>17.4</ele>
        <time>2022-04-12T12:26:56Z</time>
      </trkpt>
      <trkpt lat="49.98057" lon="2.06591">
        <ele>17.4</ele>
        <time>2022-04-12T12:26:57Z</time>
      </trkpt>
      <trkpt lat="49.98057" lon="2.06592">
        <ele>17.4</ele>
        <time>2022-04-12T12:26:58Z</time>
      </trkpt>
      <trkpt lat="49.98058" lon="2.06593">
        <ele>17.4</ele>
        <time>2022-04-12T12:26:59Z</time>
      </trkpt>
      <trkpt lat="49.98058" lon="2.06594">
        <ele>17.4</ele>
        <time>2022-04-12T12:27:01Z</time>
      </trkpt>
      <trkpt lat="49.98059" lon="2.06596">
        <ele>17.4</ele>
        <time>2022-04-12T12:27:02Z</time>
      </trkpt>
      <trkpt lat="49.9806" lon="2.06597">
        <ele>17.4</ele>
        <time>2022-04-12T12:27:03Z</time>
      </trkpt>
      <trkpt lat="49.98061" lon="2.06599">
        <ele>17.4</ele>
        <time>2022-04-12T12:27:04Z</time>
      </trkpt>
      <trkpt lat="49.98063" lon="2.066">
        <ele>17.4</ele>
        <time>2022-04-12T12:27:06Z</time>
      </trkpt>
      <trkpt lat="49.98064" lon="2.06601">
        <ele>17.4</ele>
        <time>2022-04-12T12:27:07Z</time>
      </trkpt>
      <trkpt lat="49.98065" lon="2.06602">
        <ele>17.4</ele>
        <time>2022-04-12T12:27:08Z</time>
      </trkpt>
      <trkpt lat="49.98066" lon="2.06603">
        <ele>17.4</ele>
        <time>2022-04-12T12:27:09Z</time>
      </trkpt>
      <trkpt lat="49.98067" lon="2.06604">
        <ele>17.4</ele>
        <time>2022-04-12T12:27:10Z</time>
      </trkpt>
      <trkpt lat="49.98067" lon="2.06604">
        <ele>17.4</ele>
        <time>2022-04-12T12:27:11Z</time>
      </trkpt>
      <trkpt lat="49.98068" lon="2.06606">
        <ele>17.4</ele>
        <time>2022-04-12T12:27:13Z</time>
      </trkpt>
      <trkpt lat="49.98068" lon="2.06607">
        <ele>17.4</ele>
        <time>2022-04-12T12:27:14Z</time>
      </trkpt>
      <trkpt lat="49.98069" lon="2.06608">
        <ele>17.4</ele>
        <time>2022-04-12T12:27:15Z</time>
      </trkpt>
      <trkpt lat="49.98069" lon="2.06609">
        <ele>17.4</ele>
        <time>2022-04-12T12:27:16Z</time>
      </trkpt>
      <trkpt lat="49.9807" lon="2.06611">
        <ele>17.4</ele>
        <time>2022-04-12T12:27:18Z</time>
      </trkpt>
      <trkpt lat="49.9807" lon="2.06612">
        <ele>17.4</ele>
        <time>2022-04-12T12:27:19Z</time>
      </trkpt>
      <trkpt lat="49.98071" lon="2.06614">
        <ele>17.4</ele>
        <time>2022-04-12T12:27:20Z</time>
      </trkpt>
      <trkpt lat="49.98071" lon="2.06615">
        <ele>17.4</ele>
        <time>2022-04-12T12:27:22Z</time>
      </trkpt>
      <trkpt lat="49.98072" lon="2.06616">
        <ele>17.4</ele>
        <time>2022-04-12T12:27:23Z</time>
      </trkpt>
      <trkpt lat="49.98072" lon="2.06617">
        <ele>17.4</ele>
        <time>2022-04-12T12:27:24Z</time>
      </trkpt>
      <trkpt lat="49.98072" lon="2.06617">
        <ele>17.4</ele>
        <time>2022-04-12T12:27:25Z</time>
      </trkpt>
      <trkpt lat="49.98072" lon="2.06618">
        <ele>17.4</ele>
        <time>2022-04-12T12:27:26Z</time>
      </trkpt>
      <trkpt lat="49.98072" lon="2.06618">
        <ele>17.4</ele>
        <time>2022-04-12T12:27:27Z</time>
      </trkpt>
      <trkpt lat="49.98072" lon="2.06619">
        <ele>17.4</ele>
        <time>2022-04-12T12:27:28Z</time>
      </trkpt>
      <trkpt lat="49.98072" lon="2.06619">
        <ele>17.4</ele>
        <time>2022-04-12T12:27:29Z</time>
      </trkpt>
      <trkpt lat="49.98072" lon="2.0662">
        <ele>17.4</ele>
        <time>2022-04-12T12:27:30Z</time>
      </trkpt>
      <trkpt lat="49.98072" lon="2.0662">
        <ele>17.4</ele>
        <time>2022-04-12T12:27:31Z</time>
      </trkpt>
      <trkpt lat="49.98072" lon="2.06621">
        <ele>17.4</ele>
        <time>2022-04-12T12:27:32Z</time>
      </trkpt>
      <trkpt lat="49.98072" lon="2.06621">
        <ele>17.4</ele>
        <time>2022-04-12T12:27:34Z</time>
      </trkpt>
      <trkpt lat="49.98072" lon="2.06622">
        <ele>17.4</ele>
        <time>2022-04-12T12:27:35Z</time>
      </trkpt>
      <trkpt lat="49.98072" lon="2.06623">
        <ele>17.4</ele>
        <time>2022-04-12T12:27:36Z</time>
      </trkpt>
      <trkpt lat="49.98072" lon="2.06624">
        <ele>17.4</ele>
        <time>2022-04-12T12:27:37Z</time>
      </trkpt>
      <trkpt lat="49.98072" lon="2.06625">
        <ele>17.4</ele>
        <time>2022-04-12T12:27:38Z</time>
      </trkpt>
      <trkpt lat="49.98072" lon="2.06626">
        <ele>17.4</ele>
        <time>2022-04-12T12:27:39Z</time>
      </trkpt>
      <trkpt lat="49.98072" lon="2.06627">
        <ele>17.4</ele>
        <time>2022-04-12T12:27:40Z</time>
      </trkpt>
      <trkpt lat="49.98073" lon="2.06629">
        <ele>17.4</ele>
        <time>2022-04-12T12:27:41Z</time>
      </trkpt>
      <trkpt lat="49.98073" lon="2.06631">
        <ele>17.5</ele>
        <time>2022-04-12T12:27:43Z</time>
      </trkpt>
      <trkpt lat="49.98074" lon="2.06632">
        <ele>17.5</ele>
        <time>2022-04-12T12:27:44Z</time>
      </trkpt>
      <trkpt lat="49.98074" lon="2.06634">
        <ele>17.5</ele>
        <time>2022-04-12T12:27:45Z</time>
      </trkpt>
      <trkpt lat="49.98075" lon="2.06636">
        <ele>17.5</ele>
        <time>2022-04-12T12:27:47Z</time>
      </trkpt>
      <trkpt lat="49.98076" lon="2.06637">
        <ele>17.5</ele>
        <time>2022-04-12T12:27:48Z</time>
      </trkpt>
      <trkpt lat="49.98076" lon="2.06637">
        <ele>17.5</ele>
        <time>2022-04-12T12:27:49Z</time>
      </trkpt>
      <trkpt lat="49.98076" lon="2.06637">
        <ele>17.5</ele>
        <time>2022-04-12T12:27:50Z</time>
      </trkpt>
      <trkpt lat="49.98077" lon="2.06638">
        <ele>17.5</ele>
        <time>2022-04-12T12:27:51Z</time>
      </trkpt>
      <trkpt lat="49.98077" lon="2.06638">
        <ele>17.5</ele>
        <time>2022-04-12T12:27:52Z</time>
      </trkpt>
      <trkpt lat="49.98077" lon="2.06639">
        <ele>17.5</ele>
        <time>2022-04-12T12:27:54Z</time>
      </trkpt>
      <trkpt lat="49.98078" lon="2.0664">
        <ele>17.5</ele>
        <time>2022-04-12T12:27:55Z</time>
      </trkpt>
      <trkpt lat="49.98078" lon="2.06641">
        <ele>17.5</ele>
        <time>2022-04-12T12:27:57Z</time>
      </trkpt>
      <trkpt lat="49.98078" lon="2.06642">
        <ele>17.5</ele>
        <time>2022-04-12T12:27:58Z</time>
      </trkpt>
      <trkpt lat="49.98079" lon="2.06643">
        <ele>17.5</ele>
        <time>2022-04-12T12:27:59Z</time>
      </trkpt>
      <trkpt lat="49.98079" lon="2.06644">
        <ele>17.5</ele>
        <time>2022-04-12T12:28:00Z</time>
      </trkpt>
      <trkpt lat="49.98079" lon="2.06645">
        <ele>17.6</ele>
        <time>2022-04-12T12:28:01Z</time>
      </trkpt>
      <trkpt lat="49.9808" lon="2.06646">
        <ele>17.6</ele>
        <time>2022-04-12T12:28:02Z</time>
      </trkpt>
      <trkpt lat="49.9808" lon="2.06647">
        <ele>17.6</ele>
        <time>2022-04-12T12:28:03Z</time>
      </trkpt>
      <trkpt lat="49.98081" lon="2.06648">
        <ele>17.6</ele>
        <time>2022-04-12T12:28:04Z</time>
      </trkpt>
      <trkpt lat="49.98081" lon="2.06649">
        <ele>17.6</ele>
        <time>2022-04-12T12:28:05Z</time>
      </trkpt>
      <trkpt lat="49.98082" lon="2.06651">
        <ele>17.6</ele>
        <time>2022-04-12T12:28:06Z</time>
      </trkpt>
      <trkpt lat="49.98083" lon="2.06652">
        <ele>17.6</ele>
        <time>2022-04-12T12:28:07Z</time>
      </trkpt>
      <trkpt lat="49.98084" lon="2.06654">
        <ele>17.6</ele>
        <time>2022-04-12T12:28:09Z</time>
      </trkpt>
      <trkpt lat="49.98084" lon="2.06655">
        <ele>17.7</ele>
        <time>2022-04-12T12:28:10Z</time>
      </trkpt>
      <trkpt lat="49.98085" lon="2.06656">
        <ele>17.7</ele>
        <time>2022-04-12T12:28:11Z</time>
      </trkpt>
      <trkpt lat="49.98085" lon="2.06657">
        <ele>17.7</ele>
        <time>2022-04-12T12:28:12Z</time>
      </trkpt>
      <trkpt lat="49.98086" lon="2.06657">
        <ele>17.7</ele>
        <time>2022-04-12T12:28:13Z</time>
      </trkpt>
      <trkpt lat="49.98086" lon="2.06658">
        <ele>17.7</ele>
        <time>2022-04-12T12:28:14Z</time>
      </trkpt>
      <trkpt lat="49.98087" lon="2.06659">
        <ele>17.7</ele>
        <time>2022-04-12T12:28:15Z</time>
      </trkpt>
      <trkpt lat="49.98087" lon="2.06661">
        <ele>17.7</ele>
        <time>2022-04-12T12:28:17Z</time>
      </trkpt>
      <trkpt lat="49.98088" lon="2.06661">
        <ele>17.7</ele>
        <time>2022-04-12T12:28:18Z</time>
      </trkpt>
      <trkpt lat="49.98088" lon="2.06662">
        <ele>17.7</ele>
        <time>2022-04-12T12:28:19Z</time>
      </trkpt>
      <trkpt lat="49.98088" lon="2.06663">
        <ele>17.7</ele>
        <time>2022-04-12T12:28:20Z</time>
      </trkpt>
      <trkpt lat="49.98088" lon="2.06664">
        <ele>17.7</ele>
        <time>2022-04-12T12:28:21Z</time>
      </trkpt>
      <trkpt lat="49.98089" lon="2.06665">
        <ele>17.8</ele>
        <time>2022-04-12T12:28:23Z</time>
      </trkpt>
      <trkpt lat="49.9809" lon="2.06666">
        <ele>17.8</ele>
        <time>2022-04-12T12:28:24Z</time>
      </trkpt>
      <trkpt lat="49.9809" lon="2.06666">
        <ele>17.8</ele>
        <time>2022-04-12T12:28:25Z</time>
      </trkpt>
      <trkpt lat="49.9809" lon="2.06667">
        <ele>17.8</ele>
        <time>2022-04-12T12:28:26Z</time>
      </trkpt>
      <trkpt lat="49.98091" lon="2.06668">
        <ele>17.8</ele>
        <time>2022-04-12T12:28:27Z</time>
      </trkpt>
      <trkpt lat="49.98091" lon="2.06669">
        <ele>17.8</ele>
        <time>2022-04-12T12:28:28Z</time>
      </trkpt>
      <trkpt lat="49.98092" lon="2.06671">
        <ele>17.8</ele>
        <time>2022-04-12T12:28:29Z</time>
      </trkpt>
      <trkpt lat="49.98092" lon="2.06672">
        <ele>17.8</ele>
        <time>2022-04-12T12:28:30Z</time>
      </trkpt>
      <trkpt lat="49.98092" lon="2.06673">
        <ele>17.8</ele>
        <time>2022-04-12T12:28:31Z</time>
      </trkpt>
      <trkpt lat="49.98093" lon="2.06674">
        <ele>17.8</ele>
        <time>2022-04-12T12:28:32Z</time>
      </trkpt>
      <trkpt lat="49.98093" lon="2.06675">
        <ele>17.8</ele>
        <time>2022-04-12T12:28:33Z</time>
      </trkpt>
      <trkpt lat="49.98094" lon="2.06676">
        <ele>17.9</ele>
        <time>2022-04-12T12:28:34Z</time>
      </trkpt>
      <trkpt lat="49.98095" lon="2.06677">
        <ele>17.9</ele>
        <time>2022-04-12T12:28:35Z</time>
      </trkpt>
      <trkpt lat="49.98095" lon="2.06678">
        <ele>17.9</ele>
        <time>2022-04-12T12:28:36Z</time>
      </trkpt>
      <trkpt lat="49.98096" lon="2.06679">
        <ele>17.9</ele>
        <time>2022-04-12T12:28:38Z</time>
      </trkpt>
      <trkpt lat="49.98096" lon="2.06679">
        <ele>17.9</ele>
        <time>2022-04-12T12:28:39Z</time>
      </trkpt>
      <trkpt lat="49.98096" lon="2.06679">
        <ele>17.9</ele>
        <time>2022-04-12T12:28:40Z</time>
      </trkpt>
      <trkpt lat="49.98096" lon="2.06679">
        <ele>17.9</ele>
        <time>2022-04-12T12:28:41Z</time>
      </trkpt>
      <trkpt lat="49.98096" lon="2.06679">
        <ele>17.9</ele>
        <time>2022-04-12T12:28:42Z</time>
      </trkpt>
      <trkpt lat="49.98096" lon="2.06679">
        <ele>17.9</ele>
        <time>2022-04-12T12:28:43Z</time>
      </trkpt>
      <trkpt lat="49.98096" lon="2.06679">
        <ele>17.9</ele>
        <time>2022-04-12T12:28:44Z</time>
      </trkpt>
      <trkpt lat="49.98095" lon="2.06679">
        <ele>17.9</ele>
        <time>2022-04-12T12:28:45Z</time>
      </trkpt>
      <trkpt lat="49.98095" lon="2.06679">
        <ele>17.9</ele>
        <time>2022-04-12T12:28:46Z</time>
      </trkpt>
      <trkpt lat="49.98095" lon="2.06679">
        <ele>17.9</ele>
        <time>2022-04-12T12:28:48Z</time>
      </trkpt>
      <trkpt lat="49.98095" lon="2.06679">
        <ele>17.9</ele>
        <time>2022-04-12T12:28:49Z</time>
      </trkpt>
      <trkpt lat="49.98095" lon="2.06679">
        <ele>17.9</ele>
        <time>2022-04-12T12:28:50Z</time>
      </trkpt>
      <trkpt lat="49.98095" lon="2.06679">
        <ele>17.9</ele>
        <time>2022-04-12T12:28:51Z</time>
      </trkpt>
      <trkpt lat="49.98095" lon="2.06678">
        <ele>17.9</ele>
        <time>2022-04-12T12:28:52Z</time>
      </trkpt>
      <trkpt lat="49.98096" lon="2.06678">
        <ele>17.9</ele>
        <time>2022-04-12T12:28:53Z</time>
      </trkpt>
      <trkpt lat="49.98097" lon="2.06677">
        <ele>17.9</ele>
        <time>2022-04-12T12:28:55Z</time>
      </trkpt>
      <trkpt lat="49.98098" lon="2.06677">
        <ele>17.9</ele>
        <time>2022-04-12T12:28:56Z</time>
      </trkpt>
      <trkpt lat="49.98098" lon="2.06676">
        <ele>18</ele>
        <time>2022-04-12T12:28:57Z</time>
      </trkpt>
      <trkpt lat="49.98099" lon="2.06677">
        <ele>18</ele>
        <time>2022-04-12T12:28:58Z</time>
      </trkpt>
      <trkpt lat="49.98099" lon="2.06677">
        <ele>18</ele>
        <time>2022-04-12T12:28:59Z</time>
      </trkpt>
      <trkpt lat="49.98099" lon="2.06677">
        <ele>18</ele>
        <time>2022-04-12T12:29:00Z</time>
      </trkpt>
      <trkpt lat="49.98099" lon="2.06677">
        <ele>18</ele>
        <time>2022-04-12T12:29:01Z</time>
      </trkpt>
      <trkpt lat="49.98099" lon="2.06677">
        <ele>18</ele>
        <time>2022-04-12T12:29:02Z</time>
      </trkpt>
      <trkpt lat="49.98099" lon="2.06677">
        <ele>18</ele>
        <time>2022-04-12T12:29:03Z</time>
      </trkpt>
      <trkpt lat="49.98099" lon="2.06677">
        <ele>18</ele>
        <time>2022-04-12T12:29:04Z</time>
      </trkpt>
      <trkpt lat="49.98099" lon="2.06677">
        <ele>18</ele>
        <time>2022-04-12T12:29:05Z</time>
      </trkpt>
      <trkpt lat="49.98099" lon="2.06677">
        <ele>18</ele>
        <time>2022-04-12T12:29:06Z</time>
      </trkpt>
      <trkpt lat="49.98099" lon="2.06677">
        <ele>18</ele>
        <time>2022-04-12T12:29:07Z</time>
      </trkpt>
      <trkpt lat="49.98099" lon="2.06677">
        <ele>18</ele>
        <time>2022-04-12T12:29:08Z</time>
      </trkpt>
      <trkpt lat="49.98099" lon="2.06677">
        <ele>18</ele>
        <time>2022-04-12T12:29:09Z</time>
      </trkpt>
      <trkpt lat="49.98099" lon="2.06677">
        <ele>18</ele>
        <time>2022-04-12T12:29:10Z</time>
      </trkpt>
      <trkpt lat="49.98099" lon="2.06677">
        <ele>18</ele>
        <time>2022-04-12T12:29:11Z</time>
      </trkpt>
      <trkpt lat="49.98099" lon="2.06678">
        <ele>18</ele>
        <time>2022-04-12T12:29:12Z</time>
      </trkpt>
      <trkpt lat="49.981" lon="2.06678">
        <ele>18</ele>
        <time>2022-04-12T12:29:13Z</time>
      </trkpt>
      <trkpt lat="49.981" lon="2.06679">
        <ele>18</ele>
        <time>2022-04-12T12:29:15Z</time>
      </trkpt>
      <trkpt lat="49.981" lon="2.06679">
        <ele>18</ele>
        <time>2022-04-12T12:29:16Z</time>
      </trkpt>
      <trkpt lat="49.981" lon="2.06679">
        <ele>18</ele>
        <time>2022-04-12T12:29:17Z</time>
      </trkpt>
      <trkpt lat="49.98101" lon="2.06679">
        <ele>18</ele>
        <time>2022-04-12T12:29:18Z</time>
      </trkpt>
      <trkpt lat="49.98101" lon="2.06679">
        <ele>18</ele>
        <time>2022-04-12T12:29:19Z</time>
      </trkpt>
      <trkpt lat="49.98101" lon="2.0668">
        <ele>18</ele>
        <time>2022-04-12T12:29:20Z</time>
      </trkpt>
      <trkpt lat="49.98101" lon="2.06681">
        <ele>18</ele>
        <time>2022-04-12T12:29:21Z</time>
      </trkpt>
      <trkpt lat="49.98102" lon="2.06682">
        <ele>18</ele>
        <time>2022-04-12T12:29:23Z</time>
      </trkpt>
      <trkpt lat="49.98102" lon="2.06683">
        <ele>18</ele>
        <time>2022-04-12T12:29:24Z</time>
      </trkpt>
      <trkpt lat="49.98102" lon="2.06684">
        <ele>18</ele>
        <time>2022-04-12T12:29:25Z</time>
      </trkpt>
      <trkpt lat="49.98102" lon="2.06685">
        <ele>18.1</ele>
        <time>2022-04-12T12:29:26Z</time>
      </trkpt>
      <trkpt lat="49.98103" lon="2.06686">
        <ele>18.1</ele>
        <time>2022-04-12T12:29:27Z</time>
      </trkpt>
      <trkpt lat="49.98103" lon="2.06687">
        <ele>18.1</ele>
        <time>2022-04-12T12:29:28Z</time>
      </trkpt>
      <trkpt lat="49.98103" lon="2.06688">
        <ele>18.1</ele>
        <time>2022-04-12T12:29:29Z</time>
      </trkpt>
      <trkpt lat="49.98104" lon="2.06691">
        <ele>18.1</ele>
        <time>2022-04-12T12:29:30Z</time>
      </trkpt>
      <trkpt lat="49.98104" lon="2.06693">
        <ele>18.1</ele>
        <time>2022-04-12T12:29:32Z</time>
      </trkpt>
      <trkpt lat="49.98104" lon="2.06694">
        <ele>18.2</ele>
        <time>2022-04-12T12:29:33Z</time>
      </trkpt>
      <trkpt lat="49.98105" lon="2.06695">
        <ele>18.2</ele>
        <time>2022-04-12T12:29:34Z</time>
      </trkpt>
      <trkpt lat="49.98105" lon="2.06696">
        <ele>18.2</ele>
        <time>2022-04-12T12:29:35Z</time>
      </trkpt>
      <trkpt lat="49.98105" lon="2.06697">
        <ele>18.2</ele>
        <time>2022-04-12T12:29:36Z</time>
      </trkpt>
      <trkpt lat="49.98105" lon="2.06698">
        <ele>18.2</ele>
        <time>2022-04-12T12:29:37Z</time>
      </trkpt>
      <trkpt lat="49.98105" lon="2.06699">
        <ele>18.2</ele>
        <time>2022-04-12T12:29:38Z</time>
      </trkpt>
      <trkpt lat="49.98105" lon="2.067">
        <ele>18.2</ele>
        <time>2022-04-12T12:29:39Z</time>
      </trkpt>
      <trkpt lat="49.98105" lon="2.067">
        <ele>18.2</ele>
        <time>2022-04-12T12:29:41Z</time>
      </trkpt>
      <trkpt lat="49.98105" lon="2.06701">
        <ele>18.2</ele>
        <time>2022-04-12T12:29:42Z</time>
      </trkpt>
      <trkpt lat="49.98105" lon="2.06702">
        <ele>18.2</ele>
        <time>2022-04-12T12:29:43Z</time>
      </trkpt>
      <trkpt lat="49.98105" lon="2.06703">
        <ele>18.3</ele>
        <time>2022-04-12T12:29:44Z</time>
      </trkpt>
      <trkpt lat="49.98106" lon="2.06704">
        <ele>18.3</ele>
        <time>2022-04-12T12:29:45Z</time>
      </trkpt>
      <trkpt lat="49.98106" lon="2.06706">
        <ele>18.3</ele>
        <time>2022-04-12T12:29:47Z</time>
      </trkpt>
      <trkpt lat="49.98106" lon="2.06708">
        <ele>18.3</ele>
        <time>2022-04-12T12:29:48Z</time>
      </trkpt>
      <trkpt lat="49.98107" lon="2.06709">
        <ele>18.3</ele>
        <time>2022-04-12T12:29:49Z</time>
      </trkpt>
      <trkpt lat="49.98107" lon="2.06711">
        <ele>18.4</ele>
        <time>2022-04-12T12:29:50Z</time>
      </trkpt>
      <trkpt lat="49.98107" lon="2.06713">
        <ele>18.4</ele>
        <time>2022-04-12T12:29:51Z</time>
      </trkpt>
      <trkpt lat="49.98108" lon="2.06714">
        <ele>18.4</ele>
        <time>2022-04-12T12:29:53Z</time>
      </trkpt>
      <trkpt lat="49.98108" lon="2.06716">
        <ele>18.4</ele>
        <time>2022-04-12T12:29:54Z</time>
      </trkpt>
      <trkpt lat="49.98108" lon="2.06718">
        <ele>18.4</ele>
        <time>2022-04-12T12:29:55Z</time>
      </trkpt>
      <trkpt lat="49.98109" lon="2.06719">
        <ele>18.4</ele>
        <time>2022-04-12T12:29:56Z</time>
      </trkpt>
      <trkpt lat="49.98109" lon="2.06721">
        <ele>18.5</ele>
        <time>2022-04-12T12:29:57Z</time>
      </trkpt>
      <trkpt lat="49.98109" lon="2.06722">
        <ele>18.5</ele>
        <time>2022-04-12T12:29:59Z</time>
      </trkpt>
      <trkpt lat="49.9811" lon="2.06724">
        <ele>18.5</ele>
        <time>2022-04-12T12:30:00Z</time>
      </trkpt>
      <trkpt lat="49.9811" lon="2.06725">
        <ele>18.5</ele>
        <time>2022-04-12T12:30:01Z</time>
      </trkpt>
      <trkpt lat="49.98111" lon="2.06726">
        <ele>18.5</ele>
        <time>2022-04-12T12:30:02Z</time>
      </trkpt>
      <trkpt lat="49.98111" lon="2.06729">
        <ele>18.5</ele>
        <time>2022-04-12T12:30:03Z</time>
      </trkpt>
      <trkpt lat="49.98112" lon="2.0673">
        <ele>18.6</ele>
        <time>2022-04-12T12:30:04Z</time>
      </trkpt>
      <trkpt lat="49.98113" lon="2.06732">
        <ele>18.6</ele>
        <time>2022-04-12T12:30:06Z</time>
      </trkpt>
      <trkpt lat="49.98113" lon="2.06734">
        <ele>18.6</ele>
        <time>2022-04-12T12:30:07Z</time>
      </trkpt>
      <trkpt lat="49.98114" lon="2.06735">
        <ele>18.6</ele>
        <time>2022-04-12T12:30:08Z</time>
      </trkpt>
      <trkpt lat="49.98114" lon="2.06737">
        <ele>18.6</ele>
        <time>2022-04-12T12:30:09Z</time>
      </trkpt>
      <trkpt lat="49.98115" lon="2.06739">
        <ele>18.6</ele>
        <time>2022-04-12T12:30:10Z</time>
      </trkpt>
      <trkpt lat="49.98115" lon="2.0674">
        <ele>18.6</ele>
        <time>2022-04-12T12:30:12Z</time>
      </trkpt>
      <trkpt lat="49.98116" lon="2.06742">
        <ele>18.6</ele>
        <time>2022-04-12T12:30:13Z</time>
      </trkpt>
      <trkpt lat="49.98117" lon="2.06743">
        <ele>18.6</ele>
        <time>2022-04-12T12:30:14Z</time>
      </trkpt>
      <trkpt lat="49.98117" lon="2.06744">
        <ele>18.6</ele>
        <time>2022-04-12T12:30:15Z</time>
      </trkpt>
      <trkpt lat="49.98118" lon="2.06744">
        <ele>18.6</ele>
        <time>2022-04-12T12:30:16Z</time>
      </trkpt>
      <trkpt lat="49.98118" lon="2.06744">
        <ele>18.6</ele>
        <time>2022-04-12T12:30:17Z</time>
      </trkpt>
      <trkpt lat="49.98118" lon="2.06744">
        <ele>18.6</ele>
        <time>2022-04-12T12:30:18Z</time>
      </trkpt>
      <trkpt lat="49.98118" lon="2.06744">
        <ele>18.6</ele>
        <time>2022-04-12T12:30:19Z</time>
      </trkpt>
      <trkpt lat="49.98118" lon="2.06744">
        <ele>18.6</ele>
        <time>2022-04-12T12:30:20Z</time>
      </trkpt>
      <trkpt lat="49.98118" lon="2.06745">
        <ele>18.6</ele>
        <time>2022-04-12T12:30:21Z</time>
      </trkpt>
      <trkpt lat="49.98118" lon="2.06745">
        <ele>18.6</ele>
        <time>2022-04-12T12:30:22Z</time>
      </trkpt>
      <trkpt lat="49.98118" lon="2.06745">
        <ele>18.6</ele>
        <time>2022-04-12T12:30:23Z</time>
      </trkpt>
      <trkpt lat="49.98118" lon="2.06746">
        <ele>18.6</ele>
        <time>2022-04-12T12:30:24Z</time>
      </trkpt>
      <trkpt lat="49.98118" lon="2.06746">
        <ele>18.6</ele>
        <time>2022-04-12T12:30:25Z</time>
      </trkpt>
      <trkpt lat="49.98119" lon="2.06748">
        <ele>18.6</ele>
        <time>2022-04-12T12:30:26Z</time>
      </trkpt>
      <trkpt lat="49.98119" lon="2.06749">
        <ele>18.6</ele>
        <time>2022-04-12T12:30:27Z</time>
      </trkpt>
      <trkpt lat="49.9812" lon="2.0675">
        <ele>18.6</ele>
        <time>2022-04-12T12:30:29Z</time>
      </trkpt>
      <trkpt lat="49.9812" lon="2.06752">
        <ele>18.6</ele>
        <time>2022-04-12T12:30:30Z</time>
      </trkpt>
      <trkpt lat="49.98121" lon="2.06753">
        <ele>18.6</ele>
        <time>2022-04-12T12:30:31Z</time>
      </trkpt>
      <trkpt lat="49.98121" lon="2.06755">
        <ele>18.6</ele>
        <time>2022-04-12T12:30:32Z</time>
      </trkpt>
      <trkpt lat="49.98122" lon="2.06757">
        <ele>18.6</ele>
        <time>2022-04-12T12:30:33Z</time>
      </trkpt>
      <trkpt lat="49.98123" lon="2.06759">
        <ele>18.6</ele>
        <time>2022-04-12T12:30:34Z</time>
      </trkpt>
      <trkpt lat="49.98124" lon="2.06761">
        <ele>18.6</ele>
        <time>2022-04-12T12:30:36Z</time>
      </trkpt>
      <trkpt lat="49.98124" lon="2.06763">
        <ele>18.6</ele>
        <time>2022-04-12T12:30:37Z</time>
      </trkpt>
      <trkpt lat="49.98125" lon="2.06765">
        <ele>18.6</ele>
        <time>2022-04-12T12:30:38Z</time>
      </trkpt>
      <trkpt lat="49.98126" lon="2.06767">
        <ele>18.6</ele>
        <time>2022-04-12T12:30:39Z</time>
      </trkpt>
      <trkpt lat="49.98127" lon="2.0677">
        <ele>18.5</ele>
        <time>2022-04-12T12:30:40Z</time>
      </trkpt>
      <trkpt lat="49.98127" lon="2.06771">
        <ele>18.5</ele>
        <time>2022-04-12T12:30:41Z</time>
      </trkpt>
      <trkpt lat="49.98127" lon="2.06772">
        <ele>18.5</ele>
        <time>2022-04-12T12:30:42Z</time>
      </trkpt>
      <trkpt lat="49.98128" lon="2.06775">
        <ele>18.5</ele>
        <time>2022-04-12T12:30:44Z</time>
      </trkpt>
      <trkpt lat="49.98129" lon="2.06776">
        <ele>18.5</ele>
        <time>2022-04-12T12:30:45Z</time>
      </trkpt>
      <trkpt lat="49.98129" lon="2.06777">
        <ele>18.4</ele>
        <time>2022-04-12T12:30:46Z</time>
      </trkpt>
      <trkpt lat="49.9813" lon="2.06779">
        <ele>18.4</ele>
        <time>2022-04-12T12:30:47Z</time>
      </trkpt>
      <trkpt lat="49.9813" lon="2.0678">
        <ele>18.4</ele>
        <time>2022-04-12T12:30:48Z</time>
      </trkpt>
      <trkpt lat="49.98131" lon="2.06781">
        <ele>18.4</ele>
        <time>2022-04-12T12:30:49Z</time>
      </trkpt>
      <trkpt lat="49.98132" lon="2.06783">
        <ele>18.4</ele>
        <time>2022-04-12T12:30:50Z</time>
      </trkpt>
      <trkpt lat="49.98132" lon="2.06785">
        <ele>18.3</ele>
        <time>2022-04-12T12:30:51Z</time>
      </trkpt>
      <trkpt lat="49.98133" lon="2.06787">
        <ele>18.3</ele>
        <time>2022-04-12T12:30:53Z</time>
      </trkpt>
      <trkpt lat="49.98133" lon="2.06788">
        <ele>18.3</ele>
        <time>2022-04-12T12:30:54Z</time>
      </trkpt>
      <trkpt lat="49.98134" lon="2.0679">
        <ele>18.3</ele>
        <time>2022-04-12T12:30:55Z</time>
      </trkpt>
      <trkpt lat="49.98135" lon="2.06792">
        <ele>18.2</ele>
        <time>2022-04-12T12:30:56Z</time>
      </trkpt>
      <trkpt lat="49.98135" lon="2.06793">
        <ele>18.2</ele>
        <time>2022-04-12T12:30:57Z</time>
      </trkpt>
      <trkpt lat="49.98136" lon="2.06794">
        <ele>18.2</ele>
        <time>2022-04-12T12:30:58Z</time>
      </trkpt>
      <trkpt lat="49.98136" lon="2.06795">
        <ele>18.1</ele>
        <time>2022-04-12T12:30:59Z</time>
      </trkpt>
      <trkpt lat="49.98137" lon="2.06797">
        <ele>18.1</ele>
        <time>2022-04-12T12:31:00Z</time>
      </trkpt>
      <trkpt lat="49.98138" lon="2.06798">
        <ele>18.1</ele>
        <time>2022-04-12T12:31:01Z</time>
      </trkpt>
      <trkpt lat="49.98139" lon="2.068">
        <ele>18</ele>
        <time>2022-04-12T12:31:03Z</time>
      </trkpt>
      <trkpt lat="49.9814" lon="2.06802">
        <ele>17.9</ele>
        <time>2022-04-12T12:31:04Z</time>
      </trkpt>
      <trkpt lat="49.98141" lon="2.06803">
        <ele>17.9</ele>
        <time>2022-04-12T12:31:05Z</time>
      </trkpt>
      <trkpt lat="49.98141" lon="2.06805">
        <ele>17.8</ele>
        <time>2022-04-12T12:31:06Z</time>
      </trkpt>
      <trkpt lat="49.98142" lon="2.06806">
        <ele>17.8</ele>
        <time>2022-04-12T12:31:07Z</time>
      </trkpt>
      <trkpt lat="49.98142" lon="2.06807">
        <ele>17.8</ele>
        <time>2022-04-12T12:31:08Z</time>
      </trkpt>
      <trkpt lat="49.98143" lon="2.06808">
        <ele>17.7</ele>
        <time>2022-04-12T12:31:09Z</time>
      </trkpt>
      <trkpt lat="49.98143" lon="2.0681">
        <ele>17.7</ele>
        <time>2022-04-12T12:31:10Z</time>
      </trkpt>
      <trkpt lat="49.98144" lon="2.06813">
        <ele>17.6</ele>
        <time>2022-04-12T12:31:12Z</time>
      </trkpt>
      <trkpt lat="49.98145" lon="2.06814">
        <ele>17.6</ele>
        <time>2022-04-12T12:31:13Z</time>
      </trkpt>
      <trkpt lat="49.98145" lon="2.06815">
        <ele>17.5</ele>
        <time>2022-04-12T12:31:14Z</time>
      </trkpt>
      <trkpt lat="49.98146" lon="2.06816">
        <ele>17.5</ele>
        <time>2022-04-12T12:31:15Z</time>
      </trkpt>
      <trkpt lat="49.98146" lon="2.06817">
        <ele>17.5</ele>
        <time>2022-04-12T12:31:16Z</time>
      </trkpt>
      <trkpt lat="49.98147" lon="2.06819">
        <ele>17.4</ele>
        <time>2022-04-12T12:31:17Z</time>
      </trkpt>
      <trkpt lat="49.98147" lon="2.0682">
        <ele>17.4</ele>
        <time>2022-04-12T12:31:18Z</time>
      </trkpt>
      <trkpt lat="49.98148" lon="2.06822">
        <ele>17.3</ele>
        <time>2022-04-12T12:31:20Z</time>
      </trkpt>
      <trkpt lat="49.98149" lon="2.06825">
        <ele>17.2</ele>
        <time>2022-04-12T12:31:22Z</time>
      </trkpt>
      <trkpt lat="49.98149" lon="2.06827">
        <ele>17.2</ele>
        <time>2022-04-12T12:31:23Z</time>
      </trkpt>
      <trkpt lat="49.98149" lon="2.06828">
        <ele>17.1</ele>
        <time>2022-04-12T12:31:24Z</time>
      </trkpt>
      <trkpt lat="49.9815" lon="2.0683">
        <ele>17.1</ele>
        <time>2022-04-12T12:31:25Z</time>
      </trkpt>
      <trkpt lat="49.9815" lon="2.06832">
        <ele>17</ele>
        <time>2022-04-12T12:31:26Z</time>
      </trkpt>
      <trkpt lat="49.98151" lon="2.06834">
        <ele>17</ele>
        <time>2022-04-12T12:31:28Z</time>
      </trkpt>
      <trkpt lat="49.98151" lon="2.06836">
        <ele>16.9</ele>
        <time>2022-04-12T12:31:29Z</time>
      </trkpt>
      <trkpt lat="49.98152" lon="2.06837">
        <ele>16.9</ele>
        <time>2022-04-12T12:31:30Z</time>
      </trkpt>
      <trkpt lat="49.98152" lon="2.06839">
        <ele>16.8</ele>
        <time>2022-04-12T12:31:31Z</time>
      </trkpt>
      <trkpt lat="49.98153" lon="2.0684">
        <ele>16.8</ele>
        <time>2022-04-12T12:31:32Z</time>
      </trkpt>
      <trkpt lat="49.98153" lon="2.06842">
        <ele>16.7</ele>
        <time>2022-04-12T12:31:33Z</time>
      </trkpt>
      <trkpt lat="49.98154" lon="2.06844">
        <ele>16.7</ele>
        <time>2022-04-12T12:31:34Z</time>
      </trkpt>
      <trkpt lat="49.98154" lon="2.06845">
        <ele>16.6</ele>
        <time>2022-04-12T12:31:36Z</time>
      </trkpt>
      <trkpt lat="49.98155" lon="2.06846">
        <ele>16.6</ele>
        <time>2022-04-12T12:31:37Z</time>
      </trkpt>
      <trkpt lat="49.98156" lon="2.06848">
        <ele>16.5</ele>
        <time>2022-04-12T12:31:38Z</time>
      </trkpt>
      <trkpt lat="49.98156" lon="2.0685">
        <ele>16.5</ele>
        <time>2022-04-12T12:31:39Z</time>
      </trkpt>
      <trkpt lat="49.98157" lon="2.06851">
        <ele>16.4</ele>
        <time>2022-04-12T12:31:40Z</time>
      </trkpt>
      <trkpt lat="49.98158" lon="2.06852">
        <ele>16.4</ele>
        <time>2022-04-12T12:31:41Z</time>
      </trkpt>
      <trkpt lat="49.98158" lon="2.06854">
        <ele>16.3</ele>
        <time>2022-04-12T12:31:42Z</time>
      </trkpt>
      <trkpt lat="49.98159" lon="2.06855">
        <ele>16.3</ele>
        <time>2022-04-12T12:31:43Z</time>
      </trkpt>
      <trkpt lat="49.9816" lon="2.06857">
        <ele>16.2</ele>
        <time>2022-04-12T12:31:44Z</time>
      </trkpt>
      <trkpt lat="49.9816" lon="2.06858">
        <ele>16.2</ele>
        <time>2022-04-12T12:31:46Z</time>
      </trkpt>
      <trkpt lat="49.98161" lon="2.06859">
        <ele>16.1</ele>
        <time>2022-04-12T12:31:47Z</time>
      </trkpt>
      <trkpt lat="49.98162" lon="2.06861">
        <ele>16.1</ele>
        <time>2022-04-12T12:31:48Z</time>
      </trkpt>
      <trkpt lat="49.98163" lon="2.06863">
        <ele>16</ele>
        <time>2022-04-12T12:31:50Z</time>
      </trkpt>
      <trkpt lat="49.98164" lon="2.06864">
        <ele>15.9</ele>
        <time>2022-04-12T12:31:51Z</time>
      </trkpt>
      <trkpt lat="49.98164" lon="2.06865">
        <ele>15.9</ele>
        <time>2022-04-12T12:31:52Z</time>
      </trkpt>
      <trkpt lat="49.98165" lon="2.06866">
        <ele>15.9</ele>
        <time>2022-04-12T12:31:53Z</time>
      </trkpt>
      <trkpt lat="49.98166" lon="2.06867">
        <ele>15.8</ele>
        <time>2022-04-12T12:31:54Z</time>
      </trkpt>
      <trkpt lat="49.98166" lon="2.06868">
        <ele>15.8</ele>
        <time>2022-04-12T12:31:55Z</time>
      </trkpt>
      <trkpt lat="49.98167" lon="2.0687">
        <ele>15.7</ele>
        <time>2022-04-12T12:31:56Z</time>
      </trkpt>
      <trkpt lat="49.98168" lon="2.06871">
        <ele>15.7</ele>
        <time>2022-04-12T12:31:57Z</time>
      </trkpt>
      <trkpt lat="49.98168" lon="2.06872">
        <ele>15.7</ele>
        <time>2022-04-12T12:31:59Z</time>
      </trkpt>
      <trkpt lat="49.98169" lon="2.06873">
        <ele>15.6</ele>
        <time>2022-04-12T12:32:00Z</time>
      </trkpt>
      <trkpt lat="49.98169" lon="2.06875">
        <ele>15.6</ele>
        <time>2022-04-12T12:32:01Z</time>
      </trkpt>
      <trkpt lat="49.9817" lon="2.06876">
        <ele>15.6</ele>
        <time>2022-04-12T12:32:02Z</time>
      </trkpt>
      <trkpt lat="49.98171" lon="2.06877">
        <ele>15.5</ele>
        <time>2022-04-12T12:32:03Z</time>
      </trkpt>
      <trkpt lat="49.98171" lon="2.06878">
        <ele>15.5</ele>
        <time>2022-04-12T12:32:04Z</time>
      </trkpt>
      <trkpt lat="49.98172" lon="2.0688">
        <ele>15.5</ele>
        <time>2022-04-12T12:32:05Z</time>
      </trkpt>
      <trkpt lat="49.98173" lon="2.06883">
        <ele>15.4</ele>
        <time>2022-04-12T12:32:06Z</time>
      </trkpt>
      <trkpt lat="49.98174" lon="2.06884">
        <ele>15.4</ele>
        <time>2022-04-12T12:32:07Z</time>
      </trkpt>
      <trkpt lat="49.98174" lon="2.06885">
        <ele>15.4</ele>
        <time>2022-04-12T12:32:08Z</time>
      </trkpt>
      <trkpt lat="49.98175" lon="2.06886">
        <ele>15.3</ele>
        <time>2022-04-12T12:32:09Z</time>
      </trkpt>
      <trkpt lat="49.98176" lon="2.06888">
        <ele>15.3</ele>
        <time>2022-04-12T12:32:11Z</time>
      </trkpt>
      <trkpt lat="49.98176" lon="2.06889">
        <ele>15.3</ele>
        <time>2022-04-12T12:32:12Z</time>
      </trkpt>
      <trkpt lat="49.98178" lon="2.06891">
        <ele>15.2</ele>
        <time>2022-04-12T12:32:13Z</time>
      </trkpt>
      <trkpt lat="49.98178" lon="2.06892">
        <ele>15.2</ele>
        <time>2022-04-12T12:32:14Z</time>
      </trkpt>
      <trkpt lat="49.98179" lon="2.06893">
        <ele>15.2</ele>
        <time>2022-04-12T12:32:15Z</time>
      </trkpt>
      <trkpt lat="49.9818" lon="2.06895">
        <ele>15.1</ele>
        <time>2022-04-12T12:32:16Z</time>
      </trkpt>
      <trkpt lat="49.9818" lon="2.06896">
        <ele>15.1</ele>
        <time>2022-04-12T12:32:17Z</time>
      </trkpt>
      <trkpt lat="49.98181" lon="2.06897">
        <ele>15.1</ele>
        <time>2022-04-12T12:32:18Z</time>
      </trkpt>
      <trkpt lat="49.98182" lon="2.069">
        <ele>15</ele>
        <time>2022-04-12T12:32:19Z</time>
      </trkpt>
      <trkpt lat="49.98182" lon="2.06901">
        <ele>15</ele>
        <time>2022-04-12T12:32:21Z</time>
      </trkpt>
      <trkpt lat="49.98183" lon="2.06903">
        <ele>15</ele>
        <time>2022-04-12T12:32:22Z</time>
      </trkpt>
      <trkpt lat="49.98184" lon="2.06906">
        <ele>14.9</ele>
        <time>2022-04-12T12:32:24Z</time>
      </trkpt>
      <trkpt lat="49.98185" lon="2.06907">
        <ele>14.9</ele>
        <time>2022-04-12T12:32:25Z</time>
      </trkpt>
      <trkpt lat="49.98186" lon="2.0691">
        <ele>14.9</ele>
        <time>2022-04-12T12:32:26Z</time>
      </trkpt>
      <trkpt lat="49.98187" lon="2.06912">
        <ele>14.8</ele>
        <time>2022-04-12T12:32:28Z</time>
      </trkpt>
      <trkpt lat="49.98187" lon="2.06913">
        <ele>14.8</ele>
        <time>2022-04-12T12:32:29Z</time>
      </trkpt>
      <trkpt lat="49.98188" lon="2.06914">
        <ele>14.8</ele>
        <time>2022-04-12T12:32:30Z</time>
      </trkpt>
      <trkpt lat="49.98188" lon="2.06915">
        <ele>14.8</ele>
        <time>2022-04-12T12:32:31Z</time>
      </trkpt>
      <trkpt lat="49.98189" lon="2.06917">
        <ele>14.8</ele>
        <time>2022-04-12T12:32:32Z</time>
      </trkpt>
      <trkpt lat="49.98191" lon="2.0692">
        <ele>14.7</ele>
        <time>2022-04-12T12:32:34Z</time>
      </trkpt>
      <trkpt lat="49.98191" lon="2.06921">
        <ele>14.7</ele>
        <time>2022-04-12T12:32:35Z</time>
      </trkpt>
      <trkpt lat="49.98192" lon="2.06923">
        <ele>14.7</ele>
        <time>2022-04-12T12:32:36Z</time>
      </trkpt>
      <trkpt lat="49.98193" lon="2.06924">
        <ele>14.7</ele>
        <time>2022-04-12T12:32:37Z</time>
      </trkpt>
      <trkpt lat="49.98193" lon="2.06925">
        <ele>14.7</ele>
        <time>2022-04-12T12:32:38Z</time>
      </trkpt>
      <trkpt lat="49.98194" lon="2.06927">
        <ele>14.7</ele>
        <time>2022-04-12T12:32:39Z</time>
      </trkpt>
      <trkpt lat="49.98195" lon="2.06928">
        <ele>14.7</ele>
        <time>2022-04-12T12:32:40Z</time>
      </trkpt>
      <trkpt lat="49.98196" lon="2.0693">
        <ele>14.7</ele>
        <time>2022-04-12T12:32:41Z</time>
      </trkpt>
      <trkpt lat="49.98197" lon="2.06931">
        <ele>14.7</ele>
        <time>2022-04-12T12:32:42Z</time>
      </trkpt>
      <trkpt lat="49.98197" lon="2.06932">
        <ele>14.7</ele>
        <time>2022-04-12T12:32:43Z</time>
      </trkpt>
      <trkpt lat="49.98198" lon="2.06933">
        <ele>14.7</ele>
        <time>2022-04-12T12:32:45Z</time>
      </trkpt>
      <trkpt lat="49.98199" lon="2.06934">
        <ele>14.7</ele>
        <time>2022-04-12T12:32:46Z</time>
      </trkpt>
      <trkpt lat="49.982" lon="2.06936">
        <ele>14.7</ele>
        <time>2022-04-12T12:32:48Z</time>
      </trkpt>
      <trkpt lat="49.98201" lon="2.06937">
        <ele>14.7</ele>
        <time>2022-04-12T12:32:49Z</time>
      </trkpt>
      <trkpt lat="49.98202" lon="2.06938">
        <ele>14.7</ele>
        <time>2022-04-12T12:32:50Z</time>
      </trkpt>
      <trkpt lat="49.98203" lon="2.06939">
        <ele>14.7</ele>
        <time>2022-04-12T12:32:51Z</time>
      </trkpt>
      <trkpt lat="49.98203" lon="2.06941">
        <ele>14.7</ele>
        <time>2022-04-12T12:32:52Z</time>
      </trkpt>
      <trkpt lat="49.98204" lon="2.06942">
        <ele>14.6</ele>
        <time>2022-04-12T12:32:53Z</time>
      </trkpt>
      <trkpt lat="49.98205" lon="2.06943">
        <ele>14.6</ele>
        <time>2022-04-12T12:32:54Z</time>
      </trkpt>
      <trkpt lat="49.98206" lon="2.06946">
        <ele>14.6</ele>
        <time>2022-04-12T12:32:55Z</time>
      </trkpt>
      <trkpt lat="49.98207" lon="2.06947">
        <ele>14.6</ele>
        <time>2022-04-12T12:32:57Z</time>
      </trkpt>
      <trkpt lat="49.98207" lon="2.06948">
        <ele>14.6</ele>
        <time>2022-04-12T12:32:58Z</time>
      </trkpt>
      <trkpt lat="49.98208" lon="2.06949">
        <ele>14.5</ele>
        <time>2022-04-12T12:32:59Z</time>
      </trkpt>
      <trkpt lat="49.98209" lon="2.06951">
        <ele>14.5</ele>
        <time>2022-04-12T12:33:00Z</time>
      </trkpt>
      <trkpt lat="49.98209" lon="2.06953">
        <ele>14.5</ele>
        <time>2022-04-12T12:33:01Z</time>
      </trkpt>
      <trkpt lat="49.9821" lon="2.06954">
        <ele>14.5</ele>
        <time>2022-04-12T12:33:02Z</time>
      </trkpt>
      <trkpt lat="49.98211" lon="2.06955">
        <ele>14.5</ele>
        <time>2022-04-12T12:33:03Z</time>
      </trkpt>
      <trkpt lat="49.98211" lon="2.06957">
        <ele>14.5</ele>
        <time>2022-04-12T12:33:04Z</time>
      </trkpt>
      <trkpt lat="49.98212" lon="2.06958">
        <ele>14.4</ele>
        <time>2022-04-12T12:33:06Z</time>
      </trkpt>
      <trkpt lat="49.98213" lon="2.06959">
        <ele>14.4</ele>
        <time>2022-04-12T12:33:07Z</time>
      </trkpt>
      <trkpt lat="49.98214" lon="2.0696">
        <ele>14.4</ele>
        <time>2022-04-12T12:33:08Z</time>
      </trkpt>
      <trkpt lat="49.98215" lon="2.06962">
        <ele>14.4</ele>
        <time>2022-04-12T12:33:09Z</time>
      </trkpt>
      <trkpt lat="49.98215" lon="2.06963">
        <ele>14.4</ele>
        <time>2022-04-12T12:33:10Z</time>
      </trkpt>
      <trkpt lat="49.98216" lon="2.06964">
        <ele>14.4</ele>
        <time>2022-04-12T12:33:11Z</time>
      </trkpt>
      <trkpt lat="49.98217" lon="2.06965">
        <ele>14.4</ele>
        <time>2022-04-12T12:33:12Z</time>
      </trkpt>
      <trkpt lat="49.98218" lon="2.06966">
        <ele>14.4</ele>
        <time>2022-04-12T12:33:13Z</time>
      </trkpt>
      <trkpt lat="49.98219" lon="2.06967">
        <ele>14.4</ele>
        <time>2022-04-12T12:33:14Z</time>
      </trkpt>
      <trkpt lat="49.9822" lon="2.06968">
        <ele>14.4</ele>
        <time>2022-04-12T12:33:15Z</time>
      </trkpt>
      <trkpt lat="49.98221" lon="2.06969">
        <ele>14.3</ele>
        <time>2022-04-12T12:33:16Z</time>
      </trkpt>
      <trkpt lat="49.98222" lon="2.06969">
        <ele>14.3</ele>
        <time>2022-04-12T12:33:17Z</time>
      </trkpt>
      <trkpt lat="49.98224" lon="2.06971">
        <ele>14.3</ele>
        <time>2022-04-12T12:33:19Z</time>
      </trkpt>
      <trkpt lat="49.98225" lon="2.06972">
        <ele>14.3</ele>
        <time>2022-04-12T12:33:20Z</time>
      </trkpt>
      <trkpt lat="49.98225" lon="2.06972">
        <ele>14.3</ele>
        <time>2022-04-12T12:33:21Z</time>
      </trkpt>
      <trkpt lat="49.98226" lon="2.06974">
        <ele>14.3</ele>
        <time>2022-04-12T12:33:22Z</time>
      </trkpt>
      <trkpt lat="49.98227" lon="2.06975">
        <ele>14.3</ele>
        <time>2022-04-12T12:33:23Z</time>
      </trkpt>
      <trkpt lat="49.98228" lon="2.06976">
        <ele>14.3</ele>
        <time>2022-04-12T12:33:24Z</time>
      </trkpt>
      <trkpt lat="49.98229" lon="2.06979">
        <ele>14.3</ele>
        <time>2022-04-12T12:33:25Z</time>
      </trkpt>
      <trkpt lat="49.98229" lon="2.06981">
        <ele>14.3</ele>
        <time>2022-04-12T12:33:26Z</time>
      </trkpt>
      <trkpt lat="49.9823" lon="2.06982">
        <ele>14.3</ele>
        <time>2022-04-12T12:33:27Z</time>
      </trkpt>
      <trkpt lat="49.9823" lon="2.06985">
        <ele>14.3</ele>
        <time>2022-04-12T12:33:28Z</time>
      </trkpt>
      <trkpt lat="49.98231" lon="2.06987">
        <ele>14.3</ele>
        <time>2022-04-12T12:33:29Z</time>
      </trkpt>
      <trkpt lat="49.98231" lon="2.06989">
        <ele>14.3</ele>
        <time>2022-04-12T12:33:31Z</time>
      </trkpt>
      <trkpt lat="49.98232" lon="2.06991">
        <ele>14.3</ele>
        <time>2022-04-12T12:33:32Z</time>
      </trkpt>
      <trkpt lat="49.98233" lon="2.06994">
        <ele>14.3</ele>
        <time>2022-04-12T12:33:33Z</time>
      </trkpt>
      <trkpt lat="49.98233" lon="2.06995">
        <ele>14.3</ele>
        <time>2022-04-12T12:33:34Z</time>
      </trkpt>
      <trkpt lat="49.98233" lon="2.06996">
        <ele>14.3</ele>
        <time>2022-04-12T12:33:35Z</time>
      </trkpt>
      <trkpt lat="49.98234" lon="2.06998">
        <ele>14.4</ele>
        <time>2022-04-12T12:33:36Z</time>
      </trkpt>
      <trkpt lat="49.98234" lon="2.07">
        <ele>14.4</ele>
        <time>2022-04-12T12:33:37Z</time>
      </trkpt>
      <trkpt lat="49.98235" lon="2.07002">
        <ele>14.4</ele>
        <time>2022-04-12T12:33:39Z</time>
      </trkpt>
      <trkpt lat="49.98236" lon="2.07005">
        <ele>14.4</ele>
        <time>2022-04-12T12:33:40Z</time>
      </trkpt>
      <trkpt lat="49.98236" lon="2.07006">
        <ele>14.4</ele>
        <time>2022-04-12T12:33:41Z</time>
      </trkpt>
      <trkpt lat="49.98236" lon="2.07007">
        <ele>14.4</ele>
        <time>2022-04-12T12:33:42Z</time>
      </trkpt>
      <trkpt lat="49.98238" lon="2.0701">
        <ele>14.4</ele>
        <time>2022-04-12T12:33:43Z</time>
      </trkpt>
      <trkpt lat="49.98238" lon="2.07011">
        <ele>14.5</ele>
        <time>2022-04-12T12:33:44Z</time>
      </trkpt>
      <trkpt lat="49.98239" lon="2.07012">
        <ele>14.5</ele>
        <time>2022-04-12T12:33:45Z</time>
      </trkpt>
      <trkpt lat="49.98241" lon="2.07015">
        <ele>14.5</ele>
        <time>2022-04-12T12:33:47Z</time>
      </trkpt>
      <trkpt lat="49.98241" lon="2.07016">
        <ele>14.5</ele>
        <time>2022-04-12T12:33:48Z</time>
      </trkpt>
      <trkpt lat="49.98242" lon="2.07016">
        <ele>14.5</ele>
        <time>2022-04-12T12:33:49Z</time>
      </trkpt>
      <trkpt lat="49.98243" lon="2.07018">
        <ele>14.5</ele>
        <time>2022-04-12T12:33:50Z</time>
      </trkpt>
      <trkpt lat="49.98243" lon="2.07019">
        <ele>14.6</ele>
        <time>2022-04-12T12:33:51Z</time>
      </trkpt>
      <trkpt lat="49.98244" lon="2.07019">
        <ele>14.6</ele>
        <time>2022-04-12T12:33:52Z</time>
      </trkpt>
      <trkpt lat="49.98245" lon="2.0702">
        <ele>14.6</ele>
        <time>2022-04-12T12:33:53Z</time>
      </trkpt>
      <trkpt lat="49.98246" lon="2.07021">
        <ele>14.6</ele>
        <time>2022-04-12T12:33:54Z</time>
      </trkpt>
      <trkpt lat="49.98247" lon="2.07022">
        <ele>14.6</ele>
        <time>2022-04-12T12:33:56Z</time>
      </trkpt>
      <trkpt lat="49.98249" lon="2.07024">
        <ele>14.6</ele>
        <time>2022-04-12T12:33:58Z</time>
      </trkpt>
      <trkpt lat="49.9825" lon="2.07025">
        <ele>14.7</ele>
        <time>2022-04-12T12:33:59Z</time>
      </trkpt>
      <trkpt lat="49.98251" lon="2.07027">
        <ele>14.7</ele>
        <time>2022-04-12T12:34:00Z</time>
      </trkpt>
      <trkpt lat="49.98252" lon="2.07028">
        <ele>14.7</ele>
        <time>2022-04-12T12:34:01Z</time>
      </trkpt>
      <trkpt lat="49.98252" lon="2.07029">
        <ele>14.7</ele>
        <time>2022-04-12T12:34:02Z</time>
      </trkpt>
      <trkpt lat="49.98253" lon="2.0703">
        <ele>14.7</ele>
        <time>2022-04-12T12:34:04Z</time>
      </trkpt>
      <trkpt lat="49.98254" lon="2.07031">
        <ele>14.7</ele>
        <time>2022-04-12T12:34:05Z</time>
      </trkpt>
      <trkpt lat="49.98255" lon="2.07032">
        <ele>14.8</ele>
        <time>2022-04-12T12:34:06Z</time>
      </trkpt>
      <trkpt lat="49.98257" lon="2.07034">
        <ele>14.8</ele>
        <time>2022-04-12T12:34:07Z</time>
      </trkpt>
      <trkpt lat="49.98257" lon="2.07035">
        <ele>14.8</ele>
        <time>2022-04-12T12:34:08Z</time>
      </trkpt>
      <trkpt lat="49.98258" lon="2.07036">
        <ele>14.8</ele>
        <time>2022-04-12T12:34:09Z</time>
      </trkpt>
      <trkpt lat="49.98259" lon="2.07037">
        <ele>14.8</ele>
        <time>2022-04-12T12:34:11Z</time>
      </trkpt>
      <trkpt lat="49.98259" lon="2.07038">
        <ele>14.8</ele>
        <time>2022-04-12T12:34:12Z</time>
      </trkpt>
      <trkpt lat="49.9826" lon="2.0704">
        <ele>14.8</ele>
        <time>2022-04-12T12:34:13Z</time>
      </trkpt>
      <trkpt lat="49.98261" lon="2.07041">
        <ele>14.8</ele>
        <time>2022-04-12T12:34:14Z</time>
      </trkpt>
      <trkpt lat="49.98262" lon="2.07042">
        <ele>14.8</ele>
        <time>2022-04-12T12:34:15Z</time>
      </trkpt>
      <trkpt lat="49.98262" lon="2.07044">
        <ele>14.9</ele>
        <time>2022-04-12T12:34:16Z</time>
      </trkpt>
      <trkpt lat="49.98263" lon="2.07046">
        <ele>14.9</ele>
        <time>2022-04-12T12:34:17Z</time>
      </trkpt>
      <trkpt lat="49.98263" lon="2.07047">
        <ele>14.9</ele>
        <time>2022-04-12T12:34:18Z</time>
      </trkpt>
      <trkpt lat="49.98264" lon="2.07049">
        <ele>14.9</ele>
        <time>2022-04-12T12:34:20Z</time>
      </trkpt>
      <trkpt lat="49.98265" lon="2.0705">
        <ele>14.9</ele>
        <time>2022-04-12T12:34:21Z</time>
      </trkpt>
      <trkpt lat="49.98265" lon="2.07051">
        <ele>14.9</ele>
        <time>2022-04-12T12:34:22Z</time>
      </trkpt>
      <trkpt lat="49.98267" lon="2.07053">
        <ele>14.9</ele>
        <time>2022-04-12T12:34:24Z</time>
      </trkpt>
      <trkpt lat="49.98267" lon="2.07054">
        <ele>14.9</ele>
        <time>2022-04-12T12:34:25Z</time>
      </trkpt>
      <trkpt lat="49.98268" lon="2.07055">
        <ele>14.9</ele>
        <time>2022-04-12T12:34:26Z</time>
      </trkpt>
      <trkpt lat="49.98269" lon="2.07056">
        <ele>14.9</ele>
        <time>2022-04-12T12:34:27Z</time>
      </trkpt>
      <trkpt lat="49.9827" lon="2.07057">
        <ele>14.9</ele>
        <time>2022-04-12T12:34:28Z</time>
      </trkpt>
      <trkpt lat="49.98271" lon="2.07058">
        <ele>14.9</ele>
        <time>2022-04-12T12:34:30Z</time>
      </trkpt>
      <trkpt lat="49.98271" lon="2.07059">
        <ele>14.9</ele>
        <time>2022-04-12T12:34:31Z</time>
      </trkpt>
      <trkpt lat="49.98272" lon="2.0706">
        <ele>14.9</ele>
        <time>2022-04-12T12:34:32Z</time>
      </trkpt>
      <trkpt lat="49.98273" lon="2.07061">
        <ele>14.9</ele>
        <time>2022-04-12T12:34:33Z</time>
      </trkpt>
      <trkpt lat="49.98274" lon="2.07062">
        <ele>14.9</ele>
        <time>2022-04-12T12:34:34Z</time>
      </trkpt>
      <trkpt lat="49.98275" lon="2.07062">
        <ele>14.9</ele>
        <time>2022-04-12T12:34:35Z</time>
      </trkpt>
      <trkpt lat="49.98276" lon="2.07063">
        <ele>14.9</ele>
        <time>2022-04-12T12:34:36Z</time>
      </trkpt>
      <trkpt lat="49.98277" lon="2.07064">
        <ele>14.9</ele>
        <time>2022-04-12T12:34:37Z</time>
      </trkpt>
      <trkpt lat="49.98278" lon="2.07065">
        <ele>14.9</ele>
        <time>2022-04-12T12:34:39Z</time>
      </trkpt>
      <trkpt lat="49.98279" lon="2.07067">
        <ele>14.9</ele>
        <time>2022-04-12T12:34:40Z</time>
      </trkpt>
      <trkpt lat="49.9828" lon="2.07068">
        <ele>14.9</ele>
        <time>2022-04-12T12:34:42Z</time>
      </trkpt>
      <trkpt lat="49.98281" lon="2.07069">
        <ele>14.8</ele>
        <time>2022-04-12T12:34:43Z</time>
      </trkpt>
      <trkpt lat="49.98282" lon="2.0707">
        <ele>14.8</ele>
        <time>2022-04-12T12:34:44Z</time>
      </trkpt>
      <trkpt lat="49.98283" lon="2.07072">
        <ele>14.8</ele>
        <time>2022-04-12T12:34:45Z</time>
      </trkpt>
      <trkpt lat="49.98284" lon="2.07073">
        <ele>14.8</ele>
        <time>2022-04-12T12:34:46Z</time>
      </trkpt>
      <trkpt lat="49.98284" lon="2.07074">
        <ele>14.8</ele>
        <time>2022-04-12T12:34:47Z</time>
      </trkpt>
      <trkpt lat="49.98285" lon="2.07076">
        <ele>14.8</ele>
        <time>2022-04-12T12:34:48Z</time>
      </trkpt>
      <trkpt lat="49.98286" lon="2.07077">
        <ele>14.8</ele>
        <time>2022-04-12T12:34:49Z</time>
      </trkpt>
      <trkpt lat="49.98287" lon="2.07078">
        <ele>14.8</ele>
        <time>2022-04-12T12:34:50Z</time>
      </trkpt>
      <trkpt lat="49.98288" lon="2.07079">
        <ele>14.8</ele>
        <time>2022-04-12T12:34:52Z</time>
      </trkpt>
      <trkpt lat="49.98289" lon="2.0708">
        <ele>14.8</ele>
        <time>2022-04-12T12:34:53Z</time>
      </trkpt>
      <trkpt lat="49.9829" lon="2.07081">
        <ele>14.8</ele>
        <time>2022-04-12T12:34:54Z</time>
      </trkpt>
      <trkpt lat="49.9829" lon="2.07083">
        <ele>14.7</ele>
        <time>2022-04-12T12:34:55Z</time>
      </trkpt>
      <trkpt lat="49.98291" lon="2.07084">
        <ele>14.7</ele>
        <time>2022-04-12T12:34:56Z</time>
      </trkpt>
      <trkpt lat="49.98292" lon="2.07085">
        <ele>14.7</ele>
        <time>2022-04-12T12:34:57Z</time>
      </trkpt>
      <trkpt lat="49.98293" lon="2.07086">
        <ele>14.7</ele>
        <time>2022-04-12T12:34:58Z</time>
      </trkpt>
      <trkpt lat="49.98294" lon="2.07087">
        <ele>14.7</ele>
        <time>2022-04-12T12:35:00Z</time>
      </trkpt>
      <trkpt lat="49.98294" lon="2.07089">
        <ele>14.6</ele>
        <time>2022-04-12T12:35:01Z</time>
      </trkpt>
      <trkpt lat="49.98295" lon="2.0709">
        <ele>14.6</ele>
        <time>2022-04-12T12:35:02Z</time>
      </trkpt>
      <trkpt lat="49.98296" lon="2.07091">
        <ele>14.6</ele>
        <time>2022-04-12T12:35:03Z</time>
      </trkpt>
      <trkpt lat="49.98296" lon="2.07092">
        <ele>14.6</ele>
        <time>2022-04-12T12:35:04Z</time>
      </trkpt>
      <trkpt lat="49.98297" lon="2.07093">
        <ele>14.5</ele>
        <time>2022-04-12T12:35:05Z</time>
      </trkpt>
      <trkpt lat="49.98298" lon="2.07094">
        <ele>14.5</ele>
        <time>2022-04-12T12:35:07Z</time>
      </trkpt>
      <trkpt lat="49.98298" lon="2.07094">
        <ele>14.5</ele>
        <time>2022-04-12T12:35:08Z</time>
      </trkpt>
      <trkpt lat="49.98299" lon="2.07094">
        <ele>14.5</ele>
        <time>2022-04-12T12:35:09Z</time>
      </trkpt>
      <trkpt lat="49.98299" lon="2.07094">
        <ele>14.5</ele>
        <time>2022-04-12T12:35:10Z</time>
      </trkpt>
      <trkpt lat="49.98299" lon="2.07093">
        <ele>14.5</ele>
        <time>2022-04-12T12:35:11Z</time>
      </trkpt>
      <trkpt lat="49.98299" lon="2.07093">
        <ele>14.5</ele>
        <time>2022-04-12T12:35:12Z</time>
      </trkpt>
      <trkpt lat="49.98299" lon="2.07094">
        <ele>14.5</ele>
        <time>2022-04-12T12:35:14Z</time>
      </trkpt>
      <trkpt lat="49.983" lon="2.07095">
        <ele>14.4</ele>
        <time>2022-04-12T12:35:15Z</time>
      </trkpt>
      <trkpt lat="49.983" lon="2.07096">
        <ele>14.4</ele>
        <time>2022-04-12T12:35:16Z</time>
      </trkpt>
      <trkpt lat="49.983" lon="2.07097">
        <ele>14.4</ele>
        <time>2022-04-12T12:35:17Z</time>
      </trkpt>
      <trkpt lat="49.98301" lon="2.07099">
        <ele>14.4</ele>
        <time>2022-04-12T12:35:18Z</time>
      </trkpt>
      <trkpt lat="49.98302" lon="2.071">
        <ele>14.3</ele>
        <time>2022-04-12T12:35:19Z</time>
      </trkpt>
      <trkpt lat="49.98303" lon="2.071">
        <ele>14.3</ele>
        <time>2022-04-12T12:35:20Z</time>
      </trkpt>
      <trkpt lat="49.98303" lon="2.07101">
        <ele>14.3</ele>
        <time>2022-04-12T12:35:21Z</time>
      </trkpt>
      <trkpt lat="49.98304" lon="2.07102">
        <ele>14.2</ele>
        <time>2022-04-12T12:35:22Z</time>
      </trkpt>
      <trkpt lat="49.98305" lon="2.07103">
        <ele>14.2</ele>
        <time>2022-04-12T12:35:24Z</time>
      </trkpt>
      <trkpt lat="49.98306" lon="2.07104">
        <ele>14.2</ele>
        <time>2022-04-12T12:35:25Z</time>
      </trkpt>
      <trkpt lat="49.98307" lon="2.07105">
        <ele>14.1</ele>
        <time>2022-04-12T12:35:26Z</time>
      </trkpt>
      <trkpt lat="49.98308" lon="2.07107">
        <ele>14.1</ele>
        <time>2022-04-12T12:35:27Z</time>
      </trkpt>
      <trkpt lat="49.98309" lon="2.07108">
        <ele>14</ele>
        <time>2022-04-12T12:35:29Z</time>
      </trkpt>
      <trkpt lat="49.98309" lon="2.07109">
        <ele>14</ele>
        <time>2022-04-12T12:35:30Z</time>
      </trkpt>
      <trkpt lat="49.9831" lon="2.07111">
        <ele>14</ele>
        <time>2022-04-12T12:35:31Z</time>
      </trkpt>
      <trkpt lat="49.98311" lon="2.07111">
        <ele>13.9</ele>
        <time>2022-04-12T12:35:32Z</time>
      </trkpt>
      <trkpt lat="49.98312" lon="2.07112">
        <ele>13.9</ele>
        <time>2022-04-12T12:35:34Z</time>
      </trkpt>
      <trkpt lat="49.98314" lon="2.07113">
        <ele>13.8</ele>
        <time>2022-04-12T12:35:35Z</time>
      </trkpt>
      <trkpt lat="49.98314" lon="2.07113">
        <ele>13.8</ele>
        <time>2022-04-12T12:35:36Z</time>
      </trkpt>
      <trkpt lat="49.98315" lon="2.07114">
        <ele>13.8</ele>
        <time>2022-04-12T12:35:37Z</time>
      </trkpt>
      <trkpt lat="49.98316" lon="2.07115">
        <ele>13.7</ele>
        <time>2022-04-12T12:35:38Z</time>
      </trkpt>
      <trkpt lat="49.98318" lon="2.07116">
        <ele>13.6</ele>
        <time>2022-04-12T12:35:39Z</time>
      </trkpt>
      <trkpt lat="49.98319" lon="2.07116">
        <ele>13.6</ele>
        <time>2022-04-12T12:35:40Z</time>
      </trkpt>
      <trkpt lat="49.9832" lon="2.07117">
        <ele>13.5</ele>
        <time>2022-04-12T12:35:41Z</time>
      </trkpt>
      <trkpt lat="49.98321" lon="2.07118">
        <ele>13.4</ele>
        <time>2022-04-12T12:35:42Z</time>
      </trkpt>
      <trkpt lat="49.98323" lon="2.07118">
        <ele>13.4</ele>
        <time>2022-04-12T12:35:44Z</time>
      </trkpt>
      <trkpt lat="49.98324" lon="2.07118">
        <ele>13.3</ele>
        <time>2022-04-12T12:35:45Z</time>
      </trkpt>
      <trkpt lat="49.98325" lon="2.07118">
        <ele>13.2</ele>
        <time>2022-04-12T12:35:46Z</time>
      </trkpt>
      <trkpt lat="49.98326" lon="2.07118">
        <ele>13.1</ele>
        <time>2022-04-12T12:35:47Z</time>
      </trkpt>
      <trkpt lat="49.98328" lon="2.07117">
        <ele>13</ele>
        <time>2022-04-12T12:35:48Z</time>
      </trkpt>
      <trkpt lat="49.98329" lon="2.07117">
        <ele>12.9</ele>
        <time>2022-04-12T12:35:50Z</time>
      </trkpt>
      <trkpt lat="49.98329" lon="2.07116">
        <ele>12.8</ele>
        <time>2022-04-12T12:35:51Z</time>
      </trkpt>
      <trkpt lat="49.9833" lon="2.07115">
        <ele>12.7</ele>
        <time>2022-04-12T12:35:52Z</time>
      </trkpt>
      <trkpt lat="49.98331" lon="2.07113">
        <ele>12.6</ele>
        <time>2022-04-12T12:35:53Z</time>
      </trkpt>
      <trkpt lat="49.98332" lon="2.07111">
        <ele>12.5</ele>
        <time>2022-04-12T12:35:54Z</time>
      </trkpt>
      <trkpt lat="49.98331" lon="2.07108">
        <ele>12.4</ele>
        <time>2022-04-12T12:35:55Z</time>
      </trkpt>
      <trkpt lat="49.98331" lon="2.07107">
        <ele>12.3</ele>
        <time>2022-04-12T12:35:57Z</time>
      </trkpt>
      <trkpt lat="49.98331" lon="2.07106">
        <ele>12.3</ele>
        <time>2022-04-12T12:35:58Z</time>
      </trkpt>
      <trkpt lat="49.9833" lon="2.07104">
        <ele>12.3</ele>
        <time>2022-04-12T12:35:59Z</time>
      </trkpt>
      <trkpt lat="49.98329" lon="2.07102">
        <ele>12.3</ele>
        <time>2022-04-12T12:36:00Z</time>
      </trkpt>
      <trkpt lat="49.98328" lon="2.071">
        <ele>12.4</ele>
        <time>2022-04-12T12:36:01Z</time>
      </trkpt>
      <trkpt lat="49.98327" lon="2.07098">
        <ele>12.4</ele>
        <time>2022-04-12T12:36:02Z</time>
      </trkpt>
      <trkpt lat="49.98326" lon="2.07095">
        <ele>12.4</ele>
        <time>2022-04-12T12:36:03Z</time>
      </trkpt>
      <trkpt lat="49.98325" lon="2.07093">
        <ele>12.4</ele>
        <time>2022-04-12T12:36:05Z</time>
      </trkpt>
      <trkpt lat="49.98324" lon="2.07091">
        <ele>12.4</ele>
        <time>2022-04-12T12:36:06Z</time>
      </trkpt>
      <trkpt lat="49.98323" lon="2.07088">
        <ele>12.4</ele>
        <time>2022-04-12T12:36:07Z</time>
      </trkpt>
      <trkpt lat="49.98322" lon="2.07086">
        <ele>12.4</ele>
        <time>2022-04-12T12:36:08Z</time>
      </trkpt>
      <trkpt lat="49.98322" lon="2.07084">
        <ele>12.4</ele>
        <time>2022-04-12T12:36:10Z</time>
      </trkpt>
      <trkpt lat="49.98321" lon="2.07082">
        <ele>12.4</ele>
        <time>2022-04-12T12:36:11Z</time>
      </trkpt>
      <trkpt lat="49.98321" lon="2.0708">
        <ele>12.4</ele>
        <time>2022-04-12T12:36:12Z</time>
      </trkpt>
      <trkpt lat="49.9832" lon="2.07077">
        <ele>12.4</ele>
        <time>2022-04-12T12:36:13Z</time>
      </trkpt>
      <trkpt lat="49.9832" lon="2.07075">
        <ele>12.5</ele>
        <time>2022-04-12T12:36:14Z</time>
      </trkpt>
      <trkpt lat="49.9832" lon="2.07074">
        <ele>12.5</ele>
        <time>2022-04-12T12:36:15Z</time>
      </trkpt>
      <trkpt lat="49.98319" lon="2.07072">
        <ele>12.5</ele>
        <time>2022-04-12T12:36:16Z</time>
      </trkpt>
      <trkpt lat="49.98319" lon="2.07069">
        <ele>12.5</ele>
        <time>2022-04-12T12:36:17Z</time>
      </trkpt>
      <trkpt lat="49.98319" lon="2.07066">
        <ele>12.5</ele>
        <time>2022-04-12T12:36:19Z</time>
      </trkpt>
      <trkpt lat="49.98319" lon="2.07064">
        <ele>12.5</ele>
        <time>2022-04-12T12:36:20Z</time>
      </trkpt>
      <trkpt lat="49.98319" lon="2.07061">
        <ele>12.4</ele>
        <time>2022-04-12T12:36:21Z</time>
      </trkpt>
      <trkpt lat="49.98319" lon="2.07059">
        <ele>12.4</ele>
        <time>2022-04-12T12:36:22Z</time>
      </trkpt>
      <trkpt lat="49.9832" lon="2.07057">
        <ele>12.4</ele>
        <time>2022-04-12T12:36:24Z</time>
      </trkpt>
      <trkpt lat="49.98321" lon="2.07055">
        <ele>12.4</ele>
        <time>2022-04-12T12:36:25Z</time>
      </trkpt>
      <trkpt lat="49.98322" lon="2.07053">
        <ele>12.4</ele>
        <time>2022-04-12T12:36:26Z</time>
      </trkpt>
      <trkpt lat="49.98323" lon="2.07052">
        <ele>12.4</ele>
        <time>2022-04-12T12:36:27Z</time>
      </trkpt>
      <trkpt lat="49.98323" lon="2.07052">
        <ele>12.4</ele>
        <time>2022-04-12T12:36:28Z</time>
      </trkpt>
      <trkpt lat="49.98325" lon="2.0705">
        <ele>12.4</ele>
        <time>2022-04-12T12:36:29Z</time>
      </trkpt>
      <trkpt lat="49.98326" lon="2.0705">
        <ele>12.4</ele>
        <time>2022-04-12T12:36:30Z</time>
      </trkpt>
      <trkpt lat="49.98327" lon="2.07049">
        <ele>12.3</ele>
        <time>2022-04-12T12:36:31Z</time>
      </trkpt>
      <trkpt lat="49.98328" lon="2.07048">
        <ele>12.3</ele>
        <time>2022-04-12T12:36:32Z</time>
      </trkpt>
      <trkpt lat="49.98329" lon="2.07048">
        <ele>12.3</ele>
        <time>2022-04-12T12:36:34Z</time>
      </trkpt>
      <trkpt lat="49.9833" lon="2.07047">
        <ele>12.3</ele>
        <time>2022-04-12T12:36:35Z</time>
      </trkpt>
      <trkpt lat="49.98331" lon="2.07046">
        <ele>12.3</ele>
        <time>2022-04-12T12:36:36Z</time>
      </trkpt>
      <trkpt lat="49.98332" lon="2.07046">
        <ele>12.3</ele>
        <time>2022-04-12T12:36:37Z</time>
      </trkpt>
      <trkpt lat="49.98333" lon="2.07044">
        <ele>12.2</ele>
        <time>2022-04-12T12:36:39Z</time>
      </trkpt>
      <trkpt lat="49.98334" lon="2.07044">
        <ele>12.2</ele>
        <time>2022-04-12T12:36:40Z</time>
      </trkpt>
      <trkpt lat="49.98335" lon="2.07043">
        <ele>12.2</ele>
        <time>2022-04-12T12:36:41Z</time>
      </trkpt>
      <trkpt lat="49.98336" lon="2.07042">
        <ele>12.2</ele>
        <time>2022-04-12T12:36:42Z</time>
      </trkpt>
      <trkpt lat="49.98337" lon="2.07041">
        <ele>12.2</ele>
        <time>2022-04-12T12:36:43Z</time>
      </trkpt>
      <trkpt lat="49.98338" lon="2.0704">
        <ele>12.2</ele>
        <time>2022-04-12T12:36:44Z</time>
      </trkpt>
      <trkpt lat="49.98339" lon="2.07039">
        <ele>12.2</ele>
        <time>2022-04-12T12:36:45Z</time>
      </trkpt>
      <trkpt lat="49.98339" lon="2.07038">
        <ele>12.1</ele>
        <time>2022-04-12T12:36:46Z</time>
      </trkpt>
      <trkpt lat="49.9834" lon="2.07037">
        <ele>12.1</ele>
        <time>2022-04-12T12:36:48Z</time>
      </trkpt>
      <trkpt lat="49.98341" lon="2.07036">
        <ele>12.1</ele>
        <time>2022-04-12T12:36:49Z</time>
      </trkpt>
      <trkpt lat="49.98342" lon="2.07035">
        <ele>12.1</ele>
        <time>2022-04-12T12:36:50Z</time>
      </trkpt>
      <trkpt lat="49.98343" lon="2.07034">
        <ele>12.1</ele>
        <time>2022-04-12T12:36:51Z</time>
      </trkpt>
      <trkpt lat="49.98344" lon="2.07033">
        <ele>12.1</ele>
        <time>2022-04-12T12:36:52Z</time>
      </trkpt>
      <trkpt lat="49.98345" lon="2.07032">
        <ele>12.1</ele>
        <time>2022-04-12T12:36:53Z</time>
      </trkpt>
      <trkpt lat="49.98345" lon="2.07031">
        <ele>12</ele>
        <time>2022-04-12T12:36:54Z</time>
      </trkpt>
      <trkpt lat="49.98346" lon="2.0703">
        <ele>12</ele>
        <time>2022-04-12T12:36:55Z</time>
      </trkpt>
      <trkpt lat="49.98347" lon="2.07029">
        <ele>12</ele>
        <time>2022-04-12T12:36:57Z</time>
      </trkpt>
      <trkpt lat="49.98348" lon="2.07028">
        <ele>12</ele>
        <time>2022-04-12T12:36:58Z</time>
      </trkpt>
      <trkpt lat="49.98349" lon="2.07027">
        <ele>12</ele>
        <time>2022-04-12T12:36:59Z</time>
      </trkpt>
      <trkpt lat="49.9835" lon="2.07026">
        <ele>12</ele>
        <time>2022-04-12T12:37:00Z</time>
      </trkpt>
      <trkpt lat="49.9835" lon="2.07025">
        <ele>12</ele>
        <time>2022-04-12T12:37:01Z</time>
      </trkpt>
      <trkpt lat="49.98351" lon="2.07024">
        <ele>11.9</ele>
        <time>2022-04-12T12:37:02Z</time>
      </trkpt>
      <trkpt lat="49.98352" lon="2.07024">
        <ele>11.9</ele>
        <time>2022-04-12T12:37:03Z</time>
      </trkpt>
      <trkpt lat="49.98353" lon="2.07023">
        <ele>11.9</ele>
        <time>2022-04-12T12:37:04Z</time>
      </trkpt>
      <trkpt lat="49.98354" lon="2.07022">
        <ele>11.9</ele>
        <time>2022-04-12T12:37:05Z</time>
      </trkpt>
      <trkpt lat="49.98355" lon="2.07021">
        <ele>11.9</ele>
        <time>2022-04-12T12:37:06Z</time>
      </trkpt>
      <trkpt lat="49.98356" lon="2.0702">
        <ele>11.9</ele>
        <time>2022-04-12T12:37:08Z</time>
      </trkpt>
      <trkpt lat="49.98357" lon="2.0702">
        <ele>11.9</ele>
        <time>2022-04-12T12:37:09Z</time>
      </trkpt>
      <trkpt lat="49.98358" lon="2.07019">
        <ele>11.9</ele>
        <time>2022-04-12T12:37:10Z</time>
      </trkpt>
      <trkpt lat="49.98359" lon="2.07019">
        <ele>11.9</ele>
        <time>2022-04-12T12:37:11Z</time>
      </trkpt>
      <trkpt lat="49.9836" lon="2.07018">
        <ele>11.9</ele>
        <time>2022-04-12T12:37:12Z</time>
      </trkpt>
      <trkpt lat="49.98361" lon="2.07018">
        <ele>11.8</ele>
        <time>2022-04-12T12:37:13Z</time>
      </trkpt>
      <trkpt lat="49.98362" lon="2.07017">
        <ele>11.8</ele>
        <time>2022-04-12T12:37:14Z</time>
      </trkpt>
      <trkpt lat="49.98363" lon="2.07016">
        <ele>11.8</ele>
        <time>2022-04-12T12:37:15Z</time>
      </trkpt>
      <trkpt lat="49.98364" lon="2.07014">
        <ele>11.8</ele>
        <time>2022-04-12T12:37:17Z</time>
      </trkpt>
      <trkpt lat="49.98365" lon="2.07013">
        <ele>11.8</ele>
        <time>2022-04-12T12:37:18Z</time>
      </trkpt>
      <trkpt lat="49.98366" lon="2.07012">
        <ele>11.8</ele>
        <time>2022-04-12T12:37:19Z</time>
      </trkpt>
      <trkpt lat="49.98367" lon="2.07011">
        <ele>11.8</ele>
        <time>2022-04-12T12:37:20Z</time>
      </trkpt>
      <trkpt lat="49.98368" lon="2.0701">
        <ele>11.8</ele>
        <time>2022-04-12T12:37:21Z</time>
      </trkpt>
      <trkpt lat="49.98368" lon="2.07009">
        <ele>11.8</ele>
        <time>2022-04-12T12:37:22Z</time>
      </trkpt>
      <trkpt lat="49.9837" lon="2.07007">
        <ele>11.8</ele>
        <time>2022-04-12T12:37:23Z</time>
      </trkpt>
      <trkpt lat="49.98371" lon="2.07006">
        <ele>11.7</ele>
        <time>2022-04-12T12:37:24Z</time>
      </trkpt>
      <trkpt lat="49.98371" lon="2.07005">
        <ele>11.7</ele>
        <time>2022-04-12T12:37:25Z</time>
      </trkpt>
      <trkpt lat="49.98372" lon="2.07005">
        <ele>11.7</ele>
        <time>2022-04-12T12:37:27Z</time>
      </trkpt>
      <trkpt lat="49.98374" lon="2.07004">
        <ele>11.7</ele>
        <time>2022-04-12T12:37:28Z</time>
      </trkpt>
      <trkpt lat="49.98375" lon="2.07003">
        <ele>11.7</ele>
        <time>2022-04-12T12:37:29Z</time>
      </trkpt>
      <trkpt lat="49.98375" lon="2.07002">
        <ele>11.7</ele>
        <time>2022-04-12T12:37:30Z</time>
      </trkpt>
      <trkpt lat="49.98376" lon="2.07001">
        <ele>11.7</ele>
        <time>2022-04-12T12:37:31Z</time>
      </trkpt>
      <trkpt lat="49.98377" lon="2.07">
        <ele>11.7</ele>
        <time>2022-04-12T12:37:32Z</time>
      </trkpt>
      <trkpt lat="49.98379" lon="2.06998">
        <ele>11.7</ele>
        <time>2022-04-12T12:37:33Z</time>
      </trkpt>
      <trkpt lat="49.98379" lon="2.06997">
        <ele>11.7</ele>
        <time>2022-04-12T12:37:34Z</time>
      </trkpt>
      <trkpt lat="49.9838" lon="2.06996">
        <ele>11.7</ele>
        <time>2022-04-12T12:37:35Z</time>
      </trkpt>
      <trkpt lat="49.98381" lon="2.06995">
        <ele>11.7</ele>
        <time>2022-04-12T12:37:36Z</time>
      </trkpt>
      <trkpt lat="49.98382" lon="2.06994">
        <ele>11.7</ele>
        <time>2022-04-12T12:37:38Z</time>
      </trkpt>
      <trkpt lat="49.98383" lon="2.06993">
        <ele>11.7</ele>
        <time>2022-04-12T12:37:39Z</time>
      </trkpt>
      <trkpt lat="49.98384" lon="2.06992">
        <ele>11.7</ele>
        <time>2022-04-12T12:37:40Z</time>
      </trkpt>
      <trkpt lat="49.98384" lon="2.06991">
        <ele>11.7</ele>
        <time>2022-04-12T12:37:41Z</time>
      </trkpt>
      <trkpt lat="49.98385" lon="2.06989">
        <ele>11.7</ele>
        <time>2022-04-12T12:37:42Z</time>
      </trkpt>
      <trkpt lat="49.98386" lon="2.06988">
        <ele>11.7</ele>
        <time>2022-04-12T12:37:43Z</time>
      </trkpt>
      <trkpt lat="49.98387" lon="2.06987">
        <ele>11.7</ele>
        <time>2022-04-12T12:37:44Z</time>
      </trkpt>
      <trkpt lat="49.98388" lon="2.06986">
        <ele>11.7</ele>
        <time>2022-04-12T12:37:45Z</time>
      </trkpt>
      <trkpt lat="49.98389" lon="2.06985">
        <ele>11.7</ele>
        <time>2022-04-12T12:37:46Z</time>
      </trkpt>
      <trkpt lat="49.9839" lon="2.06984">
        <ele>11.7</ele>
        <time>2022-04-12T12:37:47Z</time>
      </trkpt>
      <trkpt lat="49.98391" lon="2.06983">
        <ele>11.7</ele>
        <time>2022-04-12T12:37:48Z</time>
      </trkpt>
      <trkpt lat="49.98392" lon="2.06982">
        <ele>11.6</ele>
        <time>2022-04-12T12:37:50Z</time>
      </trkpt>
      <trkpt lat="49.98393" lon="2.06981">
        <ele>11.6</ele>
        <time>2022-04-12T12:37:51Z</time>
      </trkpt>
      <trkpt lat="49.98394" lon="2.0698">
        <ele>11.6</ele>
        <time>2022-04-12T12:37:52Z</time>
      </trkpt>
      <trkpt lat="49.98395" lon="2.06979">
        <ele>11.6</ele>
        <time>2022-04-12T12:37:53Z</time>
      </trkpt>
      <trkpt lat="49.98396" lon="2.06978">
        <ele>11.6</ele>
        <time>2022-04-12T12:37:54Z</time>
      </trkpt>
      <trkpt lat="49.98396" lon="2.06977">
        <ele>11.6</ele>
        <time>2022-04-12T12:37:55Z</time>
      </trkpt>
      <trkpt lat="49.98398" lon="2.06976">
        <ele>11.6</ele>
        <time>2022-04-12T12:37:56Z</time>
      </trkpt>
      <trkpt lat="49.98399" lon="2.06975">
        <ele>11.6</ele>
        <time>2022-04-12T12:37:57Z</time>
      </trkpt>
      <trkpt lat="49.984" lon="2.06974">
        <ele>11.6</ele>
        <time>2022-04-12T12:37:58Z</time>
      </trkpt>
      <trkpt lat="49.98401" lon="2.06973">
        <ele>11.6</ele>
        <time>2022-04-12T12:37:59Z</time>
      </trkpt>
      <trkpt lat="49.98402" lon="2.06972">
        <ele>11.6</ele>
        <time>2022-04-12T12:38:00Z</time>
      </trkpt>
      <trkpt lat="49.98403" lon="2.06971">
        <ele>11.6</ele>
        <time>2022-04-12T12:38:02Z</time>
      </trkpt>
      <trkpt lat="49.98404" lon="2.06969">
        <ele>11.6</ele>
        <time>2022-04-12T12:38:03Z</time>
      </trkpt>
      <trkpt lat="49.98405" lon="2.06968">
        <ele>11.6</ele>
        <time>2022-04-12T12:38:04Z</time>
      </trkpt>
      <trkpt lat="49.98406" lon="2.06967">
        <ele>11.6</ele>
        <time>2022-04-12T12:38:05Z</time>
      </trkpt>
      <trkpt lat="49.98407" lon="2.06967">
        <ele>11.6</ele>
        <time>2022-04-12T12:38:06Z</time>
      </trkpt>
      <trkpt lat="49.98407" lon="2.06966">
        <ele>11.6</ele>
        <time>2022-04-12T12:38:07Z</time>
      </trkpt>
      <trkpt lat="49.98408" lon="2.06965">
        <ele>11.6</ele>
        <time>2022-04-12T12:38:08Z</time>
      </trkpt>
      <trkpt lat="49.98409" lon="2.06964">
        <ele>11.6</ele>
        <time>2022-04-12T12:38:09Z</time>
      </trkpt>
      <trkpt lat="49.9841" lon="2.06963">
        <ele>11.6</ele>
        <time>2022-04-12T12:38:10Z</time>
      </trkpt>
      <trkpt lat="49.98411" lon="2.06962">
        <ele>11.6</ele>
        <time>2022-04-12T12:38:11Z</time>
      </trkpt>
      <trkpt lat="49.98412" lon="2.06961">
        <ele>11.6</ele>
        <time>2022-04-12T12:38:12Z</time>
      </trkpt>
      <trkpt lat="49.98413" lon="2.0696">
        <ele>11.6</ele>
        <time>2022-04-12T12:38:14Z</time>
      </trkpt>
      <trkpt lat="49.98414" lon="2.0696">
        <ele>11.6</ele>
        <time>2022-04-12T12:38:15Z</time>
      </trkpt>
      <trkpt lat="49.98415" lon="2.06959">
        <ele>11.6</ele>
        <time>2022-04-12T12:38:16Z</time>
      </trkpt>
      <trkpt lat="49.98417" lon="2.06958">
        <ele>11.6</ele>
        <time>2022-04-12T12:38:17Z</time>
      </trkpt>
      <trkpt lat="49.98419" lon="2.06956">
        <ele>11.6</ele>
        <time>2022-04-12T12:38:18Z</time>
      </trkpt>
      <trkpt lat="49.98419" lon="2.06956">
        <ele>11.6</ele>
        <time>2022-04-12T12:38:19Z</time>
      </trkpt>
      <trkpt lat="49.9842" lon="2.06955">
        <ele>11.6</ele>
        <time>2022-04-12T12:38:20Z</time>
      </trkpt>
      <trkpt lat="49.98423" lon="2.06953">
        <ele>11.6</ele>
        <time>2022-04-12T12:38:21Z</time>
      </trkpt>
      <trkpt lat="49.98424" lon="2.06953">
        <ele>11.6</ele>
        <time>2022-04-12T12:38:23Z</time>
      </trkpt>
      <trkpt lat="49.98425" lon="2.06952">
        <ele>11.6</ele>
        <time>2022-04-12T12:38:24Z</time>
      </trkpt>
      <trkpt lat="49.98426" lon="2.06951">
        <ele>11.6</ele>
        <time>2022-04-12T12:38:25Z</time>
      </trkpt>
      <trkpt lat="49.98427" lon="2.0695">
        <ele>11.6</ele>
        <time>2022-04-12T12:38:26Z</time>
      </trkpt>
      <trkpt lat="49.98428" lon="2.06949">
        <ele>11.6</ele>
        <time>2022-04-12T12:38:27Z</time>
      </trkpt>
      <trkpt lat="49.98429" lon="2.06948">
        <ele>11.6</ele>
        <time>2022-04-12T12:38:28Z</time>
      </trkpt>
      <trkpt lat="49.98431" lon="2.06947">
        <ele>11.6</ele>
        <time>2022-04-12T12:38:29Z</time>
      </trkpt>
      <trkpt lat="49.98432" lon="2.06946">
        <ele>11.6</ele>
        <time>2022-04-12T12:38:31Z</time>
      </trkpt>
      <trkpt lat="49.98434" lon="2.06945">
        <ele>11.6</ele>
        <time>2022-04-12T12:38:32Z</time>
      </trkpt>
      <trkpt lat="49.98435" lon="2.06944">
        <ele>11.6</ele>
        <time>2022-04-12T12:38:33Z</time>
      </trkpt>
      <trkpt lat="49.98437" lon="2.06943">
        <ele>11.6</ele>
        <time>2022-04-12T12:38:34Z</time>
      </trkpt>
      <trkpt lat="49.98437" lon="2.06942">
        <ele>11.6</ele>
        <time>2022-04-12T12:38:35Z</time>
      </trkpt>
      <trkpt lat="49.98438" lon="2.06942">
        <ele>11.6</ele>
        <time>2022-04-12T12:38:36Z</time>
      </trkpt>
      <trkpt lat="49.9844" lon="2.0694">
        <ele>11.6</ele>
        <time>2022-04-12T12:38:38Z</time>
      </trkpt>
      <trkpt lat="49.98441" lon="2.0694">
        <ele>11.6</ele>
        <time>2022-04-12T12:38:39Z</time>
      </trkpt>
      <trkpt lat="49.98441" lon="2.06939">
        <ele>11.6</ele>
        <time>2022-04-12T12:38:40Z</time>
      </trkpt>
      <trkpt lat="49.98443" lon="2.06938">
        <ele>11.6</ele>
        <time>2022-04-12T12:38:41Z</time>
      </trkpt>
      <trkpt lat="49.98444" lon="2.06937">
        <ele>11.6</ele>
        <time>2022-04-12T12:38:42Z</time>
      </trkpt>
      <trkpt lat="49.98444" lon="2.06936">
        <ele>11.6</ele>
        <time>2022-04-12T12:38:43Z</time>
      </trkpt>
      <trkpt lat="49.98446" lon="2.06934">
        <ele>11.6</ele>
        <time>2022-04-12T12:38:44Z</time>
      </trkpt>
      <trkpt lat="49.98447" lon="2.06934">
        <ele>11.6</ele>
        <time>2022-04-12T12:38:45Z</time>
      </trkpt>
      <trkpt lat="49.98448" lon="2.06933">
        <ele>11.6</ele>
        <time>2022-04-12T12:38:46Z</time>
      </trkpt>
      <trkpt lat="49.98449" lon="2.06932">
        <ele>11.6</ele>
        <time>2022-04-12T12:38:47Z</time>
      </trkpt>
      <trkpt lat="49.9845" lon="2.06931">
        <ele>11.6</ele>
        <time>2022-04-12T12:38:49Z</time>
      </trkpt>
      <trkpt lat="49.9845" lon="2.0693">
        <ele>11.6</ele>
        <time>2022-04-12T12:38:50Z</time>
      </trkpt>
      <trkpt lat="49.98451" lon="2.06929">
        <ele>11.6</ele>
        <time>2022-04-12T12:38:51Z</time>
      </trkpt>
      <trkpt lat="49.98452" lon="2.06928">
        <ele>11.6</ele>
        <time>2022-04-12T12:38:52Z</time>
      </trkpt>
      <trkpt lat="49.98453" lon="2.06927">
        <ele>11.6</ele>
        <time>2022-04-12T12:38:53Z</time>
      </trkpt>
      <trkpt lat="49.98455" lon="2.06925">
        <ele>11.6</ele>
        <time>2022-04-12T12:38:54Z</time>
      </trkpt>
      <trkpt lat="49.98455" lon="2.06924">
        <ele>11.6</ele>
        <time>2022-04-12T12:38:55Z</time>
      </trkpt>
      <trkpt lat="49.98456" lon="2.06924">
        <ele>11.6</ele>
        <time>2022-04-12T12:38:56Z</time>
      </trkpt>
      <trkpt lat="49.98457" lon="2.06923">
        <ele>11.6</ele>
        <time>2022-04-12T12:38:57Z</time>
      </trkpt>
      <trkpt lat="49.98458" lon="2.06922">
        <ele>11.6</ele>
        <time>2022-04-12T12:38:58Z</time>
      </trkpt>
      <trkpt lat="49.98459" lon="2.06921">
        <ele>11.6</ele>
        <time>2022-04-12T12:39:00Z</time>
      </trkpt>
      <trkpt lat="49.98461" lon="2.06919">
        <ele>11.6</ele>
        <time>2022-04-12T12:39:01Z</time>
      </trkpt>
      <trkpt lat="49.98461" lon="2.06918">
        <ele>11.6</ele>
        <time>2022-04-12T12:39:02Z</time>
      </trkpt>
      <trkpt lat="49.98462" lon="2.06918">
        <ele>11.6</ele>
        <time>2022-04-12T12:39:03Z</time>
      </trkpt>
      <trkpt lat="49.98463" lon="2.06917">
        <ele>11.6</ele>
        <time>2022-04-12T12:39:04Z</time>
      </trkpt>
      <trkpt lat="49.98464" lon="2.06916">
        <ele>11.6</ele>
        <time>2022-04-12T12:39:05Z</time>
      </trkpt>
      <trkpt lat="49.98465" lon="2.06915">
        <ele>11.6</ele>
        <time>2022-04-12T12:39:06Z</time>
      </trkpt>
      <trkpt lat="49.98466" lon="2.06914">
        <ele>11.6</ele>
        <time>2022-04-12T12:39:07Z</time>
      </trkpt>
      <trkpt lat="49.98467" lon="2.06913">
        <ele>11.7</ele>
        <time>2022-04-12T12:39:08Z</time>
      </trkpt>
      <trkpt lat="49.98468" lon="2.06913">
        <ele>11.7</ele>
        <time>2022-04-12T12:39:10Z</time>
      </trkpt>
      <trkpt lat="49.98469" lon="2.06912">
        <ele>11.7</ele>
        <time>2022-04-12T12:39:11Z</time>
      </trkpt>
      <trkpt lat="49.9847" lon="2.06912">
        <ele>11.7</ele>
        <time>2022-04-12T12:39:12Z</time>
      </trkpt>
      <trkpt lat="49.98471" lon="2.06911">
        <ele>11.7</ele>
        <time>2022-04-12T12:39:13Z</time>
      </trkpt>
      <trkpt lat="49.98472" lon="2.0691">
        <ele>11.7</ele>
        <time>2022-04-12T12:39:14Z</time>
      </trkpt>
      <trkpt lat="49.98473" lon="2.06909">
        <ele>11.7</ele>
        <time>2022-04-12T12:39:15Z</time>
      </trkpt>
      <trkpt lat="49.98473" lon="2.06908">
        <ele>11.7</ele>
        <time>2022-04-12T12:39:16Z</time>
      </trkpt>
      <trkpt lat="49.98474" lon="2.06907">
        <ele>11.7</ele>
        <time>2022-04-12T12:39:17Z</time>
      </trkpt>
      <trkpt lat="49.98475" lon="2.06906">
        <ele>11.7</ele>
        <time>2022-04-12T12:39:18Z</time>
      </trkpt>
      <trkpt lat="49.98476" lon="2.06905">
        <ele>11.7</ele>
        <time>2022-04-12T12:39:20Z</time>
      </trkpt>
      <trkpt lat="49.98477" lon="2.06904">
        <ele>11.7</ele>
        <time>2022-04-12T12:39:21Z</time>
      </trkpt>
      <trkpt lat="49.98478" lon="2.06903">
        <ele>11.7</ele>
        <time>2022-04-12T12:39:22Z</time>
      </trkpt>
      <trkpt lat="49.98479" lon="2.06902">
        <ele>11.7</ele>
        <time>2022-04-12T12:39:23Z</time>
      </trkpt>
      <trkpt lat="49.9848" lon="2.06901">
        <ele>11.7</ele>
        <time>2022-04-12T12:39:24Z</time>
      </trkpt>
      <trkpt lat="49.98481" lon="2.069">
        <ele>11.7</ele>
        <time>2022-04-12T12:39:25Z</time>
      </trkpt>
      <trkpt lat="49.98482" lon="2.06899">
        <ele>11.7</ele>
        <time>2022-04-12T12:39:26Z</time>
      </trkpt>
      <trkpt lat="49.98484" lon="2.06897">
        <ele>11.7</ele>
        <time>2022-04-12T12:39:27Z</time>
      </trkpt>
      <trkpt lat="49.98484" lon="2.06897">
        <ele>11.7</ele>
        <time>2022-04-12T12:39:28Z</time>
      </trkpt>
      <trkpt lat="49.98485" lon="2.06896">
        <ele>11.7</ele>
        <time>2022-04-12T12:39:29Z</time>
      </trkpt>
      <trkpt lat="49.98486" lon="2.06895">
        <ele>11.7</ele>
        <time>2022-04-12T12:39:31Z</time>
      </trkpt>
      <trkpt lat="49.98487" lon="2.06894">
        <ele>11.7</ele>
        <time>2022-04-12T12:39:32Z</time>
      </trkpt>
      <trkpt lat="49.98488" lon="2.06892">
        <ele>11.7</ele>
        <time>2022-04-12T12:39:33Z</time>
      </trkpt>
      <trkpt lat="49.98488" lon="2.06892">
        <ele>11.7</ele>
        <time>2022-04-12T12:39:34Z</time>
      </trkpt>
      <trkpt lat="49.98489" lon="2.06891">
        <ele>11.7</ele>
        <time>2022-04-12T12:39:35Z</time>
      </trkpt>
      <trkpt lat="49.9849" lon="2.0689">
        <ele>11.7</ele>
        <time>2022-04-12T12:39:36Z</time>
      </trkpt>
      <trkpt lat="49.98491" lon="2.06889">
        <ele>11.7</ele>
        <time>2022-04-12T12:39:37Z</time>
      </trkpt>
      <trkpt lat="49.98492" lon="2.06889">
        <ele>11.7</ele>
        <time>2022-04-12T12:39:38Z</time>
      </trkpt>
      <trkpt lat="49.98493" lon="2.06887">
        <ele>11.7</ele>
        <time>2022-04-12T12:39:39Z</time>
      </trkpt>
      <trkpt lat="49.98495" lon="2.06886">
        <ele>11.7</ele>
        <time>2022-04-12T12:39:41Z</time>
      </trkpt>
      <trkpt lat="49.98495" lon="2.06885">
        <ele>11.7</ele>
        <time>2022-04-12T12:39:42Z</time>
      </trkpt>
      <trkpt lat="49.98496" lon="2.06884">
        <ele>11.7</ele>
        <time>2022-04-12T12:39:43Z</time>
      </trkpt>
      <trkpt lat="49.98497" lon="2.06883">
        <ele>11.7</ele>
        <time>2022-04-12T12:39:44Z</time>
      </trkpt>
      <trkpt lat="49.98498" lon="2.06882">
        <ele>11.7</ele>
        <time>2022-04-12T12:39:45Z</time>
      </trkpt>
      <trkpt lat="49.98499" lon="2.06881">
        <ele>11.7</ele>
        <time>2022-04-12T12:39:46Z</time>
      </trkpt>
      <trkpt lat="49.98501" lon="2.0688">
        <ele>11.7</ele>
        <time>2022-04-12T12:39:47Z</time>
      </trkpt>
      <trkpt lat="49.98501" lon="2.06879">
        <ele>11.7</ele>
        <time>2022-04-12T12:39:48Z</time>
      </trkpt>
      <trkpt lat="49.98502" lon="2.06878">
        <ele>11.7</ele>
        <time>2022-04-12T12:39:49Z</time>
      </trkpt>
      <trkpt lat="49.98503" lon="2.06877">
        <ele>11.7</ele>
        <time>2022-04-12T12:39:50Z</time>
      </trkpt>
      <trkpt lat="49.98504" lon="2.06876">
        <ele>11.7</ele>
        <time>2022-04-12T12:39:51Z</time>
      </trkpt>
      <trkpt lat="49.98505" lon="2.06875">
        <ele>11.7</ele>
        <time>2022-04-12T12:39:53Z</time>
      </trkpt>
      <trkpt lat="49.98506" lon="2.06874">
        <ele>11.7</ele>
        <time>2022-04-12T12:39:54Z</time>
      </trkpt>
      <trkpt lat="49.98507" lon="2.06873">
        <ele>11.7</ele>
        <time>2022-04-12T12:39:55Z</time>
      </trkpt>
      <trkpt lat="49.98508" lon="2.06872">
        <ele>11.7</ele>
        <time>2022-04-12T12:39:56Z</time>
      </trkpt>
      <trkpt lat="49.98509" lon="2.06871">
        <ele>11.7</ele>
        <time>2022-04-12T12:39:57Z</time>
      </trkpt>
      <trkpt lat="49.9851" lon="2.06871">
        <ele>11.7</ele>
        <time>2022-04-12T12:39:58Z</time>
      </trkpt>
      <trkpt lat="49.98511" lon="2.0687">
        <ele>11.7</ele>
        <time>2022-04-12T12:39:59Z</time>
      </trkpt>
      <trkpt lat="49.98512" lon="2.06869">
        <ele>11.7</ele>
        <time>2022-04-12T12:40:00Z</time>
      </trkpt>
      <trkpt lat="49.98514" lon="2.06868">
        <ele>11.7</ele>
        <time>2022-04-12T12:40:01Z</time>
      </trkpt>
      <trkpt lat="49.98515" lon="2.06867">
        <ele>11.7</ele>
        <time>2022-04-12T12:40:02Z</time>
      </trkpt>
      <trkpt lat="49.98516" lon="2.06865">
        <ele>11.7</ele>
        <time>2022-04-12T12:40:03Z</time>
      </trkpt>
      <trkpt lat="49.98517" lon="2.06864">
        <ele>11.7</ele>
        <time>2022-04-12T12:40:05Z</time>
      </trkpt>
      <trkpt lat="49.98519" lon="2.06863">
        <ele>11.7</ele>
        <time>2022-04-12T12:40:06Z</time>
      </trkpt>
      <trkpt lat="49.98519" lon="2.06862">
        <ele>11.7</ele>
        <time>2022-04-12T12:40:07Z</time>
      </trkpt>
      <trkpt lat="49.9852" lon="2.06861">
        <ele>11.7</ele>
        <time>2022-04-12T12:40:08Z</time>
      </trkpt>
      <trkpt lat="49.98521" lon="2.0686">
        <ele>11.7</ele>
        <time>2022-04-12T12:40:09Z</time>
      </trkpt>
      <trkpt lat="49.98522" lon="2.0686">
        <ele>11.7</ele>
        <time>2022-04-12T12:40:10Z</time>
      </trkpt>
      <trkpt lat="49.98523" lon="2.06859">
        <ele>11.7</ele>
        <time>2022-04-12T12:40:11Z</time>
      </trkpt>
      <trkpt lat="49.98524" lon="2.06858">
        <ele>11.7</ele>
        <time>2022-04-12T12:40:12Z</time>
      </trkpt>
      <trkpt lat="49.98525" lon="2.06856">
        <ele>11.7</ele>
        <time>2022-04-12T12:40:13Z</time>
      </trkpt>
      <trkpt lat="49.98527" lon="2.06855">
        <ele>11.7</ele>
        <time>2022-04-12T12:40:14Z</time>
      </trkpt>
      <trkpt lat="49.98528" lon="2.06854">
        <ele>11.7</ele>
        <time>2022-04-12T12:40:16Z</time>
      </trkpt>
      <trkpt lat="49.98529" lon="2.06854">
        <ele>11.7</ele>
        <time>2022-04-12T12:40:17Z</time>
      </trkpt>
      <trkpt lat="49.9853" lon="2.06852">
        <ele>11.7</ele>
        <time>2022-04-12T12:40:18Z</time>
      </trkpt>
      <trkpt lat="49.98531" lon="2.06852">
        <ele>11.7</ele>
        <time>2022-04-12T12:40:19Z</time>
      </trkpt>
      <trkpt lat="49.98532" lon="2.06851">
        <ele>11.7</ele>
        <time>2022-04-12T12:40:20Z</time>
      </trkpt>
      <trkpt lat="49.98533" lon="2.0685">
        <ele>11.7</ele>
        <time>2022-04-12T12:40:21Z</time>
      </trkpt>
      <trkpt lat="49.98534" lon="2.06849">
        <ele>11.7</ele>
        <time>2022-04-12T12:40:22Z</time>
      </trkpt>
      <trkpt lat="49.98536" lon="2.06847">
        <ele>11.7</ele>
        <time>2022-04-12T12:40:23Z</time>
      </trkpt>
      <trkpt lat="49.98537" lon="2.06847">
        <ele>11.7</ele>
        <time>2022-04-12T12:40:24Z</time>
      </trkpt>
      <trkpt lat="49.98537" lon="2.06846">
        <ele>11.7</ele>
        <time>2022-04-12T12:40:25Z</time>
      </trkpt>
      <trkpt lat="49.98538" lon="2.06845">
        <ele>11.7</ele>
        <time>2022-04-12T12:40:27Z</time>
      </trkpt>
      <trkpt lat="49.98539" lon="2.06844">
        <ele>11.7</ele>
        <time>2022-04-12T12:40:28Z</time>
      </trkpt>
      <trkpt lat="49.9854" lon="2.06843">
        <ele>11.7</ele>
        <time>2022-04-12T12:40:29Z</time>
      </trkpt>
      <trkpt lat="49.98541" lon="2.06843">
        <ele>11.7</ele>
        <time>2022-04-12T12:40:30Z</time>
      </trkpt>
      <trkpt lat="49.98542" lon="2.06842">
        <ele>11.7</ele>
        <time>2022-04-12T12:40:31Z</time>
      </trkpt>
      <trkpt lat="49.98542" lon="2.06841">
        <ele>11.7</ele>
        <time>2022-04-12T12:40:32Z</time>
      </trkpt>
      <trkpt lat="49.98543" lon="2.0684">
        <ele>11.7</ele>
        <time>2022-04-12T12:40:33Z</time>
      </trkpt>
      <trkpt lat="49.98544" lon="2.06839">
        <ele>11.7</ele>
        <time>2022-04-12T12:40:34Z</time>
      </trkpt>
      <trkpt lat="49.98545" lon="2.06838">
        <ele>11.7</ele>
        <time>2022-04-12T12:40:35Z</time>
      </trkpt>
      <trkpt lat="49.98546" lon="2.06837">
        <ele>11.7</ele>
        <time>2022-04-12T12:40:36Z</time>
      </trkpt>
      <trkpt lat="49.98547" lon="2.06837">
        <ele>11.7</ele>
        <time>2022-04-12T12:40:38Z</time>
      </trkpt>
      <trkpt lat="49.98548" lon="2.06836">
        <ele>11.7</ele>
        <time>2022-04-12T12:40:39Z</time>
      </trkpt>
      <trkpt lat="49.98549" lon="2.06835">
        <ele>11.7</ele>
        <time>2022-04-12T12:40:40Z</time>
      </trkpt>
      <trkpt lat="49.98549" lon="2.06834">
        <ele>11.7</ele>
        <time>2022-04-12T12:40:41Z</time>
      </trkpt>
      <trkpt lat="49.9855" lon="2.06833">
        <ele>11.7</ele>
        <time>2022-04-12T12:40:42Z</time>
      </trkpt>
      <trkpt lat="49.98552" lon="2.06831">
        <ele>11.7</ele>
        <time>2022-04-12T12:40:43Z</time>
      </trkpt>
      <trkpt lat="49.98553" lon="2.06831">
        <ele>11.7</ele>
        <time>2022-04-12T12:40:44Z</time>
      </trkpt>
      <trkpt lat="49.98554" lon="2.0683">
        <ele>11.7</ele>
        <time>2022-04-12T12:40:45Z</time>
      </trkpt>
      <trkpt lat="49.98555" lon="2.06829">
        <ele>11.7</ele>
        <time>2022-04-12T12:40:47Z</time>
      </trkpt>
      <trkpt lat="49.98556" lon="2.06828">
        <ele>11.7</ele>
        <time>2022-04-12T12:40:48Z</time>
      </trkpt>
      <trkpt lat="49.98557" lon="2.06827">
        <ele>11.7</ele>
        <time>2022-04-12T12:40:49Z</time>
      </trkpt>
      <trkpt lat="49.98558" lon="2.06825">
        <ele>11.7</ele>
        <time>2022-04-12T12:40:50Z</time>
      </trkpt>
      <trkpt lat="49.98559" lon="2.06825">
        <ele>11.7</ele>
        <time>2022-04-12T12:40:51Z</time>
      </trkpt>
      <trkpt lat="49.9856" lon="2.06824">
        <ele>11.7</ele>
        <time>2022-04-12T12:40:52Z</time>
      </trkpt>
      <trkpt lat="49.98562" lon="2.06822">
        <ele>11.7</ele>
        <time>2022-04-12T12:40:53Z</time>
      </trkpt>
      <trkpt lat="49.98563" lon="2.06822">
        <ele>11.7</ele>
        <time>2022-04-12T12:40:54Z</time>
      </trkpt>
      <trkpt lat="49.98563" lon="2.06821">
        <ele>11.7</ele>
        <time>2022-04-12T12:40:55Z</time>
      </trkpt>
      <trkpt lat="49.98565" lon="2.0682">
        <ele>11.7</ele>
        <time>2022-04-12T12:40:57Z</time>
      </trkpt>
      <trkpt lat="49.98566" lon="2.06819">
        <ele>11.7</ele>
        <time>2022-04-12T12:40:58Z</time>
      </trkpt>
      <trkpt lat="49.98567" lon="2.06817">
        <ele>11.7</ele>
        <time>2022-04-12T12:40:59Z</time>
      </trkpt>
      <trkpt lat="49.98568" lon="2.06816">
        <ele>11.7</ele>
        <time>2022-04-12T12:41:00Z</time>
      </trkpt>
      <trkpt lat="49.98569" lon="2.06816">
        <ele>11.7</ele>
        <time>2022-04-12T12:41:01Z</time>
      </trkpt>
      <trkpt lat="49.9857" lon="2.06815">
        <ele>11.7</ele>
        <time>2022-04-12T12:41:03Z</time>
      </trkpt>
      <trkpt lat="49.98571" lon="2.06814">
        <ele>11.7</ele>
        <time>2022-04-12T12:41:04Z</time>
      </trkpt>
      <trkpt lat="49.98573" lon="2.06812">
        <ele>11.7</ele>
        <time>2022-04-12T12:41:05Z</time>
      </trkpt>
      <trkpt lat="49.98574" lon="2.06811">
        <ele>11.7</ele>
        <time>2022-04-12T12:41:06Z</time>
      </trkpt>
      <trkpt lat="49.98574" lon="2.0681">
        <ele>11.7</ele>
        <time>2022-04-12T12:41:07Z</time>
      </trkpt>
      <trkpt lat="49.98575" lon="2.06809">
        <ele>11.7</ele>
        <time>2022-04-12T12:41:08Z</time>
      </trkpt>
      <trkpt lat="49.98576" lon="2.06808">
        <ele>11.7</ele>
        <time>2022-04-12T12:41:10Z</time>
      </trkpt>
      <trkpt lat="49.98577" lon="2.06807">
        <ele>11.7</ele>
        <time>2022-04-12T12:41:11Z</time>
      </trkpt>
      <trkpt lat="49.98578" lon="2.06806">
        <ele>11.7</ele>
        <time>2022-04-12T12:41:12Z</time>
      </trkpt>
      <trkpt lat="49.98579" lon="2.06805">
        <ele>11.7</ele>
        <time>2022-04-12T12:41:13Z</time>
      </trkpt>
      <trkpt lat="49.9858" lon="2.06804">
        <ele>11.7</ele>
        <time>2022-04-12T12:41:14Z</time>
      </trkpt>
      <trkpt lat="49.98581" lon="2.06803">
        <ele>11.7</ele>
        <time>2022-04-12T12:41:15Z</time>
      </trkpt>
      <trkpt lat="49.98582" lon="2.06802">
        <ele>11.7</ele>
        <time>2022-04-12T12:41:16Z</time>
      </trkpt>
      <trkpt lat="49.98583" lon="2.06801">
        <ele>11.7</ele>
        <time>2022-04-12T12:41:17Z</time>
      </trkpt>
      <trkpt lat="49.98584" lon="2.068">
        <ele>11.7</ele>
        <time>2022-04-12T12:41:18Z</time>
      </trkpt>
      <trkpt lat="49.98585" lon="2.06799">
        <ele>11.7</ele>
        <time>2022-04-12T12:41:20Z</time>
      </trkpt>
      <trkpt lat="49.98585" lon="2.06798">
        <ele>11.7</ele>
        <time>2022-04-12T12:41:21Z</time>
      </trkpt>
      <trkpt lat="49.98586" lon="2.06798">
        <ele>11.7</ele>
        <time>2022-04-12T12:41:22Z</time>
      </trkpt>
      <trkpt lat="49.98587" lon="2.06797">
        <ele>11.7</ele>
        <time>2022-04-12T12:41:23Z</time>
      </trkpt>
      <trkpt lat="49.98588" lon="2.06796">
        <ele>11.7</ele>
        <time>2022-04-12T12:41:24Z</time>
      </trkpt>
      <trkpt lat="49.98589" lon="2.06795">
        <ele>11.7</ele>
        <time>2022-04-12T12:41:25Z</time>
      </trkpt>
      <trkpt lat="49.9859" lon="2.06794">
        <ele>11.7</ele>
        <time>2022-04-12T12:41:26Z</time>
      </trkpt>
      <trkpt lat="49.98591" lon="2.06793">
        <ele>11.7</ele>
        <time>2022-04-12T12:41:27Z</time>
      </trkpt>
      <trkpt lat="49.98593" lon="2.06792">
        <ele>11.7</ele>
        <time>2022-04-12T12:41:28Z</time>
      </trkpt>
      <trkpt lat="49.98594" lon="2.06791">
        <ele>11.7</ele>
        <time>2022-04-12T12:41:29Z</time>
      </trkpt>
      <trkpt lat="49.98595" lon="2.0679">
        <ele>11.7</ele>
        <time>2022-04-12T12:41:30Z</time>
      </trkpt>
      <trkpt lat="49.98596" lon="2.06789">
        <ele>11.7</ele>
        <time>2022-04-12T12:41:31Z</time>
      </trkpt>
      <trkpt lat="49.98597" lon="2.06788">
        <ele>11.7</ele>
        <time>2022-04-12T12:41:33Z</time>
      </trkpt>
      <trkpt lat="49.98599" lon="2.06786">
        <ele>11.7</ele>
        <time>2022-04-12T12:41:34Z</time>
      </trkpt>
      <trkpt lat="49.98599" lon="2.06786">
        <ele>11.7</ele>
        <time>2022-04-12T12:41:35Z</time>
      </trkpt>
      <trkpt lat="49.986" lon="2.06785">
        <ele>11.7</ele>
        <time>2022-04-12T12:41:36Z</time>
      </trkpt>
      <trkpt lat="49.98601" lon="2.06784">
        <ele>11.7</ele>
        <time>2022-04-12T12:41:37Z</time>
      </trkpt>
      <trkpt lat="49.98602" lon="2.06784">
        <ele>11.7</ele>
        <time>2022-04-12T12:41:38Z</time>
      </trkpt>
      <trkpt lat="49.98603" lon="2.06783">
        <ele>11.7</ele>
        <time>2022-04-12T12:41:39Z</time>
      </trkpt>
      <trkpt lat="49.98604" lon="2.06782">
        <ele>11.7</ele>
        <time>2022-04-12T12:41:41Z</time>
      </trkpt>
      <trkpt lat="49.98605" lon="2.0678">
        <ele>11.6</ele>
        <time>2022-04-12T12:41:42Z</time>
      </trkpt>
      <trkpt lat="49.98606" lon="2.0678">
        <ele>11.6</ele>
        <time>2022-04-12T12:41:43Z</time>
      </trkpt>
      <trkpt lat="49.98607" lon="2.06779">
        <ele>11.6</ele>
        <time>2022-04-12T12:41:44Z</time>
      </trkpt>
      <trkpt lat="49.98608" lon="2.06777">
        <ele>11.6</ele>
        <time>2022-04-12T12:41:45Z</time>
      </trkpt>
      <trkpt lat="49.98609" lon="2.06775">
        <ele>11.6</ele>
        <time>2022-04-12T12:41:46Z</time>
      </trkpt>
      <trkpt lat="49.9861" lon="2.06774">
        <ele>11.6</ele>
        <time>2022-04-12T12:41:47Z</time>
      </trkpt>
      <trkpt lat="49.98611" lon="2.06774">
        <ele>11.6</ele>
        <time>2022-04-12T12:41:48Z</time>
      </trkpt>
      <trkpt lat="49.98612" lon="2.06772">
        <ele>11.6</ele>
        <time>2022-04-12T12:41:49Z</time>
      </trkpt>
      <trkpt lat="49.98613" lon="2.06771">
        <ele>11.6</ele>
        <time>2022-04-12T12:41:51Z</time>
      </trkpt>
      <trkpt lat="49.98614" lon="2.0677">
        <ele>11.6</ele>
        <time>2022-04-12T12:41:52Z</time>
      </trkpt>
      <trkpt lat="49.98615" lon="2.06769">
        <ele>11.6</ele>
        <time>2022-04-12T12:41:53Z</time>
      </trkpt>
      <trkpt lat="49.98616" lon="2.06767">
        <ele>11.6</ele>
        <time>2022-04-12T12:41:54Z</time>
      </trkpt>
      <trkpt lat="49.98617" lon="2.06766">
        <ele>11.6</ele>
        <time>2022-04-12T12:41:55Z</time>
      </trkpt>
      <trkpt lat="49.98618" lon="2.06765">
        <ele>11.6</ele>
        <time>2022-04-12T12:41:57Z</time>
      </trkpt>
      <trkpt lat="49.98619" lon="2.06764">
        <ele>11.6</ele>
        <time>2022-04-12T12:41:58Z</time>
      </trkpt>
      <trkpt lat="49.9862" lon="2.06763">
        <ele>11.6</ele>
        <time>2022-04-12T12:41:59Z</time>
      </trkpt>
      <trkpt lat="49.98621" lon="2.06762">
        <ele>11.6</ele>
        <time>2022-04-12T12:42:00Z</time>
      </trkpt>
      <trkpt lat="49.98622" lon="2.06762">
        <ele>11.6</ele>
        <time>2022-04-12T12:42:01Z</time>
      </trkpt>
      <trkpt lat="49.98623" lon="2.06763">
        <ele>11.6</ele>
        <time>2022-04-12T12:42:02Z</time>
      </trkpt>
      <trkpt lat="49.98624" lon="2.06764">
        <ele>11.6</ele>
        <time>2022-04-12T12:42:03Z</time>
      </trkpt>
      <trkpt lat="49.98624" lon="2.06764">
        <ele>11.6</ele>
        <time>2022-04-12T12:42:04Z</time>
      </trkpt>
      <trkpt lat="49.98624" lon="2.06765">
        <ele>11.6</ele>
        <time>2022-04-12T12:42:05Z</time>
      </trkpt>
      <trkpt lat="49.98624" lon="2.06765">
        <ele>11.6</ele>
        <time>2022-04-12T12:42:06Z</time>
      </trkpt>
      <trkpt lat="49.98624" lon="2.06765">
        <ele>11.6</ele>
        <time>2022-04-12T12:42:07Z</time>
      </trkpt>
      <trkpt lat="49.98624" lon="2.06765">
        <ele>11.6</ele>
        <time>2022-04-12T12:42:08Z</time>
      </trkpt>
      <trkpt lat="49.98623" lon="2.06765">
        <ele>11.6</ele>
        <time>2022-04-12T12:42:09Z</time>
      </trkpt>
      <trkpt lat="49.98623" lon="2.06765">
        <ele>11.6</ele>
        <time>2022-04-12T12:42:10Z</time>
      </trkpt>
      <trkpt lat="49.98622" lon="2.06765">
        <ele>11.6</ele>
        <time>2022-04-12T12:42:11Z</time>
      </trkpt>
      <trkpt lat="49.98622" lon="2.06765">
        <ele>11.6</ele>
        <time>2022-04-12T12:42:12Z</time>
      </trkpt>
      <trkpt lat="49.98622" lon="2.06765">
        <ele>11.6</ele>
        <time>2022-04-12T12:42:13Z</time>
      </trkpt>
      <trkpt lat="49.98622" lon="2.06765">
        <ele>11.6</ele>
        <time>2022-04-12T12:42:14Z</time>
      </trkpt>
      <trkpt lat="49.98622" lon="2.06765">
        <ele>11.6</ele>
        <time>2022-04-12T12:42:15Z</time>
      </trkpt>
      <trkpt lat="49.98622" lon="2.06765">
        <ele>11.6</ele>
        <time>2022-04-12T12:42:16Z</time>
      </trkpt>
      <trkpt lat="49.98622" lon="2.06765">
        <ele>11.6</ele>
        <time>2022-04-12T12:42:17Z</time>
      </trkpt>
      <trkpt lat="49.98622" lon="2.06765">
        <ele>11.6</ele>
        <time>2022-04-12T12:42:18Z</time>
      </trkpt>
      <trkpt lat="49.98622" lon="2.06765">
        <ele>11.6</ele>
        <time>2022-04-12T12:42:19Z</time>
      </trkpt>
      <trkpt lat="49.98621" lon="2.06765">
        <ele>11.6</ele>
        <time>2022-04-12T12:42:20Z</time>
      </trkpt>
      <trkpt lat="49.98621" lon="2.06765">
        <ele>11.6</ele>
        <time>2022-04-12T12:42:21Z</time>
      </trkpt>
      <trkpt lat="49.98621" lon="2.06765">
        <ele>11.6</ele>
        <time>2022-04-12T12:42:22Z</time>
      </trkpt>
      <trkpt lat="49.98621" lon="2.06765">
        <ele>11.6</ele>
        <time>2022-04-12T12:42:23Z</time>
      </trkpt>
      <trkpt lat="49.98621" lon="2.06765">
        <ele>11.6</ele>
        <time>2022-04-12T12:42:24Z</time>
      </trkpt>
      <trkpt lat="49.98621" lon="2.06765">
        <ele>11.6</ele>
        <time>2022-04-12T12:42:25Z</time>
      </trkpt>
      <trkpt lat="49.98621" lon="2.06765">
        <ele>11.6</ele>
        <time>2022-04-12T12:42:26Z</time>
      </trkpt>
      <trkpt lat="49.98621" lon="2.06765">
        <ele>11.6</ele>
        <time>2022-04-12T12:42:27Z</time>
      </trkpt>
      <trkpt lat="49.98621" lon="2.06765">
        <ele>11.6</ele>
        <time>2022-04-12T12:42:28Z</time>
      </trkpt>
      <trkpt lat="49.98621" lon="2.06765">
        <ele>11.6</ele>
        <time>2022-04-12T12:42:29Z</time>
      </trkpt>
      <trkpt lat="49.98621" lon="2.06765">
        <ele>11.6</ele>
        <time>2022-04-12T12:42:30Z</time>
      </trkpt>
      <trkpt lat="49.98621" lon="2.06765">
        <ele>11.6</ele>
        <time>2022-04-12T12:42:31Z</time>
      </trkpt>
      <trkpt lat="49.98621" lon="2.06765">
        <ele>11.6</ele>
        <time>2022-04-12T12:42:32Z</time>
      </trkpt>
      <trkpt lat="49.98621" lon="2.06765">
        <ele>11.6</ele>
        <time>2022-04-12T12:42:33Z</time>
      </trkpt>
      <trkpt lat="49.9862" lon="2.06765">
        <ele>11.6</ele>
        <time>2022-04-12T12:42:34Z</time>
      </trkpt>
      <trkpt lat="49.9862" lon="2.06765">
        <ele>11.6</ele>
        <time>2022-04-12T12:42:35Z</time>
      </trkpt>
      <trkpt lat="49.98619" lon="2.06765">
        <ele>11.6</ele>
        <time>2022-04-12T12:42:36Z</time>
      </trkpt>
      <trkpt lat="49.98619" lon="2.06765">
        <ele>11.6</ele>
        <time>2022-04-12T12:42:37Z</time>
      </trkpt>
      <trkpt lat="49.9862" lon="2.06764">
        <ele>11.6</ele>
        <time>2022-04-12T12:42:38Z</time>
      </trkpt>
      <trkpt lat="49.9862" lon="2.06764">
        <ele>11.6</ele>
        <time>2022-04-12T12:42:39Z</time>
      </trkpt>
      <trkpt lat="49.98621" lon="2.06764">
        <ele>11.6</ele>
        <time>2022-04-12T12:42:40Z</time>
      </trkpt>
      <trkpt lat="49.98622" lon="2.06763">
        <ele>11.6</ele>
        <time>2022-04-12T12:42:41Z</time>
      </trkpt>
      <trkpt lat="49.98624" lon="2.06762">
        <ele>11.6</ele>
        <time>2022-04-12T12:42:42Z</time>
      </trkpt>
      <trkpt lat="49.98625" lon="2.06761">
        <ele>11.6</ele>
        <time>2022-04-12T12:42:44Z</time>
      </trkpt>
      <trkpt lat="49.98626" lon="2.0676">
        <ele>11.6</ele>
        <time>2022-04-12T12:42:45Z</time>
      </trkpt>
      <trkpt lat="49.98627" lon="2.06759">
        <ele>11.6</ele>
        <time>2022-04-12T12:42:46Z</time>
      </trkpt>
      <trkpt lat="49.98628" lon="2.06758">
        <ele>11.6</ele>
        <time>2022-04-12T12:42:47Z</time>
      </trkpt>
      <trkpt lat="49.9863" lon="2.06756">
        <ele>11.6</ele>
        <time>2022-04-12T12:42:49Z</time>
      </trkpt>
      <trkpt lat="49.98631" lon="2.06755">
        <ele>11.6</ele>
        <time>2022-04-12T12:42:50Z</time>
      </trkpt>
      <trkpt lat="49.98631" lon="2.06755">
        <ele>11.6</ele>
        <time>2022-04-12T12:42:51Z</time>
      </trkpt>
      <trkpt lat="49.98633" lon="2.06753">
        <ele>11.6</ele>
        <time>2022-04-12T12:42:52Z</time>
      </trkpt>
      <trkpt lat="49.98634" lon="2.06753">
        <ele>11.6</ele>
        <time>2022-04-12T12:42:53Z</time>
      </trkpt>
      <trkpt lat="49.98635" lon="2.06752">
        <ele>11.6</ele>
        <time>2022-04-12T12:42:54Z</time>
      </trkpt>
      <trkpt lat="49.98636" lon="2.06751">
        <ele>11.6</ele>
        <time>2022-04-12T12:42:55Z</time>
      </trkpt>
      <trkpt lat="49.98637" lon="2.06749">
        <ele>11.6</ele>
        <time>2022-04-12T12:42:56Z</time>
      </trkpt>
      <trkpt lat="49.98638" lon="2.06748">
        <ele>11.6</ele>
        <time>2022-04-12T12:42:57Z</time>
      </trkpt>
      <trkpt lat="49.98639" lon="2.06747">
        <ele>11.6</ele>
        <time>2022-04-12T12:42:58Z</time>
      </trkpt>
      <trkpt lat="49.98641" lon="2.06745">
        <ele>11.6</ele>
        <time>2022-04-12T12:43:00Z</time>
      </trkpt>
      <trkpt lat="49.98641" lon="2.06744">
        <ele>11.6</ele>
        <time>2022-04-12T12:43:01Z</time>
      </trkpt>
      <trkpt lat="49.98642" lon="2.06743">
        <ele>11.6</ele>
        <time>2022-04-12T12:43:02Z</time>
      </trkpt>
      <trkpt lat="49.98643" lon="2.06742">
        <ele>11.6</ele>
        <time>2022-04-12T12:43:03Z</time>
      </trkpt>
      <trkpt lat="49.98644" lon="2.0674">
        <ele>11.6</ele>
        <time>2022-04-12T12:43:04Z</time>
      </trkpt>
      <trkpt lat="49.98646" lon="2.06739">
        <ele>11.6</ele>
        <time>2022-04-12T12:43:05Z</time>
      </trkpt>
      <trkpt lat="49.98647" lon="2.06738">
        <ele>11.5</ele>
        <time>2022-04-12T12:43:06Z</time>
      </trkpt>
      <trkpt lat="49.98649" lon="2.06737">
        <ele>11.5</ele>
        <time>2022-04-12T12:43:07Z</time>
      </trkpt>
      <trkpt lat="49.9865" lon="2.06735">
        <ele>11.5</ele>
        <time>2022-04-12T12:43:09Z</time>
      </trkpt>
      <trkpt lat="49.98651" lon="2.06733">
        <ele>11.5</ele>
        <time>2022-04-12T12:43:10Z</time>
      </trkpt>
      <trkpt lat="49.98652" lon="2.06732">
        <ele>11.5</ele>
        <time>2022-04-12T12:43:11Z</time>
      </trkpt>
      <trkpt lat="49.98654" lon="2.0673">
        <ele>11.5</ele>
        <time>2022-04-12T12:43:12Z</time>
      </trkpt>
      <trkpt lat="49.98655" lon="2.06729">
        <ele>11.5</ele>
        <time>2022-04-12T12:43:13Z</time>
      </trkpt>
      <trkpt lat="49.98655" lon="2.06728">
        <ele>11.5</ele>
        <time>2022-04-12T12:43:14Z</time>
      </trkpt>
      <trkpt lat="49.98656" lon="2.06726">
        <ele>11.5</ele>
        <time>2022-04-12T12:43:15Z</time>
      </trkpt>
      <trkpt lat="49.98658" lon="2.06725">
        <ele>11.5</ele>
        <time>2022-04-12T12:43:17Z</time>
      </trkpt>
      <trkpt lat="49.98659" lon="2.06724">
        <ele>11.5</ele>
        <time>2022-04-12T12:43:18Z</time>
      </trkpt>
      <trkpt lat="49.9866" lon="2.06723">
        <ele>11.5</ele>
        <time>2022-04-12T12:43:19Z</time>
      </trkpt>
      <trkpt lat="49.98661" lon="2.06722">
        <ele>11.5</ele>
        <time>2022-04-12T12:43:20Z</time>
      </trkpt>
      <trkpt lat="49.98662" lon="2.0672">
        <ele>11.5</ele>
        <time>2022-04-12T12:43:21Z</time>
      </trkpt>
      <trkpt lat="49.98663" lon="2.0672">
        <ele>11.5</ele>
        <time>2022-04-12T12:43:22Z</time>
      </trkpt>
      <trkpt lat="49.98664" lon="2.06719">
        <ele>11.5</ele>
        <time>2022-04-12T12:43:23Z</time>
      </trkpt>
      <trkpt lat="49.98666" lon="2.06717">
        <ele>11.5</ele>
        <time>2022-04-12T12:43:24Z</time>
      </trkpt>
      <trkpt lat="49.98667" lon="2.06717">
        <ele>11.5</ele>
        <time>2022-04-12T12:43:26Z</time>
      </trkpt>
      <trkpt lat="49.98667" lon="2.06716">
        <ele>11.5</ele>
        <time>2022-04-12T12:43:27Z</time>
      </trkpt>
      <trkpt lat="49.98668" lon="2.06715">
        <ele>11.5</ele>
        <time>2022-04-12T12:43:28Z</time>
      </trkpt>
      <trkpt lat="49.98669" lon="2.06714">
        <ele>11.5</ele>
        <time>2022-04-12T12:43:29Z</time>
      </trkpt>
      <trkpt lat="49.9867" lon="2.06714">
        <ele>11.5</ele>
        <time>2022-04-12T12:43:30Z</time>
      </trkpt>
      <trkpt lat="49.98671" lon="2.06713">
        <ele>11.5</ele>
        <time>2022-04-12T12:43:31Z</time>
      </trkpt>
      <trkpt lat="49.98672" lon="2.06712">
        <ele>11.5</ele>
        <time>2022-04-12T12:43:32Z</time>
      </trkpt>
      <trkpt lat="49.98673" lon="2.06711">
        <ele>11.5</ele>
        <time>2022-04-12T12:43:33Z</time>
      </trkpt>
      <trkpt lat="49.98674" lon="2.0671">
        <ele>11.5</ele>
        <time>2022-04-12T12:43:34Z</time>
      </trkpt>
      <trkpt lat="49.98675" lon="2.06709">
        <ele>11.5</ele>
        <time>2022-04-12T12:43:35Z</time>
      </trkpt>
      <trkpt lat="49.98676" lon="2.06708">
        <ele>11.5</ele>
        <time>2022-04-12T12:43:36Z</time>
      </trkpt>
      <trkpt lat="49.98677" lon="2.06708">
        <ele>11.5</ele>
        <time>2022-04-12T12:43:37Z</time>
      </trkpt>
      <trkpt lat="49.98678" lon="2.06707">
        <ele>11.5</ele>
        <time>2022-04-12T12:43:38Z</time>
      </trkpt>
      <trkpt lat="49.98679" lon="2.06706">
        <ele>11.5</ele>
        <time>2022-04-12T12:43:39Z</time>
      </trkpt>
      <trkpt lat="49.98681" lon="2.06704">
        <ele>11.5</ele>
        <time>2022-04-12T12:43:40Z</time>
      </trkpt>
      <trkpt lat="49.98682" lon="2.06703">
        <ele>11.5</ele>
        <time>2022-04-12T12:43:42Z</time>
      </trkpt>
      <trkpt lat="49.98683" lon="2.06702">
        <ele>11.5</ele>
        <time>2022-04-12T12:43:43Z</time>
      </trkpt>
      <trkpt lat="49.98684" lon="2.06701">
        <ele>11.5</ele>
        <time>2022-04-12T12:43:44Z</time>
      </trkpt>
      <trkpt lat="49.98685" lon="2.06701">
        <ele>11.5</ele>
        <time>2022-04-12T12:43:45Z</time>
      </trkpt>
      <trkpt lat="49.98686" lon="2.06699">
        <ele>11.5</ele>
        <time>2022-04-12T12:43:46Z</time>
      </trkpt>
      <trkpt lat="49.98687" lon="2.06698">
        <ele>11.5</ele>
        <time>2022-04-12T12:43:47Z</time>
      </trkpt>
      <trkpt lat="49.98688" lon="2.06697">
        <ele>11.5</ele>
        <time>2022-04-12T12:43:48Z</time>
      </trkpt>
      <trkpt lat="49.98689" lon="2.06696">
        <ele>11.5</ele>
        <time>2022-04-12T12:43:49Z</time>
      </trkpt>
      <trkpt lat="49.9869" lon="2.06695">
        <ele>11.6</ele>
        <time>2022-04-12T12:43:50Z</time>
      </trkpt>
      <trkpt lat="49.98691" lon="2.06694">
        <ele>11.6</ele>
        <time>2022-04-12T12:43:52Z</time>
      </trkpt>
      <trkpt lat="49.98692" lon="2.06693">
        <ele>11.6</ele>
        <time>2022-04-12T12:43:53Z</time>
      </trkpt>
      <trkpt lat="49.98693" lon="2.06692">
        <ele>11.6</ele>
        <time>2022-04-12T12:43:54Z</time>
      </trkpt>
      <trkpt lat="49.98695" lon="2.0669">
        <ele>11.6</ele>
        <time>2022-04-12T12:43:55Z</time>
      </trkpt>
      <trkpt lat="49.98696" lon="2.0669">
        <ele>11.6</ele>
        <time>2022-04-12T12:43:56Z</time>
      </trkpt>
      <trkpt lat="49.98697" lon="2.06689">
        <ele>11.6</ele>
        <time>2022-04-12T12:43:57Z</time>
      </trkpt>
      <trkpt lat="49.98698" lon="2.06688">
        <ele>11.6</ele>
        <time>2022-04-12T12:43:58Z</time>
      </trkpt>
      <trkpt lat="49.98699" lon="2.06687">
        <ele>11.6</ele>
        <time>2022-04-12T12:43:59Z</time>
      </trkpt>
      <trkpt lat="49.98701" lon="2.06686">
        <ele>11.6</ele>
        <time>2022-04-12T12:44:00Z</time>
      </trkpt>
      <trkpt lat="49.98702" lon="2.06685">
        <ele>11.6</ele>
        <time>2022-04-12T12:44:01Z</time>
      </trkpt>
      <trkpt lat="49.98703" lon="2.06685">
        <ele>11.6</ele>
        <time>2022-04-12T12:44:02Z</time>
      </trkpt>
      <trkpt lat="49.98704" lon="2.06684">
        <ele>11.7</ele>
        <time>2022-04-12T12:44:03Z</time>
      </trkpt>
      <trkpt lat="49.98705" lon="2.06683">
        <ele>11.7</ele>
        <time>2022-04-12T12:44:05Z</time>
      </trkpt>
      <trkpt lat="49.98706" lon="2.06682">
        <ele>11.7</ele>
        <time>2022-04-12T12:44:06Z</time>
      </trkpt>
      <trkpt lat="49.98706" lon="2.06681">
        <ele>11.7</ele>
        <time>2022-04-12T12:44:07Z</time>
      </trkpt>
      <trkpt lat="49.98707" lon="2.0668">
        <ele>11.7</ele>
        <time>2022-04-12T12:44:08Z</time>
      </trkpt>
      <trkpt lat="49.98708" lon="2.06679">
        <ele>11.7</ele>
        <time>2022-04-12T12:44:09Z</time>
      </trkpt>
      <trkpt lat="49.9871" lon="2.06677">
        <ele>11.7</ele>
        <time>2022-04-12T12:44:10Z</time>
      </trkpt>
      <trkpt lat="49.98711" lon="2.06677">
        <ele>11.7</ele>
        <time>2022-04-12T12:44:11Z</time>
      </trkpt>
      <trkpt lat="49.98712" lon="2.06676">
        <ele>11.7</ele>
        <time>2022-04-12T12:44:12Z</time>
      </trkpt>
      <trkpt lat="49.98713" lon="2.06675">
        <ele>11.7</ele>
        <time>2022-04-12T12:44:13Z</time>
      </trkpt>
      <trkpt lat="49.98714" lon="2.06674">
        <ele>11.7</ele>
        <time>2022-04-12T12:44:14Z</time>
      </trkpt>
      <trkpt lat="49.98715" lon="2.06674">
        <ele>11.8</ele>
        <time>2022-04-12T12:44:16Z</time>
      </trkpt>
      <trkpt lat="49.98716" lon="2.06673">
        <ele>11.8</ele>
        <time>2022-04-12T12:44:17Z</time>
      </trkpt>
      <trkpt lat="49.98717" lon="2.06673">
        <ele>11.8</ele>
        <time>2022-04-12T12:44:18Z</time>
      </trkpt>
      <trkpt lat="49.98718" lon="2.06672">
        <ele>11.8</ele>
        <time>2022-04-12T12:44:19Z</time>
      </trkpt>
      <trkpt lat="49.98719" lon="2.06671">
        <ele>11.8</ele>
        <time>2022-04-12T12:44:20Z</time>
      </trkpt>
      <trkpt lat="49.98719" lon="2.06671">
        <ele>11.8</ele>
        <time>2022-04-12T12:44:21Z</time>
      </trkpt>
      <trkpt lat="49.98721" lon="2.06669">
        <ele>11.8</ele>
        <time>2022-04-12T12:44:22Z</time>
      </trkpt>
      <trkpt lat="49.98722" lon="2.06667">
        <ele>11.8</ele>
        <time>2022-04-12T12:44:23Z</time>
      </trkpt>
      <trkpt lat="49.98723" lon="2.06666">
        <ele>11.8</ele>
        <time>2022-04-12T12:44:24Z</time>
      </trkpt>
      <trkpt lat="49.98723" lon="2.06665">
        <ele>11.8</ele>
        <time>2022-04-12T12:44:25Z</time>
      </trkpt>
      <trkpt lat="49.98724" lon="2.06664">
        <ele>11.8</ele>
        <time>2022-04-12T12:44:27Z</time>
      </trkpt>
      <trkpt lat="49.98725" lon="2.06662">
        <ele>11.8</ele>
        <time>2022-04-12T12:44:28Z</time>
      </trkpt>
      <trkpt lat="49.98725" lon="2.06661">
        <ele>11.8</ele>
        <time>2022-04-12T12:44:29Z</time>
      </trkpt>
      <trkpt lat="49.98726" lon="2.0666">
        <ele>11.8</ele>
        <time>2022-04-12T12:44:30Z</time>
      </trkpt>
      <trkpt lat="49.98727" lon="2.06659">
        <ele>11.8</ele>
        <time>2022-04-12T12:44:31Z</time>
      </trkpt>
      <trkpt lat="49.98728" lon="2.06658">
        <ele>11.8</ele>
        <time>2022-04-12T12:44:32Z</time>
      </trkpt>
      <trkpt lat="49.98729" lon="2.06656">
        <ele>11.8</ele>
        <time>2022-04-12T12:44:33Z</time>
      </trkpt>
      <trkpt lat="49.9873" lon="2.06656">
        <ele>11.8</ele>
        <time>2022-04-12T12:44:34Z</time>
      </trkpt>
      <trkpt lat="49.98731" lon="2.06655">
        <ele>11.8</ele>
        <time>2022-04-12T12:44:35Z</time>
      </trkpt>
      <trkpt lat="49.98733" lon="2.06653">
        <ele>11.8</ele>
        <time>2022-04-12T12:44:36Z</time>
      </trkpt>
      <trkpt lat="49.98733" lon="2.06652">
        <ele>11.8</ele>
        <time>2022-04-12T12:44:37Z</time>
      </trkpt>
      <trkpt lat="49.98734" lon="2.06651">
        <ele>11.9</ele>
        <time>2022-04-12T12:44:38Z</time>
      </trkpt>
      <trkpt lat="49.98736" lon="2.06649">
        <ele>11.9</ele>
        <time>2022-04-12T12:44:39Z</time>
      </trkpt>
      <trkpt lat="49.98737" lon="2.06649">
        <ele>11.9</ele>
        <time>2022-04-12T12:44:40Z</time>
      </trkpt>
      <trkpt lat="49.98738" lon="2.06648">
        <ele>11.9</ele>
        <time>2022-04-12T12:44:42Z</time>
      </trkpt>
      <trkpt lat="49.98738" lon="2.06647">
        <ele>11.9</ele>
        <time>2022-04-12T12:44:43Z</time>
      </trkpt>
      <trkpt lat="49.98739" lon="2.06647">
        <ele>11.9</ele>
        <time>2022-04-12T12:44:44Z</time>
      </trkpt>
      <trkpt lat="49.9874" lon="2.06646">
        <ele>11.9</ele>
        <time>2022-04-12T12:44:45Z</time>
      </trkpt>
      <trkpt lat="49.98742" lon="2.06645">
        <ele>11.9</ele>
        <time>2022-04-12T12:44:46Z</time>
      </trkpt>
      <trkpt lat="49.98743" lon="2.06644">
        <ele>11.9</ele>
        <time>2022-04-12T12:44:47Z</time>
      </trkpt>
      <trkpt lat="49.98743" lon="2.06644">
        <ele>11.9</ele>
        <time>2022-04-12T12:44:48Z</time>
      </trkpt>
      <trkpt lat="49.98744" lon="2.06642">
        <ele>11.9</ele>
        <time>2022-04-12T12:44:49Z</time>
      </trkpt>
      <trkpt lat="49.98746" lon="2.06641">
        <ele>11.9</ele>
        <time>2022-04-12T12:44:50Z</time>
      </trkpt>
      <trkpt lat="49.98748" lon="2.06639">
        <ele>11.9</ele>
        <time>2022-04-12T12:44:51Z</time>
      </trkpt>
      <trkpt lat="49.98748" lon="2.06639">
        <ele>11.9</ele>
        <time>2022-04-12T12:44:52Z</time>
      </trkpt>
      <trkpt lat="49.98749" lon="2.06638">
        <ele>11.9</ele>
        <time>2022-04-12T12:44:54Z</time>
      </trkpt>
      <trkpt lat="49.9875" lon="2.06637">
        <ele>11.9</ele>
        <time>2022-04-12T12:44:55Z</time>
      </trkpt>
      <trkpt lat="49.98751" lon="2.06636">
        <ele>11.9</ele>
        <time>2022-04-12T12:44:56Z</time>
      </trkpt>
      <trkpt lat="49.98752" lon="2.06635">
        <ele>11.9</ele>
        <time>2022-04-12T12:44:57Z</time>
      </trkpt>
      <trkpt lat="49.98753" lon="2.06634">
        <ele>11.9</ele>
        <time>2022-04-12T12:44:58Z</time>
      </trkpt>
      <trkpt lat="49.98754" lon="2.06633">
        <ele>11.9</ele>
        <time>2022-04-12T12:44:59Z</time>
      </trkpt>
      <trkpt lat="49.98755" lon="2.06632">
        <ele>11.9</ele>
        <time>2022-04-12T12:45:00Z</time>
      </trkpt>
      <trkpt lat="49.98757" lon="2.06631">
        <ele>12</ele>
        <time>2022-04-12T12:45:01Z</time>
      </trkpt>
      <trkpt lat="49.98757" lon="2.0663">
        <ele>12</ele>
        <time>2022-04-12T12:45:02Z</time>
      </trkpt>
      <trkpt lat="49.98758" lon="2.06629">
        <ele>12</ele>
        <time>2022-04-12T12:45:03Z</time>
      </trkpt>
      <trkpt lat="49.98759" lon="2.06628">
        <ele>12</ele>
        <time>2022-04-12T12:45:04Z</time>
      </trkpt>
      <trkpt lat="49.9876" lon="2.06628">
        <ele>12</ele>
        <time>2022-04-12T12:45:06Z</time>
      </trkpt>
      <trkpt lat="49.98761" lon="2.06627">
        <ele>12</ele>
        <time>2022-04-12T12:45:07Z</time>
      </trkpt>
      <trkpt lat="49.98762" lon="2.06626">
        <ele>12</ele>
        <time>2022-04-12T12:45:08Z</time>
      </trkpt>
      <trkpt lat="49.98763" lon="2.06625">
        <ele>12</ele>
        <time>2022-04-12T12:45:09Z</time>
      </trkpt>
      <trkpt lat="49.98764" lon="2.06624">
        <ele>12</ele>
        <time>2022-04-12T12:45:10Z</time>
      </trkpt>
      <trkpt lat="49.98765" lon="2.06623">
        <ele>12</ele>
        <time>2022-04-12T12:45:11Z</time>
      </trkpt>
      <trkpt lat="49.98766" lon="2.06622">
        <ele>12</ele>
        <time>2022-04-12T12:45:12Z</time>
      </trkpt>
      <trkpt lat="49.98767" lon="2.06621">
        <ele>12</ele>
        <time>2022-04-12T12:45:13Z</time>
      </trkpt>
      <trkpt lat="49.98769" lon="2.06619">
        <ele>12</ele>
        <time>2022-04-12T12:45:14Z</time>
      </trkpt>
      <trkpt lat="49.9877" lon="2.06618">
        <ele>12</ele>
        <time>2022-04-12T12:45:15Z</time>
      </trkpt>
      <trkpt lat="49.98771" lon="2.06617">
        <ele>12</ele>
        <time>2022-04-12T12:45:17Z</time>
      </trkpt>
      <trkpt lat="49.98771" lon="2.06616">
        <ele>12</ele>
        <time>2022-04-12T12:45:18Z</time>
      </trkpt>
      <trkpt lat="49.98772" lon="2.06616">
        <ele>12</ele>
        <time>2022-04-12T12:45:19Z</time>
      </trkpt>
      <trkpt lat="49.98773" lon="2.06615">
        <ele>12</ele>
        <time>2022-04-12T12:45:20Z</time>
      </trkpt>
      <trkpt lat="49.98775" lon="2.06613">
        <ele>12</ele>
        <time>2022-04-12T12:45:21Z</time>
      </trkpt>
      <trkpt lat="49.98776" lon="2.06612">
        <ele>12</ele>
        <time>2022-04-12T12:45:22Z</time>
      </trkpt>
      <trkpt lat="49.98776" lon="2.06612">
        <ele>12</ele>
        <time>2022-04-12T12:45:23Z</time>
      </trkpt>
      <trkpt lat="49.98778" lon="2.06611">
        <ele>12</ele>
        <time>2022-04-12T12:45:24Z</time>
      </trkpt>
      <trkpt lat="49.98779" lon="2.0661">
        <ele>12</ele>
        <time>2022-04-12T12:45:25Z</time>
      </trkpt>
      <trkpt lat="49.9878" lon="2.06609">
        <ele>12</ele>
        <time>2022-04-12T12:45:26Z</time>
      </trkpt>
      <trkpt lat="49.9878" lon="2.06609">
        <ele>12</ele>
        <time>2022-04-12T12:45:28Z</time>
      </trkpt>
      <trkpt lat="49.98781" lon="2.06608">
        <ele>12</ele>
        <time>2022-04-12T12:45:29Z</time>
      </trkpt>
      <trkpt lat="49.98783" lon="2.06607">
        <ele>12</ele>
        <time>2022-04-12T12:45:30Z</time>
      </trkpt>
      <trkpt lat="49.98784" lon="2.06607">
        <ele>12</ele>
        <time>2022-04-12T12:45:31Z</time>
      </trkpt>
      <trkpt lat="49.98785" lon="2.06606">
        <ele>12</ele>
        <time>2022-04-12T12:45:32Z</time>
      </trkpt>
      <trkpt lat="49.98786" lon="2.06605">
        <ele>12</ele>
        <time>2022-04-12T12:45:33Z</time>
      </trkpt>
      <trkpt lat="49.98787" lon="2.06604">
        <ele>12</ele>
        <time>2022-04-12T12:45:34Z</time>
      </trkpt>
      <trkpt lat="49.98788" lon="2.06603">
        <ele>12</ele>
        <time>2022-04-12T12:45:35Z</time>
      </trkpt>
      <trkpt lat="49.98789" lon="2.06602">
        <ele>12</ele>
        <time>2022-04-12T12:45:36Z</time>
      </trkpt>
      <trkpt lat="49.9879" lon="2.06601">
        <ele>12</ele>
        <time>2022-04-12T12:45:37Z</time>
      </trkpt>
      <trkpt lat="49.98792" lon="2.06601">
        <ele>12</ele>
        <time>2022-04-12T12:45:39Z</time>
      </trkpt>
      <trkpt lat="49.98793" lon="2.066">
        <ele>12</ele>
        <time>2022-04-12T12:45:40Z</time>
      </trkpt>
      <trkpt lat="49.98794" lon="2.06599">
        <ele>12</ele>
        <time>2022-04-12T12:45:41Z</time>
      </trkpt>
      <trkpt lat="49.98795" lon="2.06599">
        <ele>12</ele>
        <time>2022-04-12T12:45:42Z</time>
      </trkpt>
      <trkpt lat="49.98796" lon="2.06598">
        <ele>12</ele>
        <time>2022-04-12T12:45:43Z</time>
      </trkpt>
      <trkpt lat="49.98796" lon="2.06597">
        <ele>12</ele>
        <time>2022-04-12T12:45:44Z</time>
      </trkpt>
      <trkpt lat="49.98797" lon="2.06596">
        <ele>12</ele>
        <time>2022-04-12T12:45:45Z</time>
      </trkpt>
      <trkpt lat="49.98798" lon="2.06595">
        <ele>12</ele>
        <time>2022-04-12T12:45:46Z</time>
      </trkpt>
      <trkpt lat="49.98799" lon="2.06594">
        <ele>12</ele>
        <time>2022-04-12T12:45:48Z</time>
      </trkpt>
      <trkpt lat="49.988" lon="2.06593">
        <ele>11.9</ele>
        <time>2022-04-12T12:45:49Z</time>
      </trkpt>
      <trkpt lat="49.98801" lon="2.06592">
        <ele>11.9</ele>
        <time>2022-04-12T12:45:50Z</time>
      </trkpt>
      <trkpt lat="49.98802" lon="2.06591">
        <ele>11.9</ele>
        <time>2022-04-12T12:45:51Z</time>
      </trkpt>
      <trkpt lat="49.98803" lon="2.0659">
        <ele>11.9</ele>
        <time>2022-04-12T12:45:52Z</time>
      </trkpt>
      <trkpt lat="49.98804" lon="2.06589">
        <ele>11.9</ele>
        <time>2022-04-12T12:45:53Z</time>
      </trkpt>
      <trkpt lat="49.98804" lon="2.06588">
        <ele>11.9</ele>
        <time>2022-04-12T12:45:54Z</time>
      </trkpt>
      <trkpt lat="49.98805" lon="2.06587">
        <ele>11.9</ele>
        <time>2022-04-12T12:45:55Z</time>
      </trkpt>
      <trkpt lat="49.98807" lon="2.06586">
        <ele>11.9</ele>
        <time>2022-04-12T12:45:56Z</time>
      </trkpt>
      <trkpt lat="49.98808" lon="2.06585">
        <ele>11.9</ele>
        <time>2022-04-12T12:45:57Z</time>
      </trkpt>
      <trkpt lat="49.98809" lon="2.06584">
        <ele>11.9</ele>
        <time>2022-04-12T12:45:59Z</time>
      </trkpt>
      <trkpt lat="49.9881" lon="2.06583">
        <ele>11.9</ele>
        <time>2022-04-12T12:46:00Z</time>
      </trkpt>
      <trkpt lat="49.98811" lon="2.06582">
        <ele>11.9</ele>
        <time>2022-04-12T12:46:01Z</time>
      </trkpt>
      <trkpt lat="49.98812" lon="2.06581">
        <ele>11.9</ele>
        <time>2022-04-12T12:46:02Z</time>
      </trkpt>
      <trkpt lat="49.98813" lon="2.0658">
        <ele>11.9</ele>
        <time>2022-04-12T12:46:03Z</time>
      </trkpt>
      <trkpt lat="49.98814" lon="2.06579">
        <ele>11.9</ele>
        <time>2022-04-12T12:46:04Z</time>
      </trkpt>
      <trkpt lat="49.98814" lon="2.06578">
        <ele>11.9</ele>
        <time>2022-04-12T12:46:05Z</time>
      </trkpt>
      <trkpt lat="49.98815" lon="2.06577">
        <ele>11.9</ele>
        <time>2022-04-12T12:46:06Z</time>
      </trkpt>
      <trkpt lat="49.98816" lon="2.06576">
        <ele>11.9</ele>
        <time>2022-04-12T12:46:07Z</time>
      </trkpt>
      <trkpt lat="49.98818" lon="2.06574">
        <ele>11.9</ele>
        <time>2022-04-12T12:46:09Z</time>
      </trkpt>
      <trkpt lat="49.98819" lon="2.06574">
        <ele>11.9</ele>
        <time>2022-04-12T12:46:10Z</time>
      </trkpt>
      <trkpt lat="49.98819" lon="2.06573">
        <ele>11.9</ele>
        <time>2022-04-12T12:46:11Z</time>
      </trkpt>
      <trkpt lat="49.98821" lon="2.06571">
        <ele>11.9</ele>
        <time>2022-04-12T12:46:12Z</time>
      </trkpt>
      <trkpt lat="49.98822" lon="2.0657">
        <ele>11.9</ele>
        <time>2022-04-12T12:46:13Z</time>
      </trkpt>
      <trkpt lat="49.98824" lon="2.06568">
        <ele>11.9</ele>
        <time>2022-04-12T12:46:14Z</time>
      </trkpt>
      <trkpt lat="49.98825" lon="2.06567">
        <ele>11.9</ele>
        <time>2022-04-12T12:46:16Z</time>
      </trkpt>
      <trkpt lat="49.98825" lon="2.06566">
        <ele>12</ele>
        <time>2022-04-12T12:46:17Z</time>
      </trkpt>
      <trkpt lat="49.98826" lon="2.06565">
        <ele>12</ele>
        <time>2022-04-12T12:46:18Z</time>
      </trkpt>
      <trkpt lat="49.98827" lon="2.06564">
        <ele>12</ele>
        <time>2022-04-12T12:46:19Z</time>
      </trkpt>
      <trkpt lat="49.98828" lon="2.06563">
        <ele>12</ele>
        <time>2022-04-12T12:46:20Z</time>
      </trkpt>
      <trkpt lat="49.98829" lon="2.06562">
        <ele>12</ele>
        <time>2022-04-12T12:46:21Z</time>
      </trkpt>
      <trkpt lat="49.9883" lon="2.06561">
        <ele>12</ele>
        <time>2022-04-12T12:46:22Z</time>
      </trkpt>
      <trkpt lat="49.98831" lon="2.0656">
        <ele>12</ele>
        <time>2022-04-12T12:46:23Z</time>
      </trkpt>
      <trkpt lat="49.98832" lon="2.06559">
        <ele>12</ele>
        <time>2022-04-12T12:46:24Z</time>
      </trkpt>
      <trkpt lat="49.98833" lon="2.06558">
        <ele>12</ele>
        <time>2022-04-12T12:46:26Z</time>
      </trkpt>
      <trkpt lat="49.98834" lon="2.06557">
        <ele>12</ele>
        <time>2022-04-12T12:46:27Z</time>
      </trkpt>
      <trkpt lat="49.98835" lon="2.06556">
        <ele>12</ele>
        <time>2022-04-12T12:46:28Z</time>
      </trkpt>
      <trkpt lat="49.98836" lon="2.06555">
        <ele>12</ele>
        <time>2022-04-12T12:46:29Z</time>
      </trkpt>
      <trkpt lat="49.98837" lon="2.06555">
        <ele>12</ele>
        <time>2022-04-12T12:46:30Z</time>
      </trkpt>
      <trkpt lat="49.98838" lon="2.06554">
        <ele>12</ele>
        <time>2022-04-12T12:46:31Z</time>
      </trkpt>
      <trkpt lat="49.98839" lon="2.06553">
        <ele>12</ele>
        <time>2022-04-12T12:46:32Z</time>
      </trkpt>
      <trkpt lat="49.9884" lon="2.06552">
        <ele>12</ele>
        <time>2022-04-12T12:46:33Z</time>
      </trkpt>
      <trkpt lat="49.98841" lon="2.06551">
        <ele>12</ele>
        <time>2022-04-12T12:46:35Z</time>
      </trkpt>
      <trkpt lat="49.98842" lon="2.0655">
        <ele>12</ele>
        <time>2022-04-12T12:46:36Z</time>
      </trkpt>
      <trkpt lat="49.98843" lon="2.0655">
        <ele>12</ele>
        <time>2022-04-12T12:46:37Z</time>
      </trkpt>
      <trkpt lat="49.98843" lon="2.0655">
        <ele>12.1</ele>
        <time>2022-04-12T12:46:38Z</time>
      </trkpt>
      <trkpt lat="49.98844" lon="2.06551">
        <ele>12.1</ele>
        <time>2022-04-12T12:46:39Z</time>
      </trkpt>
      <trkpt lat="49.98844" lon="2.06551">
        <ele>12.1</ele>
        <time>2022-04-12T12:46:40Z</time>
      </trkpt>
      <trkpt lat="49.98844" lon="2.06552">
        <ele>12.1</ele>
        <time>2022-04-12T12:46:41Z</time>
      </trkpt>
      <trkpt lat="49.98844" lon="2.06553">
        <ele>12.1</ele>
        <time>2022-04-12T12:46:42Z</time>
      </trkpt>
      <trkpt lat="49.98844" lon="2.06553">
        <ele>12.1</ele>
        <time>2022-04-12T12:46:43Z</time>
      </trkpt>
      <trkpt lat="49.98844" lon="2.06553">
        <ele>12.1</ele>
        <time>2022-04-12T12:46:44Z</time>
      </trkpt>
      <trkpt lat="49.98844" lon="2.06553">
        <ele>12.1</ele>
        <time>2022-04-12T12:46:45Z</time>
      </trkpt>
      <trkpt lat="49.98844" lon="2.06553">
        <ele>12.1</ele>
        <time>2022-04-12T12:46:46Z</time>
      </trkpt>
      <trkpt lat="49.98844" lon="2.06553">
        <ele>12.1</ele>
        <time>2022-04-12T12:46:47Z</time>
      </trkpt>
      <trkpt lat="49.98845" lon="2.06552">
        <ele>12.1</ele>
        <time>2022-04-12T12:46:48Z</time>
      </trkpt>
      <trkpt lat="49.98846" lon="2.06552">
        <ele>12.1</ele>
        <time>2022-04-12T12:46:50Z</time>
      </trkpt>
      <trkpt lat="49.98846" lon="2.06552">
        <ele>12.1</ele>
        <time>2022-04-12T12:46:51Z</time>
      </trkpt>
      <trkpt lat="49.98847" lon="2.06552">
        <ele>12.1</ele>
        <time>2022-04-12T12:46:52Z</time>
      </trkpt>
      <trkpt lat="49.98847" lon="2.06553">
        <ele>12.1</ele>
        <time>2022-04-12T12:46:53Z</time>
      </trkpt>
      <trkpt lat="49.98847" lon="2.06553">
        <ele>12.1</ele>
        <time>2022-04-12T12:46:54Z</time>
      </trkpt>
      <trkpt lat="49.98847" lon="2.06553">
        <ele>12.1</ele>
        <time>2022-04-12T12:46:55Z</time>
      </trkpt>
      <trkpt lat="49.98847" lon="2.06552">
        <ele>12.1</ele>
        <time>2022-04-12T12:46:56Z</time>
      </trkpt>
      <trkpt lat="49.98847" lon="2.06552">
        <ele>12.1</ele>
        <time>2022-04-12T12:46:57Z</time>
      </trkpt>
      <trkpt lat="49.98848" lon="2.06551">
        <ele>12.1</ele>
        <time>2022-04-12T12:46:58Z</time>
      </trkpt>
      <trkpt lat="49.98848" lon="2.0655">
        <ele>12.1</ele>
        <time>2022-04-12T12:47:00Z</time>
      </trkpt>
      <trkpt lat="49.98849" lon="2.06549">
        <ele>12.1</ele>
        <time>2022-04-12T12:47:01Z</time>
      </trkpt>
      <trkpt lat="49.98851" lon="2.06547">
        <ele>12.1</ele>
        <time>2022-04-12T12:47:02Z</time>
      </trkpt>
      <trkpt lat="49.98851" lon="2.06546">
        <ele>12.1</ele>
        <time>2022-04-12T12:47:03Z</time>
      </trkpt>
      <trkpt lat="49.98852" lon="2.06545">
        <ele>12.1</ele>
        <time>2022-04-12T12:47:04Z</time>
      </trkpt>
      <trkpt lat="49.98853" lon="2.06544">
        <ele>12.1</ele>
        <time>2022-04-12T12:47:05Z</time>
      </trkpt>
      <trkpt lat="49.98854" lon="2.06542">
        <ele>12.1</ele>
        <time>2022-04-12T12:47:06Z</time>
      </trkpt>
      <trkpt lat="49.98855" lon="2.0654">
        <ele>12.1</ele>
        <time>2022-04-12T12:47:07Z</time>
      </trkpt>
      <trkpt lat="49.98857" lon="2.06538">
        <ele>12.1</ele>
        <time>2022-04-12T12:47:09Z</time>
      </trkpt>
      <trkpt lat="49.98858" lon="2.06536">
        <ele>12.1</ele>
        <time>2022-04-12T12:47:10Z</time>
      </trkpt>
      <trkpt lat="49.98859" lon="2.06535">
        <ele>12.1</ele>
        <time>2022-04-12T12:47:11Z</time>
      </trkpt>
      <trkpt lat="49.9886" lon="2.06533">
        <ele>12.1</ele>
        <time>2022-04-12T12:47:12Z</time>
      </trkpt>
      <trkpt lat="49.98861" lon="2.06531">
        <ele>12.1</ele>
        <time>2022-04-12T12:47:13Z</time>
      </trkpt>
      <trkpt lat="49.98863" lon="2.06528">
        <ele>12</ele>
        <time>2022-04-12T12:47:14Z</time>
      </trkpt>
      <trkpt lat="49.98863" lon="2.06528">
        <ele>12</ele>
        <time>2022-04-12T12:47:16Z</time>
      </trkpt>
      <trkpt lat="49.98864" lon="2.06527">
        <ele>12</ele>
        <time>2022-04-12T12:47:17Z</time>
      </trkpt>
      <trkpt lat="49.98865" lon="2.06526">
        <ele>12</ele>
        <time>2022-04-12T12:47:18Z</time>
      </trkpt>
      <trkpt lat="49.98866" lon="2.06524">
        <ele>12</ele>
        <time>2022-04-12T12:47:19Z</time>
      </trkpt>
      <trkpt lat="49.98867" lon="2.06523">
        <ele>12</ele>
        <time>2022-04-12T12:47:20Z</time>
      </trkpt>
      <trkpt lat="49.98868" lon="2.06522">
        <ele>12</ele>
        <time>2022-04-12T12:47:21Z</time>
      </trkpt>
      <trkpt lat="49.98869" lon="2.0652">
        <ele>12</ele>
        <time>2022-04-12T12:47:22Z</time>
      </trkpt>
      <trkpt lat="49.9887" lon="2.06519">
        <ele>12</ele>
        <time>2022-04-12T12:47:23Z</time>
      </trkpt>
      <trkpt lat="49.98871" lon="2.06518">
        <ele>12</ele>
        <time>2022-04-12T12:47:24Z</time>
      </trkpt>
      <trkpt lat="49.98872" lon="2.06517">
        <ele>12</ele>
        <time>2022-04-12T12:47:26Z</time>
      </trkpt>
      <trkpt lat="49.98873" lon="2.06516">
        <ele>12</ele>
        <time>2022-04-12T12:47:27Z</time>
      </trkpt>
      <trkpt lat="49.98875" lon="2.06514">
        <ele>12</ele>
        <time>2022-04-12T12:47:28Z</time>
      </trkpt>
      <trkpt lat="49.98876" lon="2.06513">
        <ele>12</ele>
        <time>2022-04-12T12:47:29Z</time>
      </trkpt>
      <trkpt lat="49.98877" lon="2.06513">
        <ele>12</ele>
        <time>2022-04-12T12:47:30Z</time>
      </trkpt>
      <trkpt lat="49.98878" lon="2.06512">
        <ele>12</ele>
        <time>2022-04-12T12:47:31Z</time>
      </trkpt>
      <trkpt lat="49.98879" lon="2.06511">
        <ele>12</ele>
        <time>2022-04-12T12:47:33Z</time>
      </trkpt>
      <trkpt lat="49.98881" lon="2.0651">
        <ele>12</ele>
        <time>2022-04-12T12:47:34Z</time>
      </trkpt>
      <trkpt lat="49.98882" lon="2.06509">
        <ele>12</ele>
        <time>2022-04-12T12:47:35Z</time>
      </trkpt>
      <trkpt lat="49.98884" lon="2.06508">
        <ele>12</ele>
        <time>2022-04-12T12:47:36Z</time>
      </trkpt>
      <trkpt lat="49.98885" lon="2.06507">
        <ele>12</ele>
        <time>2022-04-12T12:47:37Z</time>
      </trkpt>
      <trkpt lat="49.98886" lon="2.06506">
        <ele>12</ele>
        <time>2022-04-12T12:47:39Z</time>
      </trkpt>
      <trkpt lat="49.98887" lon="2.06505">
        <ele>12</ele>
        <time>2022-04-12T12:47:40Z</time>
      </trkpt>
      <trkpt lat="49.98888" lon="2.06505">
        <ele>12</ele>
        <time>2022-04-12T12:47:41Z</time>
      </trkpt>
      <trkpt lat="49.98889" lon="2.06504">
        <ele>12</ele>
        <time>2022-04-12T12:47:42Z</time>
      </trkpt>
      <trkpt lat="49.9889" lon="2.06503">
        <ele>12</ele>
        <time>2022-04-12T12:47:43Z</time>
      </trkpt>
      <trkpt lat="49.98891" lon="2.06502">
        <ele>12</ele>
        <time>2022-04-12T12:47:44Z</time>
      </trkpt>
      <trkpt lat="49.98892" lon="2.065">
        <ele>12</ele>
        <time>2022-04-12T12:47:45Z</time>
      </trkpt>
      <trkpt lat="49.98893" lon="2.06499">
        <ele>12</ele>
        <time>2022-04-12T12:47:46Z</time>
      </trkpt>
      <trkpt lat="49.98894" lon="2.06498">
        <ele>12</ele>
        <time>2022-04-12T12:47:47Z</time>
      </trkpt>
      <trkpt lat="49.98896" lon="2.06496">
        <ele>12</ele>
        <time>2022-04-12T12:47:48Z</time>
      </trkpt>
      <trkpt lat="49.98896" lon="2.06496">
        <ele>12</ele>
        <time>2022-04-12T12:47:49Z</time>
      </trkpt>
      <trkpt lat="49.98897" lon="2.06495">
        <ele>12</ele>
        <time>2022-04-12T12:47:50Z</time>
      </trkpt>
      <trkpt lat="49.98899" lon="2.06494">
        <ele>12</ele>
        <time>2022-04-12T12:47:52Z</time>
      </trkpt>
      <trkpt lat="49.989" lon="2.06493">
        <ele>12</ele>
        <time>2022-04-12T12:47:53Z</time>
      </trkpt>
      <trkpt lat="49.989" lon="2.06493">
        <ele>12</ele>
        <time>2022-04-12T12:47:54Z</time>
      </trkpt>
      <trkpt lat="49.98901" lon="2.06492">
        <ele>12</ele>
        <time>2022-04-12T12:47:55Z</time>
      </trkpt>
      <trkpt lat="49.98902" lon="2.06492">
        <ele>12</ele>
        <time>2022-04-12T12:47:56Z</time>
      </trkpt>
      <trkpt lat="49.98903" lon="2.06491">
        <ele>12.1</ele>
        <time>2022-04-12T12:47:57Z</time>
      </trkpt>
      <trkpt lat="49.98905" lon="2.06489">
        <ele>12.1</ele>
        <time>2022-04-12T12:47:58Z</time>
      </trkpt>
      <trkpt lat="49.98906" lon="2.06489">
        <ele>12.1</ele>
        <time>2022-04-12T12:47:59Z</time>
      </trkpt>
      <trkpt lat="49.98907" lon="2.06488">
        <ele>12.1</ele>
        <time>2022-04-12T12:48:00Z</time>
      </trkpt>
      <trkpt lat="49.98908" lon="2.06487">
        <ele>12.1</ele>
        <time>2022-04-12T12:48:01Z</time>
      </trkpt>
      <trkpt lat="49.98909" lon="2.06486">
        <ele>12.1</ele>
        <time>2022-04-12T12:48:03Z</time>
      </trkpt>
      <trkpt lat="49.98909" lon="2.06485">
        <ele>12.1</ele>
        <time>2022-04-12T12:48:04Z</time>
      </trkpt>
      <trkpt lat="49.98911" lon="2.06484">
        <ele>12.1</ele>
        <time>2022-04-12T12:48:05Z</time>
      </trkpt>
      <trkpt lat="49.98912" lon="2.06483">
        <ele>12.1</ele>
        <time>2022-04-12T12:48:06Z</time>
      </trkpt>
      <trkpt lat="49.98912" lon="2.06482">
        <ele>12.1</ele>
        <time>2022-04-12T12:48:07Z</time>
      </trkpt>
      <trkpt lat="49.98914" lon="2.0648">
        <ele>12.1</ele>
        <time>2022-04-12T12:48:08Z</time>
      </trkpt>
      <trkpt lat="49.98915" lon="2.06479">
        <ele>12.1</ele>
        <time>2022-04-12T12:48:09Z</time>
      </trkpt>
      <trkpt lat="49.98915" lon="2.06478">
        <ele>12.1</ele>
        <time>2022-04-12T12:48:10Z</time>
      </trkpt>
      <trkpt lat="49.98916" lon="2.06477">
        <ele>12.1</ele>
        <time>2022-04-12T12:48:11Z</time>
      </trkpt>
      <trkpt lat="49.98917" lon="2.06476">
        <ele>12.1</ele>
        <time>2022-04-12T12:48:12Z</time>
      </trkpt>
      <trkpt lat="49.98918" lon="2.06475">
        <ele>12.2</ele>
        <time>2022-04-12T12:48:14Z</time>
      </trkpt>
      <trkpt lat="49.98919" lon="2.06474">
        <ele>12.2</ele>
        <time>2022-04-12T12:48:15Z</time>
      </trkpt>
      <trkpt lat="49.9892" lon="2.06473">
        <ele>12.2</ele>
        <time>2022-04-12T12:48:16Z</time>
      </trkpt>
      <trkpt lat="49.98921" lon="2.06472">
        <ele>12.2</ele>
        <time>2022-04-12T12:48:17Z</time>
      </trkpt>
      <trkpt lat="49.98921" lon="2.06471">
        <ele>12.2</ele>
        <time>2022-04-12T12:48:18Z</time>
      </trkpt>
      <trkpt lat="49.98922" lon="2.0647">
        <ele>12.2</ele>
        <time>2022-04-12T12:48:19Z</time>
      </trkpt>
      <trkpt lat="49.98923" lon="2.06469">
        <ele>12.2</ele>
        <time>2022-04-12T12:48:20Z</time>
      </trkpt>
      <trkpt lat="49.98924" lon="2.06468">
        <ele>12.2</ele>
        <time>2022-04-12T12:48:21Z</time>
      </trkpt>
      <trkpt lat="49.98925" lon="2.06467">
        <ele>12.2</ele>
        <time>2022-04-12T12:48:22Z</time>
      </trkpt>
      <trkpt lat="49.98926" lon="2.06466">
        <ele>12.2</ele>
        <time>2022-04-12T12:48:23Z</time>
      </trkpt>
      <trkpt lat="49.98927" lon="2.06466">
        <ele>12.2</ele>
        <time>2022-04-12T12:48:24Z</time>
      </trkpt>
      <trkpt lat="49.98928" lon="2.06465">
        <ele>12.2</ele>
        <time>2022-04-12T12:48:26Z</time>
      </trkpt>
      <trkpt lat="49.98929" lon="2.06464">
        <ele>12.2</ele>
        <time>2022-04-12T12:48:27Z</time>
      </trkpt>
      <trkpt lat="49.9893" lon="2.06463">
        <ele>12.2</ele>
        <time>2022-04-12T12:48:28Z</time>
      </trkpt>
      <trkpt lat="49.98931" lon="2.06462">
        <ele>12.2</ele>
        <time>2022-04-12T12:48:29Z</time>
      </trkpt>
      <trkpt lat="49.98932" lon="2.06461">
        <ele>12.2</ele>
        <time>2022-04-12T12:48:30Z</time>
      </trkpt>
      <trkpt lat="49.98934" lon="2.0646">
        <ele>12.2</ele>
        <time>2022-04-12T12:48:31Z</time>
      </trkpt>
      <trkpt lat="49.98934" lon="2.06459">
        <ele>12.2</ele>
        <time>2022-04-12T12:48:32Z</time>
      </trkpt>
      <trkpt lat="49.98935" lon="2.06458">
        <ele>12.2</ele>
        <time>2022-04-12T12:48:33Z</time>
      </trkpt>
      <trkpt lat="49.98937" lon="2.06457">
        <ele>12.2</ele>
        <time>2022-04-12T12:48:34Z</time>
      </trkpt>
      <trkpt lat="49.98938" lon="2.06456">
        <ele>12.2</ele>
        <time>2022-04-12T12:48:35Z</time>
      </trkpt>
      <trkpt lat="49.98938" lon="2.06456">
        <ele>12.2</ele>
        <time>2022-04-12T12:48:36Z</time>
      </trkpt>
      <trkpt lat="49.9894" lon="2.06454">
        <ele>12.2</ele>
        <time>2022-04-12T12:48:38Z</time>
      </trkpt>
      <trkpt lat="49.98941" lon="2.06453">
        <ele>12.2</ele>
        <time>2022-04-12T12:48:39Z</time>
      </trkpt>
      <trkpt lat="49.98941" lon="2.06453">
        <ele>12.2</ele>
        <time>2022-04-12T12:48:40Z</time>
      </trkpt>
      <trkpt lat="49.98943" lon="2.06451">
        <ele>12.2</ele>
        <time>2022-04-12T12:48:41Z</time>
      </trkpt>
      <trkpt lat="49.98944" lon="2.0645">
        <ele>12.2</ele>
        <time>2022-04-12T12:48:42Z</time>
      </trkpt>
      <trkpt lat="49.98945" lon="2.06449">
        <ele>12.2</ele>
        <time>2022-04-12T12:48:43Z</time>
      </trkpt>
      <trkpt lat="49.98946" lon="2.06448">
        <ele>12.2</ele>
        <time>2022-04-12T12:48:44Z</time>
      </trkpt>
      <trkpt lat="49.98947" lon="2.06447">
        <ele>12.2</ele>
        <time>2022-04-12T12:48:46Z</time>
      </trkpt>
      <trkpt lat="49.98948" lon="2.06446">
        <ele>12.2</ele>
        <time>2022-04-12T12:48:47Z</time>
      </trkpt>
      <trkpt lat="49.98949" lon="2.06444">
        <ele>12.2</ele>
        <time>2022-04-12T12:48:48Z</time>
      </trkpt>
      <trkpt lat="49.9895" lon="2.06443">
        <ele>12.2</ele>
        <time>2022-04-12T12:48:49Z</time>
      </trkpt>
      <trkpt lat="49.98951" lon="2.06442">
        <ele>12.2</ele>
        <time>2022-04-12T12:48:50Z</time>
      </trkpt>
      <trkpt lat="49.98953" lon="2.06441">
        <ele>12.2</ele>
        <time>2022-04-12T12:48:52Z</time>
      </trkpt>
      <trkpt lat="49.98954" lon="2.06441">
        <ele>12.2</ele>
        <time>2022-04-12T12:48:53Z</time>
      </trkpt>
      <trkpt lat="49.98955" lon="2.0644">
        <ele>12.2</ele>
        <time>2022-04-12T12:48:54Z</time>
      </trkpt>
      <trkpt lat="49.98956" lon="2.06439">
        <ele>12.2</ele>
        <time>2022-04-12T12:48:55Z</time>
      </trkpt>
      <trkpt lat="49.98957" lon="2.06439">
        <ele>12.2</ele>
        <time>2022-04-12T12:48:56Z</time>
      </trkpt>
      <trkpt lat="49.98958" lon="2.06438">
        <ele>12.2</ele>
        <time>2022-04-12T12:48:57Z</time>
      </trkpt>
      <trkpt lat="49.98959" lon="2.06437">
        <ele>12.2</ele>
        <time>2022-04-12T12:48:58Z</time>
      </trkpt>
      <trkpt lat="49.98961" lon="2.06436">
        <ele>12.2</ele>
        <time>2022-04-12T12:48:59Z</time>
      </trkpt>
      <trkpt lat="49.98962" lon="2.06435">
        <ele>12.2</ele>
        <time>2022-04-12T12:49:00Z</time>
      </trkpt>
      <trkpt lat="49.98963" lon="2.06435">
        <ele>12.2</ele>
        <time>2022-04-12T12:49:01Z</time>
      </trkpt>
      <trkpt lat="49.98964" lon="2.06434">
        <ele>12.2</ele>
        <time>2022-04-12T12:49:02Z</time>
      </trkpt>
      <trkpt lat="49.98965" lon="2.06433">
        <ele>12.2</ele>
        <time>2022-04-12T12:49:03Z</time>
      </trkpt>
      <trkpt lat="49.98967" lon="2.06432">
        <ele>12.2</ele>
        <time>2022-04-12T12:49:04Z</time>
      </trkpt>
      <trkpt lat="49.98968" lon="2.06431">
        <ele>12.2</ele>
        <time>2022-04-12T12:49:06Z</time>
      </trkpt>
      <trkpt lat="49.98969" lon="2.06431">
        <ele>12.2</ele>
        <time>2022-04-12T12:49:07Z</time>
      </trkpt>
      <trkpt lat="49.9897" lon="2.06429">
        <ele>12.2</ele>
        <time>2022-04-12T12:49:08Z</time>
      </trkpt>
      <trkpt lat="49.98971" lon="2.06428">
        <ele>12.2</ele>
        <time>2022-04-12T12:49:09Z</time>
      </trkpt>
      <trkpt lat="49.98972" lon="2.06428">
        <ele>12.2</ele>
        <time>2022-04-12T12:49:10Z</time>
      </trkpt>
      <trkpt lat="49.98974" lon="2.06426">
        <ele>12.2</ele>
        <time>2022-04-12T12:49:11Z</time>
      </trkpt>
      <trkpt lat="49.98974" lon="2.06425">
        <ele>12.2</ele>
        <time>2022-04-12T12:49:12Z</time>
      </trkpt>
      <trkpt lat="49.98975" lon="2.06424">
        <ele>12.2</ele>
        <time>2022-04-12T12:49:13Z</time>
      </trkpt>
      <trkpt lat="49.98976" lon="2.06423">
        <ele>12.2</ele>
        <time>2022-04-12T12:49:14Z</time>
      </trkpt>
      <trkpt lat="49.98977" lon="2.06422">
        <ele>12.2</ele>
        <time>2022-04-12T12:49:15Z</time>
      </trkpt>
      <trkpt lat="49.98978" lon="2.06421">
        <ele>12.2</ele>
        <time>2022-04-12T12:49:17Z</time>
      </trkpt>
      <trkpt lat="49.98979" lon="2.0642">
        <ele>12.2</ele>
        <time>2022-04-12T12:49:18Z</time>
      </trkpt>
      <trkpt lat="49.9898" lon="2.06419">
        <ele>12.2</ele>
        <time>2022-04-12T12:49:19Z</time>
      </trkpt>
      <trkpt lat="49.98981" lon="2.06418">
        <ele>12.2</ele>
        <time>2022-04-12T12:49:20Z</time>
      </trkpt>
      <trkpt lat="49.98984" lon="2.06415">
        <ele>12.2</ele>
        <time>2022-04-12T12:49:23Z</time>
      </trkpt>
      <trkpt lat="49.98985" lon="2.06414">
        <ele>12.2</ele>
        <time>2022-04-12T12:49:24Z</time>
      </trkpt>
      <trkpt lat="49.98985" lon="2.06413">
        <ele>12.2</ele>
        <time>2022-04-12T12:49:25Z</time>
      </trkpt>
      <trkpt lat="49.98986" lon="2.06412">
        <ele>12.2</ele>
        <time>2022-04-12T12:49:26Z</time>
      </trkpt>
      <trkpt lat="49.98987" lon="2.06411">
        <ele>12.2</ele>
        <time>2022-04-12T12:49:27Z</time>
      </trkpt>
      <trkpt lat="49.98988" lon="2.0641">
        <ele>12.2</ele>
        <time>2022-04-12T12:49:28Z</time>
      </trkpt>
      <trkpt lat="49.98989" lon="2.06409">
        <ele>12.2</ele>
        <time>2022-04-12T12:49:29Z</time>
      </trkpt>
      <trkpt lat="49.9899" lon="2.06408">
        <ele>12.2</ele>
        <time>2022-04-12T12:49:31Z</time>
      </trkpt>
      <trkpt lat="49.98991" lon="2.06407">
        <ele>12.2</ele>
        <time>2022-04-12T12:49:32Z</time>
      </trkpt>
      <trkpt lat="49.98992" lon="2.06406">
        <ele>12.2</ele>
        <time>2022-04-12T12:49:33Z</time>
      </trkpt>
      <trkpt lat="49.98993" lon="2.06406">
        <ele>12.2</ele>
        <time>2022-04-12T12:49:34Z</time>
      </trkpt>
      <trkpt lat="49.98994" lon="2.06405">
        <ele>12.2</ele>
        <time>2022-04-12T12:49:35Z</time>
      </trkpt>
      <trkpt lat="49.98995" lon="2.06404">
        <ele>12.2</ele>
        <time>2022-04-12T12:49:36Z</time>
      </trkpt>
      <trkpt lat="49.98997" lon="2.06402">
        <ele>12.2</ele>
        <time>2022-04-12T12:49:38Z</time>
      </trkpt>
      <trkpt lat="49.98997" lon="2.06402">
        <ele>12.2</ele>
        <time>2022-04-12T12:49:39Z</time>
      </trkpt>
      <trkpt lat="49.98998" lon="2.06401">
        <ele>12.2</ele>
        <time>2022-04-12T12:49:40Z</time>
      </trkpt>
      <trkpt lat="49.99" lon="2.064">
        <ele>12.2</ele>
        <time>2022-04-12T12:49:41Z</time>
      </trkpt>
      <trkpt lat="49.99001" lon="2.06399">
        <ele>12.2</ele>
        <time>2022-04-12T12:49:42Z</time>
      </trkpt>
      <trkpt lat="49.99001" lon="2.06398">
        <ele>12.2</ele>
        <time>2022-04-12T12:49:43Z</time>
      </trkpt>
      <trkpt lat="49.99003" lon="2.06397">
        <ele>12.2</ele>
        <time>2022-04-12T12:49:45Z</time>
      </trkpt>
      <trkpt lat="49.99004" lon="2.06396">
        <ele>12.2</ele>
        <time>2022-04-12T12:49:46Z</time>
      </trkpt>
      <trkpt lat="49.99004" lon="2.06395">
        <ele>12.2</ele>
        <time>2022-04-12T12:49:47Z</time>
      </trkpt>
      <trkpt lat="49.99005" lon="2.06394">
        <ele>12.2</ele>
        <time>2022-04-12T12:49:48Z</time>
      </trkpt>
      <trkpt lat="49.99006" lon="2.06393">
        <ele>12.2</ele>
        <time>2022-04-12T12:49:49Z</time>
      </trkpt>
      <trkpt lat="49.99008" lon="2.06391">
        <ele>12.1</ele>
        <time>2022-04-12T12:49:50Z</time>
      </trkpt>
      <trkpt lat="49.99009" lon="2.0639">
        <ele>12.1</ele>
        <time>2022-04-12T12:49:52Z</time>
      </trkpt>
      <trkpt lat="49.9901" lon="2.06389">
        <ele>12.1</ele>
        <time>2022-04-12T12:49:53Z</time>
      </trkpt>
      <trkpt lat="49.99011" lon="2.06388">
        <ele>12.1</ele>
        <time>2022-04-12T12:49:54Z</time>
      </trkpt>
      <trkpt lat="49.99012" lon="2.06387">
        <ele>12.1</ele>
        <time>2022-04-12T12:49:55Z</time>
      </trkpt>
      <trkpt lat="49.99013" lon="2.06386">
        <ele>12.1</ele>
        <time>2022-04-12T12:49:56Z</time>
      </trkpt>
      <trkpt lat="49.99014" lon="2.06385">
        <ele>12.1</ele>
        <time>2022-04-12T12:49:57Z</time>
      </trkpt>
      <trkpt lat="49.99016" lon="2.06383">
        <ele>12.1</ele>
        <time>2022-04-12T12:49:59Z</time>
      </trkpt>
      <trkpt lat="49.99016" lon="2.06382">
        <ele>12.1</ele>
        <time>2022-04-12T12:50:00Z</time>
      </trkpt>
      <trkpt lat="49.99017" lon="2.06381">
        <ele>12.1</ele>
        <time>2022-04-12T12:50:01Z</time>
      </trkpt>
      <trkpt lat="49.99019" lon="2.06379">
        <ele>12.1</ele>
        <time>2022-04-12T12:50:03Z</time>
      </trkpt>
      <trkpt lat="49.99021" lon="2.06378">
        <ele>12.1</ele>
        <time>2022-04-12T12:50:04Z</time>
      </trkpt>
      <trkpt lat="49.99021" lon="2.06377">
        <ele>12.1</ele>
        <time>2022-04-12T12:50:05Z</time>
      </trkpt>
      <trkpt lat="49.99022" lon="2.06377">
        <ele>12.1</ele>
        <time>2022-04-12T12:50:06Z</time>
      </trkpt>
      <trkpt lat="49.99023" lon="2.06376">
        <ele>12.1</ele>
        <time>2022-04-12T12:50:07Z</time>
      </trkpt>
      <trkpt lat="49.99024" lon="2.06375">
        <ele>12.1</ele>
        <time>2022-04-12T12:50:08Z</time>
      </trkpt>
      <trkpt lat="49.99025" lon="2.06374">
        <ele>12.1</ele>
        <time>2022-04-12T12:50:09Z</time>
      </trkpt>
      <trkpt lat="49.99027" lon="2.06373">
        <ele>12.1</ele>
        <time>2022-04-12T12:50:11Z</time>
      </trkpt>
      <trkpt lat="49.99028" lon="2.06372">
        <ele>12.1</ele>
        <time>2022-04-12T12:50:12Z</time>
      </trkpt>
      <trkpt lat="49.9903" lon="2.06371">
        <ele>12.1</ele>
        <time>2022-04-12T12:50:13Z</time>
      </trkpt>
      <trkpt lat="49.9903" lon="2.0637">
        <ele>12.1</ele>
        <time>2022-04-12T12:50:14Z</time>
      </trkpt>
      <trkpt lat="49.99031" lon="2.06369">
        <ele>12</ele>
        <time>2022-04-12T12:50:15Z</time>
      </trkpt>
      <trkpt lat="49.99032" lon="2.06369">
        <ele>12</ele>
        <time>2022-04-12T12:50:17Z</time>
      </trkpt>
      <trkpt lat="49.99033" lon="2.06368">
        <ele>12</ele>
        <time>2022-04-12T12:50:18Z</time>
      </trkpt>
      <trkpt lat="49.99034" lon="2.06367">
        <ele>12</ele>
        <time>2022-04-12T12:50:19Z</time>
      </trkpt>
      <trkpt lat="49.99036" lon="2.06365">
        <ele>12</ele>
        <time>2022-04-12T12:50:20Z</time>
      </trkpt>
      <trkpt lat="49.99037" lon="2.06364">
        <ele>12</ele>
        <time>2022-04-12T12:50:21Z</time>
      </trkpt>
      <trkpt lat="49.99037" lon="2.06364">
        <ele>12</ele>
        <time>2022-04-12T12:50:22Z</time>
      </trkpt>
      <trkpt lat="49.99039" lon="2.06362">
        <ele>12</ele>
        <time>2022-04-12T12:50:23Z</time>
      </trkpt>
      <trkpt lat="49.9904" lon="2.06361">
        <ele>12</ele>
        <time>2022-04-12T12:50:24Z</time>
      </trkpt>
      <trkpt lat="49.99041" lon="2.06361">
        <ele>12</ele>
        <time>2022-04-12T12:50:25Z</time>
      </trkpt>
      <trkpt lat="49.99043" lon="2.06359">
        <ele>12</ele>
        <time>2022-04-12T12:50:26Z</time>
      </trkpt>
      <trkpt lat="49.99043" lon="2.06359">
        <ele>12</ele>
        <time>2022-04-12T12:50:28Z</time>
      </trkpt>
      <trkpt lat="49.99044" lon="2.06358">
        <ele>12</ele>
        <time>2022-04-12T12:50:29Z</time>
      </trkpt>
      <trkpt lat="49.99045" lon="2.06357">
        <ele>12</ele>
        <time>2022-04-12T12:50:30Z</time>
      </trkpt>
      <trkpt lat="49.99046" lon="2.06357">
        <ele>12</ele>
        <time>2022-04-12T12:50:31Z</time>
      </trkpt>
      <trkpt lat="49.99047" lon="2.06356">
        <ele>12</ele>
        <time>2022-04-12T12:50:32Z</time>
      </trkpt>
      <trkpt lat="49.99048" lon="2.06356">
        <ele>12</ele>
        <time>2022-04-12T12:50:33Z</time>
      </trkpt>
      <trkpt lat="49.99048" lon="2.06357">
        <ele>12</ele>
        <time>2022-04-12T12:50:35Z</time>
      </trkpt>
      <trkpt lat="49.99048" lon="2.06358">
        <ele>12</ele>
        <time>2022-04-12T12:50:36Z</time>
      </trkpt>
      <trkpt lat="49.99048" lon="2.0636">
        <ele>12</ele>
        <time>2022-04-12T12:50:38Z</time>
      </trkpt>
      <trkpt lat="49.99049" lon="2.06361">
        <ele>12</ele>
        <time>2022-04-12T12:50:39Z</time>
      </trkpt>
      <trkpt lat="49.99049" lon="2.06361">
        <ele>12</ele>
        <time>2022-04-12T12:50:40Z</time>
      </trkpt>
      <trkpt lat="49.9905" lon="2.06362">
        <ele>12</ele>
        <time>2022-04-12T12:50:41Z</time>
      </trkpt>
      <trkpt lat="49.99051" lon="2.06362">
        <ele>12</ele>
        <time>2022-04-12T12:50:43Z</time>
      </trkpt>
      <trkpt lat="49.99052" lon="2.06362">
        <ele>12</ele>
        <time>2022-04-12T12:50:44Z</time>
      </trkpt>
      <trkpt lat="49.99053" lon="2.06362">
        <ele>12</ele>
        <time>2022-04-12T12:50:45Z</time>
      </trkpt>
      <trkpt lat="49.99054" lon="2.06362">
        <ele>12</ele>
        <time>2022-04-12T12:50:46Z</time>
      </trkpt>
      <trkpt lat="49.99055" lon="2.06362">
        <ele>12</ele>
        <time>2022-04-12T12:50:48Z</time>
      </trkpt>
      <trkpt lat="49.99055" lon="2.06362">
        <ele>12</ele>
        <time>2022-04-12T12:50:49Z</time>
      </trkpt>
      <trkpt lat="49.99055" lon="2.06361">
        <ele>12</ele>
        <time>2022-04-12T12:50:50Z</time>
      </trkpt>
      <trkpt lat="49.99055" lon="2.0636">
        <ele>12</ele>
        <time>2022-04-12T12:50:51Z</time>
      </trkpt>
      <trkpt lat="49.99054" lon="2.06359">
        <ele>12</ele>
        <time>2022-04-12T12:50:53Z</time>
      </trkpt>
      <trkpt lat="49.99054" lon="2.06358">
        <ele>12</ele>
        <time>2022-04-12T12:50:54Z</time>
      </trkpt>
      <trkpt lat="49.99054" lon="2.06358">
        <ele>12</ele>
        <time>2022-04-12T12:50:55Z</time>
      </trkpt>
      <trkpt lat="49.99053" lon="2.06358">
        <ele>12</ele>
        <time>2022-04-12T12:50:56Z</time>
      </trkpt>
      <trkpt lat="49.99053" lon="2.06357">
        <ele>12</ele>
        <time>2022-04-12T12:50:57Z</time>
      </trkpt>
      <trkpt lat="49.99053" lon="2.06357">
        <ele>12</ele>
        <time>2022-04-12T12:50:58Z</time>
      </trkpt>
      <trkpt lat="49.99052" lon="2.06357">
        <ele>12</ele>
        <time>2022-04-12T12:50:59Z</time>
      </trkpt>
      <trkpt lat="49.99052" lon="2.06357">
        <ele>12</ele>
        <time>2022-04-12T12:51:00Z</time>
      </trkpt>
      <trkpt lat="49.99052" lon="2.06357">
        <ele>12</ele>
        <time>2022-04-12T12:51:01Z</time>
      </trkpt>
      <trkpt lat="49.99052" lon="2.06357">
        <ele>12</ele>
        <time>2022-04-12T12:51:02Z</time>
      </trkpt>
      <trkpt lat="49.99051" lon="2.06357">
        <ele>12</ele>
        <time>2022-04-12T12:51:03Z</time>
      </trkpt>
      <trkpt lat="49.99051" lon="2.06357">
        <ele>12</ele>
        <time>2022-04-12T12:51:04Z</time>
      </trkpt>
      <trkpt lat="49.99051" lon="2.06357">
        <ele>12</ele>
        <time>2022-04-12T12:51:05Z</time>
      </trkpt>
      <trkpt lat="49.99051" lon="2.06357">
        <ele>12</ele>
        <time>2022-04-12T12:51:06Z</time>
      </trkpt>
      <trkpt lat="49.99051" lon="2.06357">
        <ele>12</ele>
        <time>2022-04-12T12:51:07Z</time>
      </trkpt>
      <trkpt lat="49.99051" lon="2.06357">
        <ele>12</ele>
        <time>2022-04-12T12:51:08Z</time>
      </trkpt>
      <trkpt lat="49.99051" lon="2.06357">
        <ele>12</ele>
        <time>2022-04-12T12:51:09Z</time>
      </trkpt>
      <trkpt lat="49.99051" lon="2.06357">
        <ele>12</ele>
        <time>2022-04-12T12:51:10Z</time>
      </trkpt>
      <trkpt lat="49.99051" lon="2.06357">
        <ele>12</ele>
        <time>2022-04-12T12:51:11Z</time>
      </trkpt>
      <trkpt lat="49.9905" lon="2.06357">
        <ele>12</ele>
        <time>2022-04-12T12:51:12Z</time>
      </trkpt>
      <trkpt lat="49.9905" lon="2.06357">
        <ele>12</ele>
        <time>2022-04-12T12:51:13Z</time>
      </trkpt>
      <trkpt lat="49.9905" lon="2.06358">
        <ele>12</ele>
        <time>2022-04-12T12:51:14Z</time>
      </trkpt>
      <trkpt lat="49.9905" lon="2.06358">
        <ele>12</ele>
        <time>2022-04-12T12:51:15Z</time>
      </trkpt>
      <trkpt lat="49.9905" lon="2.06358">
        <ele>12</ele>
        <time>2022-04-12T12:51:16Z</time>
      </trkpt>
      <trkpt lat="49.9905" lon="2.06358">
        <ele>12</ele>
        <time>2022-04-12T12:51:17Z</time>
      </trkpt>
      <trkpt lat="49.9905" lon="2.06358">
        <ele>12</ele>
        <time>2022-04-12T12:51:18Z</time>
      </trkpt>
      <trkpt lat="49.9905" lon="2.06358">
        <ele>12</ele>
        <time>2022-04-12T12:51:19Z</time>
      </trkpt>
      <trkpt lat="49.9905" lon="2.06358">
        <ele>12</ele>
        <time>2022-04-12T12:51:20Z</time>
      </trkpt>
      <trkpt lat="49.9905" lon="2.06358">
        <ele>12</ele>
        <time>2022-04-12T12:51:21Z</time>
      </trkpt>
      <trkpt lat="49.9905" lon="2.06358">
        <ele>12</ele>
        <time>2022-04-12T12:51:22Z</time>
      </trkpt>
      <trkpt lat="49.9905" lon="2.06358">
        <ele>12</ele>
        <time>2022-04-12T12:51:23Z</time>
      </trkpt>
      <trkpt lat="49.9905" lon="2.06358">
        <ele>12</ele>
        <time>2022-04-12T12:51:24Z</time>
      </trkpt>
      <trkpt lat="49.9905" lon="2.06358">
        <ele>12</ele>
        <time>2022-04-12T12:51:25Z</time>
      </trkpt>
      <trkpt lat="49.9905" lon="2.06358">
        <ele>12</ele>
        <time>2022-04-12T12:51:26Z</time>
      </trkpt>
      <trkpt lat="49.9905" lon="2.06358">
        <ele>12</ele>
        <time>2022-04-12T12:51:27Z</time>
      </trkpt>
      <trkpt lat="49.9905" lon="2.06358">
        <ele>12</ele>
        <time>2022-04-12T12:51:28Z</time>
      </trkpt>
      <trkpt lat="49.9905" lon="2.06358">
        <ele>12</ele>
        <time>2022-04-12T12:51:29Z</time>
      </trkpt>
      <trkpt lat="49.9905" lon="2.06358">
        <ele>12</ele>
        <time>2022-04-12T12:51:30Z</time>
      </trkpt>
      <trkpt lat="49.9905" lon="2.06358">
        <ele>12</ele>
        <time>2022-04-12T12:51:31Z</time>
      </trkpt>
      <trkpt lat="49.9905" lon="2.06358">
        <ele>12</ele>
        <time>2022-04-12T12:51:32Z</time>
      </trkpt>
      <trkpt lat="49.9905" lon="2.06358">
        <ele>12</ele>
        <time>2022-04-12T12:51:33Z</time>
      </trkpt>
      <trkpt lat="49.9905" lon="2.06358">
        <ele>12</ele>
        <time>2022-04-12T12:51:34Z</time>
      </trkpt>
      <trkpt lat="49.9905" lon="2.06358">
        <ele>12</ele>
        <time>2022-04-12T12:51:35Z</time>
      </trkpt>
      <trkpt lat="49.9905" lon="2.06358">
        <ele>12</ele>
        <time>2022-04-12T12:51:36Z</time>
      </trkpt>
      <trkpt lat="49.9905" lon="2.06358">
        <ele>12</ele>
        <time>2022-04-12T12:51:37Z</time>
      </trkpt>
      <trkpt lat="49.9905" lon="2.06358">
        <ele>12</ele>
        <time>2022-04-12T12:51:38Z</time>
      </trkpt>
      <trkpt lat="49.9905" lon="2.06358">
        <ele>12</ele>
        <time>2022-04-12T12:51:39Z</time>
      </trkpt>
      <trkpt lat="49.9905" lon="2.06358">
        <ele>12</ele>
        <time>2022-04-12T12:51:40Z</time>
      </trkpt>
      <trkpt lat="49.9905" lon="2.06358">
        <ele>12</ele>
        <time>2022-04-12T12:51:41Z</time>
      </trkpt>
      <trkpt lat="49.9905" lon="2.06358">
        <ele>12</ele>
        <time>2022-04-12T12:51:42Z</time>
      </trkpt>
      <trkpt lat="49.9905" lon="2.06358">
        <ele>12</ele>
        <time>2022-04-12T12:51:43Z</time>
      </trkpt>
      <trkpt lat="49.9905" lon="2.06358">
        <ele>12</ele>
        <time>2022-04-12T12:51:44Z</time>
      </trkpt>
      <trkpt lat="49.9905" lon="2.06358">
        <ele>12</ele>
        <time>2022-04-12T12:51:45Z</time>
      </trkpt>
      <trkpt lat="49.9905" lon="2.06358">
        <ele>12</ele>
        <time>2022-04-12T12:51:46Z</time>
      </trkpt>
      <trkpt lat="49.9905" lon="2.06358">
        <ele>12</ele>
        <time>2022-04-12T12:51:47Z</time>
      </trkpt>
      <trkpt lat="49.9905" lon="2.06358">
        <ele>12</ele>
        <time>2022-04-12T12:51:48Z</time>
      </trkpt>
      <trkpt lat="49.99049" lon="2.06358">
        <ele>12</ele>
        <time>2022-04-12T12:51:49Z</time>
      </trkpt>
      <trkpt lat="49.99048" lon="2.06358">
        <ele>12</ele>
        <time>2022-04-12T12:51:50Z</time>
      </trkpt>
      <trkpt lat="49.99048" lon="2.06358">
        <ele>12</ele>
        <time>2022-04-12T12:51:51Z</time>
      </trkpt>
      <trkpt lat="49.99048" lon="2.06358">
        <ele>12</ele>
        <time>2022-04-12T12:51:52Z</time>
      </trkpt>
      <trkpt lat="49.99048" lon="2.06358">
        <ele>12</ele>
        <time>2022-04-12T12:51:53Z</time>
      </trkpt>
      <trkpt lat="49.99049" lon="2.06358">
        <ele>12</ele>
        <time>2022-04-12T12:51:54Z</time>
      </trkpt>
      <trkpt lat="49.99048" lon="2.06358">
        <ele>12</ele>
        <time>2022-04-12T12:51:55Z</time>
      </trkpt>
      <trkpt lat="49.99048" lon="2.06358">
        <ele>12</ele>
        <time>2022-04-12T12:51:56Z</time>
      </trkpt>
      <trkpt lat="49.99048" lon="2.06358">
        <ele>12</ele>
        <time>2022-04-12T12:51:57Z</time>
      </trkpt>
      <trkpt lat="49.99048" lon="2.06359">
        <ele>12</ele>
        <time>2022-04-12T12:51:58Z</time>
      </trkpt>
      <trkpt lat="49.99049" lon="2.06359">
        <ele>12</ele>
        <time>2022-04-12T12:51:59Z</time>
      </trkpt>
      <trkpt lat="49.99049" lon="2.06359">
        <ele>12</ele>
        <time>2022-04-12T12:52:00Z</time>
      </trkpt>
      <trkpt lat="49.99048" lon="2.06358">
        <ele>12</ele>
        <time>2022-04-12T12:52:01Z</time>
      </trkpt>
      <trkpt lat="49.99048" lon="2.06358">
        <ele>12</ele>
        <time>2022-04-12T12:52:02Z</time>
      </trkpt>
      <trkpt lat="49.99048" lon="2.06358">
        <ele>12</ele>
        <time>2022-04-12T12:52:03Z</time>
      </trkpt>
      <trkpt lat="49.99048" lon="2.06358">
        <ele>12</ele>
        <time>2022-04-12T12:52:04Z</time>
      </trkpt>
      <trkpt lat="49.99048" lon="2.06359">
        <ele>12</ele>
        <time>2022-04-12T12:52:05Z</time>
      </trkpt>
      <trkpt lat="49.99048" lon="2.06359">
        <ele>12</ele>
        <time>2022-04-12T12:52:06Z</time>
      </trkpt>
      <trkpt lat="49.99048" lon="2.06359">
        <ele>12</ele>
        <time>2022-04-12T12:52:07Z</time>
      </trkpt>
      <trkpt lat="49.99048" lon="2.06359">
        <ele>12</ele>
        <time>2022-04-12T12:52:08Z</time>
      </trkpt>
      <trkpt lat="49.99048" lon="2.06359">
        <ele>12</ele>
        <time>2022-04-12T12:52:09Z</time>
      </trkpt>
      <trkpt lat="49.99048" lon="2.06359">
        <ele>12</ele>
        <time>2022-04-12T12:52:10Z</time>
      </trkpt>
      <trkpt lat="49.99048" lon="2.06359">
        <ele>12</ele>
        <time>2022-04-12T12:52:11Z</time>
      </trkpt>
      <trkpt lat="49.99048" lon="2.06359">
        <ele>12</ele>
        <time>2022-04-12T12:52:12Z</time>
      </trkpt>
      <trkpt lat="49.99049" lon="2.06359">
        <ele>12</ele>
        <time>2022-04-12T12:52:13Z</time>
      </trkpt>
      <trkpt lat="49.99049" lon="2.06359">
        <ele>12</ele>
        <time>2022-04-12T12:52:14Z</time>
      </trkpt>
      <trkpt lat="49.99049" lon="2.06359">
        <ele>12</ele>
        <time>2022-04-12T12:52:15Z</time>
      </trkpt>
      <trkpt lat="49.99049" lon="2.06358">
        <ele>12</ele>
        <time>2022-04-12T12:52:17Z</time>
      </trkpt>
      <trkpt lat="49.99049" lon="2.06358">
        <ele>12</ele>
        <time>2022-04-12T12:52:18Z</time>
      </trkpt>
      <trkpt lat="49.99049" lon="2.06357">
        <ele>12</ele>
        <time>2022-04-12T12:52:19Z</time>
      </trkpt>
      <trkpt lat="49.99048" lon="2.06357">
        <ele>12</ele>
        <time>2022-04-12T12:52:20Z</time>
      </trkpt>
      <trkpt lat="49.99048" lon="2.06356">
        <ele>12</ele>
        <time>2022-04-12T12:52:22Z</time>
      </trkpt>
      <trkpt lat="49.99048" lon="2.06356">
        <ele>12</ele>
        <time>2022-04-12T12:52:23Z</time>
      </trkpt>
      <trkpt lat="49.99047" lon="2.06355">
        <ele>12</ele>
        <time>2022-04-12T12:52:24Z</time>
      </trkpt>
      <trkpt lat="49.99047" lon="2.06355">
        <ele>12</ele>
        <time>2022-04-12T12:52:25Z</time>
      </trkpt>
      <trkpt lat="49.99047" lon="2.06355">
        <ele>12</ele>
        <time>2022-04-12T12:52:26Z</time>
      </trkpt>
      <trkpt lat="49.99046" lon="2.06355">
        <ele>12</ele>
        <time>2022-04-12T12:52:27Z</time>
      </trkpt>
      <trkpt lat="49.99046" lon="2.06355">
        <ele>12</ele>
        <time>2022-04-12T12:52:28Z</time>
      </trkpt>
      <trkpt lat="49.99046" lon="2.06355">
        <ele>12</ele>
        <time>2022-04-12T12:52:29Z</time>
      </trkpt>
      <trkpt lat="49.99046" lon="2.06355">
        <ele>12</ele>
        <time>2022-04-12T12:52:30Z</time>
      </trkpt>
      <trkpt lat="49.99046" lon="2.06355">
        <ele>12</ele>
        <time>2022-04-12T12:52:31Z</time>
      </trkpt>
      <trkpt lat="49.99045" lon="2.06355">
        <ele>12</ele>
        <time>2022-04-12T12:52:32Z</time>
      </trkpt>
      <trkpt lat="49.99045" lon="2.06355">
        <ele>12</ele>
        <time>2022-04-12T12:52:33Z</time>
      </trkpt>
      <trkpt lat="49.99045" lon="2.06355">
        <ele>12</ele>
        <time>2022-04-12T12:52:34Z</time>
      </trkpt>
      <trkpt lat="49.99045" lon="2.06355">
        <ele>12</ele>
        <time>2022-04-12T12:52:35Z</time>
      </trkpt>
      <trkpt lat="49.99045" lon="2.06355">
        <ele>12</ele>
        <time>2022-04-12T12:52:36Z</time>
      </trkpt>
      <trkpt lat="49.99045" lon="2.06355">
        <ele>12</ele>
        <time>2022-04-12T12:52:37Z</time>
      </trkpt>
      <trkpt lat="49.99045" lon="2.06355">
        <ele>12</ele>
        <time>2022-04-12T12:52:38Z</time>
      </trkpt>
      <trkpt lat="49.99045" lon="2.06354">
        <ele>12</ele>
        <time>2022-04-12T12:52:39Z</time>
      </trkpt>
      <trkpt lat="49.99045" lon="2.06355">
        <ele>12</ele>
        <time>2022-04-12T12:52:40Z</time>
      </trkpt>
      <trkpt lat="49.99045" lon="2.06355">
        <ele>12</ele>
        <time>2022-04-12T12:52:41Z</time>
      </trkpt>
      <trkpt lat="49.99045" lon="2.06355">
        <ele>12</ele>
        <time>2022-04-12T12:52:42Z</time>
      </trkpt>
      <trkpt lat="49.99045" lon="2.06355">
        <ele>12</ele>
        <time>2022-04-12T12:52:43Z</time>
      </trkpt>
      <trkpt lat="49.99045" lon="2.06355">
        <ele>12</ele>
        <time>2022-04-12T12:52:44Z</time>
      </trkpt>
      <trkpt lat="49.99045" lon="2.06355">
        <ele>12</ele>
        <time>2022-04-12T12:52:45Z</time>
      </trkpt>
      <trkpt lat="49.99045" lon="2.06355">
        <ele>12</ele>
        <time>2022-04-12T12:52:46Z</time>
      </trkpt>
      <trkpt lat="49.99045" lon="2.06355">
        <ele>12</ele>
        <time>2022-04-12T12:52:47Z</time>
      </trkpt>
      <trkpt lat="49.99045" lon="2.06355">
        <ele>12</ele>
        <time>2022-04-12T12:52:48Z</time>
      </trkpt>
      <trkpt lat="49.99045" lon="2.06355">
        <ele>12</ele>
        <time>2022-04-12T12:52:49Z</time>
      </trkpt>
      <trkpt lat="49.99045" lon="2.06355">
        <ele>12</ele>
        <time>2022-04-12T12:52:50Z</time>
      </trkpt>
      <trkpt lat="49.99045" lon="2.06355">
        <ele>12</ele>
        <time>2022-04-12T12:52:51Z</time>
      </trkpt>
      <trkpt lat="49.99045" lon="2.06355">
        <ele>12</ele>
        <time>2022-04-12T12:52:52Z</time>
      </trkpt>
      <trkpt lat="49.99045" lon="2.06355">
        <ele>12</ele>
        <time>2022-04-12T12:52:53Z</time>
      </trkpt>
      <trkpt lat="49.99045" lon="2.06355">
        <ele>12</ele>
        <time>2022-04-12T12:52:54Z</time>
      </trkpt>
      <trkpt lat="49.99045" lon="2.06355">
        <ele>12</ele>
        <time>2022-04-12T12:52:55Z</time>
      </trkpt>
      <trkpt lat="49.99045" lon="2.06355">
        <ele>12</ele>
        <time>2022-04-12T12:52:56Z</time>
      </trkpt>
      <trkpt lat="49.99045" lon="2.06355">
        <ele>12</ele>
        <time>2022-04-12T12:52:57Z</time>
      </trkpt>
      <trkpt lat="49.99045" lon="2.06355">
        <ele>12</ele>
        <time>2022-04-12T12:52:58Z</time>
      </trkpt>
      <trkpt lat="49.99045" lon="2.06355">
        <ele>12</ele>
        <time>2022-04-12T12:52:59Z</time>
      </trkpt>
      <trkpt lat="49.99045" lon="2.06355">
        <ele>12</ele>
        <time>2022-04-12T12:53:00Z</time>
      </trkpt>
      <trkpt lat="49.99045" lon="2.06355">
        <ele>12</ele>
        <time>2022-04-12T12:53:01Z</time>
      </trkpt>
      <trkpt lat="49.99045" lon="2.06355">
        <ele>12</ele>
        <time>2022-04-12T12:53:02Z</time>
      </trkpt>
      <trkpt lat="49.99045" lon="2.06355">
        <ele>12</ele>
        <time>2022-04-12T12:53:03Z</time>
      </trkpt>
      <trkpt lat="49.99045" lon="2.06355">
        <ele>12</ele>
        <time>2022-04-12T12:53:04Z</time>
      </trkpt>
      <trkpt lat="49.99045" lon="2.06355">
        <ele>12</ele>
        <time>2022-04-12T12:53:05Z</time>
      </trkpt>
      <trkpt lat="49.99045" lon="2.06355">
        <ele>12</ele>
        <time>2022-04-12T12:53:06Z</time>
      </trkpt>
      <trkpt lat="49.99045" lon="2.06355">
        <ele>12</ele>
        <time>2022-04-12T12:53:07Z</time>
      </trkpt>
      <trkpt lat="49.99045" lon="2.06355">
        <ele>12</ele>
        <time>2022-04-12T12:53:08Z</time>
      </trkpt>
      <trkpt lat="49.99045" lon="2.06355">
        <ele>12</ele>
        <time>2022-04-12T12:53:09Z</time>
      </trkpt>
      <trkpt lat="49.99045" lon="2.06355">
        <ele>12</ele>
        <time>2022-04-12T12:53:10Z</time>
      </trkpt>
      <trkpt lat="49.99045" lon="2.06355">
        <ele>12</ele>
        <time>2022-04-12T12:53:11Z</time>
      </trkpt>
      <trkpt lat="49.99045" lon="2.06355">
        <ele>12</ele>
        <time>2022-04-12T12:53:12Z</time>
      </trkpt>
      <trkpt lat="49.99045" lon="2.06355">
        <ele>12</ele>
        <time>2022-04-12T12:53:13Z</time>
      </trkpt>
      <trkpt lat="49.99045" lon="2.06355">
        <ele>12</ele>
        <time>2022-04-12T12:53:14Z</time>
      </trkpt>
      <trkpt lat="49.99045" lon="2.06355">
        <ele>12</ele>
        <time>2022-04-12T12:53:15Z</time>
      </trkpt>
      <trkpt lat="49.99045" lon="2.06355">
        <ele>12</ele>
        <time>2022-04-12T12:53:16Z</time>
      </trkpt>
      <trkpt lat="49.99045" lon="2.06355">
        <ele>12</ele>
        <time>2022-04-12T12:53:17Z</time>
      </trkpt>
      <trkpt lat="49.99045" lon="2.06355">
        <ele>12</ele>
        <time>2022-04-12T12:53:18Z</time>
      </trkpt>
      <trkpt lat="49.99045" lon="2.06355">
        <ele>12</ele>
        <time>2022-04-12T12:53:19Z</time>
      </trkpt>
      <trkpt lat="49.99045" lon="2.06355">
        <ele>12</ele>
        <time>2022-04-12T12:53:20Z</time>
      </trkpt>
      <trkpt lat="49.99045" lon="2.06355">
        <ele>12</ele>
        <time>2022-04-12T12:53:21Z</time>
      </trkpt>
      <trkpt lat="49.99045" lon="2.06355">
        <ele>12</ele>
        <time>2022-04-12T12:53:22Z</time>
      </trkpt>
      <trkpt lat="49.99045" lon="2.06355">
        <ele>12</ele>
        <time>2022-04-12T12:53:23Z</time>
      </trkpt>
      <trkpt lat="49.99045" lon="2.06355">
        <ele>12</ele>
        <time>2022-04-12T12:53:24Z</time>
      </trkpt>
      <trkpt lat="49.99045" lon="2.06355">
        <ele>12</ele>
        <time>2022-04-12T12:53:25Z</time>
      </trkpt>
      <trkpt lat="49.99045" lon="2.06355">
        <ele>12</ele>
        <time>2022-04-12T12:53:26Z</time>
      </trkpt>
      <trkpt lat="49.99045" lon="2.06355">
        <ele>12</ele>
        <time>2022-04-12T12:53:27Z</time>
      </trkpt>
      <trkpt lat="49.99045" lon="2.06355">
        <ele>12</ele>
        <time>2022-04-12T12:53:28Z</time>
      </trkpt>
      <trkpt lat="49.99045" lon="2.06355">
        <ele>12</ele>
        <time>2022-04-12T12:53:29Z</time>
      </trkpt>
      <trkpt lat="49.99045" lon="2.06355">
        <ele>12</ele>
        <time>2022-04-12T12:53:30Z</time>
      </trkpt>
      <trkpt lat="49.99045" lon="2.06355">
        <ele>12</ele>
        <time>2022-04-12T12:53:31Z</time>
      </trkpt>
      <trkpt lat="49.99045" lon="2.06355">
        <ele>12</ele>
        <time>2022-04-12T12:53:32Z</time>
      </trkpt>
      <trkpt lat="49.99045" lon="2.06355">
        <ele>12</ele>
        <time>2022-04-12T12:53:33Z</time>
      </trkpt>
      <trkpt lat="49.99044" lon="2.06355">
        <ele>12</ele>
        <time>2022-04-12T12:53:34Z</time>
      </trkpt>
      <trkpt lat="49.99044" lon="2.06354">
        <ele>12</ele>
        <time>2022-04-12T12:53:35Z</time>
      </trkpt>
      <trkpt lat="49.99045" lon="2.06354">
        <ele>12</ele>
        <time>2022-04-12T12:53:36Z</time>
      </trkpt>
      <trkpt lat="49.99045" lon="2.06354">
        <ele>12</ele>
        <time>2022-04-12T12:53:38Z</time>
      </trkpt>
      <trkpt lat="49.99045" lon="2.06354">
        <ele>12</ele>
        <time>2022-04-12T12:53:39Z</time>
      </trkpt>
      <trkpt lat="49.99046" lon="2.06354">
        <ele>12</ele>
        <time>2022-04-12T12:53:40Z</time>
      </trkpt>
      <trkpt lat="49.99046" lon="2.06353">
        <ele>12</ele>
        <time>2022-04-12T12:53:41Z</time>
      </trkpt>
      <trkpt lat="49.99046" lon="2.06353">
        <ele>12</ele>
        <time>2022-04-12T12:53:42Z</time>
      </trkpt>
      <trkpt lat="49.99047" lon="2.06352">
        <ele>12</ele>
        <time>2022-04-12T12:53:44Z</time>
      </trkpt>
      <trkpt lat="49.99048" lon="2.06351">
        <ele>12</ele>
        <time>2022-04-12T12:53:45Z</time>
      </trkpt>
      <trkpt lat="49.99048" lon="2.06349">
        <ele>12</ele>
        <time>2022-04-12T12:53:46Z</time>
      </trkpt>
      <trkpt lat="49.99049" lon="2.06348">
        <ele>12</ele>
        <time>2022-04-12T12:53:47Z</time>
      </trkpt>
      <trkpt lat="49.9905" lon="2.06347">
        <ele>12</ele>
        <time>2022-04-12T12:53:48Z</time>
      </trkpt>
      <trkpt lat="49.99051" lon="2.06346">
        <ele>12</ele>
        <time>2022-04-12T12:53:50Z</time>
      </trkpt>
      <trkpt lat="49.99052" lon="2.06345">
        <ele>12</ele>
        <time>2022-04-12T12:53:51Z</time>
      </trkpt>
      <trkpt lat="49.99053" lon="2.06344">
        <ele>12</ele>
        <time>2022-04-12T12:53:52Z</time>
      </trkpt>
      <trkpt lat="49.99054" lon="2.06344">
        <ele>12</ele>
        <time>2022-04-12T12:53:53Z</time>
      </trkpt>
      <trkpt lat="49.99054" lon="2.06343">
        <ele>12</ele>
        <time>2022-04-12T12:53:54Z</time>
      </trkpt>
      <trkpt lat="49.99055" lon="2.06343">
        <ele>12.1</ele>
        <time>2022-04-12T12:53:55Z</time>
      </trkpt>
      <trkpt lat="49.99056" lon="2.06342">
        <ele>12.1</ele>
        <time>2022-04-12T12:53:57Z</time>
      </trkpt>
      <trkpt lat="49.99057" lon="2.06341">
        <ele>12.1</ele>
        <time>2022-04-12T12:53:58Z</time>
      </trkpt>
      <trkpt lat="49.99058" lon="2.0634">
        <ele>12.1</ele>
        <time>2022-04-12T12:53:59Z</time>
      </trkpt>
      <trkpt lat="49.99058" lon="2.06339">
        <ele>12.1</ele>
        <time>2022-04-12T12:54:00Z</time>
      </trkpt>
      <trkpt lat="49.9906" lon="2.06337">
        <ele>12.1</ele>
        <time>2022-04-12T12:54:01Z</time>
      </trkpt>
      <trkpt lat="49.99061" lon="2.06337">
        <ele>12.1</ele>
        <time>2022-04-12T12:54:02Z</time>
      </trkpt>
      <trkpt lat="49.99062" lon="2.06336">
        <ele>12.1</ele>
        <time>2022-04-12T12:54:04Z</time>
      </trkpt>
      <trkpt lat="49.99063" lon="2.06335">
        <ele>12.1</ele>
        <time>2022-04-12T12:54:05Z</time>
      </trkpt>
      <trkpt lat="49.99064" lon="2.06334">
        <ele>12.1</ele>
        <time>2022-04-12T12:54:06Z</time>
      </trkpt>
      <trkpt lat="49.99064" lon="2.06333">
        <ele>12.1</ele>
        <time>2022-04-12T12:54:07Z</time>
      </trkpt>
      <trkpt lat="49.99065" lon="2.06332">
        <ele>12.1</ele>
        <time>2022-04-12T12:54:08Z</time>
      </trkpt>
      <trkpt lat="49.99066" lon="2.06331">
        <ele>12.1</ele>
        <time>2022-04-12T12:54:09Z</time>
      </trkpt>
      <trkpt lat="49.99067" lon="2.0633">
        <ele>12.1</ele>
        <time>2022-04-12T12:54:11Z</time>
      </trkpt>
      <trkpt lat="49.99068" lon="2.0633">
        <ele>12.1</ele>
        <time>2022-04-12T12:54:12Z</time>
      </trkpt>
      <trkpt lat="49.99069" lon="2.06329">
        <ele>12.1</ele>
        <time>2022-04-12T12:54:13Z</time>
      </trkpt>
      <trkpt lat="49.9907" lon="2.06329">
        <ele>12.1</ele>
        <time>2022-04-12T12:54:14Z</time>
      </trkpt>
      <trkpt lat="49.99071" lon="2.06328">
        <ele>12.1</ele>
        <time>2022-04-12T12:54:15Z</time>
      </trkpt>
      <trkpt lat="49.99073" lon="2.06327">
        <ele>12.1</ele>
        <time>2022-04-12T12:54:16Z</time>
      </trkpt>
      <trkpt lat="49.99074" lon="2.06326">
        <ele>12.1</ele>
        <time>2022-04-12T12:54:18Z</time>
      </trkpt>
      <trkpt lat="49.99075" lon="2.06325">
        <ele>12.1</ele>
        <time>2022-04-12T12:54:19Z</time>
      </trkpt>
      <trkpt lat="49.99076" lon="2.06324">
        <ele>12.1</ele>
        <time>2022-04-12T12:54:20Z</time>
      </trkpt>
      <trkpt lat="49.99078" lon="2.06323">
        <ele>12.2</ele>
        <time>2022-04-12T12:54:21Z</time>
      </trkpt>
      <trkpt lat="49.99079" lon="2.06321">
        <ele>12.2</ele>
        <time>2022-04-12T12:54:22Z</time>
      </trkpt>
      <trkpt lat="49.99081" lon="2.0632">
        <ele>12.2</ele>
        <time>2022-04-12T12:54:23Z</time>
      </trkpt>
      <trkpt lat="49.99082" lon="2.06319">
        <ele>12.2</ele>
        <time>2022-04-12T12:54:24Z</time>
      </trkpt>
      <trkpt lat="49.99083" lon="2.06317">
        <ele>12.2</ele>
        <time>2022-04-12T12:54:25Z</time>
      </trkpt>
      <trkpt lat="49.99084" lon="2.06316">
        <ele>12.2</ele>
        <time>2022-04-12T12:54:27Z</time>
      </trkpt>
      <trkpt lat="49.99085" lon="2.06314">
        <ele>12.2</ele>
        <time>2022-04-12T12:54:28Z</time>
      </trkpt>
      <trkpt lat="49.99087" lon="2.06313">
        <ele>12.2</ele>
        <time>2022-04-12T12:54:29Z</time>
      </trkpt>
      <trkpt lat="49.99088" lon="2.06312">
        <ele>12.2</ele>
        <time>2022-04-12T12:54:30Z</time>
      </trkpt>
      <trkpt lat="49.99089" lon="2.0631">
        <ele>12.2</ele>
        <time>2022-04-12T12:54:31Z</time>
      </trkpt>
      <trkpt lat="49.9909" lon="2.06309">
        <ele>12.2</ele>
        <time>2022-04-12T12:54:32Z</time>
      </trkpt>
      <trkpt lat="49.99092" lon="2.06307">
        <ele>12.2</ele>
        <time>2022-04-12T12:54:34Z</time>
      </trkpt>
      <trkpt lat="49.99093" lon="2.06306">
        <ele>12.2</ele>
        <time>2022-04-12T12:54:35Z</time>
      </trkpt>
      <trkpt lat="49.99094" lon="2.06305">
        <ele>12.2</ele>
        <time>2022-04-12T12:54:36Z</time>
      </trkpt>
      <trkpt lat="49.99096" lon="2.06303">
        <ele>12.2</ele>
        <time>2022-04-12T12:54:37Z</time>
      </trkpt>
      <trkpt lat="49.99097" lon="2.06302">
        <ele>12.2</ele>
        <time>2022-04-12T12:54:38Z</time>
      </trkpt>
      <trkpt lat="49.99098" lon="2.06301">
        <ele>12.2</ele>
        <time>2022-04-12T12:54:39Z</time>
      </trkpt>
      <trkpt lat="49.99099" lon="2.06299">
        <ele>12.2</ele>
        <time>2022-04-12T12:54:40Z</time>
      </trkpt>
      <trkpt lat="49.991" lon="2.06299">
        <ele>12.2</ele>
        <time>2022-04-12T12:54:41Z</time>
      </trkpt>
      <trkpt lat="49.99101" lon="2.06298">
        <ele>12.2</ele>
        <time>2022-04-12T12:54:42Z</time>
      </trkpt>
      <trkpt lat="49.99103" lon="2.06297">
        <ele>12.2</ele>
        <time>2022-04-12T12:54:44Z</time>
      </trkpt>
      <trkpt lat="49.99103" lon="2.06296">
        <ele>12.2</ele>
        <time>2022-04-12T12:54:45Z</time>
      </trkpt>
      <trkpt lat="49.99104" lon="2.06295">
        <ele>12.2</ele>
        <time>2022-04-12T12:54:46Z</time>
      </trkpt>
      <trkpt lat="49.99105" lon="2.06294">
        <ele>12.2</ele>
        <time>2022-04-12T12:54:47Z</time>
      </trkpt>
      <trkpt lat="49.99106" lon="2.06294">
        <ele>12.2</ele>
        <time>2022-04-12T12:54:48Z</time>
      </trkpt>
      <trkpt lat="49.99107" lon="2.06293">
        <ele>12.2</ele>
        <time>2022-04-12T12:54:49Z</time>
      </trkpt>
      <trkpt lat="49.99108" lon="2.06292">
        <ele>12.2</ele>
        <time>2022-04-12T12:54:50Z</time>
      </trkpt>
      <trkpt lat="49.99109" lon="2.06291">
        <ele>12.2</ele>
        <time>2022-04-12T12:54:51Z</time>
      </trkpt>
      <trkpt lat="49.9911" lon="2.0629">
        <ele>12.2</ele>
        <time>2022-04-12T12:54:52Z</time>
      </trkpt>
      <trkpt lat="49.99112" lon="2.06289">
        <ele>12.2</ele>
        <time>2022-04-12T12:54:54Z</time>
      </trkpt>
      <trkpt lat="49.99113" lon="2.06288">
        <ele>12.2</ele>
        <time>2022-04-12T12:54:55Z</time>
      </trkpt>
      <trkpt lat="49.99114" lon="2.06288">
        <ele>12.2</ele>
        <time>2022-04-12T12:54:56Z</time>
      </trkpt>
      <trkpt lat="49.99115" lon="2.06286">
        <ele>12.2</ele>
        <time>2022-04-12T12:54:57Z</time>
      </trkpt>
      <trkpt lat="49.99116" lon="2.06286">
        <ele>12.2</ele>
        <time>2022-04-12T12:54:58Z</time>
      </trkpt>
      <trkpt lat="49.99117" lon="2.06285">
        <ele>12.2</ele>
        <time>2022-04-12T12:55:00Z</time>
      </trkpt>
      <trkpt lat="49.99118" lon="2.06284">
        <ele>12.2</ele>
        <time>2022-04-12T12:55:01Z</time>
      </trkpt>
      <trkpt lat="49.99119" lon="2.06283">
        <ele>12.2</ele>
        <time>2022-04-12T12:55:02Z</time>
      </trkpt>
      <trkpt lat="49.9912" lon="2.06283">
        <ele>12.2</ele>
        <time>2022-04-12T12:55:03Z</time>
      </trkpt>
      <trkpt lat="49.99121" lon="2.06282">
        <ele>12.2</ele>
        <time>2022-04-12T12:55:04Z</time>
      </trkpt>
      <trkpt lat="49.99122" lon="2.06281">
        <ele>12.2</ele>
        <time>2022-04-12T12:55:05Z</time>
      </trkpt>
      <trkpt lat="49.99124" lon="2.0628">
        <ele>12.2</ele>
        <time>2022-04-12T12:55:06Z</time>
      </trkpt>
      <trkpt lat="49.99125" lon="2.0628">
        <ele>12.2</ele>
        <time>2022-04-12T12:55:07Z</time>
      </trkpt>
      <trkpt lat="49.99126" lon="2.06279">
        <ele>12.2</ele>
        <time>2022-04-12T12:55:08Z</time>
      </trkpt>
      <trkpt lat="49.99127" lon="2.06278">
        <ele>12.2</ele>
        <time>2022-04-12T12:55:09Z</time>
      </trkpt>
      <trkpt lat="49.99128" lon="2.06278">
        <ele>12.2</ele>
        <time>2022-04-12T12:55:11Z</time>
      </trkpt>
      <trkpt lat="49.99129" lon="2.06277">
        <ele>12.2</ele>
        <time>2022-04-12T12:55:12Z</time>
      </trkpt>
      <trkpt lat="49.99131" lon="2.06275">
        <ele>12.1</ele>
        <time>2022-04-12T12:55:13Z</time>
      </trkpt>
      <trkpt lat="49.99131" lon="2.06275">
        <ele>12.1</ele>
        <time>2022-04-12T12:55:14Z</time>
      </trkpt>
      <trkpt lat="49.99132" lon="2.06274">
        <ele>12.1</ele>
        <time>2022-04-12T12:55:15Z</time>
      </trkpt>
      <trkpt lat="49.99133" lon="2.06272">
        <ele>12.1</ele>
        <time>2022-04-12T12:55:16Z</time>
      </trkpt>
      <trkpt lat="49.99134" lon="2.06271">
        <ele>12.1</ele>
        <time>2022-04-12T12:55:17Z</time>
      </trkpt>
      <trkpt lat="49.99135" lon="2.0627">
        <ele>12.1</ele>
        <time>2022-04-12T12:55:18Z</time>
      </trkpt>
      <trkpt lat="49.99136" lon="2.06269">
        <ele>12.1</ele>
        <time>2022-04-12T12:55:19Z</time>
      </trkpt>
      <trkpt lat="49.99137" lon="2.06267">
        <ele>12.1</ele>
        <time>2022-04-12T12:55:20Z</time>
      </trkpt>
      <trkpt lat="49.99138" lon="2.06266">
        <ele>12.1</ele>
        <time>2022-04-12T12:55:22Z</time>
      </trkpt>
      <trkpt lat="49.99139" lon="2.06266">
        <ele>12.1</ele>
        <time>2022-04-12T12:55:23Z</time>
      </trkpt>
      <trkpt lat="49.9914" lon="2.06265">
        <ele>12.1</ele>
        <time>2022-04-12T12:55:24Z</time>
      </trkpt>
      <trkpt lat="49.99142" lon="2.06263">
        <ele>12.1</ele>
        <time>2022-04-12T12:55:25Z</time>
      </trkpt>
      <trkpt lat="49.99142" lon="2.06262">
        <ele>12.1</ele>
        <time>2022-04-12T12:55:26Z</time>
      </trkpt>
      <trkpt lat="49.99143" lon="2.06261">
        <ele>12.1</ele>
        <time>2022-04-12T12:55:27Z</time>
      </trkpt>
      <trkpt lat="49.99144" lon="2.06261">
        <ele>12.1</ele>
        <time>2022-04-12T12:55:28Z</time>
      </trkpt>
      <trkpt lat="49.99145" lon="2.0626">
        <ele>12.1</ele>
        <time>2022-04-12T12:55:29Z</time>
      </trkpt>
      <trkpt lat="49.99146" lon="2.06259">
        <ele>12.1</ele>
        <time>2022-04-12T12:55:30Z</time>
      </trkpt>
      <trkpt lat="49.99148" lon="2.06257">
        <ele>12.1</ele>
        <time>2022-04-12T12:55:31Z</time>
      </trkpt>
      <trkpt lat="49.99149" lon="2.06256">
        <ele>12.1</ele>
        <time>2022-04-12T12:55:32Z</time>
      </trkpt>
      <trkpt lat="49.99149" lon="2.06256">
        <ele>12.1</ele>
        <time>2022-04-12T12:55:33Z</time>
      </trkpt>
      <trkpt lat="49.9915" lon="2.06255">
        <ele>12.1</ele>
        <time>2022-04-12T12:55:34Z</time>
      </trkpt>
      <trkpt lat="49.99151" lon="2.06254">
        <ele>12.1</ele>
        <time>2022-04-12T12:55:36Z</time>
      </trkpt>
      <trkpt lat="49.99152" lon="2.06253">
        <ele>12.1</ele>
        <time>2022-04-12T12:55:37Z</time>
      </trkpt>
      <trkpt lat="49.99153" lon="2.06252">
        <ele>12.1</ele>
        <time>2022-04-12T12:55:38Z</time>
      </trkpt>
      <trkpt lat="49.99154" lon="2.06251">
        <ele>12</ele>
        <time>2022-04-12T12:55:39Z</time>
      </trkpt>
      <trkpt lat="49.99154" lon="2.0625">
        <ele>12</ele>
        <time>2022-04-12T12:55:40Z</time>
      </trkpt>
      <trkpt lat="49.99156" lon="2.06249">
        <ele>12</ele>
        <time>2022-04-12T12:55:41Z</time>
      </trkpt>
      <trkpt lat="49.99156" lon="2.06249">
        <ele>12</ele>
        <time>2022-04-12T12:55:42Z</time>
      </trkpt>
      <trkpt lat="49.99157" lon="2.06247">
        <ele>12</ele>
        <time>2022-04-12T12:55:43Z</time>
      </trkpt>
      <trkpt lat="49.99158" lon="2.06246">
        <ele>12</ele>
        <time>2022-04-12T12:55:44Z</time>
      </trkpt>
      <trkpt lat="49.9916" lon="2.06245">
        <ele>12</ele>
        <time>2022-04-12T12:55:45Z</time>
      </trkpt>
      <trkpt lat="49.99161" lon="2.06244">
        <ele>12</ele>
        <time>2022-04-12T12:55:47Z</time>
      </trkpt>
      <trkpt lat="49.99162" lon="2.06243">
        <ele>12</ele>
        <time>2022-04-12T12:55:48Z</time>
      </trkpt>
      <trkpt lat="49.99163" lon="2.06241">
        <ele>12</ele>
        <time>2022-04-12T12:55:49Z</time>
      </trkpt>
      <trkpt lat="49.99164" lon="2.0624">
        <ele>12</ele>
        <time>2022-04-12T12:55:50Z</time>
      </trkpt>
      <trkpt lat="49.99165" lon="2.0624">
        <ele>12</ele>
        <time>2022-04-12T12:55:51Z</time>
      </trkpt>
      <trkpt lat="49.99167" lon="2.06238">
        <ele>12</ele>
        <time>2022-04-12T12:55:53Z</time>
      </trkpt>
      <trkpt lat="49.99167" lon="2.06237">
        <ele>12</ele>
        <time>2022-04-12T12:55:54Z</time>
      </trkpt>
      <trkpt lat="49.99168" lon="2.06237">
        <ele>12</ele>
        <time>2022-04-12T12:55:55Z</time>
      </trkpt>
      <trkpt lat="49.99169" lon="2.06235">
        <ele>12</ele>
        <time>2022-04-12T12:55:56Z</time>
      </trkpt>
      <trkpt lat="49.9917" lon="2.06234">
        <ele>12</ele>
        <time>2022-04-12T12:55:57Z</time>
      </trkpt>
      <trkpt lat="49.99171" lon="2.06233">
        <ele>12</ele>
        <time>2022-04-12T12:55:58Z</time>
      </trkpt>
      <trkpt lat="49.99173" lon="2.06231">
        <ele>12</ele>
        <time>2022-04-12T12:55:59Z</time>
      </trkpt>
      <trkpt lat="49.99173" lon="2.06231">
        <ele>12</ele>
        <time>2022-04-12T12:56:00Z</time>
      </trkpt>
      <trkpt lat="49.99174" lon="2.0623">
        <ele>12</ele>
        <time>2022-04-12T12:56:01Z</time>
      </trkpt>
      <trkpt lat="49.99175" lon="2.06229">
        <ele>12</ele>
        <time>2022-04-12T12:56:02Z</time>
      </trkpt>
      <trkpt lat="49.99176" lon="2.06228">
        <ele>12</ele>
        <time>2022-04-12T12:56:04Z</time>
      </trkpt>
      <trkpt lat="49.99177" lon="2.06227">
        <ele>12</ele>
        <time>2022-04-12T12:56:05Z</time>
      </trkpt>
      <trkpt lat="49.99178" lon="2.06226">
        <ele>12</ele>
        <time>2022-04-12T12:56:06Z</time>
      </trkpt>
      <trkpt lat="49.99179" lon="2.06225">
        <ele>12</ele>
        <time>2022-04-12T12:56:07Z</time>
      </trkpt>
      <trkpt lat="49.99179" lon="2.06224">
        <ele>12</ele>
        <time>2022-04-12T12:56:08Z</time>
      </trkpt>
      <trkpt lat="49.9918" lon="2.06224">
        <ele>12</ele>
        <time>2022-04-12T12:56:09Z</time>
      </trkpt>
      <trkpt lat="49.99181" lon="2.06223">
        <ele>12</ele>
        <time>2022-04-12T12:56:10Z</time>
      </trkpt>
      <trkpt lat="49.99182" lon="2.06222">
        <ele>12</ele>
        <time>2022-04-12T12:56:11Z</time>
      </trkpt>
      <trkpt lat="49.99184" lon="2.06221">
        <ele>12</ele>
        <time>2022-04-12T12:56:12Z</time>
      </trkpt>
      <trkpt lat="49.99185" lon="2.0622">
        <ele>12</ele>
        <time>2022-04-12T12:56:13Z</time>
      </trkpt>
      <trkpt lat="49.99186" lon="2.06218">
        <ele>12</ele>
        <time>2022-04-12T12:56:14Z</time>
      </trkpt>
      <trkpt lat="49.99187" lon="2.06217">
        <ele>12</ele>
        <time>2022-04-12T12:56:15Z</time>
      </trkpt>
      <trkpt lat="49.99188" lon="2.06216">
        <ele>12</ele>
        <time>2022-04-12T12:56:17Z</time>
      </trkpt>
      <trkpt lat="49.9919" lon="2.06214">
        <ele>12</ele>
        <time>2022-04-12T12:56:18Z</time>
      </trkpt>
      <trkpt lat="49.9919" lon="2.06214">
        <ele>12</ele>
        <time>2022-04-12T12:56:19Z</time>
      </trkpt>
      <trkpt lat="49.99191" lon="2.06213">
        <ele>12</ele>
        <time>2022-04-12T12:56:20Z</time>
      </trkpt>
      <trkpt lat="49.99192" lon="2.06212">
        <ele>12</ele>
        <time>2022-04-12T12:56:21Z</time>
      </trkpt>
      <trkpt lat="49.99193" lon="2.06211">
        <ele>12</ele>
        <time>2022-04-12T12:56:22Z</time>
      </trkpt>
      <trkpt lat="49.99194" lon="2.0621">
        <ele>12</ele>
        <time>2022-04-12T12:56:23Z</time>
      </trkpt>
      <trkpt lat="49.99195" lon="2.06209">
        <ele>12</ele>
        <time>2022-04-12T12:56:24Z</time>
      </trkpt>
      <trkpt lat="49.99196" lon="2.06207">
        <ele>12</ele>
        <time>2022-04-12T12:56:25Z</time>
      </trkpt>
      <trkpt lat="49.99197" lon="2.06207">
        <ele>12</ele>
        <time>2022-04-12T12:56:26Z</time>
      </trkpt>
      <trkpt lat="49.99198" lon="2.06206">
        <ele>12</ele>
        <time>2022-04-12T12:56:27Z</time>
      </trkpt>
      <trkpt lat="49.99199" lon="2.06205">
        <ele>12</ele>
        <time>2022-04-12T12:56:29Z</time>
      </trkpt>
      <trkpt lat="49.992" lon="2.06204">
        <ele>12</ele>
        <time>2022-04-12T12:56:30Z</time>
      </trkpt>
      <trkpt lat="49.99201" lon="2.06204">
        <ele>12</ele>
        <time>2022-04-12T12:56:31Z</time>
      </trkpt>
      <trkpt lat="49.99202" lon="2.06203">
        <ele>12</ele>
        <time>2022-04-12T12:56:32Z</time>
      </trkpt>
      <trkpt lat="49.99203" lon="2.06202">
        <ele>12</ele>
        <time>2022-04-12T12:56:33Z</time>
      </trkpt>
      <trkpt lat="49.99204" lon="2.06201">
        <ele>12</ele>
        <time>2022-04-12T12:56:34Z</time>
      </trkpt>
      <trkpt lat="49.99205" lon="2.06201">
        <ele>12</ele>
        <time>2022-04-12T12:56:35Z</time>
      </trkpt>
      <trkpt lat="49.99207" lon="2.06199">
        <ele>12</ele>
        <time>2022-04-12T12:56:36Z</time>
      </trkpt>
      <trkpt lat="49.99208" lon="2.06199">
        <ele>12</ele>
        <time>2022-04-12T12:56:37Z</time>
      </trkpt>
      <trkpt lat="49.99208" lon="2.06198">
        <ele>12</ele>
        <time>2022-04-12T12:56:38Z</time>
      </trkpt>
      <trkpt lat="49.9921" lon="2.06196">
        <ele>12</ele>
        <time>2022-04-12T12:56:39Z</time>
      </trkpt>
      <trkpt lat="49.99211" lon="2.06195">
        <ele>12</ele>
        <time>2022-04-12T12:56:40Z</time>
      </trkpt>
      <trkpt lat="49.99212" lon="2.06195">
        <ele>12</ele>
        <time>2022-04-12T12:56:42Z</time>
      </trkpt>
      <trkpt lat="49.99213" lon="2.06194">
        <ele>12</ele>
        <time>2022-04-12T12:56:43Z</time>
      </trkpt>
      <trkpt lat="49.99214" lon="2.06193">
        <ele>12</ele>
        <time>2022-04-12T12:56:44Z</time>
      </trkpt>
      <trkpt lat="49.99215" lon="2.06192">
        <ele>12</ele>
        <time>2022-04-12T12:56:45Z</time>
      </trkpt>
      <trkpt lat="49.99216" lon="2.06192">
        <ele>12</ele>
        <time>2022-04-12T12:56:46Z</time>
      </trkpt>
      <trkpt lat="49.99217" lon="2.06191">
        <ele>12</ele>
        <time>2022-04-12T12:56:47Z</time>
      </trkpt>
      <trkpt lat="49.99218" lon="2.0619">
        <ele>12</ele>
        <time>2022-04-12T12:56:48Z</time>
      </trkpt>
      <trkpt lat="49.9922" lon="2.06188">
        <ele>12</ele>
        <time>2022-04-12T12:56:49Z</time>
      </trkpt>
      <trkpt lat="49.9922" lon="2.06187">
        <ele>12</ele>
        <time>2022-04-12T12:56:50Z</time>
      </trkpt>
      <trkpt lat="49.99221" lon="2.06187">
        <ele>12</ele>
        <time>2022-04-12T12:56:51Z</time>
      </trkpt>
      <trkpt lat="49.99222" lon="2.06186">
        <ele>12</ele>
        <time>2022-04-12T12:56:53Z</time>
      </trkpt>
      <trkpt lat="49.99223" lon="2.06185">
        <ele>12</ele>
        <time>2022-04-12T12:56:54Z</time>
      </trkpt>
      <trkpt lat="49.99224" lon="2.06184">
        <ele>12</ele>
        <time>2022-04-12T12:56:55Z</time>
      </trkpt>
      <trkpt lat="49.99225" lon="2.06183">
        <ele>12</ele>
        <time>2022-04-12T12:56:56Z</time>
      </trkpt>
      <trkpt lat="49.99226" lon="2.06182">
        <ele>12</ele>
        <time>2022-04-12T12:56:57Z</time>
      </trkpt>
      <trkpt lat="49.99227" lon="2.06182">
        <ele>12</ele>
        <time>2022-04-12T12:56:58Z</time>
      </trkpt>
      <trkpt lat="49.99229" lon="2.0618">
        <ele>12.1</ele>
        <time>2022-04-12T12:56:59Z</time>
      </trkpt>
      <trkpt lat="49.99229" lon="2.06179">
        <ele>12.1</ele>
        <time>2022-04-12T12:57:00Z</time>
      </trkpt>
      <trkpt lat="49.9923" lon="2.06179">
        <ele>12.1</ele>
        <time>2022-04-12T12:57:01Z</time>
      </trkpt>
      <trkpt lat="49.99231" lon="2.06178">
        <ele>12.1</ele>
        <time>2022-04-12T12:57:02Z</time>
      </trkpt>
      <trkpt lat="49.99232" lon="2.06176">
        <ele>12.1</ele>
        <time>2022-04-12T12:57:03Z</time>
      </trkpt>
      <trkpt lat="49.99233" lon="2.06176">
        <ele>12.1</ele>
        <time>2022-04-12T12:57:05Z</time>
      </trkpt>
      <trkpt lat="49.99234" lon="2.06175">
        <ele>12.1</ele>
        <time>2022-04-12T12:57:06Z</time>
      </trkpt>
      <trkpt lat="49.99235" lon="2.06174">
        <ele>12.1</ele>
        <time>2022-04-12T12:57:07Z</time>
      </trkpt>
      <trkpt lat="49.99236" lon="2.06173">
        <ele>12.1</ele>
        <time>2022-04-12T12:57:08Z</time>
      </trkpt>
      <trkpt lat="49.99237" lon="2.06172">
        <ele>12</ele>
        <time>2022-04-12T12:57:09Z</time>
      </trkpt>
      <trkpt lat="49.99238" lon="2.06171">
        <ele>12</ele>
        <time>2022-04-12T12:57:10Z</time>
      </trkpt>
      <trkpt lat="49.99239" lon="2.0617">
        <ele>12</ele>
        <time>2022-04-12T12:57:11Z</time>
      </trkpt>
      <trkpt lat="49.99241" lon="2.06168">
        <ele>12</ele>
        <time>2022-04-12T12:57:12Z</time>
      </trkpt>
      <trkpt lat="49.99241" lon="2.06167">
        <ele>12.1</ele>
        <time>2022-04-12T12:57:13Z</time>
      </trkpt>
      <trkpt lat="49.99242" lon="2.06166">
        <ele>12.1</ele>
        <time>2022-04-12T12:57:14Z</time>
      </trkpt>
      <trkpt lat="49.99243" lon="2.06165">
        <ele>12.1</ele>
        <time>2022-04-12T12:57:15Z</time>
      </trkpt>
      <trkpt lat="49.99244" lon="2.06165">
        <ele>12.1</ele>
        <time>2022-04-12T12:57:17Z</time>
      </trkpt>
      <trkpt lat="49.99245" lon="2.06164">
        <ele>12.1</ele>
        <time>2022-04-12T12:57:18Z</time>
      </trkpt>
      <trkpt lat="49.99246" lon="2.06163">
        <ele>12.1</ele>
        <time>2022-04-12T12:57:19Z</time>
      </trkpt>
      <trkpt lat="49.99247" lon="2.06161">
        <ele>12.1</ele>
        <time>2022-04-12T12:57:20Z</time>
      </trkpt>
      <trkpt lat="49.99248" lon="2.0616">
        <ele>12.1</ele>
        <time>2022-04-12T12:57:21Z</time>
      </trkpt>
      <trkpt lat="49.99248" lon="2.0616">
        <ele>12.1</ele>
        <time>2022-04-12T12:57:22Z</time>
      </trkpt>
      <trkpt lat="49.99249" lon="2.06159">
        <ele>12.1</ele>
        <time>2022-04-12T12:57:23Z</time>
      </trkpt>
      <trkpt lat="49.9925" lon="2.06158">
        <ele>12.1</ele>
        <time>2022-04-12T12:57:24Z</time>
      </trkpt>
      <trkpt lat="49.99251" lon="2.06157">
        <ele>12</ele>
        <time>2022-04-12T12:57:25Z</time>
      </trkpt>
      <trkpt lat="49.99252" lon="2.06156">
        <ele>12</ele>
        <time>2022-04-12T12:57:26Z</time>
      </trkpt>
      <trkpt lat="49.99253" lon="2.06155">
        <ele>12</ele>
        <time>2022-04-12T12:57:27Z</time>
      </trkpt>
      <trkpt lat="49.99254" lon="2.06154">
        <ele>12</ele>
        <time>2022-04-12T12:57:29Z</time>
      </trkpt>
      <trkpt lat="49.99255" lon="2.06154">
        <ele>12</ele>
        <time>2022-04-12T12:57:30Z</time>
      </trkpt>
      <trkpt lat="49.99256" lon="2.06153">
        <ele>12</ele>
        <time>2022-04-12T12:57:31Z</time>
      </trkpt>
      <trkpt lat="49.99257" lon="2.06152">
        <ele>12</ele>
        <time>2022-04-12T12:57:32Z</time>
      </trkpt>
      <trkpt lat="49.99257" lon="2.0615">
        <ele>12</ele>
        <time>2022-04-12T12:57:33Z</time>
      </trkpt>
      <trkpt lat="49.99258" lon="2.06149">
        <ele>12</ele>
        <time>2022-04-12T12:57:34Z</time>
      </trkpt>
      <trkpt lat="49.9926" lon="2.06147">
        <ele>12</ele>
        <time>2022-04-12T12:57:35Z</time>
      </trkpt>
      <trkpt lat="49.99261" lon="2.06147">
        <ele>12</ele>
        <time>2022-04-12T12:57:36Z</time>
      </trkpt>
      <trkpt lat="49.99261" lon="2.06146">
        <ele>12</ele>
        <time>2022-04-12T12:57:37Z</time>
      </trkpt>
      <trkpt lat="49.99262" lon="2.06144">
        <ele>12</ele>
        <time>2022-04-12T12:57:38Z</time>
      </trkpt>
      <trkpt lat="49.99263" lon="2.06143">
        <ele>12</ele>
        <time>2022-04-12T12:57:39Z</time>
      </trkpt>
      <trkpt lat="49.99264" lon="2.06142">
        <ele>12</ele>
        <time>2022-04-12T12:57:41Z</time>
      </trkpt>
      <trkpt lat="49.99265" lon="2.06141">
        <ele>12</ele>
        <time>2022-04-12T12:57:42Z</time>
      </trkpt>
      <trkpt lat="49.99266" lon="2.0614">
        <ele>12</ele>
        <time>2022-04-12T12:57:43Z</time>
      </trkpt>
      <trkpt lat="49.99267" lon="2.06139">
        <ele>12</ele>
        <time>2022-04-12T12:57:44Z</time>
      </trkpt>
      <trkpt lat="49.99267" lon="2.06138">
        <ele>12</ele>
        <time>2022-04-12T12:57:45Z</time>
      </trkpt>
      <trkpt lat="49.99268" lon="2.06137">
        <ele>12</ele>
        <time>2022-04-12T12:57:46Z</time>
      </trkpt>
      <trkpt lat="49.99269" lon="2.06136">
        <ele>12</ele>
        <time>2022-04-12T12:57:47Z</time>
      </trkpt>
      <trkpt lat="49.9927" lon="2.06135">
        <ele>12</ele>
        <time>2022-04-12T12:57:48Z</time>
      </trkpt>
      <trkpt lat="49.99271" lon="2.06133">
        <ele>12</ele>
        <time>2022-04-12T12:57:49Z</time>
      </trkpt>
      <trkpt lat="49.99272" lon="2.06132">
        <ele>12</ele>
        <time>2022-04-12T12:57:50Z</time>
      </trkpt>
      <trkpt lat="49.99273" lon="2.06131">
        <ele>12</ele>
        <time>2022-04-12T12:57:51Z</time>
      </trkpt>
      <trkpt lat="49.99274" lon="2.0613">
        <ele>12</ele>
        <time>2022-04-12T12:57:53Z</time>
      </trkpt>
      <trkpt lat="49.99275" lon="2.06129">
        <ele>12</ele>
        <time>2022-04-12T12:57:54Z</time>
      </trkpt>
      <trkpt lat="49.99276" lon="2.06128">
        <ele>12</ele>
        <time>2022-04-12T12:57:55Z</time>
      </trkpt>
      <trkpt lat="49.99277" lon="2.06127">
        <ele>12</ele>
        <time>2022-04-12T12:57:56Z</time>
      </trkpt>
      <trkpt lat="49.99278" lon="2.06126">
        <ele>12</ele>
        <time>2022-04-12T12:57:57Z</time>
      </trkpt>
      <trkpt lat="49.99279" lon="2.06125">
        <ele>12</ele>
        <time>2022-04-12T12:57:58Z</time>
      </trkpt>
      <trkpt lat="49.9928" lon="2.06124">
        <ele>12</ele>
        <time>2022-04-12T12:57:59Z</time>
      </trkpt>
      <trkpt lat="49.99281" lon="2.06123">
        <ele>12</ele>
        <time>2022-04-12T12:58:00Z</time>
      </trkpt>
      <trkpt lat="49.99283" lon="2.06122">
        <ele>12</ele>
        <time>2022-04-12T12:58:02Z</time>
      </trkpt>
      <trkpt lat="49.99284" lon="2.06121">
        <ele>12</ele>
        <time>2022-04-12T12:58:03Z</time>
      </trkpt>
      <trkpt lat="49.99285" lon="2.0612">
        <ele>12</ele>
        <time>2022-04-12T12:58:04Z</time>
      </trkpt>
      <trkpt lat="49.99286" lon="2.06119">
        <ele>12</ele>
        <time>2022-04-12T12:58:05Z</time>
      </trkpt>
      <trkpt lat="49.99288" lon="2.06118">
        <ele>12</ele>
        <time>2022-04-12T12:58:06Z</time>
      </trkpt>
      <trkpt lat="49.99289" lon="2.06117">
        <ele>12</ele>
        <time>2022-04-12T12:58:07Z</time>
      </trkpt>
      <trkpt lat="49.9929" lon="2.06117">
        <ele>12</ele>
        <time>2022-04-12T12:58:08Z</time>
      </trkpt>
      <trkpt lat="49.99291" lon="2.06116">
        <ele>12</ele>
        <time>2022-04-12T12:58:09Z</time>
      </trkpt>
      <trkpt lat="49.99292" lon="2.06115">
        <ele>12</ele>
        <time>2022-04-12T12:58:10Z</time>
      </trkpt>
      <trkpt lat="49.99293" lon="2.06114">
        <ele>12</ele>
        <time>2022-04-12T12:58:12Z</time>
      </trkpt>
      <trkpt lat="49.99294" lon="2.06112">
        <ele>12</ele>
        <time>2022-04-12T12:58:13Z</time>
      </trkpt>
      <trkpt lat="49.99295" lon="2.06112">
        <ele>12</ele>
        <time>2022-04-12T12:58:14Z</time>
      </trkpt>
      <trkpt lat="49.99296" lon="2.06111">
        <ele>12</ele>
        <time>2022-04-12T12:58:15Z</time>
      </trkpt>
      <trkpt lat="49.99297" lon="2.0611">
        <ele>12</ele>
        <time>2022-04-12T12:58:16Z</time>
      </trkpt>
      <trkpt lat="49.99298" lon="2.06109">
        <ele>12</ele>
        <time>2022-04-12T12:58:17Z</time>
      </trkpt>
      <trkpt lat="49.99299" lon="2.06108">
        <ele>12</ele>
        <time>2022-04-12T12:58:18Z</time>
      </trkpt>
      <trkpt lat="49.99301" lon="2.06107">
        <ele>12</ele>
        <time>2022-04-12T12:58:19Z</time>
      </trkpt>
      <trkpt lat="49.99302" lon="2.06106">
        <ele>12</ele>
        <time>2022-04-12T12:58:20Z</time>
      </trkpt>
      <trkpt lat="49.99302" lon="2.06105">
        <ele>12</ele>
        <time>2022-04-12T12:58:21Z</time>
      </trkpt>
      <trkpt lat="49.99303" lon="2.06104">
        <ele>12</ele>
        <time>2022-04-12T12:58:23Z</time>
      </trkpt>
      <trkpt lat="49.99304" lon="2.06104">
        <ele>12</ele>
        <time>2022-04-12T12:58:24Z</time>
      </trkpt>
      <trkpt lat="49.99305" lon="2.06103">
        <ele>12</ele>
        <time>2022-04-12T12:58:25Z</time>
      </trkpt>
      <trkpt lat="49.99306" lon="2.06102">
        <ele>12</ele>
        <time>2022-04-12T12:58:26Z</time>
      </trkpt>
      <trkpt lat="49.99307" lon="2.06101">
        <ele>12.1</ele>
        <time>2022-04-12T12:58:27Z</time>
      </trkpt>
      <trkpt lat="49.99308" lon="2.061">
        <ele>12.1</ele>
        <time>2022-04-12T12:58:28Z</time>
      </trkpt>
      <trkpt lat="49.99309" lon="2.06099">
        <ele>12.1</ele>
        <time>2022-04-12T12:58:29Z</time>
      </trkpt>
      <trkpt lat="49.9931" lon="2.06098">
        <ele>12.1</ele>
        <time>2022-04-12T12:58:30Z</time>
      </trkpt>
      <trkpt lat="49.9931" lon="2.06097">
        <ele>12.1</ele>
        <time>2022-04-12T12:58:31Z</time>
      </trkpt>
      <trkpt lat="49.99311" lon="2.06096">
        <ele>12.1</ele>
        <time>2022-04-12T12:58:32Z</time>
      </trkpt>
      <trkpt lat="49.99312" lon="2.06095">
        <ele>12.1</ele>
        <time>2022-04-12T12:58:34Z</time>
      </trkpt>
      <trkpt lat="49.99313" lon="2.06094">
        <ele>12.1</ele>
        <time>2022-04-12T12:58:35Z</time>
      </trkpt>
      <trkpt lat="49.99314" lon="2.06093">
        <ele>12.1</ele>
        <time>2022-04-12T12:58:36Z</time>
      </trkpt>
      <trkpt lat="49.99315" lon="2.06093">
        <ele>12.1</ele>
        <time>2022-04-12T12:58:37Z</time>
      </trkpt>
      <trkpt lat="49.99316" lon="2.06092">
        <ele>12.1</ele>
        <time>2022-04-12T12:58:38Z</time>
      </trkpt>
      <trkpt lat="49.99316" lon="2.06091">
        <ele>12.1</ele>
        <time>2022-04-12T12:58:39Z</time>
      </trkpt>
      <trkpt lat="49.99317" lon="2.0609">
        <ele>12.1</ele>
        <time>2022-04-12T12:58:40Z</time>
      </trkpt>
      <trkpt lat="49.99319" lon="2.06089">
        <ele>12.1</ele>
        <time>2022-04-12T12:58:41Z</time>
      </trkpt>
      <trkpt lat="49.9932" lon="2.06088">
        <ele>12.1</ele>
        <time>2022-04-12T12:58:42Z</time>
      </trkpt>
      <trkpt lat="49.99321" lon="2.06088">
        <ele>12.1</ele>
        <time>2022-04-12T12:58:43Z</time>
      </trkpt>
      <trkpt lat="49.99322" lon="2.06087">
        <ele>12.1</ele>
        <time>2022-04-12T12:58:45Z</time>
      </trkpt>
      <trkpt lat="49.99323" lon="2.06086">
        <ele>12.1</ele>
        <time>2022-04-12T12:58:46Z</time>
      </trkpt>
      <trkpt lat="49.99324" lon="2.06085">
        <ele>12.1</ele>
        <time>2022-04-12T12:58:47Z</time>
      </trkpt>
      <trkpt lat="49.99325" lon="2.06084">
        <ele>12.1</ele>
        <time>2022-04-12T12:58:48Z</time>
      </trkpt>
      <trkpt lat="49.99326" lon="2.06084">
        <ele>12.1</ele>
        <time>2022-04-12T12:58:49Z</time>
      </trkpt>
      <trkpt lat="49.99326" lon="2.06083">
        <ele>12.1</ele>
        <time>2022-04-12T12:58:50Z</time>
      </trkpt>
      <trkpt lat="49.99327" lon="2.06082">
        <ele>12.1</ele>
        <time>2022-04-12T12:58:51Z</time>
      </trkpt>
      <trkpt lat="49.99328" lon="2.06081">
        <ele>12.1</ele>
        <time>2022-04-12T12:58:52Z</time>
      </trkpt>
      <trkpt lat="49.9933" lon="2.0608">
        <ele>12.1</ele>
        <time>2022-04-12T12:58:53Z</time>
      </trkpt>
      <trkpt lat="49.9933" lon="2.06079">
        <ele>12.1</ele>
        <time>2022-04-12T12:58:54Z</time>
      </trkpt>
      <trkpt lat="49.99332" lon="2.06078">
        <ele>12.1</ele>
        <time>2022-04-12T12:58:56Z</time>
      </trkpt>
      <trkpt lat="49.99333" lon="2.06076">
        <ele>12.1</ele>
        <time>2022-04-12T12:58:57Z</time>
      </trkpt>
      <trkpt lat="49.99334" lon="2.06075">
        <ele>12.1</ele>
        <time>2022-04-12T12:58:58Z</time>
      </trkpt>
      <trkpt lat="49.99335" lon="2.06074">
        <ele>12.1</ele>
        <time>2022-04-12T12:59:00Z</time>
      </trkpt>
      <trkpt lat="49.99336" lon="2.06073">
        <ele>12.1</ele>
        <time>2022-04-12T12:59:01Z</time>
      </trkpt>
      <trkpt lat="49.99338" lon="2.06072">
        <ele>12.1</ele>
        <time>2022-04-12T12:59:02Z</time>
      </trkpt>
      <trkpt lat="49.99338" lon="2.06071">
        <ele>12.1</ele>
        <time>2022-04-12T12:59:03Z</time>
      </trkpt>
      <trkpt lat="49.99339" lon="2.0607">
        <ele>12.1</ele>
        <time>2022-04-12T12:59:04Z</time>
      </trkpt>
      <trkpt lat="49.99341" lon="2.06069">
        <ele>12.1</ele>
        <time>2022-04-12T12:59:05Z</time>
      </trkpt>
      <trkpt lat="49.99341" lon="2.06068">
        <ele>12.1</ele>
        <time>2022-04-12T12:59:06Z</time>
      </trkpt>
      <trkpt lat="49.99342" lon="2.06067">
        <ele>12.1</ele>
        <time>2022-04-12T12:59:07Z</time>
      </trkpt>
      <trkpt lat="49.99343" lon="2.06066">
        <ele>12.1</ele>
        <time>2022-04-12T12:59:08Z</time>
      </trkpt>
      <trkpt lat="49.99344" lon="2.06065">
        <ele>12.1</ele>
        <time>2022-04-12T12:59:09Z</time>
      </trkpt>
      <trkpt lat="49.99346" lon="2.06064">
        <ele>12.1</ele>
        <time>2022-04-12T12:59:10Z</time>
      </trkpt>
      <trkpt lat="49.99347" lon="2.06063">
        <ele>12.1</ele>
        <time>2022-04-12T12:59:11Z</time>
      </trkpt>
      <trkpt lat="49.99348" lon="2.06062">
        <ele>12.1</ele>
        <time>2022-04-12T12:59:13Z</time>
      </trkpt>
      <trkpt lat="49.9935" lon="2.06061">
        <ele>12.1</ele>
        <time>2022-04-12T12:59:14Z</time>
      </trkpt>
      <trkpt lat="49.9935" lon="2.0606">
        <ele>12.1</ele>
        <time>2022-04-12T12:59:15Z</time>
      </trkpt>
      <trkpt lat="49.99351" lon="2.06059">
        <ele>12.1</ele>
        <time>2022-04-12T12:59:16Z</time>
      </trkpt>
      <trkpt lat="49.99353" lon="2.06057">
        <ele>12.1</ele>
        <time>2022-04-12T12:59:17Z</time>
      </trkpt>
      <trkpt lat="49.99353" lon="2.06057">
        <ele>12.1</ele>
        <time>2022-04-12T12:59:18Z</time>
      </trkpt>
      <trkpt lat="49.99354" lon="2.06056">
        <ele>12.1</ele>
        <time>2022-04-12T12:59:19Z</time>
      </trkpt>
      <trkpt lat="49.99356" lon="2.06054">
        <ele>12.1</ele>
        <time>2022-04-12T12:59:20Z</time>
      </trkpt>
      <trkpt lat="49.99357" lon="2.06054">
        <ele>12.1</ele>
        <time>2022-04-12T12:59:21Z</time>
      </trkpt>
      <trkpt lat="49.99357" lon="2.06053">
        <ele>12.1</ele>
        <time>2022-04-12T12:59:22Z</time>
      </trkpt>
      <trkpt lat="49.99359" lon="2.06052">
        <ele>12.1</ele>
        <time>2022-04-12T12:59:23Z</time>
      </trkpt>
      <trkpt lat="49.9936" lon="2.06051">
        <ele>12.1</ele>
        <time>2022-04-12T12:59:24Z</time>
      </trkpt>
      <trkpt lat="49.99361" lon="2.0605">
        <ele>12.1</ele>
        <time>2022-04-12T12:59:26Z</time>
      </trkpt>
      <trkpt lat="49.99361" lon="2.06049">
        <ele>12.1</ele>
        <time>2022-04-12T12:59:27Z</time>
      </trkpt>
      <trkpt lat="49.99362" lon="2.06048">
        <ele>12.2</ele>
        <time>2022-04-12T12:59:28Z</time>
      </trkpt>
      <trkpt lat="49.99363" lon="2.06047">
        <ele>12.2</ele>
        <time>2022-04-12T12:59:29Z</time>
      </trkpt>
      <trkpt lat="49.99365" lon="2.06045">
        <ele>12.2</ele>
        <time>2022-04-12T12:59:30Z</time>
      </trkpt>
      <trkpt lat="49.99366" lon="2.06044">
        <ele>12.2</ele>
        <time>2022-04-12T12:59:31Z</time>
      </trkpt>
      <trkpt lat="49.99367" lon="2.06044">
        <ele>12.2</ele>
        <time>2022-04-12T12:59:32Z</time>
      </trkpt>
      <trkpt lat="49.99368" lon="2.06043">
        <ele>12.2</ele>
        <time>2022-04-12T12:59:33Z</time>
      </trkpt>
      <trkpt lat="49.99369" lon="2.06041">
        <ele>12.2</ele>
        <time>2022-04-12T12:59:34Z</time>
      </trkpt>
      <trkpt lat="49.99371" lon="2.0604">
        <ele>12.2</ele>
        <time>2022-04-12T12:59:36Z</time>
      </trkpt>
      <trkpt lat="49.99372" lon="2.06039">
        <ele>12.2</ele>
        <time>2022-04-12T12:59:37Z</time>
      </trkpt>
      <trkpt lat="49.99373" lon="2.06038">
        <ele>12.2</ele>
        <time>2022-04-12T12:59:38Z</time>
      </trkpt>
      <trkpt lat="49.99374" lon="2.06037">
        <ele>12.2</ele>
        <time>2022-04-12T12:59:39Z</time>
      </trkpt>
      <trkpt lat="49.99375" lon="2.06036">
        <ele>12.2</ele>
        <time>2022-04-12T12:59:40Z</time>
      </trkpt>
      <trkpt lat="49.99376" lon="2.06035">
        <ele>12.2</ele>
        <time>2022-04-12T12:59:41Z</time>
      </trkpt>
      <trkpt lat="49.99377" lon="2.06034">
        <ele>12.2</ele>
        <time>2022-04-12T12:59:42Z</time>
      </trkpt>
      <trkpt lat="49.99379" lon="2.06033">
        <ele>12.2</ele>
        <time>2022-04-12T12:59:43Z</time>
      </trkpt>
      <trkpt lat="49.9938" lon="2.06032">
        <ele>12.2</ele>
        <time>2022-04-12T12:59:45Z</time>
      </trkpt>
      <trkpt lat="49.9938" lon="2.06031">
        <ele>12.2</ele>
        <time>2022-04-12T12:59:46Z</time>
      </trkpt>
      <trkpt lat="49.99382" lon="2.0603">
        <ele>12.2</ele>
        <time>2022-04-12T12:59:47Z</time>
      </trkpt>
      <trkpt lat="49.99383" lon="2.06029">
        <ele>12.2</ele>
        <time>2022-04-12T12:59:48Z</time>
      </trkpt>
      <trkpt lat="49.99384" lon="2.06029">
        <ele>12.2</ele>
        <time>2022-04-12T12:59:49Z</time>
      </trkpt>
      <trkpt lat="49.99386" lon="2.06027">
        <ele>12.2</ele>
        <time>2022-04-12T12:59:50Z</time>
      </trkpt>
      <trkpt lat="49.99387" lon="2.06026">
        <ele>12.2</ele>
        <time>2022-04-12T12:59:51Z</time>
      </trkpt>
      <trkpt lat="49.99387" lon="2.06025">
        <ele>12.2</ele>
        <time>2022-04-12T12:59:53Z</time>
      </trkpt>
      <trkpt lat="49.99388" lon="2.06025">
        <ele>12.2</ele>
        <time>2022-04-12T12:59:54Z</time>
      </trkpt>
      <trkpt lat="49.99389" lon="2.06024">
        <ele>12.2</ele>
        <time>2022-04-12T12:59:55Z</time>
      </trkpt>
      <trkpt lat="49.9939" lon="2.06023">
        <ele>12.2</ele>
        <time>2022-04-12T12:59:56Z</time>
      </trkpt>
      <trkpt lat="49.99392" lon="2.06021">
        <ele>12.2</ele>
        <time>2022-04-12T12:59:57Z</time>
      </trkpt>
      <trkpt lat="49.99392" lon="2.06021">
        <ele>12.2</ele>
        <time>2022-04-12T12:59:58Z</time>
      </trkpt>
      <trkpt lat="49.99393" lon="2.0602">
        <ele>12.2</ele>
        <time>2022-04-12T12:59:59Z</time>
      </trkpt>
      <trkpt lat="49.99394" lon="2.06019">
        <ele>12.2</ele>
        <time>2022-04-12T13:00:00Z</time>
      </trkpt>
      <trkpt lat="49.99395" lon="2.06018">
        <ele>12.2</ele>
        <time>2022-04-12T13:00:01Z</time>
      </trkpt>
      <trkpt lat="49.99397" lon="2.06017">
        <ele>12.2</ele>
        <time>2022-04-12T13:00:03Z</time>
      </trkpt>
      <trkpt lat="49.99398" lon="2.06016">
        <ele>12.2</ele>
        <time>2022-04-12T13:00:04Z</time>
      </trkpt>
      <trkpt lat="49.99399" lon="2.06016">
        <ele>12.2</ele>
        <time>2022-04-12T13:00:05Z</time>
      </trkpt>
      <trkpt lat="49.994" lon="2.06015">
        <ele>12.3</ele>
        <time>2022-04-12T13:00:06Z</time>
      </trkpt>
      <trkpt lat="49.99401" lon="2.06013">
        <ele>12.3</ele>
        <time>2022-04-12T13:00:07Z</time>
      </trkpt>
      <trkpt lat="49.99402" lon="2.06012">
        <ele>12.3</ele>
        <time>2022-04-12T13:00:08Z</time>
      </trkpt>
      <trkpt lat="49.99403" lon="2.06011">
        <ele>12.3</ele>
        <time>2022-04-12T13:00:09Z</time>
      </trkpt>
      <trkpt lat="49.99404" lon="2.0601">
        <ele>12.3</ele>
        <time>2022-04-12T13:00:11Z</time>
      </trkpt>
      <trkpt lat="49.99405" lon="2.06009">
        <ele>12.3</ele>
        <time>2022-04-12T13:00:12Z</time>
      </trkpt>
      <trkpt lat="49.99406" lon="2.06008">
        <ele>12.3</ele>
        <time>2022-04-12T13:00:13Z</time>
      </trkpt>
      <trkpt lat="49.99407" lon="2.06007">
        <ele>12.3</ele>
        <time>2022-04-12T13:00:14Z</time>
      </trkpt>
      <trkpt lat="49.99408" lon="2.06006">
        <ele>12.3</ele>
        <time>2022-04-12T13:00:15Z</time>
      </trkpt>
      <trkpt lat="49.99408" lon="2.06005">
        <ele>12.3</ele>
        <time>2022-04-12T13:00:16Z</time>
      </trkpt>
      <trkpt lat="49.99409" lon="2.06004">
        <ele>12.3</ele>
        <time>2022-04-12T13:00:17Z</time>
      </trkpt>
      <trkpt lat="49.9941" lon="2.06004">
        <ele>12.3</ele>
        <time>2022-04-12T13:00:18Z</time>
      </trkpt>
      <trkpt lat="49.99412" lon="2.06002">
        <ele>12.4</ele>
        <time>2022-04-12T13:00:20Z</time>
      </trkpt>
      <trkpt lat="49.99413" lon="2.06001">
        <ele>12.4</ele>
        <time>2022-04-12T13:00:21Z</time>
      </trkpt>
      <trkpt lat="49.99414" lon="2.06001">
        <ele>12.4</ele>
        <time>2022-04-12T13:00:22Z</time>
      </trkpt>
      <trkpt lat="49.99415" lon="2.06">
        <ele>12.4</ele>
        <time>2022-04-12T13:00:23Z</time>
      </trkpt>
      <trkpt lat="49.99417" lon="2.05998">
        <ele>12.4</ele>
        <time>2022-04-12T13:00:24Z</time>
      </trkpt>
      <trkpt lat="49.99418" lon="2.05997">
        <ele>12.4</ele>
        <time>2022-04-12T13:00:25Z</time>
      </trkpt>
      <trkpt lat="49.99418" lon="2.05997">
        <ele>12.4</ele>
        <time>2022-04-12T13:00:26Z</time>
      </trkpt>
      <trkpt lat="49.9942" lon="2.05996">
        <ele>12.4</ele>
        <time>2022-04-12T13:00:27Z</time>
      </trkpt>
      <trkpt lat="49.99421" lon="2.05995">
        <ele>12.4</ele>
        <time>2022-04-12T13:00:28Z</time>
      </trkpt>
      <trkpt lat="49.99422" lon="2.05994">
        <ele>12.4</ele>
        <time>2022-04-12T13:00:30Z</time>
      </trkpt>
      <trkpt lat="49.99423" lon="2.05993">
        <ele>12.4</ele>
        <time>2022-04-12T13:00:31Z</time>
      </trkpt>
      <trkpt lat="49.99424" lon="2.05992">
        <ele>12.4</ele>
        <time>2022-04-12T13:00:32Z</time>
      </trkpt>
      <trkpt lat="49.99425" lon="2.05992">
        <ele>12.4</ele>
        <time>2022-04-12T13:00:33Z</time>
      </trkpt>
      <trkpt lat="49.99426" lon="2.05991">
        <ele>12.4</ele>
        <time>2022-04-12T13:00:34Z</time>
      </trkpt>
      <trkpt lat="49.99427" lon="2.0599">
        <ele>12.4</ele>
        <time>2022-04-12T13:00:35Z</time>
      </trkpt>
      <trkpt lat="49.99428" lon="2.05989">
        <ele>12.4</ele>
        <time>2022-04-12T13:00:36Z</time>
      </trkpt>
      <trkpt lat="49.9943" lon="2.05987">
        <ele>12.4</ele>
        <time>2022-04-12T13:00:37Z</time>
      </trkpt>
      <trkpt lat="49.9943" lon="2.05986">
        <ele>12.4</ele>
        <time>2022-04-12T13:00:38Z</time>
      </trkpt>
      <trkpt lat="49.99431" lon="2.05985">
        <ele>12.4</ele>
        <time>2022-04-12T13:00:39Z</time>
      </trkpt>
      <trkpt lat="49.99433" lon="2.05983">
        <ele>12.4</ele>
        <time>2022-04-12T13:00:40Z</time>
      </trkpt>
      <trkpt lat="49.99434" lon="2.05983">
        <ele>12.4</ele>
        <time>2022-04-12T13:00:41Z</time>
      </trkpt>
      <trkpt lat="49.99435" lon="2.05982">
        <ele>12.4</ele>
        <time>2022-04-12T13:00:43Z</time>
      </trkpt>
      <trkpt lat="49.99435" lon="2.05981">
        <ele>12.4</ele>
        <time>2022-04-12T13:00:44Z</time>
      </trkpt>
      <trkpt lat="49.99436" lon="2.0598">
        <ele>12.4</ele>
        <time>2022-04-12T13:00:45Z</time>
      </trkpt>
      <trkpt lat="49.99437" lon="2.0598">
        <ele>12.4</ele>
        <time>2022-04-12T13:00:46Z</time>
      </trkpt>
      <trkpt lat="49.99438" lon="2.05978">
        <ele>12.4</ele>
        <time>2022-04-12T13:00:47Z</time>
      </trkpt>
      <trkpt lat="49.99439" lon="2.05977">
        <ele>12.4</ele>
        <time>2022-04-12T13:00:48Z</time>
      </trkpt>
      <trkpt lat="49.9944" lon="2.05977">
        <ele>12.3</ele>
        <time>2022-04-12T13:00:49Z</time>
      </trkpt>
      <trkpt lat="49.99441" lon="2.05976">
        <ele>12.3</ele>
        <time>2022-04-12T13:00:50Z</time>
      </trkpt>
      <trkpt lat="49.99442" lon="2.05974">
        <ele>12.3</ele>
        <time>2022-04-12T13:00:51Z</time>
      </trkpt>
      <trkpt lat="49.99443" lon="2.05973">
        <ele>12.3</ele>
        <time>2022-04-12T13:00:52Z</time>
      </trkpt>
      <trkpt lat="49.99444" lon="2.05972">
        <ele>12.3</ele>
        <time>2022-04-12T13:00:53Z</time>
      </trkpt>
      <trkpt lat="49.99445" lon="2.05971">
        <ele>12.3</ele>
        <time>2022-04-12T13:00:54Z</time>
      </trkpt>
      <trkpt lat="49.99447" lon="2.05969">
        <ele>12.3</ele>
        <time>2022-04-12T13:00:56Z</time>
      </trkpt>
      <trkpt lat="49.99448" lon="2.05968">
        <ele>12.3</ele>
        <time>2022-04-12T13:00:57Z</time>
      </trkpt>
      <trkpt lat="49.99449" lon="2.05968">
        <ele>12.3</ele>
        <time>2022-04-12T13:00:58Z</time>
      </trkpt>
      <trkpt lat="49.9945" lon="2.05967">
        <ele>12.3</ele>
        <time>2022-04-12T13:00:59Z</time>
      </trkpt>
      <trkpt lat="49.99451" lon="2.05966">
        <ele>12.3</ele>
        <time>2022-04-12T13:01:00Z</time>
      </trkpt>
      <trkpt lat="49.99452" lon="2.05965">
        <ele>12.3</ele>
        <time>2022-04-12T13:01:01Z</time>
      </trkpt>
      <trkpt lat="49.99454" lon="2.05964">
        <ele>12.3</ele>
        <time>2022-04-12T13:01:02Z</time>
      </trkpt>
      <trkpt lat="49.99454" lon="2.05963">
        <ele>12.3</ele>
        <time>2022-04-12T13:01:03Z</time>
      </trkpt>
      <trkpt lat="49.99455" lon="2.05962">
        <ele>12.3</ele>
        <time>2022-04-12T13:01:04Z</time>
      </trkpt>
      <trkpt lat="49.99456" lon="2.05962">
        <ele>12.3</ele>
        <time>2022-04-12T13:01:05Z</time>
      </trkpt>
      <trkpt lat="49.99457" lon="2.05961">
        <ele>12.3</ele>
        <time>2022-04-12T13:01:06Z</time>
      </trkpt>
      <trkpt lat="49.99458" lon="2.0596">
        <ele>12.3</ele>
        <time>2022-04-12T13:01:08Z</time>
      </trkpt>
      <trkpt lat="49.99459" lon="2.05959">
        <ele>12.3</ele>
        <time>2022-04-12T13:01:09Z</time>
      </trkpt>
      <trkpt lat="49.9946" lon="2.05958">
        <ele>12.3</ele>
        <time>2022-04-12T13:01:10Z</time>
      </trkpt>
      <trkpt lat="49.99461" lon="2.05957">
        <ele>12.3</ele>
        <time>2022-04-12T13:01:11Z</time>
      </trkpt>
      <trkpt lat="49.99462" lon="2.05956">
        <ele>12.3</ele>
        <time>2022-04-12T13:01:12Z</time>
      </trkpt>
      <trkpt lat="49.99463" lon="2.05956">
        <ele>12.3</ele>
        <time>2022-04-12T13:01:13Z</time>
      </trkpt>
      <trkpt lat="49.99464" lon="2.05955">
        <ele>12.3</ele>
        <time>2022-04-12T13:01:14Z</time>
      </trkpt>
      <trkpt lat="49.99466" lon="2.05953">
        <ele>12.3</ele>
        <time>2022-04-12T13:01:15Z</time>
      </trkpt>
      <trkpt lat="49.99466" lon="2.05952">
        <ele>12.3</ele>
        <time>2022-04-12T13:01:16Z</time>
      </trkpt>
      <trkpt lat="49.99467" lon="2.05952">
        <ele>12.3</ele>
        <time>2022-04-12T13:01:17Z</time>
      </trkpt>
      <trkpt lat="49.99468" lon="2.05951">
        <ele>12.3</ele>
        <time>2022-04-12T13:01:19Z</time>
      </trkpt>
      <trkpt lat="49.99469" lon="2.0595">
        <ele>12.3</ele>
        <time>2022-04-12T13:01:20Z</time>
      </trkpt>
      <trkpt lat="49.9947" lon="2.05949">
        <ele>12.3</ele>
        <time>2022-04-12T13:01:21Z</time>
      </trkpt>
      <trkpt lat="49.99471" lon="2.05948">
        <ele>12.3</ele>
        <time>2022-04-12T13:01:22Z</time>
      </trkpt>
      <trkpt lat="49.99472" lon="2.05947">
        <ele>12.3</ele>
        <time>2022-04-12T13:01:23Z</time>
      </trkpt>
      <trkpt lat="49.99472" lon="2.05946">
        <ele>12.3</ele>
        <time>2022-04-12T13:01:24Z</time>
      </trkpt>
      <trkpt lat="49.99473" lon="2.05945">
        <ele>12.3</ele>
        <time>2022-04-12T13:01:25Z</time>
      </trkpt>
      <trkpt lat="49.99474" lon="2.05944">
        <ele>12.3</ele>
        <time>2022-04-12T13:01:26Z</time>
      </trkpt>
      <trkpt lat="49.99475" lon="2.05943">
        <ele>12.3</ele>
        <time>2022-04-12T13:01:27Z</time>
      </trkpt>
      <trkpt lat="49.99476" lon="2.05942">
        <ele>12.3</ele>
        <time>2022-04-12T13:01:28Z</time>
      </trkpt>
      <trkpt lat="49.99477" lon="2.05941">
        <ele>12.3</ele>
        <time>2022-04-12T13:01:30Z</time>
      </trkpt>
      <trkpt lat="49.99478" lon="2.0594">
        <ele>12.3</ele>
        <time>2022-04-12T13:01:31Z</time>
      </trkpt>
      <trkpt lat="49.99478" lon="2.05939">
        <ele>12.3</ele>
        <time>2022-04-12T13:01:32Z</time>
      </trkpt>
      <trkpt lat="49.99478" lon="2.05937">
        <ele>12.3</ele>
        <time>2022-04-12T13:01:33Z</time>
      </trkpt>
      <trkpt lat="49.99478" lon="2.05936">
        <ele>12.3</ele>
        <time>2022-04-12T13:01:34Z</time>
      </trkpt>
      <trkpt lat="49.99478" lon="2.05935">
        <ele>12.3</ele>
        <time>2022-04-12T13:01:35Z</time>
      </trkpt>
      <trkpt lat="49.99479" lon="2.05934">
        <ele>12.2</ele>
        <time>2022-04-12T13:01:36Z</time>
      </trkpt>
      <trkpt lat="49.9948" lon="2.05933">
        <ele>12.2</ele>
        <time>2022-04-12T13:01:37Z</time>
      </trkpt>
      <trkpt lat="49.99481" lon="2.05932">
        <ele>12.2</ele>
        <time>2022-04-12T13:01:39Z</time>
      </trkpt>
      <trkpt lat="49.99482" lon="2.05932">
        <ele>12.2</ele>
        <time>2022-04-12T13:01:40Z</time>
      </trkpt>
      <trkpt lat="49.99483" lon="2.05931">
        <ele>12.2</ele>
        <time>2022-04-12T13:01:41Z</time>
      </trkpt>
      <trkpt lat="49.99484" lon="2.0593">
        <ele>12.2</ele>
        <time>2022-04-12T13:01:42Z</time>
      </trkpt>
      <trkpt lat="49.99485" lon="2.0593">
        <ele>12.2</ele>
        <time>2022-04-12T13:01:43Z</time>
      </trkpt>
      <trkpt lat="49.99486" lon="2.05929">
        <ele>12.2</ele>
        <time>2022-04-12T13:01:44Z</time>
      </trkpt>
      <trkpt lat="49.99487" lon="2.05928">
        <ele>12.2</ele>
        <time>2022-04-12T13:01:45Z</time>
      </trkpt>
      <trkpt lat="49.99488" lon="2.05927">
        <ele>12.2</ele>
        <time>2022-04-12T13:01:46Z</time>
      </trkpt>
      <trkpt lat="49.99489" lon="2.05927">
        <ele>12.2</ele>
        <time>2022-04-12T13:01:47Z</time>
      </trkpt>
      <trkpt lat="49.9949" lon="2.05926">
        <ele>12.2</ele>
        <time>2022-04-12T13:01:48Z</time>
      </trkpt>
      <trkpt lat="49.99491" lon="2.05926">
        <ele>12.2</ele>
        <time>2022-04-12T13:01:49Z</time>
      </trkpt>
      <trkpt lat="49.99492" lon="2.05925">
        <ele>12.2</ele>
        <time>2022-04-12T13:01:50Z</time>
      </trkpt>
      <trkpt lat="49.99493" lon="2.05924">
        <ele>12.2</ele>
        <time>2022-04-12T13:01:52Z</time>
      </trkpt>
      <trkpt lat="49.99494" lon="2.05923">
        <ele>12.2</ele>
        <time>2022-04-12T13:01:53Z</time>
      </trkpt>
      <trkpt lat="49.99495" lon="2.05922">
        <ele>12.2</ele>
        <time>2022-04-12T13:01:54Z</time>
      </trkpt>
      <trkpt lat="49.99496" lon="2.05922">
        <ele>12.2</ele>
        <time>2022-04-12T13:01:55Z</time>
      </trkpt>
      <trkpt lat="49.99497" lon="2.05921">
        <ele>12.2</ele>
        <time>2022-04-12T13:01:56Z</time>
      </trkpt>
      <trkpt lat="49.99498" lon="2.0592">
        <ele>12.2</ele>
        <time>2022-04-12T13:01:57Z</time>
      </trkpt>
      <trkpt lat="49.99499" lon="2.05919">
        <ele>12.2</ele>
        <time>2022-04-12T13:01:58Z</time>
      </trkpt>
      <trkpt lat="49.995" lon="2.05918">
        <ele>12.2</ele>
        <time>2022-04-12T13:01:59Z</time>
      </trkpt>
      <trkpt lat="49.99501" lon="2.05918">
        <ele>12.2</ele>
        <time>2022-04-12T13:02:00Z</time>
      </trkpt>
      <trkpt lat="49.99502" lon="2.05917">
        <ele>12.2</ele>
        <time>2022-04-12T13:02:01Z</time>
      </trkpt>
      <trkpt lat="49.99503" lon="2.05916">
        <ele>12.2</ele>
        <time>2022-04-12T13:02:03Z</time>
      </trkpt>
      <trkpt lat="49.99504" lon="2.05915">
        <ele>12.2</ele>
        <time>2022-04-12T13:02:04Z</time>
      </trkpt>
      <trkpt lat="49.99505" lon="2.05914">
        <ele>12.2</ele>
        <time>2022-04-12T13:02:05Z</time>
      </trkpt>
      <trkpt lat="49.99506" lon="2.05913">
        <ele>12.2</ele>
        <time>2022-04-12T13:02:06Z</time>
      </trkpt>
      <trkpt lat="49.99507" lon="2.05913">
        <ele>12.2</ele>
        <time>2022-04-12T13:02:07Z</time>
      </trkpt>
      <trkpt lat="49.99508" lon="2.05912">
        <ele>12.2</ele>
        <time>2022-04-12T13:02:08Z</time>
      </trkpt>
      <trkpt lat="49.9951" lon="2.0591">
        <ele>12.2</ele>
        <time>2022-04-12T13:02:09Z</time>
      </trkpt>
      <trkpt lat="49.9951" lon="2.05909">
        <ele>12.2</ele>
        <time>2022-04-12T13:02:10Z</time>
      </trkpt>
      <trkpt lat="49.99511" lon="2.05909">
        <ele>12.2</ele>
        <time>2022-04-12T13:02:11Z</time>
      </trkpt>
      <trkpt lat="49.99512" lon="2.05908">
        <ele>12.2</ele>
        <time>2022-04-12T13:02:12Z</time>
      </trkpt>
      <trkpt lat="49.99513" lon="2.05907">
        <ele>12.2</ele>
        <time>2022-04-12T13:02:14Z</time>
      </trkpt>
      <trkpt lat="49.99514" lon="2.05906">
        <ele>12.2</ele>
        <time>2022-04-12T13:02:15Z</time>
      </trkpt>
      <trkpt lat="49.99515" lon="2.05906">
        <ele>12.2</ele>
        <time>2022-04-12T13:02:16Z</time>
      </trkpt>
      <trkpt lat="49.99516" lon="2.05905">
        <ele>12.2</ele>
        <time>2022-04-12T13:02:17Z</time>
      </trkpt>
      <trkpt lat="49.99517" lon="2.05904">
        <ele>12.2</ele>
        <time>2022-04-12T13:02:18Z</time>
      </trkpt>
      <trkpt lat="49.99518" lon="2.05903">
        <ele>12.2</ele>
        <time>2022-04-12T13:02:19Z</time>
      </trkpt>
      <trkpt lat="49.99519" lon="2.05903">
        <ele>12.2</ele>
        <time>2022-04-12T13:02:20Z</time>
      </trkpt>
      <trkpt lat="49.9952" lon="2.05902">
        <ele>12.2</ele>
        <time>2022-04-12T13:02:21Z</time>
      </trkpt>
      <trkpt lat="49.99522" lon="2.059">
        <ele>12.1</ele>
        <time>2022-04-12T13:02:22Z</time>
      </trkpt>
      <trkpt lat="49.99523" lon="2.05899">
        <ele>12.1</ele>
        <time>2022-04-12T13:02:24Z</time>
      </trkpt>
      <trkpt lat="49.99523" lon="2.05899">
        <ele>12.1</ele>
        <time>2022-04-12T13:02:25Z</time>
      </trkpt>
      <trkpt lat="49.99524" lon="2.05898">
        <ele>12.1</ele>
        <time>2022-04-12T13:02:26Z</time>
      </trkpt>
      <trkpt lat="49.99525" lon="2.05897">
        <ele>12.1</ele>
        <time>2022-04-12T13:02:27Z</time>
      </trkpt>
      <trkpt lat="49.99526" lon="2.05896">
        <ele>12.1</ele>
        <time>2022-04-12T13:02:28Z</time>
      </trkpt>
      <trkpt lat="49.99527" lon="2.05895">
        <ele>12.1</ele>
        <time>2022-04-12T13:02:29Z</time>
      </trkpt>
      <trkpt lat="49.99528" lon="2.05894">
        <ele>12.1</ele>
        <time>2022-04-12T13:02:30Z</time>
      </trkpt>
      <trkpt lat="49.9953" lon="2.05893">
        <ele>12.1</ele>
        <time>2022-04-12T13:02:32Z</time>
      </trkpt>
      <trkpt lat="49.9953" lon="2.05893">
        <ele>12.1</ele>
        <time>2022-04-12T13:02:33Z</time>
      </trkpt>
      <trkpt lat="49.99531" lon="2.05894">
        <ele>12.1</ele>
        <time>2022-04-12T13:02:34Z</time>
      </trkpt>
      <trkpt lat="49.99531" lon="2.05894">
        <ele>12.1</ele>
        <time>2022-04-12T13:02:35Z</time>
      </trkpt>
      <trkpt lat="49.99531" lon="2.05895">
        <ele>12.1</ele>
        <time>2022-04-12T13:02:36Z</time>
      </trkpt>
      <trkpt lat="49.99531" lon="2.05895">
        <ele>12.1</ele>
        <time>2022-04-12T13:02:37Z</time>
      </trkpt>
      <trkpt lat="49.99531" lon="2.05896">
        <ele>12.1</ele>
        <time>2022-04-12T13:02:38Z</time>
      </trkpt>
      <trkpt lat="49.99531" lon="2.05896">
        <ele>12.1</ele>
        <time>2022-04-12T13:02:39Z</time>
      </trkpt>
      <trkpt lat="49.99531" lon="2.05896">
        <ele>12.1</ele>
        <time>2022-04-12T13:02:40Z</time>
      </trkpt>
      <trkpt lat="49.99531" lon="2.05897">
        <ele>12.1</ele>
        <time>2022-04-12T13:02:41Z</time>
      </trkpt>
      <trkpt lat="49.99531" lon="2.05897">
        <ele>12.1</ele>
        <time>2022-04-12T13:02:42Z</time>
      </trkpt>
      <trkpt lat="49.99531" lon="2.05897">
        <ele>12.1</ele>
        <time>2022-04-12T13:02:43Z</time>
      </trkpt>
      <trkpt lat="49.99531" lon="2.05897">
        <ele>12.1</ele>
        <time>2022-04-12T13:02:44Z</time>
      </trkpt>
      <trkpt lat="49.99531" lon="2.05897">
        <ele>12.1</ele>
        <time>2022-04-12T13:02:45Z</time>
      </trkpt>
      <trkpt lat="49.99531" lon="2.05897">
        <ele>12.1</ele>
        <time>2022-04-12T13:02:46Z</time>
      </trkpt>
      <trkpt lat="49.99531" lon="2.05898">
        <ele>12.1</ele>
        <time>2022-04-12T13:02:47Z</time>
      </trkpt>
      <trkpt lat="49.99531" lon="2.05898">
        <ele>12.1</ele>
        <time>2022-04-12T13:02:48Z</time>
      </trkpt>
      <trkpt lat="49.99531" lon="2.05898">
        <ele>12.1</ele>
        <time>2022-04-12T13:02:49Z</time>
      </trkpt>
      <trkpt lat="49.99531" lon="2.05898">
        <ele>12.1</ele>
        <time>2022-04-12T13:02:50Z</time>
      </trkpt>
      <trkpt lat="49.99531" lon="2.05898">
        <ele>12.1</ele>
        <time>2022-04-12T13:02:51Z</time>
      </trkpt>
      <trkpt lat="49.99531" lon="2.05897">
        <ele>12.1</ele>
        <time>2022-04-12T13:02:52Z</time>
      </trkpt>
      <trkpt lat="49.99531" lon="2.05897">
        <ele>12.1</ele>
        <time>2022-04-12T13:02:53Z</time>
      </trkpt>
      <trkpt lat="49.99531" lon="2.05897">
        <ele>12.1</ele>
        <time>2022-04-12T13:02:54Z</time>
      </trkpt>
      <trkpt lat="49.99531" lon="2.05897">
        <ele>12.1</ele>
        <time>2022-04-12T13:02:55Z</time>
      </trkpt>
      <trkpt lat="49.99531" lon="2.05897">
        <ele>12.1</ele>
        <time>2022-04-12T13:02:56Z</time>
      </trkpt>
      <trkpt lat="49.99531" lon="2.05897">
        <ele>12.1</ele>
        <time>2022-04-12T13:02:57Z</time>
      </trkpt>
      <trkpt lat="49.99531" lon="2.05897">
        <ele>12.1</ele>
        <time>2022-04-12T13:02:58Z</time>
      </trkpt>
      <trkpt lat="49.9953" lon="2.05895">
        <ele>12.1</ele>
        <time>2022-04-12T13:02:59Z</time>
      </trkpt>
      <trkpt lat="49.99529" lon="2.05893">
        <ele>12.1</ele>
        <time>2022-04-12T13:03:00Z</time>
      </trkpt>
      <trkpt lat="49.99529" lon="2.05892">
        <ele>12.1</ele>
        <time>2022-04-12T13:03:01Z</time>
      </trkpt>
      <trkpt lat="49.99531" lon="2.05894">
        <ele>12.1</ele>
        <time>2022-04-12T13:03:02Z</time>
      </trkpt>
      <trkpt lat="49.99531" lon="2.05894">
        <ele>12.1</ele>
        <time>2022-04-12T13:03:03Z</time>
      </trkpt>
      <trkpt lat="49.99532" lon="2.05892">
        <ele>12.1</ele>
        <time>2022-04-12T13:03:04Z</time>
      </trkpt>
      <trkpt lat="49.99532" lon="2.0589">
        <ele>12</ele>
        <time>2022-04-12T13:03:05Z</time>
      </trkpt>
      <trkpt lat="49.99533" lon="2.05887">
        <ele>12</ele>
        <time>2022-04-12T13:03:06Z</time>
      </trkpt>
      <trkpt lat="49.99533" lon="2.05886">
        <ele>12</ele>
        <time>2022-04-12T13:03:07Z</time>
      </trkpt>
      <trkpt lat="49.99533" lon="2.05885">
        <ele>12</ele>
        <time>2022-04-12T13:03:08Z</time>
      </trkpt>
      <trkpt lat="49.99534" lon="2.05882">
        <ele>12</ele>
        <time>2022-04-12T13:03:10Z</time>
      </trkpt>
      <trkpt lat="49.99535" lon="2.05881">
        <ele>12</ele>
        <time>2022-04-12T13:03:11Z</time>
      </trkpt>
      <trkpt lat="49.99535" lon="2.0588">
        <ele>12</ele>
        <time>2022-04-12T13:03:12Z</time>
      </trkpt>
      <trkpt lat="49.99536" lon="2.05878">
        <ele>12</ele>
        <time>2022-04-12T13:03:13Z</time>
      </trkpt>
      <trkpt lat="49.99537" lon="2.05877">
        <ele>12</ele>
        <time>2022-04-12T13:03:14Z</time>
      </trkpt>
      <trkpt lat="49.99538" lon="2.05874">
        <ele>12</ele>
        <time>2022-04-12T13:03:16Z</time>
      </trkpt>
      <trkpt lat="49.99539" lon="2.05873">
        <ele>12</ele>
        <time>2022-04-12T13:03:17Z</time>
      </trkpt>
      <trkpt lat="49.99541" lon="2.05871">
        <ele>12</ele>
        <time>2022-04-12T13:03:18Z</time>
      </trkpt>
      <trkpt lat="49.99542" lon="2.0587">
        <ele>12</ele>
        <time>2022-04-12T13:03:19Z</time>
      </trkpt>
      <trkpt lat="49.99543" lon="2.0587">
        <ele>12</ele>
        <time>2022-04-12T13:03:20Z</time>
      </trkpt>
      <trkpt lat="49.99544" lon="2.05869">
        <ele>12</ele>
        <time>2022-04-12T13:03:21Z</time>
      </trkpt>
      <trkpt lat="49.99545" lon="2.05868">
        <ele>12</ele>
        <time>2022-04-12T13:03:23Z</time>
      </trkpt>
      <trkpt lat="49.99546" lon="2.05867">
        <ele>12</ele>
        <time>2022-04-12T13:03:24Z</time>
      </trkpt>
      <trkpt lat="49.99547" lon="2.05866">
        <ele>11.9</ele>
        <time>2022-04-12T13:03:25Z</time>
      </trkpt>
      <trkpt lat="49.99547" lon="2.05865">
        <ele>11.9</ele>
        <time>2022-04-12T13:03:26Z</time>
      </trkpt>
      <trkpt lat="49.99548" lon="2.05864">
        <ele>11.9</ele>
        <time>2022-04-12T13:03:27Z</time>
      </trkpt>
      <trkpt lat="49.99549" lon="2.05864">
        <ele>11.9</ele>
        <time>2022-04-12T13:03:28Z</time>
      </trkpt>
      <trkpt lat="49.9955" lon="2.05863">
        <ele>11.9</ele>
        <time>2022-04-12T13:03:29Z</time>
      </trkpt>
      <trkpt lat="49.99551" lon="2.05862">
        <ele>11.9</ele>
        <time>2022-04-12T13:03:30Z</time>
      </trkpt>
      <trkpt lat="49.99552" lon="2.05861">
        <ele>11.9</ele>
        <time>2022-04-12T13:03:31Z</time>
      </trkpt>
      <trkpt lat="49.99553" lon="2.0586">
        <ele>11.9</ele>
        <time>2022-04-12T13:03:32Z</time>
      </trkpt>
      <trkpt lat="49.99554" lon="2.0586">
        <ele>11.9</ele>
        <time>2022-04-12T13:03:33Z</time>
      </trkpt>
      <trkpt lat="49.99555" lon="2.05859">
        <ele>11.9</ele>
        <time>2022-04-12T13:03:34Z</time>
      </trkpt>
      <trkpt lat="49.99556" lon="2.05858">
        <ele>11.9</ele>
        <time>2022-04-12T13:03:35Z</time>
      </trkpt>
      <trkpt lat="49.99558" lon="2.05857">
        <ele>11.9</ele>
        <time>2022-04-12T13:03:37Z</time>
      </trkpt>
      <trkpt lat="49.99559" lon="2.05856">
        <ele>11.9</ele>
        <time>2022-04-12T13:03:38Z</time>
      </trkpt>
      <trkpt lat="49.9956" lon="2.05856">
        <ele>11.9</ele>
        <time>2022-04-12T13:03:39Z</time>
      </trkpt>
      <trkpt lat="49.99561" lon="2.05855">
        <ele>11.9</ele>
        <time>2022-04-12T13:03:41Z</time>
      </trkpt>
      <trkpt lat="49.99562" lon="2.05855">
        <ele>11.9</ele>
        <time>2022-04-12T13:03:42Z</time>
      </trkpt>
      <trkpt lat="49.99563" lon="2.05856">
        <ele>11.9</ele>
        <time>2022-04-12T13:03:43Z</time>
      </trkpt>
      <trkpt lat="49.99563" lon="2.05856">
        <ele>11.9</ele>
        <time>2022-04-12T13:03:44Z</time>
      </trkpt>
      <trkpt lat="49.99564" lon="2.05857">
        <ele>11.9</ele>
        <time>2022-04-12T13:03:45Z</time>
      </trkpt>
      <trkpt lat="49.99564" lon="2.05857">
        <ele>11.9</ele>
        <time>2022-04-12T13:03:46Z</time>
      </trkpt>
      <trkpt lat="49.99564" lon="2.05857">
        <ele>11.9</ele>
        <time>2022-04-12T13:03:47Z</time>
      </trkpt>
      <trkpt lat="49.99564" lon="2.05857">
        <ele>11.9</ele>
        <time>2022-04-12T13:03:48Z</time>
      </trkpt>
      <trkpt lat="49.99564" lon="2.05858">
        <ele>11.9</ele>
        <time>2022-04-12T13:03:49Z</time>
      </trkpt>
      <trkpt lat="49.99564" lon="2.05858">
        <ele>11.9</ele>
        <time>2022-04-12T13:03:50Z</time>
      </trkpt>
      <trkpt lat="49.99564" lon="2.05858">
        <ele>11.9</ele>
        <time>2022-04-12T13:03:51Z</time>
      </trkpt>
      <trkpt lat="49.99564" lon="2.05858">
        <ele>11.9</ele>
        <time>2022-04-12T13:03:52Z</time>
      </trkpt>
      <trkpt lat="49.99564" lon="2.05858">
        <ele>11.9</ele>
        <time>2022-04-12T13:03:53Z</time>
      </trkpt>
      <trkpt lat="49.99564" lon="2.05858">
        <ele>11.9</ele>
        <time>2022-04-12T13:03:54Z</time>
      </trkpt>
      <trkpt lat="49.99564" lon="2.05858">
        <ele>11.9</ele>
        <time>2022-04-12T13:03:55Z</time>
      </trkpt>
      <trkpt lat="49.99564" lon="2.05857">
        <ele>11.9</ele>
        <time>2022-04-12T13:03:56Z</time>
      </trkpt>
      <trkpt lat="49.99565" lon="2.05857">
        <ele>11.9</ele>
        <time>2022-04-12T13:03:57Z</time>
      </trkpt>
      <trkpt lat="49.99565" lon="2.05856">
        <ele>11.9</ele>
        <time>2022-04-12T13:03:59Z</time>
      </trkpt>
      <trkpt lat="49.99566" lon="2.05855">
        <ele>11.9</ele>
        <time>2022-04-12T13:04:00Z</time>
      </trkpt>
      <trkpt lat="49.99568" lon="2.05853">
        <ele>11.9</ele>
        <time>2022-04-12T13:04:01Z</time>
      </trkpt>
      <trkpt lat="49.99569" lon="2.05852">
        <ele>11.9</ele>
        <time>2022-04-12T13:04:02Z</time>
      </trkpt>
      <trkpt lat="49.99569" lon="2.05851">
        <ele>11.9</ele>
        <time>2022-04-12T13:04:03Z</time>
      </trkpt>
      <trkpt lat="49.99571" lon="2.05849">
        <ele>11.9</ele>
        <time>2022-04-12T13:04:04Z</time>
      </trkpt>
      <trkpt lat="49.99572" lon="2.05847">
        <ele>11.9</ele>
        <time>2022-04-12T13:04:05Z</time>
      </trkpt>
      <trkpt lat="49.99573" lon="2.05846">
        <ele>11.9</ele>
        <time>2022-04-12T13:04:06Z</time>
      </trkpt>
      <trkpt lat="49.99574" lon="2.05844">
        <ele>11.9</ele>
        <time>2022-04-12T13:04:08Z</time>
      </trkpt>
      <trkpt lat="49.99575" lon="2.05843">
        <ele>11.9</ele>
        <time>2022-04-12T13:04:09Z</time>
      </trkpt>
      <trkpt lat="49.99576" lon="2.05841">
        <ele>11.9</ele>
        <time>2022-04-12T13:04:10Z</time>
      </trkpt>
      <trkpt lat="49.99577" lon="2.0584">
        <ele>11.9</ele>
        <time>2022-04-12T13:04:11Z</time>
      </trkpt>
      <trkpt lat="49.99578" lon="2.05839">
        <ele>11.9</ele>
        <time>2022-04-12T13:04:12Z</time>
      </trkpt>
      <trkpt lat="49.99579" lon="2.05838">
        <ele>11.9</ele>
        <time>2022-04-12T13:04:13Z</time>
      </trkpt>
      <trkpt lat="49.9958" lon="2.05837">
        <ele>11.9</ele>
        <time>2022-04-12T13:04:14Z</time>
      </trkpt>
      <trkpt lat="49.99581" lon="2.05836">
        <ele>11.9</ele>
        <time>2022-04-12T13:04:15Z</time>
      </trkpt>
      <trkpt lat="49.99582" lon="2.05835">
        <ele>11.9</ele>
        <time>2022-04-12T13:04:16Z</time>
      </trkpt>
      <trkpt lat="49.99583" lon="2.05834">
        <ele>11.9</ele>
        <time>2022-04-12T13:04:17Z</time>
      </trkpt>
      <trkpt lat="49.99584" lon="2.05834">
        <ele>11.9</ele>
        <time>2022-04-12T13:04:19Z</time>
      </trkpt>
      <trkpt lat="49.99585" lon="2.05833">
        <ele>11.9</ele>
        <time>2022-04-12T13:04:20Z</time>
      </trkpt>
      <trkpt lat="49.99586" lon="2.05832">
        <ele>11.9</ele>
        <time>2022-04-12T13:04:21Z</time>
      </trkpt>
      <trkpt lat="49.99587" lon="2.05832">
        <ele>11.9</ele>
        <time>2022-04-12T13:04:22Z</time>
      </trkpt>
      <trkpt lat="49.99588" lon="2.05831">
        <ele>11.9</ele>
        <time>2022-04-12T13:04:23Z</time>
      </trkpt>
      <trkpt lat="49.99589" lon="2.0583">
        <ele>11.9</ele>
        <time>2022-04-12T13:04:24Z</time>
      </trkpt>
      <trkpt lat="49.9959" lon="2.05829">
        <ele>11.9</ele>
        <time>2022-04-12T13:04:25Z</time>
      </trkpt>
      <trkpt lat="49.99591" lon="2.05829">
        <ele>11.9</ele>
        <time>2022-04-12T13:04:26Z</time>
      </trkpt>
      <trkpt lat="49.99593" lon="2.05827">
        <ele>11.9</ele>
        <time>2022-04-12T13:04:27Z</time>
      </trkpt>
      <trkpt lat="49.99594" lon="2.05826">
        <ele>11.9</ele>
        <time>2022-04-12T13:04:28Z</time>
      </trkpt>
      <trkpt lat="49.99595" lon="2.05826">
        <ele>11.9</ele>
        <time>2022-04-12T13:04:29Z</time>
      </trkpt>
      <trkpt lat="49.99596" lon="2.05824">
        <ele>11.9</ele>
        <time>2022-04-12T13:04:30Z</time>
      </trkpt>
      <trkpt lat="49.99597" lon="2.05823">
        <ele>11.9</ele>
        <time>2022-04-12T13:04:32Z</time>
      </trkpt>
      <trkpt lat="49.99598" lon="2.05822">
        <ele>11.9</ele>
        <time>2022-04-12T13:04:33Z</time>
      </trkpt>
      <trkpt lat="49.99599" lon="2.05821">
        <ele>11.9</ele>
        <time>2022-04-12T13:04:34Z</time>
      </trkpt>
      <trkpt lat="49.996" lon="2.0582">
        <ele>11.9</ele>
        <time>2022-04-12T13:04:35Z</time>
      </trkpt>
      <trkpt lat="49.99601" lon="2.05819">
        <ele>11.9</ele>
        <time>2022-04-12T13:04:36Z</time>
      </trkpt>
      <trkpt lat="49.99602" lon="2.05819">
        <ele>11.9</ele>
        <time>2022-04-12T13:04:37Z</time>
      </trkpt>
      <trkpt lat="49.99603" lon="2.05817">
        <ele>11.9</ele>
        <time>2022-04-12T13:04:38Z</time>
      </trkpt>
      <trkpt lat="49.99604" lon="2.05816">
        <ele>11.9</ele>
        <time>2022-04-12T13:04:39Z</time>
      </trkpt>
      <trkpt lat="49.99606" lon="2.05815">
        <ele>11.9</ele>
        <time>2022-04-12T13:04:40Z</time>
      </trkpt>
      <trkpt lat="49.99606" lon="2.05814">
        <ele>11.9</ele>
        <time>2022-04-12T13:04:41Z</time>
      </trkpt>
      <trkpt lat="49.99607" lon="2.05813">
        <ele>11.9</ele>
        <time>2022-04-12T13:04:42Z</time>
      </trkpt>
      <trkpt lat="49.99608" lon="2.05812">
        <ele>11.9</ele>
        <time>2022-04-12T13:04:43Z</time>
      </trkpt>
      <trkpt lat="49.99609" lon="2.05811">
        <ele>11.9</ele>
        <time>2022-04-12T13:04:44Z</time>
      </trkpt>
      <trkpt lat="49.9961" lon="2.05809">
        <ele>11.9</ele>
        <time>2022-04-12T13:04:46Z</time>
      </trkpt>
      <trkpt lat="49.99612" lon="2.05808">
        <ele>11.9</ele>
        <time>2022-04-12T13:04:47Z</time>
      </trkpt>
      <trkpt lat="49.99613" lon="2.05807">
        <ele>11.9</ele>
        <time>2022-04-12T13:04:48Z</time>
      </trkpt>
      <trkpt lat="49.99613" lon="2.05807">
        <ele>11.9</ele>
        <time>2022-04-12T13:04:49Z</time>
      </trkpt>
      <trkpt lat="49.99614" lon="2.05806">
        <ele>11.9</ele>
        <time>2022-04-12T13:04:50Z</time>
      </trkpt>
      <trkpt lat="49.99615" lon="2.05805">
        <ele>11.9</ele>
        <time>2022-04-12T13:04:51Z</time>
      </trkpt>
      <trkpt lat="49.99616" lon="2.05805">
        <ele>11.9</ele>
        <time>2022-04-12T13:04:52Z</time>
      </trkpt>
      <trkpt lat="49.99617" lon="2.05804">
        <ele>11.9</ele>
        <time>2022-04-12T13:04:53Z</time>
      </trkpt>
      <trkpt lat="49.99618" lon="2.05803">
        <ele>11.9</ele>
        <time>2022-04-12T13:04:54Z</time>
      </trkpt>
      <trkpt lat="49.99619" lon="2.05802">
        <ele>11.9</ele>
        <time>2022-04-12T13:04:55Z</time>
      </trkpt>
      <trkpt lat="49.9962" lon="2.05801">
        <ele>11.9</ele>
        <time>2022-04-12T13:04:56Z</time>
      </trkpt>
      <trkpt lat="49.99621" lon="2.05799">
        <ele>11.9</ele>
        <time>2022-04-12T13:04:57Z</time>
      </trkpt>
      <trkpt lat="49.99622" lon="2.05799">
        <ele>11.9</ele>
        <time>2022-04-12T13:04:58Z</time>
      </trkpt>
      <trkpt lat="49.99623" lon="2.05797">
        <ele>11.9</ele>
        <time>2022-04-12T13:05:00Z</time>
      </trkpt>
      <trkpt lat="49.99624" lon="2.05797">
        <ele>11.9</ele>
        <time>2022-04-12T13:05:01Z</time>
      </trkpt>
      <trkpt lat="49.99625" lon="2.05796">
        <ele>11.9</ele>
        <time>2022-04-12T13:05:02Z</time>
      </trkpt>
      <trkpt lat="49.99626" lon="2.05795">
        <ele>11.9</ele>
        <time>2022-04-12T13:05:03Z</time>
      </trkpt>
      <trkpt lat="49.99627" lon="2.05794">
        <ele>11.9</ele>
        <time>2022-04-12T13:05:04Z</time>
      </trkpt>
      <trkpt lat="49.99628" lon="2.05793">
        <ele>11.9</ele>
        <time>2022-04-12T13:05:05Z</time>
      </trkpt>
      <trkpt lat="49.99629" lon="2.05792">
        <ele>11.9</ele>
        <time>2022-04-12T13:05:06Z</time>
      </trkpt>
      <trkpt lat="49.9963" lon="2.05792">
        <ele>11.9</ele>
        <time>2022-04-12T13:05:07Z</time>
      </trkpt>
      <trkpt lat="49.99632" lon="2.0579">
        <ele>11.9</ele>
        <time>2022-04-12T13:05:08Z</time>
      </trkpt>
      <trkpt lat="49.99633" lon="2.05789">
        <ele>11.9</ele>
        <time>2022-04-12T13:05:09Z</time>
      </trkpt>
      <trkpt lat="49.99634" lon="2.05789">
        <ele>11.9</ele>
        <time>2022-04-12T13:05:10Z</time>
      </trkpt>
      <trkpt lat="49.99635" lon="2.05788">
        <ele>11.9</ele>
        <time>2022-04-12T13:05:11Z</time>
      </trkpt>
      <trkpt lat="49.99636" lon="2.05787">
        <ele>11.9</ele>
        <time>2022-04-12T13:05:12Z</time>
      </trkpt>
      <trkpt lat="49.99637" lon="2.05786">
        <ele>11.9</ele>
        <time>2022-04-12T13:05:14Z</time>
      </trkpt>
      <trkpt lat="49.99638" lon="2.05785">
        <ele>11.9</ele>
        <time>2022-04-12T13:05:15Z</time>
      </trkpt>
      <trkpt lat="49.99639" lon="2.05784">
        <ele>11.9</ele>
        <time>2022-04-12T13:05:16Z</time>
      </trkpt>
      <trkpt lat="49.9964" lon="2.05783">
        <ele>11.9</ele>
        <time>2022-04-12T13:05:17Z</time>
      </trkpt>
      <trkpt lat="49.99641" lon="2.05782">
        <ele>11.9</ele>
        <time>2022-04-12T13:05:18Z</time>
      </trkpt>
      <trkpt lat="49.99642" lon="2.05781">
        <ele>11.9</ele>
        <time>2022-04-12T13:05:19Z</time>
      </trkpt>
      <trkpt lat="49.99643" lon="2.0578">
        <ele>11.8</ele>
        <time>2022-04-12T13:05:20Z</time>
      </trkpt>
      <trkpt lat="49.99644" lon="2.05779">
        <ele>11.8</ele>
        <time>2022-04-12T13:05:21Z</time>
      </trkpt>
      <trkpt lat="49.99645" lon="2.05778">
        <ele>11.8</ele>
        <time>2022-04-12T13:05:22Z</time>
      </trkpt>
      <trkpt lat="49.99646" lon="2.05777">
        <ele>11.8</ele>
        <time>2022-04-12T13:05:23Z</time>
      </trkpt>
      <trkpt lat="49.99647" lon="2.05776">
        <ele>11.8</ele>
        <time>2022-04-12T13:05:24Z</time>
      </trkpt>
      <trkpt lat="49.99648" lon="2.05775">
        <ele>11.8</ele>
        <time>2022-04-12T13:05:26Z</time>
      </trkpt>
      <trkpt lat="49.99649" lon="2.05774">
        <ele>11.8</ele>
        <time>2022-04-12T13:05:27Z</time>
      </trkpt>
      <trkpt lat="49.9965" lon="2.05773">
        <ele>11.8</ele>
        <time>2022-04-12T13:05:28Z</time>
      </trkpt>
      <trkpt lat="49.99651" lon="2.05772">
        <ele>11.8</ele>
        <time>2022-04-12T13:05:29Z</time>
      </trkpt>
      <trkpt lat="49.99652" lon="2.05771">
        <ele>11.8</ele>
        <time>2022-04-12T13:05:30Z</time>
      </trkpt>
      <trkpt lat="49.99653" lon="2.0577">
        <ele>11.8</ele>
        <time>2022-04-12T13:05:31Z</time>
      </trkpt>
      <trkpt lat="49.99654" lon="2.05769">
        <ele>11.8</ele>
        <time>2022-04-12T13:05:32Z</time>
      </trkpt>
      <trkpt lat="49.99655" lon="2.05768">
        <ele>11.8</ele>
        <time>2022-04-12T13:05:33Z</time>
      </trkpt>
      <trkpt lat="49.99656" lon="2.05767">
        <ele>11.8</ele>
        <time>2022-04-12T13:05:34Z</time>
      </trkpt>
      <trkpt lat="49.99657" lon="2.05766">
        <ele>11.8</ele>
        <time>2022-04-12T13:05:35Z</time>
      </trkpt>
      <trkpt lat="49.99658" lon="2.05765">
        <ele>11.8</ele>
        <time>2022-04-12T13:05:37Z</time>
      </trkpt>
      <trkpt lat="49.9966" lon="2.05764">
        <ele>11.8</ele>
        <time>2022-04-12T13:05:38Z</time>
      </trkpt>
      <trkpt lat="49.99661" lon="2.05764">
        <ele>11.8</ele>
        <time>2022-04-12T13:05:39Z</time>
      </trkpt>
      <trkpt lat="49.99662" lon="2.05763">
        <ele>11.8</ele>
        <time>2022-04-12T13:05:40Z</time>
      </trkpt>
      <trkpt lat="49.99664" lon="2.05761">
        <ele>11.8</ele>
        <time>2022-04-12T13:05:41Z</time>
      </trkpt>
      <trkpt lat="49.99664" lon="2.05761">
        <ele>11.8</ele>
        <time>2022-04-12T13:05:42Z</time>
      </trkpt>
      <trkpt lat="49.99665" lon="2.0576">
        <ele>11.8</ele>
        <time>2022-04-12T13:05:43Z</time>
      </trkpt>
      <trkpt lat="49.99666" lon="2.05759">
        <ele>11.8</ele>
        <time>2022-04-12T13:05:44Z</time>
      </trkpt>
      <trkpt lat="49.99667" lon="2.05759">
        <ele>11.8</ele>
        <time>2022-04-12T13:05:46Z</time>
      </trkpt>
      <trkpt lat="49.99668" lon="2.05758">
        <ele>11.8</ele>
        <time>2022-04-12T13:05:47Z</time>
      </trkpt>
      <trkpt lat="49.99669" lon="2.05757">
        <ele>11.8</ele>
        <time>2022-04-12T13:05:48Z</time>
      </trkpt>
      <trkpt lat="49.9967" lon="2.05756">
        <ele>11.8</ele>
        <time>2022-04-12T13:05:49Z</time>
      </trkpt>
      <trkpt lat="49.99671" lon="2.05755">
        <ele>11.8</ele>
        <time>2022-04-12T13:05:50Z</time>
      </trkpt>
      <trkpt lat="49.99671" lon="2.05754">
        <ele>11.8</ele>
        <time>2022-04-12T13:05:51Z</time>
      </trkpt>
      <trkpt lat="49.99672" lon="2.05752">
        <ele>11.8</ele>
        <time>2022-04-12T13:05:52Z</time>
      </trkpt>
      <trkpt lat="49.99673" lon="2.05751">
        <ele>11.8</ele>
        <time>2022-04-12T13:05:53Z</time>
      </trkpt>
      <trkpt lat="49.99674" lon="2.0575">
        <ele>11.9</ele>
        <time>2022-04-12T13:05:54Z</time>
      </trkpt>
      <trkpt lat="49.99676" lon="2.05748">
        <ele>11.9</ele>
        <time>2022-04-12T13:05:56Z</time>
      </trkpt>
      <trkpt lat="49.99676" lon="2.05748">
        <ele>11.9</ele>
        <time>2022-04-12T13:05:57Z</time>
      </trkpt>
      <trkpt lat="49.99677" lon="2.05747">
        <ele>11.9</ele>
        <time>2022-04-12T13:05:58Z</time>
      </trkpt>
      <trkpt lat="49.99678" lon="2.05746">
        <ele>11.9</ele>
        <time>2022-04-12T13:05:59Z</time>
      </trkpt>
      <trkpt lat="49.9968" lon="2.05744">
        <ele>11.9</ele>
        <time>2022-04-12T13:06:00Z</time>
      </trkpt>
      <trkpt lat="49.99681" lon="2.05743">
        <ele>11.9</ele>
        <time>2022-04-12T13:06:01Z</time>
      </trkpt>
      <trkpt lat="49.99681" lon="2.05743">
        <ele>11.9</ele>
        <time>2022-04-12T13:06:02Z</time>
      </trkpt>
      <trkpt lat="49.99682" lon="2.05742">
        <ele>11.9</ele>
        <time>2022-04-12T13:06:04Z</time>
      </trkpt>
      <trkpt lat="49.99683" lon="2.05741">
        <ele>11.9</ele>
        <time>2022-04-12T13:06:05Z</time>
      </trkpt>
      <trkpt lat="49.99684" lon="2.0574">
        <ele>11.9</ele>
        <time>2022-04-12T13:06:06Z</time>
      </trkpt>
      <trkpt lat="49.99685" lon="2.05739">
        <ele>11.9</ele>
        <time>2022-04-12T13:06:07Z</time>
      </trkpt>
      <trkpt lat="49.99686" lon="2.05738">
        <ele>11.9</ele>
        <time>2022-04-12T13:06:08Z</time>
      </trkpt>
      <trkpt lat="49.99687" lon="2.05738">
        <ele>11.9</ele>
        <time>2022-04-12T13:06:09Z</time>
      </trkpt>
      <trkpt lat="49.99688" lon="2.05737">
        <ele>11.9</ele>
        <time>2022-04-12T13:06:10Z</time>
      </trkpt>
      <trkpt lat="49.99689" lon="2.05736">
        <ele>11.9</ele>
        <time>2022-04-12T13:06:11Z</time>
      </trkpt>
      <trkpt lat="49.9969" lon="2.05735">
        <ele>11.9</ele>
        <time>2022-04-12T13:06:12Z</time>
      </trkpt>
      <trkpt lat="49.99692" lon="2.05733">
        <ele>11.9</ele>
        <time>2022-04-12T13:06:13Z</time>
      </trkpt>
      <trkpt lat="49.99693" lon="2.05732">
        <ele>11.9</ele>
        <time>2022-04-12T13:06:14Z</time>
      </trkpt>
      <trkpt lat="49.99693" lon="2.05731">
        <ele>11.9</ele>
        <time>2022-04-12T13:06:15Z</time>
      </trkpt>
      <trkpt lat="49.99695" lon="2.0573">
        <ele>11.9</ele>
        <time>2022-04-12T13:06:16Z</time>
      </trkpt>
      <trkpt lat="49.99696" lon="2.05729">
        <ele>11.9</ele>
        <time>2022-04-12T13:06:18Z</time>
      </trkpt>
      <trkpt lat="49.99697" lon="2.05728">
        <ele>11.9</ele>
        <time>2022-04-12T13:06:19Z</time>
      </trkpt>
      <trkpt lat="49.99698" lon="2.05727">
        <ele>11.9</ele>
        <time>2022-04-12T13:06:20Z</time>
      </trkpt>
      <trkpt lat="49.99699" lon="2.05727">
        <ele>11.9</ele>
        <time>2022-04-12T13:06:21Z</time>
      </trkpt>
      <trkpt lat="49.997" lon="2.05726">
        <ele>11.9</ele>
        <time>2022-04-12T13:06:22Z</time>
      </trkpt>
      <trkpt lat="49.99701" lon="2.05725">
        <ele>11.9</ele>
        <time>2022-04-12T13:06:23Z</time>
      </trkpt>
      <trkpt lat="49.99702" lon="2.05724">
        <ele>11.9</ele>
        <time>2022-04-12T13:06:24Z</time>
      </trkpt>
      <trkpt lat="49.99703" lon="2.05723">
        <ele>11.9</ele>
        <time>2022-04-12T13:06:25Z</time>
      </trkpt>
      <trkpt lat="49.99705" lon="2.05721">
        <ele>11.9</ele>
        <time>2022-04-12T13:06:26Z</time>
      </trkpt>
      <trkpt lat="49.99705" lon="2.0572">
        <ele>11.9</ele>
        <time>2022-04-12T13:06:27Z</time>
      </trkpt>
      <trkpt lat="49.99706" lon="2.0572">
        <ele>11.9</ele>
        <time>2022-04-12T13:06:28Z</time>
      </trkpt>
      <trkpt lat="49.99707" lon="2.05718">
        <ele>11.9</ele>
        <time>2022-04-12T13:06:29Z</time>
      </trkpt>
      <trkpt lat="49.99708" lon="2.05717">
        <ele>11.9</ele>
        <time>2022-04-12T13:06:30Z</time>
      </trkpt>
      <trkpt lat="49.99709" lon="2.05716">
        <ele>11.9</ele>
        <time>2022-04-12T13:06:31Z</time>
      </trkpt>
      <trkpt lat="49.9971" lon="2.05714">
        <ele>11.9</ele>
        <time>2022-04-12T13:06:33Z</time>
      </trkpt>
      <trkpt lat="49.99711" lon="2.05713">
        <ele>11.9</ele>
        <time>2022-04-12T13:06:34Z</time>
      </trkpt>
      <trkpt lat="49.99712" lon="2.05713">
        <ele>11.9</ele>
        <time>2022-04-12T13:06:35Z</time>
      </trkpt>
      <trkpt lat="49.99712" lon="2.05711">
        <ele>11.9</ele>
        <time>2022-04-12T13:06:36Z</time>
      </trkpt>
      <trkpt lat="49.99713" lon="2.0571">
        <ele>11.9</ele>
        <time>2022-04-12T13:06:37Z</time>
      </trkpt>
      <trkpt lat="49.99714" lon="2.05709">
        <ele>11.9</ele>
        <time>2022-04-12T13:06:38Z</time>
      </trkpt>
      <trkpt lat="49.99715" lon="2.05708">
        <ele>11.9</ele>
        <time>2022-04-12T13:06:39Z</time>
      </trkpt>
      <trkpt lat="49.99716" lon="2.05707">
        <ele>11.9</ele>
        <time>2022-04-12T13:06:40Z</time>
      </trkpt>
      <trkpt lat="49.99717" lon="2.05706">
        <ele>11.9</ele>
        <time>2022-04-12T13:06:41Z</time>
      </trkpt>
      <trkpt lat="49.99718" lon="2.05705">
        <ele>11.9</ele>
        <time>2022-04-12T13:06:42Z</time>
      </trkpt>
      <trkpt lat="49.99719" lon="2.05704">
        <ele>11.9</ele>
        <time>2022-04-12T13:06:43Z</time>
      </trkpt>
      <trkpt lat="49.99721" lon="2.05702">
        <ele>11.9</ele>
        <time>2022-04-12T13:06:44Z</time>
      </trkpt>
      <trkpt lat="49.99722" lon="2.05701">
        <ele>11.9</ele>
        <time>2022-04-12T13:06:46Z</time>
      </trkpt>
      <trkpt lat="49.99723" lon="2.05701">
        <ele>11.9</ele>
        <time>2022-04-12T13:06:47Z</time>
      </trkpt>
      <trkpt lat="49.99724" lon="2.057">
        <ele>12</ele>
        <time>2022-04-12T13:06:48Z</time>
      </trkpt>
      <trkpt lat="49.99725" lon="2.05699">
        <ele>12</ele>
        <time>2022-04-12T13:06:49Z</time>
      </trkpt>
      <trkpt lat="49.99726" lon="2.05699">
        <ele>12</ele>
        <time>2022-04-12T13:06:50Z</time>
      </trkpt>
      <trkpt lat="49.99727" lon="2.05698">
        <ele>12</ele>
        <time>2022-04-12T13:06:51Z</time>
      </trkpt>
      <trkpt lat="49.99728" lon="2.05697">
        <ele>12</ele>
        <time>2022-04-12T13:06:52Z</time>
      </trkpt>
      <trkpt lat="49.99729" lon="2.05695">
        <ele>12</ele>
        <time>2022-04-12T13:06:53Z</time>
      </trkpt>
      <trkpt lat="49.9973" lon="2.05694">
        <ele>12</ele>
        <time>2022-04-12T13:06:54Z</time>
      </trkpt>
      <trkpt lat="49.99731" lon="2.05694">
        <ele>12</ele>
        <time>2022-04-12T13:06:55Z</time>
      </trkpt>
      <trkpt lat="49.99732" lon="2.05693">
        <ele>12</ele>
        <time>2022-04-12T13:06:56Z</time>
      </trkpt>
      <trkpt lat="49.99733" lon="2.05692">
        <ele>12</ele>
        <time>2022-04-12T13:06:57Z</time>
      </trkpt>
      <trkpt lat="49.99734" lon="2.05691">
        <ele>12</ele>
        <time>2022-04-12T13:06:59Z</time>
      </trkpt>
      <trkpt lat="49.99735" lon="2.0569">
        <ele>12</ele>
        <time>2022-04-12T13:07:00Z</time>
      </trkpt>
      <trkpt lat="49.99736" lon="2.05689">
        <ele>12</ele>
        <time>2022-04-12T13:07:01Z</time>
      </trkpt>
      <trkpt lat="49.99737" lon="2.05688">
        <ele>12.1</ele>
        <time>2022-04-12T13:07:02Z</time>
      </trkpt>
      <trkpt lat="49.99738" lon="2.05687">
        <ele>12.1</ele>
        <time>2022-04-12T13:07:03Z</time>
      </trkpt>
      <trkpt lat="49.99739" lon="2.05686">
        <ele>12.1</ele>
        <time>2022-04-12T13:07:04Z</time>
      </trkpt>
      <trkpt lat="49.9974" lon="2.05685">
        <ele>12.1</ele>
        <time>2022-04-12T13:07:05Z</time>
      </trkpt>
      <trkpt lat="49.99741" lon="2.05685">
        <ele>12.1</ele>
        <time>2022-04-12T13:07:06Z</time>
      </trkpt>
      <trkpt lat="49.99742" lon="2.05684">
        <ele>12.1</ele>
        <time>2022-04-12T13:07:07Z</time>
      </trkpt>
      <trkpt lat="49.99743" lon="2.05683">
        <ele>12.1</ele>
        <time>2022-04-12T13:07:08Z</time>
      </trkpt>
      <trkpt lat="49.99743" lon="2.05682">
        <ele>12.1</ele>
        <time>2022-04-12T13:07:09Z</time>
      </trkpt>
      <trkpt lat="49.99744" lon="2.05681">
        <ele>12.1</ele>
        <time>2022-04-12T13:07:11Z</time>
      </trkpt>
      <trkpt lat="49.99745" lon="2.0568">
        <ele>12.1</ele>
        <time>2022-04-12T13:07:12Z</time>
      </trkpt>
      <trkpt lat="49.99747" lon="2.05679">
        <ele>12.1</ele>
        <time>2022-04-12T13:07:13Z</time>
      </trkpt>
      <trkpt lat="49.99748" lon="2.05678">
        <ele>12.1</ele>
        <time>2022-04-12T13:07:14Z</time>
      </trkpt>
      <trkpt lat="49.99749" lon="2.05677">
        <ele>12.1</ele>
        <time>2022-04-12T13:07:15Z</time>
      </trkpt>
      <trkpt lat="49.9975" lon="2.05676">
        <ele>12.1</ele>
        <time>2022-04-12T13:07:16Z</time>
      </trkpt>
      <trkpt lat="49.9975" lon="2.05676">
        <ele>12.1</ele>
        <time>2022-04-12T13:07:17Z</time>
      </trkpt>
      <trkpt lat="49.99752" lon="2.05674">
        <ele>12.1</ele>
        <time>2022-04-12T13:07:18Z</time>
      </trkpt>
      <trkpt lat="49.99753" lon="2.05673">
        <ele>12.1</ele>
        <time>2022-04-12T13:07:19Z</time>
      </trkpt>
      <trkpt lat="49.99754" lon="2.05673">
        <ele>12.1</ele>
        <time>2022-04-12T13:07:20Z</time>
      </trkpt>
      <trkpt lat="49.99755" lon="2.05672">
        <ele>12.1</ele>
        <time>2022-04-12T13:07:21Z</time>
      </trkpt>
      <trkpt lat="49.99756" lon="2.05671">
        <ele>12.1</ele>
        <time>2022-04-12T13:07:23Z</time>
      </trkpt>
      <trkpt lat="49.99757" lon="2.0567">
        <ele>12.1</ele>
        <time>2022-04-12T13:07:24Z</time>
      </trkpt>
      <trkpt lat="49.99758" lon="2.05668">
        <ele>12.1</ele>
        <time>2022-04-12T13:07:25Z</time>
      </trkpt>
      <trkpt lat="49.99759" lon="2.05667">
        <ele>12.1</ele>
        <time>2022-04-12T13:07:26Z</time>
      </trkpt>
      <trkpt lat="49.9976" lon="2.05667">
        <ele>12.1</ele>
        <time>2022-04-12T13:07:27Z</time>
      </trkpt>
      <trkpt lat="49.99761" lon="2.05666">
        <ele>12.2</ele>
        <time>2022-04-12T13:07:28Z</time>
      </trkpt>
      <trkpt lat="49.99761" lon="2.05665">
        <ele>12.2</ele>
        <time>2022-04-12T13:07:29Z</time>
      </trkpt>
      <trkpt lat="49.99762" lon="2.05664">
        <ele>12.2</ele>
        <time>2022-04-12T13:07:30Z</time>
      </trkpt>
      <trkpt lat="49.99764" lon="2.05662">
        <ele>12.2</ele>
        <time>2022-04-12T13:07:31Z</time>
      </trkpt>
      <trkpt lat="49.99765" lon="2.05662">
        <ele>12.2</ele>
        <time>2022-04-12T13:07:32Z</time>
      </trkpt>
      <trkpt lat="49.99766" lon="2.05661">
        <ele>12.2</ele>
        <time>2022-04-12T13:07:33Z</time>
      </trkpt>
      <trkpt lat="49.99768" lon="2.05659">
        <ele>12.2</ele>
        <time>2022-04-12T13:07:34Z</time>
      </trkpt>
      <trkpt lat="49.99768" lon="2.05659">
        <ele>12.2</ele>
        <time>2022-04-12T13:07:36Z</time>
      </trkpt>
      <trkpt lat="49.99769" lon="2.05658">
        <ele>12.2</ele>
        <time>2022-04-12T13:07:37Z</time>
      </trkpt>
      <trkpt lat="49.9977" lon="2.05657">
        <ele>12.2</ele>
        <time>2022-04-12T13:07:38Z</time>
      </trkpt>
      <trkpt lat="49.99771" lon="2.05657">
        <ele>12.2</ele>
        <time>2022-04-12T13:07:39Z</time>
      </trkpt>
      <trkpt lat="49.99772" lon="2.05656">
        <ele>12.2</ele>
        <time>2022-04-12T13:07:40Z</time>
      </trkpt>
      <trkpt lat="49.99774" lon="2.05655">
        <ele>12.2</ele>
        <time>2022-04-12T13:07:41Z</time>
      </trkpt>
      <trkpt lat="49.99775" lon="2.05655">
        <ele>12.2</ele>
        <time>2022-04-12T13:07:42Z</time>
      </trkpt>
      <trkpt lat="49.99776" lon="2.05654">
        <ele>12.2</ele>
        <time>2022-04-12T13:07:43Z</time>
      </trkpt>
      <trkpt lat="49.99778" lon="2.05653">
        <ele>12.2</ele>
        <time>2022-04-12T13:07:44Z</time>
      </trkpt>
      <trkpt lat="49.99779" lon="2.05652">
        <ele>12.2</ele>
        <time>2022-04-12T13:07:45Z</time>
      </trkpt>
      <trkpt lat="49.9978" lon="2.05652">
        <ele>12.2</ele>
        <time>2022-04-12T13:07:47Z</time>
      </trkpt>
      <trkpt lat="49.99781" lon="2.05651">
        <ele>12.2</ele>
        <time>2022-04-12T13:07:48Z</time>
      </trkpt>
      <trkpt lat="49.99781" lon="2.0565">
        <ele>12.2</ele>
        <time>2022-04-12T13:07:49Z</time>
      </trkpt>
      <trkpt lat="49.99782" lon="2.0565">
        <ele>12.2</ele>
        <time>2022-04-12T13:07:50Z</time>
      </trkpt>
      <trkpt lat="49.99783" lon="2.05649">
        <ele>12.2</ele>
        <time>2022-04-12T13:07:51Z</time>
      </trkpt>
      <trkpt lat="49.99784" lon="2.05648">
        <ele>12.2</ele>
        <time>2022-04-12T13:07:52Z</time>
      </trkpt>
      <trkpt lat="49.99785" lon="2.05648">
        <ele>12.2</ele>
        <time>2022-04-12T13:07:53Z</time>
      </trkpt>
      <trkpt lat="49.99787" lon="2.05646">
        <ele>12.2</ele>
        <time>2022-04-12T13:07:54Z</time>
      </trkpt>
      <trkpt lat="49.99788" lon="2.05645">
        <ele>12.2</ele>
        <time>2022-04-12T13:07:55Z</time>
      </trkpt>
      <trkpt lat="49.99789" lon="2.05645">
        <ele>12.2</ele>
        <time>2022-04-12T13:07:56Z</time>
      </trkpt>
      <trkpt lat="49.9979" lon="2.05644">
        <ele>12.2</ele>
        <time>2022-04-12T13:07:57Z</time>
      </trkpt>
      <trkpt lat="49.99791" lon="2.05643">
        <ele>12.2</ele>
        <time>2022-04-12T13:07:58Z</time>
      </trkpt>
      <trkpt lat="49.99791" lon="2.05642">
        <ele>12.2</ele>
        <time>2022-04-12T13:08:00Z</time>
      </trkpt>
      <trkpt lat="49.99792" lon="2.05642">
        <ele>12.2</ele>
        <time>2022-04-12T13:08:01Z</time>
      </trkpt>
      <trkpt lat="49.99794" lon="2.05641">
        <ele>12.2</ele>
        <time>2022-04-12T13:08:02Z</time>
      </trkpt>
      <trkpt lat="49.99795" lon="2.0564">
        <ele>12.2</ele>
        <time>2022-04-12T13:08:03Z</time>
      </trkpt>
      <trkpt lat="49.99796" lon="2.05639">
        <ele>12.2</ele>
        <time>2022-04-12T13:08:04Z</time>
      </trkpt>
      <trkpt lat="49.99797" lon="2.05639">
        <ele>12.2</ele>
        <time>2022-04-12T13:08:05Z</time>
      </trkpt>
      <trkpt lat="49.99797" lon="2.05638">
        <ele>12.2</ele>
        <time>2022-04-12T13:08:06Z</time>
      </trkpt>
      <trkpt lat="49.99798" lon="2.05638">
        <ele>12.2</ele>
        <time>2022-04-12T13:08:07Z</time>
      </trkpt>
      <trkpt lat="49.99799" lon="2.05637">
        <ele>12.2</ele>
        <time>2022-04-12T13:08:08Z</time>
      </trkpt>
      <trkpt lat="49.998" lon="2.05636">
        <ele>12.2</ele>
        <time>2022-04-12T13:08:09Z</time>
      </trkpt>
      <trkpt lat="49.99801" lon="2.05636">
        <ele>12.2</ele>
        <time>2022-04-12T13:08:10Z</time>
      </trkpt>
      <trkpt lat="49.99801" lon="2.05635">
        <ele>12.2</ele>
        <time>2022-04-12T13:08:12Z</time>
      </trkpt>
      <trkpt lat="49.99802" lon="2.05634">
        <ele>12.2</ele>
        <time>2022-04-12T13:08:13Z</time>
      </trkpt>
      <trkpt lat="49.99803" lon="2.05634">
        <ele>12.2</ele>
        <time>2022-04-12T13:08:14Z</time>
      </trkpt>
      <trkpt lat="49.99804" lon="2.05633">
        <ele>12.2</ele>
        <time>2022-04-12T13:08:15Z</time>
      </trkpt>
      <trkpt lat="49.99805" lon="2.05632">
        <ele>12.3</ele>
        <time>2022-04-12T13:08:16Z</time>
      </trkpt>
      <trkpt lat="49.99806" lon="2.05631">
        <ele>12.3</ele>
        <time>2022-04-12T13:08:17Z</time>
      </trkpt>
      <trkpt lat="49.99807" lon="2.05631">
        <ele>12.3</ele>
        <time>2022-04-12T13:08:18Z</time>
      </trkpt>
      <trkpt lat="49.99808" lon="2.0563">
        <ele>12.3</ele>
        <time>2022-04-12T13:08:19Z</time>
      </trkpt>
      <trkpt lat="49.99809" lon="2.05629">
        <ele>12.3</ele>
        <time>2022-04-12T13:08:20Z</time>
      </trkpt>
      <trkpt lat="49.9981" lon="2.05628">
        <ele>12.3</ele>
        <time>2022-04-12T13:08:21Z</time>
      </trkpt>
      <trkpt lat="49.99811" lon="2.05627">
        <ele>12.3</ele>
        <time>2022-04-12T13:08:23Z</time>
      </trkpt>
      <trkpt lat="49.99812" lon="2.05626">
        <ele>12.3</ele>
        <time>2022-04-12T13:08:24Z</time>
      </trkpt>
      <trkpt lat="49.99813" lon="2.05625">
        <ele>12.3</ele>
        <time>2022-04-12T13:08:25Z</time>
      </trkpt>
      <trkpt lat="49.99814" lon="2.05624">
        <ele>12.3</ele>
        <time>2022-04-12T13:08:26Z</time>
      </trkpt>
      <trkpt lat="49.99815" lon="2.05623">
        <ele>12.3</ele>
        <time>2022-04-12T13:08:27Z</time>
      </trkpt>
      <trkpt lat="49.99816" lon="2.05622">
        <ele>12.3</ele>
        <time>2022-04-12T13:08:28Z</time>
      </trkpt>
      <trkpt lat="49.99817" lon="2.05621">
        <ele>12.3</ele>
        <time>2022-04-12T13:08:29Z</time>
      </trkpt>
      <trkpt lat="49.99818" lon="2.05621">
        <ele>12.3</ele>
        <time>2022-04-12T13:08:30Z</time>
      </trkpt>
      <trkpt lat="49.99819" lon="2.05619">
        <ele>12.3</ele>
        <time>2022-04-12T13:08:31Z</time>
      </trkpt>
      <trkpt lat="49.9982" lon="2.05618">
        <ele>12.3</ele>
        <time>2022-04-12T13:08:33Z</time>
      </trkpt>
      <trkpt lat="49.99821" lon="2.05617">
        <ele>12.4</ele>
        <time>2022-04-12T13:08:34Z</time>
      </trkpt>
      <trkpt lat="49.99822" lon="2.05615">
        <ele>12.4</ele>
        <time>2022-04-12T13:08:35Z</time>
      </trkpt>
      <trkpt lat="49.99823" lon="2.05615">
        <ele>12.4</ele>
        <time>2022-04-12T13:08:36Z</time>
      </trkpt>
      <trkpt lat="49.99824" lon="2.05614">
        <ele>12.4</ele>
        <time>2022-04-12T13:08:37Z</time>
      </trkpt>
      <trkpt lat="49.99825" lon="2.05612">
        <ele>12.4</ele>
        <time>2022-04-12T13:08:38Z</time>
      </trkpt>
      <trkpt lat="49.99826" lon="2.05611">
        <ele>12.4</ele>
        <time>2022-04-12T13:08:39Z</time>
      </trkpt>
      <trkpt lat="49.99827" lon="2.0561">
        <ele>12.4</ele>
        <time>2022-04-12T13:08:40Z</time>
      </trkpt>
      <trkpt lat="49.99828" lon="2.05609">
        <ele>12.4</ele>
        <time>2022-04-12T13:08:41Z</time>
      </trkpt>
      <trkpt lat="49.99829" lon="2.05607">
        <ele>12.4</ele>
        <time>2022-04-12T13:08:42Z</time>
      </trkpt>
      <trkpt lat="49.9983" lon="2.05606">
        <ele>12.4</ele>
        <time>2022-04-12T13:08:44Z</time>
      </trkpt>
      <trkpt lat="49.99831" lon="2.05605">
        <ele>12.4</ele>
        <time>2022-04-12T13:08:45Z</time>
      </trkpt>
      <trkpt lat="49.99832" lon="2.05603">
        <ele>12.4</ele>
        <time>2022-04-12T13:08:46Z</time>
      </trkpt>
      <trkpt lat="49.99833" lon="2.05602">
        <ele>12.4</ele>
        <time>2022-04-12T13:08:47Z</time>
      </trkpt>
      <trkpt lat="49.99834" lon="2.05601">
        <ele>12.4</ele>
        <time>2022-04-12T13:08:48Z</time>
      </trkpt>
      <trkpt lat="49.99835" lon="2.05599">
        <ele>12.4</ele>
        <time>2022-04-12T13:08:49Z</time>
      </trkpt>
      <trkpt lat="49.99836" lon="2.05598">
        <ele>12.4</ele>
        <time>2022-04-12T13:08:51Z</time>
      </trkpt>
      <trkpt lat="49.99838" lon="2.05595">
        <ele>12.4</ele>
        <time>2022-04-12T13:08:52Z</time>
      </trkpt>
      <trkpt lat="49.99839" lon="2.05595">
        <ele>12.4</ele>
        <time>2022-04-12T13:08:53Z</time>
      </trkpt>
      <trkpt lat="49.99839" lon="2.05594">
        <ele>12.4</ele>
        <time>2022-04-12T13:08:54Z</time>
      </trkpt>
      <trkpt lat="49.99841" lon="2.05591">
        <ele>12.4</ele>
        <time>2022-04-12T13:08:55Z</time>
      </trkpt>
      <trkpt lat="49.99842" lon="2.05591">
        <ele>12.4</ele>
        <time>2022-04-12T13:08:56Z</time>
      </trkpt>
      <trkpt lat="49.99842" lon="2.0559">
        <ele>12.4</ele>
        <time>2022-04-12T13:08:57Z</time>
      </trkpt>
      <trkpt lat="49.99844" lon="2.05589">
        <ele>12.4</ele>
        <time>2022-04-12T13:08:58Z</time>
      </trkpt>
      <trkpt lat="49.99845" lon="2.05588">
        <ele>12.4</ele>
        <time>2022-04-12T13:08:59Z</time>
      </trkpt>
      <trkpt lat="49.99846" lon="2.05587">
        <ele>12.4</ele>
        <time>2022-04-12T13:09:01Z</time>
      </trkpt>
      <trkpt lat="49.99847" lon="2.05587">
        <ele>12.4</ele>
        <time>2022-04-12T13:09:02Z</time>
      </trkpt>
      <trkpt lat="49.99848" lon="2.05586">
        <ele>12.4</ele>
        <time>2022-04-12T13:09:03Z</time>
      </trkpt>
      <trkpt lat="49.99849" lon="2.05585">
        <ele>12.4</ele>
        <time>2022-04-12T13:09:04Z</time>
      </trkpt>
      <trkpt lat="49.9985" lon="2.05584">
        <ele>12.4</ele>
        <time>2022-04-12T13:09:05Z</time>
      </trkpt>
      <trkpt lat="49.99851" lon="2.05583">
        <ele>12.4</ele>
        <time>2022-04-12T13:09:06Z</time>
      </trkpt>
      <trkpt lat="49.99852" lon="2.05582">
        <ele>12.4</ele>
        <time>2022-04-12T13:09:07Z</time>
      </trkpt>
      <trkpt lat="49.99853" lon="2.05581">
        <ele>12.4</ele>
        <time>2022-04-12T13:09:08Z</time>
      </trkpt>
      <trkpt lat="49.99854" lon="2.05581">
        <ele>12.4</ele>
        <time>2022-04-12T13:09:10Z</time>
      </trkpt>
      <trkpt lat="49.99855" lon="2.0558">
        <ele>12.4</ele>
        <time>2022-04-12T13:09:11Z</time>
      </trkpt>
      <trkpt lat="49.99856" lon="2.05579">
        <ele>12.4</ele>
        <time>2022-04-12T13:09:12Z</time>
      </trkpt>
      <trkpt lat="49.99857" lon="2.05578">
        <ele>12.4</ele>
        <time>2022-04-12T13:09:13Z</time>
      </trkpt>
      <trkpt lat="49.99858" lon="2.05577">
        <ele>12.4</ele>
        <time>2022-04-12T13:09:14Z</time>
      </trkpt>
      <trkpt lat="49.99859" lon="2.05576">
        <ele>12.4</ele>
        <time>2022-04-12T13:09:15Z</time>
      </trkpt>
      <trkpt lat="49.9986" lon="2.05575">
        <ele>12.4</ele>
        <time>2022-04-12T13:09:16Z</time>
      </trkpt>
      <trkpt lat="49.99861" lon="2.05573">
        <ele>12.4</ele>
        <time>2022-04-12T13:09:18Z</time>
      </trkpt>
      <trkpt lat="49.99862" lon="2.05572">
        <ele>12.4</ele>
        <time>2022-04-12T13:09:19Z</time>
      </trkpt>
      <trkpt lat="49.99863" lon="2.05571">
        <ele>12.4</ele>
        <time>2022-04-12T13:09:20Z</time>
      </trkpt>
      <trkpt lat="49.99864" lon="2.05569">
        <ele>12.4</ele>
        <time>2022-04-12T13:09:21Z</time>
      </trkpt>
      <trkpt lat="49.99865" lon="2.05568">
        <ele>12.4</ele>
        <time>2022-04-12T13:09:22Z</time>
      </trkpt>
      <trkpt lat="49.99866" lon="2.05567">
        <ele>12.4</ele>
        <time>2022-04-12T13:09:23Z</time>
      </trkpt>
      <trkpt lat="49.99867" lon="2.05566">
        <ele>12.4</ele>
        <time>2022-04-12T13:09:24Z</time>
      </trkpt>
      <trkpt lat="49.99868" lon="2.05565">
        <ele>12.4</ele>
        <time>2022-04-12T13:09:26Z</time>
      </trkpt>
      <trkpt lat="49.99869" lon="2.05566">
        <ele>12.4</ele>
        <time>2022-04-12T13:09:27Z</time>
      </trkpt>
      <trkpt lat="49.99869" lon="2.05567">
        <ele>12.4</ele>
        <time>2022-04-12T13:09:28Z</time>
      </trkpt>
      <trkpt lat="49.9987" lon="2.05568">
        <ele>12.4</ele>
        <time>2022-04-12T13:09:29Z</time>
      </trkpt>
      <trkpt lat="49.9987" lon="2.05569">
        <ele>12.4</ele>
        <time>2022-04-12T13:09:30Z</time>
      </trkpt>
      <trkpt lat="49.99869" lon="2.05569">
        <ele>12.4</ele>
        <time>2022-04-12T13:09:31Z</time>
      </trkpt>
      <trkpt lat="49.99869" lon="2.05569">
        <ele>12.4</ele>
        <time>2022-04-12T13:09:32Z</time>
      </trkpt>
      <trkpt lat="49.99869" lon="2.05569">
        <ele>12.4</ele>
        <time>2022-04-12T13:09:33Z</time>
      </trkpt>
      <trkpt lat="49.99869" lon="2.05569">
        <ele>12.4</ele>
        <time>2022-04-12T13:09:34Z</time>
      </trkpt>
      <trkpt lat="49.99869" lon="2.05568">
        <ele>12.4</ele>
        <time>2022-04-12T13:09:35Z</time>
      </trkpt>
      <trkpt lat="49.9987" lon="2.05568">
        <ele>12.4</ele>
        <time>2022-04-12T13:09:36Z</time>
      </trkpt>
      <trkpt lat="49.9987" lon="2.05568">
        <ele>12.4</ele>
        <time>2022-04-12T13:09:38Z</time>
      </trkpt>
      <trkpt lat="49.99871" lon="2.05567">
        <ele>12.4</ele>
        <time>2022-04-12T13:09:39Z</time>
      </trkpt>
      <trkpt lat="49.99872" lon="2.05566">
        <ele>12.4</ele>
        <time>2022-04-12T13:09:40Z</time>
      </trkpt>
      <trkpt lat="49.99873" lon="2.05565">
        <ele>12.4</ele>
        <time>2022-04-12T13:09:41Z</time>
      </trkpt>
      <trkpt lat="49.99874" lon="2.05565">
        <ele>12.4</ele>
        <time>2022-04-12T13:09:42Z</time>
      </trkpt>
      <trkpt lat="49.99875" lon="2.05565">
        <ele>12.4</ele>
        <time>2022-04-12T13:09:43Z</time>
      </trkpt>
      <trkpt lat="49.99875" lon="2.05565">
        <ele>12.4</ele>
        <time>2022-04-12T13:09:44Z</time>
      </trkpt>
      <trkpt lat="49.99876" lon="2.05565">
        <ele>12.4</ele>
        <time>2022-04-12T13:09:45Z</time>
      </trkpt>
      <trkpt lat="49.99877" lon="2.05565">
        <ele>12.4</ele>
        <time>2022-04-12T13:09:46Z</time>
      </trkpt>
      <trkpt lat="49.99877" lon="2.05565">
        <ele>12.4</ele>
        <time>2022-04-12T13:09:47Z</time>
      </trkpt>
      <trkpt lat="49.99877" lon="2.05565">
        <ele>12.4</ele>
        <time>2022-04-12T13:09:48Z</time>
      </trkpt>
      <trkpt lat="49.99877" lon="2.05564">
        <ele>12.4</ele>
        <time>2022-04-12T13:09:49Z</time>
      </trkpt>
      <trkpt lat="49.99877" lon="2.05564">
        <ele>12.4</ele>
        <time>2022-04-12T13:09:50Z</time>
      </trkpt>
      <trkpt lat="49.99877" lon="2.05564">
        <ele>12.4</ele>
        <time>2022-04-12T13:09:51Z</time>
      </trkpt>
      <trkpt lat="49.99877" lon="2.05564">
        <ele>12.4</ele>
        <time>2022-04-12T13:09:52Z</time>
      </trkpt>
      <trkpt lat="49.99877" lon="2.05564">
        <ele>12.4</ele>
        <time>2022-04-12T13:09:53Z</time>
      </trkpt>
      <trkpt lat="49.99877" lon="2.05564">
        <ele>12.4</ele>
        <time>2022-04-12T13:09:54Z</time>
      </trkpt>
      <trkpt lat="49.99877" lon="2.05564">
        <ele>12.4</ele>
        <time>2022-04-12T13:09:55Z</time>
      </trkpt>
      <trkpt lat="49.99877" lon="2.05564">
        <ele>12.4</ele>
        <time>2022-04-12T13:09:56Z</time>
      </trkpt>
      <trkpt lat="49.99878" lon="2.05564">
        <ele>12.4</ele>
        <time>2022-04-12T13:09:58Z</time>
      </trkpt>
      <trkpt lat="49.99878" lon="2.05563">
        <ele>12.4</ele>
        <time>2022-04-12T13:09:59Z</time>
      </trkpt>
      <trkpt lat="49.99878" lon="2.05562">
        <ele>12.4</ele>
        <time>2022-04-12T13:10:00Z</time>
      </trkpt>
      <trkpt lat="49.99879" lon="2.05561">
        <ele>12.4</ele>
        <time>2022-04-12T13:10:01Z</time>
      </trkpt>
      <trkpt lat="49.99879" lon="2.0556">
        <ele>12.4</ele>
        <time>2022-04-12T13:10:02Z</time>
      </trkpt>
      <trkpt lat="49.9988" lon="2.05559">
        <ele>12.4</ele>
        <time>2022-04-12T13:10:03Z</time>
      </trkpt>
      <trkpt lat="49.99881" lon="2.05558">
        <ele>12.4</ele>
        <time>2022-04-12T13:10:04Z</time>
      </trkpt>
      <trkpt lat="49.99881" lon="2.05556">
        <ele>12.4</ele>
        <time>2022-04-12T13:10:05Z</time>
      </trkpt>
      <trkpt lat="49.99882" lon="2.05555">
        <ele>12.4</ele>
        <time>2022-04-12T13:10:06Z</time>
      </trkpt>
      <trkpt lat="49.99883" lon="2.05553">
        <ele>12.4</ele>
        <time>2022-04-12T13:10:08Z</time>
      </trkpt>
      <trkpt lat="49.99884" lon="2.05551">
        <ele>12.4</ele>
        <time>2022-04-12T13:10:09Z</time>
      </trkpt>
      <trkpt lat="49.99885" lon="2.0555">
        <ele>12.4</ele>
        <time>2022-04-12T13:10:10Z</time>
      </trkpt>
      <trkpt lat="49.99886" lon="2.05548">
        <ele>12.4</ele>
        <time>2022-04-12T13:10:11Z</time>
      </trkpt>
      <trkpt lat="49.99887" lon="2.05546">
        <ele>12.4</ele>
        <time>2022-04-12T13:10:12Z</time>
      </trkpt>
      <trkpt lat="49.99888" lon="2.05544">
        <ele>12.4</ele>
        <time>2022-04-12T13:10:13Z</time>
      </trkpt>
      <trkpt lat="49.99889" lon="2.05543">
        <ele>12.4</ele>
        <time>2022-04-12T13:10:14Z</time>
      </trkpt>
      <trkpt lat="49.9989" lon="2.05541">
        <ele>12.4</ele>
        <time>2022-04-12T13:10:15Z</time>
      </trkpt>
      <trkpt lat="49.99891" lon="2.0554">
        <ele>12.4</ele>
        <time>2022-04-12T13:10:16Z</time>
      </trkpt>
      <trkpt lat="49.99892" lon="2.05538">
        <ele>12.4</ele>
        <time>2022-04-12T13:10:17Z</time>
      </trkpt>
      <trkpt lat="49.99893" lon="2.05537">
        <ele>12.4</ele>
        <time>2022-04-12T13:10:18Z</time>
      </trkpt>
      <trkpt lat="49.99894" lon="2.05536">
        <ele>12.4</ele>
        <time>2022-04-12T13:10:20Z</time>
      </trkpt>
      <trkpt lat="49.99895" lon="2.05534">
        <ele>12.4</ele>
        <time>2022-04-12T13:10:21Z</time>
      </trkpt>
      <trkpt lat="49.99896" lon="2.05532">
        <ele>12.4</ele>
        <time>2022-04-12T13:10:22Z</time>
      </trkpt>
      <trkpt lat="49.99897" lon="2.05531">
        <ele>12.4</ele>
        <time>2022-04-12T13:10:23Z</time>
      </trkpt>
      <trkpt lat="49.99898" lon="2.0553">
        <ele>12.4</ele>
        <time>2022-04-12T13:10:24Z</time>
      </trkpt>
      <trkpt lat="49.99899" lon="2.05529">
        <ele>12.4</ele>
        <time>2022-04-12T13:10:25Z</time>
      </trkpt>
      <trkpt lat="49.999" lon="2.05527">
        <ele>12.4</ele>
        <time>2022-04-12T13:10:26Z</time>
      </trkpt>
      <trkpt lat="49.99901" lon="2.05526">
        <ele>12.4</ele>
        <time>2022-04-12T13:10:27Z</time>
      </trkpt>
      <trkpt lat="49.99902" lon="2.05525">
        <ele>12.4</ele>
        <time>2022-04-12T13:10:28Z</time>
      </trkpt>
      <trkpt lat="49.99902" lon="2.05524">
        <ele>12.4</ele>
        <time>2022-04-12T13:10:29Z</time>
      </trkpt>
      <trkpt lat="49.99903" lon="2.05523">
        <ele>12.4</ele>
        <time>2022-04-12T13:10:30Z</time>
      </trkpt>
      <trkpt lat="49.99904" lon="2.05522">
        <ele>12.4</ele>
        <time>2022-04-12T13:10:32Z</time>
      </trkpt>
      <trkpt lat="49.99905" lon="2.05521">
        <ele>12.4</ele>
        <time>2022-04-12T13:10:33Z</time>
      </trkpt>
      <trkpt lat="49.99906" lon="2.0552">
        <ele>12.4</ele>
        <time>2022-04-12T13:10:34Z</time>
      </trkpt>
      <trkpt lat="49.99907" lon="2.05519">
        <ele>12.4</ele>
        <time>2022-04-12T13:10:35Z</time>
      </trkpt>
      <trkpt lat="49.99908" lon="2.05518">
        <ele>12.4</ele>
        <time>2022-04-12T13:10:36Z</time>
      </trkpt>
      <trkpt lat="49.99909" lon="2.05518">
        <ele>12.4</ele>
        <time>2022-04-12T13:10:37Z</time>
      </trkpt>
      <trkpt lat="49.9991" lon="2.05517">
        <ele>12.4</ele>
        <time>2022-04-12T13:10:38Z</time>
      </trkpt>
      <trkpt lat="49.99911" lon="2.05516">
        <ele>12.4</ele>
        <time>2022-04-12T13:10:39Z</time>
      </trkpt>
      <trkpt lat="49.99912" lon="2.05516">
        <ele>12.4</ele>
        <time>2022-04-12T13:10:40Z</time>
      </trkpt>
      <trkpt lat="49.99913" lon="2.05515">
        <ele>12.4</ele>
        <time>2022-04-12T13:10:41Z</time>
      </trkpt>
      <trkpt lat="49.99914" lon="2.05514">
        <ele>12.4</ele>
        <time>2022-04-12T13:10:42Z</time>
      </trkpt>
      <trkpt lat="49.99915" lon="2.05514">
        <ele>12.4</ele>
        <time>2022-04-12T13:10:44Z</time>
      </trkpt>
      <trkpt lat="49.99916" lon="2.05514">
        <ele>12.4</ele>
        <time>2022-04-12T13:10:45Z</time>
      </trkpt>
      <trkpt lat="49.99917" lon="2.05513">
        <ele>12.4</ele>
        <time>2022-04-12T13:10:46Z</time>
      </trkpt>
      <trkpt lat="49.99918" lon="2.05512">
        <ele>12.4</ele>
        <time>2022-04-12T13:10:47Z</time>
      </trkpt>
      <trkpt lat="49.99919" lon="2.05512">
        <ele>12.4</ele>
        <time>2022-04-12T13:10:48Z</time>
      </trkpt>
      <trkpt lat="49.9992" lon="2.05512">
        <ele>12.4</ele>
        <time>2022-04-12T13:10:49Z</time>
      </trkpt>
      <trkpt lat="49.99921" lon="2.05511">
        <ele>12.4</ele>
        <time>2022-04-12T13:10:50Z</time>
      </trkpt>
      <trkpt lat="49.99922" lon="2.0551">
        <ele>12.4</ele>
        <time>2022-04-12T13:10:51Z</time>
      </trkpt>
      <trkpt lat="49.99923" lon="2.0551">
        <ele>12.4</ele>
        <time>2022-04-12T13:10:52Z</time>
      </trkpt>
      <trkpt lat="49.99924" lon="2.05509">
        <ele>12.4</ele>
        <time>2022-04-12T13:10:53Z</time>
      </trkpt>
      <trkpt lat="49.99925" lon="2.05508">
        <ele>12.4</ele>
        <time>2022-04-12T13:10:54Z</time>
      </trkpt>
      <trkpt lat="49.99926" lon="2.05507">
        <ele>12.4</ele>
        <time>2022-04-12T13:10:55Z</time>
      </trkpt>
      <trkpt lat="49.99927" lon="2.05507">
        <ele>12.5</ele>
        <time>2022-04-12T13:10:57Z</time>
      </trkpt>
      <trkpt lat="49.99928" lon="2.05506">
        <ele>12.5</ele>
        <time>2022-04-12T13:10:58Z</time>
      </trkpt>
      <trkpt lat="49.9993" lon="2.05505">
        <ele>12.5</ele>
        <time>2022-04-12T13:10:59Z</time>
      </trkpt>
      <trkpt lat="49.99931" lon="2.05505">
        <ele>12.5</ele>
        <time>2022-04-12T13:11:00Z</time>
      </trkpt>
      <trkpt lat="49.99932" lon="2.05504">
        <ele>12.5</ele>
        <time>2022-04-12T13:11:01Z</time>
      </trkpt>
      <trkpt lat="49.99933" lon="2.05504">
        <ele>12.5</ele>
        <time>2022-04-12T13:11:02Z</time>
      </trkpt>
      <trkpt lat="49.99934" lon="2.05504">
        <ele>12.5</ele>
        <time>2022-04-12T13:11:03Z</time>
      </trkpt>
      <trkpt lat="49.99935" lon="2.05503">
        <ele>12.5</ele>
        <time>2022-04-12T13:11:04Z</time>
      </trkpt>
      <trkpt lat="49.99937" lon="2.05502">
        <ele>12.5</ele>
        <time>2022-04-12T13:11:05Z</time>
      </trkpt>
      <trkpt lat="49.99938" lon="2.05502">
        <ele>12.5</ele>
        <time>2022-04-12T13:11:06Z</time>
      </trkpt>
      <trkpt lat="49.99939" lon="2.05501">
        <ele>12.5</ele>
        <time>2022-04-12T13:11:07Z</time>
      </trkpt>
      <trkpt lat="49.99941" lon="2.05501">
        <ele>12.5</ele>
        <time>2022-04-12T13:11:09Z</time>
      </trkpt>
      <trkpt lat="49.99941" lon="2.055">
        <ele>12.5</ele>
        <time>2022-04-12T13:11:10Z</time>
      </trkpt>
      <trkpt lat="49.99942" lon="2.055">
        <ele>12.5</ele>
        <time>2022-04-12T13:11:11Z</time>
      </trkpt>
      <trkpt lat="49.99943" lon="2.05499">
        <ele>12.5</ele>
        <time>2022-04-12T13:11:12Z</time>
      </trkpt>
      <trkpt lat="49.99945" lon="2.05499">
        <ele>12.5</ele>
        <time>2022-04-12T13:11:13Z</time>
      </trkpt>
      <trkpt lat="49.99945" lon="2.05498">
        <ele>12.4</ele>
        <time>2022-04-12T13:11:14Z</time>
      </trkpt>
      <trkpt lat="49.99947" lon="2.05497">
        <ele>12.4</ele>
        <time>2022-04-12T13:11:15Z</time>
      </trkpt>
      <trkpt lat="49.99948" lon="2.05496">
        <ele>12.4</ele>
        <time>2022-04-12T13:11:16Z</time>
      </trkpt>
      <trkpt lat="49.99949" lon="2.05496">
        <ele>12.4</ele>
        <time>2022-04-12T13:11:17Z</time>
      </trkpt>
      <trkpt lat="49.9995" lon="2.05494">
        <ele>12.4</ele>
        <time>2022-04-12T13:11:18Z</time>
      </trkpt>
      <trkpt lat="49.99951" lon="2.05494">
        <ele>12.4</ele>
        <time>2022-04-12T13:11:19Z</time>
      </trkpt>
      <trkpt lat="49.99952" lon="2.05493">
        <ele>12.4</ele>
        <time>2022-04-12T13:11:21Z</time>
      </trkpt>
      <trkpt lat="49.99953" lon="2.05492">
        <ele>12.4</ele>
        <time>2022-04-12T13:11:22Z</time>
      </trkpt>
      <trkpt lat="49.99954" lon="2.05492">
        <ele>12.4</ele>
        <time>2022-04-12T13:11:23Z</time>
      </trkpt>
      <trkpt lat="49.99955" lon="2.05491">
        <ele>12.4</ele>
        <time>2022-04-12T13:11:24Z</time>
      </trkpt>
      <trkpt lat="49.99956" lon="2.0549">
        <ele>12.4</ele>
        <time>2022-04-12T13:11:25Z</time>
      </trkpt>
      <trkpt lat="49.99957" lon="2.05489">
        <ele>12.4</ele>
        <time>2022-04-12T13:11:26Z</time>
      </trkpt>
      <trkpt lat="49.99958" lon="2.05488">
        <ele>12.4</ele>
        <time>2022-04-12T13:11:27Z</time>
      </trkpt>
      <trkpt lat="49.99959" lon="2.05487">
        <ele>12.4</ele>
        <time>2022-04-12T13:11:28Z</time>
      </trkpt>
      <trkpt lat="49.9996" lon="2.05486">
        <ele>12.4</ele>
        <time>2022-04-12T13:11:30Z</time>
      </trkpt>
      <trkpt lat="49.99962" lon="2.05486">
        <ele>12.4</ele>
        <time>2022-04-12T13:11:31Z</time>
      </trkpt>
      <trkpt lat="49.99963" lon="2.05485">
        <ele>12.4</ele>
        <time>2022-04-12T13:11:32Z</time>
      </trkpt>
      <trkpt lat="49.99964" lon="2.05484">
        <ele>12.4</ele>
        <time>2022-04-12T13:11:33Z</time>
      </trkpt>
      <trkpt lat="49.99965" lon="2.05483">
        <ele>12.4</ele>
        <time>2022-04-12T13:11:34Z</time>
      </trkpt>
      <trkpt lat="49.99966" lon="2.05482">
        <ele>12.4</ele>
        <time>2022-04-12T13:11:35Z</time>
      </trkpt>
      <trkpt lat="49.99968" lon="2.05481">
        <ele>12.4</ele>
        <time>2022-04-12T13:11:36Z</time>
      </trkpt>
      <trkpt lat="49.99969" lon="2.0548">
        <ele>12.4</ele>
        <time>2022-04-12T13:11:38Z</time>
      </trkpt>
      <trkpt lat="49.9997" lon="2.0548">
        <ele>12.4</ele>
        <time>2022-04-12T13:11:39Z</time>
      </trkpt>
      <trkpt lat="49.99972" lon="2.05478">
        <ele>12.4</ele>
        <time>2022-04-12T13:11:40Z</time>
      </trkpt>
      <trkpt lat="49.99972" lon="2.05478">
        <ele>12.4</ele>
        <time>2022-04-12T13:11:41Z</time>
      </trkpt>
      <trkpt lat="49.99973" lon="2.05477">
        <ele>12.4</ele>
        <time>2022-04-12T13:11:42Z</time>
      </trkpt>
      <trkpt lat="49.99975" lon="2.05476">
        <ele>12.4</ele>
        <time>2022-04-12T13:11:44Z</time>
      </trkpt>
      <trkpt lat="49.99976" lon="2.05475">
        <ele>12.4</ele>
        <time>2022-04-12T13:11:45Z</time>
      </trkpt>
      <trkpt lat="49.99977" lon="2.05474">
        <ele>12.4</ele>
        <time>2022-04-12T13:11:46Z</time>
      </trkpt>
      <trkpt lat="49.99978" lon="2.05473">
        <ele>12.4</ele>
        <time>2022-04-12T13:11:47Z</time>
      </trkpt>
      <trkpt lat="49.9998" lon="2.05471">
        <ele>12.4</ele>
        <time>2022-04-12T13:11:48Z</time>
      </trkpt>
      <trkpt lat="49.99981" lon="2.0547">
        <ele>12.4</ele>
        <time>2022-04-12T13:11:49Z</time>
      </trkpt>
      <trkpt lat="49.99982" lon="2.05469">
        <ele>12.4</ele>
        <time>2022-04-12T13:11:50Z</time>
      </trkpt>
      <trkpt lat="49.99983" lon="2.05467">
        <ele>12.4</ele>
        <time>2022-04-12T13:11:51Z</time>
      </trkpt>
      <trkpt lat="49.99984" lon="2.05466">
        <ele>12.4</ele>
        <time>2022-04-12T13:11:52Z</time>
      </trkpt>
      <trkpt lat="49.99985" lon="2.05464">
        <ele>12.4</ele>
        <time>2022-04-12T13:11:53Z</time>
      </trkpt>
      <trkpt lat="49.99986" lon="2.05463">
        <ele>12.4</ele>
        <time>2022-04-12T13:11:54Z</time>
      </trkpt>
      <trkpt lat="49.99987" lon="2.05461">
        <ele>12.4</ele>
        <time>2022-04-12T13:11:56Z</time>
      </trkpt>
      <trkpt lat="49.99988" lon="2.0546">
        <ele>12.4</ele>
        <time>2022-04-12T13:11:57Z</time>
      </trkpt>
      <trkpt lat="49.99989" lon="2.05459">
        <ele>12.4</ele>
        <time>2022-04-12T13:11:58Z</time>
      </trkpt>
      <trkpt lat="49.9999" lon="2.05457">
        <ele>12.4</ele>
        <time>2022-04-12T13:11:59Z</time>
      </trkpt>
      <trkpt lat="49.99991" lon="2.05456">
        <ele>12.4</ele>
        <time>2022-04-12T13:12:00Z</time>
      </trkpt>
      <trkpt lat="49.99993" lon="2.05453">
        <ele>12.4</ele>
        <time>2022-04-12T13:12:01Z</time>
      </trkpt>
      <trkpt lat="49.99993" lon="2.05452">
        <ele>12.4</ele>
        <time>2022-04-12T13:12:02Z</time>
      </trkpt>
      <trkpt lat="49.99994" lon="2.05452">
        <ele>12.4</ele>
        <time>2022-04-12T13:12:03Z</time>
      </trkpt>
      <trkpt lat="49.99996" lon="2.05449">
        <ele>12.4</ele>
        <time>2022-04-12T13:12:04Z</time>
      </trkpt>
      <trkpt lat="49.99997" lon="2.05448">
        <ele>12.4</ele>
        <time>2022-04-12T13:12:06Z</time>
      </trkpt>
      <trkpt lat="49.99998" lon="2.05447">
        <ele>12.4</ele>
        <time>2022-04-12T13:12:07Z</time>
      </trkpt>
      <trkpt lat="49.99998" lon="2.05445">
        <ele>12.4</ele>
        <time>2022-04-12T13:12:08Z</time>
      </trkpt>
      <trkpt lat="49.99999" lon="2.05444">
        <ele>12.4</ele>
        <time>2022-04-12T13:12:09Z</time>
      </trkpt>
      <trkpt lat="50" lon="2.05443">
        <ele>12.4</ele>
        <time>2022-04-12T13:12:10Z</time>
      </trkpt>
      <trkpt lat="50.00001" lon="2.05441">
        <ele>12.4</ele>
        <time>2022-04-12T13:12:11Z</time>
      </trkpt>
      <trkpt lat="50.00003" lon="2.05439">
        <ele>12.4</ele>
        <time>2022-04-12T13:12:12Z</time>
      </trkpt>
      <trkpt lat="50.00004" lon="2.05438">
        <ele>12.4</ele>
        <time>2022-04-12T13:12:13Z</time>
      </trkpt>
      <trkpt lat="50.00004" lon="2.05437">
        <ele>12.4</ele>
        <time>2022-04-12T13:12:14Z</time>
      </trkpt>
      <trkpt lat="50.00006" lon="2.05436">
        <ele>12.3</ele>
        <time>2022-04-12T13:12:16Z</time>
      </trkpt>
      <trkpt lat="50.00006" lon="2.05435">
        <ele>12.3</ele>
        <time>2022-04-12T13:12:17Z</time>
      </trkpt>
      <trkpt lat="50.00007" lon="2.05434">
        <ele>12.3</ele>
        <time>2022-04-12T13:12:18Z</time>
      </trkpt>
      <trkpt lat="50.00008" lon="2.05433">
        <ele>12.3</ele>
        <time>2022-04-12T13:12:19Z</time>
      </trkpt>
      <trkpt lat="50.00009" lon="2.05432">
        <ele>12.3</ele>
        <time>2022-04-12T13:12:20Z</time>
      </trkpt>
      <trkpt lat="50.0001" lon="2.05431">
        <ele>12.3</ele>
        <time>2022-04-12T13:12:21Z</time>
      </trkpt>
      <trkpt lat="50.00011" lon="2.05431">
        <ele>12.3</ele>
        <time>2022-04-12T13:12:22Z</time>
      </trkpt>
      <trkpt lat="50.00012" lon="2.0543">
        <ele>12.3</ele>
        <time>2022-04-12T13:12:23Z</time>
      </trkpt>
      <trkpt lat="50.00014" lon="2.05429">
        <ele>12.3</ele>
        <time>2022-04-12T13:12:25Z</time>
      </trkpt>
      <trkpt lat="50.00015" lon="2.05428">
        <ele>12.3</ele>
        <time>2022-04-12T13:12:26Z</time>
      </trkpt>
      <trkpt lat="50.00016" lon="2.05427">
        <ele>12.3</ele>
        <time>2022-04-12T13:12:27Z</time>
      </trkpt>
      <trkpt lat="50.00017" lon="2.05426">
        <ele>12.3</ele>
        <time>2022-04-12T13:12:28Z</time>
      </trkpt>
      <trkpt lat="50.00018" lon="2.05425">
        <ele>12.3</ele>
        <time>2022-04-12T13:12:29Z</time>
      </trkpt>
      <trkpt lat="50.00019" lon="2.05425">
        <ele>12.3</ele>
        <time>2022-04-12T13:12:30Z</time>
      </trkpt>
      <trkpt lat="50.0002" lon="2.05424">
        <ele>12.3</ele>
        <time>2022-04-12T13:12:31Z</time>
      </trkpt>
      <trkpt lat="50.00022" lon="2.05423">
        <ele>12.3</ele>
        <time>2022-04-12T13:12:32Z</time>
      </trkpt>
      <trkpt lat="50.00023" lon="2.05422">
        <ele>12.3</ele>
        <time>2022-04-12T13:12:33Z</time>
      </trkpt>
      <trkpt lat="50.00023" lon="2.05421">
        <ele>12.3</ele>
        <time>2022-04-12T13:12:34Z</time>
      </trkpt>
      <trkpt lat="50.00025" lon="2.0542">
        <ele>12.3</ele>
        <time>2022-04-12T13:12:35Z</time>
      </trkpt>
      <trkpt lat="50.00026" lon="2.05419">
        <ele>12.3</ele>
        <time>2022-04-12T13:12:37Z</time>
      </trkpt>
      <trkpt lat="50.00027" lon="2.05418">
        <ele>12.3</ele>
        <time>2022-04-12T13:12:38Z</time>
      </trkpt>
      <trkpt lat="50.00028" lon="2.05417">
        <ele>12.3</ele>
        <time>2022-04-12T13:12:39Z</time>
      </trkpt>
      <trkpt lat="50.00029" lon="2.05416">
        <ele>12.3</ele>
        <time>2022-04-12T13:12:40Z</time>
      </trkpt>
      <trkpt lat="50.0003" lon="2.05415">
        <ele>12.3</ele>
        <time>2022-04-12T13:12:41Z</time>
      </trkpt>
      <trkpt lat="50.00031" lon="2.05413">
        <ele>12.3</ele>
        <time>2022-04-12T13:12:42Z</time>
      </trkpt>
      <trkpt lat="50.00033" lon="2.05412">
        <ele>12.3</ele>
        <time>2022-04-12T13:12:44Z</time>
      </trkpt>
      <trkpt lat="50.00034" lon="2.0541">
        <ele>12.3</ele>
        <time>2022-04-12T13:12:45Z</time>
      </trkpt>
      <trkpt lat="50.00035" lon="2.05409">
        <ele>12.3</ele>
        <time>2022-04-12T13:12:46Z</time>
      </trkpt>
      <trkpt lat="50.00036" lon="2.05408">
        <ele>12.3</ele>
        <time>2022-04-12T13:12:47Z</time>
      </trkpt>
      <trkpt lat="50.00038" lon="2.05406">
        <ele>12.3</ele>
        <time>2022-04-12T13:12:48Z</time>
      </trkpt>
      <trkpt lat="50.00038" lon="2.05406">
        <ele>12.3</ele>
        <time>2022-04-12T13:12:49Z</time>
      </trkpt>
      <trkpt lat="50.00039" lon="2.05405">
        <ele>12.3</ele>
        <time>2022-04-12T13:12:50Z</time>
      </trkpt>
      <trkpt lat="50.00041" lon="2.05404">
        <ele>12.3</ele>
        <time>2022-04-12T13:12:51Z</time>
      </trkpt>
      <trkpt lat="50.00042" lon="2.05403">
        <ele>12.3</ele>
        <time>2022-04-12T13:12:52Z</time>
      </trkpt>
      <trkpt lat="50.00043" lon="2.05402">
        <ele>12.3</ele>
        <time>2022-04-12T13:12:54Z</time>
      </trkpt>
      <trkpt lat="50.00044" lon="2.05402">
        <ele>12.3</ele>
        <time>2022-04-12T13:12:55Z</time>
      </trkpt>
      <trkpt lat="50.00044" lon="2.05401">
        <ele>12.3</ele>
        <time>2022-04-12T13:12:56Z</time>
      </trkpt>
      <trkpt lat="50.00045" lon="2.054">
        <ele>12.3</ele>
        <time>2022-04-12T13:12:57Z</time>
      </trkpt>
      <trkpt lat="50.00047" lon="2.05399">
        <ele>12.3</ele>
        <time>2022-04-12T13:12:58Z</time>
      </trkpt>
      <trkpt lat="50.00048" lon="2.05399">
        <ele>12.3</ele>
        <time>2022-04-12T13:12:59Z</time>
      </trkpt>
      <trkpt lat="50.00049" lon="2.05398">
        <ele>12.3</ele>
        <time>2022-04-12T13:13:00Z</time>
      </trkpt>
      <trkpt lat="50.00051" lon="2.05397">
        <ele>12.3</ele>
        <time>2022-04-12T13:13:01Z</time>
      </trkpt>
      <trkpt lat="50.00052" lon="2.05396">
        <ele>12.3</ele>
        <time>2022-04-12T13:13:02Z</time>
      </trkpt>
      <trkpt lat="50.00052" lon="2.05395">
        <ele>12.3</ele>
        <time>2022-04-12T13:13:03Z</time>
      </trkpt>
      <trkpt lat="50.00054" lon="2.05393">
        <ele>12.3</ele>
        <time>2022-04-12T13:13:04Z</time>
      </trkpt>
      <trkpt lat="50.00055" lon="2.05393">
        <ele>12.3</ele>
        <time>2022-04-12T13:13:05Z</time>
      </trkpt>
      <trkpt lat="50.00056" lon="2.05392">
        <ele>12.3</ele>
        <time>2022-04-12T13:13:06Z</time>
      </trkpt>
      <trkpt lat="50.00057" lon="2.05391">
        <ele>12.3</ele>
        <time>2022-04-12T13:13:07Z</time>
      </trkpt>
      <trkpt lat="50.00058" lon="2.0539">
        <ele>12.3</ele>
        <time>2022-04-12T13:13:08Z</time>
      </trkpt>
      <trkpt lat="50.00059" lon="2.05389">
        <ele>12.3</ele>
        <time>2022-04-12T13:13:10Z</time>
      </trkpt>
      <trkpt lat="50.00061" lon="2.05387">
        <ele>12.3</ele>
        <time>2022-04-12T13:13:11Z</time>
      </trkpt>
      <trkpt lat="50.00062" lon="2.05387">
        <ele>12.3</ele>
        <time>2022-04-12T13:13:12Z</time>
      </trkpt>
      <trkpt lat="50.00063" lon="2.05386">
        <ele>12.3</ele>
        <time>2022-04-12T13:13:13Z</time>
      </trkpt>
      <trkpt lat="50.00064" lon="2.05385">
        <ele>12.3</ele>
        <time>2022-04-12T13:13:14Z</time>
      </trkpt>
      <trkpt lat="50.00065" lon="2.05384">
        <ele>12.3</ele>
        <time>2022-04-12T13:13:15Z</time>
      </trkpt>
      <trkpt lat="50.00066" lon="2.05383">
        <ele>12.3</ele>
        <time>2022-04-12T13:13:16Z</time>
      </trkpt>
      <trkpt lat="50.00067" lon="2.05381">
        <ele>12.3</ele>
        <time>2022-04-12T13:13:17Z</time>
      </trkpt>
      <trkpt lat="50.00068" lon="2.0538">
        <ele>12.3</ele>
        <time>2022-04-12T13:13:18Z</time>
      </trkpt>
      <trkpt lat="50.00069" lon="2.05379">
        <ele>12.3</ele>
        <time>2022-04-12T13:13:19Z</time>
      </trkpt>
      <trkpt lat="50.0007" lon="2.05378">
        <ele>12.3</ele>
        <time>2022-04-12T13:13:20Z</time>
      </trkpt>
      <trkpt lat="50.00071" lon="2.05377">
        <ele>12.3</ele>
        <time>2022-04-12T13:13:21Z</time>
      </trkpt>
      <trkpt lat="50.00072" lon="2.05376">
        <ele>12.3</ele>
        <time>2022-04-12T13:13:23Z</time>
      </trkpt>
      <trkpt lat="50.00073" lon="2.05375">
        <ele>12.3</ele>
        <time>2022-04-12T13:13:24Z</time>
      </trkpt>
      <trkpt lat="50.00074" lon="2.05374">
        <ele>12.3</ele>
        <time>2022-04-12T13:13:25Z</time>
      </trkpt>
      <trkpt lat="50.00074" lon="2.05373">
        <ele>12.3</ele>
        <time>2022-04-12T13:13:26Z</time>
      </trkpt>
      <trkpt lat="50.00075" lon="2.05372">
        <ele>12.3</ele>
        <time>2022-04-12T13:13:27Z</time>
      </trkpt>
      <trkpt lat="50.00076" lon="2.05371">
        <ele>12.3</ele>
        <time>2022-04-12T13:13:28Z</time>
      </trkpt>
      <trkpt lat="50.00077" lon="2.0537">
        <ele>12.3</ele>
        <time>2022-04-12T13:13:29Z</time>
      </trkpt>
      <trkpt lat="50.00078" lon="2.05368">
        <ele>12.3</ele>
        <time>2022-04-12T13:13:30Z</time>
      </trkpt>
      <trkpt lat="50.00079" lon="2.05367">
        <ele>12.3</ele>
        <time>2022-04-12T13:13:31Z</time>
      </trkpt>
      <trkpt lat="50.00079" lon="2.05366">
        <ele>12.3</ele>
        <time>2022-04-12T13:13:32Z</time>
      </trkpt>
      <trkpt lat="50.0008" lon="2.05365">
        <ele>12.3</ele>
        <time>2022-04-12T13:13:33Z</time>
      </trkpt>
      <trkpt lat="50.00081" lon="2.05364">
        <ele>12.3</ele>
        <time>2022-04-12T13:13:34Z</time>
      </trkpt>
      <trkpt lat="50.00082" lon="2.05362">
        <ele>12.3</ele>
        <time>2022-04-12T13:13:36Z</time>
      </trkpt>
      <trkpt lat="50.00084" lon="2.0536">
        <ele>12.3</ele>
        <time>2022-04-12T13:13:37Z</time>
      </trkpt>
      <trkpt lat="50.00085" lon="2.0536">
        <ele>12.3</ele>
        <time>2022-04-12T13:13:38Z</time>
      </trkpt>
      <trkpt lat="50.00086" lon="2.05359">
        <ele>12.3</ele>
        <time>2022-04-12T13:13:39Z</time>
      </trkpt>
      <trkpt lat="50.00087" lon="2.05357">
        <ele>12.3</ele>
        <time>2022-04-12T13:13:40Z</time>
      </trkpt>
      <trkpt lat="50.00088" lon="2.05356">
        <ele>12.3</ele>
        <time>2022-04-12T13:13:41Z</time>
      </trkpt>
      <trkpt lat="50.00088" lon="2.05355">
        <ele>12.3</ele>
        <time>2022-04-12T13:13:42Z</time>
      </trkpt>
      <trkpt lat="50.0009" lon="2.05354">
        <ele>12.3</ele>
        <time>2022-04-12T13:13:44Z</time>
      </trkpt>
      <trkpt lat="50.00091" lon="2.05352">
        <ele>12.3</ele>
        <time>2022-04-12T13:13:45Z</time>
      </trkpt>
      <trkpt lat="50.00092" lon="2.0535">
        <ele>12.3</ele>
        <time>2022-04-12T13:13:46Z</time>
      </trkpt>
      <trkpt lat="50.00093" lon="2.05349">
        <ele>12.3</ele>
        <time>2022-04-12T13:13:47Z</time>
      </trkpt>
      <trkpt lat="50.00094" lon="2.05349">
        <ele>12.3</ele>
        <time>2022-04-12T13:13:48Z</time>
      </trkpt>
      <trkpt lat="50.00095" lon="2.05347">
        <ele>12.3</ele>
        <time>2022-04-12T13:13:50Z</time>
      </trkpt>
      <trkpt lat="50.00097" lon="2.05345">
        <ele>12.3</ele>
        <time>2022-04-12T13:13:51Z</time>
      </trkpt>
      <trkpt lat="50.00098" lon="2.05344">
        <ele>12.3</ele>
        <time>2022-04-12T13:13:52Z</time>
      </trkpt>
      <trkpt lat="50.00099" lon="2.05343">
        <ele>12.3</ele>
        <time>2022-04-12T13:13:53Z</time>
      </trkpt>
      <trkpt lat="50.00099" lon="2.05342">
        <ele>12.3</ele>
        <time>2022-04-12T13:13:54Z</time>
      </trkpt>
      <trkpt lat="50.00101" lon="2.0534">
        <ele>12.3</ele>
        <time>2022-04-12T13:13:55Z</time>
      </trkpt>
      <trkpt lat="50.00102" lon="2.0534">
        <ele>12.3</ele>
        <time>2022-04-12T13:13:56Z</time>
      </trkpt>
      <trkpt lat="50.00103" lon="2.05339">
        <ele>12.3</ele>
        <time>2022-04-12T13:13:57Z</time>
      </trkpt>
      <trkpt lat="50.00104" lon="2.05338">
        <ele>12.3</ele>
        <time>2022-04-12T13:13:59Z</time>
      </trkpt>
      <trkpt lat="50.00105" lon="2.05337">
        <ele>12.3</ele>
        <time>2022-04-12T13:14:00Z</time>
      </trkpt>
      <trkpt lat="50.00106" lon="2.05337">
        <ele>12.3</ele>
        <time>2022-04-12T13:14:01Z</time>
      </trkpt>
      <trkpt lat="50.00107" lon="2.05336">
        <ele>12.3</ele>
        <time>2022-04-12T13:14:02Z</time>
      </trkpt>
      <trkpt lat="50.00108" lon="2.05335">
        <ele>12.3</ele>
        <time>2022-04-12T13:14:03Z</time>
      </trkpt>
      <trkpt lat="50.00109" lon="2.05335">
        <ele>12.3</ele>
        <time>2022-04-12T13:14:04Z</time>
      </trkpt>
      <trkpt lat="50.00109" lon="2.05334">
        <ele>12.3</ele>
        <time>2022-04-12T13:14:05Z</time>
      </trkpt>
      <trkpt lat="50.0011" lon="2.05333">
        <ele>12.3</ele>
        <time>2022-04-12T13:14:06Z</time>
      </trkpt>
      <trkpt lat="50.00111" lon="2.05332">
        <ele>12.3</ele>
        <time>2022-04-12T13:14:07Z</time>
      </trkpt>
      <trkpt lat="50.00112" lon="2.05331">
        <ele>12.3</ele>
        <time>2022-04-12T13:14:08Z</time>
      </trkpt>
      <trkpt lat="50.00113" lon="2.0533">
        <ele>12.3</ele>
        <time>2022-04-12T13:14:10Z</time>
      </trkpt>
      <trkpt lat="50.00115" lon="2.0533">
        <ele>12.3</ele>
        <time>2022-04-12T13:14:11Z</time>
      </trkpt>
      <trkpt lat="50.00116" lon="2.05328">
        <ele>12.3</ele>
        <time>2022-04-12T13:14:12Z</time>
      </trkpt>
      <trkpt lat="50.00117" lon="2.05327">
        <ele>12.3</ele>
        <time>2022-04-12T13:14:13Z</time>
      </trkpt>
      <trkpt lat="50.00118" lon="2.05327">
        <ele>12.3</ele>
        <time>2022-04-12T13:14:14Z</time>
      </trkpt>
      <trkpt lat="50.0012" lon="2.05326">
        <ele>12.3</ele>
        <time>2022-04-12T13:14:15Z</time>
      </trkpt>
      <trkpt lat="50.0012" lon="2.05325">
        <ele>12.3</ele>
        <time>2022-04-12T13:14:16Z</time>
      </trkpt>
      <trkpt lat="50.00121" lon="2.05324">
        <ele>12.3</ele>
        <time>2022-04-12T13:14:17Z</time>
      </trkpt>
      <trkpt lat="50.00123" lon="2.05323">
        <ele>12.3</ele>
        <time>2022-04-12T13:14:18Z</time>
      </trkpt>
      <trkpt lat="50.00124" lon="2.05323">
        <ele>12.3</ele>
        <time>2022-04-12T13:14:20Z</time>
      </trkpt>
      <trkpt lat="50.00124" lon="2.05322">
        <ele>12.3</ele>
        <time>2022-04-12T13:14:21Z</time>
      </trkpt>
      <trkpt lat="50.00126" lon="2.05321">
        <ele>12.3</ele>
        <time>2022-04-12T13:14:22Z</time>
      </trkpt>
      <trkpt lat="50.00127" lon="2.0532">
        <ele>12.3</ele>
        <time>2022-04-12T13:14:23Z</time>
      </trkpt>
      <trkpt lat="50.00128" lon="2.0532">
        <ele>12.3</ele>
        <time>2022-04-12T13:14:24Z</time>
      </trkpt>
      <trkpt lat="50.00129" lon="2.05319">
        <ele>12.3</ele>
        <time>2022-04-12T13:14:25Z</time>
      </trkpt>
      <trkpt lat="50.0013" lon="2.05319">
        <ele>12.3</ele>
        <time>2022-04-12T13:14:26Z</time>
      </trkpt>
      <trkpt lat="50.00131" lon="2.05318">
        <ele>12.3</ele>
        <time>2022-04-12T13:14:27Z</time>
      </trkpt>
      <trkpt lat="50.00132" lon="2.05318">
        <ele>12.3</ele>
        <time>2022-04-12T13:14:29Z</time>
      </trkpt>
      <trkpt lat="50.00133" lon="2.05317">
        <ele>12.3</ele>
        <time>2022-04-12T13:14:30Z</time>
      </trkpt>
      <trkpt lat="50.00134" lon="2.05317">
        <ele>12.3</ele>
        <time>2022-04-12T13:14:31Z</time>
      </trkpt>
      <trkpt lat="50.00135" lon="2.05316">
        <ele>12.2</ele>
        <time>2022-04-12T13:14:32Z</time>
      </trkpt>
      <trkpt lat="50.00136" lon="2.05315">
        <ele>12.2</ele>
        <time>2022-04-12T13:14:33Z</time>
      </trkpt>
      <trkpt lat="50.00137" lon="2.05314">
        <ele>12.2</ele>
        <time>2022-04-12T13:14:34Z</time>
      </trkpt>
      <trkpt lat="50.00138" lon="2.05314">
        <ele>12.2</ele>
        <time>2022-04-12T13:14:35Z</time>
      </trkpt>
      <trkpt lat="50.00139" lon="2.05313">
        <ele>12.2</ele>
        <time>2022-04-12T13:14:36Z</time>
      </trkpt>
      <trkpt lat="50.00141" lon="2.05311">
        <ele>12.2</ele>
        <time>2022-04-12T13:14:38Z</time>
      </trkpt>
      <trkpt lat="50.00142" lon="2.0531">
        <ele>12.2</ele>
        <time>2022-04-12T13:14:39Z</time>
      </trkpt>
      <trkpt lat="50.00143" lon="2.05309">
        <ele>12.2</ele>
        <time>2022-04-12T13:14:40Z</time>
      </trkpt>
      <trkpt lat="50.00144" lon="2.05308">
        <ele>12.2</ele>
        <time>2022-04-12T13:14:41Z</time>
      </trkpt>
      <trkpt lat="50.00146" lon="2.05306">
        <ele>12.2</ele>
        <time>2022-04-12T13:14:42Z</time>
      </trkpt>
      <trkpt lat="50.00146" lon="2.05306">
        <ele>12.2</ele>
        <time>2022-04-12T13:14:44Z</time>
      </trkpt>
      <trkpt lat="50.00147" lon="2.05305">
        <ele>12.1</ele>
        <time>2022-04-12T13:14:45Z</time>
      </trkpt>
      <trkpt lat="50.00149" lon="2.05303">
        <ele>12.1</ele>
        <time>2022-04-12T13:14:46Z</time>
      </trkpt>
      <trkpt lat="50.0015" lon="2.05302">
        <ele>12.1</ele>
        <time>2022-04-12T13:14:48Z</time>
      </trkpt>
      <trkpt lat="50.00151" lon="2.05301">
        <ele>12.1</ele>
        <time>2022-04-12T13:14:49Z</time>
      </trkpt>
      <trkpt lat="50.00151" lon="2.053">
        <ele>12.1</ele>
        <time>2022-04-12T13:14:50Z</time>
      </trkpt>
      <trkpt lat="50.00152" lon="2.05299">
        <ele>12.1</ele>
        <time>2022-04-12T13:14:51Z</time>
      </trkpt>
      <trkpt lat="50.00153" lon="2.05298">
        <ele>12.1</ele>
        <time>2022-04-12T13:14:52Z</time>
      </trkpt>
      <trkpt lat="50.00154" lon="2.05297">
        <ele>12.1</ele>
        <time>2022-04-12T13:14:53Z</time>
      </trkpt>
      <trkpt lat="50.00155" lon="2.05296">
        <ele>12.1</ele>
        <time>2022-04-12T13:14:55Z</time>
      </trkpt>
      <trkpt lat="50.00156" lon="2.05294">
        <ele>12.1</ele>
        <time>2022-04-12T13:14:56Z</time>
      </trkpt>
      <trkpt lat="50.00157" lon="2.05293">
        <ele>12.1</ele>
        <time>2022-04-12T13:14:57Z</time>
      </trkpt>
      <trkpt lat="50.00158" lon="2.05292">
        <ele>12</ele>
        <time>2022-04-12T13:14:58Z</time>
      </trkpt>
      <trkpt lat="50.00159" lon="2.0529">
        <ele>12</ele>
        <time>2022-04-12T13:14:59Z</time>
      </trkpt>
      <trkpt lat="50.00159" lon="2.05288">
        <ele>12</ele>
        <time>2022-04-12T13:15:00Z</time>
      </trkpt>
      <trkpt lat="50.0016" lon="2.05287">
        <ele>12</ele>
        <time>2022-04-12T13:15:01Z</time>
      </trkpt>
      <trkpt lat="50.00161" lon="2.05285">
        <ele>12</ele>
        <time>2022-04-12T13:15:02Z</time>
      </trkpt>
      <trkpt lat="50.00162" lon="2.05284">
        <ele>12</ele>
        <time>2022-04-12T13:15:04Z</time>
      </trkpt>
      <trkpt lat="50.00163" lon="2.05283">
        <ele>12</ele>
        <time>2022-04-12T13:15:05Z</time>
      </trkpt>
      <trkpt lat="50.00163" lon="2.05282">
        <ele>12</ele>
        <time>2022-04-12T13:15:06Z</time>
      </trkpt>
      <trkpt lat="50.00164" lon="2.0528">
        <ele>12</ele>
        <time>2022-04-12T13:15:07Z</time>
      </trkpt>
      <trkpt lat="50.00165" lon="2.05277">
        <ele>12</ele>
        <time>2022-04-12T13:15:08Z</time>
      </trkpt>
      <trkpt lat="50.00165" lon="2.05276">
        <ele>12</ele>
        <time>2022-04-12T13:15:09Z</time>
      </trkpt>
      <trkpt lat="50.00166" lon="2.05275">
        <ele>12</ele>
        <time>2022-04-12T13:15:10Z</time>
      </trkpt>
      <trkpt lat="50.00167" lon="2.05274">
        <ele>12</ele>
        <time>2022-04-12T13:15:11Z</time>
      </trkpt>
      <trkpt lat="50.00167" lon="2.05273">
        <ele>12</ele>
        <time>2022-04-12T13:15:13Z</time>
      </trkpt>
      <trkpt lat="50.00168" lon="2.05272">
        <ele>12</ele>
        <time>2022-04-12T13:15:14Z</time>
      </trkpt>
      <trkpt lat="50.00169" lon="2.05271">
        <ele>12</ele>
        <time>2022-04-12T13:15:15Z</time>
      </trkpt>
      <trkpt lat="50.0017" lon="2.0527">
        <ele>12</ele>
        <time>2022-04-12T13:15:16Z</time>
      </trkpt>
      <trkpt lat="50.00171" lon="2.05269">
        <ele>12</ele>
        <time>2022-04-12T13:15:17Z</time>
      </trkpt>
      <trkpt lat="50.00172" lon="2.05268">
        <ele>11.9</ele>
        <time>2022-04-12T13:15:18Z</time>
      </trkpt>
      <trkpt lat="50.00173" lon="2.05268">
        <ele>11.9</ele>
        <time>2022-04-12T13:15:19Z</time>
      </trkpt>
      <trkpt lat="50.00174" lon="2.05267">
        <ele>11.9</ele>
        <time>2022-04-12T13:15:20Z</time>
      </trkpt>
      <trkpt lat="50.00175" lon="2.05267">
        <ele>11.9</ele>
        <time>2022-04-12T13:15:21Z</time>
      </trkpt>
      <trkpt lat="50.00176" lon="2.05267">
        <ele>11.9</ele>
        <time>2022-04-12T13:15:23Z</time>
      </trkpt>
      <trkpt lat="50.00178" lon="2.05266">
        <ele>11.9</ele>
        <time>2022-04-12T13:15:24Z</time>
      </trkpt>
      <trkpt lat="50.00179" lon="2.05265">
        <ele>11.9</ele>
        <time>2022-04-12T13:15:25Z</time>
      </trkpt>
      <trkpt lat="50.00179" lon="2.05264">
        <ele>11.9</ele>
        <time>2022-04-12T13:15:26Z</time>
      </trkpt>
      <trkpt lat="50.0018" lon="2.05262">
        <ele>11.9</ele>
        <time>2022-04-12T13:15:28Z</time>
      </trkpt>
      <trkpt lat="50.00181" lon="2.05261">
        <ele>11.9</ele>
        <time>2022-04-12T13:15:29Z</time>
      </trkpt>
      <trkpt lat="50.00182" lon="2.0526">
        <ele>11.9</ele>
        <time>2022-04-12T13:15:30Z</time>
      </trkpt>
      <trkpt lat="50.00183" lon="2.05259">
        <ele>11.9</ele>
        <time>2022-04-12T13:15:31Z</time>
      </trkpt>
      <trkpt lat="50.00183" lon="2.05258">
        <ele>11.9</ele>
        <time>2022-04-12T13:15:32Z</time>
      </trkpt>
      <trkpt lat="50.00184" lon="2.05257">
        <ele>11.9</ele>
        <time>2022-04-12T13:15:33Z</time>
      </trkpt>
      <trkpt lat="50.00186" lon="2.05256">
        <ele>11.9</ele>
        <time>2022-04-12T13:15:35Z</time>
      </trkpt>
      <trkpt lat="50.00186" lon="2.05255">
        <ele>11.9</ele>
        <time>2022-04-12T13:15:36Z</time>
      </trkpt>
      <trkpt lat="50.00187" lon="2.05254">
        <ele>11.9</ele>
        <time>2022-04-12T13:15:37Z</time>
      </trkpt>
      <trkpt lat="50.00188" lon="2.05254">
        <ele>11.9</ele>
        <time>2022-04-12T13:15:38Z</time>
      </trkpt>
      <trkpt lat="50.00189" lon="2.05253">
        <ele>11.9</ele>
        <time>2022-04-12T13:15:39Z</time>
      </trkpt>
      <trkpt lat="50.0019" lon="2.05252">
        <ele>11.8</ele>
        <time>2022-04-12T13:15:40Z</time>
      </trkpt>
      <trkpt lat="50.00191" lon="2.05251">
        <ele>11.8</ele>
        <time>2022-04-12T13:15:41Z</time>
      </trkpt>
      <trkpt lat="50.00191" lon="2.05251">
        <ele>11.8</ele>
        <time>2022-04-12T13:15:43Z</time>
      </trkpt>
      <trkpt lat="50.00192" lon="2.0525">
        <ele>11.8</ele>
        <time>2022-04-12T13:15:44Z</time>
      </trkpt>
      <trkpt lat="50.00192" lon="2.0525">
        <ele>11.8</ele>
        <time>2022-04-12T13:15:45Z</time>
      </trkpt>
      <trkpt lat="50.00193" lon="2.05249">
        <ele>11.8</ele>
        <time>2022-04-12T13:15:46Z</time>
      </trkpt>
      <trkpt lat="50.00194" lon="2.05249">
        <ele>11.8</ele>
        <time>2022-04-12T13:15:48Z</time>
      </trkpt>
      <trkpt lat="50.00195" lon="2.05249">
        <ele>11.8</ele>
        <time>2022-04-12T13:15:49Z</time>
      </trkpt>
      <trkpt lat="50.00195" lon="2.05248">
        <ele>11.8</ele>
        <time>2022-04-12T13:15:50Z</time>
      </trkpt>
      <trkpt lat="50.00196" lon="2.05248">
        <ele>11.8</ele>
        <time>2022-04-12T13:15:51Z</time>
      </trkpt>
      <trkpt lat="50.00196" lon="2.05248">
        <ele>11.8</ele>
        <time>2022-04-12T13:15:52Z</time>
      </trkpt>
      <trkpt lat="50.00197" lon="2.05247">
        <ele>11.8</ele>
        <time>2022-04-12T13:15:53Z</time>
      </trkpt>
      <trkpt lat="50.00198" lon="2.05247">
        <ele>11.8</ele>
        <time>2022-04-12T13:15:55Z</time>
      </trkpt>
      <trkpt lat="50.00198" lon="2.05246">
        <ele>11.8</ele>
        <time>2022-04-12T13:15:56Z</time>
      </trkpt>
      <trkpt lat="50.00199" lon="2.05246">
        <ele>11.8</ele>
        <time>2022-04-12T13:15:57Z</time>
      </trkpt>
      <trkpt lat="50.00199" lon="2.05246">
        <ele>11.8</ele>
        <time>2022-04-12T13:15:58Z</time>
      </trkpt>
      <trkpt lat="50.002" lon="2.05245">
        <ele>11.8</ele>
        <time>2022-04-12T13:16:00Z</time>
      </trkpt>
      <trkpt lat="50.00201" lon="2.05245">
        <ele>11.8</ele>
        <time>2022-04-12T13:16:01Z</time>
      </trkpt>
      <trkpt lat="50.00201" lon="2.05245">
        <ele>11.8</ele>
        <time>2022-04-12T13:16:02Z</time>
      </trkpt>
      <trkpt lat="50.00202" lon="2.05244">
        <ele>11.8</ele>
        <time>2022-04-12T13:16:03Z</time>
      </trkpt>
      <trkpt lat="50.00203" lon="2.05244">
        <ele>11.8</ele>
        <time>2022-04-12T13:16:04Z</time>
      </trkpt>
      <trkpt lat="50.00204" lon="2.05244">
        <ele>11.8</ele>
        <time>2022-04-12T13:16:05Z</time>
      </trkpt>
      <trkpt lat="50.00205" lon="2.05244">
        <ele>11.8</ele>
        <time>2022-04-12T13:16:07Z</time>
      </trkpt>
      <trkpt lat="50.00206" lon="2.05243">
        <ele>11.8</ele>
        <time>2022-04-12T13:16:08Z</time>
      </trkpt>
      <trkpt lat="50.00207" lon="2.05243">
        <ele>11.8</ele>
        <time>2022-04-12T13:16:09Z</time>
      </trkpt>
      <trkpt lat="50.00207" lon="2.05243">
        <ele>11.8</ele>
        <time>2022-04-12T13:16:10Z</time>
      </trkpt>
      <trkpt lat="50.00207" lon="2.05242">
        <ele>11.8</ele>
        <time>2022-04-12T13:16:11Z</time>
      </trkpt>
      <trkpt lat="50.00207" lon="2.05242">
        <ele>11.8</ele>
        <time>2022-04-12T13:16:12Z</time>
      </trkpt>
      <trkpt lat="50.00207" lon="2.05242">
        <ele>11.8</ele>
        <time>2022-04-12T13:16:13Z</time>
      </trkpt>
      <trkpt lat="50.00207" lon="2.05242">
        <ele>11.8</ele>
        <time>2022-04-12T13:16:14Z</time>
      </trkpt>
      <trkpt lat="50.00206" lon="2.05242">
        <ele>11.8</ele>
        <time>2022-04-12T13:16:15Z</time>
      </trkpt>
      <trkpt lat="50.00206" lon="2.05242">
        <ele>11.8</ele>
        <time>2022-04-12T13:16:16Z</time>
      </trkpt>
      <trkpt lat="50.00206" lon="2.05242">
        <ele>11.8</ele>
        <time>2022-04-12T13:16:17Z</time>
      </trkpt>
      <trkpt lat="50.00206" lon="2.05242">
        <ele>11.8</ele>
        <time>2022-04-12T13:16:18Z</time>
      </trkpt>
      <trkpt lat="50.00206" lon="2.05242">
        <ele>11.7</ele>
        <time>2022-04-12T13:16:19Z</time>
      </trkpt>
      <trkpt lat="50.00206" lon="2.05242">
        <ele>11.7</ele>
        <time>2022-04-12T13:16:20Z</time>
      </trkpt>
      <trkpt lat="50.00206" lon="2.05242">
        <ele>11.7</ele>
        <time>2022-04-12T13:16:21Z</time>
      </trkpt>
      <trkpt lat="50.00206" lon="2.05242">
        <ele>11.7</ele>
        <time>2022-04-12T13:16:22Z</time>
      </trkpt>
      <trkpt lat="50.00206" lon="2.05242">
        <ele>11.7</ele>
        <time>2022-04-12T13:16:23Z</time>
      </trkpt>
      <trkpt lat="50.00206" lon="2.05242">
        <ele>11.7</ele>
        <time>2022-04-12T13:16:24Z</time>
      </trkpt>
      <trkpt lat="50.00206" lon="2.05242">
        <ele>11.7</ele>
        <time>2022-04-12T13:16:25Z</time>
      </trkpt>
      <trkpt lat="50.00206" lon="2.05243">
        <ele>11.7</ele>
        <time>2022-04-12T13:16:27Z</time>
      </trkpt>
      <trkpt lat="50.00206" lon="2.05243">
        <ele>11.7</ele>
        <time>2022-04-12T13:16:28Z</time>
      </trkpt>
      <trkpt lat="50.00207" lon="2.05243">
        <ele>11.7</ele>
        <time>2022-04-12T13:16:29Z</time>
      </trkpt>
      <trkpt lat="50.00207" lon="2.05243">
        <ele>11.7</ele>
        <time>2022-04-12T13:16:30Z</time>
      </trkpt>
      <trkpt lat="50.00208" lon="2.05243">
        <ele>11.7</ele>
        <time>2022-04-12T13:16:31Z</time>
      </trkpt>
      <trkpt lat="50.00209" lon="2.05243">
        <ele>11.7</ele>
        <time>2022-04-12T13:16:32Z</time>
      </trkpt>
      <trkpt lat="50.0021" lon="2.05243">
        <ele>11.7</ele>
        <time>2022-04-12T13:16:33Z</time>
      </trkpt>
      <trkpt lat="50.00211" lon="2.05242">
        <ele>11.7</ele>
        <time>2022-04-12T13:16:35Z</time>
      </trkpt>
      <trkpt lat="50.00212" lon="2.05241">
        <ele>11.7</ele>
        <time>2022-04-12T13:16:36Z</time>
      </trkpt>
      <trkpt lat="50.00212" lon="2.05241">
        <ele>11.7</ele>
        <time>2022-04-12T13:16:37Z</time>
      </trkpt>
      <trkpt lat="50.00214" lon="2.0524">
        <ele>11.7</ele>
        <time>2022-04-12T13:16:38Z</time>
      </trkpt>
      <trkpt lat="50.00215" lon="2.05239">
        <ele>11.7</ele>
        <time>2022-04-12T13:16:39Z</time>
      </trkpt>
      <trkpt lat="50.00216" lon="2.05238">
        <ele>11.7</ele>
        <time>2022-04-12T13:16:41Z</time>
      </trkpt>
      <trkpt lat="50.00217" lon="2.05237">
        <ele>11.7</ele>
        <time>2022-04-12T13:16:42Z</time>
      </trkpt>
      <trkpt lat="50.00217" lon="2.05235">
        <ele>11.7</ele>
        <time>2022-04-12T13:16:43Z</time>
      </trkpt>
      <trkpt lat="50.00218" lon="2.05234">
        <ele>11.7</ele>
        <time>2022-04-12T13:16:44Z</time>
      </trkpt>
      <trkpt lat="50.00218" lon="2.05232">
        <ele>11.7</ele>
        <time>2022-04-12T13:16:45Z</time>
      </trkpt>
      <trkpt lat="50.00218" lon="2.05231">
        <ele>11.7</ele>
        <time>2022-04-12T13:16:46Z</time>
      </trkpt>
      <trkpt lat="50.00218" lon="2.05231">
        <ele>11.7</ele>
        <time>2022-04-12T13:16:47Z</time>
      </trkpt>
      <trkpt lat="50.00218" lon="2.0523">
        <ele>11.7</ele>
        <time>2022-04-12T13:16:48Z</time>
      </trkpt>
      <trkpt lat="50.00218" lon="2.0523">
        <ele>11.7</ele>
        <time>2022-04-12T13:16:49Z</time>
      </trkpt>
      <trkpt lat="50.00218" lon="2.0523">
        <ele>11.7</ele>
        <time>2022-04-12T13:16:50Z</time>
      </trkpt>
      <trkpt lat="50.00217" lon="2.0523">
        <ele>11.7</ele>
        <time>2022-04-12T13:16:51Z</time>
      </trkpt>
      <trkpt lat="50.00217" lon="2.0523">
        <ele>11.7</ele>
        <time>2022-04-12T13:16:52Z</time>
      </trkpt>
      <trkpt lat="50.00217" lon="2.05229">
        <ele>11.7</ele>
        <time>2022-04-12T13:16:53Z</time>
      </trkpt>
      <trkpt lat="50.00217" lon="2.05229">
        <ele>11.7</ele>
        <time>2022-04-12T13:16:54Z</time>
      </trkpt>
      <trkpt lat="50.00218" lon="2.05229">
        <ele>11.7</ele>
        <time>2022-04-12T13:16:55Z</time>
      </trkpt>
      <trkpt lat="50.00218" lon="2.05229">
        <ele>11.7</ele>
        <time>2022-04-12T13:16:56Z</time>
      </trkpt>
      <trkpt lat="50.00218" lon="2.05229">
        <ele>11.7</ele>
        <time>2022-04-12T13:16:57Z</time>
      </trkpt>
      <trkpt lat="50.00218" lon="2.05229">
        <ele>11.7</ele>
        <time>2022-04-12T13:16:58Z</time>
      </trkpt>
      <trkpt lat="50.00219" lon="2.05229">
        <ele>11.7</ele>
        <time>2022-04-12T13:16:59Z</time>
      </trkpt>
      <trkpt lat="50.00219" lon="2.05228">
        <ele>11.7</ele>
        <time>2022-04-12T13:17:00Z</time>
      </trkpt>
      <trkpt lat="50.0022" lon="2.05228">
        <ele>11.7</ele>
        <time>2022-04-12T13:17:01Z</time>
      </trkpt>
      <trkpt lat="50.00221" lon="2.05227">
        <ele>11.7</ele>
        <time>2022-04-12T13:17:02Z</time>
      </trkpt>
      <trkpt lat="50.00222" lon="2.05227">
        <ele>11.7</ele>
        <time>2022-04-12T13:17:04Z</time>
      </trkpt>
      <trkpt lat="50.00223" lon="2.05226">
        <ele>11.7</ele>
        <time>2022-04-12T13:17:05Z</time>
      </trkpt>
      <trkpt lat="50.00224" lon="2.05225">
        <ele>11.7</ele>
        <time>2022-04-12T13:17:06Z</time>
      </trkpt>
      <trkpt lat="50.00225" lon="2.05224">
        <ele>11.7</ele>
        <time>2022-04-12T13:17:07Z</time>
      </trkpt>
      <trkpt lat="50.00227" lon="2.05223">
        <ele>11.7</ele>
        <time>2022-04-12T13:17:08Z</time>
      </trkpt>
      <trkpt lat="50.00228" lon="2.05223">
        <ele>11.7</ele>
        <time>2022-04-12T13:17:09Z</time>
      </trkpt>
      <trkpt lat="50.00228" lon="2.05222">
        <ele>11.7</ele>
        <time>2022-04-12T13:17:10Z</time>
      </trkpt>
      <trkpt lat="50.0023" lon="2.05221">
        <ele>11.7</ele>
        <time>2022-04-12T13:17:11Z</time>
      </trkpt>
      <trkpt lat="50.00231" lon="2.0522">
        <ele>11.7</ele>
        <time>2022-04-12T13:17:13Z</time>
      </trkpt>
      <trkpt lat="50.00231" lon="2.0522">
        <ele>11.7</ele>
        <time>2022-04-12T13:17:14Z</time>
      </trkpt>
      <trkpt lat="50.00233" lon="2.0522">
        <ele>11.7</ele>
        <time>2022-04-12T13:17:15Z</time>
      </trkpt>
      <trkpt lat="50.00234" lon="2.05219">
        <ele>11.7</ele>
        <time>2022-04-12T13:17:16Z</time>
      </trkpt>
      <trkpt lat="50.00235" lon="2.05218">
        <ele>11.7</ele>
        <time>2022-04-12T13:17:17Z</time>
      </trkpt>
      <trkpt lat="50.00236" lon="2.05217">
        <ele>11.7</ele>
        <time>2022-04-12T13:17:18Z</time>
      </trkpt>
      <trkpt lat="50.00237" lon="2.05217">
        <ele>11.7</ele>
        <time>2022-04-12T13:17:20Z</time>
      </trkpt>
      <trkpt lat="50.00238" lon="2.05216">
        <ele>11.7</ele>
        <time>2022-04-12T13:17:21Z</time>
      </trkpt>
      <trkpt lat="50.00239" lon="2.05215">
        <ele>11.7</ele>
        <time>2022-04-12T13:17:22Z</time>
      </trkpt>
      <trkpt lat="50.0024" lon="2.05214">
        <ele>11.7</ele>
        <time>2022-04-12T13:17:23Z</time>
      </trkpt>
      <trkpt lat="50.00241" lon="2.05213">
        <ele>11.7</ele>
        <time>2022-04-12T13:17:24Z</time>
      </trkpt>
      <trkpt lat="50.00243" lon="2.05212">
        <ele>11.7</ele>
        <time>2022-04-12T13:17:25Z</time>
      </trkpt>
      <trkpt lat="50.00244" lon="2.05211">
        <ele>11.7</ele>
        <time>2022-04-12T13:17:27Z</time>
      </trkpt>
      <trkpt lat="50.00246" lon="2.05209">
        <ele>11.7</ele>
        <time>2022-04-12T13:17:28Z</time>
      </trkpt>
      <trkpt lat="50.00246" lon="2.05209">
        <ele>11.7</ele>
        <time>2022-04-12T13:17:29Z</time>
      </trkpt>
      <trkpt lat="50.00247" lon="2.05208">
        <ele>11.7</ele>
        <time>2022-04-12T13:17:30Z</time>
      </trkpt>
      <trkpt lat="50.00248" lon="2.05206">
        <ele>11.7</ele>
        <time>2022-04-12T13:17:31Z</time>
      </trkpt>
      <trkpt lat="50.00249" lon="2.05205">
        <ele>11.7</ele>
        <time>2022-04-12T13:17:32Z</time>
      </trkpt>
      <trkpt lat="50.0025" lon="2.05204">
        <ele>11.7</ele>
        <time>2022-04-12T13:17:34Z</time>
      </trkpt>
      <trkpt lat="50.00252" lon="2.05201">
        <ele>11.7</ele>
        <time>2022-04-12T13:17:35Z</time>
      </trkpt>
      <trkpt lat="50.00253" lon="2.052">
        <ele>11.7</ele>
        <time>2022-04-12T13:17:36Z</time>
      </trkpt>
      <trkpt lat="50.00253" lon="2.052">
        <ele>11.7</ele>
        <time>2022-04-12T13:17:37Z</time>
      </trkpt>
      <trkpt lat="50.00254" lon="2.05198">
        <ele>11.7</ele>
        <time>2022-04-12T13:17:38Z</time>
      </trkpt>
      <trkpt lat="50.00255" lon="2.05197">
        <ele>11.7</ele>
        <time>2022-04-12T13:17:39Z</time>
      </trkpt>
      <trkpt lat="50.00257" lon="2.05195">
        <ele>11.7</ele>
        <time>2022-04-12T13:17:40Z</time>
      </trkpt>
      <trkpt lat="50.00258" lon="2.05194">
        <ele>11.7</ele>
        <time>2022-04-12T13:17:42Z</time>
      </trkpt>
      <trkpt lat="50.00259" lon="2.05193">
        <ele>11.7</ele>
        <time>2022-04-12T13:17:43Z</time>
      </trkpt>
      <trkpt lat="50.0026" lon="2.05191">
        <ele>11.7</ele>
        <time>2022-04-12T13:17:44Z</time>
      </trkpt>
      <trkpt lat="50.00261" lon="2.05191">
        <ele>11.7</ele>
        <time>2022-04-12T13:17:45Z</time>
      </trkpt>
      <trkpt lat="50.00262" lon="2.0519">
        <ele>11.7</ele>
        <time>2022-04-12T13:17:46Z</time>
      </trkpt>
      <trkpt lat="50.00263" lon="2.05189">
        <ele>11.6</ele>
        <time>2022-04-12T13:17:47Z</time>
      </trkpt>
      <trkpt lat="50.00264" lon="2.05188">
        <ele>11.6</ele>
        <time>2022-04-12T13:17:48Z</time>
      </trkpt>
      <trkpt lat="50.00265" lon="2.05187">
        <ele>11.6</ele>
        <time>2022-04-12T13:17:49Z</time>
      </trkpt>
      <trkpt lat="50.00267" lon="2.05185">
        <ele>11.6</ele>
        <time>2022-04-12T13:17:50Z</time>
      </trkpt>
      <trkpt lat="50.00268" lon="2.05184">
        <ele>11.6</ele>
        <time>2022-04-12T13:17:52Z</time>
      </trkpt>
      <trkpt lat="50.00269" lon="2.05183">
        <ele>11.6</ele>
        <time>2022-04-12T13:17:53Z</time>
      </trkpt>
      <trkpt lat="50.0027" lon="2.05182">
        <ele>11.6</ele>
        <time>2022-04-12T13:17:54Z</time>
      </trkpt>
      <trkpt lat="50.00271" lon="2.05181">
        <ele>11.6</ele>
        <time>2022-04-12T13:17:55Z</time>
      </trkpt>
      <trkpt lat="50.00272" lon="2.0518">
        <ele>11.6</ele>
        <time>2022-04-12T13:17:56Z</time>
      </trkpt>
      <trkpt lat="50.00273" lon="2.05179">
        <ele>11.6</ele>
        <time>2022-04-12T13:17:57Z</time>
      </trkpt>
      <trkpt lat="50.00274" lon="2.05177">
        <ele>11.6</ele>
        <time>2022-04-12T13:17:58Z</time>
      </trkpt>
      <trkpt lat="50.00275" lon="2.05176">
        <ele>11.6</ele>
        <time>2022-04-12T13:17:59Z</time>
      </trkpt>
      <trkpt lat="50.00276" lon="2.05175">
        <ele>11.6</ele>
        <time>2022-04-12T13:18:01Z</time>
      </trkpt>
      <trkpt lat="50.00278" lon="2.05173">
        <ele>11.6</ele>
        <time>2022-04-12T13:18:02Z</time>
      </trkpt>
      <trkpt lat="50.00279" lon="2.05173">
        <ele>11.6</ele>
        <time>2022-04-12T13:18:03Z</time>
      </trkpt>
      <trkpt lat="50.00279" lon="2.05172">
        <ele>11.6</ele>
        <time>2022-04-12T13:18:04Z</time>
      </trkpt>
      <trkpt lat="50.0028" lon="2.05171">
        <ele>11.6</ele>
        <time>2022-04-12T13:18:05Z</time>
      </trkpt>
      <trkpt lat="50.00281" lon="2.0517">
        <ele>11.6</ele>
        <time>2022-04-12T13:18:06Z</time>
      </trkpt>
      <trkpt lat="50.00282" lon="2.05169">
        <ele>11.6</ele>
        <time>2022-04-12T13:18:07Z</time>
      </trkpt>
      <trkpt lat="50.00283" lon="2.05168">
        <ele>11.6</ele>
        <time>2022-04-12T13:18:08Z</time>
      </trkpt>
      <trkpt lat="50.00284" lon="2.05167">
        <ele>11.5</ele>
        <time>2022-04-12T13:18:09Z</time>
      </trkpt>
      <trkpt lat="50.00286" lon="2.05166">
        <ele>11.5</ele>
        <time>2022-04-12T13:18:11Z</time>
      </trkpt>
      <trkpt lat="50.00288" lon="2.05164">
        <ele>11.5</ele>
        <time>2022-04-12T13:18:12Z</time>
      </trkpt>
      <trkpt lat="50.00289" lon="2.05164">
        <ele>11.5</ele>
        <time>2022-04-12T13:18:13Z</time>
      </trkpt>
      <trkpt lat="50.00289" lon="2.05163">
        <ele>11.5</ele>
        <time>2022-04-12T13:18:14Z</time>
      </trkpt>
      <trkpt lat="50.0029" lon="2.05163">
        <ele>11.5</ele>
        <time>2022-04-12T13:18:15Z</time>
      </trkpt>
      <trkpt lat="50.00291" lon="2.05162">
        <ele>11.5</ele>
        <time>2022-04-12T13:18:16Z</time>
      </trkpt>
      <trkpt lat="50.00292" lon="2.05161">
        <ele>11.5</ele>
        <time>2022-04-12T13:18:18Z</time>
      </trkpt>
      <trkpt lat="50.00293" lon="2.0516">
        <ele>11.5</ele>
        <time>2022-04-12T13:18:19Z</time>
      </trkpt>
      <trkpt lat="50.00294" lon="2.0516">
        <ele>11.5</ele>
        <time>2022-04-12T13:18:20Z</time>
      </trkpt>
      <trkpt lat="50.00295" lon="2.05159">
        <ele>11.5</ele>
        <time>2022-04-12T13:18:21Z</time>
      </trkpt>
      <trkpt lat="50.00296" lon="2.05158">
        <ele>11.5</ele>
        <time>2022-04-12T13:18:22Z</time>
      </trkpt>
      <trkpt lat="50.00297" lon="2.05157">
        <ele>11.5</ele>
        <time>2022-04-12T13:18:23Z</time>
      </trkpt>
      <trkpt lat="50.00298" lon="2.05156">
        <ele>11.5</ele>
        <time>2022-04-12T13:18:24Z</time>
      </trkpt>
      <trkpt lat="50.003" lon="2.05154">
        <ele>11.5</ele>
        <time>2022-04-12T13:18:25Z</time>
      </trkpt>
      <trkpt lat="50.00301" lon="2.05153">
        <ele>11.5</ele>
        <time>2022-04-12T13:18:26Z</time>
      </trkpt>
      <trkpt lat="50.00301" lon="2.05152">
        <ele>11.5</ele>
        <time>2022-04-12T13:18:27Z</time>
      </trkpt>
      <trkpt lat="50.00302" lon="2.05151">
        <ele>11.5</ele>
        <time>2022-04-12T13:18:29Z</time>
      </trkpt>
      <trkpt lat="50.00303" lon="2.05149">
        <ele>11.5</ele>
        <time>2022-04-12T13:18:30Z</time>
      </trkpt>
      <trkpt lat="50.00304" lon="2.05148">
        <ele>11.5</ele>
        <time>2022-04-12T13:18:31Z</time>
      </trkpt>
      <trkpt lat="50.00305" lon="2.05147">
        <ele>11.5</ele>
        <time>2022-04-12T13:18:32Z</time>
      </trkpt>
      <trkpt lat="50.00306" lon="2.05146">
        <ele>11.5</ele>
        <time>2022-04-12T13:18:33Z</time>
      </trkpt>
      <trkpt lat="50.00308" lon="2.05144">
        <ele>11.5</ele>
        <time>2022-04-12T13:18:34Z</time>
      </trkpt>
      <trkpt lat="50.00308" lon="2.05143">
        <ele>11.5</ele>
        <time>2022-04-12T13:18:35Z</time>
      </trkpt>
      <trkpt lat="50.00309" lon="2.05142">
        <ele>11.5</ele>
        <time>2022-04-12T13:18:36Z</time>
      </trkpt>
      <trkpt lat="50.0031" lon="2.0514">
        <ele>11.5</ele>
        <time>2022-04-12T13:18:38Z</time>
      </trkpt>
      <trkpt lat="50.00311" lon="2.05139">
        <ele>11.5</ele>
        <time>2022-04-12T13:18:39Z</time>
      </trkpt>
      <trkpt lat="50.00312" lon="2.05138">
        <ele>11.5</ele>
        <time>2022-04-12T13:18:40Z</time>
      </trkpt>
      <trkpt lat="50.00313" lon="2.05137">
        <ele>11.5</ele>
        <time>2022-04-12T13:18:42Z</time>
      </trkpt>
      <trkpt lat="50.00314" lon="2.05136">
        <ele>11.5</ele>
        <time>2022-04-12T13:18:43Z</time>
      </trkpt>
      <trkpt lat="50.00315" lon="2.05135">
        <ele>11.5</ele>
        <time>2022-04-12T13:18:44Z</time>
      </trkpt>
      <trkpt lat="50.00317" lon="2.05134">
        <ele>11.5</ele>
        <time>2022-04-12T13:18:45Z</time>
      </trkpt>
      <trkpt lat="50.00318" lon="2.05133">
        <ele>11.5</ele>
        <time>2022-04-12T13:18:46Z</time>
      </trkpt>
      <trkpt lat="50.00318" lon="2.05132">
        <ele>11.5</ele>
        <time>2022-04-12T13:18:47Z</time>
      </trkpt>
      <trkpt lat="50.0032" lon="2.05131">
        <ele>11.5</ele>
        <time>2022-04-12T13:18:48Z</time>
      </trkpt>
      <trkpt lat="50.00321" lon="2.0513">
        <ele>11.5</ele>
        <time>2022-04-12T13:18:50Z</time>
      </trkpt>
      <trkpt lat="50.00322" lon="2.0513">
        <ele>11.5</ele>
        <time>2022-04-12T13:18:51Z</time>
      </trkpt>
      <trkpt lat="50.00323" lon="2.05129">
        <ele>11.5</ele>
        <time>2022-04-12T13:18:52Z</time>
      </trkpt>
      <trkpt lat="50.00324" lon="2.05128">
        <ele>11.5</ele>
        <time>2022-04-12T13:18:53Z</time>
      </trkpt>
      <trkpt lat="50.00325" lon="2.05128">
        <ele>11.5</ele>
        <time>2022-04-12T13:18:54Z</time>
      </trkpt>
      <trkpt lat="50.00326" lon="2.05127">
        <ele>11.5</ele>
        <time>2022-04-12T13:18:56Z</time>
      </trkpt>
      <trkpt lat="50.00326" lon="2.05126">
        <ele>11.4</ele>
        <time>2022-04-12T13:18:57Z</time>
      </trkpt>
      <trkpt lat="50.00327" lon="2.05126">
        <ele>11.4</ele>
        <time>2022-04-12T13:18:58Z</time>
      </trkpt>
      <trkpt lat="50.00328" lon="2.05125">
        <ele>11.4</ele>
        <time>2022-04-12T13:18:59Z</time>
      </trkpt>
      <trkpt lat="50.00329" lon="2.05124">
        <ele>11.4</ele>
        <time>2022-04-12T13:19:00Z</time>
      </trkpt>
      <trkpt lat="50.00331" lon="2.05124">
        <ele>11.4</ele>
        <time>2022-04-12T13:19:01Z</time>
      </trkpt>
      <trkpt lat="50.00332" lon="2.05122">
        <ele>11.4</ele>
        <time>2022-04-12T13:19:02Z</time>
      </trkpt>
      <trkpt lat="50.00333" lon="2.05121">
        <ele>11.4</ele>
        <time>2022-04-12T13:19:03Z</time>
      </trkpt>
      <trkpt lat="50.00334" lon="2.05121">
        <ele>11.4</ele>
        <time>2022-04-12T13:19:04Z</time>
      </trkpt>
      <trkpt lat="50.00335" lon="2.0512">
        <ele>11.4</ele>
        <time>2022-04-12T13:19:05Z</time>
      </trkpt>
      <trkpt lat="50.00336" lon="2.05119">
        <ele>11.3</ele>
        <time>2022-04-12T13:19:06Z</time>
      </trkpt>
      <trkpt lat="50.00337" lon="2.05118">
        <ele>11.3</ele>
        <time>2022-04-12T13:19:08Z</time>
      </trkpt>
      <trkpt lat="50.00338" lon="2.05118">
        <ele>11.3</ele>
        <time>2022-04-12T13:19:09Z</time>
      </trkpt>
      <trkpt lat="50.00339" lon="2.05117">
        <ele>11.3</ele>
        <time>2022-04-12T13:19:10Z</time>
      </trkpt>
      <trkpt lat="50.00341" lon="2.05116">
        <ele>11.3</ele>
        <time>2022-04-12T13:19:11Z</time>
      </trkpt>
      <trkpt lat="50.00342" lon="2.05115">
        <ele>11.3</ele>
        <time>2022-04-12T13:19:12Z</time>
      </trkpt>
      <trkpt lat="50.00343" lon="2.05114">
        <ele>11.3</ele>
        <time>2022-04-12T13:19:13Z</time>
      </trkpt>
      <trkpt lat="50.00344" lon="2.05113">
        <ele>11.3</ele>
        <time>2022-04-12T13:19:14Z</time>
      </trkpt>
      <trkpt lat="50.00346" lon="2.05112">
        <ele>11.2</ele>
        <time>2022-04-12T13:19:15Z</time>
      </trkpt>
      <trkpt lat="50.00347" lon="2.05111">
        <ele>11.2</ele>
        <time>2022-04-12T13:19:16Z</time>
      </trkpt>
      <trkpt lat="50.00349" lon="2.0511">
        <ele>11.2</ele>
        <time>2022-04-12T13:19:17Z</time>
      </trkpt>
      <trkpt lat="50.0035" lon="2.05109">
        <ele>11.2</ele>
        <time>2022-04-12T13:19:18Z</time>
      </trkpt>
      <trkpt lat="50.00351" lon="2.05108">
        <ele>11.2</ele>
        <time>2022-04-12T13:19:20Z</time>
      </trkpt>
      <trkpt lat="50.00351" lon="2.05107">
        <ele>11.2</ele>
        <time>2022-04-12T13:19:21Z</time>
      </trkpt>
      <trkpt lat="50.00352" lon="2.05106">
        <ele>11.2</ele>
        <time>2022-04-12T13:19:22Z</time>
      </trkpt>
      <trkpt lat="50.00353" lon="2.05106">
        <ele>11.1</ele>
        <time>2022-04-12T13:19:23Z</time>
      </trkpt>
      <trkpt lat="50.00354" lon="2.05105">
        <ele>11.1</ele>
        <time>2022-04-12T13:19:24Z</time>
      </trkpt>
      <trkpt lat="50.00355" lon="2.05103">
        <ele>11.1</ele>
        <time>2022-04-12T13:19:25Z</time>
      </trkpt>
      <trkpt lat="50.00356" lon="2.05102">
        <ele>11.1</ele>
        <time>2022-04-12T13:19:27Z</time>
      </trkpt>
      <trkpt lat="50.00358" lon="2.051">
        <ele>11.1</ele>
        <time>2022-04-12T13:19:28Z</time>
      </trkpt>
      <trkpt lat="50.00359" lon="2.05099">
        <ele>11.1</ele>
        <time>2022-04-12T13:19:29Z</time>
      </trkpt>
      <trkpt lat="50.00359" lon="2.05098">
        <ele>11.1</ele>
        <time>2022-04-12T13:19:30Z</time>
      </trkpt>
      <trkpt lat="50.0036" lon="2.05097">
        <ele>11.1</ele>
        <time>2022-04-12T13:19:31Z</time>
      </trkpt>
      <trkpt lat="50.00361" lon="2.05096">
        <ele>11</ele>
        <time>2022-04-12T13:19:32Z</time>
      </trkpt>
      <trkpt lat="50.00362" lon="2.05095">
        <ele>11</ele>
        <time>2022-04-12T13:19:33Z</time>
      </trkpt>
      <trkpt lat="50.00363" lon="2.05094">
        <ele>11</ele>
        <time>2022-04-12T13:19:34Z</time>
      </trkpt>
      <trkpt lat="50.00364" lon="2.05093">
        <ele>11</ele>
        <time>2022-04-12T13:19:35Z</time>
      </trkpt>
      <trkpt lat="50.00365" lon="2.05092">
        <ele>11</ele>
        <time>2022-04-12T13:19:37Z</time>
      </trkpt>
      <trkpt lat="50.00366" lon="2.05091">
        <ele>11</ele>
        <time>2022-04-12T13:19:38Z</time>
      </trkpt>
      <trkpt lat="50.00367" lon="2.0509">
        <ele>11</ele>
        <time>2022-04-12T13:19:39Z</time>
      </trkpt>
      <trkpt lat="50.00368" lon="2.05089">
        <ele>11</ele>
        <time>2022-04-12T13:19:40Z</time>
      </trkpt>
      <trkpt lat="50.00369" lon="2.05088">
        <ele>11</ele>
        <time>2022-04-12T13:19:41Z</time>
      </trkpt>
      <trkpt lat="50.0037" lon="2.05087">
        <ele>11</ele>
        <time>2022-04-12T13:19:42Z</time>
      </trkpt>
      <trkpt lat="50.00371" lon="2.05086">
        <ele>10.9</ele>
        <time>2022-04-12T13:19:44Z</time>
      </trkpt>
      <trkpt lat="50.00372" lon="2.05085">
        <ele>10.9</ele>
        <time>2022-04-12T13:19:45Z</time>
      </trkpt>
      <trkpt lat="50.00373" lon="2.05083">
        <ele>10.9</ele>
        <time>2022-04-12T13:19:46Z</time>
      </trkpt>
      <trkpt lat="50.00374" lon="2.05082">
        <ele>10.9</ele>
        <time>2022-04-12T13:19:47Z</time>
      </trkpt>
      <trkpt lat="50.00375" lon="2.05081">
        <ele>10.9</ele>
        <time>2022-04-12T13:19:48Z</time>
      </trkpt>
      <trkpt lat="50.00376" lon="2.0508">
        <ele>10.9</ele>
        <time>2022-04-12T13:19:49Z</time>
      </trkpt>
      <trkpt lat="50.00377" lon="2.05079">
        <ele>10.9</ele>
        <time>2022-04-12T13:19:50Z</time>
      </trkpt>
      <trkpt lat="50.00377" lon="2.05078">
        <ele>10.9</ele>
        <time>2022-04-12T13:19:51Z</time>
      </trkpt>
      <trkpt lat="50.00378" lon="2.05077">
        <ele>10.9</ele>
        <time>2022-04-12T13:19:53Z</time>
      </trkpt>
      <trkpt lat="50.00379" lon="2.05076">
        <ele>10.9</ele>
        <time>2022-04-12T13:19:54Z</time>
      </trkpt>
      <trkpt lat="50.0038" lon="2.05075">
        <ele>10.9</ele>
        <time>2022-04-12T13:19:55Z</time>
      </trkpt>
      <trkpt lat="50.00381" lon="2.05075">
        <ele>10.9</ele>
        <time>2022-04-12T13:19:56Z</time>
      </trkpt>
      <trkpt lat="50.00382" lon="2.05075">
        <ele>10.9</ele>
        <time>2022-04-12T13:19:57Z</time>
      </trkpt>
      <trkpt lat="50.00382" lon="2.05075">
        <ele>10.9</ele>
        <time>2022-04-12T13:19:58Z</time>
      </trkpt>
      <trkpt lat="50.00382" lon="2.05075">
        <ele>10.9</ele>
        <time>2022-04-12T13:19:59Z</time>
      </trkpt>
      <trkpt lat="50.00382" lon="2.05076">
        <ele>10.9</ele>
        <time>2022-04-12T13:20:00Z</time>
      </trkpt>
      <trkpt lat="50.00382" lon="2.05076">
        <ele>10.9</ele>
        <time>2022-04-12T13:20:01Z</time>
      </trkpt>
      <trkpt lat="50.00382" lon="2.05076">
        <ele>10.9</ele>
        <time>2022-04-12T13:20:02Z</time>
      </trkpt>
      <trkpt lat="50.00382" lon="2.05077">
        <ele>10.9</ele>
        <time>2022-04-12T13:20:03Z</time>
      </trkpt>
      <trkpt lat="50.00382" lon="2.05077">
        <ele>10.9</ele>
        <time>2022-04-12T13:20:04Z</time>
      </trkpt>
      <trkpt lat="50.00382" lon="2.05077">
        <ele>10.9</ele>
        <time>2022-04-12T13:20:05Z</time>
      </trkpt>
      <trkpt lat="50.00382" lon="2.05077">
        <ele>10.9</ele>
        <time>2022-04-12T13:20:06Z</time>
      </trkpt>
      <trkpt lat="50.00382" lon="2.05077">
        <ele>10.9</ele>
        <time>2022-04-12T13:20:07Z</time>
      </trkpt>
      <trkpt lat="50.00382" lon="2.05077">
        <ele>10.9</ele>
        <time>2022-04-12T13:20:08Z</time>
      </trkpt>
      <trkpt lat="50.00381" lon="2.05077">
        <ele>10.9</ele>
        <time>2022-04-12T13:20:09Z</time>
      </trkpt>
      <trkpt lat="50.00381" lon="2.05077">
        <ele>10.9</ele>
        <time>2022-04-12T13:20:10Z</time>
      </trkpt>
      <trkpt lat="50.00381" lon="2.05077">
        <ele>10.9</ele>
        <time>2022-04-12T13:20:11Z</time>
      </trkpt>
      <trkpt lat="50.00381" lon="2.05077">
        <ele>10.9</ele>
        <time>2022-04-12T13:20:12Z</time>
      </trkpt>
      <trkpt lat="50.00381" lon="2.05077">
        <ele>10.9</ele>
        <time>2022-04-12T13:20:13Z</time>
      </trkpt>
      <trkpt lat="50.00381" lon="2.05077">
        <ele>10.9</ele>
        <time>2022-04-12T13:20:14Z</time>
      </trkpt>
      <trkpt lat="50.00382" lon="2.05077">
        <ele>10.9</ele>
        <time>2022-04-12T13:20:15Z</time>
      </trkpt>
      <trkpt lat="50.00381" lon="2.05077">
        <ele>10.9</ele>
        <time>2022-04-12T13:20:16Z</time>
      </trkpt>
      <trkpt lat="50.00381" lon="2.05077">
        <ele>10.9</ele>
        <time>2022-04-12T13:20:17Z</time>
      </trkpt>
      <trkpt lat="50.00381" lon="2.05077">
        <ele>10.9</ele>
        <time>2022-04-12T13:20:18Z</time>
      </trkpt>
      <trkpt lat="50.00381" lon="2.05077">
        <ele>10.9</ele>
        <time>2022-04-12T13:20:19Z</time>
      </trkpt>
      <trkpt lat="50.00381" lon="2.05077">
        <ele>10.9</ele>
        <time>2022-04-12T13:20:20Z</time>
      </trkpt>
      <trkpt lat="50.00381" lon="2.05077">
        <ele>10.9</ele>
        <time>2022-04-12T13:20:21Z</time>
      </trkpt>
      <trkpt lat="50.00381" lon="2.05077">
        <ele>10.9</ele>
        <time>2022-04-12T13:20:22Z</time>
      </trkpt>
      <trkpt lat="50.00381" lon="2.05077">
        <ele>10.9</ele>
        <time>2022-04-12T13:20:23Z</time>
      </trkpt>
      <trkpt lat="50.0038" lon="2.05076">
        <ele>10.9</ele>
        <time>2022-04-12T13:20:24Z</time>
      </trkpt>
      <trkpt lat="50.0038" lon="2.05076">
        <ele>10.9</ele>
        <time>2022-04-12T13:20:25Z</time>
      </trkpt>
      <trkpt lat="50.0038" lon="2.05076">
        <ele>10.9</ele>
        <time>2022-04-12T13:20:26Z</time>
      </trkpt>
      <trkpt lat="50.00381" lon="2.05075">
        <ele>10.9</ele>
        <time>2022-04-12T13:20:27Z</time>
      </trkpt>
      <trkpt lat="50.00382" lon="2.05075">
        <ele>10.9</ele>
        <time>2022-04-12T13:20:28Z</time>
      </trkpt>
      <trkpt lat="50.00382" lon="2.05075">
        <ele>10.9</ele>
        <time>2022-04-12T13:20:29Z</time>
      </trkpt>
      <trkpt lat="50.00382" lon="2.05075">
        <ele>10.9</ele>
        <time>2022-04-12T13:20:30Z</time>
      </trkpt>
      <trkpt lat="50.00383" lon="2.05075">
        <ele>10.9</ele>
        <time>2022-04-12T13:20:31Z</time>
      </trkpt>
      <trkpt lat="50.00383" lon="2.05075">
        <ele>10.9</ele>
        <time>2022-04-12T13:20:32Z</time>
      </trkpt>
      <trkpt lat="50.00382" lon="2.05075">
        <ele>10.9</ele>
        <time>2022-04-12T13:20:33Z</time>
      </trkpt>
      <trkpt lat="50.00382" lon="2.05075">
        <ele>10.9</ele>
        <time>2022-04-12T13:20:34Z</time>
      </trkpt>
      <trkpt lat="50.00382" lon="2.05075">
        <ele>10.9</ele>
        <time>2022-04-12T13:20:35Z</time>
      </trkpt>
      <trkpt lat="50.00382" lon="2.05075">
        <ele>10.9</ele>
        <time>2022-04-12T13:20:36Z</time>
      </trkpt>
      <trkpt lat="50.00382" lon="2.05075">
        <ele>10.9</ele>
        <time>2022-04-12T13:20:37Z</time>
      </trkpt>
      <trkpt lat="50.00382" lon="2.05075">
        <ele>10.9</ele>
        <time>2022-04-12T13:20:38Z</time>
      </trkpt>
      <trkpt lat="50.00382" lon="2.05075">
        <ele>10.9</ele>
        <time>2022-04-12T13:20:39Z</time>
      </trkpt>
      <trkpt lat="50.00382" lon="2.05075">
        <ele>10.9</ele>
        <time>2022-04-12T13:20:40Z</time>
      </trkpt>
      <trkpt lat="50.00382" lon="2.05075">
        <ele>10.9</ele>
        <time>2022-04-12T13:20:41Z</time>
      </trkpt>
      <trkpt lat="50.00382" lon="2.05075">
        <ele>10.9</ele>
        <time>2022-04-12T13:20:42Z</time>
      </trkpt>
      <trkpt lat="50.00382" lon="2.05075">
        <ele>10.9</ele>
        <time>2022-04-12T13:20:43Z</time>
      </trkpt>
      <trkpt lat="50.00382" lon="2.05075">
        <ele>10.9</ele>
        <time>2022-04-12T13:20:44Z</time>
      </trkpt>
      <trkpt lat="50.00382" lon="2.05075">
        <ele>10.9</ele>
        <time>2022-04-12T13:20:45Z</time>
      </trkpt>
      <trkpt lat="50.00382" lon="2.05075">
        <ele>10.9</ele>
        <time>2022-04-12T13:20:46Z</time>
      </trkpt>
      <trkpt lat="50.00382" lon="2.05075">
        <ele>10.9</ele>
        <time>2022-04-12T13:20:47Z</time>
      </trkpt>
      <trkpt lat="50.00382" lon="2.05075">
        <ele>10.9</ele>
        <time>2022-04-12T13:20:48Z</time>
      </trkpt>
      <trkpt lat="50.00382" lon="2.05075">
        <ele>10.9</ele>
        <time>2022-04-12T13:20:49Z</time>
      </trkpt>
      <trkpt lat="50.00382" lon="2.05075">
        <ele>10.9</ele>
        <time>2022-04-12T13:20:50Z</time>
      </trkpt>
      <trkpt lat="50.00382" lon="2.05075">
        <ele>10.9</ele>
        <time>2022-04-12T13:20:51Z</time>
      </trkpt>
      <trkpt lat="50.00383" lon="2.05075">
        <ele>10.9</ele>
        <time>2022-04-12T13:20:52Z</time>
      </trkpt>
      <trkpt lat="50.00384" lon="2.05075">
        <ele>10.9</ele>
        <time>2022-04-12T13:20:53Z</time>
      </trkpt>
      <trkpt lat="50.00384" lon="2.05075">
        <ele>10.9</ele>
        <time>2022-04-12T13:20:54Z</time>
      </trkpt>
      <trkpt lat="50.00384" lon="2.05074">
        <ele>10.8</ele>
        <time>2022-04-12T13:20:55Z</time>
      </trkpt>
      <trkpt lat="50.00384" lon="2.05073">
        <ele>10.8</ele>
        <time>2022-04-12T13:20:56Z</time>
      </trkpt>
      <trkpt lat="50.00385" lon="2.05072">
        <ele>10.8</ele>
        <time>2022-04-12T13:20:58Z</time>
      </trkpt>
      <trkpt lat="50.00385" lon="2.05071">
        <ele>10.8</ele>
        <time>2022-04-12T13:20:59Z</time>
      </trkpt>
      <trkpt lat="50.00386" lon="2.05069">
        <ele>10.8</ele>
        <time>2022-04-12T13:21:00Z</time>
      </trkpt>
      <trkpt lat="50.00387" lon="2.05068">
        <ele>10.8</ele>
        <time>2022-04-12T13:21:01Z</time>
      </trkpt>
      <trkpt lat="50.00388" lon="2.05067">
        <ele>10.8</ele>
        <time>2022-04-12T13:21:02Z</time>
      </trkpt>
      <trkpt lat="50.00389" lon="2.05066">
        <ele>10.8</ele>
        <time>2022-04-12T13:21:04Z</time>
      </trkpt>
      <trkpt lat="50.0039" lon="2.05065">
        <ele>10.8</ele>
        <time>2022-04-12T13:21:05Z</time>
      </trkpt>
      <trkpt lat="50.00391" lon="2.05064">
        <ele>10.8</ele>
        <time>2022-04-12T13:21:06Z</time>
      </trkpt>
      <trkpt lat="50.00392" lon="2.05063">
        <ele>10.8</ele>
        <time>2022-04-12T13:21:07Z</time>
      </trkpt>
      <trkpt lat="50.00393" lon="2.05062">
        <ele>10.8</ele>
        <time>2022-04-12T13:21:08Z</time>
      </trkpt>
      <trkpt lat="50.00394" lon="2.05062">
        <ele>10.8</ele>
        <time>2022-04-12T13:21:09Z</time>
      </trkpt>
      <trkpt lat="50.00395" lon="2.05061">
        <ele>10.8</ele>
        <time>2022-04-12T13:21:10Z</time>
      </trkpt>
      <trkpt lat="50.00397" lon="2.0506">
        <ele>10.8</ele>
        <time>2022-04-12T13:21:12Z</time>
      </trkpt>
      <trkpt lat="50.00397" lon="2.0506">
        <ele>10.8</ele>
        <time>2022-04-12T13:21:13Z</time>
      </trkpt>
      <trkpt lat="50.00398" lon="2.05061">
        <ele>10.8</ele>
        <time>2022-04-12T13:21:14Z</time>
      </trkpt>
      <trkpt lat="50.00398" lon="2.05061">
        <ele>10.8</ele>
        <time>2022-04-12T13:21:15Z</time>
      </trkpt>
      <trkpt lat="50.00398" lon="2.05061">
        <ele>10.8</ele>
        <time>2022-04-12T13:21:16Z</time>
      </trkpt>
      <trkpt lat="50.00398" lon="2.05061">
        <ele>10.8</ele>
        <time>2022-04-12T13:21:17Z</time>
      </trkpt>
      <trkpt lat="50.00398" lon="2.05061">
        <ele>10.8</ele>
        <time>2022-04-12T13:21:18Z</time>
      </trkpt>
      <trkpt lat="50.00398" lon="2.05061">
        <ele>10.8</ele>
        <time>2022-04-12T13:21:19Z</time>
      </trkpt>
      <trkpt lat="50.00398" lon="2.05061">
        <ele>10.8</ele>
        <time>2022-04-12T13:21:20Z</time>
      </trkpt>
      <trkpt lat="50.00398" lon="2.05061">
        <ele>10.8</ele>
        <time>2022-04-12T13:21:21Z</time>
      </trkpt>
      <trkpt lat="50.00398" lon="2.05061">
        <ele>10.8</ele>
        <time>2022-04-12T13:21:22Z</time>
      </trkpt>
      <trkpt lat="50.00398" lon="2.05061">
        <ele>10.8</ele>
        <time>2022-04-12T13:21:23Z</time>
      </trkpt>
      <trkpt lat="50.00398" lon="2.05061">
        <ele>10.8</ele>
        <time>2022-04-12T13:21:24Z</time>
      </trkpt>
      <trkpt lat="50.00398" lon="2.05061">
        <ele>10.8</ele>
        <time>2022-04-12T13:21:25Z</time>
      </trkpt>
      <trkpt lat="50.00398" lon="2.05061">
        <ele>10.8</ele>
        <time>2022-04-12T13:21:26Z</time>
      </trkpt>
      <trkpt lat="50.00398" lon="2.05061">
        <ele>10.8</ele>
        <time>2022-04-12T13:21:27Z</time>
      </trkpt>
      <trkpt lat="50.00398" lon="2.05061">
        <ele>10.8</ele>
        <time>2022-04-12T13:21:28Z</time>
      </trkpt>
      <trkpt lat="50.00399" lon="2.05061">
        <ele>10.8</ele>
        <time>2022-04-12T13:21:29Z</time>
      </trkpt>
      <trkpt lat="50.00399" lon="2.0506">
        <ele>10.8</ele>
        <time>2022-04-12T13:21:30Z</time>
      </trkpt>
      <trkpt lat="50.00398" lon="2.0506">
        <ele>10.8</ele>
        <time>2022-04-12T13:21:31Z</time>
      </trkpt>
      <trkpt lat="50.00398" lon="2.0506">
        <ele>10.8</ele>
        <time>2022-04-12T13:21:32Z</time>
      </trkpt>
      <trkpt lat="50.00398" lon="2.0506">
        <ele>10.8</ele>
        <time>2022-04-12T13:21:33Z</time>
      </trkpt>
      <trkpt lat="50.00398" lon="2.0506">
        <ele>10.8</ele>
        <time>2022-04-12T13:21:34Z</time>
      </trkpt>
      <trkpt lat="50.00398" lon="2.0506">
        <ele>10.8</ele>
        <time>2022-04-12T13:21:35Z</time>
      </trkpt>
      <trkpt lat="50.00398" lon="2.0506">
        <ele>10.8</ele>
        <time>2022-04-12T13:21:36Z</time>
      </trkpt>
      <trkpt lat="50.00398" lon="2.0506">
        <ele>10.8</ele>
        <time>2022-04-12T13:21:37Z</time>
      </trkpt>
      <trkpt lat="50.00398" lon="2.0506">
        <ele>10.8</ele>
        <time>2022-04-12T13:21:38Z</time>
      </trkpt>
      <trkpt lat="50.00398" lon="2.0506">
        <ele>10.8</ele>
        <time>2022-04-12T13:21:39Z</time>
      </trkpt>
      <trkpt lat="50.00398" lon="2.0506">
        <ele>10.8</ele>
        <time>2022-04-12T13:21:40Z</time>
      </trkpt>
      <trkpt lat="50.00397" lon="2.05059">
        <ele>10.8</ele>
        <time>2022-04-12T13:21:41Z</time>
      </trkpt>
      <trkpt lat="50.00399" lon="2.0506">
        <ele>10.8</ele>
        <time>2022-04-12T13:21:42Z</time>
      </trkpt>
      <trkpt lat="50.004" lon="2.0506">
        <ele>10.8</ele>
        <time>2022-04-12T13:21:43Z</time>
      </trkpt>
      <trkpt lat="50.004" lon="2.05059">
        <ele>10.8</ele>
        <time>2022-04-12T13:21:45Z</time>
      </trkpt>
      <trkpt lat="50.00401" lon="2.05059">
        <ele>10.8</ele>
        <time>2022-04-12T13:21:46Z</time>
      </trkpt>
      <trkpt lat="50.00402" lon="2.05058">
        <ele>10.8</ele>
        <time>2022-04-12T13:21:47Z</time>
      </trkpt>
      <trkpt lat="50.00403" lon="2.05058">
        <ele>10.8</ele>
        <time>2022-04-12T13:21:49Z</time>
      </trkpt>
      <trkpt lat="50.00404" lon="2.05057">
        <ele>10.8</ele>
        <time>2022-04-12T13:21:50Z</time>
      </trkpt>
      <trkpt lat="50.00404" lon="2.05057">
        <ele>10.8</ele>
        <time>2022-04-12T13:21:51Z</time>
      </trkpt>
      <trkpt lat="50.00405" lon="2.05056">
        <ele>10.8</ele>
        <time>2022-04-12T13:21:52Z</time>
      </trkpt>
      <trkpt lat="50.00406" lon="2.05056">
        <ele>10.8</ele>
        <time>2022-04-12T13:21:54Z</time>
      </trkpt>
      <trkpt lat="50.00407" lon="2.05056">
        <ele>10.8</ele>
        <time>2022-04-12T13:21:55Z</time>
      </trkpt>
      <trkpt lat="50.00407" lon="2.05056">
        <ele>10.8</ele>
        <time>2022-04-12T13:21:56Z</time>
      </trkpt>
      <trkpt lat="50.00407" lon="2.05057">
        <ele>10.8</ele>
        <time>2022-04-12T13:21:57Z</time>
      </trkpt>
      <trkpt lat="50.00407" lon="2.05057">
        <ele>10.8</ele>
        <time>2022-04-12T13:21:58Z</time>
      </trkpt>
      <trkpt lat="50.00407" lon="2.05057">
        <ele>10.8</ele>
        <time>2022-04-12T13:21:59Z</time>
      </trkpt>
      <trkpt lat="50.00407" lon="2.05057">
        <ele>10.8</ele>
        <time>2022-04-12T13:22:00Z</time>
      </trkpt>
      <trkpt lat="50.00407" lon="2.05057">
        <ele>10.8</ele>
        <time>2022-04-12T13:22:01Z</time>
      </trkpt>
      <trkpt lat="50.00408" lon="2.05056">
        <ele>10.8</ele>
        <time>2022-04-12T13:22:02Z</time>
      </trkpt>
      <trkpt lat="50.00408" lon="2.05056">
        <ele>10.8</ele>
        <time>2022-04-12T13:22:03Z</time>
      </trkpt>
      <trkpt lat="50.00408" lon="2.05056">
        <ele>10.8</ele>
        <time>2022-04-12T13:22:05Z</time>
      </trkpt>
      <trkpt lat="50.00409" lon="2.05056">
        <ele>10.8</ele>
        <time>2022-04-12T13:22:06Z</time>
      </trkpt>
      <trkpt lat="50.00409" lon="2.05056">
        <ele>10.8</ele>
        <time>2022-04-12T13:22:07Z</time>
      </trkpt>
      <trkpt lat="50.00409" lon="2.05056">
        <ele>10.8</ele>
        <time>2022-04-12T13:22:08Z</time>
      </trkpt>
      <trkpt lat="50.00409" lon="2.05056">
        <ele>10.8</ele>
        <time>2022-04-12T13:22:09Z</time>
      </trkpt>
      <trkpt lat="50.00409" lon="2.05056">
        <ele>10.8</ele>
        <time>2022-04-12T13:22:10Z</time>
      </trkpt>
      <trkpt lat="50.00409" lon="2.05056">
        <ele>10.8</ele>
        <time>2022-04-12T13:22:12Z</time>
      </trkpt>
      <trkpt lat="50.0041" lon="2.05055">
        <ele>10.8</ele>
        <time>2022-04-12T13:22:13Z</time>
      </trkpt>
      <trkpt lat="50.0041" lon="2.05056">
        <ele>10.8</ele>
        <time>2022-04-12T13:22:14Z</time>
      </trkpt>
      <trkpt lat="50.0041" lon="2.05056">
        <ele>10.8</ele>
        <time>2022-04-12T13:22:15Z</time>
      </trkpt>
      <trkpt lat="50.0041" lon="2.05056">
        <ele>10.8</ele>
        <time>2022-04-12T13:22:16Z</time>
      </trkpt>
      <trkpt lat="50.0041" lon="2.05056">
        <ele>10.8</ele>
        <time>2022-04-12T13:22:17Z</time>
      </trkpt>
      <trkpt lat="50.0041" lon="2.05056">
        <ele>10.8</ele>
        <time>2022-04-12T13:22:18Z</time>
      </trkpt>
      <trkpt lat="50.0041" lon="2.05056">
        <ele>10.8</ele>
        <time>2022-04-12T13:22:19Z</time>
      </trkpt>
      <trkpt lat="50.0041" lon="2.05056">
        <ele>10.8</ele>
        <time>2022-04-12T13:22:20Z</time>
      </trkpt>
      <trkpt lat="50.00409" lon="2.05056">
        <ele>10.8</ele>
        <time>2022-04-12T13:22:21Z</time>
      </trkpt>
      <trkpt lat="50.00409" lon="2.05056">
        <ele>10.8</ele>
        <time>2022-04-12T13:22:22Z</time>
      </trkpt>
      <trkpt lat="50.00409" lon="2.05056">
        <ele>10.8</ele>
        <time>2022-04-12T13:22:23Z</time>
      </trkpt>
      <trkpt lat="50.00409" lon="2.05057">
        <ele>10.8</ele>
        <time>2022-04-12T13:22:24Z</time>
      </trkpt>
      <trkpt lat="50.00409" lon="2.05057">
        <ele>10.8</ele>
        <time>2022-04-12T13:22:25Z</time>
      </trkpt>
      <trkpt lat="50.00409" lon="2.05057">
        <ele>10.8</ele>
        <time>2022-04-12T13:22:26Z</time>
      </trkpt>
      <trkpt lat="50.00409" lon="2.05056">
        <ele>10.8</ele>
        <time>2022-04-12T13:22:27Z</time>
      </trkpt>
      <trkpt lat="50.00409" lon="2.05056">
        <ele>10.8</ele>
        <time>2022-04-12T13:22:29Z</time>
      </trkpt>
      <trkpt lat="50.00408" lon="2.05055">
        <ele>10.8</ele>
        <time>2022-04-12T13:22:30Z</time>
      </trkpt>
      <trkpt lat="50.00408" lon="2.05054">
        <ele>10.8</ele>
        <time>2022-04-12T13:22:31Z</time>
      </trkpt>
      <trkpt lat="50.00408" lon="2.05053">
        <ele>10.8</ele>
        <time>2022-04-12T13:22:32Z</time>
      </trkpt>
      <trkpt lat="50.00407" lon="2.05052">
        <ele>10.8</ele>
        <time>2022-04-12T13:22:33Z</time>
      </trkpt>
      <trkpt lat="50.00407" lon="2.0505">
        <ele>10.8</ele>
        <time>2022-04-12T13:22:34Z</time>
      </trkpt>
      <trkpt lat="50.00406" lon="2.05049">
        <ele>10.8</ele>
        <time>2022-04-12T13:22:35Z</time>
      </trkpt>
      <trkpt lat="50.00406" lon="2.05048">
        <ele>10.8</ele>
        <time>2022-04-12T13:22:36Z</time>
      </trkpt>
      <trkpt lat="50.00406" lon="2.05047">
        <ele>10.8</ele>
        <time>2022-04-12T13:22:37Z</time>
      </trkpt>
      <trkpt lat="50.00406" lon="2.05047">
        <ele>10.8</ele>
        <time>2022-04-12T13:22:38Z</time>
      </trkpt>
      <trkpt lat="50.00406" lon="2.05047">
        <ele>10.8</ele>
        <time>2022-04-12T13:22:39Z</time>
      </trkpt>
      <trkpt lat="50.00406" lon="2.05047">
        <ele>10.8</ele>
        <time>2022-04-12T13:22:40Z</time>
      </trkpt>
      <trkpt lat="50.00406" lon="2.05047">
        <ele>10.8</ele>
        <time>2022-04-12T13:22:41Z</time>
      </trkpt>
      <trkpt lat="50.00406" lon="2.05046">
        <ele>10.8</ele>
        <time>2022-04-12T13:22:42Z</time>
      </trkpt>
      <trkpt lat="50.00406" lon="2.05046">
        <ele>10.8</ele>
        <time>2022-04-12T13:22:43Z</time>
      </trkpt>
      <trkpt lat="50.00406" lon="2.05046">
        <ele>10.8</ele>
        <time>2022-04-12T13:22:44Z</time>
      </trkpt>
      <trkpt lat="50.00406" lon="2.05046">
        <ele>10.8</ele>
        <time>2022-04-12T13:22:45Z</time>
      </trkpt>
      <trkpt lat="50.00406" lon="2.05045">
        <ele>10.8</ele>
        <time>2022-04-12T13:22:46Z</time>
      </trkpt>
      <trkpt lat="50.00406" lon="2.05045">
        <ele>10.8</ele>
        <time>2022-04-12T13:22:47Z</time>
      </trkpt>
      <trkpt lat="50.00406" lon="2.05045">
        <ele>10.8</ele>
        <time>2022-04-12T13:22:48Z</time>
      </trkpt>
      <trkpt lat="50.00406" lon="2.05045">
        <ele>10.8</ele>
        <time>2022-04-12T13:22:49Z</time>
      </trkpt>
      <trkpt lat="50.00406" lon="2.05045">
        <ele>10.8</ele>
        <time>2022-04-12T13:22:50Z</time>
      </trkpt>
      <trkpt lat="50.00406" lon="2.05045">
        <ele>10.8</ele>
        <time>2022-04-12T13:22:51Z</time>
      </trkpt>
      <trkpt lat="50.00406" lon="2.05045">
        <ele>10.8</ele>
        <time>2022-04-12T13:22:52Z</time>
      </trkpt>
      <trkpt lat="50.00406" lon="2.05045">
        <ele>10.8</ele>
        <time>2022-04-12T13:22:53Z</time>
      </trkpt>
      <trkpt lat="50.00406" lon="2.05045">
        <ele>10.8</ele>
        <time>2022-04-12T13:22:54Z</time>
      </trkpt>
      <trkpt lat="50.00406" lon="2.05045">
        <ele>10.8</ele>
        <time>2022-04-12T13:22:55Z</time>
      </trkpt>
      <trkpt lat="50.00406" lon="2.05045">
        <ele>10.8</ele>
        <time>2022-04-12T13:22:56Z</time>
      </trkpt>
      <trkpt lat="50.00406" lon="2.05045">
        <ele>10.8</ele>
        <time>2022-04-12T13:22:57Z</time>
      </trkpt>
      <trkpt lat="50.00406" lon="2.05045">
        <ele>10.8</ele>
        <time>2022-04-12T13:22:58Z</time>
      </trkpt>
      <trkpt lat="50.00406" lon="2.05045">
        <ele>10.8</ele>
        <time>2022-04-12T13:22:59Z</time>
      </trkpt>
      <trkpt lat="50.00406" lon="2.05045">
        <ele>10.8</ele>
        <time>2022-04-12T13:23:00Z</time>
      </trkpt>
      <trkpt lat="50.00406" lon="2.05045">
        <ele>10.8</ele>
        <time>2022-04-12T13:23:01Z</time>
      </trkpt>
      <trkpt lat="50.00406" lon="2.05045">
        <ele>10.8</ele>
        <time>2022-04-12T13:23:02Z</time>
      </trkpt>
      <trkpt lat="50.00406" lon="2.05045">
        <ele>10.8</ele>
        <time>2022-04-12T13:23:03Z</time>
      </trkpt>
      <trkpt lat="50.00406" lon="2.05045">
        <ele>10.8</ele>
        <time>2022-04-12T13:23:04Z</time>
      </trkpt>
      <trkpt lat="50.00406" lon="2.05045">
        <ele>10.8</ele>
        <time>2022-04-12T13:23:05Z</time>
      </trkpt>
      <trkpt lat="50.00406" lon="2.05045">
        <ele>10.8</ele>
        <time>2022-04-12T13:23:06Z</time>
      </trkpt>
      <trkpt lat="50.00406" lon="2.05045">
        <ele>10.8</ele>
        <time>2022-04-12T13:23:07Z</time>
      </trkpt>
      <trkpt lat="50.00406" lon="2.05045">
        <ele>10.8</ele>
        <time>2022-04-12T13:23:08Z</time>
      </trkpt>
      <trkpt lat="50.00406" lon="2.05045">
        <ele>10.8</ele>
        <time>2022-04-12T13:23:09Z</time>
      </trkpt>
      <trkpt lat="50.00406" lon="2.05045">
        <ele>10.8</ele>
        <time>2022-04-12T13:23:10Z</time>
      </trkpt>
      <trkpt lat="50.00406" lon="2.05045">
        <ele>10.8</ele>
        <time>2022-04-12T13:23:11Z</time>
      </trkpt>
      <trkpt lat="50.00406" lon="2.05045">
        <ele>10.8</ele>
        <time>2022-04-12T13:23:12Z</time>
      </trkpt>
      <trkpt lat="50.00406" lon="2.05045">
        <ele>10.8</ele>
        <time>2022-04-12T13:23:13Z</time>
      </trkpt>
      <trkpt lat="50.00406" lon="2.05045">
        <ele>10.8</ele>
        <time>2022-04-12T13:23:14Z</time>
      </trkpt>
      <trkpt lat="50.00406" lon="2.05045">
        <ele>10.8</ele>
        <time>2022-04-12T13:23:15Z</time>
      </trkpt>
      <trkpt lat="50.00406" lon="2.05045">
        <ele>10.8</ele>
        <time>2022-04-12T13:23:16Z</time>
      </trkpt>
      <trkpt lat="50.00406" lon="2.05045">
        <ele>10.8</ele>
        <time>2022-04-12T13:23:17Z</time>
      </trkpt>
      <trkpt lat="50.00406" lon="2.05045">
        <ele>10.8</ele>
        <time>2022-04-12T13:23:18Z</time>
      </trkpt>
      <trkpt lat="50.00406" lon="2.05045">
        <ele>10.8</ele>
        <time>2022-04-12T13:23:19Z</time>
      </trkpt>
      <trkpt lat="50.00406" lon="2.05045">
        <ele>10.8</ele>
        <time>2022-04-12T13:23:20Z</time>
      </trkpt>
      <trkpt lat="50.00406" lon="2.05045">
        <ele>10.8</ele>
        <time>2022-04-12T13:23:21Z</time>
      </trkpt>
      <trkpt lat="50.00406" lon="2.05045">
        <ele>10.8</ele>
        <time>2022-04-12T13:23:22Z</time>
      </trkpt>
      <trkpt lat="50.00406" lon="2.05045">
        <ele>10.8</ele>
        <time>2022-04-12T13:23:23Z</time>
      </trkpt>
      <trkpt lat="50.00406" lon="2.05045">
        <ele>10.8</ele>
        <time>2022-04-12T13:23:24Z</time>
      </trkpt>
      <trkpt lat="50.00406" lon="2.05045">
        <ele>10.8</ele>
        <time>2022-04-12T13:23:25Z</time>
      </trkpt>
      <trkpt lat="50.00406" lon="2.05045">
        <ele>10.8</ele>
        <time>2022-04-12T13:23:26Z</time>
      </trkpt>
      <trkpt lat="50.00406" lon="2.05045">
        <ele>10.8</ele>
        <time>2022-04-12T13:23:27Z</time>
      </trkpt>
      <trkpt lat="50.00406" lon="2.05045">
        <ele>10.8</ele>
        <time>2022-04-12T13:23:28Z</time>
      </trkpt>
      <trkpt lat="50.00406" lon="2.05045">
        <ele>10.8</ele>
        <time>2022-04-12T13:23:29Z</time>
      </trkpt>
      <trkpt lat="50.00406" lon="2.05045">
        <ele>10.8</ele>
        <time>2022-04-12T13:23:30Z</time>
      </trkpt>
      <trkpt lat="50.00406" lon="2.05045">
        <ele>10.8</ele>
        <time>2022-04-12T13:23:31Z</time>
      </trkpt>
      <trkpt lat="50.00406" lon="2.05045">
        <ele>10.8</ele>
        <time>2022-04-12T13:23:32Z</time>
      </trkpt>
      <trkpt lat="50.00406" lon="2.05045">
        <ele>10.8</ele>
        <time>2022-04-12T13:23:33Z</time>
      </trkpt>
      <trkpt lat="50.00406" lon="2.05045">
        <ele>10.8</ele>
        <time>2022-04-12T13:23:34Z</time>
      </trkpt>
      <trkpt lat="50.00406" lon="2.05045">
        <ele>10.8</ele>
        <time>2022-04-12T13:23:35Z</time>
      </trkpt>
      <trkpt lat="50.00406" lon="2.05045">
        <ele>10.8</ele>
        <time>2022-04-12T13:23:36Z</time>
      </trkpt>
      <trkpt lat="50.00406" lon="2.05045">
        <ele>10.8</ele>
        <time>2022-04-12T13:23:37Z</time>
      </trkpt>
      <trkpt lat="50.00406" lon="2.05045">
        <ele>10.8</ele>
        <time>2022-04-12T13:23:38Z</time>
      </trkpt>
      <trkpt lat="50.00406" lon="2.05045">
        <ele>10.8</ele>
        <time>2022-04-12T13:23:39Z</time>
      </trkpt>
      <trkpt lat="50.00406" lon="2.05045">
        <ele>10.8</ele>
        <time>2022-04-12T13:23:40Z</time>
      </trkpt>
      <trkpt lat="50.00406" lon="2.05045">
        <ele>10.8</ele>
        <time>2022-04-12T13:23:41Z</time>
      </trkpt>
      <trkpt lat="50.00406" lon="2.05045">
        <ele>10.8</ele>
        <time>2022-04-12T13:23:42Z</time>
      </trkpt>
      <trkpt lat="50.00406" lon="2.05045">
        <ele>10.8</ele>
        <time>2022-04-12T13:23:43Z</time>
      </trkpt>
      <trkpt lat="50.00406" lon="2.05045">
        <ele>10.8</ele>
        <time>2022-04-12T13:23:44Z</time>
      </trkpt>
      <trkpt lat="50.00406" lon="2.05045">
        <ele>10.8</ele>
        <time>2022-04-12T13:23:45Z</time>
      </trkpt>
      <trkpt lat="50.00406" lon="2.05045">
        <ele>10.8</ele>
        <time>2022-04-12T13:23:46Z</time>
      </trkpt>
      <trkpt lat="50.00406" lon="2.05045">
        <ele>10.8</ele>
        <time>2022-04-12T13:23:47Z</time>
      </trkpt>
      <trkpt lat="50.00406" lon="2.05045">
        <ele>10.8</ele>
        <time>2022-04-12T13:23:48Z</time>
      </trkpt>
      <trkpt lat="50.00406" lon="2.05045">
        <ele>10.8</ele>
        <time>2022-04-12T13:23:49Z</time>
      </trkpt>
      <trkpt lat="50.00406" lon="2.05045">
        <ele>10.8</ele>
        <time>2022-04-12T13:23:50Z</time>
      </trkpt>
      <trkpt lat="50.00406" lon="2.05045">
        <ele>10.8</ele>
        <time>2022-04-12T13:23:51Z</time>
      </trkpt>
      <trkpt lat="50.00406" lon="2.05045">
        <ele>10.8</ele>
        <time>2022-04-12T13:23:52Z</time>
      </trkpt>
      <trkpt lat="50.00406" lon="2.05045">
        <ele>10.8</ele>
        <time>2022-04-12T13:23:53Z</time>
      </trkpt>
      <trkpt lat="50.00406" lon="2.05045">
        <ele>10.8</ele>
        <time>2022-04-12T13:23:54Z</time>
      </trkpt>
      <trkpt lat="50.00406" lon="2.05045">
        <ele>10.8</ele>
        <time>2022-04-12T13:23:55Z</time>
      </trkpt>
      <trkpt lat="50.00406" lon="2.05045">
        <ele>10.8</ele>
        <time>2022-04-12T13:23:56Z</time>
      </trkpt>
      <trkpt lat="50.00408" lon="2.05045">
        <ele>10.8</ele>
        <time>2022-04-12T13:23:57Z</time>
      </trkpt>
      <trkpt lat="50.00409" lon="2.05045">
        <ele>10.8</ele>
        <time>2022-04-12T13:23:58Z</time>
      </trkpt>
      <trkpt lat="50.0041" lon="2.05045">
        <ele>10.8</ele>
        <time>2022-04-12T13:23:59Z</time>
      </trkpt>
      <trkpt lat="50.00411" lon="2.05045">
        <ele>10.8</ele>
        <time>2022-04-12T13:24:00Z</time>
      </trkpt>
      <trkpt lat="50.00412" lon="2.05044">
        <ele>10.8</ele>
        <time>2022-04-12T13:24:01Z</time>
      </trkpt>
      <trkpt lat="50.00413" lon="2.05044">
        <ele>10.8</ele>
        <time>2022-04-12T13:24:02Z</time>
      </trkpt>
      <trkpt lat="50.00413" lon="2.05044">
        <ele>10.8</ele>
        <time>2022-04-12T13:24:03Z</time>
      </trkpt>
      <trkpt lat="50.00414" lon="2.05044">
        <ele>10.8</ele>
        <time>2022-04-12T13:24:04Z</time>
      </trkpt>
      <trkpt lat="50.00415" lon="2.05043">
        <ele>10.8</ele>
        <time>2022-04-12T13:24:05Z</time>
      </trkpt>
      <trkpt lat="50.00417" lon="2.05043">
        <ele>10.8</ele>
        <time>2022-04-12T13:24:07Z</time>
      </trkpt>
      <trkpt lat="50.00418" lon="2.05043">
        <ele>10.8</ele>
        <time>2022-04-12T13:24:08Z</time>
      </trkpt>
      <trkpt lat="50.0042" lon="2.05043">
        <ele>10.8</ele>
        <time>2022-04-12T13:24:09Z</time>
      </trkpt>
      <trkpt lat="50.00421" lon="2.05043">
        <ele>10.8</ele>
        <time>2022-04-12T13:24:10Z</time>
      </trkpt>
      <trkpt lat="50.00423" lon="2.05042">
        <ele>10.8</ele>
        <time>2022-04-12T13:24:11Z</time>
      </trkpt>
      <trkpt lat="50.00424" lon="2.05041">
        <ele>10.8</ele>
        <time>2022-04-12T13:24:12Z</time>
      </trkpt>
      <trkpt lat="50.00425" lon="2.0504">
        <ele>10.8</ele>
        <time>2022-04-12T13:24:13Z</time>
      </trkpt>
      <trkpt lat="50.00426" lon="2.05039">
        <ele>10.8</ele>
        <time>2022-04-12T13:24:15Z</time>
      </trkpt>
      <trkpt lat="50.00427" lon="2.05038">
        <ele>10.8</ele>
        <time>2022-04-12T13:24:16Z</time>
      </trkpt>
      <trkpt lat="50.00428" lon="2.05036">
        <ele>10.8</ele>
        <time>2022-04-12T13:24:17Z</time>
      </trkpt>
      <trkpt lat="50.00429" lon="2.05034">
        <ele>10.8</ele>
        <time>2022-04-12T13:24:18Z</time>
      </trkpt>
      <trkpt lat="50.00431" lon="2.05031">
        <ele>10.8</ele>
        <time>2022-04-12T13:24:19Z</time>
      </trkpt>
      <trkpt lat="50.00431" lon="2.0503">
        <ele>10.8</ele>
        <time>2022-04-12T13:24:21Z</time>
      </trkpt>
      <trkpt lat="50.00432" lon="2.05029">
        <ele>10.8</ele>
        <time>2022-04-12T13:24:22Z</time>
      </trkpt>
      <trkpt lat="50.00433" lon="2.05028">
        <ele>10.8</ele>
        <time>2022-04-12T13:24:23Z</time>
      </trkpt>
      <trkpt lat="50.00434" lon="2.05027">
        <ele>10.8</ele>
        <time>2022-04-12T13:24:24Z</time>
      </trkpt>
      <trkpt lat="50.00435" lon="2.05026">
        <ele>10.8</ele>
        <time>2022-04-12T13:24:25Z</time>
      </trkpt>
      <trkpt lat="50.00436" lon="2.05025">
        <ele>10.8</ele>
        <time>2022-04-12T13:24:26Z</time>
      </trkpt>
      <trkpt lat="50.00437" lon="2.05023">
        <ele>10.8</ele>
        <time>2022-04-12T13:24:28Z</time>
      </trkpt>
      <trkpt lat="50.00438" lon="2.05023">
        <ele>10.8</ele>
        <time>2022-04-12T13:24:29Z</time>
      </trkpt>
      <trkpt lat="50.0044" lon="2.05022">
        <ele>10.8</ele>
        <time>2022-04-12T13:24:30Z</time>
      </trkpt>
      <trkpt lat="50.00441" lon="2.05021">
        <ele>10.8</ele>
        <time>2022-04-12T13:24:31Z</time>
      </trkpt>
      <trkpt lat="50.00442" lon="2.0502">
        <ele>10.8</ele>
        <time>2022-04-12T13:24:32Z</time>
      </trkpt>
      <trkpt lat="50.00443" lon="2.0502">
        <ele>10.8</ele>
        <time>2022-04-12T13:24:34Z</time>
      </trkpt>
      <trkpt lat="50.00444" lon="2.05019">
        <ele>10.8</ele>
        <time>2022-04-12T13:24:35Z</time>
      </trkpt>
      <trkpt lat="50.00445" lon="2.05019">
        <ele>10.8</ele>
        <time>2022-04-12T13:24:36Z</time>
      </trkpt>
      <trkpt lat="50.00446" lon="2.05018">
        <ele>10.8</ele>
        <time>2022-04-12T13:24:37Z</time>
      </trkpt>
      <trkpt lat="50.00448" lon="2.05017">
        <ele>10.8</ele>
        <time>2022-04-12T13:24:38Z</time>
      </trkpt>
      <trkpt lat="50.00449" lon="2.05017">
        <ele>10.8</ele>
        <time>2022-04-12T13:24:39Z</time>
      </trkpt>
      <trkpt lat="50.0045" lon="2.05017">
        <ele>10.8</ele>
        <time>2022-04-12T13:24:40Z</time>
      </trkpt>
      <trkpt lat="50.00451" lon="2.05016">
        <ele>10.8</ele>
        <time>2022-04-12T13:24:41Z</time>
      </trkpt>
      <trkpt lat="50.00452" lon="2.05015">
        <ele>10.8</ele>
        <time>2022-04-12T13:24:42Z</time>
      </trkpt>
      <trkpt lat="50.00454" lon="2.05014">
        <ele>10.8</ele>
        <time>2022-04-12T13:24:44Z</time>
      </trkpt>
      <trkpt lat="50.00455" lon="2.05014">
        <ele>10.8</ele>
        <time>2022-04-12T13:24:45Z</time>
      </trkpt>
      <trkpt lat="50.00456" lon="2.05013">
        <ele>10.8</ele>
        <time>2022-04-12T13:24:46Z</time>
      </trkpt>
      <trkpt lat="50.00457" lon="2.05012">
        <ele>10.8</ele>
        <time>2022-04-12T13:24:47Z</time>
      </trkpt>
      <trkpt lat="50.00458" lon="2.05012">
        <ele>10.8</ele>
        <time>2022-04-12T13:24:48Z</time>
      </trkpt>
      <trkpt lat="50.00459" lon="2.05011">
        <ele>10.8</ele>
        <time>2022-04-12T13:24:49Z</time>
      </trkpt>
      <trkpt lat="50.0046" lon="2.0501">
        <ele>10.9</ele>
        <time>2022-04-12T13:24:50Z</time>
      </trkpt>
      <trkpt lat="50.00461" lon="2.05009">
        <ele>10.9</ele>
        <time>2022-04-12T13:24:51Z</time>
      </trkpt>
      <trkpt lat="50.00463" lon="2.05008">
        <ele>10.9</ele>
        <time>2022-04-12T13:24:52Z</time>
      </trkpt>
      <trkpt lat="50.00464" lon="2.05007">
        <ele>10.9</ele>
        <time>2022-04-12T13:24:54Z</time>
      </trkpt>
      <trkpt lat="50.00465" lon="2.05007">
        <ele>10.9</ele>
        <time>2022-04-12T13:24:55Z</time>
      </trkpt>
      <trkpt lat="50.00466" lon="2.05006">
        <ele>10.9</ele>
        <time>2022-04-12T13:24:56Z</time>
      </trkpt>
      <trkpt lat="50.00466" lon="2.05005">
        <ele>10.9</ele>
        <time>2022-04-12T13:24:57Z</time>
      </trkpt>
      <trkpt lat="50.00467" lon="2.05003">
        <ele>10.9</ele>
        <time>2022-04-12T13:24:58Z</time>
      </trkpt>
      <trkpt lat="50.00467" lon="2.05001">
        <ele>10.9</ele>
        <time>2022-04-12T13:25:00Z</time>
      </trkpt>
      <trkpt lat="50.00467" lon="2.04998">
        <ele>10.9</ele>
        <time>2022-04-12T13:25:01Z</time>
      </trkpt>
      <trkpt lat="50.00467" lon="2.04997">
        <ele>10.9</ele>
        <time>2022-04-12T13:25:02Z</time>
      </trkpt>
      <trkpt lat="50.00467" lon="2.04995">
        <ele>10.9</ele>
        <time>2022-04-12T13:25:03Z</time>
      </trkpt>
      <trkpt lat="50.00467" lon="2.04992">
        <ele>10.9</ele>
        <time>2022-04-12T13:25:05Z</time>
      </trkpt>
      <trkpt lat="50.00467" lon="2.04991">
        <ele>10.9</ele>
        <time>2022-04-12T13:25:06Z</time>
      </trkpt>
      <trkpt lat="50.00468" lon="2.04989">
        <ele>10.9</ele>
        <time>2022-04-12T13:25:08Z</time>
      </trkpt>
      <trkpt lat="50.00468" lon="2.04989">
        <ele>10.9</ele>
        <time>2022-04-12T13:25:09Z</time>
      </trkpt>
      <trkpt lat="50.00469" lon="2.04989">
        <ele>10.9</ele>
        <time>2022-04-12T13:25:10Z</time>
      </trkpt>
      <trkpt lat="50.00469" lon="2.04988">
        <ele>10.9</ele>
        <time>2022-04-12T13:25:11Z</time>
      </trkpt>
      <trkpt lat="50.00469" lon="2.04989">
        <ele>10.9</ele>
        <time>2022-04-12T13:25:12Z</time>
      </trkpt>
      <trkpt lat="50.00469" lon="2.04989">
        <ele>10.9</ele>
        <time>2022-04-12T13:25:13Z</time>
      </trkpt>
      <trkpt lat="50.00469" lon="2.04988">
        <ele>10.9</ele>
        <time>2022-04-12T13:25:14Z</time>
      </trkpt>
      <trkpt lat="50.00469" lon="2.04988">
        <ele>10.9</ele>
        <time>2022-04-12T13:25:15Z</time>
      </trkpt>
      <trkpt lat="50.00469" lon="2.04987">
        <ele>10.9</ele>
        <time>2022-04-12T13:25:16Z</time>
      </trkpt>
      <trkpt lat="50.0047" lon="2.04986">
        <ele>10.9</ele>
        <time>2022-04-12T13:25:17Z</time>
      </trkpt>
      <trkpt lat="50.0047" lon="2.04985">
        <ele>10.9</ele>
        <time>2022-04-12T13:25:18Z</time>
      </trkpt>
      <trkpt lat="50.00471" lon="2.04984">
        <ele>10.9</ele>
        <time>2022-04-12T13:25:20Z</time>
      </trkpt>
      <trkpt lat="50.00472" lon="2.04983">
        <ele>10.9</ele>
        <time>2022-04-12T13:25:21Z</time>
      </trkpt>
      <trkpt lat="50.00472" lon="2.04982">
        <ele>10.9</ele>
        <time>2022-04-12T13:25:22Z</time>
      </trkpt>
      <trkpt lat="50.00472" lon="2.04981">
        <ele>10.9</ele>
        <time>2022-04-12T13:25:23Z</time>
      </trkpt>
      <trkpt lat="50.00472" lon="2.04981">
        <ele>10.9</ele>
        <time>2022-04-12T13:25:24Z</time>
      </trkpt>
      <trkpt lat="50.00472" lon="2.0498">
        <ele>10.9</ele>
        <time>2022-04-12T13:25:25Z</time>
      </trkpt>
      <trkpt lat="50.00472" lon="2.0498">
        <ele>10.9</ele>
        <time>2022-04-12T13:25:26Z</time>
      </trkpt>
      <trkpt lat="50.00471" lon="2.0498">
        <ele>10.9</ele>
        <time>2022-04-12T13:25:27Z</time>
      </trkpt>
      <trkpt lat="50.00472" lon="2.0498">
        <ele>10.9</ele>
        <time>2022-04-12T13:25:28Z</time>
      </trkpt>
      <trkpt lat="50.00472" lon="2.0498">
        <ele>10.9</ele>
        <time>2022-04-12T13:25:29Z</time>
      </trkpt>
      <trkpt lat="50.00472" lon="2.0498">
        <ele>10.9</ele>
        <time>2022-04-12T13:25:30Z</time>
      </trkpt>
      <trkpt lat="50.00473" lon="2.04979">
        <ele>10.9</ele>
        <time>2022-04-12T13:25:32Z</time>
      </trkpt>
      <trkpt lat="50.00473" lon="2.04979">
        <ele>10.9</ele>
        <time>2022-04-12T13:25:33Z</time>
      </trkpt>
      <trkpt lat="50.00473" lon="2.04978">
        <ele>10.9</ele>
        <time>2022-04-12T13:25:34Z</time>
      </trkpt>
      <trkpt lat="50.00473" lon="2.04978">
        <ele>10.9</ele>
        <time>2022-04-12T13:25:35Z</time>
      </trkpt>
      <trkpt lat="50.00473" lon="2.04978">
        <ele>10.9</ele>
        <time>2022-04-12T13:25:37Z</time>
      </trkpt>
      <trkpt lat="50.00473" lon="2.04978">
        <ele>10.9</ele>
        <time>2022-04-12T13:25:38Z</time>
      </trkpt>
      <trkpt lat="50.00473" lon="2.04978">
        <ele>10.9</ele>
        <time>2022-04-12T13:25:39Z</time>
      </trkpt>
      <trkpt lat="50.00473" lon="2.04978">
        <ele>10.9</ele>
        <time>2022-04-12T13:25:40Z</time>
      </trkpt>
      <trkpt lat="50.00474" lon="2.04978">
        <ele>10.9</ele>
        <time>2022-04-12T13:25:41Z</time>
      </trkpt>
      <trkpt lat="50.00474" lon="2.04978">
        <ele>10.9</ele>
        <time>2022-04-12T13:25:42Z</time>
      </trkpt>
      <trkpt lat="50.00474" lon="2.04979">
        <ele>10.9</ele>
        <time>2022-04-12T13:25:43Z</time>
      </trkpt>
      <trkpt lat="50.00474" lon="2.04979">
        <ele>10.9</ele>
        <time>2022-04-12T13:25:44Z</time>
      </trkpt>
      <trkpt lat="50.00474" lon="2.04979">
        <ele>10.9</ele>
        <time>2022-04-12T13:25:45Z</time>
      </trkpt>
      <trkpt lat="50.00474" lon="2.0498">
        <ele>10.9</ele>
        <time>2022-04-12T13:25:46Z</time>
      </trkpt>
      <trkpt lat="50.00475" lon="2.0498">
        <ele>10.9</ele>
        <time>2022-04-12T13:25:47Z</time>
      </trkpt>
      <trkpt lat="50.00475" lon="2.0498">
        <ele>10.9</ele>
        <time>2022-04-12T13:25:48Z</time>
      </trkpt>
      <trkpt lat="50.00475" lon="2.04981">
        <ele>10.9</ele>
        <time>2022-04-12T13:25:50Z</time>
      </trkpt>
      <trkpt lat="50.00475" lon="2.04981">
        <ele>10.9</ele>
        <time>2022-04-12T13:25:51Z</time>
      </trkpt>
      <trkpt lat="50.00475" lon="2.04981">
        <ele>10.9</ele>
        <time>2022-04-12T13:25:52Z</time>
      </trkpt>
      <trkpt lat="50.00476" lon="2.04982">
        <ele>10.9</ele>
        <time>2022-04-12T13:25:53Z</time>
      </trkpt>
      <trkpt lat="50.00476" lon="2.04982">
        <ele>10.9</ele>
        <time>2022-04-12T13:25:54Z</time>
      </trkpt>
      <trkpt lat="50.00477" lon="2.04983">
        <ele>10.9</ele>
        <time>2022-04-12T13:25:55Z</time>
      </trkpt>
      <trkpt lat="50.00478" lon="2.04985">
        <ele>10.9</ele>
        <time>2022-04-12T13:25:56Z</time>
      </trkpt>
      <trkpt lat="50.0048" lon="2.04986">
        <ele>10.9</ele>
        <time>2022-04-12T13:25:58Z</time>
      </trkpt>
      <trkpt lat="50.00482" lon="2.04987">
        <ele>10.9</ele>
        <time>2022-04-12T13:25:59Z</time>
      </trkpt>
      <trkpt lat="50.00483" lon="2.04987">
        <ele>10.9</ele>
        <time>2022-04-12T13:26:00Z</time>
      </trkpt>
      <trkpt lat="50.00485" lon="2.04988">
        <ele>10.9</ele>
        <time>2022-04-12T13:26:01Z</time>
      </trkpt>
      <trkpt lat="50.00487" lon="2.04989">
        <ele>10.9</ele>
        <time>2022-04-12T13:26:02Z</time>
      </trkpt>
      <trkpt lat="50.00488" lon="2.0499">
        <ele>10.9</ele>
        <time>2022-04-12T13:26:04Z</time>
      </trkpt>
      <trkpt lat="50.00489" lon="2.0499">
        <ele>10.9</ele>
        <time>2022-04-12T13:26:05Z</time>
      </trkpt>
      <trkpt lat="50.0049" lon="2.04991">
        <ele>10.9</ele>
        <time>2022-04-12T13:26:06Z</time>
      </trkpt>
      <trkpt lat="50.00491" lon="2.04991">
        <ele>10.9</ele>
        <time>2022-04-12T13:26:07Z</time>
      </trkpt>
      <trkpt lat="50.00492" lon="2.04992">
        <ele>10.9</ele>
        <time>2022-04-12T13:26:08Z</time>
      </trkpt>
      <trkpt lat="50.00493" lon="2.04992">
        <ele>10.9</ele>
        <time>2022-04-12T13:26:09Z</time>
      </trkpt>
      <trkpt lat="50.00495" lon="2.04991">
        <ele>10.9</ele>
        <time>2022-04-12T13:26:11Z</time>
      </trkpt>
      <trkpt lat="50.00496" lon="2.04991">
        <ele>10.9</ele>
        <time>2022-04-12T13:26:12Z</time>
      </trkpt>
      <trkpt lat="50.00497" lon="2.04991">
        <ele>10.9</ele>
        <time>2022-04-12T13:26:13Z</time>
      </trkpt>
      <trkpt lat="50.00498" lon="2.04991">
        <ele>10.9</ele>
        <time>2022-04-12T13:26:14Z</time>
      </trkpt>
      <trkpt lat="50.005" lon="2.04991">
        <ele>10.9</ele>
        <time>2022-04-12T13:26:15Z</time>
      </trkpt>
      <trkpt lat="50.00501" lon="2.04991">
        <ele>10.9</ele>
        <time>2022-04-12T13:26:16Z</time>
      </trkpt>
      <trkpt lat="50.00502" lon="2.04991">
        <ele>10.9</ele>
        <time>2022-04-12T13:26:17Z</time>
      </trkpt>
      <trkpt lat="50.00503" lon="2.04991">
        <ele>10.9</ele>
        <time>2022-04-12T13:26:19Z</time>
      </trkpt>
      <trkpt lat="50.00504" lon="2.04991">
        <ele>10.9</ele>
        <time>2022-04-12T13:26:20Z</time>
      </trkpt>
      <trkpt lat="50.00505" lon="2.04991">
        <ele>10.9</ele>
        <time>2022-04-12T13:26:21Z</time>
      </trkpt>
      <trkpt lat="50.00506" lon="2.04991">
        <ele>10.9</ele>
        <time>2022-04-12T13:26:22Z</time>
      </trkpt>
      <trkpt lat="50.00508" lon="2.04991">
        <ele>10.9</ele>
        <time>2022-04-12T13:26:23Z</time>
      </trkpt>
      <trkpt lat="50.0051" lon="2.04991">
        <ele>10.9</ele>
        <time>2022-04-12T13:26:24Z</time>
      </trkpt>
      <trkpt lat="50.0051" lon="2.0499">
        <ele>10.9</ele>
        <time>2022-04-12T13:26:25Z</time>
      </trkpt>
      <trkpt lat="50.00511" lon="2.0499">
        <ele>10.9</ele>
        <time>2022-04-12T13:26:26Z</time>
      </trkpt>
      <trkpt lat="50.00512" lon="2.0499">
        <ele>10.9</ele>
        <time>2022-04-12T13:26:27Z</time>
      </trkpt>
      <trkpt lat="50.00513" lon="2.0499">
        <ele>10.9</ele>
        <time>2022-04-12T13:26:29Z</time>
      </trkpt>
      <trkpt lat="50.00514" lon="2.0499">
        <ele>10.9</ele>
        <time>2022-04-12T13:26:30Z</time>
      </trkpt>
      <trkpt lat="50.00515" lon="2.0499">
        <ele>10.9</ele>
        <time>2022-04-12T13:26:31Z</time>
      </trkpt>
      <trkpt lat="50.00516" lon="2.04991">
        <ele>10.9</ele>
        <time>2022-04-12T13:26:32Z</time>
      </trkpt>
      <trkpt lat="50.00518" lon="2.04991">
        <ele>10.9</ele>
        <time>2022-04-12T13:26:33Z</time>
      </trkpt>
      <trkpt lat="50.00518" lon="2.04991">
        <ele>10.9</ele>
        <time>2022-04-12T13:26:34Z</time>
      </trkpt>
      <trkpt lat="50.0052" lon="2.04992">
        <ele>10.9</ele>
        <time>2022-04-12T13:26:35Z</time>
      </trkpt>
      <trkpt lat="50.00521" lon="2.04992">
        <ele>10.9</ele>
        <time>2022-04-12T13:26:37Z</time>
      </trkpt>
      <trkpt lat="50.00522" lon="2.04993">
        <ele>10.9</ele>
        <time>2022-04-12T13:26:38Z</time>
      </trkpt>
      <trkpt lat="50.00523" lon="2.04992">
        <ele>10.9</ele>
        <time>2022-04-12T13:26:39Z</time>
      </trkpt>
      <trkpt lat="50.00524" lon="2.04993">
        <ele>10.9</ele>
        <time>2022-04-12T13:26:40Z</time>
      </trkpt>
      <trkpt lat="50.00525" lon="2.04993">
        <ele>10.9</ele>
        <time>2022-04-12T13:26:41Z</time>
      </trkpt>
      <trkpt lat="50.00526" lon="2.04993">
        <ele>10.9</ele>
        <time>2022-04-12T13:26:42Z</time>
      </trkpt>
      <trkpt lat="50.00527" lon="2.04993">
        <ele>10.9</ele>
        <time>2022-04-12T13:26:43Z</time>
      </trkpt>
      <trkpt lat="50.00528" lon="2.04993">
        <ele>10.9</ele>
        <time>2022-04-12T13:26:44Z</time>
      </trkpt>
      <trkpt lat="50.0053" lon="2.04993">
        <ele>10.8</ele>
        <time>2022-04-12T13:26:46Z</time>
      </trkpt>
      <trkpt lat="50.00531" lon="2.04993">
        <ele>10.8</ele>
        <time>2022-04-12T13:26:47Z</time>
      </trkpt>
      <trkpt lat="50.00532" lon="2.04993">
        <ele>10.8</ele>
        <time>2022-04-12T13:26:49Z</time>
      </trkpt>
      <trkpt lat="50.00533" lon="2.04993">
        <ele>10.8</ele>
        <time>2022-04-12T13:26:50Z</time>
      </trkpt>
      <trkpt lat="50.00534" lon="2.04993">
        <ele>10.8</ele>
        <time>2022-04-12T13:26:51Z</time>
      </trkpt>
      <trkpt lat="50.00535" lon="2.04993">
        <ele>10.8</ele>
        <time>2022-04-12T13:26:52Z</time>
      </trkpt>
      <trkpt lat="50.00536" lon="2.04993">
        <ele>10.8</ele>
        <time>2022-04-12T13:26:53Z</time>
      </trkpt>
      <trkpt lat="50.00537" lon="2.04993">
        <ele>10.8</ele>
        <time>2022-04-12T13:26:54Z</time>
      </trkpt>
      <trkpt lat="50.00539" lon="2.04992">
        <ele>10.8</ele>
        <time>2022-04-12T13:26:56Z</time>
      </trkpt>
      <trkpt lat="50.0054" lon="2.04991">
        <ele>10.8</ele>
        <time>2022-04-12T13:26:57Z</time>
      </trkpt>
      <trkpt lat="50.00541" lon="2.04991">
        <ele>10.8</ele>
        <time>2022-04-12T13:26:58Z</time>
      </trkpt>
      <trkpt lat="50.00542" lon="2.0499">
        <ele>10.8</ele>
        <time>2022-04-12T13:26:59Z</time>
      </trkpt>
      <trkpt lat="50.00543" lon="2.04989">
        <ele>10.8</ele>
        <time>2022-04-12T13:27:00Z</time>
      </trkpt>
      <trkpt lat="50.00545" lon="2.04988">
        <ele>10.8</ele>
        <time>2022-04-12T13:27:01Z</time>
      </trkpt>
      <trkpt lat="50.00546" lon="2.04987">
        <ele>10.8</ele>
        <time>2022-04-12T13:27:02Z</time>
      </trkpt>
      <trkpt lat="50.00547" lon="2.04986">
        <ele>10.8</ele>
        <time>2022-04-12T13:27:03Z</time>
      </trkpt>
      <trkpt lat="50.00548" lon="2.04985">
        <ele>10.8</ele>
        <time>2022-04-12T13:27:05Z</time>
      </trkpt>
      <trkpt lat="50.0055" lon="2.04984">
        <ele>10.8</ele>
        <time>2022-04-12T13:27:06Z</time>
      </trkpt>
      <trkpt lat="50.00551" lon="2.04984">
        <ele>10.8</ele>
        <time>2022-04-12T13:27:07Z</time>
      </trkpt>
      <trkpt lat="50.00552" lon="2.04984">
        <ele>10.8</ele>
        <time>2022-04-12T13:27:08Z</time>
      </trkpt>
      <trkpt lat="50.00553" lon="2.04983">
        <ele>10.8</ele>
        <time>2022-04-12T13:27:09Z</time>
      </trkpt>
      <trkpt lat="50.00554" lon="2.04983">
        <ele>10.8</ele>
        <time>2022-04-12T13:27:10Z</time>
      </trkpt>
      <trkpt lat="50.00555" lon="2.04982">
        <ele>10.8</ele>
        <time>2022-04-12T13:27:11Z</time>
      </trkpt>
      <trkpt lat="50.00556" lon="2.04982">
        <ele>10.8</ele>
        <time>2022-04-12T13:27:12Z</time>
      </trkpt>
      <trkpt lat="50.00558" lon="2.04983">
        <ele>10.8</ele>
        <time>2022-04-12T13:27:13Z</time>
      </trkpt>
      <trkpt lat="50.00559" lon="2.04983">
        <ele>10.8</ele>
        <time>2022-04-12T13:27:14Z</time>
      </trkpt>
      <trkpt lat="50.0056" lon="2.04983">
        <ele>10.8</ele>
        <time>2022-04-12T13:27:15Z</time>
      </trkpt>
      <trkpt lat="50.00561" lon="2.04983">
        <ele>10.8</ele>
        <time>2022-04-12T13:27:17Z</time>
      </trkpt>
      <trkpt lat="50.00562" lon="2.04984">
        <ele>10.8</ele>
        <time>2022-04-12T13:27:18Z</time>
      </trkpt>
      <trkpt lat="50.00563" lon="2.04984">
        <ele>10.8</ele>
        <time>2022-04-12T13:27:19Z</time>
      </trkpt>
      <trkpt lat="50.00564" lon="2.04984">
        <ele>10.8</ele>
        <time>2022-04-12T13:27:20Z</time>
      </trkpt>
      <trkpt lat="50.00565" lon="2.04984">
        <ele>10.8</ele>
        <time>2022-04-12T13:27:21Z</time>
      </trkpt>
      <trkpt lat="50.00565" lon="2.04984">
        <ele>10.8</ele>
        <time>2022-04-12T13:27:22Z</time>
      </trkpt>
      <trkpt lat="50.00567" lon="2.04986">
        <ele>10.8</ele>
        <time>2022-04-12T13:27:23Z</time>
      </trkpt>
      <trkpt lat="50.00568" lon="2.04986">
        <ele>10.8</ele>
        <time>2022-04-12T13:27:24Z</time>
      </trkpt>
      <trkpt lat="50.00569" lon="2.04986">
        <ele>10.8</ele>
        <time>2022-04-12T13:27:25Z</time>
      </trkpt>
      <trkpt lat="50.00571" lon="2.04987">
        <ele>10.8</ele>
        <time>2022-04-12T13:27:26Z</time>
      </trkpt>
      <trkpt lat="50.00572" lon="2.04988">
        <ele>10.8</ele>
        <time>2022-04-12T13:27:28Z</time>
      </trkpt>
      <trkpt lat="50.00573" lon="2.04988">
        <ele>10.9</ele>
        <time>2022-04-12T13:27:29Z</time>
      </trkpt>
      <trkpt lat="50.00574" lon="2.04988">
        <ele>10.9</ele>
        <time>2022-04-12T13:27:30Z</time>
      </trkpt>
      <trkpt lat="50.00575" lon="2.04988">
        <ele>10.9</ele>
        <time>2022-04-12T13:27:31Z</time>
      </trkpt>
      <trkpt lat="50.00577" lon="2.04988">
        <ele>10.9</ele>
        <time>2022-04-12T13:27:32Z</time>
      </trkpt>
      <trkpt lat="50.00578" lon="2.04989">
        <ele>10.9</ele>
        <time>2022-04-12T13:27:33Z</time>
      </trkpt>
      <trkpt lat="50.00579" lon="2.04989">
        <ele>11</ele>
        <time>2022-04-12T13:27:34Z</time>
      </trkpt>
      <trkpt lat="50.00581" lon="2.04988">
        <ele>11</ele>
        <time>2022-04-12T13:27:36Z</time>
      </trkpt>
      <trkpt lat="50.00582" lon="2.04988">
        <ele>11</ele>
        <time>2022-04-12T13:27:37Z</time>
      </trkpt>
      <trkpt lat="50.00583" lon="2.04988">
        <ele>11</ele>
        <time>2022-04-12T13:27:38Z</time>
      </trkpt>
      <trkpt lat="50.00585" lon="2.04987">
        <ele>11.1</ele>
        <time>2022-04-12T13:27:39Z</time>
      </trkpt>
      <trkpt lat="50.00586" lon="2.04987">
        <ele>11.1</ele>
        <time>2022-04-12T13:27:40Z</time>
      </trkpt>
      <trkpt lat="50.00587" lon="2.04986">
        <ele>11.1</ele>
        <time>2022-04-12T13:27:41Z</time>
      </trkpt>
      <trkpt lat="50.00588" lon="2.04986">
        <ele>11.1</ele>
        <time>2022-04-12T13:27:42Z</time>
      </trkpt>
      <trkpt lat="50.00589" lon="2.04986">
        <ele>11.1</ele>
        <time>2022-04-12T13:27:43Z</time>
      </trkpt>
      <trkpt lat="50.00591" lon="2.04985">
        <ele>11.2</ele>
        <time>2022-04-12T13:27:45Z</time>
      </trkpt>
      <trkpt lat="50.00592" lon="2.04985">
        <ele>11.2</ele>
        <time>2022-04-12T13:27:46Z</time>
      </trkpt>
      <trkpt lat="50.00593" lon="2.04985">
        <ele>11.2</ele>
        <time>2022-04-12T13:27:47Z</time>
      </trkpt>
      <trkpt lat="50.00594" lon="2.04984">
        <ele>11.2</ele>
        <time>2022-04-12T13:27:48Z</time>
      </trkpt>
      <trkpt lat="50.00595" lon="2.04985">
        <ele>11.3</ele>
        <time>2022-04-12T13:27:49Z</time>
      </trkpt>
      <trkpt lat="50.00596" lon="2.04985">
        <ele>11.3</ele>
        <time>2022-04-12T13:27:50Z</time>
      </trkpt>
      <trkpt lat="50.00598" lon="2.04985">
        <ele>11.3</ele>
        <time>2022-04-12T13:27:52Z</time>
      </trkpt>
      <trkpt lat="50.00598" lon="2.04985">
        <ele>11.3</ele>
        <time>2022-04-12T13:27:53Z</time>
      </trkpt>
      <trkpt lat="50.00598" lon="2.04985">
        <ele>11.3</ele>
        <time>2022-04-12T13:27:54Z</time>
      </trkpt>
      <trkpt lat="50.00599" lon="2.04985">
        <ele>11.3</ele>
        <time>2022-04-12T13:27:55Z</time>
      </trkpt>
      <trkpt lat="50.00599" lon="2.04985">
        <ele>11.3</ele>
        <time>2022-04-12T13:27:56Z</time>
      </trkpt>
      <trkpt lat="50.00599" lon="2.04985">
        <ele>11.3</ele>
        <time>2022-04-12T13:27:57Z</time>
      </trkpt>
      <trkpt lat="50.00599" lon="2.04985">
        <ele>11.3</ele>
        <time>2022-04-12T13:27:58Z</time>
      </trkpt>
      <trkpt lat="50.006" lon="2.04986">
        <ele>11.3</ele>
        <time>2022-04-12T13:28:00Z</time>
      </trkpt>
      <trkpt lat="50.006" lon="2.04986">
        <ele>11.3</ele>
        <time>2022-04-12T13:28:01Z</time>
      </trkpt>
      <trkpt lat="50.006" lon="2.04986">
        <ele>11.3</ele>
        <time>2022-04-12T13:28:02Z</time>
      </trkpt>
      <trkpt lat="50.00602" lon="2.04985">
        <ele>11.3</ele>
        <time>2022-04-12T13:28:03Z</time>
      </trkpt>
      <trkpt lat="50.00603" lon="2.04985">
        <ele>11.4</ele>
        <time>2022-04-12T13:28:04Z</time>
      </trkpt>
      <trkpt lat="50.00604" lon="2.04985">
        <ele>11.4</ele>
        <time>2022-04-12T13:28:05Z</time>
      </trkpt>
      <trkpt lat="50.00606" lon="2.04984">
        <ele>11.4</ele>
        <time>2022-04-12T13:28:06Z</time>
      </trkpt>
      <trkpt lat="50.00607" lon="2.04984">
        <ele>11.4</ele>
        <time>2022-04-12T13:28:07Z</time>
      </trkpt>
      <trkpt lat="50.00608" lon="2.04983">
        <ele>11.4</ele>
        <time>2022-04-12T13:28:08Z</time>
      </trkpt>
      <trkpt lat="50.0061" lon="2.04983">
        <ele>11.4</ele>
        <time>2022-04-12T13:28:09Z</time>
      </trkpt>
      <trkpt lat="50.00611" lon="2.04982">
        <ele>11.4</ele>
        <time>2022-04-12T13:28:11Z</time>
      </trkpt>
      <trkpt lat="50.00613" lon="2.04982">
        <ele>11.4</ele>
        <time>2022-04-12T13:28:12Z</time>
      </trkpt>
      <trkpt lat="50.00614" lon="2.04981">
        <ele>11.4</ele>
        <time>2022-04-12T13:28:13Z</time>
      </trkpt>
      <trkpt lat="50.00615" lon="2.04981">
        <ele>11.5</ele>
        <time>2022-04-12T13:28:14Z</time>
      </trkpt>
      <trkpt lat="50.00617" lon="2.04981">
        <ele>11.5</ele>
        <time>2022-04-12T13:28:15Z</time>
      </trkpt>
      <trkpt lat="50.00618" lon="2.04981">
        <ele>11.5</ele>
        <time>2022-04-12T13:28:16Z</time>
      </trkpt>
      <trkpt lat="50.0062" lon="2.04981">
        <ele>11.5</ele>
        <time>2022-04-12T13:28:18Z</time>
      </trkpt>
      <trkpt lat="50.00622" lon="2.04981">
        <ele>11.5</ele>
        <time>2022-04-12T13:28:19Z</time>
      </trkpt>
      <trkpt lat="50.00623" lon="2.0498">
        <ele>11.5</ele>
        <time>2022-04-12T13:28:20Z</time>
      </trkpt>
      <trkpt lat="50.00625" lon="2.04979">
        <ele>11.5</ele>
        <time>2022-04-12T13:28:21Z</time>
      </trkpt>
      <trkpt lat="50.00626" lon="2.04979">
        <ele>11.5</ele>
        <time>2022-04-12T13:28:22Z</time>
      </trkpt>
      <trkpt lat="50.00627" lon="2.04979">
        <ele>11.5</ele>
        <time>2022-04-12T13:28:23Z</time>
      </trkpt>
      <trkpt lat="50.00629" lon="2.04978">
        <ele>11.5</ele>
        <time>2022-04-12T13:28:24Z</time>
      </trkpt>
      <trkpt lat="50.0063" lon="2.04978">
        <ele>11.5</ele>
        <time>2022-04-12T13:28:26Z</time>
      </trkpt>
      <trkpt lat="50.00631" lon="2.04978">
        <ele>11.5</ele>
        <time>2022-04-12T13:28:27Z</time>
      </trkpt>
      <trkpt lat="50.00633" lon="2.04977">
        <ele>11.5</ele>
        <time>2022-04-12T13:28:28Z</time>
      </trkpt>
      <trkpt lat="50.00634" lon="2.04977">
        <ele>11.5</ele>
        <time>2022-04-12T13:28:29Z</time>
      </trkpt>
      <trkpt lat="50.00636" lon="2.04977">
        <ele>11.5</ele>
        <time>2022-04-12T13:28:30Z</time>
      </trkpt>
      <trkpt lat="50.00636" lon="2.04977">
        <ele>11.5</ele>
        <time>2022-04-12T13:28:31Z</time>
      </trkpt>
      <trkpt lat="50.00637" lon="2.04977">
        <ele>11.5</ele>
        <time>2022-04-12T13:28:32Z</time>
      </trkpt>
      <trkpt lat="50.00639" lon="2.04976">
        <ele>11.5</ele>
        <time>2022-04-12T13:28:33Z</time>
      </trkpt>
      <trkpt lat="50.0064" lon="2.04976">
        <ele>11.5</ele>
        <time>2022-04-12T13:28:35Z</time>
      </trkpt>
      <trkpt lat="50.00641" lon="2.04976">
        <ele>11.5</ele>
        <time>2022-04-12T13:28:36Z</time>
      </trkpt>
      <trkpt lat="50.00642" lon="2.04975">
        <ele>11.5</ele>
        <time>2022-04-12T13:28:37Z</time>
      </trkpt>
      <trkpt lat="50.00643" lon="2.04975">
        <ele>11.5</ele>
        <time>2022-04-12T13:28:38Z</time>
      </trkpt>
      <trkpt lat="50.00644" lon="2.04974">
        <ele>11.5</ele>
        <time>2022-04-12T13:28:39Z</time>
      </trkpt>
      <trkpt lat="50.00646" lon="2.04973">
        <ele>11.5</ele>
        <time>2022-04-12T13:28:40Z</time>
      </trkpt>
      <trkpt lat="50.00647" lon="2.04973">
        <ele>11.5</ele>
        <time>2022-04-12T13:28:41Z</time>
      </trkpt>
      <trkpt lat="50.00648" lon="2.04973">
        <ele>11.5</ele>
        <time>2022-04-12T13:28:42Z</time>
      </trkpt>
      <trkpt lat="50.0065" lon="2.04972">
        <ele>11.5</ele>
        <time>2022-04-12T13:28:43Z</time>
      </trkpt>
      <trkpt lat="50.00651" lon="2.04971">
        <ele>11.5</ele>
        <time>2022-04-12T13:28:44Z</time>
      </trkpt>
      <trkpt lat="50.00651" lon="2.04971">
        <ele>11.5</ele>
        <time>2022-04-12T13:28:45Z</time>
      </trkpt>
      <trkpt lat="50.00652" lon="2.0497">
        <ele>11.5</ele>
        <time>2022-04-12T13:28:47Z</time>
      </trkpt>
      <trkpt lat="50.00653" lon="2.04969">
        <ele>11.5</ele>
        <time>2022-04-12T13:28:48Z</time>
      </trkpt>
      <trkpt lat="50.00654" lon="2.04968">
        <ele>11.5</ele>
        <time>2022-04-12T13:28:49Z</time>
      </trkpt>
      <trkpt lat="50.00655" lon="2.04967">
        <ele>11.5</ele>
        <time>2022-04-12T13:28:50Z</time>
      </trkpt>
      <trkpt lat="50.00656" lon="2.04967">
        <ele>11.5</ele>
        <time>2022-04-12T13:28:51Z</time>
      </trkpt>
      <trkpt lat="50.00657" lon="2.04966">
        <ele>11.5</ele>
        <time>2022-04-12T13:28:52Z</time>
      </trkpt>
      <trkpt lat="50.00658" lon="2.04966">
        <ele>11.5</ele>
        <time>2022-04-12T13:28:53Z</time>
      </trkpt>
      <trkpt lat="50.0066" lon="2.04965">
        <ele>11.5</ele>
        <time>2022-04-12T13:28:54Z</time>
      </trkpt>
      <trkpt lat="50.00661" lon="2.04964">
        <ele>11.5</ele>
        <time>2022-04-12T13:28:55Z</time>
      </trkpt>
      <trkpt lat="50.00662" lon="2.04964">
        <ele>11.5</ele>
        <time>2022-04-12T13:28:56Z</time>
      </trkpt>
      <trkpt lat="50.00663" lon="2.04963">
        <ele>11.5</ele>
        <time>2022-04-12T13:28:58Z</time>
      </trkpt>
      <trkpt lat="50.00664" lon="2.04962">
        <ele>11.5</ele>
        <time>2022-04-12T13:28:59Z</time>
      </trkpt>
      <trkpt lat="50.00665" lon="2.04962">
        <ele>11.5</ele>
        <time>2022-04-12T13:29:00Z</time>
      </trkpt>
      <trkpt lat="50.00666" lon="2.04961">
        <ele>11.5</ele>
        <time>2022-04-12T13:29:01Z</time>
      </trkpt>
      <trkpt lat="50.00667" lon="2.0496">
        <ele>11.5</ele>
        <time>2022-04-12T13:29:02Z</time>
      </trkpt>
      <trkpt lat="50.00667" lon="2.04959">
        <ele>11.5</ele>
        <time>2022-04-12T13:29:03Z</time>
      </trkpt>
      <trkpt lat="50.00668" lon="2.04958">
        <ele>11.5</ele>
        <time>2022-04-12T13:29:04Z</time>
      </trkpt>
      <trkpt lat="50.00669" lon="2.04957">
        <ele>11.5</ele>
        <time>2022-04-12T13:29:05Z</time>
      </trkpt>
      <trkpt lat="50.00671" lon="2.04956">
        <ele>11.5</ele>
        <time>2022-04-12T13:29:06Z</time>
      </trkpt>
      <trkpt lat="50.00672" lon="2.04955">
        <ele>11.5</ele>
        <time>2022-04-12T13:29:07Z</time>
      </trkpt>
      <trkpt lat="50.00673" lon="2.04955">
        <ele>11.5</ele>
        <time>2022-04-12T13:29:08Z</time>
      </trkpt>
      <trkpt lat="50.00674" lon="2.04954">
        <ele>11.5</ele>
        <time>2022-04-12T13:29:09Z</time>
      </trkpt>
      <trkpt lat="50.00675" lon="2.04954">
        <ele>11.4</ele>
        <time>2022-04-12T13:29:11Z</time>
      </trkpt>
      <trkpt lat="50.00676" lon="2.04953">
        <ele>11.4</ele>
        <time>2022-04-12T13:29:12Z</time>
      </trkpt>
      <trkpt lat="50.00677" lon="2.04952">
        <ele>11.4</ele>
        <time>2022-04-12T13:29:13Z</time>
      </trkpt>
      <trkpt lat="50.00678" lon="2.04952">
        <ele>11.4</ele>
        <time>2022-04-12T13:29:14Z</time>
      </trkpt>
      <trkpt lat="50.00679" lon="2.04951">
        <ele>11.4</ele>
        <time>2022-04-12T13:29:15Z</time>
      </trkpt>
      <trkpt lat="50.00681" lon="2.04951">
        <ele>11.4</ele>
        <time>2022-04-12T13:29:16Z</time>
      </trkpt>
      <trkpt lat="50.00682" lon="2.04951">
        <ele>11.4</ele>
        <time>2022-04-12T13:29:17Z</time>
      </trkpt>
      <trkpt lat="50.00683" lon="2.0495">
        <ele>11.4</ele>
        <time>2022-04-12T13:29:18Z</time>
      </trkpt>
      <trkpt lat="50.00684" lon="2.0495">
        <ele>11.4</ele>
        <time>2022-04-12T13:29:19Z</time>
      </trkpt>
      <trkpt lat="50.00685" lon="2.0495">
        <ele>11.4</ele>
        <time>2022-04-12T13:29:20Z</time>
      </trkpt>
      <trkpt lat="50.00687" lon="2.04949">
        <ele>11.4</ele>
        <time>2022-04-12T13:29:22Z</time>
      </trkpt>
      <trkpt lat="50.00689" lon="2.04949">
        <ele>11.4</ele>
        <time>2022-04-12T13:29:23Z</time>
      </trkpt>
      <trkpt lat="50.0069" lon="2.04949">
        <ele>11.3</ele>
        <time>2022-04-12T13:29:24Z</time>
      </trkpt>
      <trkpt lat="50.00691" lon="2.04949">
        <ele>11.3</ele>
        <time>2022-04-12T13:29:25Z</time>
      </trkpt>
      <trkpt lat="50.00693" lon="2.04949">
        <ele>11.3</ele>
        <time>2022-04-12T13:29:26Z</time>
      </trkpt>
      <trkpt lat="50.00694" lon="2.04949">
        <ele>11.3</ele>
        <time>2022-04-12T13:29:27Z</time>
      </trkpt>
      <trkpt lat="50.00695" lon="2.04949">
        <ele>11.3</ele>
        <time>2022-04-12T13:29:28Z</time>
      </trkpt>
      <trkpt lat="50.00696" lon="2.04949">
        <ele>11.3</ele>
        <time>2022-04-12T13:29:30Z</time>
      </trkpt>
      <trkpt lat="50.00697" lon="2.04949">
        <ele>11.3</ele>
        <time>2022-04-12T13:29:31Z</time>
      </trkpt>
      <trkpt lat="50.00698" lon="2.04949">
        <ele>11.3</ele>
        <time>2022-04-12T13:29:32Z</time>
      </trkpt>
      <trkpt lat="50.00699" lon="2.04949">
        <ele>11.3</ele>
        <time>2022-04-12T13:29:33Z</time>
      </trkpt>
      <trkpt lat="50.007" lon="2.04949">
        <ele>11.3</ele>
        <time>2022-04-12T13:29:34Z</time>
      </trkpt>
      <trkpt lat="50.00701" lon="2.04949">
        <ele>11.3</ele>
        <time>2022-04-12T13:29:35Z</time>
      </trkpt>
      <trkpt lat="50.00702" lon="2.04948">
        <ele>11.3</ele>
        <time>2022-04-12T13:29:36Z</time>
      </trkpt>
      <trkpt lat="50.00703" lon="2.04948">
        <ele>11.3</ele>
        <time>2022-04-12T13:29:37Z</time>
      </trkpt>
      <trkpt lat="50.00704" lon="2.04948">
        <ele>11.3</ele>
        <time>2022-04-12T13:29:38Z</time>
      </trkpt>
      <trkpt lat="50.00705" lon="2.04947">
        <ele>11.3</ele>
        <time>2022-04-12T13:29:40Z</time>
      </trkpt>
      <trkpt lat="50.00706" lon="2.04947">
        <ele>11.2</ele>
        <time>2022-04-12T13:29:41Z</time>
      </trkpt>
      <trkpt lat="50.00707" lon="2.04947">
        <ele>11.2</ele>
        <time>2022-04-12T13:29:42Z</time>
      </trkpt>
      <trkpt lat="50.00708" lon="2.04947">
        <ele>11.2</ele>
        <time>2022-04-12T13:29:43Z</time>
      </trkpt>
      <trkpt lat="50.00709" lon="2.04947">
        <ele>11.2</ele>
        <time>2022-04-12T13:29:44Z</time>
      </trkpt>
      <trkpt lat="50.0071" lon="2.04947">
        <ele>11.2</ele>
        <time>2022-04-12T13:29:45Z</time>
      </trkpt>
      <trkpt lat="50.00711" lon="2.04946">
        <ele>11.2</ele>
        <time>2022-04-12T13:29:46Z</time>
      </trkpt>
      <trkpt lat="50.00712" lon="2.04946">
        <ele>11.2</ele>
        <time>2022-04-12T13:29:47Z</time>
      </trkpt>
      <trkpt lat="50.00713" lon="2.04946">
        <ele>11.2</ele>
        <time>2022-04-12T13:29:48Z</time>
      </trkpt>
      <trkpt lat="50.00715" lon="2.04945">
        <ele>11.2</ele>
        <time>2022-04-12T13:29:49Z</time>
      </trkpt>
      <trkpt lat="50.00716" lon="2.04945">
        <ele>11.1</ele>
        <time>2022-04-12T13:29:50Z</time>
      </trkpt>
      <trkpt lat="50.00717" lon="2.04945">
        <ele>11.1</ele>
        <time>2022-04-12T13:29:51Z</time>
      </trkpt>
      <trkpt lat="50.00718" lon="2.04944">
        <ele>11.1</ele>
        <time>2022-04-12T13:29:53Z</time>
      </trkpt>
      <trkpt lat="50.00719" lon="2.04944">
        <ele>11.1</ele>
        <time>2022-04-12T13:29:54Z</time>
      </trkpt>
      <trkpt lat="50.0072" lon="2.04944">
        <ele>11.1</ele>
        <time>2022-04-12T13:29:55Z</time>
      </trkpt>
      <trkpt lat="50.00722" lon="2.04943">
        <ele>11.1</ele>
        <time>2022-04-12T13:29:56Z</time>
      </trkpt>
      <trkpt lat="50.00723" lon="2.04943">
        <ele>11.1</ele>
        <time>2022-04-12T13:29:57Z</time>
      </trkpt>
      <trkpt lat="50.00724" lon="2.04943">
        <ele>11.1</ele>
        <time>2022-04-12T13:29:58Z</time>
      </trkpt>
      <trkpt lat="50.00726" lon="2.04942">
        <ele>11</ele>
        <time>2022-04-12T13:29:59Z</time>
      </trkpt>
      <trkpt lat="50.00727" lon="2.04942">
        <ele>11</ele>
        <time>2022-04-12T13:30:00Z</time>
      </trkpt>
      <trkpt lat="50.00728" lon="2.04942">
        <ele>11</ele>
        <time>2022-04-12T13:30:01Z</time>
      </trkpt>
      <trkpt lat="50.0073" lon="2.04942">
        <ele>11</ele>
        <time>2022-04-12T13:30:02Z</time>
      </trkpt>
      <trkpt lat="50.00731" lon="2.04941">
        <ele>11</ele>
        <time>2022-04-12T13:30:03Z</time>
      </trkpt>
      <trkpt lat="50.00732" lon="2.04941">
        <ele>11</ele>
        <time>2022-04-12T13:30:04Z</time>
      </trkpt>
      <trkpt lat="50.00733" lon="2.04941">
        <ele>11</ele>
        <time>2022-04-12T13:30:06Z</time>
      </trkpt>
      <trkpt lat="50.00734" lon="2.04941">
        <ele>11</ele>
        <time>2022-04-12T13:30:07Z</time>
      </trkpt>
      <trkpt lat="50.00735" lon="2.04941">
        <ele>11</ele>
        <time>2022-04-12T13:30:08Z</time>
      </trkpt>
      <trkpt lat="50.00736" lon="2.04941">
        <ele>11</ele>
        <time>2022-04-12T13:30:09Z</time>
      </trkpt>
      <trkpt lat="50.00738" lon="2.04941">
        <ele>10.9</ele>
        <time>2022-04-12T13:30:10Z</time>
      </trkpt>
      <trkpt lat="50.00739" lon="2.0494">
        <ele>10.9</ele>
        <time>2022-04-12T13:30:11Z</time>
      </trkpt>
      <trkpt lat="50.00741" lon="2.0494">
        <ele>10.9</ele>
        <time>2022-04-12T13:30:12Z</time>
      </trkpt>
      <trkpt lat="50.00742" lon="2.0494">
        <ele>10.9</ele>
        <time>2022-04-12T13:30:13Z</time>
      </trkpt>
      <trkpt lat="50.00742" lon="2.0494">
        <ele>10.9</ele>
        <time>2022-04-12T13:30:14Z</time>
      </trkpt>
      <trkpt lat="50.00744" lon="2.04939">
        <ele>10.9</ele>
        <time>2022-04-12T13:30:15Z</time>
      </trkpt>
      <trkpt lat="50.00745" lon="2.04939">
        <ele>10.9</ele>
        <time>2022-04-12T13:30:16Z</time>
      </trkpt>
      <trkpt lat="50.00746" lon="2.04939">
        <ele>10.9</ele>
        <time>2022-04-12T13:30:18Z</time>
      </trkpt>
      <trkpt lat="50.00747" lon="2.04938">
        <ele>10.9</ele>
        <time>2022-04-12T13:30:19Z</time>
      </trkpt>
      <trkpt lat="50.00748" lon="2.04938">
        <ele>10.9</ele>
        <time>2022-04-12T13:30:20Z</time>
      </trkpt>
      <trkpt lat="50.00749" lon="2.04937">
        <ele>10.9</ele>
        <time>2022-04-12T13:30:21Z</time>
      </trkpt>
      <trkpt lat="50.0075" lon="2.04937">
        <ele>10.9</ele>
        <time>2022-04-12T13:30:22Z</time>
      </trkpt>
      <trkpt lat="50.00752" lon="2.04937">
        <ele>10.8</ele>
        <time>2022-04-12T13:30:23Z</time>
      </trkpt>
      <trkpt lat="50.00753" lon="2.04936">
        <ele>10.8</ele>
        <time>2022-04-12T13:30:24Z</time>
      </trkpt>
      <trkpt lat="50.00754" lon="2.04936">
        <ele>10.8</ele>
        <time>2022-04-12T13:30:25Z</time>
      </trkpt>
      <trkpt lat="50.00755" lon="2.04935">
        <ele>10.8</ele>
        <time>2022-04-12T13:30:26Z</time>
      </trkpt>
      <trkpt lat="50.00756" lon="2.04935">
        <ele>10.8</ele>
        <time>2022-04-12T13:30:28Z</time>
      </trkpt>
      <trkpt lat="50.00757" lon="2.04934">
        <ele>10.8</ele>
        <time>2022-04-12T13:30:29Z</time>
      </trkpt>
      <trkpt lat="50.00759" lon="2.04934">
        <ele>10.8</ele>
        <time>2022-04-12T13:30:30Z</time>
      </trkpt>
      <trkpt lat="50.0076" lon="2.04933">
        <ele>10.8</ele>
        <time>2022-04-12T13:30:31Z</time>
      </trkpt>
      <trkpt lat="50.00761" lon="2.04933">
        <ele>10.8</ele>
        <time>2022-04-12T13:30:32Z</time>
      </trkpt>
      <trkpt lat="50.00762" lon="2.04932">
        <ele>10.8</ele>
        <time>2022-04-12T13:30:33Z</time>
      </trkpt>
      <trkpt lat="50.00763" lon="2.04932">
        <ele>10.8</ele>
        <time>2022-04-12T13:30:34Z</time>
      </trkpt>
      <trkpt lat="50.00764" lon="2.04931">
        <ele>10.8</ele>
        <time>2022-04-12T13:30:35Z</time>
      </trkpt>
      <trkpt lat="50.00765" lon="2.04931">
        <ele>10.9</ele>
        <time>2022-04-12T13:30:37Z</time>
      </trkpt>
      <trkpt lat="50.00766" lon="2.0493">
        <ele>10.9</ele>
        <time>2022-04-12T13:30:38Z</time>
      </trkpt>
      <trkpt lat="50.00767" lon="2.0493">
        <ele>10.9</ele>
        <time>2022-04-12T13:30:39Z</time>
      </trkpt>
      <trkpt lat="50.00768" lon="2.04929">
        <ele>10.9</ele>
        <time>2022-04-12T13:30:40Z</time>
      </trkpt>
      <trkpt lat="50.00769" lon="2.04929">
        <ele>10.9</ele>
        <time>2022-04-12T13:30:41Z</time>
      </trkpt>
      <trkpt lat="50.0077" lon="2.04928">
        <ele>10.9</ele>
        <time>2022-04-12T13:30:42Z</time>
      </trkpt>
      <trkpt lat="50.00771" lon="2.04928">
        <ele>10.9</ele>
        <time>2022-04-12T13:30:43Z</time>
      </trkpt>
      <trkpt lat="50.00772" lon="2.04927">
        <ele>10.9</ele>
        <time>2022-04-12T13:30:44Z</time>
      </trkpt>
      <trkpt lat="50.00774" lon="2.04926">
        <ele>10.9</ele>
        <time>2022-04-12T13:30:46Z</time>
      </trkpt>
      <trkpt lat="50.00775" lon="2.04926">
        <ele>10.9</ele>
        <time>2022-04-12T13:30:47Z</time>
      </trkpt>
      <trkpt lat="50.00776" lon="2.04925">
        <ele>10.9</ele>
        <time>2022-04-12T13:30:48Z</time>
      </trkpt>
      <trkpt lat="50.00777" lon="2.04925">
        <ele>10.9</ele>
        <time>2022-04-12T13:30:49Z</time>
      </trkpt>
      <trkpt lat="50.00778" lon="2.04924">
        <ele>10.9</ele>
        <time>2022-04-12T13:30:50Z</time>
      </trkpt>
      <trkpt lat="50.00779" lon="2.04924">
        <ele>10.9</ele>
        <time>2022-04-12T13:30:51Z</time>
      </trkpt>
      <trkpt lat="50.0078" lon="2.04923">
        <ele>10.9</ele>
        <time>2022-04-12T13:30:52Z</time>
      </trkpt>
      <trkpt lat="50.00781" lon="2.04923">
        <ele>10.9</ele>
        <time>2022-04-12T13:30:53Z</time>
      </trkpt>
      <trkpt lat="50.00783" lon="2.04923">
        <ele>10.9</ele>
        <time>2022-04-12T13:30:54Z</time>
      </trkpt>
      <trkpt lat="50.00784" lon="2.04922">
        <ele>10.9</ele>
        <time>2022-04-12T13:30:55Z</time>
      </trkpt>
      <trkpt lat="50.00785" lon="2.04922">
        <ele>10.9</ele>
        <time>2022-04-12T13:30:57Z</time>
      </trkpt>
      <trkpt lat="50.00786" lon="2.04922">
        <ele>10.9</ele>
        <time>2022-04-12T13:30:58Z</time>
      </trkpt>
      <trkpt lat="50.00787" lon="2.04922">
        <ele>10.9</ele>
        <time>2022-04-12T13:30:59Z</time>
      </trkpt>
      <trkpt lat="50.00789" lon="2.04922">
        <ele>10.9</ele>
        <time>2022-04-12T13:31:00Z</time>
      </trkpt>
      <trkpt lat="50.00789" lon="2.04922">
        <ele>10.9</ele>
        <time>2022-04-12T13:31:01Z</time>
      </trkpt>
      <trkpt lat="50.00792" lon="2.04922">
        <ele>10.9</ele>
        <time>2022-04-12T13:31:02Z</time>
      </trkpt>
      <trkpt lat="50.00792" lon="2.04921">
        <ele>10.9</ele>
        <time>2022-04-12T13:31:03Z</time>
      </trkpt>
      <trkpt lat="50.00793" lon="2.04921">
        <ele>10.8</ele>
        <time>2022-04-12T13:31:04Z</time>
      </trkpt>
      <trkpt lat="50.00794" lon="2.04921">
        <ele>10.8</ele>
        <time>2022-04-12T13:31:06Z</time>
      </trkpt>
      <trkpt lat="50.00795" lon="2.04921">
        <ele>10.8</ele>
        <time>2022-04-12T13:31:07Z</time>
      </trkpt>
      <trkpt lat="50.00796" lon="2.04921">
        <ele>10.8</ele>
        <time>2022-04-12T13:31:08Z</time>
      </trkpt>
      <trkpt lat="50.00797" lon="2.04921">
        <ele>10.8</ele>
        <time>2022-04-12T13:31:09Z</time>
      </trkpt>
      <trkpt lat="50.00798" lon="2.04921">
        <ele>10.8</ele>
        <time>2022-04-12T13:31:10Z</time>
      </trkpt>
      <trkpt lat="50.00799" lon="2.0492">
        <ele>10.8</ele>
        <time>2022-04-12T13:31:11Z</time>
      </trkpt>
      <trkpt lat="50.008" lon="2.0492">
        <ele>10.8</ele>
        <time>2022-04-12T13:31:12Z</time>
      </trkpt>
      <trkpt lat="50.00801" lon="2.0492">
        <ele>10.8</ele>
        <time>2022-04-12T13:31:13Z</time>
      </trkpt>
      <trkpt lat="50.00802" lon="2.0492">
        <ele>10.8</ele>
        <time>2022-04-12T13:31:14Z</time>
      </trkpt>
      <trkpt lat="50.00803" lon="2.0492">
        <ele>10.8</ele>
        <time>2022-04-12T13:31:16Z</time>
      </trkpt>
      <trkpt lat="50.00804" lon="2.0492">
        <ele>10.8</ele>
        <time>2022-04-12T13:31:17Z</time>
      </trkpt>
      <trkpt lat="50.00805" lon="2.0492">
        <ele>10.8</ele>
        <time>2022-04-12T13:31:18Z</time>
      </trkpt>
      <trkpt lat="50.00806" lon="2.0492">
        <ele>10.8</ele>
        <time>2022-04-12T13:31:19Z</time>
      </trkpt>
      <trkpt lat="50.00807" lon="2.0492">
        <ele>10.8</ele>
        <time>2022-04-12T13:31:20Z</time>
      </trkpt>
      <trkpt lat="50.00808" lon="2.04919">
        <ele>10.8</ele>
        <time>2022-04-12T13:31:21Z</time>
      </trkpt>
      <trkpt lat="50.0081" lon="2.04919">
        <ele>10.8</ele>
        <time>2022-04-12T13:31:22Z</time>
      </trkpt>
      <trkpt lat="50.00811" lon="2.04919">
        <ele>10.8</ele>
        <time>2022-04-12T13:31:23Z</time>
      </trkpt>
      <trkpt lat="50.00812" lon="2.04919">
        <ele>10.8</ele>
        <time>2022-04-12T13:31:24Z</time>
      </trkpt>
      <trkpt lat="50.00813" lon="2.04919">
        <ele>10.8</ele>
        <time>2022-04-12T13:31:26Z</time>
      </trkpt>
      <trkpt lat="50.00814" lon="2.04918">
        <ele>10.8</ele>
        <time>2022-04-12T13:31:27Z</time>
      </trkpt>
      <trkpt lat="50.00815" lon="2.04918">
        <ele>10.8</ele>
        <time>2022-04-12T13:31:28Z</time>
      </trkpt>
      <trkpt lat="50.00816" lon="2.04917">
        <ele>10.8</ele>
        <time>2022-04-12T13:31:29Z</time>
      </trkpt>
      <trkpt lat="50.00817" lon="2.04917">
        <ele>10.8</ele>
        <time>2022-04-12T13:31:30Z</time>
      </trkpt>
      <trkpt lat="50.00819" lon="2.04917">
        <ele>10.8</ele>
        <time>2022-04-12T13:31:31Z</time>
      </trkpt>
      <trkpt lat="50.00821" lon="2.04917">
        <ele>10.8</ele>
        <time>2022-04-12T13:31:32Z</time>
      </trkpt>
      <trkpt lat="50.00822" lon="2.04917">
        <ele>10.8</ele>
        <time>2022-04-12T13:31:33Z</time>
      </trkpt>
      <trkpt lat="50.00823" lon="2.04917">
        <ele>10.8</ele>
        <time>2022-04-12T13:31:34Z</time>
      </trkpt>
      <trkpt lat="50.00825" lon="2.04917">
        <ele>10.8</ele>
        <time>2022-04-12T13:31:36Z</time>
      </trkpt>
      <trkpt lat="50.00826" lon="2.04917">
        <ele>10.8</ele>
        <time>2022-04-12T13:31:37Z</time>
      </trkpt>
      <trkpt lat="50.00826" lon="2.04917">
        <ele>10.8</ele>
        <time>2022-04-12T13:31:38Z</time>
      </trkpt>
      <trkpt lat="50.00829" lon="2.04917">
        <ele>10.8</ele>
        <time>2022-04-12T13:31:39Z</time>
      </trkpt>
      <trkpt lat="50.00829" lon="2.04918">
        <ele>10.8</ele>
        <time>2022-04-12T13:31:40Z</time>
      </trkpt>
      <trkpt lat="50.0083" lon="2.04918">
        <ele>10.8</ele>
        <time>2022-04-12T13:31:41Z</time>
      </trkpt>
      <trkpt lat="50.00832" lon="2.04917">
        <ele>10.8</ele>
        <time>2022-04-12T13:31:42Z</time>
      </trkpt>
      <trkpt lat="50.00833" lon="2.04917">
        <ele>10.8</ele>
        <time>2022-04-12T13:31:43Z</time>
      </trkpt>
      <trkpt lat="50.00834" lon="2.04917">
        <ele>10.8</ele>
        <time>2022-04-12T13:31:45Z</time>
      </trkpt>
      <trkpt lat="50.00835" lon="2.04916">
        <ele>10.8</ele>
        <time>2022-04-12T13:31:46Z</time>
      </trkpt>
      <trkpt lat="50.00836" lon="2.04916">
        <ele>10.8</ele>
        <time>2022-04-12T13:31:47Z</time>
      </trkpt>
      <trkpt lat="50.00837" lon="2.04916">
        <ele>10.8</ele>
        <time>2022-04-12T13:31:48Z</time>
      </trkpt>
      <trkpt lat="50.00838" lon="2.04916">
        <ele>10.8</ele>
        <time>2022-04-12T13:31:49Z</time>
      </trkpt>
      <trkpt lat="50.00839" lon="2.04915">
        <ele>10.8</ele>
        <time>2022-04-12T13:31:50Z</time>
      </trkpt>
      <trkpt lat="50.00841" lon="2.04915">
        <ele>10.8</ele>
        <time>2022-04-12T13:31:51Z</time>
      </trkpt>
      <trkpt lat="50.00842" lon="2.04914">
        <ele>10.9</ele>
        <time>2022-04-12T13:31:52Z</time>
      </trkpt>
      <trkpt lat="50.00843" lon="2.04914">
        <ele>10.9</ele>
        <time>2022-04-12T13:31:53Z</time>
      </trkpt>
      <trkpt lat="50.00844" lon="2.04913">
        <ele>10.9</ele>
        <time>2022-04-12T13:31:55Z</time>
      </trkpt>
      <trkpt lat="50.00846" lon="2.04912">
        <ele>10.9</ele>
        <time>2022-04-12T13:31:56Z</time>
      </trkpt>
      <trkpt lat="50.00847" lon="2.04912">
        <ele>10.9</ele>
        <time>2022-04-12T13:31:57Z</time>
      </trkpt>
      <trkpt lat="50.00848" lon="2.04911">
        <ele>10.9</ele>
        <time>2022-04-12T13:31:58Z</time>
      </trkpt>
      <trkpt lat="50.0085" lon="2.0491">
        <ele>10.9</ele>
        <time>2022-04-12T13:31:59Z</time>
      </trkpt>
      <trkpt lat="50.0085" lon="2.04909">
        <ele>10.9</ele>
        <time>2022-04-12T13:32:00Z</time>
      </trkpt>
      <trkpt lat="50.00851" lon="2.04908">
        <ele>10.9</ele>
        <time>2022-04-12T13:32:01Z</time>
      </trkpt>
      <trkpt lat="50.00854" lon="2.04907">
        <ele>10.9</ele>
        <time>2022-04-12T13:32:02Z</time>
      </trkpt>
      <trkpt lat="50.00855" lon="2.04907">
        <ele>11</ele>
        <time>2022-04-12T13:32:04Z</time>
      </trkpt>
      <trkpt lat="50.00856" lon="2.04906">
        <ele>11</ele>
        <time>2022-04-12T13:32:05Z</time>
      </trkpt>
      <trkpt lat="50.00857" lon="2.04906">
        <ele>11</ele>
        <time>2022-04-12T13:32:06Z</time>
      </trkpt>
      <trkpt lat="50.00858" lon="2.04905">
        <ele>11</ele>
        <time>2022-04-12T13:32:07Z</time>
      </trkpt>
      <trkpt lat="50.00859" lon="2.04904">
        <ele>11</ele>
        <time>2022-04-12T13:32:08Z</time>
      </trkpt>
      <trkpt lat="50.0086" lon="2.04904">
        <ele>11</ele>
        <time>2022-04-12T13:32:09Z</time>
      </trkpt>
      <trkpt lat="50.00861" lon="2.04903">
        <ele>11</ele>
        <time>2022-04-12T13:32:10Z</time>
      </trkpt>
      <trkpt lat="50.00862" lon="2.04902">
        <ele>11</ele>
        <time>2022-04-12T13:32:11Z</time>
      </trkpt>
      <trkpt lat="50.00863" lon="2.04901">
        <ele>11</ele>
        <time>2022-04-12T13:32:12Z</time>
      </trkpt>
      <trkpt lat="50.00864" lon="2.04901">
        <ele>11.1</ele>
        <time>2022-04-12T13:32:14Z</time>
      </trkpt>
      <trkpt lat="50.00865" lon="2.049">
        <ele>11.1</ele>
        <time>2022-04-12T13:32:15Z</time>
      </trkpt>
      <trkpt lat="50.00866" lon="2.049">
        <ele>11.1</ele>
        <time>2022-04-12T13:32:16Z</time>
      </trkpt>
      <trkpt lat="50.00868" lon="2.04899">
        <ele>11.1</ele>
        <time>2022-04-12T13:32:17Z</time>
      </trkpt>
      <trkpt lat="50.00869" lon="2.04899">
        <ele>11.1</ele>
        <time>2022-04-12T13:32:18Z</time>
      </trkpt>
      <trkpt lat="50.0087" lon="2.04898">
        <ele>11.1</ele>
        <time>2022-04-12T13:32:19Z</time>
      </trkpt>
      <trkpt lat="50.00871" lon="2.04897">
        <ele>11.1</ele>
        <time>2022-04-12T13:32:20Z</time>
      </trkpt>
      <trkpt lat="50.00873" lon="2.04896">
        <ele>11.2</ele>
        <time>2022-04-12T13:32:21Z</time>
      </trkpt>
      <trkpt lat="50.00874" lon="2.04895">
        <ele>11.2</ele>
        <time>2022-04-12T13:32:23Z</time>
      </trkpt>
      <trkpt lat="50.00874" lon="2.04895">
        <ele>11.2</ele>
        <time>2022-04-12T13:32:24Z</time>
      </trkpt>
      <trkpt lat="50.00875" lon="2.04894">
        <ele>11.2</ele>
        <time>2022-04-12T13:32:25Z</time>
      </trkpt>
      <trkpt lat="50.00876" lon="2.04893">
        <ele>11.2</ele>
        <time>2022-04-12T13:32:26Z</time>
      </trkpt>
      <trkpt lat="50.00877" lon="2.04893">
        <ele>11.2</ele>
        <time>2022-04-12T13:32:27Z</time>
      </trkpt>
      <trkpt lat="50.00879" lon="2.04891">
        <ele>11.2</ele>
        <time>2022-04-12T13:32:28Z</time>
      </trkpt>
      <trkpt lat="50.0088" lon="2.0489">
        <ele>11.2</ele>
        <time>2022-04-12T13:32:29Z</time>
      </trkpt>
      <trkpt lat="50.00881" lon="2.0489">
        <ele>11.2</ele>
        <time>2022-04-12T13:32:30Z</time>
      </trkpt>
      <trkpt lat="50.00882" lon="2.04888">
        <ele>11.3</ele>
        <time>2022-04-12T13:32:31Z</time>
      </trkpt>
      <trkpt lat="50.00883" lon="2.04888">
        <ele>11.3</ele>
        <time>2022-04-12T13:32:33Z</time>
      </trkpt>
      <trkpt lat="50.00884" lon="2.04887">
        <ele>11.3</ele>
        <time>2022-04-12T13:32:34Z</time>
      </trkpt>
      <trkpt lat="50.00885" lon="2.04886">
        <ele>11.3</ele>
        <time>2022-04-12T13:32:35Z</time>
      </trkpt>
      <trkpt lat="50.00886" lon="2.04885">
        <ele>11.3</ele>
        <time>2022-04-12T13:32:36Z</time>
      </trkpt>
      <trkpt lat="50.00887" lon="2.04884">
        <ele>11.3</ele>
        <time>2022-04-12T13:32:37Z</time>
      </trkpt>
      <trkpt lat="50.00888" lon="2.04883">
        <ele>11.3</ele>
        <time>2022-04-12T13:32:38Z</time>
      </trkpt>
      <trkpt lat="50.00889" lon="2.04882">
        <ele>11.3</ele>
        <time>2022-04-12T13:32:39Z</time>
      </trkpt>
      <trkpt lat="50.0089" lon="2.04881">
        <ele>11.4</ele>
        <time>2022-04-12T13:32:41Z</time>
      </trkpt>
      <trkpt lat="50.00891" lon="2.0488">
        <ele>11.4</ele>
        <time>2022-04-12T13:32:42Z</time>
      </trkpt>
      <trkpt lat="50.00892" lon="2.04879">
        <ele>11.4</ele>
        <time>2022-04-12T13:32:43Z</time>
      </trkpt>
      <trkpt lat="50.00893" lon="2.04878">
        <ele>11.4</ele>
        <time>2022-04-12T13:32:44Z</time>
      </trkpt>
      <trkpt lat="50.00894" lon="2.04877">
        <ele>11.4</ele>
        <time>2022-04-12T13:32:45Z</time>
      </trkpt>
      <trkpt lat="50.00895" lon="2.04876">
        <ele>11.4</ele>
        <time>2022-04-12T13:32:46Z</time>
      </trkpt>
      <trkpt lat="50.00896" lon="2.04875">
        <ele>11.4</ele>
        <time>2022-04-12T13:32:47Z</time>
      </trkpt>
      <trkpt lat="50.00897" lon="2.04874">
        <ele>11.4</ele>
        <time>2022-04-12T13:32:49Z</time>
      </trkpt>
      <trkpt lat="50.00898" lon="2.04873">
        <ele>11.4</ele>
        <time>2022-04-12T13:32:50Z</time>
      </trkpt>
      <trkpt lat="50.00898" lon="2.04872">
        <ele>11.5</ele>
        <time>2022-04-12T13:32:51Z</time>
      </trkpt>
      <trkpt lat="50.00899" lon="2.04871">
        <ele>11.5</ele>
        <time>2022-04-12T13:32:52Z</time>
      </trkpt>
      <trkpt lat="50.009" lon="2.0487">
        <ele>11.5</ele>
        <time>2022-04-12T13:32:53Z</time>
      </trkpt>
      <trkpt lat="50.009" lon="2.04868">
        <ele>11.5</ele>
        <time>2022-04-12T13:32:54Z</time>
      </trkpt>
      <trkpt lat="50.00901" lon="2.04867">
        <ele>11.5</ele>
        <time>2022-04-12T13:32:56Z</time>
      </trkpt>
      <trkpt lat="50.00901" lon="2.04866">
        <ele>11.5</ele>
        <time>2022-04-12T13:32:57Z</time>
      </trkpt>
      <trkpt lat="50.00902" lon="2.04864">
        <ele>11.5</ele>
        <time>2022-04-12T13:32:59Z</time>
      </trkpt>
      <trkpt lat="50.00901" lon="2.04863">
        <ele>11.5</ele>
        <time>2022-04-12T13:33:00Z</time>
      </trkpt>
      <trkpt lat="50.00901" lon="2.04863">
        <ele>11.5</ele>
        <time>2022-04-12T13:33:01Z</time>
      </trkpt>
      <trkpt lat="50.00901" lon="2.04862">
        <ele>11.5</ele>
        <time>2022-04-12T13:33:02Z</time>
      </trkpt>
      <trkpt lat="50.009" lon="2.04862">
        <ele>11.5</ele>
        <time>2022-04-12T13:33:03Z</time>
      </trkpt>
      <trkpt lat="50.009" lon="2.04862">
        <ele>11.5</ele>
        <time>2022-04-12T13:33:04Z</time>
      </trkpt>
      <trkpt lat="50.009" lon="2.04862">
        <ele>11.5</ele>
        <time>2022-04-12T13:33:05Z</time>
      </trkpt>
      <trkpt lat="50.00901" lon="2.04862">
        <ele>11.5</ele>
        <time>2022-04-12T13:33:07Z</time>
      </trkpt>
      <trkpt lat="50.00901" lon="2.04862">
        <ele>11.5</ele>
        <time>2022-04-12T13:33:08Z</time>
      </trkpt>
      <trkpt lat="50.00901" lon="2.04862">
        <ele>11.5</ele>
        <time>2022-04-12T13:33:09Z</time>
      </trkpt>
      <trkpt lat="50.00902" lon="2.04863">
        <ele>11.5</ele>
        <time>2022-04-12T13:33:10Z</time>
      </trkpt>
      <trkpt lat="50.00902" lon="2.04864">
        <ele>11.5</ele>
        <time>2022-04-12T13:33:11Z</time>
      </trkpt>
      <trkpt lat="50.00902" lon="2.04864">
        <ele>11.5</ele>
        <time>2022-04-12T13:33:12Z</time>
      </trkpt>
      <trkpt lat="50.00902" lon="2.04864">
        <ele>11.5</ele>
        <time>2022-04-12T13:33:13Z</time>
      </trkpt>
      <trkpt lat="50.00903" lon="2.04864">
        <ele>11.5</ele>
        <time>2022-04-12T13:33:14Z</time>
      </trkpt>
      <trkpt lat="50.00903" lon="2.04864">
        <ele>11.5</ele>
        <time>2022-04-12T13:33:15Z</time>
      </trkpt>
      <trkpt lat="50.00903" lon="2.04864">
        <ele>11.5</ele>
        <time>2022-04-12T13:33:16Z</time>
      </trkpt>
      <trkpt lat="50.00903" lon="2.04863">
        <ele>11.5</ele>
        <time>2022-04-12T13:33:17Z</time>
      </trkpt>
      <trkpt lat="50.00904" lon="2.04863">
        <ele>11.5</ele>
        <time>2022-04-12T13:33:18Z</time>
      </trkpt>
      <trkpt lat="50.00904" lon="2.04862">
        <ele>11.5</ele>
        <time>2022-04-12T13:33:19Z</time>
      </trkpt>
      <trkpt lat="50.00904" lon="2.04862">
        <ele>11.5</ele>
        <time>2022-04-12T13:33:20Z</time>
      </trkpt>
      <trkpt lat="50.00905" lon="2.04861">
        <ele>11.5</ele>
        <time>2022-04-12T13:33:21Z</time>
      </trkpt>
      <trkpt lat="50.00906" lon="2.0486">
        <ele>11.5</ele>
        <time>2022-04-12T13:33:22Z</time>
      </trkpt>
      <trkpt lat="50.00906" lon="2.04859">
        <ele>11.5</ele>
        <time>2022-04-12T13:33:23Z</time>
      </trkpt>
      <trkpt lat="50.00907" lon="2.04858">
        <ele>11.5</ele>
        <time>2022-04-12T13:33:25Z</time>
      </trkpt>
      <trkpt lat="50.00908" lon="2.04858">
        <ele>11.5</ele>
        <time>2022-04-12T13:33:26Z</time>
      </trkpt>
      <trkpt lat="50.00908" lon="2.04857">
        <ele>11.5</ele>
        <time>2022-04-12T13:33:27Z</time>
      </trkpt>
      <trkpt lat="50.00908" lon="2.04857">
        <ele>11.5</ele>
        <time>2022-04-12T13:33:28Z</time>
      </trkpt>
      <trkpt lat="50.00909" lon="2.04856">
        <ele>11.5</ele>
        <time>2022-04-12T13:33:29Z</time>
      </trkpt>
      <trkpt lat="50.0091" lon="2.04855">
        <ele>11.5</ele>
        <time>2022-04-12T13:33:30Z</time>
      </trkpt>
      <trkpt lat="50.00911" lon="2.04855">
        <ele>11.5</ele>
        <time>2022-04-12T13:33:32Z</time>
      </trkpt>
      <trkpt lat="50.00911" lon="2.04854">
        <ele>11.5</ele>
        <time>2022-04-12T13:33:33Z</time>
      </trkpt>
      <trkpt lat="50.00912" lon="2.04852">
        <ele>11.5</ele>
        <time>2022-04-12T13:33:34Z</time>
      </trkpt>
      <trkpt lat="50.00913" lon="2.04851">
        <ele>11.5</ele>
        <time>2022-04-12T13:33:35Z</time>
      </trkpt>
      <trkpt lat="50.00914" lon="2.04849">
        <ele>11.5</ele>
        <time>2022-04-12T13:33:36Z</time>
      </trkpt>
      <trkpt lat="50.00915" lon="2.04848">
        <ele>11.5</ele>
        <time>2022-04-12T13:33:37Z</time>
      </trkpt>
      <trkpt lat="50.00916" lon="2.04846">
        <ele>11.5</ele>
        <time>2022-04-12T13:33:39Z</time>
      </trkpt>
      <trkpt lat="50.00917" lon="2.04845">
        <ele>11.5</ele>
        <time>2022-04-12T13:33:40Z</time>
      </trkpt>
      <trkpt lat="50.00918" lon="2.04843">
        <ele>11.5</ele>
        <time>2022-04-12T13:33:41Z</time>
      </trkpt>
      <trkpt lat="50.00919" lon="2.04842">
        <ele>11.5</ele>
        <time>2022-04-12T13:33:42Z</time>
      </trkpt>
      <trkpt lat="50.0092" lon="2.0484">
        <ele>11.5</ele>
        <time>2022-04-12T13:33:43Z</time>
      </trkpt>
      <trkpt lat="50.0092" lon="2.0484">
        <ele>11.5</ele>
        <time>2022-04-12T13:33:44Z</time>
      </trkpt>
      <trkpt lat="50.0092" lon="2.04839">
        <ele>11.5</ele>
        <time>2022-04-12T13:33:45Z</time>
      </trkpt>
      <trkpt lat="50.00921" lon="2.04838">
        <ele>11.5</ele>
        <time>2022-04-12T13:33:47Z</time>
      </trkpt>
      <trkpt lat="50.00922" lon="2.04837">
        <ele>11.5</ele>
        <time>2022-04-12T13:33:48Z</time>
      </trkpt>
      <trkpt lat="50.00922" lon="2.04837">
        <ele>11.4</ele>
        <time>2022-04-12T13:33:49Z</time>
      </trkpt>
      <trkpt lat="50.00923" lon="2.04837">
        <ele>11.4</ele>
        <time>2022-04-12T13:33:50Z</time>
      </trkpt>
      <trkpt lat="50.00924" lon="2.04838">
        <ele>11.4</ele>
        <time>2022-04-12T13:33:52Z</time>
      </trkpt>
      <trkpt lat="50.00925" lon="2.04838">
        <ele>11.4</ele>
        <time>2022-04-12T13:33:53Z</time>
      </trkpt>
      <trkpt lat="50.00925" lon="2.04839">
        <ele>11.4</ele>
        <time>2022-04-12T13:33:54Z</time>
      </trkpt>
      <trkpt lat="50.00925" lon="2.04839">
        <ele>11.4</ele>
        <time>2022-04-12T13:33:55Z</time>
      </trkpt>
      <trkpt lat="50.00925" lon="2.04839">
        <ele>11.4</ele>
        <time>2022-04-12T13:33:56Z</time>
      </trkpt>
      <trkpt lat="50.00925" lon="2.04839">
        <ele>11.4</ele>
        <time>2022-04-12T13:33:57Z</time>
      </trkpt>
      <trkpt lat="50.00925" lon="2.04839">
        <ele>11.4</ele>
        <time>2022-04-12T13:33:58Z</time>
      </trkpt>
      <trkpt lat="50.00925" lon="2.04839">
        <ele>11.4</ele>
        <time>2022-04-12T13:33:59Z</time>
      </trkpt>
      <trkpt lat="50.00925" lon="2.04839">
        <ele>11.4</ele>
        <time>2022-04-12T13:34:00Z</time>
      </trkpt>
      <trkpt lat="50.00925" lon="2.04839">
        <ele>11.4</ele>
        <time>2022-04-12T13:34:01Z</time>
      </trkpt>
      <trkpt lat="50.00925" lon="2.04839">
        <ele>11.4</ele>
        <time>2022-04-12T13:34:02Z</time>
      </trkpt>
      <trkpt lat="50.00925" lon="2.04838">
        <ele>11.4</ele>
        <time>2022-04-12T13:34:03Z</time>
      </trkpt>
      <trkpt lat="50.00925" lon="2.04838">
        <ele>11.4</ele>
        <time>2022-04-12T13:34:04Z</time>
      </trkpt>
      <trkpt lat="50.00925" lon="2.04837">
        <ele>11.4</ele>
        <time>2022-04-12T13:34:05Z</time>
      </trkpt>
      <trkpt lat="50.00925" lon="2.04836">
        <ele>11.4</ele>
        <time>2022-04-12T13:34:07Z</time>
      </trkpt>
      <trkpt lat="50.00925" lon="2.04836">
        <ele>11.4</ele>
        <time>2022-04-12T13:34:08Z</time>
      </trkpt>
      <trkpt lat="50.00925" lon="2.04835">
        <ele>11.4</ele>
        <time>2022-04-12T13:34:09Z</time>
      </trkpt>
      <trkpt lat="50.00925" lon="2.04834">
        <ele>11.4</ele>
        <time>2022-04-12T13:34:10Z</time>
      </trkpt>
      <trkpt lat="50.00925" lon="2.04834">
        <ele>11.4</ele>
        <time>2022-04-12T13:34:11Z</time>
      </trkpt>
      <trkpt lat="50.00926" lon="2.04833">
        <ele>11.4</ele>
        <time>2022-04-12T13:34:12Z</time>
      </trkpt>
      <trkpt lat="50.00926" lon="2.04833">
        <ele>11.4</ele>
        <time>2022-04-12T13:34:13Z</time>
      </trkpt>
      <trkpt lat="50.00927" lon="2.04832">
        <ele>11.4</ele>
        <time>2022-04-12T13:34:14Z</time>
      </trkpt>
      <trkpt lat="50.00927" lon="2.04832">
        <ele>11.4</ele>
        <time>2022-04-12T13:34:15Z</time>
      </trkpt>
      <trkpt lat="50.00928" lon="2.04831">
        <ele>11.4</ele>
        <time>2022-04-12T13:34:16Z</time>
      </trkpt>
      <trkpt lat="50.00928" lon="2.04831">
        <ele>11.4</ele>
        <time>2022-04-12T13:34:17Z</time>
      </trkpt>
      <trkpt lat="50.00928" lon="2.04831">
        <ele>11.4</ele>
        <time>2022-04-12T13:34:18Z</time>
      </trkpt>
      <trkpt lat="50.00928" lon="2.04831">
        <ele>11.4</ele>
        <time>2022-04-12T13:34:19Z</time>
      </trkpt>
      <trkpt lat="50.00929" lon="2.0483">
        <ele>11.4</ele>
        <time>2022-04-12T13:34:20Z</time>
      </trkpt>
      <trkpt lat="50.00929" lon="2.0483">
        <ele>11.4</ele>
        <time>2022-04-12T13:34:21Z</time>
      </trkpt>
      <trkpt lat="50.00929" lon="2.0483">
        <ele>11.4</ele>
        <time>2022-04-12T13:34:22Z</time>
      </trkpt>
      <trkpt lat="50.0093" lon="2.0483">
        <ele>11.4</ele>
        <time>2022-04-12T13:34:24Z</time>
      </trkpt>
      <trkpt lat="50.0093" lon="2.04829">
        <ele>11.4</ele>
        <time>2022-04-12T13:34:25Z</time>
      </trkpt>
      <trkpt lat="50.00931" lon="2.04829">
        <ele>11.4</ele>
        <time>2022-04-12T13:34:26Z</time>
      </trkpt>
      <trkpt lat="50.00932" lon="2.04828">
        <ele>11.4</ele>
        <time>2022-04-12T13:34:27Z</time>
      </trkpt>
      <trkpt lat="50.00932" lon="2.04827">
        <ele>11.4</ele>
        <time>2022-04-12T13:34:28Z</time>
      </trkpt>
      <trkpt lat="50.00933" lon="2.04826">
        <ele>11.4</ele>
        <time>2022-04-12T13:34:29Z</time>
      </trkpt>
      <trkpt lat="50.00934" lon="2.04826">
        <ele>11.4</ele>
        <time>2022-04-12T13:34:30Z</time>
      </trkpt>
      <trkpt lat="50.00935" lon="2.04825">
        <ele>11.4</ele>
        <time>2022-04-12T13:34:31Z</time>
      </trkpt>
      <trkpt lat="50.00937" lon="2.04825">
        <ele>11.4</ele>
        <time>2022-04-12T13:34:32Z</time>
      </trkpt>
      <trkpt lat="50.00938" lon="2.04825">
        <ele>11.4</ele>
        <time>2022-04-12T13:34:33Z</time>
      </trkpt>
      <trkpt lat="50.00939" lon="2.04824">
        <ele>11.4</ele>
        <time>2022-04-12T13:34:34Z</time>
      </trkpt>
      <trkpt lat="50.00939" lon="2.04824">
        <ele>11.4</ele>
        <time>2022-04-12T13:34:35Z</time>
      </trkpt>
      <trkpt lat="50.0094" lon="2.04823">
        <ele>11.4</ele>
        <time>2022-04-12T13:34:36Z</time>
      </trkpt>
      <trkpt lat="50.00941" lon="2.04823">
        <ele>11.4</ele>
        <time>2022-04-12T13:34:37Z</time>
      </trkpt>
      <trkpt lat="50.00943" lon="2.0482">
        <ele>11.4</ele>
        <time>2022-04-12T13:34:38Z</time>
      </trkpt>
      <trkpt lat="50.00943" lon="2.04819">
        <ele>11.4</ele>
        <time>2022-04-12T13:34:39Z</time>
      </trkpt>
      <trkpt lat="50.00944" lon="2.04818">
        <ele>11.4</ele>
        <time>2022-04-12T13:34:40Z</time>
      </trkpt>
      <trkpt lat="50.00946" lon="2.04816">
        <ele>11.4</ele>
        <time>2022-04-12T13:34:42Z</time>
      </trkpt>
      <trkpt lat="50.00946" lon="2.04815">
        <ele>11.4</ele>
        <time>2022-04-12T13:34:43Z</time>
      </trkpt>
      <trkpt lat="50.00947" lon="2.04814">
        <ele>11.4</ele>
        <time>2022-04-12T13:34:44Z</time>
      </trkpt>
      <trkpt lat="50.00948" lon="2.04812">
        <ele>11.4</ele>
        <time>2022-04-12T13:34:45Z</time>
      </trkpt>
      <trkpt lat="50.00948" lon="2.04811">
        <ele>11.4</ele>
        <time>2022-04-12T13:34:46Z</time>
      </trkpt>
      <trkpt lat="50.00949" lon="2.0481">
        <ele>11.4</ele>
        <time>2022-04-12T13:34:47Z</time>
      </trkpt>
      <trkpt lat="50.0095" lon="2.04808">
        <ele>11.5</ele>
        <time>2022-04-12T13:34:48Z</time>
      </trkpt>
      <trkpt lat="50.00951" lon="2.04807">
        <ele>11.5</ele>
        <time>2022-04-12T13:34:49Z</time>
      </trkpt>
      <trkpt lat="50.00952" lon="2.04806">
        <ele>11.5</ele>
        <time>2022-04-12T13:34:51Z</time>
      </trkpt>
      <trkpt lat="50.00953" lon="2.04805">
        <ele>11.5</ele>
        <time>2022-04-12T13:34:52Z</time>
      </trkpt>
      <trkpt lat="50.00954" lon="2.04803">
        <ele>11.5</ele>
        <time>2022-04-12T13:34:53Z</time>
      </trkpt>
      <trkpt lat="50.00954" lon="2.04802">
        <ele>11.5</ele>
        <time>2022-04-12T13:34:54Z</time>
      </trkpt>
      <trkpt lat="50.00955" lon="2.04801">
        <ele>11.5</ele>
        <time>2022-04-12T13:34:56Z</time>
      </trkpt>
      <trkpt lat="50.00956" lon="2.04801">
        <ele>11.5</ele>
        <time>2022-04-12T13:34:57Z</time>
      </trkpt>
      <trkpt lat="50.00956" lon="2.048">
        <ele>11.5</ele>
        <time>2022-04-12T13:34:58Z</time>
      </trkpt>
      <trkpt lat="50.00956" lon="2.04799">
        <ele>11.5</ele>
        <time>2022-04-12T13:34:59Z</time>
      </trkpt>
      <trkpt lat="50.00957" lon="2.04797">
        <ele>11.5</ele>
        <time>2022-04-12T13:35:00Z</time>
      </trkpt>
      <trkpt lat="50.00958" lon="2.04796">
        <ele>11.5</ele>
        <time>2022-04-12T13:35:01Z</time>
      </trkpt>
      <trkpt lat="50.00958" lon="2.04795">
        <ele>11.5</ele>
        <time>2022-04-12T13:35:02Z</time>
      </trkpt>
      <trkpt lat="50.00959" lon="2.04794">
        <ele>11.5</ele>
        <time>2022-04-12T13:35:04Z</time>
      </trkpt>
      <trkpt lat="50.0096" lon="2.04794">
        <ele>11.5</ele>
        <time>2022-04-12T13:35:05Z</time>
      </trkpt>
      <trkpt lat="50.0096" lon="2.04793">
        <ele>11.5</ele>
        <time>2022-04-12T13:35:06Z</time>
      </trkpt>
      <trkpt lat="50.00961" lon="2.04793">
        <ele>11.5</ele>
        <time>2022-04-12T13:35:07Z</time>
      </trkpt>
      <trkpt lat="50.00961" lon="2.04793">
        <ele>11.5</ele>
        <time>2022-04-12T13:35:08Z</time>
      </trkpt>
      <trkpt lat="50.00962" lon="2.04792">
        <ele>11.5</ele>
        <time>2022-04-12T13:35:09Z</time>
      </trkpt>
      <trkpt lat="50.00963" lon="2.0479">
        <ele>11.5</ele>
        <time>2022-04-12T13:35:10Z</time>
      </trkpt>
      <trkpt lat="50.00964" lon="2.04789">
        <ele>11.5</ele>
        <time>2022-04-12T13:35:11Z</time>
      </trkpt>
      <trkpt lat="50.00965" lon="2.04788">
        <ele>11.5</ele>
        <time>2022-04-12T13:35:13Z</time>
      </trkpt>
      <trkpt lat="50.00965" lon="2.04787">
        <ele>11.5</ele>
        <time>2022-04-12T13:35:14Z</time>
      </trkpt>
      <trkpt lat="50.00966" lon="2.04786">
        <ele>11.5</ele>
        <time>2022-04-12T13:35:15Z</time>
      </trkpt>
      <trkpt lat="50.00967" lon="2.04785">
        <ele>11.5</ele>
        <time>2022-04-12T13:35:16Z</time>
      </trkpt>
      <trkpt lat="50.00968" lon="2.04783">
        <ele>11.5</ele>
        <time>2022-04-12T13:35:17Z</time>
      </trkpt>
      <trkpt lat="50.00969" lon="2.04782">
        <ele>11.5</ele>
        <time>2022-04-12T13:35:18Z</time>
      </trkpt>
      <trkpt lat="50.0097" lon="2.04781">
        <ele>11.5</ele>
        <time>2022-04-12T13:35:19Z</time>
      </trkpt>
      <trkpt lat="50.00971" lon="2.0478">
        <ele>11.5</ele>
        <time>2022-04-12T13:35:20Z</time>
      </trkpt>
      <trkpt lat="50.00972" lon="2.04779">
        <ele>11.5</ele>
        <time>2022-04-12T13:35:21Z</time>
      </trkpt>
      <trkpt lat="50.00973" lon="2.04778">
        <ele>11.5</ele>
        <time>2022-04-12T13:35:23Z</time>
      </trkpt>
      <trkpt lat="50.00974" lon="2.04776">
        <ele>11.5</ele>
        <time>2022-04-12T13:35:24Z</time>
      </trkpt>
      <trkpt lat="50.00975" lon="2.04775">
        <ele>11.5</ele>
        <time>2022-04-12T13:35:25Z</time>
      </trkpt>
      <trkpt lat="50.00976" lon="2.04774">
        <ele>11.5</ele>
        <time>2022-04-12T13:35:26Z</time>
      </trkpt>
      <trkpt lat="50.00977" lon="2.04773">
        <ele>11.5</ele>
        <time>2022-04-12T13:35:27Z</time>
      </trkpt>
      <trkpt lat="50.00978" lon="2.04772">
        <ele>11.5</ele>
        <time>2022-04-12T13:35:28Z</time>
      </trkpt>
      <trkpt lat="50.0098" lon="2.04771">
        <ele>11.5</ele>
        <time>2022-04-12T13:35:29Z</time>
      </trkpt>
      <trkpt lat="50.00982" lon="2.04769">
        <ele>11.5</ele>
        <time>2022-04-12T13:35:30Z</time>
      </trkpt>
      <trkpt lat="50.00982" lon="2.04769">
        <ele>11.4</ele>
        <time>2022-04-12T13:35:31Z</time>
      </trkpt>
      <trkpt lat="50.00983" lon="2.04768">
        <ele>11.4</ele>
        <time>2022-04-12T13:35:32Z</time>
      </trkpt>
      <trkpt lat="50.00984" lon="2.04768">
        <ele>11.4</ele>
        <time>2022-04-12T13:35:34Z</time>
      </trkpt>
      <trkpt lat="50.00985" lon="2.04767">
        <ele>11.4</ele>
        <time>2022-04-12T13:35:35Z</time>
      </trkpt>
      <trkpt lat="50.00986" lon="2.04767">
        <ele>11.4</ele>
        <time>2022-04-12T13:35:36Z</time>
      </trkpt>
      <trkpt lat="50.00987" lon="2.04766">
        <ele>11.4</ele>
        <time>2022-04-12T13:35:37Z</time>
      </trkpt>
      <trkpt lat="50.00988" lon="2.04766">
        <ele>11.4</ele>
        <time>2022-04-12T13:35:38Z</time>
      </trkpt>
      <trkpt lat="50.00989" lon="2.04766">
        <ele>11.4</ele>
        <time>2022-04-12T13:35:39Z</time>
      </trkpt>
      <trkpt lat="50.00991" lon="2.04765">
        <ele>11.4</ele>
        <time>2022-04-12T13:35:40Z</time>
      </trkpt>
      <trkpt lat="50.00992" lon="2.04764">
        <ele>11.4</ele>
        <time>2022-04-12T13:35:41Z</time>
      </trkpt>
      <trkpt lat="50.00993" lon="2.04763">
        <ele>11.4</ele>
        <time>2022-04-12T13:35:42Z</time>
      </trkpt>
      <trkpt lat="50.00993" lon="2.04762">
        <ele>11.4</ele>
        <time>2022-04-12T13:35:44Z</time>
      </trkpt>
      <trkpt lat="50.00994" lon="2.04761">
        <ele>11.4</ele>
        <time>2022-04-12T13:35:45Z</time>
      </trkpt>
      <trkpt lat="50.00995" lon="2.04761">
        <ele>11.4</ele>
        <time>2022-04-12T13:35:46Z</time>
      </trkpt>
      <trkpt lat="50.00996" lon="2.04759">
        <ele>11.4</ele>
        <time>2022-04-12T13:35:47Z</time>
      </trkpt>
      <trkpt lat="50.00997" lon="2.04758">
        <ele>11.4</ele>
        <time>2022-04-12T13:35:48Z</time>
      </trkpt>
      <trkpt lat="50.00998" lon="2.04757">
        <ele>11.4</ele>
        <time>2022-04-12T13:35:49Z</time>
      </trkpt>
      <trkpt lat="50.00999" lon="2.04757">
        <ele>11.4</ele>
        <time>2022-04-12T13:35:50Z</time>
      </trkpt>
      <trkpt lat="50.01" lon="2.04756">
        <ele>11.4</ele>
        <time>2022-04-12T13:35:51Z</time>
      </trkpt>
      <trkpt lat="50.01001" lon="2.04756">
        <ele>11.4</ele>
        <time>2022-04-12T13:35:52Z</time>
      </trkpt>
      <trkpt lat="50.01002" lon="2.04755">
        <ele>11.4</ele>
        <time>2022-04-12T13:35:54Z</time>
      </trkpt>
      <trkpt lat="50.01003" lon="2.04754">
        <ele>11.4</ele>
        <time>2022-04-12T13:35:55Z</time>
      </trkpt>
      <trkpt lat="50.01004" lon="2.04754">
        <ele>11.4</ele>
        <time>2022-04-12T13:35:56Z</time>
      </trkpt>
      <trkpt lat="50.01005" lon="2.04753">
        <ele>11.4</ele>
        <time>2022-04-12T13:35:57Z</time>
      </trkpt>
      <trkpt lat="50.01006" lon="2.04752">
        <ele>11.4</ele>
        <time>2022-04-12T13:35:58Z</time>
      </trkpt>
      <trkpt lat="50.01007" lon="2.04752">
        <ele>11.4</ele>
        <time>2022-04-12T13:35:59Z</time>
      </trkpt>
      <trkpt lat="50.01009" lon="2.04751">
        <ele>11.4</ele>
        <time>2022-04-12T13:36:00Z</time>
      </trkpt>
      <trkpt lat="50.0101" lon="2.0475">
        <ele>11.4</ele>
        <time>2022-04-12T13:36:01Z</time>
      </trkpt>
      <trkpt lat="50.01011" lon="2.0475">
        <ele>11.4</ele>
        <time>2022-04-12T13:36:02Z</time>
      </trkpt>
      <trkpt lat="50.01012" lon="2.0475">
        <ele>11.4</ele>
        <time>2022-04-12T13:36:04Z</time>
      </trkpt>
      <trkpt lat="50.01013" lon="2.04749">
        <ele>11.4</ele>
        <time>2022-04-12T13:36:05Z</time>
      </trkpt>
      <trkpt lat="50.01014" lon="2.04749">
        <ele>11.4</ele>
        <time>2022-04-12T13:36:06Z</time>
      </trkpt>
      <trkpt lat="50.01016" lon="2.04749">
        <ele>11.4</ele>
        <time>2022-04-12T13:36:07Z</time>
      </trkpt>
      <trkpt lat="50.01017" lon="2.04748">
        <ele>11.4</ele>
        <time>2022-04-12T13:36:08Z</time>
      </trkpt>
      <trkpt lat="50.01018" lon="2.04748">
        <ele>11.5</ele>
        <time>2022-04-12T13:36:09Z</time>
      </trkpt>
      <trkpt lat="50.01019" lon="2.04748">
        <ele>11.5</ele>
        <time>2022-04-12T13:36:10Z</time>
      </trkpt>
      <trkpt lat="50.01021" lon="2.04747">
        <ele>11.5</ele>
        <time>2022-04-12T13:36:11Z</time>
      </trkpt>
      <trkpt lat="50.01022" lon="2.04747">
        <ele>11.5</ele>
        <time>2022-04-12T13:36:12Z</time>
      </trkpt>
      <trkpt lat="50.01023" lon="2.04746">
        <ele>11.5</ele>
        <time>2022-04-12T13:36:14Z</time>
      </trkpt>
      <trkpt lat="50.01024" lon="2.04746">
        <ele>11.5</ele>
        <time>2022-04-12T13:36:15Z</time>
      </trkpt>
      <trkpt lat="50.01026" lon="2.04745">
        <ele>11.5</ele>
        <time>2022-04-12T13:36:16Z</time>
      </trkpt>
      <trkpt lat="50.01027" lon="2.04745">
        <ele>11.5</ele>
        <time>2022-04-12T13:36:17Z</time>
      </trkpt>
      <trkpt lat="50.01028" lon="2.04745">
        <ele>11.5</ele>
        <time>2022-04-12T13:36:18Z</time>
      </trkpt>
      <trkpt lat="50.01029" lon="2.04744">
        <ele>11.5</ele>
        <time>2022-04-12T13:36:19Z</time>
      </trkpt>
      <trkpt lat="50.0103" lon="2.04743">
        <ele>11.6</ele>
        <time>2022-04-12T13:36:20Z</time>
      </trkpt>
      <trkpt lat="50.01031" lon="2.04743">
        <ele>11.6</ele>
        <time>2022-04-12T13:36:21Z</time>
      </trkpt>
      <trkpt lat="50.01032" lon="2.04742">
        <ele>11.6</ele>
        <time>2022-04-12T13:36:22Z</time>
      </trkpt>
      <trkpt lat="50.01033" lon="2.04742">
        <ele>11.6</ele>
        <time>2022-04-12T13:36:24Z</time>
      </trkpt>
      <trkpt lat="50.01034" lon="2.04741">
        <ele>11.6</ele>
        <time>2022-04-12T13:36:25Z</time>
      </trkpt>
      <trkpt lat="50.01035" lon="2.04741">
        <ele>11.6</ele>
        <time>2022-04-12T13:36:26Z</time>
      </trkpt>
      <trkpt lat="50.01036" lon="2.04741">
        <ele>11.6</ele>
        <time>2022-04-12T13:36:27Z</time>
      </trkpt>
      <trkpt lat="50.01037" lon="2.0474">
        <ele>11.6</ele>
        <time>2022-04-12T13:36:28Z</time>
      </trkpt>
      <trkpt lat="50.01038" lon="2.0474">
        <ele>11.6</ele>
        <time>2022-04-12T13:36:29Z</time>
      </trkpt>
      <trkpt lat="50.01039" lon="2.04739">
        <ele>11.6</ele>
        <time>2022-04-12T13:36:30Z</time>
      </trkpt>
      <trkpt lat="50.0104" lon="2.04739">
        <ele>11.6</ele>
        <time>2022-04-12T13:36:31Z</time>
      </trkpt>
      <trkpt lat="50.01041" lon="2.04739">
        <ele>11.7</ele>
        <time>2022-04-12T13:36:32Z</time>
      </trkpt>
      <trkpt lat="50.01042" lon="2.04738">
        <ele>11.7</ele>
        <time>2022-04-12T13:36:34Z</time>
      </trkpt>
      <trkpt lat="50.01043" lon="2.04738">
        <ele>11.7</ele>
        <time>2022-04-12T13:36:35Z</time>
      </trkpt>
      <trkpt lat="50.01045" lon="2.04737">
        <ele>11.7</ele>
        <time>2022-04-12T13:36:36Z</time>
      </trkpt>
      <trkpt lat="50.01046" lon="2.04737">
        <ele>11.7</ele>
        <time>2022-04-12T13:36:37Z</time>
      </trkpt>
      <trkpt lat="50.01047" lon="2.04736">
        <ele>11.7</ele>
        <time>2022-04-12T13:36:38Z</time>
      </trkpt>
      <trkpt lat="50.01048" lon="2.04735">
        <ele>11.7</ele>
        <time>2022-04-12T13:36:39Z</time>
      </trkpt>
      <trkpt lat="50.01049" lon="2.04735">
        <ele>11.7</ele>
        <time>2022-04-12T13:36:40Z</time>
      </trkpt>
      <trkpt lat="50.01049" lon="2.04734">
        <ele>11.7</ele>
        <time>2022-04-12T13:36:41Z</time>
      </trkpt>
      <trkpt lat="50.0105" lon="2.04733">
        <ele>11.7</ele>
        <time>2022-04-12T13:36:42Z</time>
      </trkpt>
      <trkpt lat="50.01051" lon="2.04732">
        <ele>11.7</ele>
        <time>2022-04-12T13:36:44Z</time>
      </trkpt>
      <trkpt lat="50.01052" lon="2.04731">
        <ele>11.7</ele>
        <time>2022-04-12T13:36:45Z</time>
      </trkpt>
      <trkpt lat="50.01054" lon="2.0473">
        <ele>11.7</ele>
        <time>2022-04-12T13:36:46Z</time>
      </trkpt>
      <trkpt lat="50.01055" lon="2.04729">
        <ele>11.7</ele>
        <time>2022-04-12T13:36:47Z</time>
      </trkpt>
      <trkpt lat="50.01056" lon="2.04729">
        <ele>11.7</ele>
        <time>2022-04-12T13:36:48Z</time>
      </trkpt>
      <trkpt lat="50.01058" lon="2.04728">
        <ele>11.7</ele>
        <time>2022-04-12T13:36:49Z</time>
      </trkpt>
      <trkpt lat="50.01058" lon="2.04728">
        <ele>11.7</ele>
        <time>2022-04-12T13:36:50Z</time>
      </trkpt>
      <trkpt lat="50.01059" lon="2.04728">
        <ele>11.7</ele>
        <time>2022-04-12T13:36:51Z</time>
      </trkpt>
      <trkpt lat="50.01061" lon="2.04727">
        <ele>11.7</ele>
        <time>2022-04-12T13:36:53Z</time>
      </trkpt>
      <trkpt lat="50.01062" lon="2.04726">
        <ele>11.7</ele>
        <time>2022-04-12T13:36:54Z</time>
      </trkpt>
      <trkpt lat="50.01063" lon="2.04726">
        <ele>11.7</ele>
        <time>2022-04-12T13:36:55Z</time>
      </trkpt>
      <trkpt lat="50.01065" lon="2.04725">
        <ele>11.7</ele>
        <time>2022-04-12T13:36:56Z</time>
      </trkpt>
      <trkpt lat="50.01066" lon="2.04724">
        <ele>11.7</ele>
        <time>2022-04-12T13:36:57Z</time>
      </trkpt>
      <trkpt lat="50.01066" lon="2.04724">
        <ele>11.7</ele>
        <time>2022-04-12T13:36:58Z</time>
      </trkpt>
      <trkpt lat="50.01068" lon="2.04723">
        <ele>11.7</ele>
        <time>2022-04-12T13:36:59Z</time>
      </trkpt>
      <trkpt lat="50.01069" lon="2.04723">
        <ele>11.7</ele>
        <time>2022-04-12T13:37:00Z</time>
      </trkpt>
      <trkpt lat="50.0107" lon="2.04722">
        <ele>11.7</ele>
        <time>2022-04-12T13:37:02Z</time>
      </trkpt>
      <trkpt lat="50.01071" lon="2.04721">
        <ele>11.7</ele>
        <time>2022-04-12T13:37:03Z</time>
      </trkpt>
      <trkpt lat="50.01071" lon="2.04721">
        <ele>11.7</ele>
        <time>2022-04-12T13:37:04Z</time>
      </trkpt>
      <trkpt lat="50.01072" lon="2.0472">
        <ele>11.7</ele>
        <time>2022-04-12T13:37:05Z</time>
      </trkpt>
      <trkpt lat="50.01073" lon="2.0472">
        <ele>11.7</ele>
        <time>2022-04-12T13:37:06Z</time>
      </trkpt>
      <trkpt lat="50.01074" lon="2.0472">
        <ele>11.7</ele>
        <time>2022-04-12T13:37:07Z</time>
      </trkpt>
      <trkpt lat="50.01075" lon="2.04719">
        <ele>11.7</ele>
        <time>2022-04-12T13:37:08Z</time>
      </trkpt>
      <trkpt lat="50.01076" lon="2.04719">
        <ele>11.7</ele>
        <time>2022-04-12T13:37:09Z</time>
      </trkpt>
      <trkpt lat="50.01077" lon="2.04718">
        <ele>11.7</ele>
        <time>2022-04-12T13:37:11Z</time>
      </trkpt>
      <trkpt lat="50.01078" lon="2.04718">
        <ele>11.7</ele>
        <time>2022-04-12T13:37:12Z</time>
      </trkpt>
      <trkpt lat="50.01079" lon="2.04718">
        <ele>11.7</ele>
        <time>2022-04-12T13:37:13Z</time>
      </trkpt>
      <trkpt lat="50.0108" lon="2.04717">
        <ele>11.7</ele>
        <time>2022-04-12T13:37:14Z</time>
      </trkpt>
      <trkpt lat="50.01081" lon="2.04717">
        <ele>11.7</ele>
        <time>2022-04-12T13:37:15Z</time>
      </trkpt>
      <trkpt lat="50.01081" lon="2.04716">
        <ele>11.7</ele>
        <time>2022-04-12T13:37:16Z</time>
      </trkpt>
      <trkpt lat="50.01082" lon="2.04715">
        <ele>11.7</ele>
        <time>2022-04-12T13:37:17Z</time>
      </trkpt>
      <trkpt lat="50.01083" lon="2.04715">
        <ele>11.7</ele>
        <time>2022-04-12T13:37:18Z</time>
      </trkpt>
      <trkpt lat="50.01084" lon="2.04714">
        <ele>11.7</ele>
        <time>2022-04-12T13:37:20Z</time>
      </trkpt>
      <trkpt lat="50.01085" lon="2.04714">
        <ele>11.7</ele>
        <time>2022-04-12T13:37:21Z</time>
      </trkpt>
      <trkpt lat="50.01086" lon="2.04713">
        <ele>11.7</ele>
        <time>2022-04-12T13:37:22Z</time>
      </trkpt>
      <trkpt lat="50.01087" lon="2.04713">
        <ele>11.7</ele>
        <time>2022-04-12T13:37:23Z</time>
      </trkpt>
      <trkpt lat="50.01088" lon="2.04712">
        <ele>11.7</ele>
        <time>2022-04-12T13:37:24Z</time>
      </trkpt>
      <trkpt lat="50.01089" lon="2.04712">
        <ele>11.7</ele>
        <time>2022-04-12T13:37:25Z</time>
      </trkpt>
      <trkpt lat="50.0109" lon="2.04711">
        <ele>11.7</ele>
        <time>2022-04-12T13:37:26Z</time>
      </trkpt>
      <trkpt lat="50.01092" lon="2.0471">
        <ele>11.7</ele>
        <time>2022-04-12T13:37:27Z</time>
      </trkpt>
      <trkpt lat="50.01093" lon="2.0471">
        <ele>11.7</ele>
        <time>2022-04-12T13:37:28Z</time>
      </trkpt>
      <trkpt lat="50.01094" lon="2.04709">
        <ele>11.7</ele>
        <time>2022-04-12T13:37:30Z</time>
      </trkpt>
      <trkpt lat="50.01094" lon="2.04709">
        <ele>11.7</ele>
        <time>2022-04-12T13:37:31Z</time>
      </trkpt>
      <trkpt lat="50.01095" lon="2.04708">
        <ele>11.7</ele>
        <time>2022-04-12T13:37:32Z</time>
      </trkpt>
      <trkpt lat="50.01096" lon="2.04707">
        <ele>11.7</ele>
        <time>2022-04-12T13:37:33Z</time>
      </trkpt>
      <trkpt lat="50.01097" lon="2.04707">
        <ele>11.7</ele>
        <time>2022-04-12T13:37:34Z</time>
      </trkpt>
      <trkpt lat="50.01099" lon="2.04706">
        <ele>11.7</ele>
        <time>2022-04-12T13:37:35Z</time>
      </trkpt>
      <trkpt lat="50.011" lon="2.04705">
        <ele>11.7</ele>
        <time>2022-04-12T13:37:37Z</time>
      </trkpt>
      <trkpt lat="50.01102" lon="2.04704">
        <ele>11.7</ele>
        <time>2022-04-12T13:37:38Z</time>
      </trkpt>
      <trkpt lat="50.01104" lon="2.04702">
        <ele>11.7</ele>
        <time>2022-04-12T13:37:39Z</time>
      </trkpt>
      <trkpt lat="50.01105" lon="2.04702">
        <ele>11.7</ele>
        <time>2022-04-12T13:37:40Z</time>
      </trkpt>
      <trkpt lat="50.01106" lon="2.04701">
        <ele>11.7</ele>
        <time>2022-04-12T13:37:41Z</time>
      </trkpt>
      <trkpt lat="50.01108" lon="2.047">
        <ele>11.7</ele>
        <time>2022-04-12T13:37:42Z</time>
      </trkpt>
      <trkpt lat="50.01108" lon="2.047">
        <ele>11.7</ele>
        <time>2022-04-12T13:37:43Z</time>
      </trkpt>
      <trkpt lat="50.01109" lon="2.047">
        <ele>11.7</ele>
        <time>2022-04-12T13:37:44Z</time>
      </trkpt>
      <trkpt lat="50.01111" lon="2.04698">
        <ele>11.7</ele>
        <time>2022-04-12T13:37:46Z</time>
      </trkpt>
      <trkpt lat="50.01112" lon="2.04697">
        <ele>11.7</ele>
        <time>2022-04-12T13:37:47Z</time>
      </trkpt>
      <trkpt lat="50.01113" lon="2.04697">
        <ele>11.7</ele>
        <time>2022-04-12T13:37:48Z</time>
      </trkpt>
      <trkpt lat="50.01113" lon="2.04696">
        <ele>11.7</ele>
        <time>2022-04-12T13:37:49Z</time>
      </trkpt>
      <trkpt lat="50.01114" lon="2.04695">
        <ele>11.7</ele>
        <time>2022-04-12T13:37:50Z</time>
      </trkpt>
      <trkpt lat="50.01116" lon="2.04694">
        <ele>11.7</ele>
        <time>2022-04-12T13:37:51Z</time>
      </trkpt>
      <trkpt lat="50.01117" lon="2.04692">
        <ele>11.7</ele>
        <time>2022-04-12T13:37:52Z</time>
      </trkpt>
      <trkpt lat="50.01118" lon="2.04692">
        <ele>11.7</ele>
        <time>2022-04-12T13:37:53Z</time>
      </trkpt>
      <trkpt lat="50.01119" lon="2.04691">
        <ele>11.7</ele>
        <time>2022-04-12T13:37:54Z</time>
      </trkpt>
      <trkpt lat="50.0112" lon="2.0469">
        <ele>11.7</ele>
        <time>2022-04-12T13:37:56Z</time>
      </trkpt>
      <trkpt lat="50.01121" lon="2.0469">
        <ele>11.8</ele>
        <time>2022-04-12T13:37:57Z</time>
      </trkpt>
      <trkpt lat="50.01122" lon="2.04689">
        <ele>11.8</ele>
        <time>2022-04-12T13:37:58Z</time>
      </trkpt>
      <trkpt lat="50.01124" lon="2.04688">
        <ele>11.8</ele>
        <time>2022-04-12T13:37:59Z</time>
      </trkpt>
      <trkpt lat="50.01125" lon="2.04688">
        <ele>11.8</ele>
        <time>2022-04-12T13:38:00Z</time>
      </trkpt>
      <trkpt lat="50.01126" lon="2.04687">
        <ele>11.8</ele>
        <time>2022-04-12T13:38:01Z</time>
      </trkpt>
      <trkpt lat="50.01128" lon="2.04687">
        <ele>11.8</ele>
        <time>2022-04-12T13:38:02Z</time>
      </trkpt>
      <trkpt lat="50.01129" lon="2.04686">
        <ele>11.8</ele>
        <time>2022-04-12T13:38:03Z</time>
      </trkpt>
      <trkpt lat="50.0113" lon="2.04686">
        <ele>11.8</ele>
        <time>2022-04-12T13:38:04Z</time>
      </trkpt>
      <trkpt lat="50.01131" lon="2.04685">
        <ele>11.8</ele>
        <time>2022-04-12T13:38:06Z</time>
      </trkpt>
      <trkpt lat="50.01133" lon="2.04684">
        <ele>11.8</ele>
        <time>2022-04-12T13:38:07Z</time>
      </trkpt>
      <trkpt lat="50.01134" lon="2.04683">
        <ele>11.8</ele>
        <time>2022-04-12T13:38:08Z</time>
      </trkpt>
      <trkpt lat="50.01136" lon="2.04682">
        <ele>11.8</ele>
        <time>2022-04-12T13:38:09Z</time>
      </trkpt>
      <trkpt lat="50.01137" lon="2.04681">
        <ele>11.8</ele>
        <time>2022-04-12T13:38:10Z</time>
      </trkpt>
      <trkpt lat="50.01138" lon="2.0468">
        <ele>11.7</ele>
        <time>2022-04-12T13:38:12Z</time>
      </trkpt>
      <trkpt lat="50.01139" lon="2.04679">
        <ele>11.7</ele>
        <time>2022-04-12T13:38:13Z</time>
      </trkpt>
      <trkpt lat="50.01141" lon="2.04679">
        <ele>11.7</ele>
        <time>2022-04-12T13:38:14Z</time>
      </trkpt>
      <trkpt lat="50.01142" lon="2.04678">
        <ele>11.7</ele>
        <time>2022-04-12T13:38:15Z</time>
      </trkpt>
      <trkpt lat="50.01143" lon="2.04677">
        <ele>11.7</ele>
        <time>2022-04-12T13:38:16Z</time>
      </trkpt>
      <trkpt lat="50.01145" lon="2.04676">
        <ele>11.7</ele>
        <time>2022-04-12T13:38:17Z</time>
      </trkpt>
      <trkpt lat="50.01146" lon="2.04675">
        <ele>11.7</ele>
        <time>2022-04-12T13:38:18Z</time>
      </trkpt>
      <trkpt lat="50.01147" lon="2.04675">
        <ele>11.7</ele>
        <time>2022-04-12T13:38:19Z</time>
      </trkpt>
      <trkpt lat="50.01149" lon="2.04674">
        <ele>11.7</ele>
        <time>2022-04-12T13:38:20Z</time>
      </trkpt>
      <trkpt lat="50.0115" lon="2.04673">
        <ele>11.7</ele>
        <time>2022-04-12T13:38:21Z</time>
      </trkpt>
      <trkpt lat="50.01151" lon="2.04672">
        <ele>11.7</ele>
        <time>2022-04-12T13:38:23Z</time>
      </trkpt>
      <trkpt lat="50.01153" lon="2.04671">
        <ele>11.7</ele>
        <time>2022-04-12T13:38:24Z</time>
      </trkpt>
      <trkpt lat="50.01154" lon="2.0467">
        <ele>11.7</ele>
        <time>2022-04-12T13:38:25Z</time>
      </trkpt>
      <trkpt lat="50.01155" lon="2.04669">
        <ele>11.7</ele>
        <time>2022-04-12T13:38:26Z</time>
      </trkpt>
      <trkpt lat="50.01156" lon="2.04668">
        <ele>11.7</ele>
        <time>2022-04-12T13:38:27Z</time>
      </trkpt>
      <trkpt lat="50.01158" lon="2.04668">
        <ele>11.7</ele>
        <time>2022-04-12T13:38:28Z</time>
      </trkpt>
      <trkpt lat="50.01159" lon="2.04667">
        <ele>11.7</ele>
        <time>2022-04-12T13:38:29Z</time>
      </trkpt>
      <trkpt lat="50.0116" lon="2.04666">
        <ele>11.7</ele>
        <time>2022-04-12T13:38:30Z</time>
      </trkpt>
      <trkpt lat="50.01161" lon="2.04665">
        <ele>11.7</ele>
        <time>2022-04-12T13:38:31Z</time>
      </trkpt>
      <trkpt lat="50.01162" lon="2.04665">
        <ele>11.7</ele>
        <time>2022-04-12T13:38:33Z</time>
      </trkpt>
      <trkpt lat="50.01163" lon="2.04664">
        <ele>11.7</ele>
        <time>2022-04-12T13:38:34Z</time>
      </trkpt>
      <trkpt lat="50.01164" lon="2.04663">
        <ele>11.7</ele>
        <time>2022-04-12T13:38:35Z</time>
      </trkpt>
      <trkpt lat="50.01165" lon="2.04662">
        <ele>11.7</ele>
        <time>2022-04-12T13:38:36Z</time>
      </trkpt>
      <trkpt lat="50.01166" lon="2.04661">
        <ele>11.7</ele>
        <time>2022-04-12T13:38:37Z</time>
      </trkpt>
      <trkpt lat="50.01167" lon="2.0466">
        <ele>11.7</ele>
        <time>2022-04-12T13:38:38Z</time>
      </trkpt>
      <trkpt lat="50.01168" lon="2.0466">
        <ele>11.7</ele>
        <time>2022-04-12T13:38:39Z</time>
      </trkpt>
      <trkpt lat="50.01168" lon="2.04659">
        <ele>11.7</ele>
        <time>2022-04-12T13:38:40Z</time>
      </trkpt>
      <trkpt lat="50.01169" lon="2.04658">
        <ele>11.7</ele>
        <time>2022-04-12T13:38:41Z</time>
      </trkpt>
      <trkpt lat="50.0117" lon="2.04657">
        <ele>11.7</ele>
        <time>2022-04-12T13:38:43Z</time>
      </trkpt>
      <trkpt lat="50.01171" lon="2.04656">
        <ele>11.7</ele>
        <time>2022-04-12T13:38:44Z</time>
      </trkpt>
      <trkpt lat="50.01172" lon="2.04655">
        <ele>11.7</ele>
        <time>2022-04-12T13:38:45Z</time>
      </trkpt>
      <trkpt lat="50.01173" lon="2.04655">
        <ele>11.7</ele>
        <time>2022-04-12T13:38:46Z</time>
      </trkpt>
      <trkpt lat="50.01174" lon="2.04654">
        <ele>11.7</ele>
        <time>2022-04-12T13:38:47Z</time>
      </trkpt>
      <trkpt lat="50.01174" lon="2.04653">
        <ele>11.7</ele>
        <time>2022-04-12T13:38:48Z</time>
      </trkpt>
      <trkpt lat="50.01175" lon="2.04652">
        <ele>11.7</ele>
        <time>2022-04-12T13:38:49Z</time>
      </trkpt>
      <trkpt lat="50.01176" lon="2.04649">
        <ele>11.7</ele>
        <time>2022-04-12T13:38:50Z</time>
      </trkpt>
      <trkpt lat="50.01177" lon="2.04649">
        <ele>11.7</ele>
        <time>2022-04-12T13:38:51Z</time>
      </trkpt>
      <trkpt lat="50.01178" lon="2.04648">
        <ele>11.7</ele>
        <time>2022-04-12T13:38:52Z</time>
      </trkpt>
      <trkpt lat="50.01179" lon="2.04647">
        <ele>11.7</ele>
        <time>2022-04-12T13:38:54Z</time>
      </trkpt>
      <trkpt lat="50.0118" lon="2.04646">
        <ele>11.7</ele>
        <time>2022-04-12T13:38:55Z</time>
      </trkpt>
      <trkpt lat="50.01181" lon="2.04645">
        <ele>11.6</ele>
        <time>2022-04-12T13:38:56Z</time>
      </trkpt>
      <trkpt lat="50.01181" lon="2.04644">
        <ele>11.6</ele>
        <time>2022-04-12T13:38:57Z</time>
      </trkpt>
      <trkpt lat="50.01182" lon="2.04643">
        <ele>11.6</ele>
        <time>2022-04-12T13:38:58Z</time>
      </trkpt>
      <trkpt lat="50.01183" lon="2.04642">
        <ele>11.6</ele>
        <time>2022-04-12T13:38:59Z</time>
      </trkpt>
      <trkpt lat="50.01184" lon="2.0464">
        <ele>11.6</ele>
        <time>2022-04-12T13:39:00Z</time>
      </trkpt>
      <trkpt lat="50.01185" lon="2.04639">
        <ele>11.6</ele>
        <time>2022-04-12T13:39:02Z</time>
      </trkpt>
      <trkpt lat="50.01186" lon="2.04638">
        <ele>11.6</ele>
        <time>2022-04-12T13:39:03Z</time>
      </trkpt>
      <trkpt lat="50.01186" lon="2.04637">
        <ele>11.6</ele>
        <time>2022-04-12T13:39:04Z</time>
      </trkpt>
      <trkpt lat="50.01187" lon="2.04636">
        <ele>11.6</ele>
        <time>2022-04-12T13:39:05Z</time>
      </trkpt>
      <trkpt lat="50.01188" lon="2.04635">
        <ele>11.6</ele>
        <time>2022-04-12T13:39:06Z</time>
      </trkpt>
      <trkpt lat="50.01189" lon="2.04634">
        <ele>11.6</ele>
        <time>2022-04-12T13:39:07Z</time>
      </trkpt>
      <trkpt lat="50.0119" lon="2.04633">
        <ele>11.6</ele>
        <time>2022-04-12T13:39:08Z</time>
      </trkpt>
      <trkpt lat="50.01191" lon="2.04633">
        <ele>11.6</ele>
        <time>2022-04-12T13:39:10Z</time>
      </trkpt>
      <trkpt lat="50.01192" lon="2.04634">
        <ele>11.6</ele>
        <time>2022-04-12T13:39:11Z</time>
      </trkpt>
      <trkpt lat="50.01192" lon="2.04634">
        <ele>11.6</ele>
        <time>2022-04-12T13:39:12Z</time>
      </trkpt>
      <trkpt lat="50.01193" lon="2.04635">
        <ele>11.5</ele>
        <time>2022-04-12T13:39:13Z</time>
      </trkpt>
      <trkpt lat="50.01193" lon="2.04636">
        <ele>11.5</ele>
        <time>2022-04-12T13:39:14Z</time>
      </trkpt>
      <trkpt lat="50.01193" lon="2.04637">
        <ele>11.5</ele>
        <time>2022-04-12T13:39:15Z</time>
      </trkpt>
      <trkpt lat="50.01193" lon="2.04637">
        <ele>11.5</ele>
        <time>2022-04-12T13:39:16Z</time>
      </trkpt>
      <trkpt lat="50.01193" lon="2.04637">
        <ele>11.5</ele>
        <time>2022-04-12T13:39:17Z</time>
      </trkpt>
      <trkpt lat="50.01193" lon="2.04637">
        <ele>11.5</ele>
        <time>2022-04-12T13:39:18Z</time>
      </trkpt>
      <trkpt lat="50.01193" lon="2.04636">
        <ele>11.5</ele>
        <time>2022-04-12T13:39:20Z</time>
      </trkpt>
      <trkpt lat="50.01194" lon="2.04635">
        <ele>11.5</ele>
        <time>2022-04-12T13:39:21Z</time>
      </trkpt>
      <trkpt lat="50.01194" lon="2.04636">
        <ele>11.5</ele>
        <time>2022-04-12T13:39:22Z</time>
      </trkpt>
      <trkpt lat="50.01194" lon="2.04636">
        <ele>11.5</ele>
        <time>2022-04-12T13:39:23Z</time>
      </trkpt>
      <trkpt lat="50.01195" lon="2.04636">
        <ele>11.5</ele>
        <time>2022-04-12T13:39:24Z</time>
      </trkpt>
      <trkpt lat="50.01195" lon="2.04636">
        <ele>11.5</ele>
        <time>2022-04-12T13:39:25Z</time>
      </trkpt>
      <trkpt lat="50.01194" lon="2.04637">
        <ele>11.5</ele>
        <time>2022-04-12T13:39:26Z</time>
      </trkpt>
      <trkpt lat="50.01194" lon="2.04637">
        <ele>11.5</ele>
        <time>2022-04-12T13:39:27Z</time>
      </trkpt>
      <trkpt lat="50.01194" lon="2.04637">
        <ele>11.5</ele>
        <time>2022-04-12T13:39:28Z</time>
      </trkpt>
      <trkpt lat="50.01194" lon="2.04637">
        <ele>11.5</ele>
        <time>2022-04-12T13:39:29Z</time>
      </trkpt>
      <trkpt lat="50.01194" lon="2.04637">
        <ele>11.5</ele>
        <time>2022-04-12T13:39:30Z</time>
      </trkpt>
      <trkpt lat="50.01194" lon="2.04637">
        <ele>11.5</ele>
        <time>2022-04-12T13:39:31Z</time>
      </trkpt>
      <trkpt lat="50.01194" lon="2.04637">
        <ele>11.5</ele>
        <time>2022-04-12T13:39:32Z</time>
      </trkpt>
      <trkpt lat="50.01195" lon="2.04637">
        <ele>11.5</ele>
        <time>2022-04-12T13:39:33Z</time>
      </trkpt>
      <trkpt lat="50.01195" lon="2.04637">
        <ele>11.5</ele>
        <time>2022-04-12T13:39:34Z</time>
      </trkpt>
      <trkpt lat="50.01195" lon="2.04637">
        <ele>11.5</ele>
        <time>2022-04-12T13:39:35Z</time>
      </trkpt>
      <trkpt lat="50.01195" lon="2.04637">
        <ele>11.5</ele>
        <time>2022-04-12T13:39:36Z</time>
      </trkpt>
      <trkpt lat="50.01195" lon="2.04637">
        <ele>11.5</ele>
        <time>2022-04-12T13:39:37Z</time>
      </trkpt>
      <trkpt lat="50.01195" lon="2.04637">
        <ele>11.5</ele>
        <time>2022-04-12T13:39:38Z</time>
      </trkpt>
      <trkpt lat="50.01194" lon="2.04637">
        <ele>11.5</ele>
        <time>2022-04-12T13:39:39Z</time>
      </trkpt>
      <trkpt lat="50.01194" lon="2.04637">
        <ele>11.5</ele>
        <time>2022-04-12T13:39:40Z</time>
      </trkpt>
      <trkpt lat="50.01194" lon="2.04637">
        <ele>11.5</ele>
        <time>2022-04-12T13:39:41Z</time>
      </trkpt>
      <trkpt lat="50.01194" lon="2.04637">
        <ele>11.5</ele>
        <time>2022-04-12T13:39:42Z</time>
      </trkpt>
      <trkpt lat="50.01194" lon="2.04637">
        <ele>11.5</ele>
        <time>2022-04-12T13:39:43Z</time>
      </trkpt>
      <trkpt lat="50.01194" lon="2.04637">
        <ele>11.5</ele>
        <time>2022-04-12T13:39:44Z</time>
      </trkpt>
      <trkpt lat="50.01194" lon="2.04637">
        <ele>11.5</ele>
        <time>2022-04-12T13:39:45Z</time>
      </trkpt>
      <trkpt lat="50.01194" lon="2.04637">
        <ele>11.5</ele>
        <time>2022-04-12T13:39:46Z</time>
      </trkpt>
      <trkpt lat="50.01194" lon="2.04637">
        <ele>11.5</ele>
        <time>2022-04-12T13:39:47Z</time>
      </trkpt>
      <trkpt lat="50.01194" lon="2.04637">
        <ele>11.5</ele>
        <time>2022-04-12T13:39:48Z</time>
      </trkpt>
      <trkpt lat="50.01194" lon="2.04637">
        <ele>11.5</ele>
        <time>2022-04-12T13:39:49Z</time>
      </trkpt>
      <trkpt lat="50.01194" lon="2.04637">
        <ele>11.5</ele>
        <time>2022-04-12T13:39:50Z</time>
      </trkpt>
      <trkpt lat="50.01194" lon="2.04637">
        <ele>11.5</ele>
        <time>2022-04-12T13:39:51Z</time>
      </trkpt>
      <trkpt lat="50.01194" lon="2.04637">
        <ele>11.5</ele>
        <time>2022-04-12T13:39:53Z</time>
      </trkpt>
      <trkpt lat="50.01194" lon="2.04637">
        <ele>11.5</ele>
        <time>2022-04-12T13:39:54Z</time>
      </trkpt>
      <trkpt lat="50.01194" lon="2.04637">
        <ele>11.5</ele>
        <time>2022-04-12T13:39:55Z</time>
      </trkpt>
      <trkpt lat="50.01194" lon="2.04637">
        <ele>11.5</ele>
        <time>2022-04-12T13:39:56Z</time>
      </trkpt>
      <trkpt lat="50.01194" lon="2.04637">
        <ele>11.5</ele>
        <time>2022-04-12T13:39:57Z</time>
      </trkpt>
      <trkpt lat="50.01194" lon="2.04637">
        <ele>11.5</ele>
        <time>2022-04-12T13:39:58Z</time>
      </trkpt>
      <trkpt lat="50.01194" lon="2.04637">
        <ele>11.5</ele>
        <time>2022-04-12T13:39:59Z</time>
      </trkpt>
      <trkpt lat="50.01194" lon="2.04637">
        <ele>11.5</ele>
        <time>2022-04-12T13:40:00Z</time>
      </trkpt>
      <trkpt lat="50.01194" lon="2.04637">
        <ele>11.5</ele>
        <time>2022-04-12T13:40:01Z</time>
      </trkpt>
      <trkpt lat="50.01194" lon="2.04637">
        <ele>11.5</ele>
        <time>2022-04-12T13:40:02Z</time>
      </trkpt>
      <trkpt lat="50.01194" lon="2.04637">
        <ele>11.5</ele>
        <time>2022-04-12T13:40:03Z</time>
      </trkpt>
      <trkpt lat="50.01194" lon="2.04637">
        <ele>11.5</ele>
        <time>2022-04-12T13:40:04Z</time>
      </trkpt>
      <trkpt lat="50.01194" lon="2.04637">
        <ele>11.5</ele>
        <time>2022-04-12T13:40:05Z</time>
      </trkpt>
      <trkpt lat="50.01194" lon="2.04637">
        <ele>11.5</ele>
        <time>2022-04-12T13:40:06Z</time>
      </trkpt>
      <trkpt lat="50.01194" lon="2.04637">
        <ele>11.5</ele>
        <time>2022-04-12T13:40:07Z</time>
      </trkpt>
      <trkpt lat="50.01194" lon="2.04637">
        <ele>11.5</ele>
        <time>2022-04-12T13:40:08Z</time>
      </trkpt>
      <trkpt lat="50.01194" lon="2.04637">
        <ele>11.5</ele>
        <time>2022-04-12T13:40:09Z</time>
      </trkpt>
      <trkpt lat="50.01194" lon="2.04637">
        <ele>11.5</ele>
        <time>2022-04-12T13:40:10Z</time>
      </trkpt>
      <trkpt lat="50.01194" lon="2.04637">
        <ele>11.5</ele>
        <time>2022-04-12T13:40:11Z</time>
      </trkpt>
      <trkpt lat="50.01194" lon="2.04637">
        <ele>11.5</ele>
        <time>2022-04-12T13:40:12Z</time>
      </trkpt>
      <trkpt lat="50.01194" lon="2.04637">
        <ele>11.5</ele>
        <time>2022-04-12T13:40:13Z</time>
      </trkpt>
      <trkpt lat="50.01194" lon="2.04637">
        <ele>11.5</ele>
        <time>2022-04-12T13:40:14Z</time>
      </trkpt>
      <trkpt lat="50.01194" lon="2.04637">
        <ele>11.5</ele>
        <time>2022-04-12T13:40:15Z</time>
      </trkpt>
      <trkpt lat="50.01194" lon="2.04637">
        <ele>11.5</ele>
        <time>2022-04-12T13:40:16Z</time>
      </trkpt>
      <trkpt lat="50.01194" lon="2.04637">
        <ele>11.5</ele>
        <time>2022-04-12T13:40:17Z</time>
      </trkpt>
      <trkpt lat="50.01194" lon="2.04637">
        <ele>11.5</ele>
        <time>2022-04-12T13:40:18Z</time>
      </trkpt>
      <trkpt lat="50.01194" lon="2.04637">
        <ele>11.5</ele>
        <time>2022-04-12T13:40:19Z</time>
      </trkpt>
      <trkpt lat="50.01194" lon="2.04637">
        <ele>11.5</ele>
        <time>2022-04-12T13:40:20Z</time>
      </trkpt>
      <trkpt lat="50.01194" lon="2.04637">
        <ele>11.5</ele>
        <time>2022-04-12T13:40:21Z</time>
      </trkpt>
      <trkpt lat="50.01194" lon="2.04637">
        <ele>11.5</ele>
        <time>2022-04-12T13:40:22Z</time>
      </trkpt>
      <trkpt lat="50.01194" lon="2.04637">
        <ele>11.5</ele>
        <time>2022-04-12T13:40:23Z</time>
      </trkpt>
      <trkpt lat="50.01194" lon="2.04637">
        <ele>11.5</ele>
        <time>2022-04-12T13:40:24Z</time>
      </trkpt>
      <trkpt lat="50.01194" lon="2.04637">
        <ele>11.5</ele>
        <time>2022-04-12T13:40:25Z</time>
      </trkpt>
      <trkpt lat="50.01194" lon="2.04637">
        <ele>11.5</ele>
        <time>2022-04-12T13:40:26Z</time>
      </trkpt>
      <trkpt lat="50.01194" lon="2.04637">
        <ele>11.5</ele>
        <time>2022-04-12T13:40:27Z</time>
      </trkpt>
      <trkpt lat="50.01194" lon="2.04637">
        <ele>11.5</ele>
        <time>2022-04-12T13:40:28Z</time>
      </trkpt>
      <trkpt lat="50.01194" lon="2.04637">
        <ele>11.5</ele>
        <time>2022-04-12T13:40:29Z</time>
      </trkpt>
      <trkpt lat="50.01194" lon="2.04637">
        <ele>11.5</ele>
        <time>2022-04-12T13:40:30Z</time>
      </trkpt>
      <trkpt lat="50.01194" lon="2.04637">
        <ele>11.5</ele>
        <time>2022-04-12T13:40:31Z</time>
      </trkpt>
      <trkpt lat="50.01194" lon="2.04637">
        <ele>11.5</ele>
        <time>2022-04-12T13:40:32Z</time>
      </trkpt>
      <trkpt lat="50.01194" lon="2.04637">
        <ele>11.5</ele>
        <time>2022-04-12T13:40:33Z</time>
      </trkpt>
      <trkpt lat="50.01194" lon="2.04637">
        <ele>11.5</ele>
        <time>2022-04-12T13:40:34Z</time>
      </trkpt>
      <trkpt lat="50.01194" lon="2.04637">
        <ele>11.5</ele>
        <time>2022-04-12T13:40:35Z</time>
      </trkpt>
      <trkpt lat="50.01194" lon="2.04637">
        <ele>11.5</ele>
        <time>2022-04-12T13:40:36Z</time>
      </trkpt>
      <trkpt lat="50.01194" lon="2.04637">
        <ele>11.5</ele>
        <time>2022-04-12T13:40:37Z</time>
      </trkpt>
      <trkpt lat="50.01194" lon="2.04637">
        <ele>11.5</ele>
        <time>2022-04-12T13:40:38Z</time>
      </trkpt>
      <trkpt lat="50.01194" lon="2.04637">
        <ele>11.5</ele>
        <time>2022-04-12T13:40:39Z</time>
      </trkpt>
      <trkpt lat="50.01194" lon="2.04637">
        <ele>11.5</ele>
        <time>2022-04-12T13:40:40Z</time>
      </trkpt>
      <trkpt lat="50.01194" lon="2.04637">
        <ele>11.5</ele>
        <time>2022-04-12T13:40:41Z</time>
      </trkpt>
      <trkpt lat="50.01194" lon="2.04637">
        <ele>11.5</ele>
        <time>2022-04-12T13:40:42Z</time>
      </trkpt>
      <trkpt lat="50.01194" lon="2.04637">
        <ele>11.5</ele>
        <time>2022-04-12T13:40:43Z</time>
      </trkpt>
      <trkpt lat="50.01194" lon="2.04637">
        <ele>11.5</ele>
        <time>2022-04-12T13:40:44Z</time>
      </trkpt>
      <trkpt lat="50.01194" lon="2.04637">
        <ele>11.5</ele>
        <time>2022-04-12T13:40:45Z</time>
      </trkpt>
      <trkpt lat="50.01194" lon="2.04637">
        <ele>11.5</ele>
        <time>2022-04-12T13:40:46Z</time>
      </trkpt>
      <trkpt lat="50.01194" lon="2.04637">
        <ele>11.5</ele>
        <time>2022-04-12T13:40:47Z</time>
      </trkpt>
      <trkpt lat="50.01194" lon="2.04637">
        <ele>11.5</ele>
        <time>2022-04-12T13:40:48Z</time>
      </trkpt>
      <trkpt lat="50.01194" lon="2.04637">
        <ele>11.5</ele>
        <time>2022-04-12T13:40:49Z</time>
      </trkpt>
      <trkpt lat="50.01194" lon="2.04637">
        <ele>11.5</ele>
        <time>2022-04-12T13:40:50Z</time>
      </trkpt>
      <trkpt lat="50.01194" lon="2.04637">
        <ele>11.5</ele>
        <time>2022-04-12T13:40:51Z</time>
      </trkpt>
      <trkpt lat="50.01194" lon="2.04637">
        <ele>11.5</ele>
        <time>2022-04-12T13:40:52Z</time>
      </trkpt>
      <trkpt lat="50.01194" lon="2.04637">
        <ele>11.5</ele>
        <time>2022-04-12T13:40:53Z</time>
      </trkpt>
      <trkpt lat="50.01194" lon="2.04637">
        <ele>11.5</ele>
        <time>2022-04-12T13:40:54Z</time>
      </trkpt>
      <trkpt lat="50.01194" lon="2.04637">
        <ele>11.5</ele>
        <time>2022-04-12T13:40:55Z</time>
      </trkpt>
      <trkpt lat="50.01194" lon="2.04637">
        <ele>11.5</ele>
        <time>2022-04-12T13:40:56Z</time>
      </trkpt>
      <trkpt lat="50.01194" lon="2.04637">
        <ele>11.5</ele>
        <time>2022-04-12T13:40:57Z</time>
      </trkpt>
      <trkpt lat="50.01194" lon="2.04637">
        <ele>11.5</ele>
        <time>2022-04-12T13:40:58Z</time>
      </trkpt>
      <trkpt lat="50.01194" lon="2.04637">
        <ele>11.5</ele>
        <time>2022-04-12T13:40:59Z</time>
      </trkpt>
      <trkpt lat="50.01194" lon="2.04637">
        <ele>11.5</ele>
        <time>2022-04-12T13:41:00Z</time>
      </trkpt>
      <trkpt lat="50.01194" lon="2.04637">
        <ele>11.5</ele>
        <time>2022-04-12T13:41:01Z</time>
      </trkpt>
      <trkpt lat="50.01194" lon="2.04637">
        <ele>11.5</ele>
        <time>2022-04-12T13:41:02Z</time>
      </trkpt>
      <trkpt lat="50.01194" lon="2.04637">
        <ele>11.5</ele>
        <time>2022-04-12T13:41:03Z</time>
      </trkpt>
      <trkpt lat="50.01194" lon="2.04637">
        <ele>11.5</ele>
        <time>2022-04-12T13:41:04Z</time>
      </trkpt>
      <trkpt lat="50.01194" lon="2.04637">
        <ele>11.5</ele>
        <time>2022-04-12T13:41:05Z</time>
      </trkpt>
      <trkpt lat="50.01194" lon="2.04636">
        <ele>11.5</ele>
        <time>2022-04-12T13:41:06Z</time>
      </trkpt>
      <trkpt lat="50.01194" lon="2.04636">
        <ele>11.5</ele>
        <time>2022-04-12T13:41:07Z</time>
      </trkpt>
      <trkpt lat="50.01193" lon="2.04635">
        <ele>11.5</ele>
        <time>2022-04-12T13:41:08Z</time>
      </trkpt>
      <trkpt lat="50.01193" lon="2.04634">
        <ele>11.5</ele>
        <time>2022-04-12T13:41:09Z</time>
      </trkpt>
      <trkpt lat="50.01193" lon="2.04633">
        <ele>11.5</ele>
        <time>2022-04-12T13:41:11Z</time>
      </trkpt>
      <trkpt lat="50.01193" lon="2.04632">
        <ele>11.5</ele>
        <time>2022-04-12T13:41:12Z</time>
      </trkpt>
      <trkpt lat="50.01193" lon="2.04631">
        <ele>11.5</ele>
        <time>2022-04-12T13:41:13Z</time>
      </trkpt>
      <trkpt lat="50.01194" lon="2.0463">
        <ele>11.5</ele>
        <time>2022-04-12T13:41:14Z</time>
      </trkpt>
      <trkpt lat="50.01195" lon="2.04629">
        <ele>11.5</ele>
        <time>2022-04-12T13:41:15Z</time>
      </trkpt>
      <trkpt lat="50.01196" lon="2.04627">
        <ele>11.5</ele>
        <time>2022-04-12T13:41:16Z</time>
      </trkpt>
      <trkpt lat="50.01197" lon="2.04626">
        <ele>11.5</ele>
        <time>2022-04-12T13:41:17Z</time>
      </trkpt>
      <trkpt lat="50.01198" lon="2.04626">
        <ele>11.4</ele>
        <time>2022-04-12T13:41:18Z</time>
      </trkpt>
      <trkpt lat="50.01199" lon="2.04624">
        <ele>11.4</ele>
        <time>2022-04-12T13:41:19Z</time>
      </trkpt>
      <trkpt lat="50.01199" lon="2.04624">
        <ele>11.4</ele>
        <time>2022-04-12T13:41:21Z</time>
      </trkpt>
      <trkpt lat="50.01199" lon="2.04624">
        <ele>11.4</ele>
        <time>2022-04-12T13:41:22Z</time>
      </trkpt>
      <trkpt lat="50.01199" lon="2.04624">
        <ele>11.4</ele>
        <time>2022-04-12T13:41:23Z</time>
      </trkpt>
      <trkpt lat="50.01199" lon="2.04624">
        <ele>11.4</ele>
        <time>2022-04-12T13:41:25Z</time>
      </trkpt>
      <trkpt lat="50.01199" lon="2.04624">
        <ele>11.4</ele>
        <time>2022-04-12T13:41:26Z</time>
      </trkpt>
      <trkpt lat="50.01199" lon="2.04624">
        <ele>11.4</ele>
        <time>2022-04-12T13:41:27Z</time>
      </trkpt>
      <trkpt lat="50.01199" lon="2.04624">
        <ele>11.4</ele>
        <time>2022-04-12T13:41:28Z</time>
      </trkpt>
      <trkpt lat="50.01199" lon="2.04624">
        <ele>11.4</ele>
        <time>2022-04-12T13:41:29Z</time>
      </trkpt>
      <trkpt lat="50.01199" lon="2.04624">
        <ele>11.4</ele>
        <time>2022-04-12T13:41:30Z</time>
      </trkpt>
      <trkpt lat="50.01199" lon="2.04624">
        <ele>11.4</ele>
        <time>2022-04-12T13:41:31Z</time>
      </trkpt>
      <trkpt lat="50.01199" lon="2.04624">
        <ele>11.4</ele>
        <time>2022-04-12T13:41:32Z</time>
      </trkpt>
      <trkpt lat="50.01199" lon="2.04624">
        <ele>11.4</ele>
        <time>2022-04-12T13:41:33Z</time>
      </trkpt>
      <trkpt lat="50.01199" lon="2.04624">
        <ele>11.4</ele>
        <time>2022-04-12T13:41:34Z</time>
      </trkpt>
      <trkpt lat="50.01199" lon="2.04624">
        <ele>11.4</ele>
        <time>2022-04-12T13:41:35Z</time>
      </trkpt>
      <trkpt lat="50.01199" lon="2.04624">
        <ele>11.4</ele>
        <time>2022-04-12T13:41:36Z</time>
      </trkpt>
      <trkpt lat="50.01199" lon="2.04624">
        <ele>11.4</ele>
        <time>2022-04-12T13:41:37Z</time>
      </trkpt>
      <trkpt lat="50.01199" lon="2.04624">
        <ele>11.4</ele>
        <time>2022-04-12T13:41:38Z</time>
      </trkpt>
      <trkpt lat="50.01199" lon="2.04624">
        <ele>11.4</ele>
        <time>2022-04-12T13:41:39Z</time>
      </trkpt>
      <trkpt lat="50.01199" lon="2.04624">
        <ele>11.4</ele>
        <time>2022-04-12T13:41:40Z</time>
      </trkpt>
      <trkpt lat="50.01199" lon="2.04624">
        <ele>11.4</ele>
        <time>2022-04-12T13:41:41Z</time>
      </trkpt>
      <trkpt lat="50.01199" lon="2.04624">
        <ele>11.4</ele>
        <time>2022-04-12T13:41:42Z</time>
      </trkpt>
      <trkpt lat="50.01199" lon="2.04624">
        <ele>11.4</ele>
        <time>2022-04-12T13:41:43Z</time>
      </trkpt>
      <trkpt lat="50.01199" lon="2.04624">
        <ele>11.4</ele>
        <time>2022-04-12T13:41:44Z</time>
      </trkpt>
      <trkpt lat="50.01199" lon="2.04624">
        <ele>11.4</ele>
        <time>2022-04-12T13:41:45Z</time>
      </trkpt>
      <trkpt lat="50.01199" lon="2.04624">
        <ele>11.4</ele>
        <time>2022-04-12T13:41:46Z</time>
      </trkpt>
      <trkpt lat="50.01199" lon="2.04623">
        <ele>11.4</ele>
        <time>2022-04-12T13:41:47Z</time>
      </trkpt>
      <trkpt lat="50.01199" lon="2.04623">
        <ele>11.4</ele>
        <time>2022-04-12T13:41:48Z</time>
      </trkpt>
      <trkpt lat="50.01199" lon="2.04623">
        <ele>11.4</ele>
        <time>2022-04-12T13:41:49Z</time>
      </trkpt>
      <trkpt lat="50.01199" lon="2.04623">
        <ele>11.4</ele>
        <time>2022-04-12T13:41:50Z</time>
      </trkpt>
      <trkpt lat="50.01199" lon="2.04623">
        <ele>11.4</ele>
        <time>2022-04-12T13:41:51Z</time>
      </trkpt>
      <trkpt lat="50.01199" lon="2.04623">
        <ele>11.4</ele>
        <time>2022-04-12T13:41:52Z</time>
      </trkpt>
      <trkpt lat="50.01199" lon="2.04623">
        <ele>11.4</ele>
        <time>2022-04-12T13:41:53Z</time>
      </trkpt>
      <trkpt lat="50.01199" lon="2.04623">
        <ele>11.4</ele>
        <time>2022-04-12T13:41:54Z</time>
      </trkpt>
      <trkpt lat="50.01199" lon="2.04623">
        <ele>11.4</ele>
        <time>2022-04-12T13:41:55Z</time>
      </trkpt>
      <trkpt lat="50.01199" lon="2.04623">
        <ele>11.4</ele>
        <time>2022-04-12T13:41:56Z</time>
      </trkpt>
      <trkpt lat="50.01199" lon="2.04623">
        <ele>11.4</ele>
        <time>2022-04-12T13:41:57Z</time>
      </trkpt>
      <trkpt lat="50.01199" lon="2.04623">
        <ele>11.4</ele>
        <time>2022-04-12T13:41:58Z</time>
      </trkpt>
      <trkpt lat="50.01199" lon="2.04623">
        <ele>11.4</ele>
        <time>2022-04-12T13:41:59Z</time>
      </trkpt>
      <trkpt lat="50.01199" lon="2.04623">
        <ele>11.4</ele>
        <time>2022-04-12T13:42:00Z</time>
      </trkpt>
      <trkpt lat="50.01199" lon="2.04623">
        <ele>11.4</ele>
        <time>2022-04-12T13:42:01Z</time>
      </trkpt>
      <trkpt lat="50.01199" lon="2.04623">
        <ele>11.4</ele>
        <time>2022-04-12T13:42:02Z</time>
      </trkpt>
      <trkpt lat="50.01199" lon="2.04623">
        <ele>11.4</ele>
        <time>2022-04-12T13:42:03Z</time>
      </trkpt>
      <trkpt lat="50.01199" lon="2.04623">
        <ele>11.4</ele>
        <time>2022-04-12T13:42:04Z</time>
      </trkpt>
      <trkpt lat="50.01199" lon="2.04623">
        <ele>11.4</ele>
        <time>2022-04-12T13:42:05Z</time>
      </trkpt>
      <trkpt lat="50.01199" lon="2.04623">
        <ele>11.4</ele>
        <time>2022-04-12T13:42:06Z</time>
      </trkpt>
      <trkpt lat="50.01199" lon="2.04623">
        <ele>11.4</ele>
        <time>2022-04-12T13:42:07Z</time>
      </trkpt>
      <trkpt lat="50.01199" lon="2.04623">
        <ele>11.4</ele>
        <time>2022-04-12T13:42:08Z</time>
      </trkpt>
      <trkpt lat="50.01199" lon="2.04623">
        <ele>11.4</ele>
        <time>2022-04-12T13:42:09Z</time>
      </trkpt>
      <trkpt lat="50.01199" lon="2.04623">
        <ele>11.4</ele>
        <time>2022-04-12T13:42:10Z</time>
      </trkpt>
      <trkpt lat="50.01199" lon="2.04623">
        <ele>11.4</ele>
        <time>2022-04-12T13:42:11Z</time>
      </trkpt>
      <trkpt lat="50.012" lon="2.04623">
        <ele>11.4</ele>
        <time>2022-04-12T13:42:12Z</time>
      </trkpt>
      <trkpt lat="50.012" lon="2.04623">
        <ele>11.4</ele>
        <time>2022-04-12T13:42:13Z</time>
      </trkpt>
      <trkpt lat="50.012" lon="2.04622">
        <ele>11.4</ele>
        <time>2022-04-12T13:42:14Z</time>
      </trkpt>
      <trkpt lat="50.012" lon="2.04622">
        <ele>11.4</ele>
        <time>2022-04-12T13:42:15Z</time>
      </trkpt>
      <trkpt lat="50.012" lon="2.04622">
        <ele>11.4</ele>
        <time>2022-04-12T13:42:16Z</time>
      </trkpt>
      <trkpt lat="50.012" lon="2.04622">
        <ele>11.4</ele>
        <time>2022-04-12T13:42:17Z</time>
      </trkpt>
      <trkpt lat="50.012" lon="2.04622">
        <ele>11.4</ele>
        <time>2022-04-12T13:42:18Z</time>
      </trkpt>
      <trkpt lat="50.012" lon="2.04622">
        <ele>11.4</ele>
        <time>2022-04-12T13:42:19Z</time>
      </trkpt>
      <trkpt lat="50.012" lon="2.04622">
        <ele>11.4</ele>
        <time>2022-04-12T13:42:20Z</time>
      </trkpt>
      <trkpt lat="50.012" lon="2.04622">
        <ele>11.4</ele>
        <time>2022-04-12T13:42:21Z</time>
      </trkpt>
      <trkpt lat="50.012" lon="2.04622">
        <ele>11.4</ele>
        <time>2022-04-12T13:42:22Z</time>
      </trkpt>
      <trkpt lat="50.012" lon="2.04622">
        <ele>11.4</ele>
        <time>2022-04-12T13:42:23Z</time>
      </trkpt>
      <trkpt lat="50.012" lon="2.04622">
        <ele>11.4</ele>
        <time>2022-04-12T13:42:24Z</time>
      </trkpt>
      <trkpt lat="50.012" lon="2.04622">
        <ele>11.4</ele>
        <time>2022-04-12T13:42:25Z</time>
      </trkpt>
      <trkpt lat="50.012" lon="2.04622">
        <ele>11.4</ele>
        <time>2022-04-12T13:42:26Z</time>
      </trkpt>
      <trkpt lat="50.012" lon="2.04622">
        <ele>11.4</ele>
        <time>2022-04-12T13:42:27Z</time>
      </trkpt>
      <trkpt lat="50.012" lon="2.04622">
        <ele>11.4</ele>
        <time>2022-04-12T13:42:28Z</time>
      </trkpt>
      <trkpt lat="50.012" lon="2.04622">
        <ele>11.4</ele>
        <time>2022-04-12T13:42:29Z</time>
      </trkpt>
      <trkpt lat="50.012" lon="2.04622">
        <ele>11.4</ele>
        <time>2022-04-12T13:42:30Z</time>
      </trkpt>
      <trkpt lat="50.012" lon="2.04622">
        <ele>11.4</ele>
        <time>2022-04-12T13:42:31Z</time>
      </trkpt>
      <trkpt lat="50.012" lon="2.04622">
        <ele>11.4</ele>
        <time>2022-04-12T13:42:32Z</time>
      </trkpt>
      <trkpt lat="50.012" lon="2.04622">
        <ele>11.4</ele>
        <time>2022-04-12T13:42:33Z</time>
      </trkpt>
      <trkpt lat="50.012" lon="2.04622">
        <ele>11.4</ele>
        <time>2022-04-12T13:42:34Z</time>
      </trkpt>
      <trkpt lat="50.012" lon="2.04622">
        <ele>11.4</ele>
        <time>2022-04-12T13:42:35Z</time>
      </trkpt>
      <trkpt lat="50.012" lon="2.04622">
        <ele>11.4</ele>
        <time>2022-04-12T13:42:36Z</time>
      </trkpt>
      <trkpt lat="50.012" lon="2.04622">
        <ele>11.4</ele>
        <time>2022-04-12T13:42:37Z</time>
      </trkpt>
      <trkpt lat="50.012" lon="2.04622">
        <ele>11.4</ele>
        <time>2022-04-12T13:42:38Z</time>
      </trkpt>
      <trkpt lat="50.012" lon="2.04622">
        <ele>11.4</ele>
        <time>2022-04-12T13:42:39Z</time>
      </trkpt>
      <trkpt lat="50.012" lon="2.04621">
        <ele>11.4</ele>
        <time>2022-04-12T13:42:40Z</time>
      </trkpt>
      <trkpt lat="50.012" lon="2.04621">
        <ele>11.4</ele>
        <time>2022-04-12T13:42:41Z</time>
      </trkpt>
      <trkpt lat="50.012" lon="2.04621">
        <ele>11.4</ele>
        <time>2022-04-12T13:42:42Z</time>
      </trkpt>
      <trkpt lat="50.012" lon="2.04621">
        <ele>11.4</ele>
        <time>2022-04-12T13:42:43Z</time>
      </trkpt>
      <trkpt lat="50.012" lon="2.04621">
        <ele>11.4</ele>
        <time>2022-04-12T13:42:44Z</time>
      </trkpt>
      <trkpt lat="50.012" lon="2.04621">
        <ele>11.4</ele>
        <time>2022-04-12T13:42:45Z</time>
      </trkpt>
      <trkpt lat="50.012" lon="2.04621">
        <ele>11.4</ele>
        <time>2022-04-12T13:42:46Z</time>
      </trkpt>
      <trkpt lat="50.012" lon="2.04621">
        <ele>11.4</ele>
        <time>2022-04-12T13:42:47Z</time>
      </trkpt>
      <trkpt lat="50.012" lon="2.04621">
        <ele>11.4</ele>
        <time>2022-04-12T13:42:48Z</time>
      </trkpt>
      <trkpt lat="50.012" lon="2.04621">
        <ele>11.4</ele>
        <time>2022-04-12T13:42:49Z</time>
      </trkpt>
      <trkpt lat="50.012" lon="2.04621">
        <ele>11.4</ele>
        <time>2022-04-12T13:42:50Z</time>
      </trkpt>
      <trkpt lat="50.012" lon="2.04621">
        <ele>11.4</ele>
        <time>2022-04-12T13:42:51Z</time>
      </trkpt>
      <trkpt lat="50.012" lon="2.04621">
        <ele>11.4</ele>
        <time>2022-04-12T13:42:52Z</time>
      </trkpt>
      <trkpt lat="50.012" lon="2.04621">
        <ele>11.4</ele>
        <time>2022-04-12T13:42:53Z</time>
      </trkpt>
      <trkpt lat="50.012" lon="2.04621">
        <ele>11.4</ele>
        <time>2022-04-12T13:42:54Z</time>
      </trkpt>
      <trkpt lat="50.012" lon="2.04621">
        <ele>11.4</ele>
        <time>2022-04-12T13:42:55Z</time>
      </trkpt>
      <trkpt lat="50.012" lon="2.04621">
        <ele>11.4</ele>
        <time>2022-04-12T13:42:56Z</time>
      </trkpt>
      <trkpt lat="50.012" lon="2.04621">
        <ele>11.4</ele>
        <time>2022-04-12T13:42:57Z</time>
      </trkpt>
      <trkpt lat="50.012" lon="2.04621">
        <ele>11.4</ele>
        <time>2022-04-12T13:42:58Z</time>
      </trkpt>
      <trkpt lat="50.012" lon="2.04621">
        <ele>11.4</ele>
        <time>2022-04-12T13:42:59Z</time>
      </trkpt>
      <trkpt lat="50.012" lon="2.04621">
        <ele>11.4</ele>
        <time>2022-04-12T13:43:00Z</time>
      </trkpt>
      <trkpt lat="50.012" lon="2.04621">
        <ele>11.4</ele>
        <time>2022-04-12T13:43:01Z</time>
      </trkpt>
      <trkpt lat="50.012" lon="2.04621">
        <ele>11.4</ele>
        <time>2022-04-12T13:43:02Z</time>
      </trkpt>
      <trkpt lat="50.012" lon="2.04621">
        <ele>11.4</ele>
        <time>2022-04-12T13:43:03Z</time>
      </trkpt>
      <trkpt lat="50.012" lon="2.04621">
        <ele>11.4</ele>
        <time>2022-04-12T13:43:04Z</time>
      </trkpt>
      <trkpt lat="50.012" lon="2.04621">
        <ele>11.4</ele>
        <time>2022-04-12T13:43:05Z</time>
      </trkpt>
      <trkpt lat="50.012" lon="2.04621">
        <ele>11.4</ele>
        <time>2022-04-12T13:43:06Z</time>
      </trkpt>
      <trkpt lat="50.012" lon="2.0462">
        <ele>11.4</ele>
        <time>2022-04-12T13:43:07Z</time>
      </trkpt>
      <trkpt lat="50.012" lon="2.0462">
        <ele>11.4</ele>
        <time>2022-04-12T13:43:08Z</time>
      </trkpt>
      <trkpt lat="50.01201" lon="2.0462">
        <ele>11.4</ele>
        <time>2022-04-12T13:43:09Z</time>
      </trkpt>
      <trkpt lat="50.01201" lon="2.0462">
        <ele>11.4</ele>
        <time>2022-04-12T13:43:10Z</time>
      </trkpt>
      <trkpt lat="50.01201" lon="2.0462">
        <ele>11.4</ele>
        <time>2022-04-12T13:43:11Z</time>
      </trkpt>
      <trkpt lat="50.01201" lon="2.0462">
        <ele>11.4</ele>
        <time>2022-04-12T13:43:12Z</time>
      </trkpt>
      <trkpt lat="50.01201" lon="2.0462">
        <ele>11.4</ele>
        <time>2022-04-12T13:43:13Z</time>
      </trkpt>
      <trkpt lat="50.01201" lon="2.0462">
        <ele>11.4</ele>
        <time>2022-04-12T13:43:14Z</time>
      </trkpt>
      <trkpt lat="50.01201" lon="2.0462">
        <ele>11.4</ele>
        <time>2022-04-12T13:43:15Z</time>
      </trkpt>
      <trkpt lat="50.01201" lon="2.0462">
        <ele>11.4</ele>
        <time>2022-04-12T13:43:16Z</time>
      </trkpt>
      <trkpt lat="50.01201" lon="2.0462">
        <ele>11.4</ele>
        <time>2022-04-12T13:43:17Z</time>
      </trkpt>
      <trkpt lat="50.01201" lon="2.0462">
        <ele>11.4</ele>
        <time>2022-04-12T13:43:18Z</time>
      </trkpt>
      <trkpt lat="50.01201" lon="2.0462">
        <ele>11.4</ele>
        <time>2022-04-12T13:43:19Z</time>
      </trkpt>
      <trkpt lat="50.01201" lon="2.0462">
        <ele>11.4</ele>
        <time>2022-04-12T13:43:20Z</time>
      </trkpt>
      <trkpt lat="50.01201" lon="2.0462">
        <ele>11.4</ele>
        <time>2022-04-12T13:43:21Z</time>
      </trkpt>
      <trkpt lat="50.01201" lon="2.0462">
        <ele>11.4</ele>
        <time>2022-04-12T13:43:22Z</time>
      </trkpt>
      <trkpt lat="50.01201" lon="2.0462">
        <ele>11.4</ele>
        <time>2022-04-12T13:43:23Z</time>
      </trkpt>
      <trkpt lat="50.01201" lon="2.0462">
        <ele>11.4</ele>
        <time>2022-04-12T13:43:24Z</time>
      </trkpt>
      <trkpt lat="50.01201" lon="2.0462">
        <ele>11.4</ele>
        <time>2022-04-12T13:43:25Z</time>
      </trkpt>
      <trkpt lat="50.01201" lon="2.0462">
        <ele>11.4</ele>
        <time>2022-04-12T13:43:26Z</time>
      </trkpt>
      <trkpt lat="50.01201" lon="2.0462">
        <ele>11.4</ele>
        <time>2022-04-12T13:43:27Z</time>
      </trkpt>
      <trkpt lat="50.01201" lon="2.0462">
        <ele>11.4</ele>
        <time>2022-04-12T13:43:28Z</time>
      </trkpt>
      <trkpt lat="50.01201" lon="2.0462">
        <ele>11.4</ele>
        <time>2022-04-12T13:43:29Z</time>
      </trkpt>
      <trkpt lat="50.01201" lon="2.0462">
        <ele>11.4</ele>
        <time>2022-04-12T13:43:30Z</time>
      </trkpt>
      <trkpt lat="50.01201" lon="2.0462">
        <ele>11.4</ele>
        <time>2022-04-12T13:43:31Z</time>
      </trkpt>
      <trkpt lat="50.01201" lon="2.0462">
        <ele>11.4</ele>
        <time>2022-04-12T13:43:32Z</time>
      </trkpt>
      <trkpt lat="50.01201" lon="2.04619">
        <ele>11.4</ele>
        <time>2022-04-12T13:43:33Z</time>
      </trkpt>
      <trkpt lat="50.01201" lon="2.04619">
        <ele>11.4</ele>
        <time>2022-04-12T13:43:34Z</time>
      </trkpt>
      <trkpt lat="50.01201" lon="2.04619">
        <ele>11.4</ele>
        <time>2022-04-12T13:43:35Z</time>
      </trkpt>
      <trkpt lat="50.01201" lon="2.04619">
        <ele>11.4</ele>
        <time>2022-04-12T13:43:36Z</time>
      </trkpt>
      <trkpt lat="50.01201" lon="2.04619">
        <ele>11.4</ele>
        <time>2022-04-12T13:43:37Z</time>
      </trkpt>
      <trkpt lat="50.01201" lon="2.04619">
        <ele>11.4</ele>
        <time>2022-04-12T13:43:38Z</time>
      </trkpt>
      <trkpt lat="50.01201" lon="2.04619">
        <ele>11.4</ele>
        <time>2022-04-12T13:43:39Z</time>
      </trkpt>
      <trkpt lat="50.01201" lon="2.04619">
        <ele>11.4</ele>
        <time>2022-04-12T13:43:40Z</time>
      </trkpt>
      <trkpt lat="50.01201" lon="2.04619">
        <ele>11.4</ele>
        <time>2022-04-12T13:43:41Z</time>
      </trkpt>
      <trkpt lat="50.01201" lon="2.04619">
        <ele>11.4</ele>
        <time>2022-04-12T13:43:42Z</time>
      </trkpt>
      <trkpt lat="50.01201" lon="2.04619">
        <ele>11.4</ele>
        <time>2022-04-12T13:43:43Z</time>
      </trkpt>
      <trkpt lat="50.01201" lon="2.04619">
        <ele>11.4</ele>
        <time>2022-04-12T13:43:44Z</time>
      </trkpt>
      <trkpt lat="50.01201" lon="2.04619">
        <ele>11.4</ele>
        <time>2022-04-12T13:43:45Z</time>
      </trkpt>
      <trkpt lat="50.01201" lon="2.04619">
        <ele>11.4</ele>
        <time>2022-04-12T13:43:46Z</time>
      </trkpt>
      <trkpt lat="50.01201" lon="2.04619">
        <ele>11.4</ele>
        <time>2022-04-12T13:43:47Z</time>
      </trkpt>
      <trkpt lat="50.01201" lon="2.04619">
        <ele>11.4</ele>
        <time>2022-04-12T13:43:48Z</time>
      </trkpt>
      <trkpt lat="50.01201" lon="2.04619">
        <ele>11.4</ele>
        <time>2022-04-12T13:43:49Z</time>
      </trkpt>
      <trkpt lat="50.01201" lon="2.04619">
        <ele>11.4</ele>
        <time>2022-04-12T13:43:50Z</time>
      </trkpt>
      <trkpt lat="50.01201" lon="2.04619">
        <ele>11.4</ele>
        <time>2022-04-12T13:43:51Z</time>
      </trkpt>
      <trkpt lat="50.01201" lon="2.04619">
        <ele>11.4</ele>
        <time>2022-04-12T13:43:52Z</time>
      </trkpt>
      <trkpt lat="50.01201" lon="2.04619">
        <ele>11.4</ele>
        <time>2022-04-12T13:43:53Z</time>
      </trkpt>
      <trkpt lat="50.01201" lon="2.04619">
        <ele>11.4</ele>
        <time>2022-04-12T13:43:54Z</time>
      </trkpt>
      <trkpt lat="50.01201" lon="2.04619">
        <ele>11.4</ele>
        <time>2022-04-12T13:43:55Z</time>
      </trkpt>
      <trkpt lat="50.01201" lon="2.04619">
        <ele>11.4</ele>
        <time>2022-04-12T13:43:56Z</time>
      </trkpt>
      <trkpt lat="50.01201" lon="2.04619">
        <ele>11.4</ele>
        <time>2022-04-12T13:43:57Z</time>
      </trkpt>
      <trkpt lat="50.01201" lon="2.04619">
        <ele>11.4</ele>
        <time>2022-04-12T13:43:58Z</time>
      </trkpt>
      <trkpt lat="50.01201" lon="2.04619">
        <ele>11.4</ele>
        <time>2022-04-12T13:43:59Z</time>
      </trkpt>
      <trkpt lat="50.01201" lon="2.04618">
        <ele>11.4</ele>
        <time>2022-04-12T13:44:00Z</time>
      </trkpt>
      <trkpt lat="50.01201" lon="2.04618">
        <ele>11.4</ele>
        <time>2022-04-12T13:44:01Z</time>
      </trkpt>
      <trkpt lat="50.01201" lon="2.04618">
        <ele>11.4</ele>
        <time>2022-04-12T13:44:02Z</time>
      </trkpt>
      <trkpt lat="50.01201" lon="2.04618">
        <ele>11.4</ele>
        <time>2022-04-12T13:44:03Z</time>
      </trkpt>
      <trkpt lat="50.01201" lon="2.04618">
        <ele>11.4</ele>
        <time>2022-04-12T13:44:04Z</time>
      </trkpt>
      <trkpt lat="50.01201" lon="2.04618">
        <ele>11.4</ele>
        <time>2022-04-12T13:44:05Z</time>
      </trkpt>
      <trkpt lat="50.01201" lon="2.04618">
        <ele>11.4</ele>
        <time>2022-04-12T13:44:06Z</time>
      </trkpt>
      <trkpt lat="50.01202" lon="2.04618">
        <ele>11.4</ele>
        <time>2022-04-12T13:44:07Z</time>
      </trkpt>
      <trkpt lat="50.01202" lon="2.04618">
        <ele>11.4</ele>
        <time>2022-04-12T13:44:08Z</time>
      </trkpt>
      <trkpt lat="50.01202" lon="2.04618">
        <ele>11.4</ele>
        <time>2022-04-12T13:44:09Z</time>
      </trkpt>
      <trkpt lat="50.01202" lon="2.04618">
        <ele>11.4</ele>
        <time>2022-04-12T13:44:10Z</time>
      </trkpt>
      <trkpt lat="50.01202" lon="2.04618">
        <ele>11.4</ele>
        <time>2022-04-12T13:44:11Z</time>
      </trkpt>
      <trkpt lat="50.01202" lon="2.04618">
        <ele>11.4</ele>
        <time>2022-04-12T13:44:12Z</time>
      </trkpt>
      <trkpt lat="50.01202" lon="2.04618">
        <ele>11.4</ele>
        <time>2022-04-12T13:44:13Z</time>
      </trkpt>
      <trkpt lat="50.01202" lon="2.04618">
        <ele>11.4</ele>
        <time>2022-04-12T13:44:14Z</time>
      </trkpt>
      <trkpt lat="50.01202" lon="2.04618">
        <ele>11.4</ele>
        <time>2022-04-12T13:44:15Z</time>
      </trkpt>
      <trkpt lat="50.01202" lon="2.04618">
        <ele>11.4</ele>
        <time>2022-04-12T13:44:16Z</time>
      </trkpt>
      <trkpt lat="50.01202" lon="2.04618">
        <ele>11.4</ele>
        <time>2022-04-12T13:44:17Z</time>
      </trkpt>
      <trkpt lat="50.01202" lon="2.04618">
        <ele>11.4</ele>
        <time>2022-04-12T13:44:18Z</time>
      </trkpt>
      <trkpt lat="50.01202" lon="2.04618">
        <ele>11.4</ele>
        <time>2022-04-12T13:44:20Z</time>
      </trkpt>
      <trkpt lat="50.01202" lon="2.04618">
        <ele>11.4</ele>
        <time>2022-04-12T13:44:21Z</time>
      </trkpt>
      <trkpt lat="50.01202" lon="2.04618">
        <ele>11.4</ele>
        <time>2022-04-12T13:44:22Z</time>
      </trkpt>
      <trkpt lat="50.01202" lon="2.04618">
        <ele>11.4</ele>
        <time>2022-04-12T13:44:23Z</time>
      </trkpt>
      <trkpt lat="50.01202" lon="2.04618">
        <ele>11.4</ele>
        <time>2022-04-12T13:44:24Z</time>
      </trkpt>
      <trkpt lat="50.01202" lon="2.04618">
        <ele>11.4</ele>
        <time>2022-04-12T13:44:25Z</time>
      </trkpt>
      <trkpt lat="50.01202" lon="2.04618">
        <ele>11.4</ele>
        <time>2022-04-12T13:44:26Z</time>
      </trkpt>
      <trkpt lat="50.01202" lon="2.04617">
        <ele>11.4</ele>
        <time>2022-04-12T13:44:27Z</time>
      </trkpt>
      <trkpt lat="50.01202" lon="2.04617">
        <ele>11.4</ele>
        <time>2022-04-12T13:44:28Z</time>
      </trkpt>
      <trkpt lat="50.01202" lon="2.04617">
        <ele>11.4</ele>
        <time>2022-04-12T13:44:29Z</time>
      </trkpt>
      <trkpt lat="50.01202" lon="2.04617">
        <ele>11.4</ele>
        <time>2022-04-12T13:44:30Z</time>
      </trkpt>
      <trkpt lat="50.01202" lon="2.04617">
        <ele>11.4</ele>
        <time>2022-04-12T13:44:31Z</time>
      </trkpt>
      <trkpt lat="50.01202" lon="2.04617">
        <ele>11.4</ele>
        <time>2022-04-12T13:44:32Z</time>
      </trkpt>
      <trkpt lat="50.01202" lon="2.04617">
        <ele>11.4</ele>
        <time>2022-04-12T13:44:33Z</time>
      </trkpt>
      <trkpt lat="50.01202" lon="2.04617">
        <ele>11.4</ele>
        <time>2022-04-12T13:44:34Z</time>
      </trkpt>
      <trkpt lat="50.01202" lon="2.04617">
        <ele>11.4</ele>
        <time>2022-04-12T13:44:35Z</time>
      </trkpt>
      <trkpt lat="50.01202" lon="2.04617">
        <ele>11.4</ele>
        <time>2022-04-12T13:44:36Z</time>
      </trkpt>
      <trkpt lat="50.01202" lon="2.04617">
        <ele>11.4</ele>
        <time>2022-04-12T13:44:37Z</time>
      </trkpt>
      <trkpt lat="50.01202" lon="2.04617">
        <ele>11.4</ele>
        <time>2022-04-12T13:44:38Z</time>
      </trkpt>
      <trkpt lat="50.01202" lon="2.04617">
        <ele>11.4</ele>
        <time>2022-04-12T13:44:39Z</time>
      </trkpt>
      <trkpt lat="50.01202" lon="2.04617">
        <ele>11.4</ele>
        <time>2022-04-12T13:44:40Z</time>
      </trkpt>
      <trkpt lat="50.01202" lon="2.04617">
        <ele>11.4</ele>
        <time>2022-04-12T13:44:41Z</time>
      </trkpt>
      <trkpt lat="50.01202" lon="2.04617">
        <ele>11.4</ele>
        <time>2022-04-12T13:44:42Z</time>
      </trkpt>
      <trkpt lat="50.01202" lon="2.04617">
        <ele>11.4</ele>
        <time>2022-04-12T13:44:43Z</time>
      </trkpt>
      <trkpt lat="50.01202" lon="2.04617">
        <ele>11.4</ele>
        <time>2022-04-12T13:44:44Z</time>
      </trkpt>
      <trkpt lat="50.01202" lon="2.04617">
        <ele>11.4</ele>
        <time>2022-04-12T13:44:45Z</time>
      </trkpt>
      <trkpt lat="50.01202" lon="2.04617">
        <ele>11.4</ele>
        <time>2022-04-12T13:44:46Z</time>
      </trkpt>
      <trkpt lat="50.01202" lon="2.04617">
        <ele>11.4</ele>
        <time>2022-04-12T13:44:47Z</time>
      </trkpt>
      <trkpt lat="50.01202" lon="2.04617">
        <ele>11.4</ele>
        <time>2022-04-12T13:44:48Z</time>
      </trkpt>
      <trkpt lat="50.01202" lon="2.04617">
        <ele>11.4</ele>
        <time>2022-04-12T13:44:49Z</time>
      </trkpt>
      <trkpt lat="50.01202" lon="2.04617">
        <ele>11.4</ele>
        <time>2022-04-12T13:44:50Z</time>
      </trkpt>
      <trkpt lat="50.01202" lon="2.04617">
        <ele>11.4</ele>
        <time>2022-04-12T13:44:51Z</time>
      </trkpt>
      <trkpt lat="50.01202" lon="2.04617">
        <ele>11.4</ele>
        <time>2022-04-12T13:44:52Z</time>
      </trkpt>
      <trkpt lat="50.01202" lon="2.04617">
        <ele>11.4</ele>
        <time>2022-04-12T13:44:53Z</time>
      </trkpt>
      <trkpt lat="50.01202" lon="2.04616">
        <ele>11.4</ele>
        <time>2022-04-12T13:44:54Z</time>
      </trkpt>
      <trkpt lat="50.01202" lon="2.04616">
        <ele>11.4</ele>
        <time>2022-04-12T13:44:55Z</time>
      </trkpt>
      <trkpt lat="50.01202" lon="2.04616">
        <ele>11.4</ele>
        <time>2022-04-12T13:44:56Z</time>
      </trkpt>
      <trkpt lat="50.01202" lon="2.04616">
        <ele>11.4</ele>
        <time>2022-04-12T13:44:57Z</time>
      </trkpt>
      <trkpt lat="50.01203" lon="2.04613">
        <ele>11.4</ele>
        <time>2022-04-12T13:44:58Z</time>
      </trkpt>
      <trkpt lat="50.01203" lon="2.04612">
        <ele>11.4</ele>
        <time>2022-04-12T13:44:59Z</time>
      </trkpt>
      <trkpt lat="50.01203" lon="2.04612">
        <ele>11.4</ele>
        <time>2022-04-12T13:45:00Z</time>
      </trkpt>
      <trkpt lat="50.01203" lon="2.04612">
        <ele>11.4</ele>
        <time>2022-04-12T13:45:01Z</time>
      </trkpt>
      <trkpt lat="50.01203" lon="2.04612">
        <ele>11.4</ele>
        <time>2022-04-12T13:45:02Z</time>
      </trkpt>
      <trkpt lat="50.01203" lon="2.04612">
        <ele>11.4</ele>
        <time>2022-04-12T13:45:03Z</time>
      </trkpt>
      <trkpt lat="50.01203" lon="2.04612">
        <ele>11.4</ele>
        <time>2022-04-12T13:45:04Z</time>
      </trkpt>
      <trkpt lat="50.01203" lon="2.04612">
        <ele>11.4</ele>
        <time>2022-04-12T13:45:05Z</time>
      </trkpt>
      <trkpt lat="50.01203" lon="2.04612">
        <ele>11.4</ele>
        <time>2022-04-12T13:45:06Z</time>
      </trkpt>
      <trkpt lat="50.01203" lon="2.04612">
        <ele>11.4</ele>
        <time>2022-04-12T13:45:07Z</time>
      </trkpt>
      <trkpt lat="50.01203" lon="2.04612">
        <ele>11.4</ele>
        <time>2022-04-12T13:45:08Z</time>
      </trkpt>
      <trkpt lat="50.01203" lon="2.04612">
        <ele>11.4</ele>
        <time>2022-04-12T13:45:09Z</time>
      </trkpt>
      <trkpt lat="50.01203" lon="2.04612">
        <ele>11.4</ele>
        <time>2022-04-12T13:45:10Z</time>
      </trkpt>
      <trkpt lat="50.01203" lon="2.04612">
        <ele>11.4</ele>
        <time>2022-04-12T13:45:11Z</time>
      </trkpt>
      <trkpt lat="50.01203" lon="2.04612">
        <ele>11.4</ele>
        <time>2022-04-12T13:45:12Z</time>
      </trkpt>
      <trkpt lat="50.01203" lon="2.04612">
        <ele>11.4</ele>
        <time>2022-04-12T13:45:13Z</time>
      </trkpt>
      <trkpt lat="50.01203" lon="2.04612">
        <ele>11.4</ele>
        <time>2022-04-12T13:45:14Z</time>
      </trkpt>
      <trkpt lat="50.01203" lon="2.04612">
        <ele>11.4</ele>
        <time>2022-04-12T13:45:15Z</time>
      </trkpt>
      <trkpt lat="50.01203" lon="2.04612">
        <ele>11.4</ele>
        <time>2022-04-12T13:45:16Z</time>
      </trkpt>
      <trkpt lat="50.01203" lon="2.04612">
        <ele>11.4</ele>
        <time>2022-04-12T13:45:17Z</time>
      </trkpt>
      <trkpt lat="50.01203" lon="2.04612">
        <ele>11.4</ele>
        <time>2022-04-12T13:45:18Z</time>
      </trkpt>
      <trkpt lat="50.01203" lon="2.04612">
        <ele>11.4</ele>
        <time>2022-04-12T13:45:19Z</time>
      </trkpt>
      <trkpt lat="50.01203" lon="2.04612">
        <ele>11.4</ele>
        <time>2022-04-12T13:45:20Z</time>
      </trkpt>
      <trkpt lat="50.01203" lon="2.04612">
        <ele>11.4</ele>
        <time>2022-04-12T13:45:21Z</time>
      </trkpt>
      <trkpt lat="50.01203" lon="2.04612">
        <ele>11.4</ele>
        <time>2022-04-12T13:45:22Z</time>
      </trkpt>
      <trkpt lat="50.01203" lon="2.04612">
        <ele>11.4</ele>
        <time>2022-04-12T13:45:23Z</time>
      </trkpt>
      <trkpt lat="50.01203" lon="2.04612">
        <ele>11.4</ele>
        <time>2022-04-12T13:45:24Z</time>
      </trkpt>
      <trkpt lat="50.01203" lon="2.04612">
        <ele>11.4</ele>
        <time>2022-04-12T13:45:25Z</time>
      </trkpt>
      <trkpt lat="50.01203" lon="2.04612">
        <ele>11.4</ele>
        <time>2022-04-12T13:45:26Z</time>
      </trkpt>
      <trkpt lat="50.01203" lon="2.04612">
        <ele>11.4</ele>
        <time>2022-04-12T13:45:27Z</time>
      </trkpt>
      <trkpt lat="50.01203" lon="2.04612">
        <ele>11.4</ele>
        <time>2022-04-12T13:45:28Z</time>
      </trkpt>
      <trkpt lat="50.01203" lon="2.04612">
        <ele>11.4</ele>
        <time>2022-04-12T13:45:29Z</time>
      </trkpt>
      <trkpt lat="50.01203" lon="2.04612">
        <ele>11.4</ele>
        <time>2022-04-12T13:45:30Z</time>
      </trkpt>
      <trkpt lat="50.01203" lon="2.04612">
        <ele>11.4</ele>
        <time>2022-04-12T13:45:31Z</time>
      </trkpt>
      <trkpt lat="50.01203" lon="2.04612">
        <ele>11.4</ele>
        <time>2022-04-12T13:45:32Z</time>
      </trkpt>
      <trkpt lat="50.01203" lon="2.04612">
        <ele>11.4</ele>
        <time>2022-04-12T13:45:33Z</time>
      </trkpt>
      <trkpt lat="50.01203" lon="2.04612">
        <ele>11.4</ele>
        <time>2022-04-12T13:45:34Z</time>
      </trkpt>
      <trkpt lat="50.01203" lon="2.04612">
        <ele>11.4</ele>
        <time>2022-04-12T13:45:35Z</time>
      </trkpt>
      <trkpt lat="50.01203" lon="2.04612">
        <ele>11.4</ele>
        <time>2022-04-12T13:45:36Z</time>
      </trkpt>
      <trkpt lat="50.01203" lon="2.04612">
        <ele>11.4</ele>
        <time>2022-04-12T13:45:37Z</time>
      </trkpt>
      <trkpt lat="50.01203" lon="2.04612">
        <ele>11.4</ele>
        <time>2022-04-12T13:45:38Z</time>
      </trkpt>
      <trkpt lat="50.01203" lon="2.04612">
        <ele>11.4</ele>
        <time>2022-04-12T13:45:39Z</time>
      </trkpt>
      <trkpt lat="50.01203" lon="2.04612">
        <ele>11.4</ele>
        <time>2022-04-12T13:45:40Z</time>
      </trkpt>
      <trkpt lat="50.01203" lon="2.04612">
        <ele>11.4</ele>
        <time>2022-04-12T13:45:41Z</time>
      </trkpt>
      <trkpt lat="50.01203" lon="2.04612">
        <ele>11.4</ele>
        <time>2022-04-12T13:45:42Z</time>
      </trkpt>
      <trkpt lat="50.01203" lon="2.04612">
        <ele>11.4</ele>
        <time>2022-04-12T13:45:43Z</time>
      </trkpt>
      <trkpt lat="50.01203" lon="2.04612">
        <ele>11.4</ele>
        <time>2022-04-12T13:45:44Z</time>
      </trkpt>
      <trkpt lat="50.01203" lon="2.04612">
        <ele>11.4</ele>
        <time>2022-04-12T13:45:45Z</time>
      </trkpt>
      <trkpt lat="50.01203" lon="2.04612">
        <ele>11.4</ele>
        <time>2022-04-12T13:45:46Z</time>
      </trkpt>
      <trkpt lat="50.01203" lon="2.04612">
        <ele>11.4</ele>
        <time>2022-04-12T13:45:47Z</time>
      </trkpt>
      <trkpt lat="50.01203" lon="2.04612">
        <ele>11.4</ele>
        <time>2022-04-12T13:45:48Z</time>
      </trkpt>
      <trkpt lat="50.01203" lon="2.04612">
        <ele>11.4</ele>
        <time>2022-04-12T13:45:49Z</time>
      </trkpt>
      <trkpt lat="50.01203" lon="2.04612">
        <ele>11.4</ele>
        <time>2022-04-12T13:45:50Z</time>
      </trkpt>
      <trkpt lat="50.01203" lon="2.04612">
        <ele>11.4</ele>
        <time>2022-04-12T13:45:51Z</time>
      </trkpt>
      <trkpt lat="50.01203" lon="2.04612">
        <ele>11.4</ele>
        <time>2022-04-12T13:45:52Z</time>
      </trkpt>
      <trkpt lat="50.01203" lon="2.04612">
        <ele>11.4</ele>
        <time>2022-04-12T13:45:53Z</time>
      </trkpt>
      <trkpt lat="50.01203" lon="2.04612">
        <ele>11.4</ele>
        <time>2022-04-12T13:45:54Z</time>
      </trkpt>
      <trkpt lat="50.01203" lon="2.04612">
        <ele>11.4</ele>
        <time>2022-04-12T13:45:55Z</time>
      </trkpt>
      <trkpt lat="50.01203" lon="2.04612">
        <ele>11.4</ele>
        <time>2022-04-12T13:45:56Z</time>
      </trkpt>
      <trkpt lat="50.01203" lon="2.04612">
        <ele>11.4</ele>
        <time>2022-04-12T13:45:57Z</time>
      </trkpt>
      <trkpt lat="50.01203" lon="2.04612">
        <ele>11.4</ele>
        <time>2022-04-12T13:45:58Z</time>
      </trkpt>
      <trkpt lat="50.01203" lon="2.04612">
        <ele>11.4</ele>
        <time>2022-04-12T13:45:59Z</time>
      </trkpt>
      <trkpt lat="50.01203" lon="2.04612">
        <ele>11.4</ele>
        <time>2022-04-12T13:46:00Z</time>
      </trkpt>
      <trkpt lat="50.01203" lon="2.04612">
        <ele>11.4</ele>
        <time>2022-04-12T13:46:01Z</time>
      </trkpt>
      <trkpt lat="50.01203" lon="2.04612">
        <ele>11.4</ele>
        <time>2022-04-12T13:46:02Z</time>
      </trkpt>
      <trkpt lat="50.01203" lon="2.04612">
        <ele>11.4</ele>
        <time>2022-04-12T13:46:03Z</time>
      </trkpt>
      <trkpt lat="50.01203" lon="2.04612">
        <ele>11.4</ele>
        <time>2022-04-12T13:46:04Z</time>
      </trkpt>
      <trkpt lat="50.01203" lon="2.04612">
        <ele>11.4</ele>
        <time>2022-04-12T13:46:05Z</time>
      </trkpt>
      <trkpt lat="50.01203" lon="2.04612">
        <ele>11.4</ele>
        <time>2022-04-12T13:46:06Z</time>
      </trkpt>
      <trkpt lat="50.01203" lon="2.04612">
        <ele>11.4</ele>
        <time>2022-04-12T13:46:07Z</time>
      </trkpt>
      <trkpt lat="50.01203" lon="2.04612">
        <ele>11.4</ele>
        <time>2022-04-12T13:46:08Z</time>
      </trkpt>
      <trkpt lat="50.01203" lon="2.04612">
        <ele>11.4</ele>
        <time>2022-04-12T13:46:09Z</time>
      </trkpt>
      <trkpt lat="50.01203" lon="2.04612">
        <ele>11.4</ele>
        <time>2022-04-12T13:46:10Z</time>
      </trkpt>
      <trkpt lat="50.01203" lon="2.04612">
        <ele>11.4</ele>
        <time>2022-04-12T13:46:11Z</time>
      </trkpt>
      <trkpt lat="50.01203" lon="2.04612">
        <ele>11.4</ele>
        <time>2022-04-12T13:46:12Z</time>
      </trkpt>
      <trkpt lat="50.01203" lon="2.04612">
        <ele>11.4</ele>
        <time>2022-04-12T13:46:13Z</time>
      </trkpt>
      <trkpt lat="50.01203" lon="2.04612">
        <ele>11.4</ele>
        <time>2022-04-12T13:46:14Z</time>
      </trkpt>
      <trkpt lat="50.01203" lon="2.04612">
        <ele>11.4</ele>
        <time>2022-04-12T13:46:15Z</time>
      </trkpt>
      <trkpt lat="50.01203" lon="2.04612">
        <ele>11.4</ele>
        <time>2022-04-12T13:46:16Z</time>
      </trkpt>
      <trkpt lat="50.01203" lon="2.04612">
        <ele>11.4</ele>
        <time>2022-04-12T13:46:17Z</time>
      </trkpt>
      <trkpt lat="50.01203" lon="2.04612">
        <ele>11.4</ele>
        <time>2022-04-12T13:46:18Z</time>
      </trkpt>
      <trkpt lat="50.01203" lon="2.04612">
        <ele>11.4</ele>
        <time>2022-04-12T13:46:19Z</time>
      </trkpt>
      <trkpt lat="50.01203" lon="2.04612">
        <ele>11.4</ele>
        <time>2022-04-12T13:46:20Z</time>
      </trkpt>
      <trkpt lat="50.01203" lon="2.04612">
        <ele>11.4</ele>
        <time>2022-04-12T13:46:21Z</time>
      </trkpt>
      <trkpt lat="50.01203" lon="2.04612">
        <ele>11.4</ele>
        <time>2022-04-12T13:46:22Z</time>
      </trkpt>
      <trkpt lat="50.01203" lon="2.04612">
        <ele>11.4</ele>
        <time>2022-04-12T13:46:23Z</time>
      </trkpt>
      <trkpt lat="50.01203" lon="2.04612">
        <ele>11.4</ele>
        <time>2022-04-12T13:46:24Z</time>
      </trkpt>
      <trkpt lat="50.01203" lon="2.04612">
        <ele>11.4</ele>
        <time>2022-04-12T13:46:25Z</time>
      </trkpt>
      <trkpt lat="50.01203" lon="2.04612">
        <ele>11.4</ele>
        <time>2022-04-12T13:46:26Z</time>
      </trkpt>
      <trkpt lat="50.01203" lon="2.04612">
        <ele>11.4</ele>
        <time>2022-04-12T13:46:27Z</time>
      </trkpt>
      <trkpt lat="50.01203" lon="2.04612">
        <ele>11.4</ele>
        <time>2022-04-12T13:46:28Z</time>
      </trkpt>
      <trkpt lat="50.01203" lon="2.04612">
        <ele>11.4</ele>
        <time>2022-04-12T13:46:29Z</time>
      </trkpt>
      <trkpt lat="50.01203" lon="2.04611">
        <ele>11.4</ele>
        <time>2022-04-12T13:46:30Z</time>
      </trkpt>
      <trkpt lat="50.01203" lon="2.04611">
        <ele>11.4</ele>
        <time>2022-04-12T13:46:31Z</time>
      </trkpt>
      <trkpt lat="50.01203" lon="2.04611">
        <ele>11.4</ele>
        <time>2022-04-12T13:46:32Z</time>
      </trkpt>
      <trkpt lat="50.01203" lon="2.04611">
        <ele>11.4</ele>
        <time>2022-04-12T13:46:33Z</time>
      </trkpt>
      <trkpt lat="50.01204" lon="2.0461">
        <ele>11.4</ele>
        <time>2022-04-12T13:46:34Z</time>
      </trkpt>
      <trkpt lat="50.01204" lon="2.0461">
        <ele>11.4</ele>
        <time>2022-04-12T13:46:35Z</time>
      </trkpt>
      <trkpt lat="50.01204" lon="2.0461">
        <ele>11.4</ele>
        <time>2022-04-12T13:46:36Z</time>
      </trkpt>
      <trkpt lat="50.01204" lon="2.04609">
        <ele>11.4</ele>
        <time>2022-04-12T13:46:37Z</time>
      </trkpt>
      <trkpt lat="50.01204" lon="2.04609">
        <ele>11.4</ele>
        <time>2022-04-12T13:46:38Z</time>
      </trkpt>
      <trkpt lat="50.01204" lon="2.04609">
        <ele>11.4</ele>
        <time>2022-04-12T13:46:39Z</time>
      </trkpt>
      <trkpt lat="50.01204" lon="2.0461">
        <ele>11.4</ele>
        <time>2022-04-12T13:46:40Z</time>
      </trkpt>
      <trkpt lat="50.01204" lon="2.0461">
        <ele>11.4</ele>
        <time>2022-04-12T13:46:41Z</time>
      </trkpt>
      <trkpt lat="50.01204" lon="2.0461">
        <ele>11.4</ele>
        <time>2022-04-12T13:46:42Z</time>
      </trkpt>
      <trkpt lat="50.01204" lon="2.04609">
        <ele>11.4</ele>
        <time>2022-04-12T13:46:43Z</time>
      </trkpt>
      <trkpt lat="50.01205" lon="2.04609">
        <ele>11.4</ele>
        <time>2022-04-12T13:46:44Z</time>
      </trkpt>
      <trkpt lat="50.01205" lon="2.04608">
        <ele>11.4</ele>
        <time>2022-04-12T13:46:45Z</time>
      </trkpt>
      <trkpt lat="50.01205" lon="2.04609">
        <ele>11.4</ele>
        <time>2022-04-12T13:46:46Z</time>
      </trkpt>
      <trkpt lat="50.01205" lon="2.04609">
        <ele>11.4</ele>
        <time>2022-04-12T13:46:47Z</time>
      </trkpt>
      <trkpt lat="50.01206" lon="2.04609">
        <ele>11.4</ele>
        <time>2022-04-12T13:46:48Z</time>
      </trkpt>
      <trkpt lat="50.01206" lon="2.04609">
        <ele>11.4</ele>
        <time>2022-04-12T13:46:49Z</time>
      </trkpt>
      <trkpt lat="50.01207" lon="2.04609">
        <ele>11.4</ele>
        <time>2022-04-12T13:46:51Z</time>
      </trkpt>
      <trkpt lat="50.01207" lon="2.04608">
        <ele>11.4</ele>
        <time>2022-04-12T13:46:52Z</time>
      </trkpt>
      <trkpt lat="50.01208" lon="2.04608">
        <ele>11.4</ele>
        <time>2022-04-12T13:46:53Z</time>
      </trkpt>
      <trkpt lat="50.01209" lon="2.04607">
        <ele>11.4</ele>
        <time>2022-04-12T13:46:54Z</time>
      </trkpt>
      <trkpt lat="50.0121" lon="2.04607">
        <ele>11.4</ele>
        <time>2022-04-12T13:46:55Z</time>
      </trkpt>
      <trkpt lat="50.01212" lon="2.04607">
        <ele>11.4</ele>
        <time>2022-04-12T13:46:57Z</time>
      </trkpt>
      <trkpt lat="50.01213" lon="2.04606">
        <ele>11.4</ele>
        <time>2022-04-12T13:46:58Z</time>
      </trkpt>
      <trkpt lat="50.01214" lon="2.04606">
        <ele>11.3</ele>
        <time>2022-04-12T13:46:59Z</time>
      </trkpt>
      <trkpt lat="50.01215" lon="2.04606">
        <ele>11.3</ele>
        <time>2022-04-12T13:47:00Z</time>
      </trkpt>
      <trkpt lat="50.01216" lon="2.04605">
        <ele>11.3</ele>
        <time>2022-04-12T13:47:01Z</time>
      </trkpt>
      <trkpt lat="50.01217" lon="2.04603">
        <ele>11.3</ele>
        <time>2022-04-12T13:47:03Z</time>
      </trkpt>
      <trkpt lat="50.01217" lon="2.04602">
        <ele>11.3</ele>
        <time>2022-04-12T13:47:04Z</time>
      </trkpt>
      <trkpt lat="50.01218" lon="2.04602">
        <ele>11.3</ele>
        <time>2022-04-12T13:47:05Z</time>
      </trkpt>
      <trkpt lat="50.01218" lon="2.04603">
        <ele>11.3</ele>
        <time>2022-04-12T13:47:07Z</time>
      </trkpt>
      <trkpt lat="50.01219" lon="2.04602">
        <ele>11.3</ele>
        <time>2022-04-12T13:47:08Z</time>
      </trkpt>
      <trkpt lat="50.0122" lon="2.04602">
        <ele>11.3</ele>
        <time>2022-04-12T13:47:09Z</time>
      </trkpt>
      <trkpt lat="50.0122" lon="2.04602">
        <ele>11.3</ele>
        <time>2022-04-12T13:47:10Z</time>
      </trkpt>
      <trkpt lat="50.01221" lon="2.04601">
        <ele>11.3</ele>
        <time>2022-04-12T13:47:11Z</time>
      </trkpt>
      <trkpt lat="50.01222" lon="2.04601">
        <ele>11.3</ele>
        <time>2022-04-12T13:47:13Z</time>
      </trkpt>
      <trkpt lat="50.01223" lon="2.046">
        <ele>11.3</ele>
        <time>2022-04-12T13:47:14Z</time>
      </trkpt>
      <trkpt lat="50.01224" lon="2.04599">
        <ele>11.3</ele>
        <time>2022-04-12T13:47:15Z</time>
      </trkpt>
      <trkpt lat="50.01225" lon="2.04599">
        <ele>11.3</ele>
        <time>2022-04-12T13:47:16Z</time>
      </trkpt>
      <trkpt lat="50.01227" lon="2.04598">
        <ele>11.3</ele>
        <time>2022-04-12T13:47:17Z</time>
      </trkpt>
      <trkpt lat="50.01228" lon="2.04597">
        <ele>11.3</ele>
        <time>2022-04-12T13:47:18Z</time>
      </trkpt>
      <trkpt lat="50.0123" lon="2.04596">
        <ele>11.3</ele>
        <time>2022-04-12T13:47:19Z</time>
      </trkpt>
      <trkpt lat="50.01231" lon="2.04595">
        <ele>11.3</ele>
        <time>2022-04-12T13:47:21Z</time>
      </trkpt>
      <trkpt lat="50.01231" lon="2.04595">
        <ele>11.3</ele>
        <time>2022-04-12T13:47:22Z</time>
      </trkpt>
      <trkpt lat="50.01233" lon="2.04594">
        <ele>11.3</ele>
        <time>2022-04-12T13:47:23Z</time>
      </trkpt>
      <trkpt lat="50.01234" lon="2.04593">
        <ele>11.3</ele>
        <time>2022-04-12T13:47:24Z</time>
      </trkpt>
      <trkpt lat="50.01235" lon="2.04592">
        <ele>11.3</ele>
        <time>2022-04-12T13:47:25Z</time>
      </trkpt>
      <trkpt lat="50.01237" lon="2.04591">
        <ele>11.3</ele>
        <time>2022-04-12T13:47:26Z</time>
      </trkpt>
      <trkpt lat="50.01238" lon="2.04591">
        <ele>11.3</ele>
        <time>2022-04-12T13:47:27Z</time>
      </trkpt>
      <trkpt lat="50.01238" lon="2.0459">
        <ele>11.3</ele>
        <time>2022-04-12T13:47:28Z</time>
      </trkpt>
      <trkpt lat="50.0124" lon="2.04588">
        <ele>11.3</ele>
        <time>2022-04-12T13:47:29Z</time>
      </trkpt>
      <trkpt lat="50.01241" lon="2.04587">
        <ele>11.3</ele>
        <time>2022-04-12T13:47:31Z</time>
      </trkpt>
      <trkpt lat="50.01242" lon="2.04587">
        <ele>11.3</ele>
        <time>2022-04-12T13:47:32Z</time>
      </trkpt>
      <trkpt lat="50.01242" lon="2.04585">
        <ele>11.3</ele>
        <time>2022-04-12T13:47:33Z</time>
      </trkpt>
      <trkpt lat="50.01243" lon="2.04583">
        <ele>11.3</ele>
        <time>2022-04-12T13:47:34Z</time>
      </trkpt>
      <trkpt lat="50.01245" lon="2.04582">
        <ele>11.3</ele>
        <time>2022-04-12T13:47:35Z</time>
      </trkpt>
      <trkpt lat="50.01246" lon="2.04581">
        <ele>11.3</ele>
        <time>2022-04-12T13:47:36Z</time>
      </trkpt>
      <trkpt lat="50.01247" lon="2.0458">
        <ele>11.3</ele>
        <time>2022-04-12T13:47:37Z</time>
      </trkpt>
      <trkpt lat="50.01249" lon="2.04579">
        <ele>11.3</ele>
        <time>2022-04-12T13:47:38Z</time>
      </trkpt>
      <trkpt lat="50.01251" lon="2.04577">
        <ele>11.3</ele>
        <time>2022-04-12T13:47:40Z</time>
      </trkpt>
      <trkpt lat="50.01252" lon="2.04577">
        <ele>11.3</ele>
        <time>2022-04-12T13:47:41Z</time>
      </trkpt>
      <trkpt lat="50.01253" lon="2.04576">
        <ele>11.2</ele>
        <time>2022-04-12T13:47:42Z</time>
      </trkpt>
      <trkpt lat="50.01255" lon="2.04575">
        <ele>11.2</ele>
        <time>2022-04-12T13:47:43Z</time>
      </trkpt>
      <trkpt lat="50.01256" lon="2.04574">
        <ele>11.2</ele>
        <time>2022-04-12T13:47:44Z</time>
      </trkpt>
      <trkpt lat="50.01258" lon="2.04572">
        <ele>11.2</ele>
        <time>2022-04-12T13:47:45Z</time>
      </trkpt>
      <trkpt lat="50.01259" lon="2.04571">
        <ele>11.2</ele>
        <time>2022-04-12T13:47:47Z</time>
      </trkpt>
      <trkpt lat="50.0126" lon="2.0457">
        <ele>11.2</ele>
        <time>2022-04-12T13:47:48Z</time>
      </trkpt>
      <trkpt lat="50.01261" lon="2.04569">
        <ele>11.2</ele>
        <time>2022-04-12T13:47:49Z</time>
      </trkpt>
      <trkpt lat="50.01262" lon="2.04568">
        <ele>11.2</ele>
        <time>2022-04-12T13:47:50Z</time>
      </trkpt>
      <trkpt lat="50.01264" lon="2.04566">
        <ele>11.2</ele>
        <time>2022-04-12T13:47:51Z</time>
      </trkpt>
      <trkpt lat="50.01265" lon="2.04566">
        <ele>11.2</ele>
        <time>2022-04-12T13:47:52Z</time>
      </trkpt>
      <trkpt lat="50.01266" lon="2.04565">
        <ele>11.2</ele>
        <time>2022-04-12T13:47:54Z</time>
      </trkpt>
      <trkpt lat="50.01267" lon="2.04564">
        <ele>11.2</ele>
        <time>2022-04-12T13:47:55Z</time>
      </trkpt>
      <trkpt lat="50.01268" lon="2.04563">
        <ele>11.2</ele>
        <time>2022-04-12T13:47:56Z</time>
      </trkpt>
      <trkpt lat="50.01269" lon="2.04563">
        <ele>11.2</ele>
        <time>2022-04-12T13:47:57Z</time>
      </trkpt>
      <trkpt lat="50.0127" lon="2.04561">
        <ele>11.2</ele>
        <time>2022-04-12T13:47:58Z</time>
      </trkpt>
      <trkpt lat="50.01271" lon="2.0456">
        <ele>11.2</ele>
        <time>2022-04-12T13:47:59Z</time>
      </trkpt>
      <trkpt lat="50.01272" lon="2.04559">
        <ele>11.2</ele>
        <time>2022-04-12T13:48:00Z</time>
      </trkpt>
      <trkpt lat="50.01273" lon="2.04557">
        <ele>11.2</ele>
        <time>2022-04-12T13:48:01Z</time>
      </trkpt>
      <trkpt lat="50.01274" lon="2.04556">
        <ele>11.1</ele>
        <time>2022-04-12T13:48:02Z</time>
      </trkpt>
      <trkpt lat="50.01275" lon="2.04555">
        <ele>11.1</ele>
        <time>2022-04-12T13:48:03Z</time>
      </trkpt>
      <trkpt lat="50.01275" lon="2.04554">
        <ele>11.1</ele>
        <time>2022-04-12T13:48:05Z</time>
      </trkpt>
      <trkpt lat="50.01276" lon="2.04553">
        <ele>11.1</ele>
        <time>2022-04-12T13:48:06Z</time>
      </trkpt>
      <trkpt lat="50.01277" lon="2.04552">
        <ele>11.1</ele>
        <time>2022-04-12T13:48:07Z</time>
      </trkpt>
      <trkpt lat="50.01279" lon="2.0455">
        <ele>11.1</ele>
        <time>2022-04-12T13:48:08Z</time>
      </trkpt>
      <trkpt lat="50.0128" lon="2.04549">
        <ele>11.1</ele>
        <time>2022-04-12T13:48:09Z</time>
      </trkpt>
      <trkpt lat="50.0128" lon="2.04548">
        <ele>11.1</ele>
        <time>2022-04-12T13:48:10Z</time>
      </trkpt>
      <trkpt lat="50.01282" lon="2.04546">
        <ele>11.1</ele>
        <time>2022-04-12T13:48:11Z</time>
      </trkpt>
      <trkpt lat="50.01283" lon="2.04545">
        <ele>11.1</ele>
        <time>2022-04-12T13:48:12Z</time>
      </trkpt>
      <trkpt lat="50.01283" lon="2.04544">
        <ele>11.1</ele>
        <time>2022-04-12T13:48:13Z</time>
      </trkpt>
      <trkpt lat="50.01284" lon="2.04542">
        <ele>11.1</ele>
        <time>2022-04-12T13:48:14Z</time>
      </trkpt>
      <trkpt lat="50.01285" lon="2.04541">
        <ele>11.1</ele>
        <time>2022-04-12T13:48:16Z</time>
      </trkpt>
      <trkpt lat="50.01285" lon="2.0454">
        <ele>11.1</ele>
        <time>2022-04-12T13:48:17Z</time>
      </trkpt>
      <trkpt lat="50.01287" lon="2.04537">
        <ele>11.1</ele>
        <time>2022-04-12T13:48:18Z</time>
      </trkpt>
      <trkpt lat="50.01287" lon="2.04536">
        <ele>11.1</ele>
        <time>2022-04-12T13:48:19Z</time>
      </trkpt>
      <trkpt lat="50.01288" lon="2.04536">
        <ele>11.1</ele>
        <time>2022-04-12T13:48:20Z</time>
      </trkpt>
      <trkpt lat="50.01289" lon="2.04533">
        <ele>11.1</ele>
        <time>2022-04-12T13:48:21Z</time>
      </trkpt>
      <trkpt lat="50.0129" lon="2.04532">
        <ele>11.1</ele>
        <time>2022-04-12T13:48:22Z</time>
      </trkpt>
      <trkpt lat="50.0129" lon="2.04531">
        <ele>11.1</ele>
        <time>2022-04-12T13:48:23Z</time>
      </trkpt>
      <trkpt lat="50.01291" lon="2.04528">
        <ele>11.2</ele>
        <time>2022-04-12T13:48:24Z</time>
      </trkpt>
      <trkpt lat="50.01292" lon="2.04527">
        <ele>11.2</ele>
        <time>2022-04-12T13:48:25Z</time>
      </trkpt>
      <trkpt lat="50.01292" lon="2.04525">
        <ele>11.2</ele>
        <time>2022-04-12T13:48:26Z</time>
      </trkpt>
      <trkpt lat="50.01293" lon="2.04522">
        <ele>11.2</ele>
        <time>2022-04-12T13:48:27Z</time>
      </trkpt>
      <trkpt lat="50.01293" lon="2.04521">
        <ele>11.2</ele>
        <time>2022-04-12T13:48:29Z</time>
      </trkpt>
      <trkpt lat="50.01293" lon="2.0452">
        <ele>11.2</ele>
        <time>2022-04-12T13:48:30Z</time>
      </trkpt>
      <trkpt lat="50.01294" lon="2.04518">
        <ele>11.2</ele>
        <time>2022-04-12T13:48:31Z</time>
      </trkpt>
      <trkpt lat="50.01294" lon="2.04516">
        <ele>11.2</ele>
        <time>2022-04-12T13:48:32Z</time>
      </trkpt>
      <trkpt lat="50.01295" lon="2.04515">
        <ele>11.2</ele>
        <time>2022-04-12T13:48:33Z</time>
      </trkpt>
      <trkpt lat="50.01296" lon="2.04512">
        <ele>11.2</ele>
        <time>2022-04-12T13:48:34Z</time>
      </trkpt>
      <trkpt lat="50.01296" lon="2.04511">
        <ele>11.2</ele>
        <time>2022-04-12T13:48:35Z</time>
      </trkpt>
      <trkpt lat="50.01297" lon="2.0451">
        <ele>11.2</ele>
        <time>2022-04-12T13:48:36Z</time>
      </trkpt>
      <trkpt lat="50.01298" lon="2.04508">
        <ele>11.2</ele>
        <time>2022-04-12T13:48:37Z</time>
      </trkpt>
      <trkpt lat="50.01299" lon="2.04507">
        <ele>11.2</ele>
        <time>2022-04-12T13:48:38Z</time>
      </trkpt>
      <trkpt lat="50.01299" lon="2.04506">
        <ele>11.2</ele>
        <time>2022-04-12T13:48:39Z</time>
      </trkpt>
      <trkpt lat="50.013" lon="2.04504">
        <ele>11.2</ele>
        <time>2022-04-12T13:48:41Z</time>
      </trkpt>
      <trkpt lat="50.01301" lon="2.04503">
        <ele>11.1</ele>
        <time>2022-04-12T13:48:42Z</time>
      </trkpt>
      <trkpt lat="50.01301" lon="2.04501">
        <ele>11.1</ele>
        <time>2022-04-12T13:48:43Z</time>
      </trkpt>
      <trkpt lat="50.01302" lon="2.045">
        <ele>11.1</ele>
        <time>2022-04-12T13:48:44Z</time>
      </trkpt>
      <trkpt lat="50.01303" lon="2.04498">
        <ele>11.1</ele>
        <time>2022-04-12T13:48:45Z</time>
      </trkpt>
      <trkpt lat="50.01304" lon="2.04497">
        <ele>11.1</ele>
        <time>2022-04-12T13:48:46Z</time>
      </trkpt>
      <trkpt lat="50.01305" lon="2.04495">
        <ele>11.1</ele>
        <time>2022-04-12T13:48:47Z</time>
      </trkpt>
      <trkpt lat="50.01306" lon="2.04494">
        <ele>11.1</ele>
        <time>2022-04-12T13:48:48Z</time>
      </trkpt>
      <trkpt lat="50.01306" lon="2.04492">
        <ele>11.1</ele>
        <time>2022-04-12T13:48:49Z</time>
      </trkpt>
      <trkpt lat="50.01307" lon="2.04491">
        <ele>11.1</ele>
        <time>2022-04-12T13:48:50Z</time>
      </trkpt>
      <trkpt lat="50.01308" lon="2.04489">
        <ele>11.1</ele>
        <time>2022-04-12T13:48:51Z</time>
      </trkpt>
      <trkpt lat="50.01309" lon="2.04488">
        <ele>11.1</ele>
        <time>2022-04-12T13:48:53Z</time>
      </trkpt>
      <trkpt lat="50.01311" lon="2.04486">
        <ele>11.1</ele>
        <time>2022-04-12T13:48:54Z</time>
      </trkpt>
      <trkpt lat="50.01311" lon="2.04485">
        <ele>11.1</ele>
        <time>2022-04-12T13:48:55Z</time>
      </trkpt>
      <trkpt lat="50.01312" lon="2.04484">
        <ele>11.1</ele>
        <time>2022-04-12T13:48:56Z</time>
      </trkpt>
      <trkpt lat="50.01313" lon="2.04482">
        <ele>11.1</ele>
        <time>2022-04-12T13:48:57Z</time>
      </trkpt>
      <trkpt lat="50.01314" lon="2.04481">
        <ele>11.1</ele>
        <time>2022-04-12T13:48:58Z</time>
      </trkpt>
      <trkpt lat="50.01315" lon="2.04479">
        <ele>11.1</ele>
        <time>2022-04-12T13:48:59Z</time>
      </trkpt>
      <trkpt lat="50.01316" lon="2.04478">
        <ele>11.1</ele>
        <time>2022-04-12T13:49:00Z</time>
      </trkpt>
      <trkpt lat="50.01317" lon="2.04476">
        <ele>11.1</ele>
        <time>2022-04-12T13:49:01Z</time>
      </trkpt>
      <trkpt lat="50.01318" lon="2.04475">
        <ele>11.1</ele>
        <time>2022-04-12T13:49:02Z</time>
      </trkpt>
      <trkpt lat="50.01319" lon="2.04472">
        <ele>11.1</ele>
        <time>2022-04-12T13:49:04Z</time>
      </trkpt>
      <trkpt lat="50.0132" lon="2.04472">
        <ele>11.1</ele>
        <time>2022-04-12T13:49:05Z</time>
      </trkpt>
      <trkpt lat="50.0132" lon="2.04471">
        <ele>11.1</ele>
        <time>2022-04-12T13:49:06Z</time>
      </trkpt>
      <trkpt lat="50.01321" lon="2.04469">
        <ele>11.1</ele>
        <time>2022-04-12T13:49:07Z</time>
      </trkpt>
      <trkpt lat="50.01322" lon="2.04468">
        <ele>11.1</ele>
        <time>2022-04-12T13:49:08Z</time>
      </trkpt>
      <trkpt lat="50.01323" lon="2.04467">
        <ele>11.1</ele>
        <time>2022-04-12T13:49:09Z</time>
      </trkpt>
      <trkpt lat="50.01324" lon="2.04465">
        <ele>11.1</ele>
        <time>2022-04-12T13:49:10Z</time>
      </trkpt>
      <trkpt lat="50.01324" lon="2.04464">
        <ele>11.1</ele>
        <time>2022-04-12T13:49:11Z</time>
      </trkpt>
      <trkpt lat="50.01325" lon="2.04463">
        <ele>11.1</ele>
        <time>2022-04-12T13:49:12Z</time>
      </trkpt>
      <trkpt lat="50.01326" lon="2.04461">
        <ele>11.1</ele>
        <time>2022-04-12T13:49:13Z</time>
      </trkpt>
      <trkpt lat="50.01326" lon="2.0446">
        <ele>11.1</ele>
        <time>2022-04-12T13:49:15Z</time>
      </trkpt>
      <trkpt lat="50.01327" lon="2.04458">
        <ele>11.1</ele>
        <time>2022-04-12T13:49:16Z</time>
      </trkpt>
      <trkpt lat="50.01328" lon="2.04457">
        <ele>11.1</ele>
        <time>2022-04-12T13:49:17Z</time>
      </trkpt>
      <trkpt lat="50.01328" lon="2.04455">
        <ele>11.1</ele>
        <time>2022-04-12T13:49:18Z</time>
      </trkpt>
      <trkpt lat="50.01329" lon="2.04454">
        <ele>11.1</ele>
        <time>2022-04-12T13:49:19Z</time>
      </trkpt>
      <trkpt lat="50.0133" lon="2.04451">
        <ele>11.1</ele>
        <time>2022-04-12T13:49:20Z</time>
      </trkpt>
      <trkpt lat="50.01331" lon="2.0445">
        <ele>11.1</ele>
        <time>2022-04-12T13:49:21Z</time>
      </trkpt>
      <trkpt lat="50.01331" lon="2.04449">
        <ele>11.1</ele>
        <time>2022-04-12T13:49:22Z</time>
      </trkpt>
      <trkpt lat="50.01332" lon="2.04448">
        <ele>11.1</ele>
        <time>2022-04-12T13:49:23Z</time>
      </trkpt>
      <trkpt lat="50.01333" lon="2.04446">
        <ele>11.1</ele>
        <time>2022-04-12T13:49:24Z</time>
      </trkpt>
      <trkpt lat="50.01334" lon="2.04445">
        <ele>11.1</ele>
        <time>2022-04-12T13:49:26Z</time>
      </trkpt>
      <trkpt lat="50.01334" lon="2.04444">
        <ele>11.1</ele>
        <time>2022-04-12T13:49:27Z</time>
      </trkpt>
      <trkpt lat="50.01335" lon="2.04442">
        <ele>11.1</ele>
        <time>2022-04-12T13:49:28Z</time>
      </trkpt>
      <trkpt lat="50.01336" lon="2.04441">
        <ele>11.1</ele>
        <time>2022-04-12T13:49:29Z</time>
      </trkpt>
      <trkpt lat="50.01336" lon="2.04439">
        <ele>11.1</ele>
        <time>2022-04-12T13:49:30Z</time>
      </trkpt>
      <trkpt lat="50.01337" lon="2.04438">
        <ele>11.1</ele>
        <time>2022-04-12T13:49:31Z</time>
      </trkpt>
      <trkpt lat="50.01337" lon="2.04437">
        <ele>11.1</ele>
        <time>2022-04-12T13:49:32Z</time>
      </trkpt>
      <trkpt lat="50.01338" lon="2.04436">
        <ele>11.1</ele>
        <time>2022-04-12T13:49:33Z</time>
      </trkpt>
      <trkpt lat="50.01339" lon="2.04435">
        <ele>11.1</ele>
        <time>2022-04-12T13:49:34Z</time>
      </trkpt>
      <trkpt lat="50.01339" lon="2.04434">
        <ele>11.1</ele>
        <time>2022-04-12T13:49:35Z</time>
      </trkpt>
      <trkpt lat="50.0134" lon="2.04433">
        <ele>11.1</ele>
        <time>2022-04-12T13:49:36Z</time>
      </trkpt>
      <trkpt lat="50.0134" lon="2.04431">
        <ele>11.1</ele>
        <time>2022-04-12T13:49:37Z</time>
      </trkpt>
      <trkpt lat="50.0134" lon="2.0443">
        <ele>11.1</ele>
        <time>2022-04-12T13:49:38Z</time>
      </trkpt>
      <trkpt lat="50.0134" lon="2.04429">
        <ele>11.1</ele>
        <time>2022-04-12T13:49:39Z</time>
      </trkpt>
      <trkpt lat="50.01339" lon="2.04428">
        <ele>11.1</ele>
        <time>2022-04-12T13:49:40Z</time>
      </trkpt>
      <trkpt lat="50.01339" lon="2.04427">
        <ele>11.1</ele>
        <time>2022-04-12T13:49:41Z</time>
      </trkpt>
      <trkpt lat="50.01338" lon="2.04427">
        <ele>11.1</ele>
        <time>2022-04-12T13:49:42Z</time>
      </trkpt>
      <trkpt lat="50.01338" lon="2.04427">
        <ele>11.1</ele>
        <time>2022-04-12T13:49:43Z</time>
      </trkpt>
      <trkpt lat="50.01337" lon="2.04427">
        <ele>11.1</ele>
        <time>2022-04-12T13:49:44Z</time>
      </trkpt>
      <trkpt lat="50.01337" lon="2.04427">
        <ele>11.1</ele>
        <time>2022-04-12T13:49:45Z</time>
      </trkpt>
      <trkpt lat="50.01338" lon="2.04427">
        <ele>11.1</ele>
        <time>2022-04-12T13:49:47Z</time>
      </trkpt>
      <trkpt lat="50.01338" lon="2.04427">
        <ele>11.1</ele>
        <time>2022-04-12T13:49:48Z</time>
      </trkpt>
      <trkpt lat="50.01338" lon="2.04426">
        <ele>11.1</ele>
        <time>2022-04-12T13:49:49Z</time>
      </trkpt>
      <trkpt lat="50.01337" lon="2.04427">
        <ele>11.1</ele>
        <time>2022-04-12T13:49:50Z</time>
      </trkpt>
      <trkpt lat="50.01337" lon="2.04427">
        <ele>11.1</ele>
        <time>2022-04-12T13:49:51Z</time>
      </trkpt>
      <trkpt lat="50.01337" lon="2.04427">
        <ele>11.1</ele>
        <time>2022-04-12T13:49:52Z</time>
      </trkpt>
      <trkpt lat="50.01337" lon="2.04427">
        <ele>11.1</ele>
        <time>2022-04-12T13:49:53Z</time>
      </trkpt>
      <trkpt lat="50.01337" lon="2.04428">
        <ele>11.1</ele>
        <time>2022-04-12T13:49:54Z</time>
      </trkpt>
      <trkpt lat="50.01337" lon="2.04428">
        <ele>11.1</ele>
        <time>2022-04-12T13:49:55Z</time>
      </trkpt>
      <trkpt lat="50.01337" lon="2.04428">
        <ele>11.1</ele>
        <time>2022-04-12T13:49:56Z</time>
      </trkpt>
      <trkpt lat="50.01338" lon="2.04428">
        <ele>11.1</ele>
        <time>2022-04-12T13:49:57Z</time>
      </trkpt>
      <trkpt lat="50.01338" lon="2.04427">
        <ele>11.1</ele>
        <time>2022-04-12T13:49:59Z</time>
      </trkpt>
      <trkpt lat="50.01339" lon="2.04426">
        <ele>11</ele>
        <time>2022-04-12T13:50:00Z</time>
      </trkpt>
      <trkpt lat="50.01339" lon="2.04426">
        <ele>11</ele>
        <time>2022-04-12T13:50:01Z</time>
      </trkpt>
      <trkpt lat="50.0134" lon="2.04424">
        <ele>11</ele>
        <time>2022-04-12T13:50:02Z</time>
      </trkpt>
      <trkpt lat="50.01341" lon="2.04423">
        <ele>11</ele>
        <time>2022-04-12T13:50:03Z</time>
      </trkpt>
      <trkpt lat="50.01341" lon="2.04422">
        <ele>11</ele>
        <time>2022-04-12T13:50:04Z</time>
      </trkpt>
      <trkpt lat="50.01342" lon="2.04421">
        <ele>11</ele>
        <time>2022-04-12T13:50:05Z</time>
      </trkpt>
      <trkpt lat="50.01343" lon="2.04419">
        <ele>11</ele>
        <time>2022-04-12T13:50:06Z</time>
      </trkpt>
      <trkpt lat="50.01344" lon="2.04418">
        <ele>11</ele>
        <time>2022-04-12T13:50:08Z</time>
      </trkpt>
      <trkpt lat="50.01344" lon="2.04417">
        <ele>11</ele>
        <time>2022-04-12T13:50:09Z</time>
      </trkpt>
      <trkpt lat="50.01345" lon="2.04415">
        <ele>11</ele>
        <time>2022-04-12T13:50:10Z</time>
      </trkpt>
      <trkpt lat="50.01346" lon="2.04414">
        <ele>11</ele>
        <time>2022-04-12T13:50:11Z</time>
      </trkpt>
      <trkpt lat="50.01347" lon="2.04412">
        <ele>11</ele>
        <time>2022-04-12T13:50:12Z</time>
      </trkpt>
      <trkpt lat="50.01349" lon="2.0441">
        <ele>11</ele>
        <time>2022-04-12T13:50:13Z</time>
      </trkpt>
      <trkpt lat="50.01349" lon="2.04409">
        <ele>11</ele>
        <time>2022-04-12T13:50:14Z</time>
      </trkpt>
      <trkpt lat="50.0135" lon="2.04408">
        <ele>11</ele>
        <time>2022-04-12T13:50:15Z</time>
      </trkpt>
      <trkpt lat="50.01351" lon="2.04406">
        <ele>11</ele>
        <time>2022-04-12T13:50:16Z</time>
      </trkpt>
      <trkpt lat="50.01352" lon="2.04405">
        <ele>11</ele>
        <time>2022-04-12T13:50:17Z</time>
      </trkpt>
      <trkpt lat="50.01353" lon="2.04402">
        <ele>11</ele>
        <time>2022-04-12T13:50:19Z</time>
      </trkpt>
      <trkpt lat="50.01354" lon="2.04401">
        <ele>11</ele>
        <time>2022-04-12T13:50:20Z</time>
      </trkpt>
      <trkpt lat="50.01354" lon="2.044">
        <ele>11</ele>
        <time>2022-04-12T13:50:21Z</time>
      </trkpt>
      <trkpt lat="50.01355" lon="2.04398">
        <ele>11</ele>
        <time>2022-04-12T13:50:22Z</time>
      </trkpt>
      <trkpt lat="50.01356" lon="2.04396">
        <ele>11</ele>
        <time>2022-04-12T13:50:23Z</time>
      </trkpt>
      <trkpt lat="50.01357" lon="2.04394">
        <ele>11</ele>
        <time>2022-04-12T13:50:24Z</time>
      </trkpt>
      <trkpt lat="50.01357" lon="2.04393">
        <ele>11</ele>
        <time>2022-04-12T13:50:25Z</time>
      </trkpt>
      <trkpt lat="50.01358" lon="2.04391">
        <ele>11</ele>
        <time>2022-04-12T13:50:26Z</time>
      </trkpt>
      <trkpt lat="50.01359" lon="2.04389">
        <ele>11</ele>
        <time>2022-04-12T13:50:27Z</time>
      </trkpt>
      <trkpt lat="50.01359" lon="2.04388">
        <ele>11</ele>
        <time>2022-04-12T13:50:28Z</time>
      </trkpt>
      <trkpt lat="50.0136" lon="2.04387">
        <ele>11</ele>
        <time>2022-04-12T13:50:29Z</time>
      </trkpt>
      <trkpt lat="50.01361" lon="2.04384">
        <ele>11</ele>
        <time>2022-04-12T13:50:31Z</time>
      </trkpt>
      <trkpt lat="50.01361" lon="2.04383">
        <ele>11</ele>
        <time>2022-04-12T13:50:32Z</time>
      </trkpt>
      <trkpt lat="50.01362" lon="2.04381">
        <ele>11</ele>
        <time>2022-04-12T13:50:33Z</time>
      </trkpt>
      <trkpt lat="50.01363" lon="2.04379">
        <ele>11</ele>
        <time>2022-04-12T13:50:34Z</time>
      </trkpt>
      <trkpt lat="50.01364" lon="2.04378">
        <ele>11</ele>
        <time>2022-04-12T13:50:35Z</time>
      </trkpt>
      <trkpt lat="50.01364" lon="2.04377">
        <ele>11</ele>
        <time>2022-04-12T13:50:36Z</time>
      </trkpt>
      <trkpt lat="50.01365" lon="2.04375">
        <ele>11</ele>
        <time>2022-04-12T13:50:37Z</time>
      </trkpt>
      <trkpt lat="50.01366" lon="2.04373">
        <ele>11</ele>
        <time>2022-04-12T13:50:38Z</time>
      </trkpt>
      <trkpt lat="50.01367" lon="2.04371">
        <ele>11</ele>
        <time>2022-04-12T13:50:39Z</time>
      </trkpt>
      <trkpt lat="50.01368" lon="2.04369">
        <ele>11</ele>
        <time>2022-04-12T13:50:40Z</time>
      </trkpt>
      <trkpt lat="50.01368" lon="2.04368">
        <ele>11</ele>
        <time>2022-04-12T13:50:42Z</time>
      </trkpt>
      <trkpt lat="50.01369" lon="2.04366">
        <ele>11</ele>
        <time>2022-04-12T13:50:43Z</time>
      </trkpt>
      <trkpt lat="50.0137" lon="2.04363">
        <ele>11</ele>
        <time>2022-04-12T13:50:44Z</time>
      </trkpt>
      <trkpt lat="50.01371" lon="2.04362">
        <ele>11</ele>
        <time>2022-04-12T13:50:45Z</time>
      </trkpt>
      <trkpt lat="50.01371" lon="2.04361">
        <ele>11</ele>
        <time>2022-04-12T13:50:46Z</time>
      </trkpt>
      <trkpt lat="50.01372" lon="2.04358">
        <ele>11</ele>
        <time>2022-04-12T13:50:47Z</time>
      </trkpt>
      <trkpt lat="50.01372" lon="2.04356">
        <ele>11</ele>
        <time>2022-04-12T13:50:48Z</time>
      </trkpt>
      <trkpt lat="50.01373" lon="2.04355">
        <ele>11</ele>
        <time>2022-04-12T13:50:49Z</time>
      </trkpt>
      <trkpt lat="50.01373" lon="2.04353">
        <ele>11</ele>
        <time>2022-04-12T13:50:50Z</time>
      </trkpt>
      <trkpt lat="50.01374" lon="2.04351">
        <ele>11</ele>
        <time>2022-04-12T13:50:51Z</time>
      </trkpt>
      <trkpt lat="50.01375" lon="2.04348">
        <ele>11</ele>
        <time>2022-04-12T13:50:52Z</time>
      </trkpt>
      <trkpt lat="50.01375" lon="2.04347">
        <ele>11</ele>
        <time>2022-04-12T13:50:53Z</time>
      </trkpt>
      <trkpt lat="50.01375" lon="2.04345">
        <ele>11</ele>
        <time>2022-04-12T13:50:54Z</time>
      </trkpt>
      <trkpt lat="50.01375" lon="2.04342">
        <ele>11</ele>
        <time>2022-04-12T13:50:56Z</time>
      </trkpt>
      <trkpt lat="50.01375" lon="2.04341">
        <ele>11</ele>
        <time>2022-04-12T13:50:57Z</time>
      </trkpt>
      <trkpt lat="50.01375" lon="2.04339">
        <ele>11</ele>
        <time>2022-04-12T13:50:58Z</time>
      </trkpt>
      <trkpt lat="50.01375" lon="2.04336">
        <ele>11</ele>
        <time>2022-04-12T13:50:59Z</time>
      </trkpt>
      <trkpt lat="50.01375" lon="2.04335">
        <ele>11</ele>
        <time>2022-04-12T13:51:00Z</time>
      </trkpt>
      <trkpt lat="50.01375" lon="2.04333">
        <ele>11</ele>
        <time>2022-04-12T13:51:01Z</time>
      </trkpt>
      <trkpt lat="50.01376" lon="2.04331">
        <ele>11</ele>
        <time>2022-04-12T13:51:02Z</time>
      </trkpt>
      <trkpt lat="50.01377" lon="2.04329">
        <ele>11</ele>
        <time>2022-04-12T13:51:03Z</time>
      </trkpt>
      <trkpt lat="50.01377" lon="2.04328">
        <ele>11</ele>
        <time>2022-04-12T13:51:04Z</time>
      </trkpt>
      <trkpt lat="50.01378" lon="2.04327">
        <ele>11</ele>
        <time>2022-04-12T13:51:05Z</time>
      </trkpt>
      <trkpt lat="50.01378" lon="2.04325">
        <ele>11</ele>
        <time>2022-04-12T13:51:06Z</time>
      </trkpt>
      <trkpt lat="50.01379" lon="2.04323">
        <ele>11</ele>
        <time>2022-04-12T13:51:08Z</time>
      </trkpt>
      <trkpt lat="50.0138" lon="2.04321">
        <ele>11</ele>
        <time>2022-04-12T13:51:09Z</time>
      </trkpt>
      <trkpt lat="50.01381" lon="2.0432">
        <ele>10.9</ele>
        <time>2022-04-12T13:51:10Z</time>
      </trkpt>
      <trkpt lat="50.01381" lon="2.04319">
        <ele>10.9</ele>
        <time>2022-04-12T13:51:11Z</time>
      </trkpt>
      <trkpt lat="50.01382" lon="2.04316">
        <ele>10.9</ele>
        <time>2022-04-12T13:51:12Z</time>
      </trkpt>
      <trkpt lat="50.01382" lon="2.04314">
        <ele>10.9</ele>
        <time>2022-04-12T13:51:13Z</time>
      </trkpt>
      <trkpt lat="50.01383" lon="2.04313">
        <ele>10.9</ele>
        <time>2022-04-12T13:51:14Z</time>
      </trkpt>
      <trkpt lat="50.01383" lon="2.04311">
        <ele>10.9</ele>
        <time>2022-04-12T13:51:15Z</time>
      </trkpt>
      <trkpt lat="50.01383" lon="2.0431">
        <ele>10.9</ele>
        <time>2022-04-12T13:51:16Z</time>
      </trkpt>
      <trkpt lat="50.01384" lon="2.04308">
        <ele>10.9</ele>
        <time>2022-04-12T13:51:17Z</time>
      </trkpt>
      <trkpt lat="50.01384" lon="2.04307">
        <ele>10.9</ele>
        <time>2022-04-12T13:51:18Z</time>
      </trkpt>
      <trkpt lat="50.01384" lon="2.04305">
        <ele>10.9</ele>
        <time>2022-04-12T13:51:20Z</time>
      </trkpt>
      <trkpt lat="50.01385" lon="2.04304">
        <ele>10.9</ele>
        <time>2022-04-12T13:51:21Z</time>
      </trkpt>
      <trkpt lat="50.01385" lon="2.04302">
        <ele>10.9</ele>
        <time>2022-04-12T13:51:22Z</time>
      </trkpt>
      <trkpt lat="50.01386" lon="2.04301">
        <ele>10.9</ele>
        <time>2022-04-12T13:51:23Z</time>
      </trkpt>
      <trkpt lat="50.01387" lon="2.043">
        <ele>10.9</ele>
        <time>2022-04-12T13:51:24Z</time>
      </trkpt>
      <trkpt lat="50.01386" lon="2.04301">
        <ele>10.9</ele>
        <time>2022-04-12T13:51:25Z</time>
      </trkpt>
      <trkpt lat="50.01386" lon="2.04303">
        <ele>10.9</ele>
        <time>2022-04-12T13:51:26Z</time>
      </trkpt>
      <trkpt lat="50.01386" lon="2.04303">
        <ele>10.9</ele>
        <time>2022-04-12T13:51:27Z</time>
      </trkpt>
      <trkpt lat="50.01387" lon="2.04302">
        <ele>10.9</ele>
        <time>2022-04-12T13:51:29Z</time>
      </trkpt>
      <trkpt lat="50.01387" lon="2.04301">
        <ele>10.9</ele>
        <time>2022-04-12T13:51:30Z</time>
      </trkpt>
      <trkpt lat="50.01388" lon="2.04299">
        <ele>10.9</ele>
        <time>2022-04-12T13:51:31Z</time>
      </trkpt>
      <trkpt lat="50.01388" lon="2.04297">
        <ele>10.9</ele>
        <time>2022-04-12T13:51:32Z</time>
      </trkpt>
      <trkpt lat="50.01389" lon="2.04295">
        <ele>10.9</ele>
        <time>2022-04-12T13:51:34Z</time>
      </trkpt>
      <trkpt lat="50.0139" lon="2.04292">
        <ele>10.9</ele>
        <time>2022-04-12T13:51:35Z</time>
      </trkpt>
      <trkpt lat="50.0139" lon="2.04291">
        <ele>10.9</ele>
        <time>2022-04-12T13:51:36Z</time>
      </trkpt>
      <trkpt lat="50.01391" lon="2.0429">
        <ele>10.9</ele>
        <time>2022-04-12T13:51:37Z</time>
      </trkpt>
      <trkpt lat="50.01392" lon="2.04287">
        <ele>10.9</ele>
        <time>2022-04-12T13:51:38Z</time>
      </trkpt>
      <trkpt lat="50.01392" lon="2.04286">
        <ele>10.9</ele>
        <time>2022-04-12T13:51:39Z</time>
      </trkpt>
      <trkpt lat="50.01392" lon="2.04284">
        <ele>10.9</ele>
        <time>2022-04-12T13:51:40Z</time>
      </trkpt>
      <trkpt lat="50.01393" lon="2.04281">
        <ele>10.9</ele>
        <time>2022-04-12T13:51:41Z</time>
      </trkpt>
      <trkpt lat="50.01393" lon="2.0428">
        <ele>10.9</ele>
        <time>2022-04-12T13:51:42Z</time>
      </trkpt>
      <trkpt lat="50.01393" lon="2.04279">
        <ele>10.9</ele>
        <time>2022-04-12T13:51:43Z</time>
      </trkpt>
      <trkpt lat="50.01394" lon="2.04276">
        <ele>10.8</ele>
        <time>2022-04-12T13:51:44Z</time>
      </trkpt>
      <trkpt lat="50.01394" lon="2.04274">
        <ele>10.8</ele>
        <time>2022-04-12T13:51:46Z</time>
      </trkpt>
      <trkpt lat="50.01394" lon="2.04273">
        <ele>10.8</ele>
        <time>2022-04-12T13:51:47Z</time>
      </trkpt>
      <trkpt lat="50.01395" lon="2.0427">
        <ele>10.8</ele>
        <time>2022-04-12T13:51:48Z</time>
      </trkpt>
      <trkpt lat="50.01395" lon="2.04269">
        <ele>10.8</ele>
        <time>2022-04-12T13:51:49Z</time>
      </trkpt>
      <trkpt lat="50.01395" lon="2.04268">
        <ele>10.8</ele>
        <time>2022-04-12T13:51:50Z</time>
      </trkpt>
      <trkpt lat="50.01396" lon="2.04266">
        <ele>10.8</ele>
        <time>2022-04-12T13:51:51Z</time>
      </trkpt>
      <trkpt lat="50.01396" lon="2.04265">
        <ele>10.8</ele>
        <time>2022-04-12T13:51:52Z</time>
      </trkpt>
      <trkpt lat="50.01397" lon="2.04263">
        <ele>10.8</ele>
        <time>2022-04-12T13:51:53Z</time>
      </trkpt>
      <trkpt lat="50.01397" lon="2.04262">
        <ele>10.8</ele>
        <time>2022-04-12T13:51:54Z</time>
      </trkpt>
      <trkpt lat="50.01398" lon="2.0426">
        <ele>10.8</ele>
        <time>2022-04-12T13:51:55Z</time>
      </trkpt>
      <trkpt lat="50.01399" lon="2.04259">
        <ele>10.8</ele>
        <time>2022-04-12T13:51:56Z</time>
      </trkpt>
      <trkpt lat="50.01399" lon="2.04257">
        <ele>10.8</ele>
        <time>2022-04-12T13:51:57Z</time>
      </trkpt>
      <trkpt lat="50.014" lon="2.04256">
        <ele>10.8</ele>
        <time>2022-04-12T13:51:59Z</time>
      </trkpt>
      <trkpt lat="50.01401" lon="2.04254">
        <ele>10.8</ele>
        <time>2022-04-12T13:52:00Z</time>
      </trkpt>
      <trkpt lat="50.01401" lon="2.04253">
        <ele>10.8</ele>
        <time>2022-04-12T13:52:01Z</time>
      </trkpt>
      <trkpt lat="50.01402" lon="2.04251">
        <ele>10.8</ele>
        <time>2022-04-12T13:52:02Z</time>
      </trkpt>
      <trkpt lat="50.01403" lon="2.0425">
        <ele>10.8</ele>
        <time>2022-04-12T13:52:03Z</time>
      </trkpt>
      <trkpt lat="50.01404" lon="2.04247">
        <ele>10.8</ele>
        <time>2022-04-12T13:52:04Z</time>
      </trkpt>
      <trkpt lat="50.01405" lon="2.04246">
        <ele>10.8</ele>
        <time>2022-04-12T13:52:05Z</time>
      </trkpt>
      <trkpt lat="50.01405" lon="2.04245">
        <ele>10.9</ele>
        <time>2022-04-12T13:52:06Z</time>
      </trkpt>
      <trkpt lat="50.01406" lon="2.04243">
        <ele>10.9</ele>
        <time>2022-04-12T13:52:07Z</time>
      </trkpt>
      <trkpt lat="50.01406" lon="2.04241">
        <ele>10.9</ele>
        <time>2022-04-12T13:52:08Z</time>
      </trkpt>
      <trkpt lat="50.01407" lon="2.04239">
        <ele>10.9</ele>
        <time>2022-04-12T13:52:10Z</time>
      </trkpt>
      <trkpt lat="50.01408" lon="2.04237">
        <ele>10.9</ele>
        <time>2022-04-12T13:52:11Z</time>
      </trkpt>
      <trkpt lat="50.01408" lon="2.04236">
        <ele>10.9</ele>
        <time>2022-04-12T13:52:12Z</time>
      </trkpt>
      <trkpt lat="50.01409" lon="2.04235">
        <ele>10.9</ele>
        <time>2022-04-12T13:52:13Z</time>
      </trkpt>
      <trkpt lat="50.0141" lon="2.04232">
        <ele>10.9</ele>
        <time>2022-04-12T13:52:14Z</time>
      </trkpt>
      <trkpt lat="50.0141" lon="2.04231">
        <ele>10.9</ele>
        <time>2022-04-12T13:52:15Z</time>
      </trkpt>
      <trkpt lat="50.01411" lon="2.04229">
        <ele>10.9</ele>
        <time>2022-04-12T13:52:16Z</time>
      </trkpt>
      <trkpt lat="50.01411" lon="2.04228">
        <ele>10.9</ele>
        <time>2022-04-12T13:52:18Z</time>
      </trkpt>
      <trkpt lat="50.01411" lon="2.04226">
        <ele>10.9</ele>
        <time>2022-04-12T13:52:19Z</time>
      </trkpt>
      <trkpt lat="50.01411" lon="2.04224">
        <ele>10.9</ele>
        <time>2022-04-12T13:52:20Z</time>
      </trkpt>
      <trkpt lat="50.01411" lon="2.04224">
        <ele>10.9</ele>
        <time>2022-04-12T13:52:21Z</time>
      </trkpt>
      <trkpt lat="50.01411" lon="2.04223">
        <ele>10.9</ele>
        <time>2022-04-12T13:52:22Z</time>
      </trkpt>
      <trkpt lat="50.0141" lon="2.04223">
        <ele>10.9</ele>
        <time>2022-04-12T13:52:23Z</time>
      </trkpt>
      <trkpt lat="50.0141" lon="2.04222">
        <ele>10.9</ele>
        <time>2022-04-12T13:52:24Z</time>
      </trkpt>
      <trkpt lat="50.01409" lon="2.04222">
        <ele>10.9</ele>
        <time>2022-04-12T13:52:25Z</time>
      </trkpt>
      <trkpt lat="50.01409" lon="2.04222">
        <ele>10.9</ele>
        <time>2022-04-12T13:52:26Z</time>
      </trkpt>
      <trkpt lat="50.0141" lon="2.04222">
        <ele>10.9</ele>
        <time>2022-04-12T13:52:27Z</time>
      </trkpt>
      <trkpt lat="50.0141" lon="2.04221">
        <ele>10.9</ele>
        <time>2022-04-12T13:52:28Z</time>
      </trkpt>
      <trkpt lat="50.01411" lon="2.0422">
        <ele>10.9</ele>
        <time>2022-04-12T13:52:30Z</time>
      </trkpt>
      <trkpt lat="50.01412" lon="2.04219">
        <ele>10.9</ele>
        <time>2022-04-12T13:52:31Z</time>
      </trkpt>
      <trkpt lat="50.01413" lon="2.04218">
        <ele>10.9</ele>
        <time>2022-04-12T13:52:32Z</time>
      </trkpt>
      <trkpt lat="50.01414" lon="2.04216">
        <ele>10.9</ele>
        <time>2022-04-12T13:52:33Z</time>
      </trkpt>
      <trkpt lat="50.01415" lon="2.04214">
        <ele>10.9</ele>
        <time>2022-04-12T13:52:34Z</time>
      </trkpt>
      <trkpt lat="50.01416" lon="2.04213">
        <ele>10.9</ele>
        <time>2022-04-12T13:52:35Z</time>
      </trkpt>
      <trkpt lat="50.01417" lon="2.04212">
        <ele>10.9</ele>
        <time>2022-04-12T13:52:36Z</time>
      </trkpt>
      <trkpt lat="50.01418" lon="2.04211">
        <ele>10.9</ele>
        <time>2022-04-12T13:52:37Z</time>
      </trkpt>
      <trkpt lat="50.01418" lon="2.0421">
        <ele>10.9</ele>
        <time>2022-04-12T13:52:38Z</time>
      </trkpt>
      <trkpt lat="50.01419" lon="2.04208">
        <ele>10.9</ele>
        <time>2022-04-12T13:52:40Z</time>
      </trkpt>
      <trkpt lat="50.0142" lon="2.04207">
        <ele>10.9</ele>
        <time>2022-04-12T13:52:41Z</time>
      </trkpt>
      <trkpt lat="50.01421" lon="2.04205">
        <ele>10.9</ele>
        <time>2022-04-12T13:52:42Z</time>
      </trkpt>
      <trkpt lat="50.01421" lon="2.04203">
        <ele>10.9</ele>
        <time>2022-04-12T13:52:43Z</time>
      </trkpt>
      <trkpt lat="50.01422" lon="2.04202">
        <ele>10.9</ele>
        <time>2022-04-12T13:52:44Z</time>
      </trkpt>
      <trkpt lat="50.01422" lon="2.042">
        <ele>10.9</ele>
        <time>2022-04-12T13:52:45Z</time>
      </trkpt>
      <trkpt lat="50.01423" lon="2.04198">
        <ele>10.9</ele>
        <time>2022-04-12T13:52:46Z</time>
      </trkpt>
      <trkpt lat="50.01424" lon="2.04196">
        <ele>10.9</ele>
        <time>2022-04-12T13:52:47Z</time>
      </trkpt>
      <trkpt lat="50.01424" lon="2.04194">
        <ele>10.9</ele>
        <time>2022-04-12T13:52:48Z</time>
      </trkpt>
      <trkpt lat="50.01425" lon="2.04191">
        <ele>10.9</ele>
        <time>2022-04-12T13:52:49Z</time>
      </trkpt>
      <trkpt lat="50.01425" lon="2.04188">
        <ele>10.9</ele>
        <time>2022-04-12T13:52:51Z</time>
      </trkpt>
      <trkpt lat="50.01426" lon="2.04187">
        <ele>10.9</ele>
        <time>2022-04-12T13:52:52Z</time>
      </trkpt>
      <trkpt lat="50.01426" lon="2.04186">
        <ele>10.9</ele>
        <time>2022-04-12T13:52:53Z</time>
      </trkpt>
      <trkpt lat="50.01427" lon="2.04183">
        <ele>10.9</ele>
        <time>2022-04-12T13:52:54Z</time>
      </trkpt>
      <trkpt lat="50.01427" lon="2.04181">
        <ele>10.9</ele>
        <time>2022-04-12T13:52:55Z</time>
      </trkpt>
      <trkpt lat="50.01428" lon="2.0418">
        <ele>10.9</ele>
        <time>2022-04-12T13:52:56Z</time>
      </trkpt>
      <trkpt lat="50.01428" lon="2.04177">
        <ele>10.9</ele>
        <time>2022-04-12T13:52:57Z</time>
      </trkpt>
      <trkpt lat="50.01429" lon="2.04176">
        <ele>10.9</ele>
        <time>2022-04-12T13:52:58Z</time>
      </trkpt>
      <trkpt lat="50.01429" lon="2.04174">
        <ele>10.9</ele>
        <time>2022-04-12T13:52:59Z</time>
      </trkpt>
      <trkpt lat="50.0143" lon="2.04171">
        <ele>10.9</ele>
        <time>2022-04-12T13:53:00Z</time>
      </trkpt>
      <trkpt lat="50.0143" lon="2.04169">
        <ele>10.9</ele>
        <time>2022-04-12T13:53:02Z</time>
      </trkpt>
      <trkpt lat="50.0143" lon="2.04168">
        <ele>10.9</ele>
        <time>2022-04-12T13:53:03Z</time>
      </trkpt>
      <trkpt lat="50.01431" lon="2.04166">
        <ele>10.9</ele>
        <time>2022-04-12T13:53:04Z</time>
      </trkpt>
      <trkpt lat="50.01431" lon="2.04165">
        <ele>10.9</ele>
        <time>2022-04-12T13:53:05Z</time>
      </trkpt>
      <trkpt lat="50.01432" lon="2.04163">
        <ele>10.9</ele>
        <time>2022-04-12T13:53:06Z</time>
      </trkpt>
      <trkpt lat="50.01432" lon="2.04161">
        <ele>10.9</ele>
        <time>2022-04-12T13:53:07Z</time>
      </trkpt>
      <trkpt lat="50.01433" lon="2.0416">
        <ele>10.9</ele>
        <time>2022-04-12T13:53:08Z</time>
      </trkpt>
      <trkpt lat="50.01433" lon="2.04158">
        <ele>10.9</ele>
        <time>2022-04-12T13:53:09Z</time>
      </trkpt>
      <trkpt lat="50.01434" lon="2.04157">
        <ele>10.9</ele>
        <time>2022-04-12T13:53:10Z</time>
      </trkpt>
      <trkpt lat="50.01434" lon="2.04155">
        <ele>10.9</ele>
        <time>2022-04-12T13:53:11Z</time>
      </trkpt>
      <trkpt lat="50.01435" lon="2.04153">
        <ele>10.9</ele>
        <time>2022-04-12T13:53:12Z</time>
      </trkpt>
      <trkpt lat="50.01435" lon="2.04151">
        <ele>10.9</ele>
        <time>2022-04-12T13:53:13Z</time>
      </trkpt>
      <trkpt lat="50.01436" lon="2.04148">
        <ele>10.9</ele>
        <time>2022-04-12T13:53:15Z</time>
      </trkpt>
      <trkpt lat="50.01436" lon="2.04147">
        <ele>10.9</ele>
        <time>2022-04-12T13:53:16Z</time>
      </trkpt>
      <trkpt lat="50.01437" lon="2.04145">
        <ele>10.9</ele>
        <time>2022-04-12T13:53:17Z</time>
      </trkpt>
      <trkpt lat="50.01437" lon="2.04144">
        <ele>10.9</ele>
        <time>2022-04-12T13:53:18Z</time>
      </trkpt>
      <trkpt lat="50.01438" lon="2.04142">
        <ele>10.9</ele>
        <time>2022-04-12T13:53:19Z</time>
      </trkpt>
      <trkpt lat="50.01438" lon="2.04141">
        <ele>10.9</ele>
        <time>2022-04-12T13:53:20Z</time>
      </trkpt>
      <trkpt lat="50.01439" lon="2.04138">
        <ele>10.9</ele>
        <time>2022-04-12T13:53:21Z</time>
      </trkpt>
      <trkpt lat="50.01439" lon="2.04137">
        <ele>10.9</ele>
        <time>2022-04-12T13:53:22Z</time>
      </trkpt>
      <trkpt lat="50.01439" lon="2.04135">
        <ele>10.9</ele>
        <time>2022-04-12T13:53:23Z</time>
      </trkpt>
      <trkpt lat="50.0144" lon="2.04132">
        <ele>10.9</ele>
        <time>2022-04-12T13:53:24Z</time>
      </trkpt>
      <trkpt lat="50.0144" lon="2.04131">
        <ele>10.9</ele>
        <time>2022-04-12T13:53:25Z</time>
      </trkpt>
      <trkpt lat="50.0144" lon="2.0413">
        <ele>10.9</ele>
        <time>2022-04-12T13:53:26Z</time>
      </trkpt>
      <trkpt lat="50.0144" lon="2.04126">
        <ele>10.9</ele>
        <time>2022-04-12T13:53:28Z</time>
      </trkpt>
      <trkpt lat="50.0144" lon="2.04125">
        <ele>10.9</ele>
        <time>2022-04-12T13:53:29Z</time>
      </trkpt>
      <trkpt lat="50.0144" lon="2.04124">
        <ele>10.8</ele>
        <time>2022-04-12T13:53:30Z</time>
      </trkpt>
      <trkpt lat="50.01441" lon="2.04122">
        <ele>10.8</ele>
        <time>2022-04-12T13:53:31Z</time>
      </trkpt>
      <trkpt lat="50.01441" lon="2.0412">
        <ele>10.8</ele>
        <time>2022-04-12T13:53:32Z</time>
      </trkpt>
      <trkpt lat="50.01441" lon="2.04119">
        <ele>10.8</ele>
        <time>2022-04-12T13:53:33Z</time>
      </trkpt>
      <trkpt lat="50.01441" lon="2.04117">
        <ele>10.8</ele>
        <time>2022-04-12T13:53:34Z</time>
      </trkpt>
      <trkpt lat="50.01441" lon="2.04115">
        <ele>10.8</ele>
        <time>2022-04-12T13:53:35Z</time>
      </trkpt>
      <trkpt lat="50.01442" lon="2.04114">
        <ele>10.8</ele>
        <time>2022-04-12T13:53:36Z</time>
      </trkpt>
      <trkpt lat="50.01442" lon="2.0411">
        <ele>10.8</ele>
        <time>2022-04-12T13:53:37Z</time>
      </trkpt>
      <trkpt lat="50.01442" lon="2.04109">
        <ele>10.8</ele>
        <time>2022-04-12T13:53:38Z</time>
      </trkpt>
      <trkpt lat="50.01443" lon="2.04108">
        <ele>10.8</ele>
        <time>2022-04-12T13:53:39Z</time>
      </trkpt>
      <trkpt lat="50.01443" lon="2.04106">
        <ele>10.8</ele>
        <time>2022-04-12T13:53:41Z</time>
      </trkpt>
      <trkpt lat="50.01444" lon="2.04105">
        <ele>10.8</ele>
        <time>2022-04-12T13:53:42Z</time>
      </trkpt>
      <trkpt lat="50.01444" lon="2.04103">
        <ele>10.8</ele>
        <time>2022-04-12T13:53:43Z</time>
      </trkpt>
      <trkpt lat="50.01445" lon="2.04102">
        <ele>10.8</ele>
        <time>2022-04-12T13:53:44Z</time>
      </trkpt>
      <trkpt lat="50.01445" lon="2.041">
        <ele>10.8</ele>
        <time>2022-04-12T13:53:45Z</time>
      </trkpt>
      <trkpt lat="50.01445" lon="2.04099">
        <ele>10.8</ele>
        <time>2022-04-12T13:53:46Z</time>
      </trkpt>
      <trkpt lat="50.01445" lon="2.04097">
        <ele>10.8</ele>
        <time>2022-04-12T13:53:47Z</time>
      </trkpt>
      <trkpt lat="50.01446" lon="2.04095">
        <ele>10.8</ele>
        <time>2022-04-12T13:53:48Z</time>
      </trkpt>
      <trkpt lat="50.01446" lon="2.04094">
        <ele>10.8</ele>
        <time>2022-04-12T13:53:49Z</time>
      </trkpt>
      <trkpt lat="50.01446" lon="2.0409">
        <ele>10.8</ele>
        <time>2022-04-12T13:53:50Z</time>
      </trkpt>
      <trkpt lat="50.01447" lon="2.04089">
        <ele>10.8</ele>
        <time>2022-04-12T13:53:51Z</time>
      </trkpt>
      <trkpt lat="50.01447" lon="2.04088">
        <ele>10.8</ele>
        <time>2022-04-12T13:53:53Z</time>
      </trkpt>
      <trkpt lat="50.01447" lon="2.04086">
        <ele>10.8</ele>
        <time>2022-04-12T13:53:54Z</time>
      </trkpt>
      <trkpt lat="50.01447" lon="2.04085">
        <ele>10.8</ele>
        <time>2022-04-12T13:53:55Z</time>
      </trkpt>
      <trkpt lat="50.01448" lon="2.04083">
        <ele>10.8</ele>
        <time>2022-04-12T13:53:56Z</time>
      </trkpt>
      <trkpt lat="50.01448" lon="2.04082">
        <ele>10.8</ele>
        <time>2022-04-12T13:53:57Z</time>
      </trkpt>
      <trkpt lat="50.01449" lon="2.04081">
        <ele>10.8</ele>
        <time>2022-04-12T13:53:58Z</time>
      </trkpt>
      <trkpt lat="50.01449" lon="2.04079">
        <ele>10.8</ele>
        <time>2022-04-12T13:53:59Z</time>
      </trkpt>
      <trkpt lat="50.0145" lon="2.04078">
        <ele>10.8</ele>
        <time>2022-04-12T13:54:00Z</time>
      </trkpt>
      <trkpt lat="50.01451" lon="2.04077">
        <ele>10.8</ele>
        <time>2022-04-12T13:54:01Z</time>
      </trkpt>
      <trkpt lat="50.01452" lon="2.04076">
        <ele>10.8</ele>
        <time>2022-04-12T13:54:03Z</time>
      </trkpt>
      <trkpt lat="50.01453" lon="2.04075">
        <ele>10.8</ele>
        <time>2022-04-12T13:54:04Z</time>
      </trkpt>
      <trkpt lat="50.01453" lon="2.04074">
        <ele>10.8</ele>
        <time>2022-04-12T13:54:05Z</time>
      </trkpt>
      <trkpt lat="50.01454" lon="2.04073">
        <ele>10.8</ele>
        <time>2022-04-12T13:54:06Z</time>
      </trkpt>
      <trkpt lat="50.01454" lon="2.04072">
        <ele>10.8</ele>
        <time>2022-04-12T13:54:07Z</time>
      </trkpt>
      <trkpt lat="50.01455" lon="2.04071">
        <ele>10.8</ele>
        <time>2022-04-12T13:54:08Z</time>
      </trkpt>
      <trkpt lat="50.01455" lon="2.0407">
        <ele>10.8</ele>
        <time>2022-04-12T13:54:09Z</time>
      </trkpt>
      <trkpt lat="50.01456" lon="2.04067">
        <ele>10.8</ele>
        <time>2022-04-12T13:54:11Z</time>
      </trkpt>
      <trkpt lat="50.01456" lon="2.04066">
        <ele>10.8</ele>
        <time>2022-04-12T13:54:12Z</time>
      </trkpt>
      <trkpt lat="50.01456" lon="2.04064">
        <ele>10.8</ele>
        <time>2022-04-12T13:54:13Z</time>
      </trkpt>
      <trkpt lat="50.01456" lon="2.04062">
        <ele>10.8</ele>
        <time>2022-04-12T13:54:14Z</time>
      </trkpt>
      <trkpt lat="50.01457" lon="2.04061">
        <ele>10.8</ele>
        <time>2022-04-12T13:54:15Z</time>
      </trkpt>
      <trkpt lat="50.01457" lon="2.04059">
        <ele>10.8</ele>
        <time>2022-04-12T13:54:17Z</time>
      </trkpt>
      <trkpt lat="50.01458" lon="2.04058">
        <ele>10.8</ele>
        <time>2022-04-12T13:54:18Z</time>
      </trkpt>
      <trkpt lat="50.01458" lon="2.04058">
        <ele>10.8</ele>
        <time>2022-04-12T13:54:19Z</time>
      </trkpt>
      <trkpt lat="50.01459" lon="2.04057">
        <ele>10.8</ele>
        <time>2022-04-12T13:54:20Z</time>
      </trkpt>
      <trkpt lat="50.0146" lon="2.04057">
        <ele>10.8</ele>
        <time>2022-04-12T13:54:21Z</time>
      </trkpt>
      <trkpt lat="50.01461" lon="2.04056">
        <ele>10.8</ele>
        <time>2022-04-12T13:54:22Z</time>
      </trkpt>
      <trkpt lat="50.01463" lon="2.04057">
        <ele>10.8</ele>
        <time>2022-04-12T13:54:23Z</time>
      </trkpt>
      <trkpt lat="50.01464" lon="2.04057">
        <ele>10.7</ele>
        <time>2022-04-12T13:54:24Z</time>
      </trkpt>
      <trkpt lat="50.01465" lon="2.04057">
        <ele>10.7</ele>
        <time>2022-04-12T13:54:26Z</time>
      </trkpt>
      <trkpt lat="50.01466" lon="2.04058">
        <ele>10.7</ele>
        <time>2022-04-12T13:54:27Z</time>
      </trkpt>
      <trkpt lat="50.01466" lon="2.04059">
        <ele>10.7</ele>
        <time>2022-04-12T13:54:28Z</time>
      </trkpt>
      <trkpt lat="50.01466" lon="2.0406">
        <ele>10.7</ele>
        <time>2022-04-12T13:54:29Z</time>
      </trkpt>
      <trkpt lat="50.01466" lon="2.0406">
        <ele>10.7</ele>
        <time>2022-04-12T13:54:30Z</time>
      </trkpt>
      <trkpt lat="50.01467" lon="2.04061">
        <ele>10.7</ele>
        <time>2022-04-12T13:54:31Z</time>
      </trkpt>
      <trkpt lat="50.01467" lon="2.04061">
        <ele>10.7</ele>
        <time>2022-04-12T13:54:32Z</time>
      </trkpt>
      <trkpt lat="50.01467" lon="2.04061">
        <ele>10.7</ele>
        <time>2022-04-12T13:54:33Z</time>
      </trkpt>
      <trkpt lat="50.01467" lon="2.04061">
        <ele>10.7</ele>
        <time>2022-04-12T13:54:34Z</time>
      </trkpt>
      <trkpt lat="50.01467" lon="2.04061">
        <ele>10.7</ele>
        <time>2022-04-12T13:54:35Z</time>
      </trkpt>
      <trkpt lat="50.01467" lon="2.04061">
        <ele>10.7</ele>
        <time>2022-04-12T13:54:36Z</time>
      </trkpt>
      <trkpt lat="50.01467" lon="2.04061">
        <ele>10.7</ele>
        <time>2022-04-12T13:54:37Z</time>
      </trkpt>
      <trkpt lat="50.01467" lon="2.04061">
        <ele>10.7</ele>
        <time>2022-04-12T13:54:38Z</time>
      </trkpt>
      <trkpt lat="50.01467" lon="2.04061">
        <ele>10.7</ele>
        <time>2022-04-12T13:54:39Z</time>
      </trkpt>
      <trkpt lat="50.01467" lon="2.04061">
        <ele>10.7</ele>
        <time>2022-04-12T13:54:40Z</time>
      </trkpt>
      <trkpt lat="50.01467" lon="2.04061">
        <ele>10.7</ele>
        <time>2022-04-12T13:54:41Z</time>
      </trkpt>
      <trkpt lat="50.01467" lon="2.04061">
        <ele>10.7</ele>
        <time>2022-04-12T13:54:42Z</time>
      </trkpt>
      <trkpt lat="50.01467" lon="2.0406">
        <ele>10.7</ele>
        <time>2022-04-12T13:54:43Z</time>
      </trkpt>
      <trkpt lat="50.01467" lon="2.0406">
        <ele>10.7</ele>
        <time>2022-04-12T13:54:44Z</time>
      </trkpt>
      <trkpt lat="50.01467" lon="2.0406">
        <ele>10.7</ele>
        <time>2022-04-12T13:54:45Z</time>
      </trkpt>
      <trkpt lat="50.01467" lon="2.0406">
        <ele>10.7</ele>
        <time>2022-04-12T13:54:46Z</time>
      </trkpt>
      <trkpt lat="50.01467" lon="2.0406">
        <ele>10.7</ele>
        <time>2022-04-12T13:54:47Z</time>
      </trkpt>
      <trkpt lat="50.01467" lon="2.04061">
        <ele>10.7</ele>
        <time>2022-04-12T13:54:48Z</time>
      </trkpt>
      <trkpt lat="50.01467" lon="2.04061">
        <ele>10.7</ele>
        <time>2022-04-12T13:54:49Z</time>
      </trkpt>
      <trkpt lat="50.01467" lon="2.04061">
        <ele>10.7</ele>
        <time>2022-04-12T13:54:50Z</time>
      </trkpt>
      <trkpt lat="50.01467" lon="2.04061">
        <ele>10.7</ele>
        <time>2022-04-12T13:54:51Z</time>
      </trkpt>
      <trkpt lat="50.01467" lon="2.04061">
        <ele>10.7</ele>
        <time>2022-04-12T13:54:52Z</time>
      </trkpt>
      <trkpt lat="50.01467" lon="2.04061">
        <ele>10.7</ele>
        <time>2022-04-12T13:54:53Z</time>
      </trkpt>
      <trkpt lat="50.01467" lon="2.04061">
        <ele>10.7</ele>
        <time>2022-04-12T13:54:54Z</time>
      </trkpt>
      <trkpt lat="50.01467" lon="2.04061">
        <ele>10.7</ele>
        <time>2022-04-12T13:54:55Z</time>
      </trkpt>
      <trkpt lat="50.01467" lon="2.04061">
        <ele>10.7</ele>
        <time>2022-04-12T13:54:56Z</time>
      </trkpt>
      <trkpt lat="50.01467" lon="2.04061">
        <ele>10.7</ele>
        <time>2022-04-12T13:54:57Z</time>
      </trkpt>
      <trkpt lat="50.01467" lon="2.04061">
        <ele>10.7</ele>
        <time>2022-04-12T13:54:58Z</time>
      </trkpt>
      <trkpt lat="50.01467" lon="2.04061">
        <ele>10.7</ele>
        <time>2022-04-12T13:54:59Z</time>
      </trkpt>
      <trkpt lat="50.01467" lon="2.04061">
        <ele>10.7</ele>
        <time>2022-04-12T13:55:00Z</time>
      </trkpt>
      <trkpt lat="50.01467" lon="2.04061">
        <ele>10.7</ele>
        <time>2022-04-12T13:55:01Z</time>
      </trkpt>
      <trkpt lat="50.01467" lon="2.04061">
        <ele>10.7</ele>
        <time>2022-04-12T13:55:02Z</time>
      </trkpt>
      <trkpt lat="50.01467" lon="2.04061">
        <ele>10.7</ele>
        <time>2022-04-12T13:55:03Z</time>
      </trkpt>
      <trkpt lat="50.01467" lon="2.04061">
        <ele>10.7</ele>
        <time>2022-04-12T13:55:04Z</time>
      </trkpt>
      <trkpt lat="50.01467" lon="2.04061">
        <ele>10.7</ele>
        <time>2022-04-12T13:55:05Z</time>
      </trkpt>
      <trkpt lat="50.01467" lon="2.04061">
        <ele>10.7</ele>
        <time>2022-04-12T13:55:06Z</time>
      </trkpt>
      <trkpt lat="50.01467" lon="2.04061">
        <ele>10.7</ele>
        <time>2022-04-12T13:55:07Z</time>
      </trkpt>
      <trkpt lat="50.01467" lon="2.04061">
        <ele>10.7</ele>
        <time>2022-04-12T13:55:08Z</time>
      </trkpt>
      <trkpt lat="50.01467" lon="2.04061">
        <ele>10.7</ele>
        <time>2022-04-12T13:55:09Z</time>
      </trkpt>
      <trkpt lat="50.01467" lon="2.04061">
        <ele>10.7</ele>
        <time>2022-04-12T13:55:10Z</time>
      </trkpt>
      <trkpt lat="50.01467" lon="2.04061">
        <ele>10.7</ele>
        <time>2022-04-12T13:55:11Z</time>
      </trkpt>
      <trkpt lat="50.01467" lon="2.04061">
        <ele>10.7</ele>
        <time>2022-04-12T13:55:12Z</time>
      </trkpt>
      <trkpt lat="50.01467" lon="2.04061">
        <ele>10.7</ele>
        <time>2022-04-12T13:55:13Z</time>
      </trkpt>
      <trkpt lat="50.01467" lon="2.04061">
        <ele>10.7</ele>
        <time>2022-04-12T13:55:14Z</time>
      </trkpt>
      <trkpt lat="50.01467" lon="2.04061">
        <ele>10.7</ele>
        <time>2022-04-12T13:55:15Z</time>
      </trkpt>
      <trkpt lat="50.01467" lon="2.04061">
        <ele>10.7</ele>
        <time>2022-04-12T13:55:16Z</time>
      </trkpt>
      <trkpt lat="50.01467" lon="2.04061">
        <ele>10.7</ele>
        <time>2022-04-12T13:55:17Z</time>
      </trkpt>
      <trkpt lat="50.01467" lon="2.04061">
        <ele>10.7</ele>
        <time>2022-04-12T13:55:18Z</time>
      </trkpt>
      <trkpt lat="50.01467" lon="2.04061">
        <ele>10.7</ele>
        <time>2022-04-12T13:55:19Z</time>
      </trkpt>
      <trkpt lat="50.01467" lon="2.04061">
        <ele>10.7</ele>
        <time>2022-04-12T13:55:20Z</time>
      </trkpt>
      <trkpt lat="50.01467" lon="2.04061">
        <ele>10.7</ele>
        <time>2022-04-12T13:55:21Z</time>
      </trkpt>
      <trkpt lat="50.01467" lon="2.04061">
        <ele>10.7</ele>
        <time>2022-04-12T13:55:22Z</time>
      </trkpt>
      <trkpt lat="50.01467" lon="2.04061">
        <ele>10.7</ele>
        <time>2022-04-12T13:55:23Z</time>
      </trkpt>
      <trkpt lat="50.01467" lon="2.04061">
        <ele>10.7</ele>
        <time>2022-04-12T13:55:24Z</time>
      </trkpt>
      <trkpt lat="50.01466" lon="2.04062">
        <ele>10.7</ele>
        <time>2022-04-12T13:55:25Z</time>
      </trkpt>
      <trkpt lat="50.01466" lon="2.04062">
        <ele>10.7</ele>
        <time>2022-04-12T13:55:26Z</time>
      </trkpt>
      <trkpt lat="50.01465" lon="2.04062">
        <ele>10.7</ele>
        <time>2022-04-12T13:55:27Z</time>
      </trkpt>
      <trkpt lat="50.01464" lon="2.04062">
        <ele>10.6</ele>
        <time>2022-04-12T13:55:28Z</time>
      </trkpt>
      <trkpt lat="50.01463" lon="2.04061">
        <ele>10.6</ele>
        <time>2022-04-12T13:55:29Z</time>
      </trkpt>
      <trkpt lat="50.01463" lon="2.04062">
        <ele>10.6</ele>
        <time>2022-04-12T13:55:30Z</time>
      </trkpt>
      <trkpt lat="50.01463" lon="2.0406">
        <ele>10.6</ele>
        <time>2022-04-12T13:55:31Z</time>
      </trkpt>
      <trkpt lat="50.01461" lon="2.04057">
        <ele>10.6</ele>
        <time>2022-04-12T13:55:33Z</time>
      </trkpt>
      <trkpt lat="50.0146" lon="2.04056">
        <ele>10.6</ele>
        <time>2022-04-12T13:55:34Z</time>
      </trkpt>
      <trkpt lat="50.0146" lon="2.04055">
        <ele>10.6</ele>
        <time>2022-04-12T13:55:35Z</time>
      </trkpt>
      <trkpt lat="50.0146" lon="2.04055">
        <ele>10.5</ele>
        <time>2022-04-12T13:55:36Z</time>
      </trkpt>
      <trkpt lat="50.01459" lon="2.04055">
        <ele>10.5</ele>
        <time>2022-04-12T13:55:37Z</time>
      </trkpt>
      <trkpt lat="50.01459" lon="2.04055">
        <ele>10.5</ele>
        <time>2022-04-12T13:55:38Z</time>
      </trkpt>
      <trkpt lat="50.01459" lon="2.04055">
        <ele>10.5</ele>
        <time>2022-04-12T13:55:39Z</time>
      </trkpt>
      <trkpt lat="50.01459" lon="2.04056">
        <ele>10.5</ele>
        <time>2022-04-12T13:55:40Z</time>
      </trkpt>
      <trkpt lat="50.01459" lon="2.04056">
        <ele>10.5</ele>
        <time>2022-04-12T13:55:41Z</time>
      </trkpt>
      <trkpt lat="50.01459" lon="2.04056">
        <ele>10.5</ele>
        <time>2022-04-12T13:55:42Z</time>
      </trkpt>
      <trkpt lat="50.01459" lon="2.04056">
        <ele>10.5</ele>
        <time>2022-04-12T13:55:43Z</time>
      </trkpt>
      <trkpt lat="50.01459" lon="2.04056">
        <ele>10.5</ele>
        <time>2022-04-12T13:55:44Z</time>
      </trkpt>
      <trkpt lat="50.01459" lon="2.04056">
        <ele>10.5</ele>
        <time>2022-04-12T13:55:45Z</time>
      </trkpt>
      <trkpt lat="50.01459" lon="2.04055">
        <ele>10.5</ele>
        <time>2022-04-12T13:55:46Z</time>
      </trkpt>
      <trkpt lat="50.01459" lon="2.04056">
        <ele>10.5</ele>
        <time>2022-04-12T13:55:47Z</time>
      </trkpt>
      <trkpt lat="50.01459" lon="2.04056">
        <ele>10.5</ele>
        <time>2022-04-12T13:55:48Z</time>
      </trkpt>
      <trkpt lat="50.01459" lon="2.04056">
        <ele>10.5</ele>
        <time>2022-04-12T13:55:49Z</time>
      </trkpt>
      <trkpt lat="50.01459" lon="2.04055">
        <ele>10.5</ele>
        <time>2022-04-12T13:55:50Z</time>
      </trkpt>
      <trkpt lat="50.01459" lon="2.04055">
        <ele>10.5</ele>
        <time>2022-04-12T13:55:51Z</time>
      </trkpt>
      <trkpt lat="50.01459" lon="2.04056">
        <ele>10.5</ele>
        <time>2022-04-12T13:55:52Z</time>
      </trkpt>
      <trkpt lat="50.01459" lon="2.04056">
        <ele>10.5</ele>
        <time>2022-04-12T13:55:53Z</time>
      </trkpt>
      <trkpt lat="50.01459" lon="2.04056">
        <ele>10.5</ele>
        <time>2022-04-12T13:55:54Z</time>
      </trkpt>
      <trkpt lat="50.01459" lon="2.04056">
        <ele>10.5</ele>
        <time>2022-04-12T13:55:55Z</time>
      </trkpt>
      <trkpt lat="50.01459" lon="2.04056">
        <ele>10.5</ele>
        <time>2022-04-12T13:55:56Z</time>
      </trkpt>
      <trkpt lat="50.01459" lon="2.04056">
        <ele>10.5</ele>
        <time>2022-04-12T13:55:57Z</time>
      </trkpt>
      <trkpt lat="50.01459" lon="2.04056">
        <ele>10.5</ele>
        <time>2022-04-12T13:55:58Z</time>
      </trkpt>
      <trkpt lat="50.01459" lon="2.04056">
        <ele>10.5</ele>
        <time>2022-04-12T13:55:59Z</time>
      </trkpt>
      <trkpt lat="50.01459" lon="2.04056">
        <ele>10.5</ele>
        <time>2022-04-12T13:56:00Z</time>
      </trkpt>
      <trkpt lat="50.01459" lon="2.04056">
        <ele>10.5</ele>
        <time>2022-04-12T13:56:01Z</time>
      </trkpt>
      <trkpt lat="50.01459" lon="2.04056">
        <ele>10.5</ele>
        <time>2022-04-12T13:56:02Z</time>
      </trkpt>
      <trkpt lat="50.01459" lon="2.04056">
        <ele>10.5</ele>
        <time>2022-04-12T13:56:03Z</time>
      </trkpt>
      <trkpt lat="50.01459" lon="2.04056">
        <ele>10.5</ele>
        <time>2022-04-12T13:56:04Z</time>
      </trkpt>
      <trkpt lat="50.01459" lon="2.04056">
        <ele>10.5</ele>
        <time>2022-04-12T13:56:05Z</time>
      </trkpt>
      <trkpt lat="50.01459" lon="2.04056">
        <ele>10.5</ele>
        <time>2022-04-12T13:56:06Z</time>
      </trkpt>
      <trkpt lat="50.01459" lon="2.04056">
        <ele>10.5</ele>
        <time>2022-04-12T13:56:07Z</time>
      </trkpt>
      <trkpt lat="50.01459" lon="2.04056">
        <ele>10.5</ele>
        <time>2022-04-12T13:56:08Z</time>
      </trkpt>
      <trkpt lat="50.01459" lon="2.04056">
        <ele>10.5</ele>
        <time>2022-04-12T13:56:09Z</time>
      </trkpt>
      <trkpt lat="50.01459" lon="2.04056">
        <ele>10.5</ele>
        <time>2022-04-12T13:56:10Z</time>
      </trkpt>
      <trkpt lat="50.01459" lon="2.04056">
        <ele>10.5</ele>
        <time>2022-04-12T13:56:11Z</time>
      </trkpt>
      <trkpt lat="50.01459" lon="2.04056">
        <ele>10.5</ele>
        <time>2022-04-12T13:56:12Z</time>
      </trkpt>
      <trkpt lat="50.01459" lon="2.04056">
        <ele>10.5</ele>
        <time>2022-04-12T13:56:13Z</time>
      </trkpt>
      <trkpt lat="50.01459" lon="2.04056">
        <ele>10.5</ele>
        <time>2022-04-12T13:56:14Z</time>
      </trkpt>
      <trkpt lat="50.01459" lon="2.04056">
        <ele>10.5</ele>
        <time>2022-04-12T13:56:15Z</time>
      </trkpt>
      <trkpt lat="50.01459" lon="2.04056">
        <ele>10.5</ele>
        <time>2022-04-12T13:56:16Z</time>
      </trkpt>
      <trkpt lat="50.01459" lon="2.04056">
        <ele>10.5</ele>
        <time>2022-04-12T13:56:17Z</time>
      </trkpt>
      <trkpt lat="50.01459" lon="2.04056">
        <ele>10.5</ele>
        <time>2022-04-12T13:56:18Z</time>
      </trkpt>
      <trkpt lat="50.01459" lon="2.04055">
        <ele>10.5</ele>
        <time>2022-04-12T13:56:19Z</time>
      </trkpt>
      <trkpt lat="50.01458" lon="2.04054">
        <ele>10.5</ele>
        <time>2022-04-12T13:56:20Z</time>
      </trkpt>
      <trkpt lat="50.01458" lon="2.04053">
        <ele>10.5</ele>
        <time>2022-04-12T13:56:21Z</time>
      </trkpt>
      <trkpt lat="50.01458" lon="2.04053">
        <ele>10.5</ele>
        <time>2022-04-12T13:56:22Z</time>
      </trkpt>
      <trkpt lat="50.01458" lon="2.04053">
        <ele>10.5</ele>
        <time>2022-04-12T13:56:23Z</time>
      </trkpt>
      <trkpt lat="50.01458" lon="2.04053">
        <ele>10.5</ele>
        <time>2022-04-12T13:56:24Z</time>
      </trkpt>
      <trkpt lat="50.01458" lon="2.04053">
        <ele>10.5</ele>
        <time>2022-04-12T13:56:25Z</time>
      </trkpt>
      <trkpt lat="50.01457" lon="2.04053">
        <ele>10.5</ele>
        <time>2022-04-12T13:56:26Z</time>
      </trkpt>
      <trkpt lat="50.01458" lon="2.04053">
        <ele>10.5</ele>
        <time>2022-04-12T13:56:27Z</time>
      </trkpt>
      <trkpt lat="50.01458" lon="2.04053">
        <ele>10.5</ele>
        <time>2022-04-12T13:56:28Z</time>
      </trkpt>
      <trkpt lat="50.01458" lon="2.04053">
        <ele>10.5</ele>
        <time>2022-04-12T13:56:29Z</time>
      </trkpt>
      <trkpt lat="50.01458" lon="2.04053">
        <ele>10.5</ele>
        <time>2022-04-12T13:56:30Z</time>
      </trkpt>
      <trkpt lat="50.01458" lon="2.04053">
        <ele>10.5</ele>
        <time>2022-04-12T13:56:31Z</time>
      </trkpt>
      <trkpt lat="50.01458" lon="2.04053">
        <ele>10.5</ele>
        <time>2022-04-12T13:56:32Z</time>
      </trkpt>
      <trkpt lat="50.01458" lon="2.04053">
        <ele>10.5</ele>
        <time>2022-04-12T13:56:33Z</time>
      </trkpt>
      <trkpt lat="50.01458" lon="2.04053">
        <ele>10.5</ele>
        <time>2022-04-12T13:56:34Z</time>
      </trkpt>
      <trkpt lat="50.01458" lon="2.04053">
        <ele>10.5</ele>
        <time>2022-04-12T13:56:35Z</time>
      </trkpt>
      <trkpt lat="50.01458" lon="2.04053">
        <ele>10.5</ele>
        <time>2022-04-12T13:56:36Z</time>
      </trkpt>
      <trkpt lat="50.01458" lon="2.04053">
        <ele>10.5</ele>
        <time>2022-04-12T13:56:37Z</time>
      </trkpt>
      <trkpt lat="50.01458" lon="2.04053">
        <ele>10.5</ele>
        <time>2022-04-12T13:56:38Z</time>
      </trkpt>
      <trkpt lat="50.01458" lon="2.04053">
        <ele>10.5</ele>
        <time>2022-04-12T13:56:39Z</time>
      </trkpt>
      <trkpt lat="50.01458" lon="2.04053">
        <ele>10.5</ele>
        <time>2022-04-12T13:56:40Z</time>
      </trkpt>
      <trkpt lat="50.01458" lon="2.04053">
        <ele>10.5</ele>
        <time>2022-04-12T13:56:41Z</time>
      </trkpt>
      <trkpt lat="50.01458" lon="2.04053">
        <ele>10.5</ele>
        <time>2022-04-12T13:56:42Z</time>
      </trkpt>
      <trkpt lat="50.01458" lon="2.04053">
        <ele>10.5</ele>
        <time>2022-04-12T13:56:43Z</time>
      </trkpt>
      <trkpt lat="50.01458" lon="2.04053">
        <ele>10.5</ele>
        <time>2022-04-12T13:56:44Z</time>
      </trkpt>
      <trkpt lat="50.01458" lon="2.04053">
        <ele>10.5</ele>
        <time>2022-04-12T13:56:45Z</time>
      </trkpt>
      <trkpt lat="50.01458" lon="2.04053">
        <ele>10.5</ele>
        <time>2022-04-12T13:56:46Z</time>
      </trkpt>
      <trkpt lat="50.01458" lon="2.04053">
        <ele>10.5</ele>
        <time>2022-04-12T13:56:47Z</time>
      </trkpt>
      <trkpt lat="50.01458" lon="2.04053">
        <ele>10.5</ele>
        <time>2022-04-12T13:56:48Z</time>
      </trkpt>
      <trkpt lat="50.01458" lon="2.04053">
        <ele>10.5</ele>
        <time>2022-04-12T13:56:49Z</time>
      </trkpt>
      <trkpt lat="50.01458" lon="2.04053">
        <ele>10.5</ele>
        <time>2022-04-12T13:56:50Z</time>
      </trkpt>
      <trkpt lat="50.01458" lon="2.04053">
        <ele>10.5</ele>
        <time>2022-04-12T13:56:51Z</time>
      </trkpt>
      <trkpt lat="50.01458" lon="2.04053">
        <ele>10.5</ele>
        <time>2022-04-12T13:56:52Z</time>
      </trkpt>
      <trkpt lat="50.01458" lon="2.04053">
        <ele>10.5</ele>
        <time>2022-04-12T13:56:53Z</time>
      </trkpt>
      <trkpt lat="50.01458" lon="2.04053">
        <ele>10.5</ele>
        <time>2022-04-12T13:56:54Z</time>
      </trkpt>
      <trkpt lat="50.01458" lon="2.04053">
        <ele>10.5</ele>
        <time>2022-04-12T13:56:55Z</time>
      </trkpt>
      <trkpt lat="50.01458" lon="2.04053">
        <ele>10.5</ele>
        <time>2022-04-12T13:56:56Z</time>
      </trkpt>
      <trkpt lat="50.01458" lon="2.04053">
        <ele>10.5</ele>
        <time>2022-04-12T13:56:57Z</time>
      </trkpt>
      <trkpt lat="50.01458" lon="2.04053">
        <ele>10.5</ele>
        <time>2022-04-12T13:56:58Z</time>
      </trkpt>
      <trkpt lat="50.01458" lon="2.04053">
        <ele>10.5</ele>
        <time>2022-04-12T13:56:59Z</time>
      </trkpt>
      <trkpt lat="50.01458" lon="2.04053">
        <ele>10.5</ele>
        <time>2022-04-12T13:57:00Z</time>
      </trkpt>
      <trkpt lat="50.01458" lon="2.04053">
        <ele>10.5</ele>
        <time>2022-04-12T13:57:01Z</time>
      </trkpt>
      <trkpt lat="50.01458" lon="2.04053">
        <ele>10.5</ele>
        <time>2022-04-12T13:57:02Z</time>
      </trkpt>
      <trkpt lat="50.01457" lon="2.04053">
        <ele>10.5</ele>
        <time>2022-04-12T13:57:03Z</time>
      </trkpt>
      <trkpt lat="50.01457" lon="2.04053">
        <ele>10.5</ele>
        <time>2022-04-12T13:57:04Z</time>
      </trkpt>
      <trkpt lat="50.01457" lon="2.04053">
        <ele>10.5</ele>
        <time>2022-04-12T13:57:05Z</time>
      </trkpt>
      <trkpt lat="50.01457" lon="2.04053">
        <ele>10.5</ele>
        <time>2022-04-12T13:57:06Z</time>
      </trkpt>
      <trkpt lat="50.01457" lon="2.04053">
        <ele>10.5</ele>
        <time>2022-04-12T13:57:07Z</time>
      </trkpt>
      <trkpt lat="50.01458" lon="2.04053">
        <ele>10.5</ele>
        <time>2022-04-12T13:57:08Z</time>
      </trkpt>
      <trkpt lat="50.01458" lon="2.04053">
        <ele>10.5</ele>
        <time>2022-04-12T13:57:09Z</time>
      </trkpt>
      <trkpt lat="50.01458" lon="2.04053">
        <ele>10.5</ele>
        <time>2022-04-12T13:57:10Z</time>
      </trkpt>
      <trkpt lat="50.01458" lon="2.04053">
        <ele>10.5</ele>
        <time>2022-04-12T13:57:11Z</time>
      </trkpt>
      <trkpt lat="50.01458" lon="2.04053">
        <ele>10.4</ele>
        <time>2022-04-12T13:57:12Z</time>
      </trkpt>
      <trkpt lat="50.01458" lon="2.04053">
        <ele>10.4</ele>
        <time>2022-04-12T13:57:13Z</time>
      </trkpt>
      <trkpt lat="50.01458" lon="2.04053">
        <ele>10.4</ele>
        <time>2022-04-12T13:57:14Z</time>
      </trkpt>
      <trkpt lat="50.01458" lon="2.04053">
        <ele>10.4</ele>
        <time>2022-04-12T13:57:15Z</time>
      </trkpt>
      <trkpt lat="50.01458" lon="2.04053">
        <ele>10.4</ele>
        <time>2022-04-12T13:57:16Z</time>
      </trkpt>
      <trkpt lat="50.01458" lon="2.04053">
        <ele>10.4</ele>
        <time>2022-04-12T13:57:17Z</time>
      </trkpt>
      <trkpt lat="50.01458" lon="2.04053">
        <ele>10.4</ele>
        <time>2022-04-12T13:57:18Z</time>
      </trkpt>
      <trkpt lat="50.01458" lon="2.04053">
        <ele>10.4</ele>
        <time>2022-04-12T13:57:19Z</time>
      </trkpt>
      <trkpt lat="50.01458" lon="2.04053">
        <ele>10.4</ele>
        <time>2022-04-12T13:57:20Z</time>
      </trkpt>
      <trkpt lat="50.01458" lon="2.04053">
        <ele>10.4</ele>
        <time>2022-04-12T13:57:21Z</time>
      </trkpt>
      <trkpt lat="50.01458" lon="2.04053">
        <ele>10.4</ele>
        <time>2022-04-12T13:57:22Z</time>
      </trkpt>
      <trkpt lat="50.01458" lon="2.04053">
        <ele>10.4</ele>
        <time>2022-04-12T13:57:23Z</time>
      </trkpt>
      <trkpt lat="50.01458" lon="2.04053">
        <ele>10.4</ele>
        <time>2022-04-12T13:57:24Z</time>
      </trkpt>
      <trkpt lat="50.01458" lon="2.04053">
        <ele>10.4</ele>
        <time>2022-04-12T13:57:25Z</time>
      </trkpt>
      <trkpt lat="50.01458" lon="2.04053">
        <ele>10.4</ele>
        <time>2022-04-12T13:57:26Z</time>
      </trkpt>
      <trkpt lat="50.01457" lon="2.04053">
        <ele>10.4</ele>
        <time>2022-04-12T13:57:27Z</time>
      </trkpt>
      <trkpt lat="50.01458" lon="2.04053">
        <ele>10.4</ele>
        <time>2022-04-12T13:57:28Z</time>
      </trkpt>
      <trkpt lat="50.01458" lon="2.04053">
        <ele>10.4</ele>
        <time>2022-04-12T13:57:29Z</time>
      </trkpt>
      <trkpt lat="50.01458" lon="2.04053">
        <ele>10.4</ele>
        <time>2022-04-12T13:57:30Z</time>
      </trkpt>
      <trkpt lat="50.01459" lon="2.04053">
        <ele>10.4</ele>
        <time>2022-04-12T13:57:31Z</time>
      </trkpt>
      <trkpt lat="50.01459" lon="2.04053">
        <ele>10.4</ele>
        <time>2022-04-12T13:57:32Z</time>
      </trkpt>
      <trkpt lat="50.01459" lon="2.04053">
        <ele>10.4</ele>
        <time>2022-04-12T13:57:33Z</time>
      </trkpt>
      <trkpt lat="50.01458" lon="2.04053">
        <ele>10.4</ele>
        <time>2022-04-12T13:57:34Z</time>
      </trkpt>
      <trkpt lat="50.01458" lon="2.04053">
        <ele>10.4</ele>
        <time>2022-04-12T13:57:35Z</time>
      </trkpt>
      <trkpt lat="50.01458" lon="2.04053">
        <ele>10.4</ele>
        <time>2022-04-12T13:57:36Z</time>
      </trkpt>
      <trkpt lat="50.01458" lon="2.04053">
        <ele>10.4</ele>
        <time>2022-04-12T13:57:37Z</time>
      </trkpt>
      <trkpt lat="50.01458" lon="2.04053">
        <ele>10.4</ele>
        <time>2022-04-12T13:57:38Z</time>
      </trkpt>
      <trkpt lat="50.01458" lon="2.04052">
        <ele>10.4</ele>
        <time>2022-04-12T13:57:39Z</time>
      </trkpt>
      <trkpt lat="50.01458" lon="2.04053">
        <ele>10.4</ele>
        <time>2022-04-12T13:57:40Z</time>
      </trkpt>
      <trkpt lat="50.01458" lon="2.04053">
        <ele>10.4</ele>
        <time>2022-04-12T13:57:41Z</time>
      </trkpt>
      <trkpt lat="50.01458" lon="2.04053">
        <ele>10.4</ele>
        <time>2022-04-12T13:57:42Z</time>
      </trkpt>
      <trkpt lat="50.01459" lon="2.04053">
        <ele>10.4</ele>
        <time>2022-04-12T13:57:43Z</time>
      </trkpt>
      <trkpt lat="50.01459" lon="2.04053">
        <ele>10.4</ele>
        <time>2022-04-12T13:57:44Z</time>
      </trkpt>
      <trkpt lat="50.01459" lon="2.04053">
        <ele>10.4</ele>
        <time>2022-04-12T13:57:45Z</time>
      </trkpt>
      <trkpt lat="50.0146" lon="2.04051">
        <ele>10.4</ele>
        <time>2022-04-12T13:57:47Z</time>
      </trkpt>
      <trkpt lat="50.01461" lon="2.0405">
        <ele>10.4</ele>
        <time>2022-04-12T13:57:48Z</time>
      </trkpt>
      <trkpt lat="50.01462" lon="2.04049">
        <ele>10.4</ele>
        <time>2022-04-12T13:57:49Z</time>
      </trkpt>
      <trkpt lat="50.01463" lon="2.04047">
        <ele>10.4</ele>
        <time>2022-04-12T13:57:50Z</time>
      </trkpt>
      <trkpt lat="50.01464" lon="2.04045">
        <ele>10.4</ele>
        <time>2022-04-12T13:57:51Z</time>
      </trkpt>
      <trkpt lat="50.01464" lon="2.04044">
        <ele>10.4</ele>
        <time>2022-04-12T13:57:52Z</time>
      </trkpt>
      <trkpt lat="50.01465" lon="2.04041">
        <ele>10.3</ele>
        <time>2022-04-12T13:57:53Z</time>
      </trkpt>
      <trkpt lat="50.01465" lon="2.04039">
        <ele>10.3</ele>
        <time>2022-04-12T13:57:54Z</time>
      </trkpt>
      <trkpt lat="50.01466" lon="2.04037">
        <ele>10.3</ele>
        <time>2022-04-12T13:57:55Z</time>
      </trkpt>
      <trkpt lat="50.01466" lon="2.04035">
        <ele>10.3</ele>
        <time>2022-04-12T13:57:56Z</time>
      </trkpt>
      <trkpt lat="50.01467" lon="2.04032">
        <ele>10.3</ele>
        <time>2022-04-12T13:57:57Z</time>
      </trkpt>
      <trkpt lat="50.01468" lon="2.04031">
        <ele>10.3</ele>
        <time>2022-04-12T13:57:59Z</time>
      </trkpt>
      <trkpt lat="50.01468" lon="2.0403">
        <ele>10.3</ele>
        <time>2022-04-12T13:58:00Z</time>
      </trkpt>
      <trkpt lat="50.01469" lon="2.04029">
        <ele>10.3</ele>
        <time>2022-04-12T13:58:01Z</time>
      </trkpt>
      <trkpt lat="50.01469" lon="2.04027">
        <ele>10.3</ele>
        <time>2022-04-12T13:58:02Z</time>
      </trkpt>
      <trkpt lat="50.01469" lon="2.04026">
        <ele>10.3</ele>
        <time>2022-04-12T13:58:03Z</time>
      </trkpt>
      <trkpt lat="50.0147" lon="2.04025">
        <ele>10.3</ele>
        <time>2022-04-12T13:58:04Z</time>
      </trkpt>
      <trkpt lat="50.01471" lon="2.04024">
        <ele>10.3</ele>
        <time>2022-04-12T13:58:05Z</time>
      </trkpt>
      <trkpt lat="50.01471" lon="2.04023">
        <ele>10.3</ele>
        <time>2022-04-12T13:58:06Z</time>
      </trkpt>
      <trkpt lat="50.01472" lon="2.04023">
        <ele>10.3</ele>
        <time>2022-04-12T13:58:07Z</time>
      </trkpt>
      <trkpt lat="50.01472" lon="2.04022">
        <ele>10.3</ele>
        <time>2022-04-12T13:58:08Z</time>
      </trkpt>
      <trkpt lat="50.01474" lon="2.04019">
        <ele>10.2</ele>
        <time>2022-04-12T13:58:09Z</time>
      </trkpt>
      <trkpt lat="50.01475" lon="2.04017">
        <ele>10.2</ele>
        <time>2022-04-12T13:58:10Z</time>
      </trkpt>
      <trkpt lat="50.01476" lon="2.04016">
        <ele>10.2</ele>
        <time>2022-04-12T13:58:12Z</time>
      </trkpt>
      <trkpt lat="50.01477" lon="2.04014">
        <ele>10.2</ele>
        <time>2022-04-12T13:58:13Z</time>
      </trkpt>
      <trkpt lat="50.01478" lon="2.0401">
        <ele>10.2</ele>
        <time>2022-04-12T13:58:14Z</time>
      </trkpt>
      <trkpt lat="50.01479" lon="2.04009">
        <ele>10.2</ele>
        <time>2022-04-12T13:58:15Z</time>
      </trkpt>
      <trkpt lat="50.0148" lon="2.04007">
        <ele>10.2</ele>
        <time>2022-04-12T13:58:16Z</time>
      </trkpt>
      <trkpt lat="50.01481" lon="2.04005">
        <ele>10.2</ele>
        <time>2022-04-12T13:58:17Z</time>
      </trkpt>
      <trkpt lat="50.01481" lon="2.04004">
        <ele>10.2</ele>
        <time>2022-04-12T13:58:18Z</time>
      </trkpt>
      <trkpt lat="50.01482" lon="2.04002">
        <ele>10.2</ele>
        <time>2022-04-12T13:58:19Z</time>
      </trkpt>
      <trkpt lat="50.01483" lon="2.04001">
        <ele>10.2</ele>
        <time>2022-04-12T13:58:20Z</time>
      </trkpt>
      <trkpt lat="50.01483" lon="2.03999">
        <ele>10.2</ele>
        <time>2022-04-12T13:58:21Z</time>
      </trkpt>
      <trkpt lat="50.01484" lon="2.03997">
        <ele>10.2</ele>
        <time>2022-04-12T13:58:22Z</time>
      </trkpt>
      <trkpt lat="50.01485" lon="2.03994">
        <ele>10.2</ele>
        <time>2022-04-12T13:58:24Z</time>
      </trkpt>
      <trkpt lat="50.01486" lon="2.03993">
        <ele>10.2</ele>
        <time>2022-04-12T13:58:25Z</time>
      </trkpt>
      <trkpt lat="50.01486" lon="2.03992">
        <ele>10.2</ele>
        <time>2022-04-12T13:58:26Z</time>
      </trkpt>
      <trkpt lat="50.01487" lon="2.03989">
        <ele>10.2</ele>
        <time>2022-04-12T13:58:27Z</time>
      </trkpt>
      <trkpt lat="50.01488" lon="2.03988">
        <ele>10.2</ele>
        <time>2022-04-12T13:58:28Z</time>
      </trkpt>
      <trkpt lat="50.01488" lon="2.03987">
        <ele>10.2</ele>
        <time>2022-04-12T13:58:29Z</time>
      </trkpt>
      <trkpt lat="50.0149" lon="2.03984">
        <ele>10.2</ele>
        <time>2022-04-12T13:58:30Z</time>
      </trkpt>
      <trkpt lat="50.0149" lon="2.03983">
        <ele>10.2</ele>
        <time>2022-04-12T13:58:31Z</time>
      </trkpt>
      <trkpt lat="50.01491" lon="2.03982">
        <ele>10.2</ele>
        <time>2022-04-12T13:58:32Z</time>
      </trkpt>
      <trkpt lat="50.01492" lon="2.03981">
        <ele>10.2</ele>
        <time>2022-04-12T13:58:33Z</time>
      </trkpt>
      <trkpt lat="50.01493" lon="2.03979">
        <ele>10.2</ele>
        <time>2022-04-12T13:58:34Z</time>
      </trkpt>
      <trkpt lat="50.01493" lon="2.03977">
        <ele>10.2</ele>
        <time>2022-04-12T13:58:36Z</time>
      </trkpt>
      <trkpt lat="50.01495" lon="2.03975">
        <ele>10.2</ele>
        <time>2022-04-12T13:58:37Z</time>
      </trkpt>
      <trkpt lat="50.01495" lon="2.03974">
        <ele>10.2</ele>
        <time>2022-04-12T13:58:38Z</time>
      </trkpt>
      <trkpt lat="50.01496" lon="2.03972">
        <ele>10.2</ele>
        <time>2022-04-12T13:58:39Z</time>
      </trkpt>
      <trkpt lat="50.01496" lon="2.03971">
        <ele>10.2</ele>
        <time>2022-04-12T13:58:40Z</time>
      </trkpt>
      <trkpt lat="50.01497" lon="2.03969">
        <ele>10.2</ele>
        <time>2022-04-12T13:58:41Z</time>
      </trkpt>
      <trkpt lat="50.01497" lon="2.03968">
        <ele>10.2</ele>
        <time>2022-04-12T13:58:42Z</time>
      </trkpt>
      <trkpt lat="50.01498" lon="2.03965">
        <ele>10.2</ele>
        <time>2022-04-12T13:58:43Z</time>
      </trkpt>
      <trkpt lat="50.01499" lon="2.03964">
        <ele>10.2</ele>
        <time>2022-04-12T13:58:44Z</time>
      </trkpt>
      <trkpt lat="50.01499" lon="2.03962">
        <ele>10.2</ele>
        <time>2022-04-12T13:58:45Z</time>
      </trkpt>
      <trkpt lat="50.015" lon="2.03959">
        <ele>10.2</ele>
        <time>2022-04-12T13:58:46Z</time>
      </trkpt>
      <trkpt lat="50.015" lon="2.03958">
        <ele>10.2</ele>
        <time>2022-04-12T13:58:47Z</time>
      </trkpt>
      <trkpt lat="50.01501" lon="2.03957">
        <ele>10.2</ele>
        <time>2022-04-12T13:58:48Z</time>
      </trkpt>
      <trkpt lat="50.01502" lon="2.03953">
        <ele>10.2</ele>
        <time>2022-04-12T13:58:50Z</time>
      </trkpt>
      <trkpt lat="50.01502" lon="2.03951">
        <ele>10.2</ele>
        <time>2022-04-12T13:58:52Z</time>
      </trkpt>
      <trkpt lat="50.01503" lon="2.0395">
        <ele>10.2</ele>
        <time>2022-04-12T13:58:53Z</time>
      </trkpt>
      <trkpt lat="50.01504" lon="2.03948">
        <ele>10.2</ele>
        <time>2022-04-12T13:58:54Z</time>
      </trkpt>
      <trkpt lat="50.01504" lon="2.03947">
        <ele>10.2</ele>
        <time>2022-04-12T13:58:55Z</time>
      </trkpt>
      <trkpt lat="50.01505" lon="2.03945">
        <ele>10.2</ele>
        <time>2022-04-12T13:58:56Z</time>
      </trkpt>
      <trkpt lat="50.01505" lon="2.03943">
        <ele>10.2</ele>
        <time>2022-04-12T13:58:57Z</time>
      </trkpt>
      <trkpt lat="50.01506" lon="2.03941">
        <ele>10.2</ele>
        <time>2022-04-12T13:58:59Z</time>
      </trkpt>
      <trkpt lat="50.01507" lon="2.03938">
        <ele>10.1</ele>
        <time>2022-04-12T13:59:00Z</time>
      </trkpt>
      <trkpt lat="50.01507" lon="2.03937">
        <ele>10.1</ele>
        <time>2022-04-12T13:59:01Z</time>
      </trkpt>
      <trkpt lat="50.01508" lon="2.03936">
        <ele>10.1</ele>
        <time>2022-04-12T13:59:02Z</time>
      </trkpt>
      <trkpt lat="50.01509" lon="2.03934">
        <ele>10.1</ele>
        <time>2022-04-12T13:59:04Z</time>
      </trkpt>
      <trkpt lat="50.0151" lon="2.03932">
        <ele>10.1</ele>
        <time>2022-04-12T13:59:05Z</time>
      </trkpt>
      <trkpt lat="50.0151" lon="2.03931">
        <ele>10.1</ele>
        <time>2022-04-12T13:59:06Z</time>
      </trkpt>
      <trkpt lat="50.01511" lon="2.03929">
        <ele>10.1</ele>
        <time>2022-04-12T13:59:07Z</time>
      </trkpt>
      <trkpt lat="50.01512" lon="2.03928">
        <ele>10.1</ele>
        <time>2022-04-12T13:59:08Z</time>
      </trkpt>
      <trkpt lat="50.01512" lon="2.03926">
        <ele>10.1</ele>
        <time>2022-04-12T13:59:09Z</time>
      </trkpt>
      <trkpt lat="50.01513" lon="2.03925">
        <ele>10.1</ele>
        <time>2022-04-12T13:59:10Z</time>
      </trkpt>
      <trkpt lat="50.01513" lon="2.03924">
        <ele>10.1</ele>
        <time>2022-04-12T13:59:11Z</time>
      </trkpt>
      <trkpt lat="50.01514" lon="2.03923">
        <ele>10.1</ele>
        <time>2022-04-12T13:59:12Z</time>
      </trkpt>
      <trkpt lat="50.01514" lon="2.03921">
        <ele>10.1</ele>
        <time>2022-04-12T13:59:13Z</time>
      </trkpt>
      <trkpt lat="50.01515" lon="2.03919">
        <ele>10.1</ele>
        <time>2022-04-12T13:59:14Z</time>
      </trkpt>
      <trkpt lat="50.01516" lon="2.03918">
        <ele>10.1</ele>
        <time>2022-04-12T13:59:15Z</time>
      </trkpt>
      <trkpt lat="50.01516" lon="2.03916">
        <ele>10.1</ele>
        <time>2022-04-12T13:59:16Z</time>
      </trkpt>
      <trkpt lat="50.01517" lon="2.03914">
        <ele>10.1</ele>
        <time>2022-04-12T13:59:18Z</time>
      </trkpt>
      <trkpt lat="50.01517" lon="2.03913">
        <ele>10.1</ele>
        <time>2022-04-12T13:59:19Z</time>
      </trkpt>
      <trkpt lat="50.01518" lon="2.0391">
        <ele>10.1</ele>
        <time>2022-04-12T13:59:21Z</time>
      </trkpt>
      <trkpt lat="50.01519" lon="2.03908">
        <ele>10.1</ele>
        <time>2022-04-12T13:59:22Z</time>
      </trkpt>
      <trkpt lat="50.01519" lon="2.03907">
        <ele>10.1</ele>
        <time>2022-04-12T13:59:23Z</time>
      </trkpt>
      <trkpt lat="50.01519" lon="2.03905">
        <ele>10.1</ele>
        <time>2022-04-12T13:59:24Z</time>
      </trkpt>
      <trkpt lat="50.0152" lon="2.03902">
        <ele>10.1</ele>
        <time>2022-04-12T13:59:25Z</time>
      </trkpt>
      <trkpt lat="50.0152" lon="2.03901">
        <ele>10.1</ele>
        <time>2022-04-12T13:59:26Z</time>
      </trkpt>
      <trkpt lat="50.0152" lon="2.039">
        <ele>10.1</ele>
        <time>2022-04-12T13:59:27Z</time>
      </trkpt>
      <trkpt lat="50.01521" lon="2.03898">
        <ele>10.1</ele>
        <time>2022-04-12T13:59:28Z</time>
      </trkpt>
      <trkpt lat="50.01521" lon="2.03896">
        <ele>10.1</ele>
        <time>2022-04-12T13:59:29Z</time>
      </trkpt>
      <trkpt lat="50.01522" lon="2.03895">
        <ele>10.1</ele>
        <time>2022-04-12T13:59:30Z</time>
      </trkpt>
      <trkpt lat="50.01523" lon="2.03892">
        <ele>10.1</ele>
        <time>2022-04-12T13:59:31Z</time>
      </trkpt>
      <trkpt lat="50.01523" lon="2.03891">
        <ele>10.1</ele>
        <time>2022-04-12T13:59:33Z</time>
      </trkpt>
      <trkpt lat="50.01523" lon="2.0389">
        <ele>10.1</ele>
        <time>2022-04-12T13:59:34Z</time>
      </trkpt>
      <trkpt lat="50.01524" lon="2.03888">
        <ele>10.1</ele>
        <time>2022-04-12T13:59:35Z</time>
      </trkpt>
      <trkpt lat="50.01525" lon="2.03887">
        <ele>10.1</ele>
        <time>2022-04-12T13:59:36Z</time>
      </trkpt>
      <trkpt lat="50.01525" lon="2.03885">
        <ele>10.1</ele>
        <time>2022-04-12T13:59:37Z</time>
      </trkpt>
      <trkpt lat="50.01526" lon="2.03884">
        <ele>10.1</ele>
        <time>2022-04-12T13:59:38Z</time>
      </trkpt>
      <trkpt lat="50.01526" lon="2.03883">
        <ele>10.1</ele>
        <time>2022-04-12T13:59:39Z</time>
      </trkpt>
      <trkpt lat="50.01527" lon="2.03881">
        <ele>10.2</ele>
        <time>2022-04-12T13:59:40Z</time>
      </trkpt>
      <trkpt lat="50.01528" lon="2.03878">
        <ele>10.2</ele>
        <time>2022-04-12T13:59:41Z</time>
      </trkpt>
      <trkpt lat="50.01528" lon="2.03877">
        <ele>10.2</ele>
        <time>2022-04-12T13:59:42Z</time>
      </trkpt>
      <trkpt lat="50.01529" lon="2.03876">
        <ele>10.2</ele>
        <time>2022-04-12T13:59:43Z</time>
      </trkpt>
      <trkpt lat="50.01529" lon="2.03874">
        <ele>10.2</ele>
        <time>2022-04-12T13:59:44Z</time>
      </trkpt>
      <trkpt lat="50.0153" lon="2.03872">
        <ele>10.2</ele>
        <time>2022-04-12T13:59:45Z</time>
      </trkpt>
      <trkpt lat="50.01531" lon="2.0387">
        <ele>10.2</ele>
        <time>2022-04-12T13:59:47Z</time>
      </trkpt>
      <trkpt lat="50.01531" lon="2.03867">
        <ele>10.2</ele>
        <time>2022-04-12T13:59:48Z</time>
      </trkpt>
      <trkpt lat="50.01532" lon="2.03866">
        <ele>10.2</ele>
        <time>2022-04-12T13:59:49Z</time>
      </trkpt>
      <trkpt lat="50.01532" lon="2.03865">
        <ele>10.2</ele>
        <time>2022-04-12T13:59:50Z</time>
      </trkpt>
      <trkpt lat="50.01533" lon="2.03863">
        <ele>10.2</ele>
        <time>2022-04-12T13:59:52Z</time>
      </trkpt>
      <trkpt lat="50.01533" lon="2.03864">
        <ele>10.2</ele>
        <time>2022-04-12T13:59:53Z</time>
      </trkpt>
      <trkpt lat="50.01533" lon="2.03868">
        <ele>10.2</ele>
        <time>2022-04-12T13:59:55Z</time>
      </trkpt>
      <trkpt lat="50.01532" lon="2.0387">
        <ele>10.2</ele>
        <time>2022-04-12T13:59:56Z</time>
      </trkpt>
      <trkpt lat="50.01532" lon="2.03872">
        <ele>10.2</ele>
        <time>2022-04-12T13:59:57Z</time>
      </trkpt>
      <trkpt lat="50.01531" lon="2.03872">
        <ele>10.2</ele>
        <time>2022-04-12T13:59:58Z</time>
      </trkpt>
      <trkpt lat="50.01531" lon="2.03872">
        <ele>10.2</ele>
        <time>2022-04-12T13:59:59Z</time>
      </trkpt>
      <trkpt lat="50.0153" lon="2.03872">
        <ele>10.2</ele>
        <time>2022-04-12T14:00:00Z</time>
      </trkpt>
      <trkpt lat="50.0153" lon="2.03872">
        <ele>10.2</ele>
        <time>2022-04-12T14:00:01Z</time>
      </trkpt>
      <trkpt lat="50.01531" lon="2.03871">
        <ele>10.2</ele>
        <time>2022-04-12T14:00:02Z</time>
      </trkpt>
      <trkpt lat="50.01531" lon="2.0387">
        <ele>10.2</ele>
        <time>2022-04-12T14:00:03Z</time>
      </trkpt>
      <trkpt lat="50.01532" lon="2.03869">
        <ele>10.2</ele>
        <time>2022-04-12T14:00:04Z</time>
      </trkpt>
      <trkpt lat="50.01532" lon="2.03868">
        <ele>10.2</ele>
        <time>2022-04-12T14:00:06Z</time>
      </trkpt>
      <trkpt lat="50.01533" lon="2.03866">
        <ele>10.2</ele>
        <time>2022-04-12T14:00:07Z</time>
      </trkpt>
      <trkpt lat="50.01533" lon="2.03865">
        <ele>10.2</ele>
        <time>2022-04-12T14:00:08Z</time>
      </trkpt>
      <trkpt lat="50.01534" lon="2.03863">
        <ele>10.2</ele>
        <time>2022-04-12T14:00:09Z</time>
      </trkpt>
      <trkpt lat="50.01535" lon="2.03861">
        <ele>10.2</ele>
        <time>2022-04-12T14:00:11Z</time>
      </trkpt>
      <trkpt lat="50.01536" lon="2.03859">
        <ele>10.2</ele>
        <time>2022-04-12T14:00:12Z</time>
      </trkpt>
      <trkpt lat="50.01536" lon="2.03857">
        <ele>10.3</ele>
        <time>2022-04-12T14:00:13Z</time>
      </trkpt>
      <trkpt lat="50.01537" lon="2.03855">
        <ele>10.3</ele>
        <time>2022-04-12T14:00:14Z</time>
      </trkpt>
      <trkpt lat="50.01537" lon="2.03852">
        <ele>10.3</ele>
        <time>2022-04-12T14:00:15Z</time>
      </trkpt>
      <trkpt lat="50.01538" lon="2.03849">
        <ele>10.3</ele>
        <time>2022-04-12T14:00:16Z</time>
      </trkpt>
      <trkpt lat="50.01538" lon="2.03847">
        <ele>10.3</ele>
        <time>2022-04-12T14:00:17Z</time>
      </trkpt>
      <trkpt lat="50.01538" lon="2.03844">
        <ele>10.3</ele>
        <time>2022-04-12T14:00:18Z</time>
      </trkpt>
      <trkpt lat="50.01538" lon="2.03842">
        <ele>10.3</ele>
        <time>2022-04-12T14:00:19Z</time>
      </trkpt>
      <trkpt lat="50.01539" lon="2.0384">
        <ele>10.3</ele>
        <time>2022-04-12T14:00:20Z</time>
      </trkpt>
      <trkpt lat="50.0154" lon="2.03838">
        <ele>10.3</ele>
        <time>2022-04-12T14:00:21Z</time>
      </trkpt>
      <trkpt lat="50.0154" lon="2.03835">
        <ele>10.3</ele>
        <time>2022-04-12T14:00:23Z</time>
      </trkpt>
      <trkpt lat="50.01541" lon="2.03834">
        <ele>10.3</ele>
        <time>2022-04-12T14:00:24Z</time>
      </trkpt>
      <trkpt lat="50.01541" lon="2.03832">
        <ele>10.3</ele>
        <time>2022-04-12T14:00:25Z</time>
      </trkpt>
      <trkpt lat="50.01542" lon="2.0383">
        <ele>10.3</ele>
        <time>2022-04-12T14:00:26Z</time>
      </trkpt>
      <trkpt lat="50.01541" lon="2.03828">
        <ele>10.3</ele>
        <time>2022-04-12T14:00:27Z</time>
      </trkpt>
      <trkpt lat="50.01541" lon="2.03826">
        <ele>10.3</ele>
        <time>2022-04-12T14:00:28Z</time>
      </trkpt>
      <trkpt lat="50.01542" lon="2.03823">
        <ele>10.3</ele>
        <time>2022-04-12T14:00:29Z</time>
      </trkpt>
      <trkpt lat="50.01542" lon="2.03821">
        <ele>10.3</ele>
        <time>2022-04-12T14:00:30Z</time>
      </trkpt>
      <trkpt lat="50.01543" lon="2.03819">
        <ele>10.3</ele>
        <time>2022-04-12T14:00:31Z</time>
      </trkpt>
      <trkpt lat="50.01543" lon="2.03817">
        <ele>10.3</ele>
        <time>2022-04-12T14:00:32Z</time>
      </trkpt>
      <trkpt lat="50.01544" lon="2.03815">
        <ele>10.3</ele>
        <time>2022-04-12T14:00:33Z</time>
      </trkpt>
      <trkpt lat="50.01545" lon="2.03811">
        <ele>10.3</ele>
        <time>2022-04-12T14:00:34Z</time>
      </trkpt>
      <trkpt lat="50.01545" lon="2.0381">
        <ele>10.3</ele>
        <time>2022-04-12T14:00:36Z</time>
      </trkpt>
      <trkpt lat="50.01546" lon="2.03808">
        <ele>10.3</ele>
        <time>2022-04-12T14:00:37Z</time>
      </trkpt>
      <trkpt lat="50.01546" lon="2.03807">
        <ele>10.3</ele>
        <time>2022-04-12T14:00:38Z</time>
      </trkpt>
      <trkpt lat="50.01547" lon="2.03805">
        <ele>10.3</ele>
        <time>2022-04-12T14:00:39Z</time>
      </trkpt>
      <trkpt lat="50.01548" lon="2.03803">
        <ele>10.4</ele>
        <time>2022-04-12T14:00:40Z</time>
      </trkpt>
      <trkpt lat="50.01548" lon="2.03801">
        <ele>10.4</ele>
        <time>2022-04-12T14:00:41Z</time>
      </trkpt>
      <trkpt lat="50.01549" lon="2.03799">
        <ele>10.4</ele>
        <time>2022-04-12T14:00:42Z</time>
      </trkpt>
      <trkpt lat="50.01549" lon="2.03797">
        <ele>10.4</ele>
        <time>2022-04-12T14:00:43Z</time>
      </trkpt>
      <trkpt lat="50.0155" lon="2.03794">
        <ele>10.4</ele>
        <time>2022-04-12T14:00:44Z</time>
      </trkpt>
      <trkpt lat="50.01551" lon="2.03792">
        <ele>10.4</ele>
        <time>2022-04-12T14:00:46Z</time>
      </trkpt>
      <trkpt lat="50.01551" lon="2.03791">
        <ele>10.4</ele>
        <time>2022-04-12T14:00:47Z</time>
      </trkpt>
      <trkpt lat="50.01552" lon="2.03789">
        <ele>10.4</ele>
        <time>2022-04-12T14:00:48Z</time>
      </trkpt>
      <trkpt lat="50.01552" lon="2.03788">
        <ele>10.4</ele>
        <time>2022-04-12T14:00:49Z</time>
      </trkpt>
      <trkpt lat="50.01553" lon="2.03786">
        <ele>10.4</ele>
        <time>2022-04-12T14:00:50Z</time>
      </trkpt>
      <trkpt lat="50.01554" lon="2.03784">
        <ele>10.4</ele>
        <time>2022-04-12T14:00:51Z</time>
      </trkpt>
      <trkpt lat="50.01555" lon="2.03783">
        <ele>10.4</ele>
        <time>2022-04-12T14:00:52Z</time>
      </trkpt>
      <trkpt lat="50.01556" lon="2.03781">
        <ele>10.4</ele>
        <time>2022-04-12T14:00:53Z</time>
      </trkpt>
      <trkpt lat="50.01557" lon="2.0378">
        <ele>10.4</ele>
        <time>2022-04-12T14:00:54Z</time>
      </trkpt>
      <trkpt lat="50.01558" lon="2.03778">
        <ele>10.4</ele>
        <time>2022-04-12T14:00:55Z</time>
      </trkpt>
      <trkpt lat="50.01559" lon="2.03776">
        <ele>10.4</ele>
        <time>2022-04-12T14:00:57Z</time>
      </trkpt>
      <trkpt lat="50.01559" lon="2.03775">
        <ele>10.4</ele>
        <time>2022-04-12T14:00:58Z</time>
      </trkpt>
      <trkpt lat="50.01561" lon="2.03773">
        <ele>10.4</ele>
        <time>2022-04-12T14:00:59Z</time>
      </trkpt>
      <trkpt lat="50.01561" lon="2.03771">
        <ele>10.4</ele>
        <time>2022-04-12T14:01:00Z</time>
      </trkpt>
      <trkpt lat="50.01562" lon="2.0377">
        <ele>10.3</ele>
        <time>2022-04-12T14:01:01Z</time>
      </trkpt>
      <trkpt lat="50.01564" lon="2.03767">
        <ele>10.3</ele>
        <time>2022-04-12T14:01:03Z</time>
      </trkpt>
      <trkpt lat="50.01564" lon="2.03766">
        <ele>10.3</ele>
        <time>2022-04-12T14:01:04Z</time>
      </trkpt>
      <trkpt lat="50.01565" lon="2.03765">
        <ele>10.3</ele>
        <time>2022-04-12T14:01:05Z</time>
      </trkpt>
      <trkpt lat="50.01566" lon="2.03762">
        <ele>10.3</ele>
        <time>2022-04-12T14:01:06Z</time>
      </trkpt>
      <trkpt lat="50.01566" lon="2.03761">
        <ele>10.3</ele>
        <time>2022-04-12T14:01:07Z</time>
      </trkpt>
      <trkpt lat="50.01567" lon="2.0376">
        <ele>10.3</ele>
        <time>2022-04-12T14:01:08Z</time>
      </trkpt>
      <trkpt lat="50.01567" lon="2.03759">
        <ele>10.3</ele>
        <time>2022-04-12T14:01:09Z</time>
      </trkpt>
      <trkpt lat="50.01568" lon="2.03757">
        <ele>10.3</ele>
        <time>2022-04-12T14:01:10Z</time>
      </trkpt>
      <trkpt lat="50.01569" lon="2.03755">
        <ele>10.3</ele>
        <time>2022-04-12T14:01:12Z</time>
      </trkpt>
      <trkpt lat="50.0157" lon="2.03752">
        <ele>10.3</ele>
        <time>2022-04-12T14:01:13Z</time>
      </trkpt>
      <trkpt lat="50.0157" lon="2.03751">
        <ele>10.3</ele>
        <time>2022-04-12T14:01:14Z</time>
      </trkpt>
      <trkpt lat="50.01571" lon="2.0375">
        <ele>10.3</ele>
        <time>2022-04-12T14:01:15Z</time>
      </trkpt>
      <trkpt lat="50.01571" lon="2.03747">
        <ele>10.3</ele>
        <time>2022-04-12T14:01:16Z</time>
      </trkpt>
      <trkpt lat="50.01571" lon="2.03746">
        <ele>10.3</ele>
        <time>2022-04-12T14:01:17Z</time>
      </trkpt>
      <trkpt lat="50.01572" lon="2.03744">
        <ele>10.3</ele>
        <time>2022-04-12T14:01:18Z</time>
      </trkpt>
      <trkpt lat="50.01572" lon="2.03743">
        <ele>10.3</ele>
        <time>2022-04-12T14:01:19Z</time>
      </trkpt>
      <trkpt lat="50.01572" lon="2.03741">
        <ele>10.3</ele>
        <time>2022-04-12T14:01:21Z</time>
      </trkpt>
      <trkpt lat="50.01573" lon="2.0374">
        <ele>10.3</ele>
        <time>2022-04-12T14:01:22Z</time>
      </trkpt>
      <trkpt lat="50.01573" lon="2.03738">
        <ele>10.3</ele>
        <time>2022-04-12T14:01:23Z</time>
      </trkpt>
      <trkpt lat="50.01574" lon="2.03737">
        <ele>10.3</ele>
        <time>2022-04-12T14:01:24Z</time>
      </trkpt>
      <trkpt lat="50.01574" lon="2.03736">
        <ele>10.3</ele>
        <time>2022-04-12T14:01:25Z</time>
      </trkpt>
      <trkpt lat="50.01574" lon="2.03734">
        <ele>10.3</ele>
        <time>2022-04-12T14:01:26Z</time>
      </trkpt>
      <trkpt lat="50.01575" lon="2.03733">
        <ele>10.3</ele>
        <time>2022-04-12T14:01:27Z</time>
      </trkpt>
      <trkpt lat="50.01576" lon="2.0373">
        <ele>10.3</ele>
        <time>2022-04-12T14:01:29Z</time>
      </trkpt>
      <trkpt lat="50.01577" lon="2.03729">
        <ele>10.3</ele>
        <time>2022-04-12T14:01:30Z</time>
      </trkpt>
      <trkpt lat="50.01578" lon="2.03727">
        <ele>10.2</ele>
        <time>2022-04-12T14:01:31Z</time>
      </trkpt>
      <trkpt lat="50.01578" lon="2.03726">
        <ele>10.2</ele>
        <time>2022-04-12T14:01:32Z</time>
      </trkpt>
      <trkpt lat="50.01579" lon="2.03725">
        <ele>10.2</ele>
        <time>2022-04-12T14:01:33Z</time>
      </trkpt>
      <trkpt lat="50.0158" lon="2.03723">
        <ele>10.2</ele>
        <time>2022-04-12T14:01:34Z</time>
      </trkpt>
      <trkpt lat="50.01581" lon="2.03722">
        <ele>10.2</ele>
        <time>2022-04-12T14:01:35Z</time>
      </trkpt>
      <trkpt lat="50.01582" lon="2.0372">
        <ele>10.2</ele>
        <time>2022-04-12T14:01:36Z</time>
      </trkpt>
      <trkpt lat="50.01583" lon="2.03719">
        <ele>10.2</ele>
        <time>2022-04-12T14:01:38Z</time>
      </trkpt>
      <trkpt lat="50.01584" lon="2.03717">
        <ele>10.2</ele>
        <time>2022-04-12T14:01:39Z</time>
      </trkpt>
      <trkpt lat="50.01585" lon="2.03716">
        <ele>10.2</ele>
        <time>2022-04-12T14:01:40Z</time>
      </trkpt>
      <trkpt lat="50.01586" lon="2.03715">
        <ele>10.2</ele>
        <time>2022-04-12T14:01:41Z</time>
      </trkpt>
      <trkpt lat="50.01587" lon="2.03713">
        <ele>10.2</ele>
        <time>2022-04-12T14:01:42Z</time>
      </trkpt>
      <trkpt lat="50.01588" lon="2.03712">
        <ele>10.2</ele>
        <time>2022-04-12T14:01:43Z</time>
      </trkpt>
      <trkpt lat="50.01589" lon="2.03711">
        <ele>10.2</ele>
        <time>2022-04-12T14:01:44Z</time>
      </trkpt>
      <trkpt lat="50.0159" lon="2.03709">
        <ele>10.2</ele>
        <time>2022-04-12T14:01:45Z</time>
      </trkpt>
      <trkpt lat="50.01591" lon="2.03708">
        <ele>10.2</ele>
        <time>2022-04-12T14:01:46Z</time>
      </trkpt>
      <trkpt lat="50.01591" lon="2.03707">
        <ele>10.2</ele>
        <time>2022-04-12T14:01:47Z</time>
      </trkpt>
      <trkpt lat="50.01592" lon="2.03706">
        <ele>10.2</ele>
        <time>2022-04-12T14:01:48Z</time>
      </trkpt>
      <trkpt lat="50.01593" lon="2.03705">
        <ele>10.2</ele>
        <time>2022-04-12T14:01:50Z</time>
      </trkpt>
      <trkpt lat="50.01594" lon="2.03703">
        <ele>10.2</ele>
        <time>2022-04-12T14:01:51Z</time>
      </trkpt>
      <trkpt lat="50.01595" lon="2.037">
        <ele>10.2</ele>
        <time>2022-04-12T14:01:52Z</time>
      </trkpt>
      <trkpt lat="50.01595" lon="2.03699">
        <ele>10.2</ele>
        <time>2022-04-12T14:01:53Z</time>
      </trkpt>
      <trkpt lat="50.01596" lon="2.03698">
        <ele>10.2</ele>
        <time>2022-04-12T14:01:54Z</time>
      </trkpt>
      <trkpt lat="50.01596" lon="2.03697">
        <ele>10.2</ele>
        <time>2022-04-12T14:01:55Z</time>
      </trkpt>
      <trkpt lat="50.01597" lon="2.03695">
        <ele>10.2</ele>
        <time>2022-04-12T14:01:56Z</time>
      </trkpt>
      <trkpt lat="50.01597" lon="2.03694">
        <ele>10.2</ele>
        <time>2022-04-12T14:01:57Z</time>
      </trkpt>
      <trkpt lat="50.01598" lon="2.03691">
        <ele>10.2</ele>
        <time>2022-04-12T14:01:58Z</time>
      </trkpt>
      <trkpt lat="50.01599" lon="2.03689">
        <ele>10.2</ele>
        <time>2022-04-12T14:01:59Z</time>
      </trkpt>
      <trkpt lat="50.01599" lon="2.03688">
        <ele>10.2</ele>
        <time>2022-04-12T14:02:01Z</time>
      </trkpt>
      <trkpt lat="50.016" lon="2.03687">
        <ele>10.2</ele>
        <time>2022-04-12T14:02:02Z</time>
      </trkpt>
      <trkpt lat="50.016" lon="2.03685">
        <ele>10.2</ele>
        <time>2022-04-12T14:02:03Z</time>
      </trkpt>
      <trkpt lat="50.01601" lon="2.03684">
        <ele>10.2</ele>
        <time>2022-04-12T14:02:04Z</time>
      </trkpt>
      <trkpt lat="50.01602" lon="2.03681">
        <ele>10.2</ele>
        <time>2022-04-12T14:02:05Z</time>
      </trkpt>
      <trkpt lat="50.01602" lon="2.0368">
        <ele>10.2</ele>
        <time>2022-04-12T14:02:06Z</time>
      </trkpt>
      <trkpt lat="50.01602" lon="2.03679">
        <ele>10.2</ele>
        <time>2022-04-12T14:02:07Z</time>
      </trkpt>
      <trkpt lat="50.01602" lon="2.03676">
        <ele>10.2</ele>
        <time>2022-04-12T14:02:08Z</time>
      </trkpt>
      <trkpt lat="50.01602" lon="2.03674">
        <ele>10.2</ele>
        <time>2022-04-12T14:02:09Z</time>
      </trkpt>
      <trkpt lat="50.01602" lon="2.03672">
        <ele>10.2</ele>
        <time>2022-04-12T14:02:10Z</time>
      </trkpt>
      <trkpt lat="50.01602" lon="2.0367">
        <ele>10.2</ele>
        <time>2022-04-12T14:02:11Z</time>
      </trkpt>
      <trkpt lat="50.01602" lon="2.03668">
        <ele>10.2</ele>
        <time>2022-04-12T14:02:13Z</time>
      </trkpt>
      <trkpt lat="50.01603" lon="2.03667">
        <ele>10.2</ele>
        <time>2022-04-12T14:02:14Z</time>
      </trkpt>
      <trkpt lat="50.01603" lon="2.03665">
        <ele>10.2</ele>
        <time>2022-04-12T14:02:15Z</time>
      </trkpt>
      <trkpt lat="50.01604" lon="2.03663">
        <ele>10.2</ele>
        <time>2022-04-12T14:02:16Z</time>
      </trkpt>
      <trkpt lat="50.01604" lon="2.03662">
        <ele>10.2</ele>
        <time>2022-04-12T14:02:17Z</time>
      </trkpt>
      <trkpt lat="50.01605" lon="2.03661">
        <ele>10.2</ele>
        <time>2022-04-12T14:02:18Z</time>
      </trkpt>
      <trkpt lat="50.01606" lon="2.03659">
        <ele>10.2</ele>
        <time>2022-04-12T14:02:19Z</time>
      </trkpt>
      <trkpt lat="50.01606" lon="2.03657">
        <ele>10.2</ele>
        <time>2022-04-12T14:02:20Z</time>
      </trkpt>
      <trkpt lat="50.01607" lon="2.03656">
        <ele>10.2</ele>
        <time>2022-04-12T14:02:21Z</time>
      </trkpt>
      <trkpt lat="50.01607" lon="2.03654">
        <ele>10.2</ele>
        <time>2022-04-12T14:02:23Z</time>
      </trkpt>
      <trkpt lat="50.01608" lon="2.03653">
        <ele>10.2</ele>
        <time>2022-04-12T14:02:24Z</time>
      </trkpt>
      <trkpt lat="50.01609" lon="2.03651">
        <ele>10.2</ele>
        <time>2022-04-12T14:02:25Z</time>
      </trkpt>
      <trkpt lat="50.01609" lon="2.0365">
        <ele>10.2</ele>
        <time>2022-04-12T14:02:26Z</time>
      </trkpt>
      <trkpt lat="50.0161" lon="2.03647">
        <ele>10.2</ele>
        <time>2022-04-12T14:02:27Z</time>
      </trkpt>
      <trkpt lat="50.01611" lon="2.03646">
        <ele>10.2</ele>
        <time>2022-04-12T14:02:28Z</time>
      </trkpt>
      <trkpt lat="50.01611" lon="2.03645">
        <ele>10.2</ele>
        <time>2022-04-12T14:02:29Z</time>
      </trkpt>
      <trkpt lat="50.01612" lon="2.03644">
        <ele>10.2</ele>
        <time>2022-04-12T14:02:30Z</time>
      </trkpt>
      <trkpt lat="50.01612" lon="2.03643">
        <ele>10.2</ele>
        <time>2022-04-12T14:02:31Z</time>
      </trkpt>
      <trkpt lat="50.01613" lon="2.03641">
        <ele>10.2</ele>
        <time>2022-04-12T14:02:32Z</time>
      </trkpt>
      <trkpt lat="50.01614" lon="2.03638">
        <ele>10.2</ele>
        <time>2022-04-12T14:02:33Z</time>
      </trkpt>
      <trkpt lat="50.01614" lon="2.03637">
        <ele>10.2</ele>
        <time>2022-04-12T14:02:34Z</time>
      </trkpt>
      <trkpt lat="50.01615" lon="2.03636">
        <ele>10.2</ele>
        <time>2022-04-12T14:02:35Z</time>
      </trkpt>
      <trkpt lat="50.01616" lon="2.03633">
        <ele>10.2</ele>
        <time>2022-04-12T14:02:37Z</time>
      </trkpt>
      <trkpt lat="50.01616" lon="2.03632">
        <ele>10.2</ele>
        <time>2022-04-12T14:02:38Z</time>
      </trkpt>
      <trkpt lat="50.01617" lon="2.03631">
        <ele>10.2</ele>
        <time>2022-04-12T14:02:39Z</time>
      </trkpt>
      <trkpt lat="50.01618" lon="2.03629">
        <ele>10.2</ele>
        <time>2022-04-12T14:02:40Z</time>
      </trkpt>
      <trkpt lat="50.01618" lon="2.03627">
        <ele>10.2</ele>
        <time>2022-04-12T14:02:41Z</time>
      </trkpt>
      <trkpt lat="50.01619" lon="2.03626">
        <ele>10.2</ele>
        <time>2022-04-12T14:02:42Z</time>
      </trkpt>
      <trkpt lat="50.01619" lon="2.03625">
        <ele>10.2</ele>
        <time>2022-04-12T14:02:43Z</time>
      </trkpt>
      <trkpt lat="50.0162" lon="2.03623">
        <ele>10.2</ele>
        <time>2022-04-12T14:02:44Z</time>
      </trkpt>
      <trkpt lat="50.0162" lon="2.03622">
        <ele>10.2</ele>
        <time>2022-04-12T14:02:45Z</time>
      </trkpt>
      <trkpt lat="50.01621" lon="2.0362">
        <ele>10.2</ele>
        <time>2022-04-12T14:02:46Z</time>
      </trkpt>
      <trkpt lat="50.01621" lon="2.03618">
        <ele>10.2</ele>
        <time>2022-04-12T14:02:47Z</time>
      </trkpt>
      <trkpt lat="50.01621" lon="2.03617">
        <ele>10.2</ele>
        <time>2022-04-12T14:02:49Z</time>
      </trkpt>
      <trkpt lat="50.01622" lon="2.03615">
        <ele>10.2</ele>
        <time>2022-04-12T14:02:50Z</time>
      </trkpt>
      <trkpt lat="50.01622" lon="2.03614">
        <ele>10.2</ele>
        <time>2022-04-12T14:02:51Z</time>
      </trkpt>
      <trkpt lat="50.01623" lon="2.03612">
        <ele>10.2</ele>
        <time>2022-04-12T14:02:52Z</time>
      </trkpt>
      <trkpt lat="50.01623" lon="2.0361">
        <ele>10.2</ele>
        <time>2022-04-12T14:02:53Z</time>
      </trkpt>
      <trkpt lat="50.01624" lon="2.03609">
        <ele>10.2</ele>
        <time>2022-04-12T14:02:54Z</time>
      </trkpt>
      <trkpt lat="50.01624" lon="2.03607">
        <ele>10.2</ele>
        <time>2022-04-12T14:02:55Z</time>
      </trkpt>
      <trkpt lat="50.01624" lon="2.03606">
        <ele>10.2</ele>
        <time>2022-04-12T14:02:56Z</time>
      </trkpt>
      <trkpt lat="50.01624" lon="2.03604">
        <ele>10.2</ele>
        <time>2022-04-12T14:02:57Z</time>
      </trkpt>
      <trkpt lat="50.01624" lon="2.03603">
        <ele>10.2</ele>
        <time>2022-04-12T14:02:58Z</time>
      </trkpt>
      <trkpt lat="50.01624" lon="2.03602">
        <ele>10.2</ele>
        <time>2022-04-12T14:02:59Z</time>
      </trkpt>
      <trkpt lat="50.01624" lon="2.03601">
        <ele>10.2</ele>
        <time>2022-04-12T14:03:00Z</time>
      </trkpt>
      <trkpt lat="50.01624" lon="2.03599">
        <ele>10.2</ele>
        <time>2022-04-12T14:03:02Z</time>
      </trkpt>
      <trkpt lat="50.01625" lon="2.03598">
        <ele>10.2</ele>
        <time>2022-04-12T14:03:03Z</time>
      </trkpt>
      <trkpt lat="50.01626" lon="2.03595">
        <ele>10.2</ele>
        <time>2022-04-12T14:03:04Z</time>
      </trkpt>
      <trkpt lat="50.01626" lon="2.03594">
        <ele>10.2</ele>
        <time>2022-04-12T14:03:05Z</time>
      </trkpt>
      <trkpt lat="50.01627" lon="2.03593">
        <ele>10.2</ele>
        <time>2022-04-12T14:03:06Z</time>
      </trkpt>
      <trkpt lat="50.01627" lon="2.03591">
        <ele>10.2</ele>
        <time>2022-04-12T14:03:07Z</time>
      </trkpt>
      <trkpt lat="50.01628" lon="2.03589">
        <ele>10.2</ele>
        <time>2022-04-12T14:03:08Z</time>
      </trkpt>
      <trkpt lat="50.01628" lon="2.03588">
        <ele>10.2</ele>
        <time>2022-04-12T14:03:09Z</time>
      </trkpt>
      <trkpt lat="50.01629" lon="2.03585">
        <ele>10.2</ele>
        <time>2022-04-12T14:03:10Z</time>
      </trkpt>
      <trkpt lat="50.0163" lon="2.03583">
        <ele>10.2</ele>
        <time>2022-04-12T14:03:12Z</time>
      </trkpt>
      <trkpt lat="50.01631" lon="2.03581">
        <ele>10.2</ele>
        <time>2022-04-12T14:03:13Z</time>
      </trkpt>
      <trkpt lat="50.01631" lon="2.0358">
        <ele>10.2</ele>
        <time>2022-04-12T14:03:15Z</time>
      </trkpt>
      <trkpt lat="50.01632" lon="2.03578">
        <ele>10.2</ele>
        <time>2022-04-12T14:03:16Z</time>
      </trkpt>
      <trkpt lat="50.01632" lon="2.03576">
        <ele>10.2</ele>
        <time>2022-04-12T14:03:17Z</time>
      </trkpt>
      <trkpt lat="50.01633" lon="2.03575">
        <ele>10.2</ele>
        <time>2022-04-12T14:03:18Z</time>
      </trkpt>
      <trkpt lat="50.01634" lon="2.03572">
        <ele>10.2</ele>
        <time>2022-04-12T14:03:19Z</time>
      </trkpt>
      <trkpt lat="50.01634" lon="2.03571">
        <ele>10.2</ele>
        <time>2022-04-12T14:03:20Z</time>
      </trkpt>
      <trkpt lat="50.01635" lon="2.03569">
        <ele>10.2</ele>
        <time>2022-04-12T14:03:21Z</time>
      </trkpt>
      <trkpt lat="50.01635" lon="2.03568">
        <ele>10.2</ele>
        <time>2022-04-12T14:03:22Z</time>
      </trkpt>
      <trkpt lat="50.01636" lon="2.03566">
        <ele>10.2</ele>
        <time>2022-04-12T14:03:23Z</time>
      </trkpt>
      <trkpt lat="50.01637" lon="2.03564">
        <ele>10.2</ele>
        <time>2022-04-12T14:03:25Z</time>
      </trkpt>
      <trkpt lat="50.01638" lon="2.03562">
        <ele>10.2</ele>
        <time>2022-04-12T14:03:26Z</time>
      </trkpt>
      <trkpt lat="50.01638" lon="2.03561">
        <ele>10.2</ele>
        <time>2022-04-12T14:03:27Z</time>
      </trkpt>
      <trkpt lat="50.01639" lon="2.0356">
        <ele>10.2</ele>
        <time>2022-04-12T14:03:28Z</time>
      </trkpt>
      <trkpt lat="50.0164" lon="2.03557">
        <ele>10.2</ele>
        <time>2022-04-12T14:03:29Z</time>
      </trkpt>
      <trkpt lat="50.01641" lon="2.03556">
        <ele>10.2</ele>
        <time>2022-04-12T14:03:30Z</time>
      </trkpt>
      <trkpt lat="50.01641" lon="2.03555">
        <ele>10.2</ele>
        <time>2022-04-12T14:03:31Z</time>
      </trkpt>
      <trkpt lat="50.01643" lon="2.03553">
        <ele>10.2</ele>
        <time>2022-04-12T14:03:32Z</time>
      </trkpt>
      <trkpt lat="50.01643" lon="2.03552">
        <ele>10.2</ele>
        <time>2022-04-12T14:03:33Z</time>
      </trkpt>
      <trkpt lat="50.01644" lon="2.03551">
        <ele>10.2</ele>
        <time>2022-04-12T14:03:34Z</time>
      </trkpt>
      <trkpt lat="50.01645" lon="2.03549">
        <ele>10.2</ele>
        <time>2022-04-12T14:03:35Z</time>
      </trkpt>
      <trkpt lat="50.01645" lon="2.03547">
        <ele>10.2</ele>
        <time>2022-04-12T14:03:37Z</time>
      </trkpt>
      <trkpt lat="50.01646" lon="2.03546">
        <ele>10.2</ele>
        <time>2022-04-12T14:03:38Z</time>
      </trkpt>
      <trkpt lat="50.01647" lon="2.03544">
        <ele>10.2</ele>
        <time>2022-04-12T14:03:39Z</time>
      </trkpt>
      <trkpt lat="50.01648" lon="2.03542">
        <ele>10.2</ele>
        <time>2022-04-12T14:03:40Z</time>
      </trkpt>
      <trkpt lat="50.01648" lon="2.0354">
        <ele>10.2</ele>
        <time>2022-04-12T14:03:41Z</time>
      </trkpt>
      <trkpt lat="50.0165" lon="2.03537">
        <ele>10.2</ele>
        <time>2022-04-12T14:03:42Z</time>
      </trkpt>
      <trkpt lat="50.0165" lon="2.03536">
        <ele>10.2</ele>
        <time>2022-04-12T14:03:43Z</time>
      </trkpt>
      <trkpt lat="50.01651" lon="2.03535">
        <ele>10.2</ele>
        <time>2022-04-12T14:03:44Z</time>
      </trkpt>
      <trkpt lat="50.01651" lon="2.03533">
        <ele>10.2</ele>
        <time>2022-04-12T14:03:45Z</time>
      </trkpt>
      <trkpt lat="50.01652" lon="2.03532">
        <ele>10.2</ele>
        <time>2022-04-12T14:03:47Z</time>
      </trkpt>
      <trkpt lat="50.01653" lon="2.0353">
        <ele>10.2</ele>
        <time>2022-04-12T14:03:48Z</time>
      </trkpt>
      <trkpt lat="50.01654" lon="2.03529">
        <ele>10.2</ele>
        <time>2022-04-12T14:03:49Z</time>
      </trkpt>
      <trkpt lat="50.01655" lon="2.03528">
        <ele>10.2</ele>
        <time>2022-04-12T14:03:50Z</time>
      </trkpt>
      <trkpt lat="50.01655" lon="2.03528">
        <ele>10.2</ele>
        <time>2022-04-12T14:03:51Z</time>
      </trkpt>
      <trkpt lat="50.01655" lon="2.03529">
        <ele>10.2</ele>
        <time>2022-04-12T14:03:52Z</time>
      </trkpt>
      <trkpt lat="50.01655" lon="2.0353">
        <ele>10.2</ele>
        <time>2022-04-12T14:03:53Z</time>
      </trkpt>
      <trkpt lat="50.01655" lon="2.0353">
        <ele>10.2</ele>
        <time>2022-04-12T14:03:54Z</time>
      </trkpt>
      <trkpt lat="50.01655" lon="2.0353">
        <ele>10.2</ele>
        <time>2022-04-12T14:03:55Z</time>
      </trkpt>
      <trkpt lat="50.01655" lon="2.0353">
        <ele>10.2</ele>
        <time>2022-04-12T14:03:56Z</time>
      </trkpt>
      <trkpt lat="50.01655" lon="2.03529">
        <ele>10.2</ele>
        <time>2022-04-12T14:03:57Z</time>
      </trkpt>
      <trkpt lat="50.01655" lon="2.03529">
        <ele>10.2</ele>
        <time>2022-04-12T14:03:58Z</time>
      </trkpt>
      <trkpt lat="50.01655" lon="2.03528">
        <ele>10.2</ele>
        <time>2022-04-12T14:04:00Z</time>
      </trkpt>
      <trkpt lat="50.01655" lon="2.03527">
        <ele>10.2</ele>
        <time>2022-04-12T14:04:01Z</time>
      </trkpt>
      <trkpt lat="50.01655" lon="2.03526">
        <ele>10.2</ele>
        <time>2022-04-12T14:04:02Z</time>
      </trkpt>
      <trkpt lat="50.01655" lon="2.03526">
        <ele>10.2</ele>
        <time>2022-04-12T14:04:03Z</time>
      </trkpt>
      <trkpt lat="50.01654" lon="2.03525">
        <ele>10.2</ele>
        <time>2022-04-12T14:04:04Z</time>
      </trkpt>
      <trkpt lat="50.01655" lon="2.03524">
        <ele>10.2</ele>
        <time>2022-04-12T14:04:05Z</time>
      </trkpt>
      <trkpt lat="50.01655" lon="2.03524">
        <ele>10.2</ele>
        <time>2022-04-12T14:04:06Z</time>
      </trkpt>
      <trkpt lat="50.01656" lon="2.03523">
        <ele>10.2</ele>
        <time>2022-04-12T14:04:08Z</time>
      </trkpt>
      <trkpt lat="50.01656" lon="2.03522">
        <ele>10.2</ele>
        <time>2022-04-12T14:04:09Z</time>
      </trkpt>
      <trkpt lat="50.01657" lon="2.0352">
        <ele>10.2</ele>
        <time>2022-04-12T14:04:10Z</time>
      </trkpt>
      <trkpt lat="50.01658" lon="2.03519">
        <ele>10.2</ele>
        <time>2022-04-12T14:04:11Z</time>
      </trkpt>
      <trkpt lat="50.01659" lon="2.03516">
        <ele>10.2</ele>
        <time>2022-04-12T14:04:12Z</time>
      </trkpt>
      <trkpt lat="50.0166" lon="2.03513">
        <ele>10.2</ele>
        <time>2022-04-12T14:04:13Z</time>
      </trkpt>
      <trkpt lat="50.01661" lon="2.03512">
        <ele>10.2</ele>
        <time>2022-04-12T14:04:14Z</time>
      </trkpt>
      <trkpt lat="50.01662" lon="2.03509">
        <ele>10.2</ele>
        <time>2022-04-12T14:04:15Z</time>
      </trkpt>
      <trkpt lat="50.01663" lon="2.03507">
        <ele>10.2</ele>
        <time>2022-04-12T14:04:16Z</time>
      </trkpt>
      <trkpt lat="50.01663" lon="2.03505">
        <ele>10.2</ele>
        <time>2022-04-12T14:04:18Z</time>
      </trkpt>
      <trkpt lat="50.01664" lon="2.03503">
        <ele>10.2</ele>
        <time>2022-04-12T14:04:19Z</time>
      </trkpt>
      <trkpt lat="50.01665" lon="2.03501">
        <ele>10.2</ele>
        <time>2022-04-12T14:04:20Z</time>
      </trkpt>
      <trkpt lat="50.01666" lon="2.03499">
        <ele>10.2</ele>
        <time>2022-04-12T14:04:21Z</time>
      </trkpt>
      <trkpt lat="50.01667" lon="2.03496">
        <ele>10.2</ele>
        <time>2022-04-12T14:04:22Z</time>
      </trkpt>
      <trkpt lat="50.01667" lon="2.03495">
        <ele>10.2</ele>
        <time>2022-04-12T14:04:23Z</time>
      </trkpt>
      <trkpt lat="50.01668" lon="2.03494">
        <ele>10.2</ele>
        <time>2022-04-12T14:04:24Z</time>
      </trkpt>
      <trkpt lat="50.01668" lon="2.03492">
        <ele>10.2</ele>
        <time>2022-04-12T14:04:25Z</time>
      </trkpt>
      <trkpt lat="50.01669" lon="2.0349">
        <ele>10.2</ele>
        <time>2022-04-12T14:04:26Z</time>
      </trkpt>
      <trkpt lat="50.01669" lon="2.03488">
        <ele>10.2</ele>
        <time>2022-04-12T14:04:27Z</time>
      </trkpt>
      <trkpt lat="50.0167" lon="2.03486">
        <ele>10.2</ele>
        <time>2022-04-12T14:04:28Z</time>
      </trkpt>
      <trkpt lat="50.0167" lon="2.03485">
        <ele>10.2</ele>
        <time>2022-04-12T14:04:30Z</time>
      </trkpt>
      <trkpt lat="50.01671" lon="2.03482">
        <ele>10.2</ele>
        <time>2022-04-12T14:04:31Z</time>
      </trkpt>
      <trkpt lat="50.01672" lon="2.03481">
        <ele>10.2</ele>
        <time>2022-04-12T14:04:32Z</time>
      </trkpt>
      <trkpt lat="50.01672" lon="2.0348">
        <ele>10.2</ele>
        <time>2022-04-12T14:04:33Z</time>
      </trkpt>
      <trkpt lat="50.01672" lon="2.03478">
        <ele>10.2</ele>
        <time>2022-04-12T14:04:34Z</time>
      </trkpt>
      <trkpt lat="50.01673" lon="2.03477">
        <ele>10.2</ele>
        <time>2022-04-12T14:04:35Z</time>
      </trkpt>
      <trkpt lat="50.01673" lon="2.03475">
        <ele>10.2</ele>
        <time>2022-04-12T14:04:36Z</time>
      </trkpt>
      <trkpt lat="50.01674" lon="2.03472">
        <ele>10.2</ele>
        <time>2022-04-12T14:04:37Z</time>
      </trkpt>
      <trkpt lat="50.01674" lon="2.03471">
        <ele>10.2</ele>
        <time>2022-04-12T14:04:38Z</time>
      </trkpt>
      <trkpt lat="50.01674" lon="2.0347">
        <ele>10.2</ele>
        <time>2022-04-12T14:04:39Z</time>
      </trkpt>
      <trkpt lat="50.01675" lon="2.03468">
        <ele>10.2</ele>
        <time>2022-04-12T14:04:40Z</time>
      </trkpt>
      <trkpt lat="50.01675" lon="2.03466">
        <ele>10.2</ele>
        <time>2022-04-12T14:04:41Z</time>
      </trkpt>
      <trkpt lat="50.01676" lon="2.03465">
        <ele>10.2</ele>
        <time>2022-04-12T14:04:43Z</time>
      </trkpt>
      <trkpt lat="50.01676" lon="2.03464">
        <ele>10.2</ele>
        <time>2022-04-12T14:04:44Z</time>
      </trkpt>
      <trkpt lat="50.01677" lon="2.03462">
        <ele>10.2</ele>
        <time>2022-04-12T14:04:45Z</time>
      </trkpt>
      <trkpt lat="50.01677" lon="2.03461">
        <ele>10.2</ele>
        <time>2022-04-12T14:04:46Z</time>
      </trkpt>
      <trkpt lat="50.01677" lon="2.0346">
        <ele>10.2</ele>
        <time>2022-04-12T14:04:47Z</time>
      </trkpt>
      <trkpt lat="50.01677" lon="2.03459">
        <ele>10.2</ele>
        <time>2022-04-12T14:04:48Z</time>
      </trkpt>
      <trkpt lat="50.01677" lon="2.03457">
        <ele>10.2</ele>
        <time>2022-04-12T14:04:49Z</time>
      </trkpt>
      <trkpt lat="50.01677" lon="2.03456">
        <ele>10.2</ele>
        <time>2022-04-12T14:04:50Z</time>
      </trkpt>
      <trkpt lat="50.01678" lon="2.03454">
        <ele>10.2</ele>
        <time>2022-04-12T14:04:51Z</time>
      </trkpt>
      <trkpt lat="50.01678" lon="2.03453">
        <ele>10.2</ele>
        <time>2022-04-12T14:04:52Z</time>
      </trkpt>
      <trkpt lat="50.01679" lon="2.03452">
        <ele>10.2</ele>
        <time>2022-04-12T14:04:53Z</time>
      </trkpt>
      <trkpt lat="50.01679" lon="2.0345">
        <ele>10.2</ele>
        <time>2022-04-12T14:04:54Z</time>
      </trkpt>
      <trkpt lat="50.0168" lon="2.03449">
        <ele>10.2</ele>
        <time>2022-04-12T14:04:55Z</time>
      </trkpt>
      <trkpt lat="50.0168" lon="2.03447">
        <ele>10.2</ele>
        <time>2022-04-12T14:04:56Z</time>
      </trkpt>
      <trkpt lat="50.01681" lon="2.03446">
        <ele>10.2</ele>
        <time>2022-04-12T14:04:57Z</time>
      </trkpt>
      <trkpt lat="50.01682" lon="2.03444">
        <ele>10.2</ele>
        <time>2022-04-12T14:04:58Z</time>
      </trkpt>
      <trkpt lat="50.01682" lon="2.03442">
        <ele>10.2</ele>
        <time>2022-04-12T14:05:00Z</time>
      </trkpt>
      <trkpt lat="50.01683" lon="2.03441">
        <ele>10.2</ele>
        <time>2022-04-12T14:05:01Z</time>
      </trkpt>
      <trkpt lat="50.01683" lon="2.03439">
        <ele>10.2</ele>
        <time>2022-04-12T14:05:02Z</time>
      </trkpt>
      <trkpt lat="50.01684" lon="2.03437">
        <ele>10.2</ele>
        <time>2022-04-12T14:05:03Z</time>
      </trkpt>
      <trkpt lat="50.01684" lon="2.03436">
        <ele>10.2</ele>
        <time>2022-04-12T14:05:04Z</time>
      </trkpt>
      <trkpt lat="50.01684" lon="2.03434">
        <ele>10.2</ele>
        <time>2022-04-12T14:05:05Z</time>
      </trkpt>
      <trkpt lat="50.01684" lon="2.03433">
        <ele>10.2</ele>
        <time>2022-04-12T14:05:06Z</time>
      </trkpt>
      <trkpt lat="50.01685" lon="2.03431">
        <ele>10.2</ele>
        <time>2022-04-12T14:05:07Z</time>
      </trkpt>
      <trkpt lat="50.01685" lon="2.03429">
        <ele>10.2</ele>
        <time>2022-04-12T14:05:09Z</time>
      </trkpt>
      <trkpt lat="50.01686" lon="2.03428">
        <ele>10.2</ele>
        <time>2022-04-12T14:05:10Z</time>
      </trkpt>
      <trkpt lat="50.01686" lon="2.03426">
        <ele>10.2</ele>
        <time>2022-04-12T14:05:11Z</time>
      </trkpt>
      <trkpt lat="50.01686" lon="2.03425">
        <ele>10.2</ele>
        <time>2022-04-12T14:05:12Z</time>
      </trkpt>
      <trkpt lat="50.01687" lon="2.03423">
        <ele>10.2</ele>
        <time>2022-04-12T14:05:13Z</time>
      </trkpt>
      <trkpt lat="50.01687" lon="2.03422">
        <ele>10.2</ele>
        <time>2022-04-12T14:05:15Z</time>
      </trkpt>
      <trkpt lat="50.01687" lon="2.0342">
        <ele>10.2</ele>
        <time>2022-04-12T14:05:16Z</time>
      </trkpt>
      <trkpt lat="50.01688" lon="2.03419">
        <ele>10.2</ele>
        <time>2022-04-12T14:05:17Z</time>
      </trkpt>
      <trkpt lat="50.01689" lon="2.03417">
        <ele>10.2</ele>
        <time>2022-04-12T14:05:18Z</time>
      </trkpt>
      <trkpt lat="50.01689" lon="2.03416">
        <ele>10.2</ele>
        <time>2022-04-12T14:05:19Z</time>
      </trkpt>
      <trkpt lat="50.0169" lon="2.03415">
        <ele>10.2</ele>
        <time>2022-04-12T14:05:20Z</time>
      </trkpt>
      <trkpt lat="50.0169" lon="2.03414">
        <ele>10.2</ele>
        <time>2022-04-12T14:05:21Z</time>
      </trkpt>
      <trkpt lat="50.01691" lon="2.03412">
        <ele>10.2</ele>
        <time>2022-04-12T14:05:22Z</time>
      </trkpt>
      <trkpt lat="50.01691" lon="2.03411">
        <ele>10.2</ele>
        <time>2022-04-12T14:05:23Z</time>
      </trkpt>
      <trkpt lat="50.01692" lon="2.0341">
        <ele>10.2</ele>
        <time>2022-04-12T14:05:25Z</time>
      </trkpt>
      <trkpt lat="50.01692" lon="2.03408">
        <ele>10.2</ele>
        <time>2022-04-12T14:05:26Z</time>
      </trkpt>
      <trkpt lat="50.01693" lon="2.03407">
        <ele>10.2</ele>
        <time>2022-04-12T14:05:27Z</time>
      </trkpt>
      <trkpt lat="50.01693" lon="2.03407">
        <ele>10.2</ele>
        <time>2022-04-12T14:05:28Z</time>
      </trkpt>
      <trkpt lat="50.01693" lon="2.03408">
        <ele>10.2</ele>
        <time>2022-04-12T14:05:29Z</time>
      </trkpt>
      <trkpt lat="50.01693" lon="2.03411">
        <ele>10.2</ele>
        <time>2022-04-12T14:05:31Z</time>
      </trkpt>
      <trkpt lat="50.01693" lon="2.03413">
        <ele>10.2</ele>
        <time>2022-04-12T14:05:33Z</time>
      </trkpt>
      <trkpt lat="50.01693" lon="2.03415">
        <ele>10.2</ele>
        <time>2022-04-12T14:05:34Z</time>
      </trkpt>
      <trkpt lat="50.01693" lon="2.03416">
        <ele>10.2</ele>
        <time>2022-04-12T14:05:35Z</time>
      </trkpt>
      <trkpt lat="50.01694" lon="2.03416">
        <ele>10.2</ele>
        <time>2022-04-12T14:05:36Z</time>
      </trkpt>
      <trkpt lat="50.01694" lon="2.03417">
        <ele>10.2</ele>
        <time>2022-04-12T14:05:37Z</time>
      </trkpt>
      <trkpt lat="50.01694" lon="2.03418">
        <ele>10.2</ele>
        <time>2022-04-12T14:05:38Z</time>
      </trkpt>
      <trkpt lat="50.01693" lon="2.03418">
        <ele>10.2</ele>
        <time>2022-04-12T14:05:40Z</time>
      </trkpt>
      <trkpt lat="50.01693" lon="2.03418">
        <ele>10.2</ele>
        <time>2022-04-12T14:05:41Z</time>
      </trkpt>
      <trkpt lat="50.01693" lon="2.03418">
        <ele>10.2</ele>
        <time>2022-04-12T14:05:42Z</time>
      </trkpt>
      <trkpt lat="50.01693" lon="2.03418">
        <ele>10.2</ele>
        <time>2022-04-12T14:05:43Z</time>
      </trkpt>
      <trkpt lat="50.01694" lon="2.03418">
        <ele>10.2</ele>
        <time>2022-04-12T14:05:44Z</time>
      </trkpt>
      <trkpt lat="50.01694" lon="2.03417">
        <ele>10.2</ele>
        <time>2022-04-12T14:05:45Z</time>
      </trkpt>
      <trkpt lat="50.01694" lon="2.03417">
        <ele>10.2</ele>
        <time>2022-04-12T14:05:46Z</time>
      </trkpt>
      <trkpt lat="50.01694" lon="2.03417">
        <ele>10.2</ele>
        <time>2022-04-12T14:05:47Z</time>
      </trkpt>
      <trkpt lat="50.01694" lon="2.03417">
        <ele>10.2</ele>
        <time>2022-04-12T14:05:48Z</time>
      </trkpt>
      <trkpt lat="50.01694" lon="2.03417">
        <ele>10.2</ele>
        <time>2022-04-12T14:05:49Z</time>
      </trkpt>
      <trkpt lat="50.01694" lon="2.03416">
        <ele>10.2</ele>
        <time>2022-04-12T14:05:50Z</time>
      </trkpt>
      <trkpt lat="50.01694" lon="2.03416">
        <ele>10.2</ele>
        <time>2022-04-12T14:05:51Z</time>
      </trkpt>
      <trkpt lat="50.01694" lon="2.03416">
        <ele>10.2</ele>
        <time>2022-04-12T14:05:52Z</time>
      </trkpt>
      <trkpt lat="50.01694" lon="2.03416">
        <ele>10.2</ele>
        <time>2022-04-12T14:05:53Z</time>
      </trkpt>
      <trkpt lat="50.01694" lon="2.03416">
        <ele>10.2</ele>
        <time>2022-04-12T14:05:54Z</time>
      </trkpt>
      <trkpt lat="50.01694" lon="2.03416">
        <ele>10.2</ele>
        <time>2022-04-12T14:05:55Z</time>
      </trkpt>
      <trkpt lat="50.01694" lon="2.03415">
        <ele>10.2</ele>
        <time>2022-04-12T14:05:56Z</time>
      </trkpt>
      <trkpt lat="50.01694" lon="2.03415">
        <ele>10.2</ele>
        <time>2022-04-12T14:05:57Z</time>
      </trkpt>
      <trkpt lat="50.01694" lon="2.03415">
        <ele>10.2</ele>
        <time>2022-04-12T14:05:58Z</time>
      </trkpt>
      <trkpt lat="50.01694" lon="2.03415">
        <ele>10.2</ele>
        <time>2022-04-12T14:05:59Z</time>
      </trkpt>
      <trkpt lat="50.01694" lon="2.03415">
        <ele>10.2</ele>
        <time>2022-04-12T14:06:00Z</time>
      </trkpt>
      <trkpt lat="50.01694" lon="2.03414">
        <ele>10.2</ele>
        <time>2022-04-12T14:06:01Z</time>
      </trkpt>
      <trkpt lat="50.01694" lon="2.03414">
        <ele>10.2</ele>
        <time>2022-04-12T14:06:02Z</time>
      </trkpt>
      <trkpt lat="50.01694" lon="2.03414">
        <ele>10.2</ele>
        <time>2022-04-12T14:06:03Z</time>
      </trkpt>
      <trkpt lat="50.01694" lon="2.03414">
        <ele>10.2</ele>
        <time>2022-04-12T14:06:04Z</time>
      </trkpt>
      <trkpt lat="50.01694" lon="2.03414">
        <ele>10.2</ele>
        <time>2022-04-12T14:06:05Z</time>
      </trkpt>
      <trkpt lat="50.01694" lon="2.03413">
        <ele>10.2</ele>
        <time>2022-04-12T14:06:06Z</time>
      </trkpt>
      <trkpt lat="50.01694" lon="2.03413">
        <ele>10.2</ele>
        <time>2022-04-12T14:06:07Z</time>
      </trkpt>
      <trkpt lat="50.01694" lon="2.03413">
        <ele>10.2</ele>
        <time>2022-04-12T14:06:08Z</time>
      </trkpt>
      <trkpt lat="50.01695" lon="2.03413">
        <ele>10.2</ele>
        <time>2022-04-12T14:06:09Z</time>
      </trkpt>
      <trkpt lat="50.01695" lon="2.03413">
        <ele>10.2</ele>
        <time>2022-04-12T14:06:10Z</time>
      </trkpt>
      <trkpt lat="50.01695" lon="2.03412">
        <ele>10.2</ele>
        <time>2022-04-12T14:06:12Z</time>
      </trkpt>
      <trkpt lat="50.01695" lon="2.03412">
        <ele>10.2</ele>
        <time>2022-04-12T14:06:13Z</time>
      </trkpt>
      <trkpt lat="50.01695" lon="2.0341">
        <ele>10.2</ele>
        <time>2022-04-12T14:06:14Z</time>
      </trkpt>
      <trkpt lat="50.01695" lon="2.03408">
        <ele>10.2</ele>
        <time>2022-04-12T14:06:15Z</time>
      </trkpt>
      <trkpt lat="50.01696" lon="2.03406">
        <ele>10.2</ele>
        <time>2022-04-12T14:06:16Z</time>
      </trkpt>
      <trkpt lat="50.01696" lon="2.03404">
        <ele>10.2</ele>
        <time>2022-04-12T14:06:18Z</time>
      </trkpt>
      <trkpt lat="50.01696" lon="2.03401">
        <ele>10.2</ele>
        <time>2022-04-12T14:06:19Z</time>
      </trkpt>
      <trkpt lat="50.01696" lon="2.03399">
        <ele>10.2</ele>
        <time>2022-04-12T14:06:20Z</time>
      </trkpt>
      <trkpt lat="50.01697" lon="2.03398">
        <ele>10.2</ele>
        <time>2022-04-12T14:06:21Z</time>
      </trkpt>
      <trkpt lat="50.01697" lon="2.03395">
        <ele>10.2</ele>
        <time>2022-04-12T14:06:22Z</time>
      </trkpt>
      <trkpt lat="50.01697" lon="2.03393">
        <ele>10.2</ele>
        <time>2022-04-12T14:06:23Z</time>
      </trkpt>
      <trkpt lat="50.01697" lon="2.03391">
        <ele>10.2</ele>
        <time>2022-04-12T14:06:25Z</time>
      </trkpt>
      <trkpt lat="50.01698" lon="2.03389">
        <ele>10.3</ele>
        <time>2022-04-12T14:06:26Z</time>
      </trkpt>
      <trkpt lat="50.01698" lon="2.03387">
        <ele>10.3</ele>
        <time>2022-04-12T14:06:27Z</time>
      </trkpt>
      <trkpt lat="50.01699" lon="2.03384">
        <ele>10.3</ele>
        <time>2022-04-12T14:06:28Z</time>
      </trkpt>
      <trkpt lat="50.01699" lon="2.03382">
        <ele>10.3</ele>
        <time>2022-04-12T14:06:29Z</time>
      </trkpt>
      <trkpt lat="50.01699" lon="2.03381">
        <ele>10.3</ele>
        <time>2022-04-12T14:06:30Z</time>
      </trkpt>
      <trkpt lat="50.017" lon="2.03378">
        <ele>10.3</ele>
        <time>2022-04-12T14:06:31Z</time>
      </trkpt>
      <trkpt lat="50.017" lon="2.03377">
        <ele>10.3</ele>
        <time>2022-04-12T14:06:32Z</time>
      </trkpt>
      <trkpt lat="50.017" lon="2.03376">
        <ele>10.3</ele>
        <time>2022-04-12T14:06:33Z</time>
      </trkpt>
      <trkpt lat="50.01701" lon="2.03374">
        <ele>10.3</ele>
        <time>2022-04-12T14:06:34Z</time>
      </trkpt>
      <trkpt lat="50.01702" lon="2.03372">
        <ele>10.3</ele>
        <time>2022-04-12T14:06:35Z</time>
      </trkpt>
      <trkpt lat="50.01702" lon="2.0337">
        <ele>10.3</ele>
        <time>2022-04-12T14:06:37Z</time>
      </trkpt>
      <trkpt lat="50.01703" lon="2.03369">
        <ele>10.3</ele>
        <time>2022-04-12T14:06:38Z</time>
      </trkpt>
      <trkpt lat="50.01704" lon="2.03367">
        <ele>10.3</ele>
        <time>2022-04-12T14:06:39Z</time>
      </trkpt>
      <trkpt lat="50.01705" lon="2.03364">
        <ele>10.3</ele>
        <time>2022-04-12T14:06:40Z</time>
      </trkpt>
      <trkpt lat="50.01706" lon="2.03363">
        <ele>10.3</ele>
        <time>2022-04-12T14:06:41Z</time>
      </trkpt>
      <trkpt lat="50.01706" lon="2.03362">
        <ele>10.3</ele>
        <time>2022-04-12T14:06:42Z</time>
      </trkpt>
      <trkpt lat="50.01708" lon="2.03359">
        <ele>10.3</ele>
        <time>2022-04-12T14:06:43Z</time>
      </trkpt>
      <trkpt lat="50.01708" lon="2.03358">
        <ele>10.3</ele>
        <time>2022-04-12T14:06:45Z</time>
      </trkpt>
      <trkpt lat="50.01709" lon="2.03357">
        <ele>10.3</ele>
        <time>2022-04-12T14:06:46Z</time>
      </trkpt>
      <trkpt lat="50.0171" lon="2.03355">
        <ele>10.3</ele>
        <time>2022-04-12T14:06:47Z</time>
      </trkpt>
      <trkpt lat="50.0171" lon="2.03354">
        <ele>10.3</ele>
        <time>2022-04-12T14:06:48Z</time>
      </trkpt>
      <trkpt lat="50.01711" lon="2.03353">
        <ele>10.3</ele>
        <time>2022-04-12T14:06:49Z</time>
      </trkpt>
      <trkpt lat="50.01712" lon="2.03351">
        <ele>10.3</ele>
        <time>2022-04-12T14:06:50Z</time>
      </trkpt>
      <trkpt lat="50.01712" lon="2.0335">
        <ele>10.3</ele>
        <time>2022-04-12T14:06:51Z</time>
      </trkpt>
      <trkpt lat="50.01713" lon="2.03349">
        <ele>10.3</ele>
        <time>2022-04-12T14:06:53Z</time>
      </trkpt>
      <trkpt lat="50.01714" lon="2.03347">
        <ele>10.3</ele>
        <time>2022-04-12T14:06:54Z</time>
      </trkpt>
      <trkpt lat="50.01715" lon="2.03346">
        <ele>10.3</ele>
        <time>2022-04-12T14:06:55Z</time>
      </trkpt>
      <trkpt lat="50.01716" lon="2.03343">
        <ele>10.3</ele>
        <time>2022-04-12T14:06:57Z</time>
      </trkpt>
      <trkpt lat="50.01717" lon="2.03341">
        <ele>10.3</ele>
        <time>2022-04-12T14:06:58Z</time>
      </trkpt>
      <trkpt lat="50.01717" lon="2.0334">
        <ele>10.3</ele>
        <time>2022-04-12T14:06:59Z</time>
      </trkpt>
      <trkpt lat="50.01718" lon="2.03339">
        <ele>10.3</ele>
        <time>2022-04-12T14:07:00Z</time>
      </trkpt>
      <trkpt lat="50.01718" lon="2.03336">
        <ele>10.3</ele>
        <time>2022-04-12T14:07:01Z</time>
      </trkpt>
      <trkpt lat="50.01719" lon="2.03335">
        <ele>10.3</ele>
        <time>2022-04-12T14:07:02Z</time>
      </trkpt>
      <trkpt lat="50.01719" lon="2.03334">
        <ele>10.3</ele>
        <time>2022-04-12T14:07:03Z</time>
      </trkpt>
      <trkpt lat="50.0172" lon="2.03331">
        <ele>10.3</ele>
        <time>2022-04-12T14:07:04Z</time>
      </trkpt>
      <trkpt lat="50.01721" lon="2.0333">
        <ele>10.3</ele>
        <time>2022-04-12T14:07:06Z</time>
      </trkpt>
      <trkpt lat="50.01721" lon="2.03329">
        <ele>10.3</ele>
        <time>2022-04-12T14:07:07Z</time>
      </trkpt>
      <trkpt lat="50.01722" lon="2.03326">
        <ele>10.3</ele>
        <time>2022-04-12T14:07:08Z</time>
      </trkpt>
      <trkpt lat="50.01723" lon="2.03325">
        <ele>10.3</ele>
        <time>2022-04-12T14:07:09Z</time>
      </trkpt>
      <trkpt lat="50.01723" lon="2.03324">
        <ele>10.3</ele>
        <time>2022-04-12T14:07:10Z</time>
      </trkpt>
      <trkpt lat="50.01724" lon="2.03321">
        <ele>10.3</ele>
        <time>2022-04-12T14:07:11Z</time>
      </trkpt>
      <trkpt lat="50.01725" lon="2.0332">
        <ele>10.3</ele>
        <time>2022-04-12T14:07:12Z</time>
      </trkpt>
      <trkpt lat="50.01725" lon="2.03319">
        <ele>10.3</ele>
        <time>2022-04-12T14:07:13Z</time>
      </trkpt>
      <trkpt lat="50.01725" lon="2.03317">
        <ele>10.3</ele>
        <time>2022-04-12T14:07:15Z</time>
      </trkpt>
      <trkpt lat="50.01726" lon="2.03316">
        <ele>10.3</ele>
        <time>2022-04-12T14:07:16Z</time>
      </trkpt>
      <trkpt lat="50.01726" lon="2.03314">
        <ele>10.3</ele>
        <time>2022-04-12T14:07:17Z</time>
      </trkpt>
      <trkpt lat="50.01727" lon="2.03313">
        <ele>10.3</ele>
        <time>2022-04-12T14:07:18Z</time>
      </trkpt>
      <trkpt lat="50.01728" lon="2.03311">
        <ele>10.3</ele>
        <time>2022-04-12T14:07:20Z</time>
      </trkpt>
      <trkpt lat="50.01728" lon="2.03311">
        <ele>10.3</ele>
        <time>2022-04-12T14:07:21Z</time>
      </trkpt>
      <trkpt lat="50.01729" lon="2.03312">
        <ele>10.3</ele>
        <time>2022-04-12T14:07:22Z</time>
      </trkpt>
      <trkpt lat="50.01729" lon="2.03312">
        <ele>10.3</ele>
        <time>2022-04-12T14:07:23Z</time>
      </trkpt>
      <trkpt lat="50.01729" lon="2.03313">
        <ele>10.3</ele>
        <time>2022-04-12T14:07:24Z</time>
      </trkpt>
      <trkpt lat="50.01729" lon="2.03314">
        <ele>10.3</ele>
        <time>2022-04-12T14:07:25Z</time>
      </trkpt>
      <trkpt lat="50.01729" lon="2.03315">
        <ele>10.3</ele>
        <time>2022-04-12T14:07:27Z</time>
      </trkpt>
      <trkpt lat="50.01729" lon="2.03315">
        <ele>10.3</ele>
        <time>2022-04-12T14:07:28Z</time>
      </trkpt>
      <trkpt lat="50.01729" lon="2.03315">
        <ele>10.3</ele>
        <time>2022-04-12T14:07:29Z</time>
      </trkpt>
      <trkpt lat="50.01729" lon="2.03315">
        <ele>10.3</ele>
        <time>2022-04-12T14:07:30Z</time>
      </trkpt>
      <trkpt lat="50.01729" lon="2.03315">
        <ele>10.3</ele>
        <time>2022-04-12T14:07:31Z</time>
      </trkpt>
      <trkpt lat="50.01729" lon="2.03315">
        <ele>10.3</ele>
        <time>2022-04-12T14:07:32Z</time>
      </trkpt>
      <trkpt lat="50.01729" lon="2.03315">
        <ele>10.3</ele>
        <time>2022-04-12T14:07:33Z</time>
      </trkpt>
      <trkpt lat="50.01729" lon="2.03315">
        <ele>10.3</ele>
        <time>2022-04-12T14:07:34Z</time>
      </trkpt>
      <trkpt lat="50.01729" lon="2.03315">
        <ele>10.3</ele>
        <time>2022-04-12T14:07:35Z</time>
      </trkpt>
      <trkpt lat="50.01729" lon="2.03315">
        <ele>10.3</ele>
        <time>2022-04-12T14:07:36Z</time>
      </trkpt>
      <trkpt lat="50.01729" lon="2.03315">
        <ele>10.3</ele>
        <time>2022-04-12T14:07:37Z</time>
      </trkpt>
      <trkpt lat="50.01729" lon="2.03315">
        <ele>10.3</ele>
        <time>2022-04-12T14:07:38Z</time>
      </trkpt>
      <trkpt lat="50.01729" lon="2.03315">
        <ele>10.3</ele>
        <time>2022-04-12T14:07:39Z</time>
      </trkpt>
      <trkpt lat="50.01729" lon="2.03315">
        <ele>10.3</ele>
        <time>2022-04-12T14:07:40Z</time>
      </trkpt>
      <trkpt lat="50.01729" lon="2.03315">
        <ele>10.3</ele>
        <time>2022-04-12T14:07:41Z</time>
      </trkpt>
      <trkpt lat="50.01729" lon="2.03315">
        <ele>10.3</ele>
        <time>2022-04-12T14:07:42Z</time>
      </trkpt>
      <trkpt lat="50.01729" lon="2.03315">
        <ele>10.3</ele>
        <time>2022-04-12T14:07:43Z</time>
      </trkpt>
      <trkpt lat="50.01728" lon="2.03315">
        <ele>10.3</ele>
        <time>2022-04-12T14:07:44Z</time>
      </trkpt>
      <trkpt lat="50.01728" lon="2.03315">
        <ele>10.3</ele>
        <time>2022-04-12T14:07:45Z</time>
      </trkpt>
      <trkpt lat="50.01728" lon="2.03315">
        <ele>10.3</ele>
        <time>2022-04-12T14:07:46Z</time>
      </trkpt>
      <trkpt lat="50.01728" lon="2.03314">
        <ele>10.3</ele>
        <time>2022-04-12T14:07:47Z</time>
      </trkpt>
      <trkpt lat="50.01728" lon="2.03313">
        <ele>10.3</ele>
        <time>2022-04-12T14:07:49Z</time>
      </trkpt>
      <trkpt lat="50.01728" lon="2.03312">
        <ele>10.3</ele>
        <time>2022-04-12T14:07:50Z</time>
      </trkpt>
      <trkpt lat="50.01728" lon="2.03312">
        <ele>10.3</ele>
        <time>2022-04-12T14:07:51Z</time>
      </trkpt>
      <trkpt lat="50.01728" lon="2.03311">
        <ele>10.3</ele>
        <time>2022-04-12T14:07:52Z</time>
      </trkpt>
      <trkpt lat="50.01728" lon="2.03309">
        <ele>10.3</ele>
        <time>2022-04-12T14:07:53Z</time>
      </trkpt>
      <trkpt lat="50.01728" lon="2.03308">
        <ele>10.3</ele>
        <time>2022-04-12T14:07:55Z</time>
      </trkpt>
      <trkpt lat="50.01729" lon="2.03307">
        <ele>10.3</ele>
        <time>2022-04-12T14:07:56Z</time>
      </trkpt>
      <trkpt lat="50.01729" lon="2.03305">
        <ele>10.3</ele>
        <time>2022-04-12T14:07:57Z</time>
      </trkpt>
      <trkpt lat="50.0173" lon="2.03304">
        <ele>10.3</ele>
        <time>2022-04-12T14:07:58Z</time>
      </trkpt>
      <trkpt lat="50.0173" lon="2.03302">
        <ele>10.2</ele>
        <time>2022-04-12T14:07:59Z</time>
      </trkpt>
      <trkpt lat="50.01731" lon="2.03299">
        <ele>10.2</ele>
        <time>2022-04-12T14:08:00Z</time>
      </trkpt>
      <trkpt lat="50.01732" lon="2.03298">
        <ele>10.2</ele>
        <time>2022-04-12T14:08:01Z</time>
      </trkpt>
      <trkpt lat="50.01733" lon="2.03297">
        <ele>10.2</ele>
        <time>2022-04-12T14:08:03Z</time>
      </trkpt>
      <trkpt lat="50.01734" lon="2.03295">
        <ele>10.2</ele>
        <time>2022-04-12T14:08:04Z</time>
      </trkpt>
      <trkpt lat="50.01734" lon="2.03294">
        <ele>10.2</ele>
        <time>2022-04-12T14:08:05Z</time>
      </trkpt>
      <trkpt lat="50.01735" lon="2.03293">
        <ele>10.2</ele>
        <time>2022-04-12T14:08:07Z</time>
      </trkpt>
      <trkpt lat="50.01736" lon="2.03291">
        <ele>10.2</ele>
        <time>2022-04-12T14:08:08Z</time>
      </trkpt>
      <trkpt lat="50.01736" lon="2.0329">
        <ele>10.2</ele>
        <time>2022-04-12T14:08:09Z</time>
      </trkpt>
      <trkpt lat="50.01737" lon="2.03289">
        <ele>10.2</ele>
        <time>2022-04-12T14:08:10Z</time>
      </trkpt>
      <trkpt lat="50.01738" lon="2.03287">
        <ele>10.2</ele>
        <time>2022-04-12T14:08:11Z</time>
      </trkpt>
      <trkpt lat="50.01738" lon="2.03286">
        <ele>10.2</ele>
        <time>2022-04-12T14:08:12Z</time>
      </trkpt>
      <trkpt lat="50.01739" lon="2.03284">
        <ele>10.2</ele>
        <time>2022-04-12T14:08:14Z</time>
      </trkpt>
      <trkpt lat="50.01739" lon="2.03283">
        <ele>10.2</ele>
        <time>2022-04-12T14:08:15Z</time>
      </trkpt>
      <trkpt lat="50.0174" lon="2.03281">
        <ele>10.2</ele>
        <time>2022-04-12T14:08:16Z</time>
      </trkpt>
      <trkpt lat="50.01741" lon="2.03278">
        <ele>10.2</ele>
        <time>2022-04-12T14:08:17Z</time>
      </trkpt>
      <trkpt lat="50.01741" lon="2.03277">
        <ele>10.2</ele>
        <time>2022-04-12T14:08:18Z</time>
      </trkpt>
      <trkpt lat="50.01742" lon="2.03276">
        <ele>10.2</ele>
        <time>2022-04-12T14:08:19Z</time>
      </trkpt>
      <trkpt lat="50.01743" lon="2.03273">
        <ele>10.2</ele>
        <time>2022-04-12T14:08:20Z</time>
      </trkpt>
      <trkpt lat="50.01743" lon="2.03272">
        <ele>10.2</ele>
        <time>2022-04-12T14:08:22Z</time>
      </trkpt>
      <trkpt lat="50.01743" lon="2.03271">
        <ele>10.2</ele>
        <time>2022-04-12T14:08:23Z</time>
      </trkpt>
      <trkpt lat="50.01745" lon="2.03268">
        <ele>10.2</ele>
        <time>2022-04-12T14:08:24Z</time>
      </trkpt>
      <trkpt lat="50.01745" lon="2.03267">
        <ele>10.2</ele>
        <time>2022-04-12T14:08:25Z</time>
      </trkpt>
      <trkpt lat="50.01746" lon="2.03266">
        <ele>10.2</ele>
        <time>2022-04-12T14:08:26Z</time>
      </trkpt>
      <trkpt lat="50.01746" lon="2.03265">
        <ele>10.2</ele>
        <time>2022-04-12T14:08:27Z</time>
      </trkpt>
      <trkpt lat="50.01747" lon="2.03263">
        <ele>10.2</ele>
        <time>2022-04-12T14:08:28Z</time>
      </trkpt>
      <trkpt lat="50.01747" lon="2.03261">
        <ele>10.2</ele>
        <time>2022-04-12T14:08:30Z</time>
      </trkpt>
      <trkpt lat="50.01748" lon="2.0326">
        <ele>10.2</ele>
        <time>2022-04-12T14:08:31Z</time>
      </trkpt>
      <trkpt lat="50.01748" lon="2.03258">
        <ele>10.1</ele>
        <time>2022-04-12T14:08:32Z</time>
      </trkpt>
      <trkpt lat="50.01748" lon="2.03257">
        <ele>10.1</ele>
        <time>2022-04-12T14:08:33Z</time>
      </trkpt>
      <trkpt lat="50.01749" lon="2.03255">
        <ele>10.1</ele>
        <time>2022-04-12T14:08:34Z</time>
      </trkpt>
      <trkpt lat="50.0175" lon="2.03253">
        <ele>10.1</ele>
        <time>2022-04-12T14:08:35Z</time>
      </trkpt>
      <trkpt lat="50.0175" lon="2.03251">
        <ele>10.1</ele>
        <time>2022-04-12T14:08:37Z</time>
      </trkpt>
      <trkpt lat="50.01751" lon="2.03248">
        <ele>10.1</ele>
        <time>2022-04-12T14:08:38Z</time>
      </trkpt>
      <trkpt lat="50.01752" lon="2.03247">
        <ele>10.1</ele>
        <time>2022-04-12T14:08:39Z</time>
      </trkpt>
      <trkpt lat="50.01752" lon="2.03246">
        <ele>10.1</ele>
        <time>2022-04-12T14:08:40Z</time>
      </trkpt>
      <trkpt lat="50.01753" lon="2.03245">
        <ele>10.1</ele>
        <time>2022-04-12T14:08:42Z</time>
      </trkpt>
      <trkpt lat="50.01753" lon="2.03243">
        <ele>10.1</ele>
        <time>2022-04-12T14:08:43Z</time>
      </trkpt>
      <trkpt lat="50.01754" lon="2.03241">
        <ele>10.1</ele>
        <time>2022-04-12T14:08:44Z</time>
      </trkpt>
      <trkpt lat="50.01755" lon="2.03239">
        <ele>10.1</ele>
        <time>2022-04-12T14:08:45Z</time>
      </trkpt>
      <trkpt lat="50.01755" lon="2.03238">
        <ele>10.1</ele>
        <time>2022-04-12T14:08:46Z</time>
      </trkpt>
      <trkpt lat="50.01756" lon="2.03237">
        <ele>10.1</ele>
        <time>2022-04-12T14:08:48Z</time>
      </trkpt>
      <trkpt lat="50.01756" lon="2.03236">
        <ele>10.1</ele>
        <time>2022-04-12T14:08:49Z</time>
      </trkpt>
      <trkpt lat="50.01757" lon="2.03235">
        <ele>10.1</ele>
        <time>2022-04-12T14:08:50Z</time>
      </trkpt>
      <trkpt lat="50.01758" lon="2.03234">
        <ele>10.1</ele>
        <time>2022-04-12T14:08:51Z</time>
      </trkpt>
      <trkpt lat="50.01758" lon="2.03233">
        <ele>10.1</ele>
        <time>2022-04-12T14:08:52Z</time>
      </trkpt>
      <trkpt lat="50.01759" lon="2.03232">
        <ele>10.1</ele>
        <time>2022-04-12T14:08:53Z</time>
      </trkpt>
      <trkpt lat="50.01759" lon="2.0323">
        <ele>10.1</ele>
        <time>2022-04-12T14:08:55Z</time>
      </trkpt>
      <trkpt lat="50.0176" lon="2.03229">
        <ele>10.1</ele>
        <time>2022-04-12T14:08:56Z</time>
      </trkpt>
      <trkpt lat="50.0176" lon="2.03227">
        <ele>10.1</ele>
        <time>2022-04-12T14:08:57Z</time>
      </trkpt>
      <trkpt lat="50.01761" lon="2.03226">
        <ele>10.1</ele>
        <time>2022-04-12T14:08:58Z</time>
      </trkpt>
      <trkpt lat="50.01761" lon="2.03224">
        <ele>10.1</ele>
        <time>2022-04-12T14:08:59Z</time>
      </trkpt>
      <trkpt lat="50.01762" lon="2.03221">
        <ele>10.1</ele>
        <time>2022-04-12T14:09:00Z</time>
      </trkpt>
      <trkpt lat="50.01762" lon="2.0322">
        <ele>10.1</ele>
        <time>2022-04-12T14:09:02Z</time>
      </trkpt>
      <trkpt lat="50.01763" lon="2.03219">
        <ele>10.1</ele>
        <time>2022-04-12T14:09:03Z</time>
      </trkpt>
      <trkpt lat="50.01763" lon="2.03217">
        <ele>10.1</ele>
        <time>2022-04-12T14:09:04Z</time>
      </trkpt>
      <trkpt lat="50.01764" lon="2.03215">
        <ele>10.1</ele>
        <time>2022-04-12T14:09:05Z</time>
      </trkpt>
      <trkpt lat="50.01764" lon="2.03214">
        <ele>10.1</ele>
        <time>2022-04-12T14:09:06Z</time>
      </trkpt>
      <trkpt lat="50.01765" lon="2.03213">
        <ele>10.1</ele>
        <time>2022-04-12T14:09:07Z</time>
      </trkpt>
      <trkpt lat="50.01765" lon="2.03211">
        <ele>10.1</ele>
        <time>2022-04-12T14:09:09Z</time>
      </trkpt>
      <trkpt lat="50.01766" lon="2.0321">
        <ele>10.1</ele>
        <time>2022-04-12T14:09:10Z</time>
      </trkpt>
      <trkpt lat="50.01766" lon="2.03208">
        <ele>10.1</ele>
        <time>2022-04-12T14:09:11Z</time>
      </trkpt>
      <trkpt lat="50.01767" lon="2.03207">
        <ele>10.1</ele>
        <time>2022-04-12T14:09:12Z</time>
      </trkpt>
      <trkpt lat="50.01768" lon="2.03205">
        <ele>10.1</ele>
        <time>2022-04-12T14:09:13Z</time>
      </trkpt>
      <trkpt lat="50.01769" lon="2.03204">
        <ele>10.1</ele>
        <time>2022-04-12T14:09:14Z</time>
      </trkpt>
      <trkpt lat="50.01769" lon="2.03202">
        <ele>10.1</ele>
        <time>2022-04-12T14:09:15Z</time>
      </trkpt>
      <trkpt lat="50.0177" lon="2.032">
        <ele>10.1</ele>
        <time>2022-04-12T14:09:17Z</time>
      </trkpt>
      <trkpt lat="50.01771" lon="2.03198">
        <ele>10.1</ele>
        <time>2022-04-12T14:09:18Z</time>
      </trkpt>
      <trkpt lat="50.01772" lon="2.03197">
        <ele>10.1</ele>
        <time>2022-04-12T14:09:19Z</time>
      </trkpt>
      <trkpt lat="50.01773" lon="2.03195">
        <ele>10.1</ele>
        <time>2022-04-12T14:09:20Z</time>
      </trkpt>
      <trkpt lat="50.01773" lon="2.03194">
        <ele>10.1</ele>
        <time>2022-04-12T14:09:21Z</time>
      </trkpt>
      <trkpt lat="50.01774" lon="2.03192">
        <ele>10.1</ele>
        <time>2022-04-12T14:09:22Z</time>
      </trkpt>
      <trkpt lat="50.01775" lon="2.03189">
        <ele>10.1</ele>
        <time>2022-04-12T14:09:23Z</time>
      </trkpt>
      <trkpt lat="50.01775" lon="2.03188">
        <ele>10.1</ele>
        <time>2022-04-12T14:09:25Z</time>
      </trkpt>
      <trkpt lat="50.01776" lon="2.03187">
        <ele>10.1</ele>
        <time>2022-04-12T14:09:26Z</time>
      </trkpt>
      <trkpt lat="50.01776" lon="2.03185">
        <ele>10.1</ele>
        <time>2022-04-12T14:09:27Z</time>
      </trkpt>
      <trkpt lat="50.01777" lon="2.03183">
        <ele>10.1</ele>
        <time>2022-04-12T14:09:28Z</time>
      </trkpt>
      <trkpt lat="50.01777" lon="2.03182">
        <ele>10.1</ele>
        <time>2022-04-12T14:09:29Z</time>
      </trkpt>
      <trkpt lat="50.01777" lon="2.0318">
        <ele>10.1</ele>
        <time>2022-04-12T14:09:30Z</time>
      </trkpt>
      <trkpt lat="50.01778" lon="2.03179">
        <ele>10.1</ele>
        <time>2022-04-12T14:09:31Z</time>
      </trkpt>
      <trkpt lat="50.01778" lon="2.03177">
        <ele>10.1</ele>
        <time>2022-04-12T14:09:32Z</time>
      </trkpt>
      <trkpt lat="50.01779" lon="2.03175">
        <ele>10.1</ele>
        <time>2022-04-12T14:09:34Z</time>
      </trkpt>
      <trkpt lat="50.01779" lon="2.03173">
        <ele>10.1</ele>
        <time>2022-04-12T14:09:35Z</time>
      </trkpt>
      <trkpt lat="50.0178" lon="2.03172">
        <ele>10.1</ele>
        <time>2022-04-12T14:09:36Z</time>
      </trkpt>
      <trkpt lat="50.0178" lon="2.0317">
        <ele>10.1</ele>
        <time>2022-04-12T14:09:37Z</time>
      </trkpt>
      <trkpt lat="50.0178" lon="2.03169">
        <ele>10.1</ele>
        <time>2022-04-12T14:09:38Z</time>
      </trkpt>
      <trkpt lat="50.01781" lon="2.03167">
        <ele>10.1</ele>
        <time>2022-04-12T14:09:39Z</time>
      </trkpt>
      <trkpt lat="50.01781" lon="2.03164">
        <ele>10.1</ele>
        <time>2022-04-12T14:09:40Z</time>
      </trkpt>
      <trkpt lat="50.01781" lon="2.03162">
        <ele>10.1</ele>
        <time>2022-04-12T14:09:42Z</time>
      </trkpt>
      <trkpt lat="50.01781" lon="2.03161">
        <ele>10.1</ele>
        <time>2022-04-12T14:09:43Z</time>
      </trkpt>
      <trkpt lat="50.01782" lon="2.0316">
        <ele>10.1</ele>
        <time>2022-04-12T14:09:44Z</time>
      </trkpt>
      <trkpt lat="50.01782" lon="2.03158">
        <ele>10.1</ele>
        <time>2022-04-12T14:09:45Z</time>
      </trkpt>
      <trkpt lat="50.01782" lon="2.03156">
        <ele>10.1</ele>
        <time>2022-04-12T14:09:46Z</time>
      </trkpt>
      <trkpt lat="50.01783" lon="2.03155">
        <ele>10.1</ele>
        <time>2022-04-12T14:09:47Z</time>
      </trkpt>
      <trkpt lat="50.01783" lon="2.03153">
        <ele>10.1</ele>
        <time>2022-04-12T14:09:48Z</time>
      </trkpt>
      <trkpt lat="50.01784" lon="2.03151">
        <ele>10.1</ele>
        <time>2022-04-12T14:09:49Z</time>
      </trkpt>
      <trkpt lat="50.01785" lon="2.03148">
        <ele>10.1</ele>
        <time>2022-04-12T14:09:50Z</time>
      </trkpt>
      <trkpt lat="50.01785" lon="2.03147">
        <ele>10.1</ele>
        <time>2022-04-12T14:09:52Z</time>
      </trkpt>
      <trkpt lat="50.01785" lon="2.03146">
        <ele>10.1</ele>
        <time>2022-04-12T14:09:53Z</time>
      </trkpt>
      <trkpt lat="50.01786" lon="2.03143">
        <ele>10.1</ele>
        <time>2022-04-12T14:09:54Z</time>
      </trkpt>
      <trkpt lat="50.01787" lon="2.03142">
        <ele>10.1</ele>
        <time>2022-04-12T14:09:55Z</time>
      </trkpt>
      <trkpt lat="50.01787" lon="2.03141">
        <ele>10.1</ele>
        <time>2022-04-12T14:09:56Z</time>
      </trkpt>
      <trkpt lat="50.01788" lon="2.03139">
        <ele>10.1</ele>
        <time>2022-04-12T14:09:57Z</time>
      </trkpt>
      <trkpt lat="50.01789" lon="2.03138">
        <ele>10.1</ele>
        <time>2022-04-12T14:09:58Z</time>
      </trkpt>
      <trkpt lat="50.01789" lon="2.03137">
        <ele>10.1</ele>
        <time>2022-04-12T14:09:59Z</time>
      </trkpt>
      <trkpt lat="50.01791" lon="2.03134">
        <ele>10.1</ele>
        <time>2022-04-12T14:10:01Z</time>
      </trkpt>
      <trkpt lat="50.01791" lon="2.03133">
        <ele>10.1</ele>
        <time>2022-04-12T14:10:02Z</time>
      </trkpt>
      <trkpt lat="50.01791" lon="2.03132">
        <ele>10.1</ele>
        <time>2022-04-12T14:10:03Z</time>
      </trkpt>
      <trkpt lat="50.01792" lon="2.0313">
        <ele>10.1</ele>
        <time>2022-04-12T14:10:04Z</time>
      </trkpt>
      <trkpt lat="50.01793" lon="2.03129">
        <ele>10.1</ele>
        <time>2022-04-12T14:10:05Z</time>
      </trkpt>
      <trkpt lat="50.01793" lon="2.03127">
        <ele>10.1</ele>
        <time>2022-04-12T14:10:06Z</time>
      </trkpt>
      <trkpt lat="50.01794" lon="2.03124">
        <ele>10.1</ele>
        <time>2022-04-12T14:10:07Z</time>
      </trkpt>
      <trkpt lat="50.01794" lon="2.03123">
        <ele>10.1</ele>
        <time>2022-04-12T14:10:08Z</time>
      </trkpt>
      <trkpt lat="50.01795" lon="2.03122">
        <ele>10.1</ele>
        <time>2022-04-12T14:10:09Z</time>
      </trkpt>
      <trkpt lat="50.01796" lon="2.03119">
        <ele>10.1</ele>
        <time>2022-04-12T14:10:11Z</time>
      </trkpt>
      <trkpt lat="50.01796" lon="2.03118">
        <ele>10.1</ele>
        <time>2022-04-12T14:10:12Z</time>
      </trkpt>
      <trkpt lat="50.01796" lon="2.03117">
        <ele>10.1</ele>
        <time>2022-04-12T14:10:13Z</time>
      </trkpt>
      <trkpt lat="50.01797" lon="2.03115">
        <ele>10.1</ele>
        <time>2022-04-12T14:10:14Z</time>
      </trkpt>
      <trkpt lat="50.01797" lon="2.03114">
        <ele>10.1</ele>
        <time>2022-04-12T14:10:15Z</time>
      </trkpt>
      <trkpt lat="50.01798" lon="2.03112">
        <ele>10.1</ele>
        <time>2022-04-12T14:10:17Z</time>
      </trkpt>
      <trkpt lat="50.01798" lon="2.0311">
        <ele>10.1</ele>
        <time>2022-04-12T14:10:18Z</time>
      </trkpt>
      <trkpt lat="50.01798" lon="2.03108">
        <ele>10.1</ele>
        <time>2022-04-12T14:10:19Z</time>
      </trkpt>
      <trkpt lat="50.01798" lon="2.03107">
        <ele>10.1</ele>
        <time>2022-04-12T14:10:20Z</time>
      </trkpt>
      <trkpt lat="50.01799" lon="2.03103">
        <ele>10.1</ele>
        <time>2022-04-12T14:10:21Z</time>
      </trkpt>
      <trkpt lat="50.01799" lon="2.03102">
        <ele>10.1</ele>
        <time>2022-04-12T14:10:22Z</time>
      </trkpt>
      <trkpt lat="50.01799" lon="2.03101">
        <ele>10.1</ele>
        <time>2022-04-12T14:10:23Z</time>
      </trkpt>
      <trkpt lat="50.01799" lon="2.03099">
        <ele>10.1</ele>
        <time>2022-04-12T14:10:24Z</time>
      </trkpt>
      <trkpt lat="50.018" lon="2.03098">
        <ele>10.1</ele>
        <time>2022-04-12T14:10:26Z</time>
      </trkpt>
      <trkpt lat="50.018" lon="2.03096">
        <ele>10.1</ele>
        <time>2022-04-12T14:10:27Z</time>
      </trkpt>
      <trkpt lat="50.01801" lon="2.03094">
        <ele>10.1</ele>
        <time>2022-04-12T14:10:28Z</time>
      </trkpt>
      <trkpt lat="50.01801" lon="2.03093">
        <ele>10.1</ele>
        <time>2022-04-12T14:10:29Z</time>
      </trkpt>
      <trkpt lat="50.01802" lon="2.03091">
        <ele>10.1</ele>
        <time>2022-04-12T14:10:30Z</time>
      </trkpt>
      <trkpt lat="50.01802" lon="2.0309">
        <ele>10.1</ele>
        <time>2022-04-12T14:10:31Z</time>
      </trkpt>
      <trkpt lat="50.01803" lon="2.03088">
        <ele>10.1</ele>
        <time>2022-04-12T14:10:32Z</time>
      </trkpt>
      <trkpt lat="50.01804" lon="2.03086">
        <ele>10.1</ele>
        <time>2022-04-12T14:10:34Z</time>
      </trkpt>
      <trkpt lat="50.01804" lon="2.03085">
        <ele>10.1</ele>
        <time>2022-04-12T14:10:35Z</time>
      </trkpt>
      <trkpt lat="50.01805" lon="2.03083">
        <ele>10.1</ele>
        <time>2022-04-12T14:10:36Z</time>
      </trkpt>
      <trkpt lat="50.01805" lon="2.03082">
        <ele>10.1</ele>
        <time>2022-04-12T14:10:37Z</time>
      </trkpt>
      <trkpt lat="50.01806" lon="2.03079">
        <ele>10.1</ele>
        <time>2022-04-12T14:10:38Z</time>
      </trkpt>
      <trkpt lat="50.01807" lon="2.03078">
        <ele>10.1</ele>
        <time>2022-04-12T14:10:39Z</time>
      </trkpt>
      <trkpt lat="50.01807" lon="2.03077">
        <ele>10.1</ele>
        <time>2022-04-12T14:10:40Z</time>
      </trkpt>
      <trkpt lat="50.01808" lon="2.03076">
        <ele>10.1</ele>
        <time>2022-04-12T14:10:41Z</time>
      </trkpt>
      <trkpt lat="50.01808" lon="2.03074">
        <ele>10.1</ele>
        <time>2022-04-12T14:10:43Z</time>
      </trkpt>
      <trkpt lat="50.01809" lon="2.03073">
        <ele>10.1</ele>
        <time>2022-04-12T14:10:44Z</time>
      </trkpt>
      <trkpt lat="50.01809" lon="2.03071">
        <ele>10.1</ele>
        <time>2022-04-12T14:10:45Z</time>
      </trkpt>
      <trkpt lat="50.0181" lon="2.0307">
        <ele>10.1</ele>
        <time>2022-04-12T14:10:46Z</time>
      </trkpt>
      <trkpt lat="50.0181" lon="2.03068">
        <ele>10.1</ele>
        <time>2022-04-12T14:10:47Z</time>
      </trkpt>
      <trkpt lat="50.01811" lon="2.03067">
        <ele>10.1</ele>
        <time>2022-04-12T14:10:48Z</time>
      </trkpt>
      <trkpt lat="50.01811" lon="2.03066">
        <ele>10.1</ele>
        <time>2022-04-12T14:10:49Z</time>
      </trkpt>
      <trkpt lat="50.01812" lon="2.03064">
        <ele>10.1</ele>
        <time>2022-04-12T14:10:50Z</time>
      </trkpt>
      <trkpt lat="50.01813" lon="2.03063">
        <ele>10.1</ele>
        <time>2022-04-12T14:10:51Z</time>
      </trkpt>
      <trkpt lat="50.01813" lon="2.03061">
        <ele>10.1</ele>
        <time>2022-04-12T14:10:53Z</time>
      </trkpt>
      <trkpt lat="50.01814" lon="2.0306">
        <ele>10.1</ele>
        <time>2022-04-12T14:10:54Z</time>
      </trkpt>
      <trkpt lat="50.01815" lon="2.03057">
        <ele>10.1</ele>
        <time>2022-04-12T14:10:55Z</time>
      </trkpt>
      <trkpt lat="50.01815" lon="2.03056">
        <ele>10.1</ele>
        <time>2022-04-12T14:10:56Z</time>
      </trkpt>
      <trkpt lat="50.01815" lon="2.03055">
        <ele>10.1</ele>
        <time>2022-04-12T14:10:57Z</time>
      </trkpt>
      <trkpt lat="50.01816" lon="2.03053">
        <ele>10.1</ele>
        <time>2022-04-12T14:10:58Z</time>
      </trkpt>
      <trkpt lat="50.01817" lon="2.03051">
        <ele>10.1</ele>
        <time>2022-04-12T14:10:59Z</time>
      </trkpt>
      <trkpt lat="50.01817" lon="2.0305">
        <ele>10.1</ele>
        <time>2022-04-12T14:11:01Z</time>
      </trkpt>
      <trkpt lat="50.01818" lon="2.03048">
        <ele>10.1</ele>
        <time>2022-04-12T14:11:02Z</time>
      </trkpt>
      <trkpt lat="50.01818" lon="2.03047">
        <ele>10.1</ele>
        <time>2022-04-12T14:11:03Z</time>
      </trkpt>
      <trkpt lat="50.01819" lon="2.03045">
        <ele>10.1</ele>
        <time>2022-04-12T14:11:05Z</time>
      </trkpt>
      <trkpt lat="50.0182" lon="2.03042">
        <ele>10.1</ele>
        <time>2022-04-12T14:11:06Z</time>
      </trkpt>
      <trkpt lat="50.0182" lon="2.03041">
        <ele>10.1</ele>
        <time>2022-04-12T14:11:07Z</time>
      </trkpt>
      <trkpt lat="50.01821" lon="2.0304">
        <ele>10.1</ele>
        <time>2022-04-12T14:11:08Z</time>
      </trkpt>
      <trkpt lat="50.01822" lon="2.03038">
        <ele>10.1</ele>
        <time>2022-04-12T14:11:09Z</time>
      </trkpt>
      <trkpt lat="50.01822" lon="2.03037">
        <ele>10.1</ele>
        <time>2022-04-12T14:11:10Z</time>
      </trkpt>
      <trkpt lat="50.01823" lon="2.03035">
        <ele>10.1</ele>
        <time>2022-04-12T14:11:11Z</time>
      </trkpt>
      <trkpt lat="50.01823" lon="2.03032">
        <ele>10.1</ele>
        <time>2022-04-12T14:11:12Z</time>
      </trkpt>
      <trkpt lat="50.01824" lon="2.03031">
        <ele>10.1</ele>
        <time>2022-04-12T14:11:13Z</time>
      </trkpt>
      <trkpt lat="50.01824" lon="2.0303">
        <ele>10.1</ele>
        <time>2022-04-12T14:11:14Z</time>
      </trkpt>
      <trkpt lat="50.01824" lon="2.03027">
        <ele>10.1</ele>
        <time>2022-04-12T14:11:16Z</time>
      </trkpt>
      <trkpt lat="50.01825" lon="2.03026">
        <ele>10.1</ele>
        <time>2022-04-12T14:11:17Z</time>
      </trkpt>
      <trkpt lat="50.01825" lon="2.03024">
        <ele>10.1</ele>
        <time>2022-04-12T14:11:18Z</time>
      </trkpt>
      <trkpt lat="50.01826" lon="2.03021">
        <ele>10.1</ele>
        <time>2022-04-12T14:11:19Z</time>
      </trkpt>
      <trkpt lat="50.01826" lon="2.0302">
        <ele>10.1</ele>
        <time>2022-04-12T14:11:20Z</time>
      </trkpt>
      <trkpt lat="50.01826" lon="2.03019">
        <ele>10.1</ele>
        <time>2022-04-12T14:11:21Z</time>
      </trkpt>
      <trkpt lat="50.01827" lon="2.03017">
        <ele>10.1</ele>
        <time>2022-04-12T14:11:22Z</time>
      </trkpt>
      <trkpt lat="50.01827" lon="2.03016">
        <ele>10.1</ele>
        <time>2022-04-12T14:11:23Z</time>
      </trkpt>
      <trkpt lat="50.01827" lon="2.03014">
        <ele>10.1</ele>
        <time>2022-04-12T14:11:24Z</time>
      </trkpt>
      <trkpt lat="50.01828" lon="2.03013">
        <ele>10.1</ele>
        <time>2022-04-12T14:11:26Z</time>
      </trkpt>
      <trkpt lat="50.01828" lon="2.03011">
        <ele>10.1</ele>
        <time>2022-04-12T14:11:27Z</time>
      </trkpt>
      <trkpt lat="50.01829" lon="2.03009">
        <ele>10.1</ele>
        <time>2022-04-12T14:11:28Z</time>
      </trkpt>
      <trkpt lat="50.01829" lon="2.03008">
        <ele>10.1</ele>
        <time>2022-04-12T14:11:29Z</time>
      </trkpt>
      <trkpt lat="50.0183" lon="2.03006">
        <ele>10.1</ele>
        <time>2022-04-12T14:11:30Z</time>
      </trkpt>
      <trkpt lat="50.0183" lon="2.03005">
        <ele>10.1</ele>
        <time>2022-04-12T14:11:31Z</time>
      </trkpt>
      <trkpt lat="50.01831" lon="2.03003">
        <ele>10.1</ele>
        <time>2022-04-12T14:11:32Z</time>
      </trkpt>
      <trkpt lat="50.01832" lon="2.03002">
        <ele>10.1</ele>
        <time>2022-04-12T14:11:33Z</time>
      </trkpt>
      <trkpt lat="50.01832" lon="2.03">
        <ele>10.1</ele>
        <time>2022-04-12T14:11:34Z</time>
      </trkpt>
      <trkpt lat="50.01833" lon="2.02999">
        <ele>10.1</ele>
        <time>2022-04-12T14:11:36Z</time>
      </trkpt>
      <trkpt lat="50.01833" lon="2.02998">
        <ele>10.1</ele>
        <time>2022-04-12T14:11:37Z</time>
      </trkpt>
      <trkpt lat="50.01834" lon="2.02996">
        <ele>10.1</ele>
        <time>2022-04-12T14:11:38Z</time>
      </trkpt>
      <trkpt lat="50.01834" lon="2.02995">
        <ele>10.1</ele>
        <time>2022-04-12T14:11:39Z</time>
      </trkpt>
      <trkpt lat="50.01835" lon="2.02993">
        <ele>10.1</ele>
        <time>2022-04-12T14:11:40Z</time>
      </trkpt>
      <trkpt lat="50.01835" lon="2.02991">
        <ele>10.1</ele>
        <time>2022-04-12T14:11:41Z</time>
      </trkpt>
      <trkpt lat="50.01836" lon="2.02988">
        <ele>10.1</ele>
        <time>2022-04-12T14:11:42Z</time>
      </trkpt>
      <trkpt lat="50.01836" lon="2.02987">
        <ele>10.1</ele>
        <time>2022-04-12T14:11:43Z</time>
      </trkpt>
      <trkpt lat="50.01837" lon="2.02986">
        <ele>10.1</ele>
        <time>2022-04-12T14:11:44Z</time>
      </trkpt>
      <trkpt lat="50.01838" lon="2.02983">
        <ele>10.1</ele>
        <time>2022-04-12T14:11:46Z</time>
      </trkpt>
      <trkpt lat="50.01839" lon="2.02982">
        <ele>10.1</ele>
        <time>2022-04-12T14:11:47Z</time>
      </trkpt>
      <trkpt lat="50.01839" lon="2.02981">
        <ele>10.1</ele>
        <time>2022-04-12T14:11:48Z</time>
      </trkpt>
      <trkpt lat="50.0184" lon="2.02979">
        <ele>10.1</ele>
        <time>2022-04-12T14:11:49Z</time>
      </trkpt>
      <trkpt lat="50.0184" lon="2.02978">
        <ele>10.1</ele>
        <time>2022-04-12T14:11:50Z</time>
      </trkpt>
      <trkpt lat="50.01841" lon="2.02976">
        <ele>10.1</ele>
        <time>2022-04-12T14:11:51Z</time>
      </trkpt>
      <trkpt lat="50.01841" lon="2.02974">
        <ele>10.1</ele>
        <time>2022-04-12T14:11:52Z</time>
      </trkpt>
      <trkpt lat="50.01842" lon="2.02973">
        <ele>10.1</ele>
        <time>2022-04-12T14:11:53Z</time>
      </trkpt>
      <trkpt lat="50.01842" lon="2.02971">
        <ele>10.1</ele>
        <time>2022-04-12T14:11:54Z</time>
      </trkpt>
      <trkpt lat="50.01842" lon="2.0297">
        <ele>10.1</ele>
        <time>2022-04-12T14:11:56Z</time>
      </trkpt>
      <trkpt lat="50.01843" lon="2.02968">
        <ele>10.1</ele>
        <time>2022-04-12T14:11:57Z</time>
      </trkpt>
      <trkpt lat="50.01843" lon="2.02966">
        <ele>10.1</ele>
        <time>2022-04-12T14:11:58Z</time>
      </trkpt>
      <trkpt lat="50.01844" lon="2.02965">
        <ele>10.1</ele>
        <time>2022-04-12T14:11:59Z</time>
      </trkpt>
      <trkpt lat="50.01844" lon="2.02963">
        <ele>10.1</ele>
        <time>2022-04-12T14:12:00Z</time>
      </trkpt>
      <trkpt lat="50.01845" lon="2.02962">
        <ele>10.1</ele>
        <time>2022-04-12T14:12:01Z</time>
      </trkpt>
      <trkpt lat="50.01845" lon="2.02961">
        <ele>10.1</ele>
        <time>2022-04-12T14:12:02Z</time>
      </trkpt>
      <trkpt lat="50.01846" lon="2.02959">
        <ele>10.1</ele>
        <time>2022-04-12T14:12:03Z</time>
      </trkpt>
      <trkpt lat="50.01847" lon="2.02958">
        <ele>10.1</ele>
        <time>2022-04-12T14:12:04Z</time>
      </trkpt>
      <trkpt lat="50.01848" lon="2.02957">
        <ele>10.1</ele>
        <time>2022-04-12T14:12:05Z</time>
      </trkpt>
      <trkpt lat="50.01848" lon="2.02955">
        <ele>10.1</ele>
        <time>2022-04-12T14:12:07Z</time>
      </trkpt>
      <trkpt lat="50.01849" lon="2.02954">
        <ele>10.1</ele>
        <time>2022-04-12T14:12:08Z</time>
      </trkpt>
      <trkpt lat="50.0185" lon="2.02951">
        <ele>10.1</ele>
        <time>2022-04-12T14:12:09Z</time>
      </trkpt>
      <trkpt lat="50.01851" lon="2.0295">
        <ele>10.1</ele>
        <time>2022-04-12T14:12:10Z</time>
      </trkpt>
      <trkpt lat="50.01851" lon="2.02949">
        <ele>10.1</ele>
        <time>2022-04-12T14:12:11Z</time>
      </trkpt>
      <trkpt lat="50.01853" lon="2.02947">
        <ele>10.1</ele>
        <time>2022-04-12T14:12:12Z</time>
      </trkpt>
      <trkpt lat="50.01853" lon="2.02946">
        <ele>10.1</ele>
        <time>2022-04-12T14:12:13Z</time>
      </trkpt>
      <trkpt lat="50.01854" lon="2.02945">
        <ele>10.1</ele>
        <time>2022-04-12T14:12:14Z</time>
      </trkpt>
      <trkpt lat="50.01855" lon="2.02942">
        <ele>10.1</ele>
        <time>2022-04-12T14:12:16Z</time>
      </trkpt>
      <trkpt lat="50.01856" lon="2.02941">
        <ele>10.1</ele>
        <time>2022-04-12T14:12:17Z</time>
      </trkpt>
      <trkpt lat="50.01857" lon="2.0294">
        <ele>10.1</ele>
        <time>2022-04-12T14:12:18Z</time>
      </trkpt>
      <trkpt lat="50.01858" lon="2.02939">
        <ele>10.1</ele>
        <time>2022-04-12T14:12:19Z</time>
      </trkpt>
      <trkpt lat="50.01858" lon="2.02937">
        <ele>10.1</ele>
        <time>2022-04-12T14:12:20Z</time>
      </trkpt>
      <trkpt lat="50.01859" lon="2.02935">
        <ele>10.1</ele>
        <time>2022-04-12T14:12:21Z</time>
      </trkpt>
      <trkpt lat="50.0186" lon="2.02934">
        <ele>10.1</ele>
        <time>2022-04-12T14:12:22Z</time>
      </trkpt>
      <trkpt lat="50.01861" lon="2.02932">
        <ele>10.1</ele>
        <time>2022-04-12T14:12:23Z</time>
      </trkpt>
      <trkpt lat="50.01862" lon="2.0293">
        <ele>10.1</ele>
        <time>2022-04-12T14:12:24Z</time>
      </trkpt>
      <trkpt lat="50.01863" lon="2.02929">
        <ele>10.1</ele>
        <time>2022-04-12T14:12:26Z</time>
      </trkpt>
      <trkpt lat="50.01864" lon="2.02927">
        <ele>10.1</ele>
        <time>2022-04-12T14:12:27Z</time>
      </trkpt>
      <trkpt lat="50.01865" lon="2.02924">
        <ele>10.1</ele>
        <time>2022-04-12T14:12:28Z</time>
      </trkpt>
      <trkpt lat="50.01866" lon="2.02923">
        <ele>10.1</ele>
        <time>2022-04-12T14:12:29Z</time>
      </trkpt>
      <trkpt lat="50.01866" lon="2.02922">
        <ele>10.1</ele>
        <time>2022-04-12T14:12:30Z</time>
      </trkpt>
      <trkpt lat="50.01867" lon="2.02921">
        <ele>10.1</ele>
        <time>2022-04-12T14:12:31Z</time>
      </trkpt>
      <trkpt lat="50.01867" lon="2.02919">
        <ele>10.1</ele>
        <time>2022-04-12T14:12:32Z</time>
      </trkpt>
      <trkpt lat="50.01868" lon="2.02918">
        <ele>10.1</ele>
        <time>2022-04-12T14:12:33Z</time>
      </trkpt>
      <trkpt lat="50.01869" lon="2.02916">
        <ele>10.1</ele>
        <time>2022-04-12T14:12:34Z</time>
      </trkpt>
      <trkpt lat="50.0187" lon="2.02915">
        <ele>10.1</ele>
        <time>2022-04-12T14:12:36Z</time>
      </trkpt>
      <trkpt lat="50.0187" lon="2.02914">
        <ele>10.1</ele>
        <time>2022-04-12T14:12:37Z</time>
      </trkpt>
      <trkpt lat="50.01871" lon="2.02912">
        <ele>10.1</ele>
        <time>2022-04-12T14:12:38Z</time>
      </trkpt>
      <trkpt lat="50.01871" lon="2.02911">
        <ele>10.1</ele>
        <time>2022-04-12T14:12:39Z</time>
      </trkpt>
      <trkpt lat="50.01872" lon="2.0291">
        <ele>10.1</ele>
        <time>2022-04-12T14:12:40Z</time>
      </trkpt>
      <trkpt lat="50.01872" lon="2.02908">
        <ele>10.1</ele>
        <time>2022-04-12T14:12:41Z</time>
      </trkpt>
      <trkpt lat="50.01873" lon="2.02907">
        <ele>10.1</ele>
        <time>2022-04-12T14:12:42Z</time>
      </trkpt>
      <trkpt lat="50.01873" lon="2.02905">
        <ele>10.1</ele>
        <time>2022-04-12T14:12:43Z</time>
      </trkpt>
      <trkpt lat="50.01873" lon="2.02903">
        <ele>10.1</ele>
        <time>2022-04-12T14:12:44Z</time>
      </trkpt>
      <trkpt lat="50.01873" lon="2.02902">
        <ele>10.1</ele>
        <time>2022-04-12T14:12:46Z</time>
      </trkpt>
      <trkpt lat="50.01873" lon="2.029">
        <ele>10.1</ele>
        <time>2022-04-12T14:12:47Z</time>
      </trkpt>
      <trkpt lat="50.01874" lon="2.02898">
        <ele>10.2</ele>
        <time>2022-04-12T14:12:48Z</time>
      </trkpt>
      <trkpt lat="50.01874" lon="2.02896">
        <ele>10.2</ele>
        <time>2022-04-12T14:12:49Z</time>
      </trkpt>
      <trkpt lat="50.01874" lon="2.02895">
        <ele>10.2</ele>
        <time>2022-04-12T14:12:50Z</time>
      </trkpt>
      <trkpt lat="50.01875" lon="2.02893">
        <ele>10.2</ele>
        <time>2022-04-12T14:12:51Z</time>
      </trkpt>
      <trkpt lat="50.01875" lon="2.02892">
        <ele>10.2</ele>
        <time>2022-04-12T14:12:52Z</time>
      </trkpt>
      <trkpt lat="50.01876" lon="2.0289">
        <ele>10.2</ele>
        <time>2022-04-12T14:12:53Z</time>
      </trkpt>
      <trkpt lat="50.01877" lon="2.02888">
        <ele>10.2</ele>
        <time>2022-04-12T14:12:54Z</time>
      </trkpt>
      <trkpt lat="50.01877" lon="2.02887">
        <ele>10.2</ele>
        <time>2022-04-12T14:12:56Z</time>
      </trkpt>
      <trkpt lat="50.01878" lon="2.02885">
        <ele>10.2</ele>
        <time>2022-04-12T14:12:57Z</time>
      </trkpt>
      <trkpt lat="50.01878" lon="2.02883">
        <ele>10.2</ele>
        <time>2022-04-12T14:12:58Z</time>
      </trkpt>
      <trkpt lat="50.01878" lon="2.02882">
        <ele>10.2</ele>
        <time>2022-04-12T14:12:59Z</time>
      </trkpt>
      <trkpt lat="50.01879" lon="2.02881">
        <ele>10.2</ele>
        <time>2022-04-12T14:13:00Z</time>
      </trkpt>
      <trkpt lat="50.01879" lon="2.02879">
        <ele>10.2</ele>
        <time>2022-04-12T14:13:01Z</time>
      </trkpt>
      <trkpt lat="50.01879" lon="2.02877">
        <ele>10.2</ele>
        <time>2022-04-12T14:13:02Z</time>
      </trkpt>
      <trkpt lat="50.0188" lon="2.02875">
        <ele>10.1</ele>
        <time>2022-04-12T14:13:03Z</time>
      </trkpt>
      <trkpt lat="50.0188" lon="2.02874">
        <ele>10.1</ele>
        <time>2022-04-12T14:13:04Z</time>
      </trkpt>
      <trkpt lat="50.01881" lon="2.02871">
        <ele>10.1</ele>
        <time>2022-04-12T14:13:06Z</time>
      </trkpt>
      <trkpt lat="50.01881" lon="2.0287">
        <ele>10.1</ele>
        <time>2022-04-12T14:13:07Z</time>
      </trkpt>
      <trkpt lat="50.01882" lon="2.02869">
        <ele>10.1</ele>
        <time>2022-04-12T14:13:08Z</time>
      </trkpt>
      <trkpt lat="50.01882" lon="2.02867">
        <ele>10.1</ele>
        <time>2022-04-12T14:13:09Z</time>
      </trkpt>
      <trkpt lat="50.01883" lon="2.02866">
        <ele>10.1</ele>
        <time>2022-04-12T14:13:10Z</time>
      </trkpt>
      <trkpt lat="50.01883" lon="2.02865">
        <ele>10.1</ele>
        <time>2022-04-12T14:13:11Z</time>
      </trkpt>
      <trkpt lat="50.01883" lon="2.02863">
        <ele>10.1</ele>
        <time>2022-04-12T14:13:12Z</time>
      </trkpt>
      <trkpt lat="50.01884" lon="2.02861">
        <ele>10.1</ele>
        <time>2022-04-12T14:13:13Z</time>
      </trkpt>
      <trkpt lat="50.01884" lon="2.0286">
        <ele>10.1</ele>
        <time>2022-04-12T14:13:15Z</time>
      </trkpt>
      <trkpt lat="50.01885" lon="2.02858">
        <ele>10.1</ele>
        <time>2022-04-12T14:13:16Z</time>
      </trkpt>
      <trkpt lat="50.01886" lon="2.02857">
        <ele>10.1</ele>
        <time>2022-04-12T14:13:17Z</time>
      </trkpt>
      <trkpt lat="50.01886" lon="2.02856">
        <ele>10.1</ele>
        <time>2022-04-12T14:13:18Z</time>
      </trkpt>
      <trkpt lat="50.01887" lon="2.02854">
        <ele>10.1</ele>
        <time>2022-04-12T14:13:19Z</time>
      </trkpt>
      <trkpt lat="50.01888" lon="2.02853">
        <ele>10.1</ele>
        <time>2022-04-12T14:13:20Z</time>
      </trkpt>
      <trkpt lat="50.01888" lon="2.02851">
        <ele>10.1</ele>
        <time>2022-04-12T14:13:21Z</time>
      </trkpt>
      <trkpt lat="50.01889" lon="2.02848">
        <ele>10.1</ele>
        <time>2022-04-12T14:13:22Z</time>
      </trkpt>
      <trkpt lat="50.01889" lon="2.02847">
        <ele>10.1</ele>
        <time>2022-04-12T14:13:23Z</time>
      </trkpt>
      <trkpt lat="50.0189" lon="2.02846">
        <ele>10.1</ele>
        <time>2022-04-12T14:13:24Z</time>
      </trkpt>
      <trkpt lat="50.01891" lon="2.02843">
        <ele>10.1</ele>
        <time>2022-04-12T14:13:26Z</time>
      </trkpt>
      <trkpt lat="50.01891" lon="2.02842">
        <ele>10.1</ele>
        <time>2022-04-12T14:13:27Z</time>
      </trkpt>
      <trkpt lat="50.01892" lon="2.02841">
        <ele>10.1</ele>
        <time>2022-04-12T14:13:28Z</time>
      </trkpt>
      <trkpt lat="50.01892" lon="2.02839">
        <ele>10.1</ele>
        <time>2022-04-12T14:13:29Z</time>
      </trkpt>
      <trkpt lat="50.01893" lon="2.02838">
        <ele>10.1</ele>
        <time>2022-04-12T14:13:30Z</time>
      </trkpt>
      <trkpt lat="50.01894" lon="2.02837">
        <ele>10.1</ele>
        <time>2022-04-12T14:13:31Z</time>
      </trkpt>
      <trkpt lat="50.01894" lon="2.02835">
        <ele>10.1</ele>
        <time>2022-04-12T14:13:33Z</time>
      </trkpt>
      <trkpt lat="50.01895" lon="2.02833">
        <ele>10.1</ele>
        <time>2022-04-12T14:13:34Z</time>
      </trkpt>
      <trkpt lat="50.01895" lon="2.02832">
        <ele>10.1</ele>
        <time>2022-04-12T14:13:35Z</time>
      </trkpt>
      <trkpt lat="50.01896" lon="2.02829">
        <ele>10.1</ele>
        <time>2022-04-12T14:13:36Z</time>
      </trkpt>
      <trkpt lat="50.01897" lon="2.02828">
        <ele>10.1</ele>
        <time>2022-04-12T14:13:37Z</time>
      </trkpt>
      <trkpt lat="50.01897" lon="2.02827">
        <ele>10.1</ele>
        <time>2022-04-12T14:13:38Z</time>
      </trkpt>
      <trkpt lat="50.01898" lon="2.02825">
        <ele>10.1</ele>
        <time>2022-04-12T14:13:40Z</time>
      </trkpt>
      <trkpt lat="50.01898" lon="2.02823">
        <ele>10.1</ele>
        <time>2022-04-12T14:13:41Z</time>
      </trkpt>
      <trkpt lat="50.01899" lon="2.02822">
        <ele>10.1</ele>
        <time>2022-04-12T14:13:42Z</time>
      </trkpt>
      <trkpt lat="50.019" lon="2.02819">
        <ele>10.1</ele>
        <time>2022-04-12T14:13:43Z</time>
      </trkpt>
      <trkpt lat="50.019" lon="2.02818">
        <ele>10.1</ele>
        <time>2022-04-12T14:13:44Z</time>
      </trkpt>
      <trkpt lat="50.01901" lon="2.02817">
        <ele>10.1</ele>
        <time>2022-04-12T14:13:45Z</time>
      </trkpt>
      <trkpt lat="50.01901" lon="2.02815">
        <ele>10.1</ele>
        <time>2022-04-12T14:13:46Z</time>
      </trkpt>
      <trkpt lat="50.01902" lon="2.02813">
        <ele>10.1</ele>
        <time>2022-04-12T14:13:47Z</time>
      </trkpt>
      <trkpt lat="50.01902" lon="2.02812">
        <ele>10.1</ele>
        <time>2022-04-12T14:13:49Z</time>
      </trkpt>
      <trkpt lat="50.01903" lon="2.0281">
        <ele>10.1</ele>
        <time>2022-04-12T14:13:50Z</time>
      </trkpt>
      <trkpt lat="50.01904" lon="2.02808">
        <ele>10.1</ele>
        <time>2022-04-12T14:13:51Z</time>
      </trkpt>
      <trkpt lat="50.01905" lon="2.02805">
        <ele>10.1</ele>
        <time>2022-04-12T14:13:52Z</time>
      </trkpt>
      <trkpt lat="50.01905" lon="2.02804">
        <ele>10.1</ele>
        <time>2022-04-12T14:13:54Z</time>
      </trkpt>
      <trkpt lat="50.01905" lon="2.02803">
        <ele>10.1</ele>
        <time>2022-04-12T14:13:55Z</time>
      </trkpt>
      <trkpt lat="50.01906" lon="2.02801">
        <ele>10.1</ele>
        <time>2022-04-12T14:13:56Z</time>
      </trkpt>
      <trkpt lat="50.01907" lon="2.028">
        <ele>10.1</ele>
        <time>2022-04-12T14:13:57Z</time>
      </trkpt>
      <trkpt lat="50.01907" lon="2.02798">
        <ele>10.1</ele>
        <time>2022-04-12T14:13:58Z</time>
      </trkpt>
      <trkpt lat="50.01908" lon="2.02797">
        <ele>10.1</ele>
        <time>2022-04-12T14:13:59Z</time>
      </trkpt>
      <trkpt lat="50.01908" lon="2.02795">
        <ele>10.1</ele>
        <time>2022-04-12T14:14:00Z</time>
      </trkpt>
      <trkpt lat="50.01909" lon="2.02794">
        <ele>10.1</ele>
        <time>2022-04-12T14:14:02Z</time>
      </trkpt>
      <trkpt lat="50.01909" lon="2.02792">
        <ele>10.1</ele>
        <time>2022-04-12T14:14:03Z</time>
      </trkpt>
      <trkpt lat="50.0191" lon="2.02791">
        <ele>10.1</ele>
        <time>2022-04-12T14:14:04Z</time>
      </trkpt>
      <trkpt lat="50.0191" lon="2.02789">
        <ele>10.1</ele>
        <time>2022-04-12T14:14:05Z</time>
      </trkpt>
      <trkpt lat="50.01911" lon="2.02788">
        <ele>10.1</ele>
        <time>2022-04-12T14:14:06Z</time>
      </trkpt>
      <trkpt lat="50.01911" lon="2.02786">
        <ele>10.1</ele>
        <time>2022-04-12T14:14:07Z</time>
      </trkpt>
      <trkpt lat="50.01912" lon="2.02784">
        <ele>10.1</ele>
        <time>2022-04-12T14:14:09Z</time>
      </trkpt>
      <trkpt lat="50.01913" lon="2.02783">
        <ele>10.1</ele>
        <time>2022-04-12T14:14:10Z</time>
      </trkpt>
      <trkpt lat="50.01914" lon="2.02783">
        <ele>10.1</ele>
        <time>2022-04-12T14:14:11Z</time>
      </trkpt>
      <trkpt lat="50.01914" lon="2.02783">
        <ele>10.1</ele>
        <time>2022-04-12T14:14:12Z</time>
      </trkpt>
      <trkpt lat="50.01914" lon="2.02784">
        <ele>10.1</ele>
        <time>2022-04-12T14:14:13Z</time>
      </trkpt>
      <trkpt lat="50.01915" lon="2.02784">
        <ele>10.1</ele>
        <time>2022-04-12T14:14:14Z</time>
      </trkpt>
      <trkpt lat="50.01915" lon="2.02785">
        <ele>10.1</ele>
        <time>2022-04-12T14:14:15Z</time>
      </trkpt>
      <trkpt lat="50.01914" lon="2.02785">
        <ele>10.1</ele>
        <time>2022-04-12T14:14:16Z</time>
      </trkpt>
      <trkpt lat="50.01914" lon="2.02785">
        <ele>10.1</ele>
        <time>2022-04-12T14:14:17Z</time>
      </trkpt>
      <trkpt lat="50.01914" lon="2.02786">
        <ele>10.1</ele>
        <time>2022-04-12T14:14:18Z</time>
      </trkpt>
      <trkpt lat="50.01914" lon="2.02786">
        <ele>10.1</ele>
        <time>2022-04-12T14:14:19Z</time>
      </trkpt>
      <trkpt lat="50.01915" lon="2.02786">
        <ele>10.1</ele>
        <time>2022-04-12T14:14:20Z</time>
      </trkpt>
      <trkpt lat="50.01915" lon="2.02786">
        <ele>10.1</ele>
        <time>2022-04-12T14:14:21Z</time>
      </trkpt>
      <trkpt lat="50.01915" lon="2.02786">
        <ele>10.1</ele>
        <time>2022-04-12T14:14:22Z</time>
      </trkpt>
      <trkpt lat="50.01915" lon="2.02786">
        <ele>10.1</ele>
        <time>2022-04-12T14:14:23Z</time>
      </trkpt>
      <trkpt lat="50.01915" lon="2.02786">
        <ele>10.1</ele>
        <time>2022-04-12T14:14:24Z</time>
      </trkpt>
      <trkpt lat="50.01915" lon="2.02786">
        <ele>10.1</ele>
        <time>2022-04-12T14:14:25Z</time>
      </trkpt>
      <trkpt lat="50.01915" lon="2.02786">
        <ele>10.1</ele>
        <time>2022-04-12T14:14:26Z</time>
      </trkpt>
      <trkpt lat="50.01915" lon="2.02786">
        <ele>10.1</ele>
        <time>2022-04-12T14:14:27Z</time>
      </trkpt>
      <trkpt lat="50.01915" lon="2.02786">
        <ele>10.1</ele>
        <time>2022-04-12T14:14:28Z</time>
      </trkpt>
      <trkpt lat="50.01915" lon="2.02786">
        <ele>10.1</ele>
        <time>2022-04-12T14:14:29Z</time>
      </trkpt>
      <trkpt lat="50.01915" lon="2.02786">
        <ele>10.1</ele>
        <time>2022-04-12T14:14:30Z</time>
      </trkpt>
      <trkpt lat="50.01915" lon="2.02786">
        <ele>10.1</ele>
        <time>2022-04-12T14:14:31Z</time>
      </trkpt>
      <trkpt lat="50.01914" lon="2.02786">
        <ele>10.1</ele>
        <time>2022-04-12T14:14:32Z</time>
      </trkpt>
      <trkpt lat="50.01914" lon="2.02785">
        <ele>10.1</ele>
        <time>2022-04-12T14:14:33Z</time>
      </trkpt>
      <trkpt lat="50.01914" lon="2.02785">
        <ele>10.1</ele>
        <time>2022-04-12T14:14:34Z</time>
      </trkpt>
      <trkpt lat="50.01914" lon="2.02785">
        <ele>10.1</ele>
        <time>2022-04-12T14:14:35Z</time>
      </trkpt>
      <trkpt lat="50.01914" lon="2.02785">
        <ele>10.1</ele>
        <time>2022-04-12T14:14:36Z</time>
      </trkpt>
      <trkpt lat="50.01915" lon="2.02785">
        <ele>10.1</ele>
        <time>2022-04-12T14:14:37Z</time>
      </trkpt>
      <trkpt lat="50.01915" lon="2.02785">
        <ele>10.1</ele>
        <time>2022-04-12T14:14:38Z</time>
      </trkpt>
      <trkpt lat="50.01915" lon="2.02784">
        <ele>10.1</ele>
        <time>2022-04-12T14:14:39Z</time>
      </trkpt>
      <trkpt lat="50.01915" lon="2.02783">
        <ele>10.1</ele>
        <time>2022-04-12T14:14:40Z</time>
      </trkpt>
      <trkpt lat="50.01916" lon="2.02782">
        <ele>10.1</ele>
        <time>2022-04-12T14:14:41Z</time>
      </trkpt>
      <trkpt lat="50.01916" lon="2.02781">
        <ele>10.1</ele>
        <time>2022-04-12T14:14:43Z</time>
      </trkpt>
      <trkpt lat="50.01916" lon="2.0278">
        <ele>10.1</ele>
        <time>2022-04-12T14:14:44Z</time>
      </trkpt>
      <trkpt lat="50.01917" lon="2.02778">
        <ele>10.1</ele>
        <time>2022-04-12T14:14:45Z</time>
      </trkpt>
      <trkpt lat="50.01918" lon="2.02777">
        <ele>10.1</ele>
        <time>2022-04-12T14:14:46Z</time>
      </trkpt>
      <trkpt lat="50.01919" lon="2.02774">
        <ele>10.1</ele>
        <time>2022-04-12T14:14:47Z</time>
      </trkpt>
      <trkpt lat="50.01919" lon="2.02773">
        <ele>10.2</ele>
        <time>2022-04-12T14:14:49Z</time>
      </trkpt>
      <trkpt lat="50.0192" lon="2.02772">
        <ele>10.2</ele>
        <time>2022-04-12T14:14:50Z</time>
      </trkpt>
      <trkpt lat="50.01921" lon="2.02769">
        <ele>10.2</ele>
        <time>2022-04-12T14:14:51Z</time>
      </trkpt>
      <trkpt lat="50.01921" lon="2.02767">
        <ele>10.2</ele>
        <time>2022-04-12T14:14:52Z</time>
      </trkpt>
      <trkpt lat="50.01921" lon="2.02766">
        <ele>10.2</ele>
        <time>2022-04-12T14:14:53Z</time>
      </trkpt>
      <trkpt lat="50.01922" lon="2.02764">
        <ele>10.2</ele>
        <time>2022-04-12T14:14:54Z</time>
      </trkpt>
      <trkpt lat="50.01923" lon="2.02762">
        <ele>10.2</ele>
        <time>2022-04-12T14:14:55Z</time>
      </trkpt>
      <trkpt lat="50.01924" lon="2.02758">
        <ele>10.2</ele>
        <time>2022-04-12T14:14:56Z</time>
      </trkpt>
      <trkpt lat="50.01925" lon="2.02757">
        <ele>10.2</ele>
        <time>2022-04-12T14:14:58Z</time>
      </trkpt>
      <trkpt lat="50.01925" lon="2.02756">
        <ele>10.2</ele>
        <time>2022-04-12T14:14:59Z</time>
      </trkpt>
      <trkpt lat="50.01926" lon="2.02754">
        <ele>10.2</ele>
        <time>2022-04-12T14:15:00Z</time>
      </trkpt>
      <trkpt lat="50.01926" lon="2.02753">
        <ele>10.2</ele>
        <time>2022-04-12T14:15:01Z</time>
      </trkpt>
      <trkpt lat="50.01926" lon="2.02751">
        <ele>10.2</ele>
        <time>2022-04-12T14:15:02Z</time>
      </trkpt>
      <trkpt lat="50.01927" lon="2.02749">
        <ele>10.2</ele>
        <time>2022-04-12T14:15:03Z</time>
      </trkpt>
      <trkpt lat="50.01928" lon="2.02747">
        <ele>10.2</ele>
        <time>2022-04-12T14:15:04Z</time>
      </trkpt>
      <trkpt lat="50.01929" lon="2.02746">
        <ele>10.2</ele>
        <time>2022-04-12T14:15:05Z</time>
      </trkpt>
      <trkpt lat="50.0193" lon="2.02744">
        <ele>10.2</ele>
        <time>2022-04-12T14:15:07Z</time>
      </trkpt>
      <trkpt lat="50.01931" lon="2.02741">
        <ele>10.2</ele>
        <time>2022-04-12T14:15:08Z</time>
      </trkpt>
      <trkpt lat="50.01931" lon="2.0274">
        <ele>10.2</ele>
        <time>2022-04-12T14:15:09Z</time>
      </trkpt>
      <trkpt lat="50.01932" lon="2.02739">
        <ele>10.2</ele>
        <time>2022-04-12T14:15:10Z</time>
      </trkpt>
      <trkpt lat="50.01932" lon="2.02738">
        <ele>10.2</ele>
        <time>2022-04-12T14:15:11Z</time>
      </trkpt>
      <trkpt lat="50.01933" lon="2.02737">
        <ele>10.2</ele>
        <time>2022-04-12T14:15:12Z</time>
      </trkpt>
      <trkpt lat="50.01933" lon="2.02735">
        <ele>10.2</ele>
        <time>2022-04-12T14:15:13Z</time>
      </trkpt>
      <trkpt lat="50.01934" lon="2.02731">
        <ele>10.2</ele>
        <time>2022-04-12T14:15:14Z</time>
      </trkpt>
      <trkpt lat="50.01935" lon="2.0273">
        <ele>10.2</ele>
        <time>2022-04-12T14:15:16Z</time>
      </trkpt>
      <trkpt lat="50.01935" lon="2.02728">
        <ele>10.2</ele>
        <time>2022-04-12T14:15:17Z</time>
      </trkpt>
      <trkpt lat="50.01935" lon="2.02727">
        <ele>10.2</ele>
        <time>2022-04-12T14:15:18Z</time>
      </trkpt>
      <trkpt lat="50.01936" lon="2.02725">
        <ele>10.2</ele>
        <time>2022-04-12T14:15:19Z</time>
      </trkpt>
      <trkpt lat="50.01936" lon="2.02723">
        <ele>10.2</ele>
        <time>2022-04-12T14:15:20Z</time>
      </trkpt>
      <trkpt lat="50.01937" lon="2.02721">
        <ele>10.2</ele>
        <time>2022-04-12T14:15:21Z</time>
      </trkpt>
      <trkpt lat="50.01937" lon="2.02718">
        <ele>10.2</ele>
        <time>2022-04-12T14:15:22Z</time>
      </trkpt>
      <trkpt lat="50.01937" lon="2.02717">
        <ele>10.2</ele>
        <time>2022-04-12T14:15:23Z</time>
      </trkpt>
      <trkpt lat="50.01938" lon="2.02715">
        <ele>10.2</ele>
        <time>2022-04-12T14:15:24Z</time>
      </trkpt>
      <trkpt lat="50.01938" lon="2.02712">
        <ele>10.2</ele>
        <time>2022-04-12T14:15:26Z</time>
      </trkpt>
      <trkpt lat="50.01938" lon="2.02711">
        <ele>10.2</ele>
        <time>2022-04-12T14:15:27Z</time>
      </trkpt>
      <trkpt lat="50.01938" lon="2.0271">
        <ele>10.2</ele>
        <time>2022-04-12T14:15:28Z</time>
      </trkpt>
      <trkpt lat="50.01939" lon="2.02707">
        <ele>10.2</ele>
        <time>2022-04-12T14:15:29Z</time>
      </trkpt>
      <trkpt lat="50.0194" lon="2.02705">
        <ele>10.2</ele>
        <time>2022-04-12T14:15:30Z</time>
      </trkpt>
      <trkpt lat="50.0194" lon="2.02704">
        <ele>10.2</ele>
        <time>2022-04-12T14:15:31Z</time>
      </trkpt>
      <trkpt lat="50.01941" lon="2.02703">
        <ele>10.2</ele>
        <time>2022-04-12T14:15:32Z</time>
      </trkpt>
      <trkpt lat="50.01941" lon="2.02701">
        <ele>10.2</ele>
        <time>2022-04-12T14:15:33Z</time>
      </trkpt>
      <trkpt lat="50.01942" lon="2.02699">
        <ele>10.2</ele>
        <time>2022-04-12T14:15:34Z</time>
      </trkpt>
      <trkpt lat="50.01942" lon="2.02698">
        <ele>10.2</ele>
        <time>2022-04-12T14:15:36Z</time>
      </trkpt>
      <trkpt lat="50.01943" lon="2.02696">
        <ele>10.2</ele>
        <time>2022-04-12T14:15:37Z</time>
      </trkpt>
      <trkpt lat="50.01943" lon="2.02695">
        <ele>10.2</ele>
        <time>2022-04-12T14:15:38Z</time>
      </trkpt>
      <trkpt lat="50.01943" lon="2.02693">
        <ele>10.2</ele>
        <time>2022-04-12T14:15:39Z</time>
      </trkpt>
      <trkpt lat="50.01944" lon="2.02691">
        <ele>10.2</ele>
        <time>2022-04-12T14:15:40Z</time>
      </trkpt>
      <trkpt lat="50.01944" lon="2.0269">
        <ele>10.2</ele>
        <time>2022-04-12T14:15:41Z</time>
      </trkpt>
      <trkpt lat="50.01945" lon="2.02689">
        <ele>10.2</ele>
        <time>2022-04-12T14:15:42Z</time>
      </trkpt>
      <trkpt lat="50.01945" lon="2.02687">
        <ele>10.2</ele>
        <time>2022-04-12T14:15:44Z</time>
      </trkpt>
      <trkpt lat="50.01946" lon="2.02686">
        <ele>10.2</ele>
        <time>2022-04-12T14:15:45Z</time>
      </trkpt>
      <trkpt lat="50.01946" lon="2.02685">
        <ele>10.2</ele>
        <time>2022-04-12T14:15:46Z</time>
      </trkpt>
      <trkpt lat="50.01947" lon="2.02684">
        <ele>10.2</ele>
        <time>2022-04-12T14:15:47Z</time>
      </trkpt>
      <trkpt lat="50.01947" lon="2.02682">
        <ele>10.2</ele>
        <time>2022-04-12T14:15:48Z</time>
      </trkpt>
      <trkpt lat="50.01947" lon="2.02681">
        <ele>10.2</ele>
        <time>2022-04-12T14:15:49Z</time>
      </trkpt>
      <trkpt lat="50.01947" lon="2.02679">
        <ele>10.2</ele>
        <time>2022-04-12T14:15:50Z</time>
      </trkpt>
      <trkpt lat="50.01948" lon="2.02677">
        <ele>10.2</ele>
        <time>2022-04-12T14:15:51Z</time>
      </trkpt>
      <trkpt lat="50.01948" lon="2.02676">
        <ele>10.2</ele>
        <time>2022-04-12T14:15:53Z</time>
      </trkpt>
      <trkpt lat="50.01949" lon="2.02674">
        <ele>10.2</ele>
        <time>2022-04-12T14:15:54Z</time>
      </trkpt>
      <trkpt lat="50.01949" lon="2.02673">
        <ele>10.2</ele>
        <time>2022-04-12T14:15:55Z</time>
      </trkpt>
      <trkpt lat="50.01949" lon="2.02671">
        <ele>10.2</ele>
        <time>2022-04-12T14:15:56Z</time>
      </trkpt>
      <trkpt lat="50.0195" lon="2.0267">
        <ele>10.2</ele>
        <time>2022-04-12T14:15:57Z</time>
      </trkpt>
      <trkpt lat="50.0195" lon="2.02668">
        <ele>10.2</ele>
        <time>2022-04-12T14:15:58Z</time>
      </trkpt>
      <trkpt lat="50.01951" lon="2.02666">
        <ele>10.2</ele>
        <time>2022-04-12T14:15:59Z</time>
      </trkpt>
      <trkpt lat="50.01951" lon="2.02665">
        <ele>10.2</ele>
        <time>2022-04-12T14:16:00Z</time>
      </trkpt>
      <trkpt lat="50.01952" lon="2.02663">
        <ele>10.2</ele>
        <time>2022-04-12T14:16:02Z</time>
      </trkpt>
      <trkpt lat="50.01952" lon="2.02662">
        <ele>10.2</ele>
        <time>2022-04-12T14:16:03Z</time>
      </trkpt>
      <trkpt lat="50.01953" lon="2.0266">
        <ele>10.2</ele>
        <time>2022-04-12T14:16:04Z</time>
      </trkpt>
      <trkpt lat="50.01953" lon="2.02658">
        <ele>10.2</ele>
        <time>2022-04-12T14:16:05Z</time>
      </trkpt>
      <trkpt lat="50.01953" lon="2.02656">
        <ele>10.2</ele>
        <time>2022-04-12T14:16:06Z</time>
      </trkpt>
      <trkpt lat="50.01954" lon="2.02653">
        <ele>10.2</ele>
        <time>2022-04-12T14:16:07Z</time>
      </trkpt>
      <trkpt lat="50.01954" lon="2.02652">
        <ele>10.2</ele>
        <time>2022-04-12T14:16:09Z</time>
      </trkpt>
      <trkpt lat="50.01955" lon="2.02651">
        <ele>10.2</ele>
        <time>2022-04-12T14:16:10Z</time>
      </trkpt>
      <trkpt lat="50.01955" lon="2.0265">
        <ele>10.2</ele>
        <time>2022-04-12T14:16:11Z</time>
      </trkpt>
      <trkpt lat="50.01956" lon="2.02648">
        <ele>10.2</ele>
        <time>2022-04-12T14:16:12Z</time>
      </trkpt>
      <trkpt lat="50.01956" lon="2.02646">
        <ele>10.2</ele>
        <time>2022-04-12T14:16:13Z</time>
      </trkpt>
      <trkpt lat="50.01957" lon="2.02645">
        <ele>10.2</ele>
        <time>2022-04-12T14:16:14Z</time>
      </trkpt>
      <trkpt lat="50.01958" lon="2.02644">
        <ele>10.2</ele>
        <time>2022-04-12T14:16:15Z</time>
      </trkpt>
      <trkpt lat="50.01958" lon="2.02642">
        <ele>10.2</ele>
        <time>2022-04-12T14:16:16Z</time>
      </trkpt>
      <trkpt lat="50.01959" lon="2.02641">
        <ele>10.2</ele>
        <time>2022-04-12T14:16:17Z</time>
      </trkpt>
      <trkpt lat="50.01959" lon="2.02639">
        <ele>10.2</ele>
        <time>2022-04-12T14:16:18Z</time>
      </trkpt>
      <trkpt lat="50.0196" lon="2.02637">
        <ele>10.2</ele>
        <time>2022-04-12T14:16:20Z</time>
      </trkpt>
      <trkpt lat="50.0196" lon="2.02636">
        <ele>10.2</ele>
        <time>2022-04-12T14:16:21Z</time>
      </trkpt>
      <trkpt lat="50.01961" lon="2.02634">
        <ele>10.2</ele>
        <time>2022-04-12T14:16:22Z</time>
      </trkpt>
      <trkpt lat="50.01961" lon="2.02632">
        <ele>10.2</ele>
        <time>2022-04-12T14:16:23Z</time>
      </trkpt>
      <trkpt lat="50.01961" lon="2.0263">
        <ele>10.2</ele>
        <time>2022-04-12T14:16:24Z</time>
      </trkpt>
      <trkpt lat="50.01962" lon="2.02629">
        <ele>10.2</ele>
        <time>2022-04-12T14:16:25Z</time>
      </trkpt>
      <trkpt lat="50.01962" lon="2.02628">
        <ele>10.2</ele>
        <time>2022-04-12T14:16:26Z</time>
      </trkpt>
      <trkpt lat="50.01963" lon="2.02626">
        <ele>10.2</ele>
        <time>2022-04-12T14:16:28Z</time>
      </trkpt>
      <trkpt lat="50.01963" lon="2.02625">
        <ele>10.2</ele>
        <time>2022-04-12T14:16:29Z</time>
      </trkpt>
      <trkpt lat="50.01964" lon="2.02623">
        <ele>10.2</ele>
        <time>2022-04-12T14:16:30Z</time>
      </trkpt>
      <trkpt lat="50.01965" lon="2.02622">
        <ele>10.2</ele>
        <time>2022-04-12T14:16:31Z</time>
      </trkpt>
      <trkpt lat="50.01965" lon="2.02621">
        <ele>10.2</ele>
        <time>2022-04-12T14:16:32Z</time>
      </trkpt>
      <trkpt lat="50.01966" lon="2.02619">
        <ele>10.2</ele>
        <time>2022-04-12T14:16:33Z</time>
      </trkpt>
      <trkpt lat="50.01967" lon="2.02617">
        <ele>10.2</ele>
        <time>2022-04-12T14:16:34Z</time>
      </trkpt>
      <trkpt lat="50.01968" lon="2.02616">
        <ele>10.2</ele>
        <time>2022-04-12T14:16:35Z</time>
      </trkpt>
      <trkpt lat="50.01968" lon="2.02615">
        <ele>10.2</ele>
        <time>2022-04-12T14:16:36Z</time>
      </trkpt>
      <trkpt lat="50.01969" lon="2.02613">
        <ele>10.2</ele>
        <time>2022-04-12T14:16:38Z</time>
      </trkpt>
      <trkpt lat="50.01969" lon="2.02612">
        <ele>10.2</ele>
        <time>2022-04-12T14:16:39Z</time>
      </trkpt>
      <trkpt lat="50.0197" lon="2.0261">
        <ele>10.2</ele>
        <time>2022-04-12T14:16:40Z</time>
      </trkpt>
      <trkpt lat="50.01971" lon="2.02609">
        <ele>10.2</ele>
        <time>2022-04-12T14:16:41Z</time>
      </trkpt>
      <trkpt lat="50.01971" lon="2.02607">
        <ele>10.2</ele>
        <time>2022-04-12T14:16:42Z</time>
      </trkpt>
      <trkpt lat="50.01972" lon="2.02606">
        <ele>10.2</ele>
        <time>2022-04-12T14:16:43Z</time>
      </trkpt>
      <trkpt lat="50.01973" lon="2.02603">
        <ele>10.2</ele>
        <time>2022-04-12T14:16:44Z</time>
      </trkpt>
      <trkpt lat="50.01974" lon="2.02602">
        <ele>10.2</ele>
        <time>2022-04-12T14:16:45Z</time>
      </trkpt>
      <trkpt lat="50.01974" lon="2.02601">
        <ele>10.2</ele>
        <time>2022-04-12T14:16:46Z</time>
      </trkpt>
      <trkpt lat="50.01975" lon="2.02598">
        <ele>10.2</ele>
        <time>2022-04-12T14:16:48Z</time>
      </trkpt>
      <trkpt lat="50.01976" lon="2.02597">
        <ele>10.2</ele>
        <time>2022-04-12T14:16:49Z</time>
      </trkpt>
      <trkpt lat="50.01976" lon="2.02596">
        <ele>10.2</ele>
        <time>2022-04-12T14:16:50Z</time>
      </trkpt>
      <trkpt lat="50.01977" lon="2.02593">
        <ele>10.2</ele>
        <time>2022-04-12T14:16:51Z</time>
      </trkpt>
      <trkpt lat="50.01978" lon="2.02592">
        <ele>10.2</ele>
        <time>2022-04-12T14:16:52Z</time>
      </trkpt>
      <trkpt lat="50.01978" lon="2.02591">
        <ele>10.2</ele>
        <time>2022-04-12T14:16:53Z</time>
      </trkpt>
      <trkpt lat="50.01979" lon="2.02589">
        <ele>10.2</ele>
        <time>2022-04-12T14:16:54Z</time>
      </trkpt>
      <trkpt lat="50.01979" lon="2.02588">
        <ele>10.2</ele>
        <time>2022-04-12T14:16:55Z</time>
      </trkpt>
      <trkpt lat="50.0198" lon="2.02587">
        <ele>10.2</ele>
        <time>2022-04-12T14:16:57Z</time>
      </trkpt>
      <trkpt lat="50.01981" lon="2.02585">
        <ele>10.2</ele>
        <time>2022-04-12T14:16:58Z</time>
      </trkpt>
      <trkpt lat="50.01981" lon="2.02584">
        <ele>10.2</ele>
        <time>2022-04-12T14:16:59Z</time>
      </trkpt>
      <trkpt lat="50.01982" lon="2.02582">
        <ele>10.2</ele>
        <time>2022-04-12T14:17:00Z</time>
      </trkpt>
      <trkpt lat="50.01982" lon="2.02579">
        <ele>10.2</ele>
        <time>2022-04-12T14:17:01Z</time>
      </trkpt>
      <trkpt lat="50.01982" lon="2.02578">
        <ele>10.2</ele>
        <time>2022-04-12T14:17:02Z</time>
      </trkpt>
      <trkpt lat="50.01983" lon="2.02576">
        <ele>10.2</ele>
        <time>2022-04-12T14:17:03Z</time>
      </trkpt>
      <trkpt lat="50.01983" lon="2.02575">
        <ele>10.2</ele>
        <time>2022-04-12T14:17:04Z</time>
      </trkpt>
      <trkpt lat="50.01983" lon="2.02573">
        <ele>10.2</ele>
        <time>2022-04-12T14:17:06Z</time>
      </trkpt>
      <trkpt lat="50.01983" lon="2.02571">
        <ele>10.2</ele>
        <time>2022-04-12T14:17:07Z</time>
      </trkpt>
      <trkpt lat="50.01984" lon="2.02569">
        <ele>10.2</ele>
        <time>2022-04-12T14:17:08Z</time>
      </trkpt>
      <trkpt lat="50.01984" lon="2.02568">
        <ele>10.2</ele>
        <time>2022-04-12T14:17:09Z</time>
      </trkpt>
      <trkpt lat="50.01985" lon="2.02566">
        <ele>10.2</ele>
        <time>2022-04-12T14:17:10Z</time>
      </trkpt>
      <trkpt lat="50.01985" lon="2.02563">
        <ele>10.2</ele>
        <time>2022-04-12T14:17:12Z</time>
      </trkpt>
      <trkpt lat="50.01986" lon="2.02561">
        <ele>10.2</ele>
        <time>2022-04-12T14:17:13Z</time>
      </trkpt>
      <trkpt lat="50.01987" lon="2.02559">
        <ele>10.2</ele>
        <time>2022-04-12T14:17:14Z</time>
      </trkpt>
      <trkpt lat="50.01987" lon="2.02557">
        <ele>10.2</ele>
        <time>2022-04-12T14:17:15Z</time>
      </trkpt>
      <trkpt lat="50.01987" lon="2.02556">
        <ele>10.2</ele>
        <time>2022-04-12T14:17:16Z</time>
      </trkpt>
      <trkpt lat="50.01988" lon="2.02555">
        <ele>10.2</ele>
        <time>2022-04-12T14:17:17Z</time>
      </trkpt>
      <trkpt lat="50.01988" lon="2.02553">
        <ele>10.3</ele>
        <time>2022-04-12T14:17:18Z</time>
      </trkpt>
      <trkpt lat="50.01989" lon="2.02551">
        <ele>10.3</ele>
        <time>2022-04-12T14:17:20Z</time>
      </trkpt>
      <trkpt lat="50.0199" lon="2.0255">
        <ele>10.3</ele>
        <time>2022-04-12T14:17:21Z</time>
      </trkpt>
      <trkpt lat="50.0199" lon="2.02548">
        <ele>10.3</ele>
        <time>2022-04-12T14:17:22Z</time>
      </trkpt>
      <trkpt lat="50.0199" lon="2.02547">
        <ele>10.3</ele>
        <time>2022-04-12T14:17:23Z</time>
      </trkpt>
      <trkpt lat="50.0199" lon="2.02546">
        <ele>10.3</ele>
        <time>2022-04-12T14:17:24Z</time>
      </trkpt>
      <trkpt lat="50.01991" lon="2.02544">
        <ele>10.3</ele>
        <time>2022-04-12T14:17:25Z</time>
      </trkpt>
      <trkpt lat="50.01991" lon="2.02542">
        <ele>10.3</ele>
        <time>2022-04-12T14:17:26Z</time>
      </trkpt>
      <trkpt lat="50.01992" lon="2.0254">
        <ele>10.3</ele>
        <time>2022-04-12T14:17:27Z</time>
      </trkpt>
      <trkpt lat="50.01993" lon="2.02539">
        <ele>10.3</ele>
        <time>2022-04-12T14:17:29Z</time>
      </trkpt>
      <trkpt lat="50.01993" lon="2.02538">
        <ele>10.3</ele>
        <time>2022-04-12T14:17:30Z</time>
      </trkpt>
      <trkpt lat="50.01994" lon="2.02537">
        <ele>10.3</ele>
        <time>2022-04-12T14:17:31Z</time>
      </trkpt>
      <trkpt lat="50.01995" lon="2.02535">
        <ele>10.3</ele>
        <time>2022-04-12T14:17:33Z</time>
      </trkpt>
      <trkpt lat="50.01996" lon="2.02533">
        <ele>10.3</ele>
        <time>2022-04-12T14:17:34Z</time>
      </trkpt>
      <trkpt lat="50.01996" lon="2.02532">
        <ele>10.3</ele>
        <time>2022-04-12T14:17:35Z</time>
      </trkpt>
      <trkpt lat="50.01997" lon="2.0253">
        <ele>10.3</ele>
        <time>2022-04-12T14:17:36Z</time>
      </trkpt>
      <trkpt lat="50.01998" lon="2.02529">
        <ele>10.3</ele>
        <time>2022-04-12T14:17:37Z</time>
      </trkpt>
      <trkpt lat="50.01998" lon="2.02527">
        <ele>10.3</ele>
        <time>2022-04-12T14:17:39Z</time>
      </trkpt>
      <trkpt lat="50.01999" lon="2.02526">
        <ele>10.3</ele>
        <time>2022-04-12T14:17:40Z</time>
      </trkpt>
      <trkpt lat="50.01999" lon="2.02525">
        <ele>10.3</ele>
        <time>2022-04-12T14:17:41Z</time>
      </trkpt>
      <trkpt lat="50.02" lon="2.02523">
        <ele>10.4</ele>
        <time>2022-04-12T14:17:42Z</time>
      </trkpt>
      <trkpt lat="50.02" lon="2.02522">
        <ele>10.4</ele>
        <time>2022-04-12T14:17:43Z</time>
      </trkpt>
      <trkpt lat="50.02001" lon="2.02519">
        <ele>10.4</ele>
        <time>2022-04-12T14:17:44Z</time>
      </trkpt>
      <trkpt lat="50.02001" lon="2.02518">
        <ele>10.4</ele>
        <time>2022-04-12T14:17:45Z</time>
      </trkpt>
      <trkpt lat="50.02002" lon="2.02514">
        <ele>10.4</ele>
        <time>2022-04-12T14:17:47Z</time>
      </trkpt>
      <trkpt lat="50.02002" lon="2.02513">
        <ele>10.4</ele>
        <time>2022-04-12T14:17:48Z</time>
      </trkpt>
      <trkpt lat="50.02002" lon="2.02512">
        <ele>10.4</ele>
        <time>2022-04-12T14:17:49Z</time>
      </trkpt>
      <trkpt lat="50.02003" lon="2.02509">
        <ele>10.4</ele>
        <time>2022-04-12T14:17:50Z</time>
      </trkpt>
      <trkpt lat="50.02003" lon="2.02508">
        <ele>10.4</ele>
        <time>2022-04-12T14:17:51Z</time>
      </trkpt>
      <trkpt lat="50.02004" lon="2.02507">
        <ele>10.4</ele>
        <time>2022-04-12T14:17:52Z</time>
      </trkpt>
      <trkpt lat="50.02004" lon="2.02505">
        <ele>10.5</ele>
        <time>2022-04-12T14:17:54Z</time>
      </trkpt>
      <trkpt lat="50.02005" lon="2.02504">
        <ele>10.5</ele>
        <time>2022-04-12T14:17:55Z</time>
      </trkpt>
      <trkpt lat="50.02005" lon="2.02503">
        <ele>10.5</ele>
        <time>2022-04-12T14:17:56Z</time>
      </trkpt>
      <trkpt lat="50.02006" lon="2.02502">
        <ele>10.5</ele>
        <time>2022-04-12T14:17:57Z</time>
      </trkpt>
      <trkpt lat="50.02006" lon="2.02502">
        <ele>10.5</ele>
        <time>2022-04-12T14:17:58Z</time>
      </trkpt>
      <trkpt lat="50.02006" lon="2.02502">
        <ele>10.5</ele>
        <time>2022-04-12T14:17:59Z</time>
      </trkpt>
      <trkpt lat="50.02006" lon="2.02502">
        <ele>10.5</ele>
        <time>2022-04-12T14:18:00Z</time>
      </trkpt>
      <trkpt lat="50.02006" lon="2.02502">
        <ele>10.5</ele>
        <time>2022-04-12T14:18:01Z</time>
      </trkpt>
      <trkpt lat="50.02006" lon="2.02502">
        <ele>10.5</ele>
        <time>2022-04-12T14:18:02Z</time>
      </trkpt>
      <trkpt lat="50.02006" lon="2.02502">
        <ele>10.5</ele>
        <time>2022-04-12T14:18:03Z</time>
      </trkpt>
      <trkpt lat="50.02006" lon="2.02502">
        <ele>10.5</ele>
        <time>2022-04-12T14:18:04Z</time>
      </trkpt>
      <trkpt lat="50.02006" lon="2.02502">
        <ele>10.5</ele>
        <time>2022-04-12T14:18:05Z</time>
      </trkpt>
      <trkpt lat="50.02006" lon="2.02502">
        <ele>10.5</ele>
        <time>2022-04-12T14:18:06Z</time>
      </trkpt>
      <trkpt lat="50.02006" lon="2.02502">
        <ele>10.5</ele>
        <time>2022-04-12T14:18:07Z</time>
      </trkpt>
      <trkpt lat="50.02006" lon="2.02502">
        <ele>10.5</ele>
        <time>2022-04-12T14:18:08Z</time>
      </trkpt>
      <trkpt lat="50.02006" lon="2.02501">
        <ele>10.5</ele>
        <time>2022-04-12T14:18:09Z</time>
      </trkpt>
      <trkpt lat="50.02006" lon="2.02501">
        <ele>10.5</ele>
        <time>2022-04-12T14:18:10Z</time>
      </trkpt>
      <trkpt lat="50.02006" lon="2.02501">
        <ele>10.5</ele>
        <time>2022-04-12T14:18:11Z</time>
      </trkpt>
      <trkpt lat="50.02007" lon="2.02501">
        <ele>10.5</ele>
        <time>2022-04-12T14:18:12Z</time>
      </trkpt>
      <trkpt lat="50.02007" lon="2.02501">
        <ele>10.5</ele>
        <time>2022-04-12T14:18:13Z</time>
      </trkpt>
      <trkpt lat="50.02007" lon="2.02501">
        <ele>10.5</ele>
        <time>2022-04-12T14:18:14Z</time>
      </trkpt>
      <trkpt lat="50.02007" lon="2.02501">
        <ele>10.5</ele>
        <time>2022-04-12T14:18:15Z</time>
      </trkpt>
      <trkpt lat="50.02007" lon="2.02501">
        <ele>10.5</ele>
        <time>2022-04-12T14:18:16Z</time>
      </trkpt>
      <trkpt lat="50.02007" lon="2.02501">
        <ele>10.5</ele>
        <time>2022-04-12T14:18:17Z</time>
      </trkpt>
      <trkpt lat="50.02007" lon="2.02501">
        <ele>10.5</ele>
        <time>2022-04-12T14:18:18Z</time>
      </trkpt>
      <trkpt lat="50.02007" lon="2.02501">
        <ele>10.5</ele>
        <time>2022-04-12T14:18:19Z</time>
      </trkpt>
      <trkpt lat="50.02007" lon="2.025">
        <ele>10.5</ele>
        <time>2022-04-12T14:18:20Z</time>
      </trkpt>
      <trkpt lat="50.02007" lon="2.025">
        <ele>10.5</ele>
        <time>2022-04-12T14:18:21Z</time>
      </trkpt>
      <trkpt lat="50.02007" lon="2.025">
        <ele>10.5</ele>
        <time>2022-04-12T14:18:22Z</time>
      </trkpt>
      <trkpt lat="50.02007" lon="2.025">
        <ele>10.5</ele>
        <time>2022-04-12T14:18:23Z</time>
      </trkpt>
      <trkpt lat="50.02007" lon="2.025">
        <ele>10.5</ele>
        <time>2022-04-12T14:18:24Z</time>
      </trkpt>
      <trkpt lat="50.02007" lon="2.025">
        <ele>10.5</ele>
        <time>2022-04-12T14:18:25Z</time>
      </trkpt>
      <trkpt lat="50.02007" lon="2.025">
        <ele>10.5</ele>
        <time>2022-04-12T14:18:26Z</time>
      </trkpt>
      <trkpt lat="50.02007" lon="2.025">
        <ele>10.5</ele>
        <time>2022-04-12T14:18:27Z</time>
      </trkpt>
      <trkpt lat="50.02007" lon="2.025">
        <ele>10.5</ele>
        <time>2022-04-12T14:18:28Z</time>
      </trkpt>
      <trkpt lat="50.02007" lon="2.025">
        <ele>10.5</ele>
        <time>2022-04-12T14:18:29Z</time>
      </trkpt>
      <trkpt lat="50.02007" lon="2.025">
        <ele>10.5</ele>
        <time>2022-04-12T14:18:30Z</time>
      </trkpt>
      <trkpt lat="50.02007" lon="2.025">
        <ele>10.5</ele>
        <time>2022-04-12T14:18:31Z</time>
      </trkpt>
      <trkpt lat="50.02007" lon="2.02499">
        <ele>10.5</ele>
        <time>2022-04-12T14:18:32Z</time>
      </trkpt>
      <trkpt lat="50.02007" lon="2.02499">
        <ele>10.5</ele>
        <time>2022-04-12T14:18:33Z</time>
      </trkpt>
      <trkpt lat="50.02007" lon="2.02499">
        <ele>10.5</ele>
        <time>2022-04-12T14:18:34Z</time>
      </trkpt>
      <trkpt lat="50.02007" lon="2.02499">
        <ele>10.5</ele>
        <time>2022-04-12T14:18:35Z</time>
      </trkpt>
      <trkpt lat="50.02007" lon="2.02499">
        <ele>10.5</ele>
        <time>2022-04-12T14:18:36Z</time>
      </trkpt>
      <trkpt lat="50.02007" lon="2.02499">
        <ele>10.5</ele>
        <time>2022-04-12T14:18:37Z</time>
      </trkpt>
      <trkpt lat="50.02007" lon="2.02499">
        <ele>10.5</ele>
        <time>2022-04-12T14:18:38Z</time>
      </trkpt>
      <trkpt lat="50.02007" lon="2.02499">
        <ele>10.5</ele>
        <time>2022-04-12T14:18:39Z</time>
      </trkpt>
      <trkpt lat="50.02007" lon="2.02499">
        <ele>10.5</ele>
        <time>2022-04-12T14:18:40Z</time>
      </trkpt>
      <trkpt lat="50.02007" lon="2.02499">
        <ele>10.5</ele>
        <time>2022-04-12T14:18:41Z</time>
      </trkpt>
      <trkpt lat="50.02007" lon="2.02499">
        <ele>10.5</ele>
        <time>2022-04-12T14:18:42Z</time>
      </trkpt>
      <trkpt lat="50.02008" lon="2.02498">
        <ele>10.5</ele>
        <time>2022-04-12T14:18:43Z</time>
      </trkpt>
      <trkpt lat="50.02008" lon="2.02498">
        <ele>10.5</ele>
        <time>2022-04-12T14:18:44Z</time>
      </trkpt>
      <trkpt lat="50.02008" lon="2.02498">
        <ele>10.5</ele>
        <time>2022-04-12T14:18:45Z</time>
      </trkpt>
      <trkpt lat="50.02008" lon="2.02498">
        <ele>10.5</ele>
        <time>2022-04-12T14:18:46Z</time>
      </trkpt>
      <trkpt lat="50.02008" lon="2.02498">
        <ele>10.5</ele>
        <time>2022-04-12T14:18:47Z</time>
      </trkpt>
      <trkpt lat="50.02008" lon="2.02498">
        <ele>10.5</ele>
        <time>2022-04-12T14:18:48Z</time>
      </trkpt>
      <trkpt lat="50.02008" lon="2.02498">
        <ele>10.5</ele>
        <time>2022-04-12T14:18:49Z</time>
      </trkpt>
      <trkpt lat="50.02008" lon="2.02498">
        <ele>10.5</ele>
        <time>2022-04-12T14:18:50Z</time>
      </trkpt>
      <trkpt lat="50.02008" lon="2.02498">
        <ele>10.5</ele>
        <time>2022-04-12T14:18:51Z</time>
      </trkpt>
      <trkpt lat="50.02008" lon="2.02498">
        <ele>10.5</ele>
        <time>2022-04-12T14:18:52Z</time>
      </trkpt>
      <trkpt lat="50.02008" lon="2.02498">
        <ele>10.5</ele>
        <time>2022-04-12T14:18:53Z</time>
      </trkpt>
      <trkpt lat="50.02008" lon="2.02498">
        <ele>10.5</ele>
        <time>2022-04-12T14:18:54Z</time>
      </trkpt>
      <trkpt lat="50.02008" lon="2.02497">
        <ele>10.5</ele>
        <time>2022-04-12T14:18:55Z</time>
      </trkpt>
      <trkpt lat="50.02008" lon="2.02497">
        <ele>10.5</ele>
        <time>2022-04-12T14:18:56Z</time>
      </trkpt>
      <trkpt lat="50.02008" lon="2.02497">
        <ele>10.5</ele>
        <time>2022-04-12T14:18:57Z</time>
      </trkpt>
      <trkpt lat="50.02008" lon="2.02497">
        <ele>10.5</ele>
        <time>2022-04-12T14:18:58Z</time>
      </trkpt>
      <trkpt lat="50.02008" lon="2.02497">
        <ele>10.5</ele>
        <time>2022-04-12T14:18:59Z</time>
      </trkpt>
      <trkpt lat="50.02008" lon="2.02497">
        <ele>10.5</ele>
        <time>2022-04-12T14:19:00Z</time>
      </trkpt>
      <trkpt lat="50.02008" lon="2.02497">
        <ele>10.5</ele>
        <time>2022-04-12T14:19:01Z</time>
      </trkpt>
      <trkpt lat="50.02008" lon="2.02497">
        <ele>10.5</ele>
        <time>2022-04-12T14:19:02Z</time>
      </trkpt>
      <trkpt lat="50.02008" lon="2.02497">
        <ele>10.5</ele>
        <time>2022-04-12T14:19:03Z</time>
      </trkpt>
      <trkpt lat="50.02008" lon="2.02497">
        <ele>10.5</ele>
        <time>2022-04-12T14:19:04Z</time>
      </trkpt>
      <trkpt lat="50.02008" lon="2.02497">
        <ele>10.5</ele>
        <time>2022-04-12T14:19:05Z</time>
      </trkpt>
      <trkpt lat="50.02008" lon="2.02496">
        <ele>10.5</ele>
        <time>2022-04-12T14:19:06Z</time>
      </trkpt>
      <trkpt lat="50.02008" lon="2.02496">
        <ele>10.5</ele>
        <time>2022-04-12T14:19:07Z</time>
      </trkpt>
      <trkpt lat="50.02008" lon="2.02496">
        <ele>10.5</ele>
        <time>2022-04-12T14:19:08Z</time>
      </trkpt>
      <trkpt lat="50.02008" lon="2.02496">
        <ele>10.5</ele>
        <time>2022-04-12T14:19:09Z</time>
      </trkpt>
      <trkpt lat="50.02008" lon="2.02496">
        <ele>10.5</ele>
        <time>2022-04-12T14:19:10Z</time>
      </trkpt>
      <trkpt lat="50.02008" lon="2.02496">
        <ele>10.5</ele>
        <time>2022-04-12T14:19:11Z</time>
      </trkpt>
      <trkpt lat="50.02008" lon="2.02496">
        <ele>10.5</ele>
        <time>2022-04-12T14:19:12Z</time>
      </trkpt>
      <trkpt lat="50.02008" lon="2.02496">
        <ele>10.5</ele>
        <time>2022-04-12T14:19:13Z</time>
      </trkpt>
      <trkpt lat="50.02009" lon="2.02496">
        <ele>10.5</ele>
        <time>2022-04-12T14:19:14Z</time>
      </trkpt>
      <trkpt lat="50.02009" lon="2.02496">
        <ele>10.5</ele>
        <time>2022-04-12T14:19:15Z</time>
      </trkpt>
      <trkpt lat="50.02009" lon="2.02496">
        <ele>10.5</ele>
        <time>2022-04-12T14:19:16Z</time>
      </trkpt>
      <trkpt lat="50.02009" lon="2.02496">
        <ele>10.5</ele>
        <time>2022-04-12T14:19:17Z</time>
      </trkpt>
      <trkpt lat="50.02009" lon="2.02495">
        <ele>10.5</ele>
        <time>2022-04-12T14:19:18Z</time>
      </trkpt>
      <trkpt lat="50.02009" lon="2.02495">
        <ele>10.5</ele>
        <time>2022-04-12T14:19:19Z</time>
      </trkpt>
      <trkpt lat="50.02009" lon="2.02495">
        <ele>10.5</ele>
        <time>2022-04-12T14:19:20Z</time>
      </trkpt>
      <trkpt lat="50.02009" lon="2.02495">
        <ele>10.5</ele>
        <time>2022-04-12T14:19:21Z</time>
      </trkpt>
      <trkpt lat="50.02009" lon="2.02495">
        <ele>10.5</ele>
        <time>2022-04-12T14:19:22Z</time>
      </trkpt>
      <trkpt lat="50.02009" lon="2.02495">
        <ele>10.5</ele>
        <time>2022-04-12T14:19:23Z</time>
      </trkpt>
      <trkpt lat="50.02009" lon="2.02495">
        <ele>10.5</ele>
        <time>2022-04-12T14:19:24Z</time>
      </trkpt>
      <trkpt lat="50.02009" lon="2.02495">
        <ele>10.5</ele>
        <time>2022-04-12T14:19:25Z</time>
      </trkpt>
      <trkpt lat="50.02009" lon="2.02495">
        <ele>10.5</ele>
        <time>2022-04-12T14:19:26Z</time>
      </trkpt>
      <trkpt lat="50.02009" lon="2.02495">
        <ele>10.5</ele>
        <time>2022-04-12T14:19:27Z</time>
      </trkpt>
      <trkpt lat="50.02009" lon="2.02495">
        <ele>10.6</ele>
        <time>2022-04-12T14:19:28Z</time>
      </trkpt>
      <trkpt lat="50.02009" lon="2.02494">
        <ele>10.6</ele>
        <time>2022-04-12T14:19:29Z</time>
      </trkpt>
      <trkpt lat="50.02009" lon="2.02494">
        <ele>10.6</ele>
        <time>2022-04-12T14:19:30Z</time>
      </trkpt>
      <trkpt lat="50.02009" lon="2.02494">
        <ele>10.6</ele>
        <time>2022-04-12T14:19:31Z</time>
      </trkpt>
      <trkpt lat="50.02009" lon="2.02494">
        <ele>10.6</ele>
        <time>2022-04-12T14:19:32Z</time>
      </trkpt>
      <trkpt lat="50.02009" lon="2.02494">
        <ele>10.6</ele>
        <time>2022-04-12T14:19:33Z</time>
      </trkpt>
      <trkpt lat="50.02009" lon="2.02494">
        <ele>10.6</ele>
        <time>2022-04-12T14:19:34Z</time>
      </trkpt>
      <trkpt lat="50.02009" lon="2.02494">
        <ele>10.6</ele>
        <time>2022-04-12T14:19:35Z</time>
      </trkpt>
      <trkpt lat="50.02009" lon="2.02494">
        <ele>10.6</ele>
        <time>2022-04-12T14:19:36Z</time>
      </trkpt>
      <trkpt lat="50.02009" lon="2.02494">
        <ele>10.6</ele>
        <time>2022-04-12T14:19:37Z</time>
      </trkpt>
      <trkpt lat="50.02009" lon="2.02494">
        <ele>10.6</ele>
        <time>2022-04-12T14:19:38Z</time>
      </trkpt>
      <trkpt lat="50.02009" lon="2.02494">
        <ele>10.6</ele>
        <time>2022-04-12T14:19:40Z</time>
      </trkpt>
      <trkpt lat="50.02009" lon="2.02494">
        <ele>10.6</ele>
        <time>2022-04-12T14:19:41Z</time>
      </trkpt>
      <trkpt lat="50.02009" lon="2.02493">
        <ele>10.6</ele>
        <time>2022-04-12T14:19:42Z</time>
      </trkpt>
      <trkpt lat="50.02009" lon="2.02493">
        <ele>10.6</ele>
        <time>2022-04-12T14:19:43Z</time>
      </trkpt>
      <trkpt lat="50.0201" lon="2.02491">
        <ele>10.6</ele>
        <time>2022-04-12T14:19:44Z</time>
      </trkpt>
      <trkpt lat="50.02011" lon="2.02489">
        <ele>10.6</ele>
        <time>2022-04-12T14:19:45Z</time>
      </trkpt>
      <trkpt lat="50.02013" lon="2.02487">
        <ele>10.6</ele>
        <time>2022-04-12T14:19:47Z</time>
      </trkpt>
      <trkpt lat="50.02013" lon="2.02487">
        <ele>10.6</ele>
        <time>2022-04-12T14:19:48Z</time>
      </trkpt>
      <trkpt lat="50.02014" lon="2.02486">
        <ele>10.7</ele>
        <time>2022-04-12T14:19:49Z</time>
      </trkpt>
      <trkpt lat="50.02015" lon="2.02485">
        <ele>10.7</ele>
        <time>2022-04-12T14:19:50Z</time>
      </trkpt>
      <trkpt lat="50.02016" lon="2.02485">
        <ele>10.7</ele>
        <time>2022-04-12T14:19:51Z</time>
      </trkpt>
      <trkpt lat="50.02017" lon="2.02484">
        <ele>10.7</ele>
        <time>2022-04-12T14:19:52Z</time>
      </trkpt>
      <trkpt lat="50.02019" lon="2.02482">
        <ele>10.7</ele>
        <time>2022-04-12T14:19:53Z</time>
      </trkpt>
      <trkpt lat="50.02019" lon="2.02481">
        <ele>10.8</ele>
        <time>2022-04-12T14:19:55Z</time>
      </trkpt>
      <trkpt lat="50.0202" lon="2.0248">
        <ele>10.8</ele>
        <time>2022-04-12T14:19:56Z</time>
      </trkpt>
      <trkpt lat="50.02022" lon="2.02478">
        <ele>10.8</ele>
        <time>2022-04-12T14:19:57Z</time>
      </trkpt>
      <trkpt lat="50.02022" lon="2.02477">
        <ele>10.8</ele>
        <time>2022-04-12T14:19:58Z</time>
      </trkpt>
      <trkpt lat="50.02023" lon="2.02476">
        <ele>10.8</ele>
        <time>2022-04-12T14:19:59Z</time>
      </trkpt>
      <trkpt lat="50.02025" lon="2.02474">
        <ele>10.9</ele>
        <time>2022-04-12T14:20:00Z</time>
      </trkpt>
      <trkpt lat="50.02025" lon="2.02473">
        <ele>10.9</ele>
        <time>2022-04-12T14:20:02Z</time>
      </trkpt>
      <trkpt lat="50.02026" lon="2.02472">
        <ele>10.9</ele>
        <time>2022-04-12T14:20:03Z</time>
      </trkpt>
      <trkpt lat="50.02027" lon="2.0247">
        <ele>11</ele>
        <time>2022-04-12T14:20:04Z</time>
      </trkpt>
      <trkpt lat="50.02027" lon="2.02469">
        <ele>11</ele>
        <time>2022-04-12T14:20:05Z</time>
      </trkpt>
      <trkpt lat="50.02028" lon="2.02468">
        <ele>11.1</ele>
        <time>2022-04-12T14:20:06Z</time>
      </trkpt>
      <trkpt lat="50.02028" lon="2.02466">
        <ele>11.1</ele>
        <time>2022-04-12T14:20:08Z</time>
      </trkpt>
      <trkpt lat="50.02029" lon="2.02465">
        <ele>11.1</ele>
        <time>2022-04-12T14:20:09Z</time>
      </trkpt>
      <trkpt lat="50.0203" lon="2.02464">
        <ele>11.2</ele>
        <time>2022-04-12T14:20:10Z</time>
      </trkpt>
      <trkpt lat="50.0203" lon="2.02462">
        <ele>11.2</ele>
        <time>2022-04-12T14:20:11Z</time>
      </trkpt>
      <trkpt lat="50.02031" lon="2.02461">
        <ele>11.3</ele>
        <time>2022-04-12T14:20:12Z</time>
      </trkpt>
      <trkpt lat="50.02032" lon="2.02459">
        <ele>11.3</ele>
        <time>2022-04-12T14:20:14Z</time>
      </trkpt>
      <trkpt lat="50.02032" lon="2.02457">
        <ele>11.4</ele>
        <time>2022-04-12T14:20:15Z</time>
      </trkpt>
      <trkpt lat="50.02033" lon="2.02455">
        <ele>11.4</ele>
        <time>2022-04-12T14:20:16Z</time>
      </trkpt>
      <trkpt lat="50.02033" lon="2.02454">
        <ele>11.5</ele>
        <time>2022-04-12T14:20:18Z</time>
      </trkpt>
      <trkpt lat="50.02034" lon="2.02452">
        <ele>11.5</ele>
        <time>2022-04-12T14:20:19Z</time>
      </trkpt>
      <trkpt lat="50.02034" lon="2.02451">
        <ele>11.6</ele>
        <time>2022-04-12T14:20:20Z</time>
      </trkpt>
      <trkpt lat="50.02034" lon="2.02449">
        <ele>11.6</ele>
        <time>2022-04-12T14:20:21Z</time>
      </trkpt>
      <trkpt lat="50.02034" lon="2.02448">
        <ele>11.7</ele>
        <time>2022-04-12T14:20:23Z</time>
      </trkpt>
      <trkpt lat="50.02035" lon="2.02448">
        <ele>11.7</ele>
        <time>2022-04-12T14:20:24Z</time>
      </trkpt>
      <trkpt lat="50.02035" lon="2.02447">
        <ele>11.7</ele>
        <time>2022-04-12T14:20:26Z</time>
      </trkpt>
      <trkpt lat="50.02035" lon="2.02447">
        <ele>11.8</ele>
        <time>2022-04-12T14:20:27Z</time>
      </trkpt>
      <trkpt lat="50.02035" lon="2.02447">
        <ele>11.8</ele>
        <time>2022-04-12T14:20:28Z</time>
      </trkpt>
      <trkpt lat="50.02036" lon="2.02447">
        <ele>11.8</ele>
        <time>2022-04-12T14:20:30Z</time>
      </trkpt>
      <trkpt lat="50.02036" lon="2.02446">
        <ele>11.8</ele>
        <time>2022-04-12T14:20:31Z</time>
      </trkpt>
      <trkpt lat="50.02036" lon="2.02446">
        <ele>11.8</ele>
        <time>2022-04-12T14:20:32Z</time>
      </trkpt>
      <trkpt lat="50.02035" lon="2.02445">
        <ele>11.9</ele>
        <time>2022-04-12T14:20:33Z</time>
      </trkpt>
      <trkpt lat="50.02035" lon="2.02445">
        <ele>11.9</ele>
        <time>2022-04-12T14:20:34Z</time>
      </trkpt>
      <trkpt lat="50.02034" lon="2.02445">
        <ele>11.9</ele>
        <time>2022-04-12T14:20:35Z</time>
      </trkpt>
      <trkpt lat="50.02034" lon="2.02445">
        <ele>12</ele>
        <time>2022-04-12T14:20:36Z</time>
      </trkpt>
      <trkpt lat="50.02033" lon="2.02445">
        <ele>12</ele>
        <time>2022-04-12T14:20:37Z</time>
      </trkpt>
      <trkpt lat="50.02033" lon="2.02445">
        <ele>12</ele>
        <time>2022-04-12T14:20:38Z</time>
      </trkpt>
      <trkpt lat="50.02033" lon="2.02445">
        <ele>12</ele>
        <time>2022-04-12T14:20:39Z</time>
      </trkpt>
      <trkpt lat="50.02033" lon="2.02445">
        <ele>12</ele>
        <time>2022-04-12T14:20:40Z</time>
      </trkpt>
      <trkpt lat="50.02033" lon="2.02445">
        <ele>12</ele>
        <time>2022-04-12T14:20:41Z</time>
      </trkpt>
      <trkpt lat="50.02033" lon="2.02445">
        <ele>12</ele>
        <time>2022-04-12T14:20:42Z</time>
      </trkpt>
      <trkpt lat="50.02032" lon="2.02445">
        <ele>12</ele>
        <time>2022-04-12T14:20:43Z</time>
      </trkpt>
      <trkpt lat="50.02032" lon="2.02445">
        <ele>12</ele>
        <time>2022-04-12T14:20:44Z</time>
      </trkpt>
      <trkpt lat="50.02032" lon="2.02445">
        <ele>12</ele>
        <time>2022-04-12T14:20:45Z</time>
      </trkpt>
      <trkpt lat="50.02032" lon="2.02445">
        <ele>12.1</ele>
        <time>2022-04-12T14:20:46Z</time>
      </trkpt>
      <trkpt lat="50.02032" lon="2.02445">
        <ele>12.1</ele>
        <time>2022-04-12T14:20:47Z</time>
      </trkpt>
      <trkpt lat="50.02032" lon="2.02445">
        <ele>12.1</ele>
        <time>2022-04-12T14:20:48Z</time>
      </trkpt>
      <trkpt lat="50.02031" lon="2.02445">
        <ele>12.1</ele>
        <time>2022-04-12T14:20:49Z</time>
      </trkpt>
      <trkpt lat="50.02031" lon="2.02445">
        <ele>12.1</ele>
        <time>2022-04-12T14:20:50Z</time>
      </trkpt>
      <trkpt lat="50.02031" lon="2.02445">
        <ele>12.1</ele>
        <time>2022-04-12T14:20:51Z</time>
      </trkpt>
      <trkpt lat="50.02031" lon="2.02445">
        <ele>12.1</ele>
        <time>2022-04-12T14:20:52Z</time>
      </trkpt>
      <trkpt lat="50.02031" lon="2.02445">
        <ele>12.1</ele>
        <time>2022-04-12T14:20:53Z</time>
      </trkpt>
      <trkpt lat="50.02031" lon="2.02445">
        <ele>12.1</ele>
        <time>2022-04-12T14:20:54Z</time>
      </trkpt>
      <trkpt lat="50.02031" lon="2.02445">
        <ele>12.1</ele>
        <time>2022-04-12T14:20:55Z</time>
      </trkpt>
      <trkpt lat="50.02031" lon="2.02445">
        <ele>12.1</ele>
        <time>2022-04-12T14:20:56Z</time>
      </trkpt>
      <trkpt lat="50.02031" lon="2.02445">
        <ele>12.1</ele>
        <time>2022-04-12T14:20:57Z</time>
      </trkpt>
      <trkpt lat="50.02031" lon="2.02445">
        <ele>12.1</ele>
        <time>2022-04-12T14:20:58Z</time>
      </trkpt>
      <trkpt lat="50.02031" lon="2.02445">
        <ele>12.1</ele>
        <time>2022-04-12T14:20:59Z</time>
      </trkpt>
      <trkpt lat="50.02031" lon="2.02445">
        <ele>12.1</ele>
        <time>2022-04-12T14:21:00Z</time>
      </trkpt>
      <trkpt lat="50.02031" lon="2.02445">
        <ele>12.1</ele>
        <time>2022-04-12T14:21:01Z</time>
      </trkpt>
      <trkpt lat="50.02031" lon="2.02445">
        <ele>12.1</ele>
        <time>2022-04-12T14:21:02Z</time>
      </trkpt>
      <trkpt lat="50.02031" lon="2.02445">
        <ele>12.1</ele>
        <time>2022-04-12T14:21:03Z</time>
      </trkpt>
      <trkpt lat="50.02031" lon="2.02446">
        <ele>12.2</ele>
        <time>2022-04-12T14:21:04Z</time>
      </trkpt>
      <trkpt lat="50.0203" lon="2.02446">
        <ele>12.2</ele>
        <time>2022-04-12T14:21:05Z</time>
      </trkpt>
      <trkpt lat="50.0203" lon="2.02445">
        <ele>12.2</ele>
        <time>2022-04-12T14:21:06Z</time>
      </trkpt>
      <trkpt lat="50.0203" lon="2.02444">
        <ele>12.3</ele>
        <time>2022-04-12T14:21:07Z</time>
      </trkpt>
      <trkpt lat="50.0203" lon="2.02443">
        <ele>12.3</ele>
        <time>2022-04-12T14:21:08Z</time>
      </trkpt>
      <trkpt lat="50.0203" lon="2.02442">
        <ele>13</ele>
        <time>2022-04-12T14:21:09Z</time>
      </trkpt>
      <trkpt lat="50.0203" lon="2.02441">
        <ele>13</ele>
        <time>2022-04-12T14:21:10Z</time>
      </trkpt>
      <trkpt lat="50.0203" lon="2.02441">
        <ele>13</ele>
        <time>2022-04-12T14:21:12Z</time>
      </trkpt>
      <trkpt lat="50.0203" lon="2.02441">
        <ele>13</ele>
        <time>2022-04-12T14:21:13Z</time>
      </trkpt>
      <trkpt lat="50.0203" lon="2.0244">
        <ele>13</ele>
        <time>2022-04-12T14:21:14Z</time>
      </trkpt>
      <trkpt lat="50.02031" lon="2.0244">
        <ele>13</ele>
        <time>2022-04-12T14:21:15Z</time>
      </trkpt>
      <trkpt lat="50.02031" lon="2.02437">
        <ele>13</ele>
        <time>2022-04-12T14:21:16Z</time>
      </trkpt>
      <trkpt lat="50.02031" lon="2.02435">
        <ele>13.1</ele>
        <time>2022-04-12T14:21:17Z</time>
      </trkpt>
      <trkpt lat="50.02031" lon="2.02434">
        <ele>13.1</ele>
        <time>2022-04-12T14:21:18Z</time>
      </trkpt>
      <trkpt lat="50.0203" lon="2.02432">
        <ele>13.1</ele>
        <time>2022-04-12T14:21:20Z</time>
      </trkpt>
      <trkpt lat="50.0203" lon="2.0243">
        <ele>13.1</ele>
        <time>2022-04-12T14:21:21Z</time>
      </trkpt>
      <trkpt lat="50.02029" lon="2.02429">
        <ele>13.1</ele>
        <time>2022-04-12T14:21:22Z</time>
      </trkpt>
      <trkpt lat="50.02028" lon="2.02428">
        <ele>13.1</ele>
        <time>2022-04-12T14:21:23Z</time>
      </trkpt>
      <trkpt lat="50.02028" lon="2.02427">
        <ele>13.1</ele>
        <time>2022-04-12T14:21:24Z</time>
      </trkpt>
      <trkpt lat="50.02027" lon="2.02425">
        <ele>13.2</ele>
        <time>2022-04-12T14:21:25Z</time>
      </trkpt>
      <trkpt lat="50.02026" lon="2.02424">
        <ele>13.2</ele>
        <time>2022-04-12T14:21:26Z</time>
      </trkpt>
      <trkpt lat="50.02026" lon="2.02422">
        <ele>13.2</ele>
        <time>2022-04-12T14:21:28Z</time>
      </trkpt>
      <trkpt lat="50.02025" lon="2.0242">
        <ele>13.2</ele>
        <time>2022-04-12T14:21:29Z</time>
      </trkpt>
      <trkpt lat="50.02024" lon="2.02419">
        <ele>13.3</ele>
        <time>2022-04-12T14:21:30Z</time>
      </trkpt>
      <trkpt lat="50.02023" lon="2.02418">
        <ele>13.3</ele>
        <time>2022-04-12T14:21:31Z</time>
      </trkpt>
      <trkpt lat="50.02022" lon="2.02418">
        <ele>13.3</ele>
        <time>2022-04-12T14:21:32Z</time>
      </trkpt>
      <trkpt lat="50.02021" lon="2.02418">
        <ele>13.3</ele>
        <time>2022-04-12T14:21:33Z</time>
      </trkpt>
      <trkpt lat="50.0202" lon="2.02417">
        <ele>13.3</ele>
        <time>2022-04-12T14:21:34Z</time>
      </trkpt>
      <trkpt lat="50.02018" lon="2.02416">
        <ele>13.4</ele>
        <time>2022-04-12T14:21:36Z</time>
      </trkpt>
      <trkpt lat="50.02016" lon="2.02416">
        <ele>13.4</ele>
        <time>2022-04-12T14:21:37Z</time>
      </trkpt>
      <trkpt lat="50.02015" lon="2.02415">
        <ele>13.4</ele>
        <time>2022-04-12T14:21:38Z</time>
      </trkpt>
      <trkpt lat="50.02014" lon="2.02414">
        <ele>13.4</ele>
        <time>2022-04-12T14:21:39Z</time>
      </trkpt>
      <trkpt lat="50.02012" lon="2.02413">
        <ele>13.5</ele>
        <time>2022-04-12T14:21:40Z</time>
      </trkpt>
      <trkpt lat="50.02011" lon="2.02411">
        <ele>13.5</ele>
        <time>2022-04-12T14:21:41Z</time>
      </trkpt>
      <trkpt lat="50.02009" lon="2.02408">
        <ele>13.5</ele>
        <time>2022-04-12T14:21:42Z</time>
      </trkpt>
      <trkpt lat="50.02008" lon="2.02406">
        <ele>13.5</ele>
        <time>2022-04-12T14:21:44Z</time>
      </trkpt>
      <trkpt lat="50.02008" lon="2.02405">
        <ele>13.5</ele>
        <time>2022-04-12T14:21:45Z</time>
      </trkpt>
      <trkpt lat="50.02007" lon="2.02404">
        <ele>13.5</ele>
        <time>2022-04-12T14:21:46Z</time>
      </trkpt>
      <trkpt lat="50.02006" lon="2.02402">
        <ele>13.5</ele>
        <time>2022-04-12T14:21:47Z</time>
      </trkpt>
      <trkpt lat="50.02005" lon="2.02401">
        <ele>13.6</ele>
        <time>2022-04-12T14:21:48Z</time>
      </trkpt>
      <trkpt lat="50.02004" lon="2.024">
        <ele>13.6</ele>
        <time>2022-04-12T14:21:49Z</time>
      </trkpt>
      <trkpt lat="50.02004" lon="2.02399">
        <ele>13.6</ele>
        <time>2022-04-12T14:21:50Z</time>
      </trkpt>
      <trkpt lat="50.02002" lon="2.02397">
        <ele>13.6</ele>
        <time>2022-04-12T14:21:52Z</time>
      </trkpt>
      <trkpt lat="50.02002" lon="2.02395">
        <ele>13.6</ele>
        <time>2022-04-12T14:21:53Z</time>
      </trkpt>
      <trkpt lat="50.02001" lon="2.02393">
        <ele>13.6</ele>
        <time>2022-04-12T14:21:54Z</time>
      </trkpt>
      <trkpt lat="50.02" lon="2.02391">
        <ele>13.6</ele>
        <time>2022-04-12T14:21:55Z</time>
      </trkpt>
      <trkpt lat="50.01999" lon="2.02389">
        <ele>13.6</ele>
        <time>2022-04-12T14:21:57Z</time>
      </trkpt>
      <trkpt lat="50.01998" lon="2.02388">
        <ele>13.6</ele>
        <time>2022-04-12T14:21:58Z</time>
      </trkpt>
      <trkpt lat="50.01996" lon="2.02385">
        <ele>13.6</ele>
        <time>2022-04-12T14:21:59Z</time>
      </trkpt>
      <trkpt lat="50.01996" lon="2.02384">
        <ele>13.6</ele>
        <time>2022-04-12T14:22:00Z</time>
      </trkpt>
      <trkpt lat="50.01995" lon="2.02383">
        <ele>13.6</ele>
        <time>2022-04-12T14:22:01Z</time>
      </trkpt>
      <trkpt lat="50.01994" lon="2.02382">
        <ele>13.5</ele>
        <time>2022-04-12T14:22:02Z</time>
      </trkpt>
      <trkpt lat="50.01993" lon="2.0238">
        <ele>13.5</ele>
        <time>2022-04-12T14:22:04Z</time>
      </trkpt>
      <trkpt lat="50.01992" lon="2.02379">
        <ele>13.5</ele>
        <time>2022-04-12T14:22:05Z</time>
      </trkpt>
      <trkpt lat="50.01991" lon="2.02377">
        <ele>13.4</ele>
        <time>2022-04-12T14:22:06Z</time>
      </trkpt>
      <trkpt lat="50.01989" lon="2.02375">
        <ele>13.4</ele>
        <time>2022-04-12T14:22:07Z</time>
      </trkpt>
      <trkpt lat="50.01988" lon="2.02374">
        <ele>13.4</ele>
        <time>2022-04-12T14:22:08Z</time>
      </trkpt>
      <trkpt lat="50.01987" lon="2.02374">
        <ele>13.4</ele>
        <time>2022-04-12T14:22:09Z</time>
      </trkpt>
      <trkpt lat="50.01986" lon="2.02373">
        <ele>13.3</ele>
        <time>2022-04-12T14:22:10Z</time>
      </trkpt>
      <trkpt lat="50.01984" lon="2.02373">
        <ele>13.3</ele>
        <time>2022-04-12T14:22:11Z</time>
      </trkpt>
      <trkpt lat="50.01982" lon="2.02372">
        <ele>13.2</ele>
        <time>2022-04-12T14:22:12Z</time>
      </trkpt>
      <trkpt lat="50.01981" lon="2.02371">
        <ele>13.2</ele>
        <time>2022-04-12T14:22:14Z</time>
      </trkpt>
      <trkpt lat="50.0198" lon="2.0237">
        <ele>13.2</ele>
        <time>2022-04-12T14:22:16Z</time>
      </trkpt>
      <trkpt lat="50.01979" lon="2.02369">
        <ele>13.1</ele>
        <time>2022-04-12T14:22:17Z</time>
      </trkpt>
      <trkpt lat="50.01978" lon="2.02368">
        <ele>13.1</ele>
        <time>2022-04-12T14:22:18Z</time>
      </trkpt>
      <trkpt lat="50.01977" lon="2.02367">
        <ele>13</ele>
        <time>2022-04-12T14:22:19Z</time>
      </trkpt>
      <trkpt lat="50.01976" lon="2.02365">
        <ele>13</ele>
        <time>2022-04-12T14:22:20Z</time>
      </trkpt>
      <trkpt lat="50.01975" lon="2.02363">
        <ele>12.9</ele>
        <time>2022-04-12T14:22:21Z</time>
      </trkpt>
      <trkpt lat="50.01974" lon="2.02362">
        <ele>12.9</ele>
        <time>2022-04-12T14:22:22Z</time>
      </trkpt>
      <trkpt lat="50.01974" lon="2.02361">
        <ele>12.9</ele>
        <time>2022-04-12T14:22:23Z</time>
      </trkpt>
      <trkpt lat="50.01972" lon="2.02359">
        <ele>12.8</ele>
        <time>2022-04-12T14:22:25Z</time>
      </trkpt>
      <trkpt lat="50.01972" lon="2.02357">
        <ele>12.8</ele>
        <time>2022-04-12T14:22:26Z</time>
      </trkpt>
      <trkpt lat="50.01971" lon="2.02356">
        <ele>12.7</ele>
        <time>2022-04-12T14:22:27Z</time>
      </trkpt>
      <trkpt lat="50.0197" lon="2.02355">
        <ele>12.7</ele>
        <time>2022-04-12T14:22:28Z</time>
      </trkpt>
      <trkpt lat="50.01969" lon="2.02353">
        <ele>12.7</ele>
        <time>2022-04-12T14:22:29Z</time>
      </trkpt>
      <trkpt lat="50.01969" lon="2.02352">
        <ele>12.6</ele>
        <time>2022-04-12T14:22:30Z</time>
      </trkpt>
      <trkpt lat="50.01968" lon="2.02351">
        <ele>12.6</ele>
        <time>2022-04-12T14:22:31Z</time>
      </trkpt>
      <trkpt lat="50.01967" lon="2.02348">
        <ele>12.5</ele>
        <time>2022-04-12T14:22:33Z</time>
      </trkpt>
      <trkpt lat="50.01966" lon="2.02347">
        <ele>12.5</ele>
        <time>2022-04-12T14:22:34Z</time>
      </trkpt>
      <trkpt lat="50.01965" lon="2.02346">
        <ele>12.4</ele>
        <time>2022-04-12T14:22:35Z</time>
      </trkpt>
      <trkpt lat="50.01964" lon="2.02345">
        <ele>12.4</ele>
        <time>2022-04-12T14:22:36Z</time>
      </trkpt>
      <trkpt lat="50.01963" lon="2.02343">
        <ele>12.3</ele>
        <time>2022-04-12T14:22:37Z</time>
      </trkpt>
      <trkpt lat="50.01962" lon="2.02342">
        <ele>12.3</ele>
        <time>2022-04-12T14:22:38Z</time>
      </trkpt>
      <trkpt lat="50.01961" lon="2.02341">
        <ele>12.2</ele>
        <time>2022-04-12T14:22:39Z</time>
      </trkpt>
      <trkpt lat="50.01959" lon="2.0234">
        <ele>12.1</ele>
        <time>2022-04-12T14:22:40Z</time>
      </trkpt>
      <trkpt lat="50.01959" lon="2.0234">
        <ele>12.1</ele>
        <time>2022-04-12T14:22:41Z</time>
      </trkpt>
      <trkpt lat="50.01958" lon="2.0234">
        <ele>12.1</ele>
        <time>2022-04-12T14:22:42Z</time>
      </trkpt>
      <trkpt lat="50.01957" lon="2.0234">
        <ele>12</ele>
        <time>2022-04-12T14:22:43Z</time>
      </trkpt>
      <trkpt lat="50.01956" lon="2.02339">
        <ele>12</ele>
        <time>2022-04-12T14:22:45Z</time>
      </trkpt>
      <trkpt lat="50.01955" lon="2.02337">
        <ele>11.9</ele>
        <time>2022-04-12T14:22:46Z</time>
      </trkpt>
      <trkpt lat="50.01954" lon="2.02335">
        <ele>11.9</ele>
        <time>2022-04-12T14:22:47Z</time>
      </trkpt>
      <trkpt lat="50.01953" lon="2.02334">
        <ele>11.8</ele>
        <time>2022-04-12T14:22:48Z</time>
      </trkpt>
      <trkpt lat="50.01952" lon="2.02333">
        <ele>11.8</ele>
        <time>2022-04-12T14:22:49Z</time>
      </trkpt>
      <trkpt lat="50.01952" lon="2.02332">
        <ele>11.7</ele>
        <time>2022-04-12T14:22:50Z</time>
      </trkpt>
      <trkpt lat="50.01951" lon="2.02331">
        <ele>11.7</ele>
        <time>2022-04-12T14:22:51Z</time>
      </trkpt>
      <trkpt lat="50.0195" lon="2.0233">
        <ele>11.7</ele>
        <time>2022-04-12T14:22:52Z</time>
      </trkpt>
      <trkpt lat="50.01948" lon="2.02327">
        <ele>11.6</ele>
        <time>2022-04-12T14:22:53Z</time>
      </trkpt>
      <trkpt lat="50.01947" lon="2.02326">
        <ele>11.5</ele>
        <time>2022-04-12T14:22:54Z</time>
      </trkpt>
      <trkpt lat="50.01946" lon="2.02325">
        <ele>11.5</ele>
        <time>2022-04-12T14:22:55Z</time>
      </trkpt>
      <trkpt lat="50.01945" lon="2.02324">
        <ele>11.4</ele>
        <time>2022-04-12T14:22:57Z</time>
      </trkpt>
      <trkpt lat="50.01944" lon="2.02323">
        <ele>11.4</ele>
        <time>2022-04-12T14:22:58Z</time>
      </trkpt>
      <trkpt lat="50.01942" lon="2.02321">
        <ele>11.3</ele>
        <time>2022-04-12T14:22:59Z</time>
      </trkpt>
      <trkpt lat="50.01941" lon="2.02321">
        <ele>11.3</ele>
        <time>2022-04-12T14:23:00Z</time>
      </trkpt>
      <trkpt lat="50.01941" lon="2.0232">
        <ele>11.2</ele>
        <time>2022-04-12T14:23:01Z</time>
      </trkpt>
      <trkpt lat="50.0194" lon="2.0232">
        <ele>11.2</ele>
        <time>2022-04-12T14:23:02Z</time>
      </trkpt>
      <trkpt lat="50.01939" lon="2.02319">
        <ele>11.2</ele>
        <time>2022-04-12T14:23:03Z</time>
      </trkpt>
      <trkpt lat="50.01938" lon="2.02318">
        <ele>11.1</ele>
        <time>2022-04-12T14:23:04Z</time>
      </trkpt>
      <trkpt lat="50.01936" lon="2.02317">
        <ele>11.1</ele>
        <time>2022-04-12T14:23:05Z</time>
      </trkpt>
      <trkpt lat="50.01935" lon="2.02316">
        <ele>11</ele>
        <time>2022-04-12T14:23:06Z</time>
      </trkpt>
      <trkpt lat="50.01934" lon="2.02314">
        <ele>11</ele>
        <time>2022-04-12T14:23:08Z</time>
      </trkpt>
      <trkpt lat="50.01933" lon="2.02313">
        <ele>11</ele>
        <time>2022-04-12T14:23:09Z</time>
      </trkpt>
      <trkpt lat="50.01931" lon="2.02312">
        <ele>10.9</ele>
        <time>2022-04-12T14:23:10Z</time>
      </trkpt>
      <trkpt lat="50.0193" lon="2.02311">
        <ele>10.9</ele>
        <time>2022-04-12T14:23:11Z</time>
      </trkpt>
      <trkpt lat="50.01929" lon="2.0231">
        <ele>10.8</ele>
        <time>2022-04-12T14:23:12Z</time>
      </trkpt>
      <trkpt lat="50.01927" lon="2.02308">
        <ele>10.8</ele>
        <time>2022-04-12T14:23:13Z</time>
      </trkpt>
      <trkpt lat="50.01926" lon="2.02308">
        <ele>10.7</ele>
        <time>2022-04-12T14:23:14Z</time>
      </trkpt>
      <trkpt lat="50.01925" lon="2.02307">
        <ele>10.7</ele>
        <time>2022-04-12T14:23:15Z</time>
      </trkpt>
      <trkpt lat="50.01924" lon="2.02306">
        <ele>10.7</ele>
        <time>2022-04-12T14:23:16Z</time>
      </trkpt>
      <trkpt lat="50.01923" lon="2.02305">
        <ele>10.6</ele>
        <time>2022-04-12T14:23:17Z</time>
      </trkpt>
      <trkpt lat="50.01922" lon="2.02304">
        <ele>10.6</ele>
        <time>2022-04-12T14:23:18Z</time>
      </trkpt>
      <trkpt lat="50.01921" lon="2.02302">
        <ele>10.5</ele>
        <time>2022-04-12T14:23:19Z</time>
      </trkpt>
      <trkpt lat="50.01919" lon="2.02301">
        <ele>10.5</ele>
        <time>2022-04-12T14:23:21Z</time>
      </trkpt>
      <trkpt lat="50.01918" lon="2.02301">
        <ele>10.5</ele>
        <time>2022-04-12T14:23:22Z</time>
      </trkpt>
      <trkpt lat="50.01917" lon="2.023">
        <ele>10.4</ele>
        <time>2022-04-12T14:23:23Z</time>
      </trkpt>
      <trkpt lat="50.01916" lon="2.02299">
        <ele>10.4</ele>
        <time>2022-04-12T14:23:24Z</time>
      </trkpt>
      <trkpt lat="50.01914" lon="2.02298">
        <ele>10.4</ele>
        <time>2022-04-12T14:23:26Z</time>
      </trkpt>
      <trkpt lat="50.01913" lon="2.02297">
        <ele>10.3</ele>
        <time>2022-04-12T14:23:27Z</time>
      </trkpt>
      <trkpt lat="50.01912" lon="2.02296">
        <ele>10.3</ele>
        <time>2022-04-12T14:23:28Z</time>
      </trkpt>
      <trkpt lat="50.01911" lon="2.02295">
        <ele>10.3</ele>
        <time>2022-04-12T14:23:29Z</time>
      </trkpt>
      <trkpt lat="50.01909" lon="2.02293">
        <ele>10.2</ele>
        <time>2022-04-12T14:23:30Z</time>
      </trkpt>
      <trkpt lat="50.01909" lon="2.02293">
        <ele>10.2</ele>
        <time>2022-04-12T14:23:31Z</time>
      </trkpt>
      <trkpt lat="50.01908" lon="2.02292">
        <ele>10.2</ele>
        <time>2022-04-12T14:23:32Z</time>
      </trkpt>
      <trkpt lat="50.01907" lon="2.02289">
        <ele>10.1</ele>
        <time>2022-04-12T14:23:33Z</time>
      </trkpt>
      <trkpt lat="50.01906" lon="2.02289">
        <ele>10.1</ele>
        <time>2022-04-12T14:23:34Z</time>
      </trkpt>
      <trkpt lat="50.01905" lon="2.02288">
        <ele>10.1</ele>
        <time>2022-04-12T14:23:35Z</time>
      </trkpt>
      <trkpt lat="50.01904" lon="2.02286">
        <ele>10</ele>
        <time>2022-04-12T14:23:36Z</time>
      </trkpt>
      <trkpt lat="50.01903" lon="2.02285">
        <ele>10</ele>
        <time>2022-04-12T14:23:37Z</time>
      </trkpt>
      <trkpt lat="50.01902" lon="2.02284">
        <ele>10</ele>
        <time>2022-04-12T14:23:38Z</time>
      </trkpt>
      <trkpt lat="50.01901" lon="2.02282">
        <ele>10</ele>
        <time>2022-04-12T14:23:40Z</time>
      </trkpt>
      <trkpt lat="50.019" lon="2.02281">
        <ele>10</ele>
        <time>2022-04-12T14:23:41Z</time>
      </trkpt>
      <trkpt lat="50.019" lon="2.0228">
        <ele>9.9</ele>
        <time>2022-04-12T14:23:42Z</time>
      </trkpt>
      <trkpt lat="50.01898" lon="2.02278">
        <ele>9.9</ele>
        <time>2022-04-12T14:23:43Z</time>
      </trkpt>
      <trkpt lat="50.01898" lon="2.02277">
        <ele>9.9</ele>
        <time>2022-04-12T14:23:44Z</time>
      </trkpt>
      <trkpt lat="50.01897" lon="2.02276">
        <ele>9.9</ele>
        <time>2022-04-12T14:23:45Z</time>
      </trkpt>
      <trkpt lat="50.01896" lon="2.02273">
        <ele>9.8</ele>
        <time>2022-04-12T14:23:46Z</time>
      </trkpt>
      <trkpt lat="50.01895" lon="2.02272">
        <ele>9.8</ele>
        <time>2022-04-12T14:23:48Z</time>
      </trkpt>
      <trkpt lat="50.01894" lon="2.0227">
        <ele>9.8</ele>
        <time>2022-04-12T14:23:49Z</time>
      </trkpt>
      <trkpt lat="50.01894" lon="2.02269">
        <ele>9.8</ele>
        <time>2022-04-12T14:23:50Z</time>
      </trkpt>
      <trkpt lat="50.01893" lon="2.02268">
        <ele>9.8</ele>
        <time>2022-04-12T14:23:51Z</time>
      </trkpt>
      <trkpt lat="50.01892" lon="2.02268">
        <ele>9.8</ele>
        <time>2022-04-12T14:23:52Z</time>
      </trkpt>
      <trkpt lat="50.01891" lon="2.02269">
        <ele>9.7</ele>
        <time>2022-04-12T14:23:53Z</time>
      </trkpt>
      <trkpt lat="50.0189" lon="2.02268">
        <ele>9.7</ele>
        <time>2022-04-12T14:23:54Z</time>
      </trkpt>
      <trkpt lat="50.01889" lon="2.02267">
        <ele>9.7</ele>
        <time>2022-04-12T14:23:55Z</time>
      </trkpt>
      <trkpt lat="50.01889" lon="2.02267">
        <ele>9.7</ele>
        <time>2022-04-12T14:23:57Z</time>
      </trkpt>
      <trkpt lat="50.01888" lon="2.02267">
        <ele>9.7</ele>
        <time>2022-04-12T14:23:58Z</time>
      </trkpt>
      <trkpt lat="50.01887" lon="2.02267">
        <ele>9.7</ele>
        <time>2022-04-12T14:23:59Z</time>
      </trkpt>
      <trkpt lat="50.01886" lon="2.02266">
        <ele>9.7</ele>
        <time>2022-04-12T14:24:00Z</time>
      </trkpt>
      <trkpt lat="50.01886" lon="2.02265">
        <ele>9.7</ele>
        <time>2022-04-12T14:24:01Z</time>
      </trkpt>
      <trkpt lat="50.01885" lon="2.02263">
        <ele>9.7</ele>
        <time>2022-04-12T14:24:02Z</time>
      </trkpt>
      <trkpt lat="50.01885" lon="2.02262">
        <ele>9.6</ele>
        <time>2022-04-12T14:24:04Z</time>
      </trkpt>
      <trkpt lat="50.01884" lon="2.0226">
        <ele>9.6</ele>
        <time>2022-04-12T14:24:05Z</time>
      </trkpt>
      <trkpt lat="50.01884" lon="2.02259">
        <ele>9.6</ele>
        <time>2022-04-12T14:24:06Z</time>
      </trkpt>
      <trkpt lat="50.01882" lon="2.02256">
        <ele>9.6</ele>
        <time>2022-04-12T14:24:07Z</time>
      </trkpt>
      <trkpt lat="50.01882" lon="2.02255">
        <ele>9.6</ele>
        <time>2022-04-12T14:24:08Z</time>
      </trkpt>
      <trkpt lat="50.01881" lon="2.02254">
        <ele>9.6</ele>
        <time>2022-04-12T14:24:09Z</time>
      </trkpt>
      <trkpt lat="50.0188" lon="2.02252">
        <ele>9.6</ele>
        <time>2022-04-12T14:24:10Z</time>
      </trkpt>
      <trkpt lat="50.01879" lon="2.02251">
        <ele>9.6</ele>
        <time>2022-04-12T14:24:11Z</time>
      </trkpt>
      <trkpt lat="50.01878" lon="2.0225">
        <ele>9.6</ele>
        <time>2022-04-12T14:24:12Z</time>
      </trkpt>
      <trkpt lat="50.01877" lon="2.02247">
        <ele>9.6</ele>
        <time>2022-04-12T14:24:14Z</time>
      </trkpt>
      <trkpt lat="50.01876" lon="2.02246">
        <ele>9.6</ele>
        <time>2022-04-12T14:24:15Z</time>
      </trkpt>
      <trkpt lat="50.01876" lon="2.02245">
        <ele>9.5</ele>
        <time>2022-04-12T14:24:16Z</time>
      </trkpt>
      <trkpt lat="50.01875" lon="2.02244">
        <ele>9.5</ele>
        <time>2022-04-12T14:24:17Z</time>
      </trkpt>
      <trkpt lat="50.01875" lon="2.02243">
        <ele>9.5</ele>
        <time>2022-04-12T14:24:18Z</time>
      </trkpt>
      <trkpt lat="50.01874" lon="2.02242">
        <ele>9.5</ele>
        <time>2022-04-12T14:24:19Z</time>
      </trkpt>
      <trkpt lat="50.01872" lon="2.0224">
        <ele>9.5</ele>
        <time>2022-04-12T14:24:20Z</time>
      </trkpt>
      <trkpt lat="50.01872" lon="2.02239">
        <ele>9.5</ele>
        <time>2022-04-12T14:24:21Z</time>
      </trkpt>
      <trkpt lat="50.01871" lon="2.02238">
        <ele>9.5</ele>
        <time>2022-04-12T14:24:22Z</time>
      </trkpt>
      <trkpt lat="50.01869" lon="2.02236">
        <ele>9.5</ele>
        <time>2022-04-12T14:24:24Z</time>
      </trkpt>
      <trkpt lat="50.01868" lon="2.02234">
        <ele>9.5</ele>
        <time>2022-04-12T14:24:25Z</time>
      </trkpt>
      <trkpt lat="50.01867" lon="2.02232">
        <ele>9.5</ele>
        <time>2022-04-12T14:24:26Z</time>
      </trkpt>
      <trkpt lat="50.01866" lon="2.02231">
        <ele>9.5</ele>
        <time>2022-04-12T14:24:27Z</time>
      </trkpt>
      <trkpt lat="50.01866" lon="2.02231">
        <ele>9.5</ele>
        <time>2022-04-12T14:24:28Z</time>
      </trkpt>
      <trkpt lat="50.01865" lon="2.02229">
        <ele>9.5</ele>
        <time>2022-04-12T14:24:29Z</time>
      </trkpt>
      <trkpt lat="50.01864" lon="2.02227">
        <ele>9.5</ele>
        <time>2022-04-12T14:24:30Z</time>
      </trkpt>
      <trkpt lat="50.01863" lon="2.02225">
        <ele>9.5</ele>
        <time>2022-04-12T14:24:31Z</time>
      </trkpt>
      <trkpt lat="50.01861" lon="2.02223">
        <ele>9.5</ele>
        <time>2022-04-12T14:24:32Z</time>
      </trkpt>
      <trkpt lat="50.0186" lon="2.02222">
        <ele>9.5</ele>
        <time>2022-04-12T14:24:33Z</time>
      </trkpt>
      <trkpt lat="50.01859" lon="2.0222">
        <ele>9.5</ele>
        <time>2022-04-12T14:24:35Z</time>
      </trkpt>
      <trkpt lat="50.01859" lon="2.0222">
        <ele>9.5</ele>
        <time>2022-04-12T14:24:36Z</time>
      </trkpt>
      <trkpt lat="50.01858" lon="2.02218">
        <ele>9.5</ele>
        <time>2022-04-12T14:24:37Z</time>
      </trkpt>
      <trkpt lat="50.01857" lon="2.02217">
        <ele>9.5</ele>
        <time>2022-04-12T14:24:38Z</time>
      </trkpt>
      <trkpt lat="50.01856" lon="2.02216">
        <ele>9.5</ele>
        <time>2022-04-12T14:24:39Z</time>
      </trkpt>
      <trkpt lat="50.01855" lon="2.02215">
        <ele>9.5</ele>
        <time>2022-04-12T14:24:40Z</time>
      </trkpt>
      <trkpt lat="50.01853" lon="2.02216">
        <ele>9.5</ele>
        <time>2022-04-12T14:24:41Z</time>
      </trkpt>
      <trkpt lat="50.01852" lon="2.02216">
        <ele>9.5</ele>
        <time>2022-04-12T14:24:42Z</time>
      </trkpt>
      <trkpt lat="50.0185" lon="2.02215">
        <ele>9.5</ele>
        <time>2022-04-12T14:24:44Z</time>
      </trkpt>
      <trkpt lat="50.0185" lon="2.02215">
        <ele>9.5</ele>
        <time>2022-04-12T14:24:45Z</time>
      </trkpt>
      <trkpt lat="50.01849" lon="2.02217">
        <ele>9.5</ele>
        <time>2022-04-12T14:24:46Z</time>
      </trkpt>
      <trkpt lat="50.01848" lon="2.02217">
        <ele>9.5</ele>
        <time>2022-04-12T14:24:47Z</time>
      </trkpt>
      <trkpt lat="50.01848" lon="2.02217">
        <ele>9.5</ele>
        <time>2022-04-12T14:24:48Z</time>
      </trkpt>
      <trkpt lat="50.01846" lon="2.02215">
        <ele>9.5</ele>
        <time>2022-04-12T14:24:50Z</time>
      </trkpt>
      <trkpt lat="50.01845" lon="2.02214">
        <ele>9.5</ele>
        <time>2022-04-12T14:24:51Z</time>
      </trkpt>
      <trkpt lat="50.01845" lon="2.02213">
        <ele>9.5</ele>
        <time>2022-04-12T14:24:52Z</time>
      </trkpt>
      <trkpt lat="50.01844" lon="2.02211">
        <ele>9.5</ele>
        <time>2022-04-12T14:24:53Z</time>
      </trkpt>
      <trkpt lat="50.01843" lon="2.02208">
        <ele>9.5</ele>
        <time>2022-04-12T14:24:54Z</time>
      </trkpt>
      <trkpt lat="50.01841" lon="2.02205">
        <ele>9.5</ele>
        <time>2022-04-12T14:24:55Z</time>
      </trkpt>
      <trkpt lat="50.0184" lon="2.02204">
        <ele>9.5</ele>
        <time>2022-04-12T14:24:57Z</time>
      </trkpt>
      <trkpt lat="50.0184" lon="2.02203">
        <ele>9.5</ele>
        <time>2022-04-12T14:24:58Z</time>
      </trkpt>
      <trkpt lat="50.01839" lon="2.02201">
        <ele>9.5</ele>
        <time>2022-04-12T14:24:59Z</time>
      </trkpt>
      <trkpt lat="50.01838" lon="2.022">
        <ele>9.5</ele>
        <time>2022-04-12T14:25:00Z</time>
      </trkpt>
      <trkpt lat="50.01837" lon="2.02198">
        <ele>9.5</ele>
        <time>2022-04-12T14:25:01Z</time>
      </trkpt>
      <trkpt lat="50.01836" lon="2.02197">
        <ele>9.5</ele>
        <time>2022-04-12T14:25:02Z</time>
      </trkpt>
      <trkpt lat="50.01835" lon="2.02195">
        <ele>9.5</ele>
        <time>2022-04-12T14:25:03Z</time>
      </trkpt>
      <trkpt lat="50.01834" lon="2.02194">
        <ele>9.5</ele>
        <time>2022-04-12T14:25:04Z</time>
      </trkpt>
      <trkpt lat="50.01833" lon="2.02192">
        <ele>9.5</ele>
        <time>2022-04-12T14:25:05Z</time>
      </trkpt>
      <trkpt lat="50.01832" lon="2.02191">
        <ele>9.5</ele>
        <time>2022-04-12T14:25:06Z</time>
      </trkpt>
      <trkpt lat="50.0183" lon="2.02189">
        <ele>9.5</ele>
        <time>2022-04-12T14:25:07Z</time>
      </trkpt>
      <trkpt lat="50.0183" lon="2.02188">
        <ele>9.5</ele>
        <time>2022-04-12T14:25:09Z</time>
      </trkpt>
      <trkpt lat="50.01829" lon="2.02188">
        <ele>9.5</ele>
        <time>2022-04-12T14:25:10Z</time>
      </trkpt>
      <trkpt lat="50.01828" lon="2.02186">
        <ele>9.5</ele>
        <time>2022-04-12T14:25:11Z</time>
      </trkpt>
      <trkpt lat="50.01826" lon="2.02185">
        <ele>9.5</ele>
        <time>2022-04-12T14:25:12Z</time>
      </trkpt>
      <trkpt lat="50.01825" lon="2.02184">
        <ele>9.5</ele>
        <time>2022-04-12T14:25:13Z</time>
      </trkpt>
      <trkpt lat="50.01824" lon="2.02184">
        <ele>9.5</ele>
        <time>2022-04-12T14:25:14Z</time>
      </trkpt>
      <trkpt lat="50.01823" lon="2.02183">
        <ele>9.5</ele>
        <time>2022-04-12T14:25:16Z</time>
      </trkpt>
      <trkpt lat="50.01822" lon="2.02182">
        <ele>9.5</ele>
        <time>2022-04-12T14:25:17Z</time>
      </trkpt>
      <trkpt lat="50.01821" lon="2.02181">
        <ele>9.5</ele>
        <time>2022-04-12T14:25:18Z</time>
      </trkpt>
      <trkpt lat="50.0182" lon="2.0218">
        <ele>9.5</ele>
        <time>2022-04-12T14:25:19Z</time>
      </trkpt>
      <trkpt lat="50.01818" lon="2.02179">
        <ele>9.5</ele>
        <time>2022-04-12T14:25:20Z</time>
      </trkpt>
      <trkpt lat="50.01818" lon="2.02178">
        <ele>9.5</ele>
        <time>2022-04-12T14:25:21Z</time>
      </trkpt>
      <trkpt lat="50.01817" lon="2.02177">
        <ele>9.5</ele>
        <time>2022-04-12T14:25:22Z</time>
      </trkpt>
      <trkpt lat="50.01816" lon="2.02177">
        <ele>9.5</ele>
        <time>2022-04-12T14:25:23Z</time>
      </trkpt>
      <trkpt lat="50.01816" lon="2.02176">
        <ele>9.5</ele>
        <time>2022-04-12T14:25:24Z</time>
      </trkpt>
      <trkpt lat="50.01814" lon="2.02175">
        <ele>9.5</ele>
        <time>2022-04-12T14:25:25Z</time>
      </trkpt>
      <trkpt lat="50.01813" lon="2.02174">
        <ele>9.5</ele>
        <time>2022-04-12T14:25:26Z</time>
      </trkpt>
      <trkpt lat="50.01813" lon="2.02173">
        <ele>9.5</ele>
        <time>2022-04-12T14:25:27Z</time>
      </trkpt>
      <trkpt lat="50.01811" lon="2.02173">
        <ele>9.5</ele>
        <time>2022-04-12T14:25:29Z</time>
      </trkpt>
      <trkpt lat="50.01811" lon="2.02174">
        <ele>9.5</ele>
        <time>2022-04-12T14:25:30Z</time>
      </trkpt>
      <trkpt lat="50.0181" lon="2.02174">
        <ele>9.5</ele>
        <time>2022-04-12T14:25:31Z</time>
      </trkpt>
      <trkpt lat="50.01809" lon="2.02174">
        <ele>9.5</ele>
        <time>2022-04-12T14:25:32Z</time>
      </trkpt>
      <trkpt lat="50.01808" lon="2.02173">
        <ele>9.5</ele>
        <time>2022-04-12T14:25:33Z</time>
      </trkpt>
      <trkpt lat="50.01807" lon="2.02172">
        <ele>9.5</ele>
        <time>2022-04-12T14:25:34Z</time>
      </trkpt>
      <trkpt lat="50.01806" lon="2.02171">
        <ele>9.6</ele>
        <time>2022-04-12T14:25:35Z</time>
      </trkpt>
      <trkpt lat="50.01805" lon="2.02169">
        <ele>9.6</ele>
        <time>2022-04-12T14:25:36Z</time>
      </trkpt>
      <trkpt lat="50.01803" lon="2.02168">
        <ele>9.6</ele>
        <time>2022-04-12T14:25:38Z</time>
      </trkpt>
      <trkpt lat="50.01802" lon="2.02166">
        <ele>9.6</ele>
        <time>2022-04-12T14:25:39Z</time>
      </trkpt>
      <trkpt lat="50.01801" lon="2.02164">
        <ele>9.6</ele>
        <time>2022-04-12T14:25:41Z</time>
      </trkpt>
      <trkpt lat="50.018" lon="2.02163">
        <ele>9.6</ele>
        <time>2022-04-12T14:25:42Z</time>
      </trkpt>
      <trkpt lat="50.01799" lon="2.02161">
        <ele>9.6</ele>
        <time>2022-04-12T14:25:43Z</time>
      </trkpt>
      <trkpt lat="50.01798" lon="2.02159">
        <ele>9.6</ele>
        <time>2022-04-12T14:25:44Z</time>
      </trkpt>
      <trkpt lat="50.01797" lon="2.02158">
        <ele>9.6</ele>
        <time>2022-04-12T14:25:45Z</time>
      </trkpt>
      <trkpt lat="50.01796" lon="2.02156">
        <ele>9.6</ele>
        <time>2022-04-12T14:25:46Z</time>
      </trkpt>
      <trkpt lat="50.01795" lon="2.02155">
        <ele>9.6</ele>
        <time>2022-04-12T14:25:47Z</time>
      </trkpt>
      <trkpt lat="50.01794" lon="2.02153">
        <ele>9.6</ele>
        <time>2022-04-12T14:25:49Z</time>
      </trkpt>
      <trkpt lat="50.01792" lon="2.02152">
        <ele>9.6</ele>
        <time>2022-04-12T14:25:50Z</time>
      </trkpt>
      <trkpt lat="50.0179" lon="2.02149">
        <ele>9.6</ele>
        <time>2022-04-12T14:25:51Z</time>
      </trkpt>
      <trkpt lat="50.01789" lon="2.02148">
        <ele>9.6</ele>
        <time>2022-04-12T14:25:52Z</time>
      </trkpt>
      <trkpt lat="50.01787" lon="2.02145">
        <ele>9.6</ele>
        <time>2022-04-12T14:25:53Z</time>
      </trkpt>
      <trkpt lat="50.01786" lon="2.02144">
        <ele>9.6</ele>
        <time>2022-04-12T14:25:54Z</time>
      </trkpt>
      <trkpt lat="50.01784" lon="2.02141">
        <ele>9.6</ele>
        <time>2022-04-12T14:25:55Z</time>
      </trkpt>
      <trkpt lat="50.01783" lon="2.02139">
        <ele>9.6</ele>
        <time>2022-04-12T14:25:56Z</time>
      </trkpt>
      <trkpt lat="50.01781" lon="2.02135">
        <ele>9.6</ele>
        <time>2022-04-12T14:25:57Z</time>
      </trkpt>
      <trkpt lat="50.0178" lon="2.02134">
        <ele>9.6</ele>
        <time>2022-04-12T14:25:58Z</time>
      </trkpt>
      <trkpt lat="50.01778" lon="2.02131">
        <ele>9.6</ele>
        <time>2022-04-12T14:26:00Z</time>
      </trkpt>
      <trkpt lat="50.01777" lon="2.0213">
        <ele>9.6</ele>
        <time>2022-04-12T14:26:01Z</time>
      </trkpt>
      <trkpt lat="50.01775" lon="2.02126">
        <ele>9.6</ele>
        <time>2022-04-12T14:26:02Z</time>
      </trkpt>
      <trkpt lat="50.01774" lon="2.02125">
        <ele>9.7</ele>
        <time>2022-04-12T14:26:03Z</time>
      </trkpt>
      <trkpt lat="50.01772" lon="2.02121">
        <ele>9.7</ele>
        <time>2022-04-12T14:26:04Z</time>
      </trkpt>
      <trkpt lat="50.01771" lon="2.0212">
        <ele>9.7</ele>
        <time>2022-04-12T14:26:05Z</time>
      </trkpt>
      <trkpt lat="50.0177" lon="2.02118">
        <ele>9.7</ele>
        <time>2022-04-12T14:26:06Z</time>
      </trkpt>
      <trkpt lat="50.01769" lon="2.02115">
        <ele>9.7</ele>
        <time>2022-04-12T14:26:08Z</time>
      </trkpt>
      <trkpt lat="50.01767" lon="2.02113">
        <ele>9.7</ele>
        <time>2022-04-12T14:26:09Z</time>
      </trkpt>
      <trkpt lat="50.01766" lon="2.02112">
        <ele>9.7</ele>
        <time>2022-04-12T14:26:10Z</time>
      </trkpt>
      <trkpt lat="50.01765" lon="2.0211">
        <ele>9.8</ele>
        <time>2022-04-12T14:26:11Z</time>
      </trkpt>
      <trkpt lat="50.01764" lon="2.02107">
        <ele>9.8</ele>
        <time>2022-04-12T14:26:12Z</time>
      </trkpt>
      <trkpt lat="50.01763" lon="2.02105">
        <ele>9.8</ele>
        <time>2022-04-12T14:26:13Z</time>
      </trkpt>
      <trkpt lat="50.01762" lon="2.02103">
        <ele>9.8</ele>
        <time>2022-04-12T14:26:15Z</time>
      </trkpt>
      <trkpt lat="50.01761" lon="2.02101">
        <ele>9.8</ele>
        <time>2022-04-12T14:26:16Z</time>
      </trkpt>
      <trkpt lat="50.0176" lon="2.02099">
        <ele>9.9</ele>
        <time>2022-04-12T14:26:17Z</time>
      </trkpt>
      <trkpt lat="50.01759" lon="2.02097">
        <ele>9.9</ele>
        <time>2022-04-12T14:26:18Z</time>
      </trkpt>
      <trkpt lat="50.01758" lon="2.02095">
        <ele>9.9</ele>
        <time>2022-04-12T14:26:19Z</time>
      </trkpt>
      <trkpt lat="50.01757" lon="2.02094">
        <ele>9.9</ele>
        <time>2022-04-12T14:26:20Z</time>
      </trkpt>
      <trkpt lat="50.01756" lon="2.02092">
        <ele>9.9</ele>
        <time>2022-04-12T14:26:22Z</time>
      </trkpt>
      <trkpt lat="50.01756" lon="2.02091">
        <ele>9.9</ele>
        <time>2022-04-12T14:26:23Z</time>
      </trkpt>
      <trkpt lat="50.01755" lon="2.02089">
        <ele>10</ele>
        <time>2022-04-12T14:26:24Z</time>
      </trkpt>
      <trkpt lat="50.01754" lon="2.02087">
        <ele>10</ele>
        <time>2022-04-12T14:26:25Z</time>
      </trkpt>
      <trkpt lat="50.01754" lon="2.02086">
        <ele>10</ele>
        <time>2022-04-12T14:26:26Z</time>
      </trkpt>
      <trkpt lat="50.01755" lon="2.02087">
        <ele>10</ele>
        <time>2022-04-12T14:26:27Z</time>
      </trkpt>
      <trkpt lat="50.01755" lon="2.02087">
        <ele>10</ele>
        <time>2022-04-12T14:26:28Z</time>
      </trkpt>
      <trkpt lat="50.01755" lon="2.02087">
        <ele>10</ele>
        <time>2022-04-12T14:26:29Z</time>
      </trkpt>
      <trkpt lat="50.01755" lon="2.02087">
        <ele>10</ele>
        <time>2022-04-12T14:26:30Z</time>
      </trkpt>
      <trkpt lat="50.01755" lon="2.02087">
        <ele>10</ele>
        <time>2022-04-12T14:26:31Z</time>
      </trkpt>
      <trkpt lat="50.01754" lon="2.02087">
        <ele>10</ele>
        <time>2022-04-12T14:26:32Z</time>
      </trkpt>
      <trkpt lat="50.01754" lon="2.02087">
        <ele>10</ele>
        <time>2022-04-12T14:26:33Z</time>
      </trkpt>
      <trkpt lat="50.01754" lon="2.02087">
        <ele>10</ele>
        <time>2022-04-12T14:26:34Z</time>
      </trkpt>
      <trkpt lat="50.01754" lon="2.02087">
        <ele>10</ele>
        <time>2022-04-12T14:26:35Z</time>
      </trkpt>
      <trkpt lat="50.01754" lon="2.02087">
        <ele>10</ele>
        <time>2022-04-12T14:26:36Z</time>
      </trkpt>
      <trkpt lat="50.01754" lon="2.02087">
        <ele>10</ele>
        <time>2022-04-12T14:26:37Z</time>
      </trkpt>
      <trkpt lat="50.01753" lon="2.02087">
        <ele>10</ele>
        <time>2022-04-12T14:26:38Z</time>
      </trkpt>
      <trkpt lat="50.01753" lon="2.02087">
        <ele>10</ele>
        <time>2022-04-12T14:26:39Z</time>
      </trkpt>
      <trkpt lat="50.01753" lon="2.02087">
        <ele>10</ele>
        <time>2022-04-12T14:26:40Z</time>
      </trkpt>
      <trkpt lat="50.01753" lon="2.02086">
        <ele>10</ele>
        <time>2022-04-12T14:26:41Z</time>
      </trkpt>
      <trkpt lat="50.01753" lon="2.02086">
        <ele>10</ele>
        <time>2022-04-12T14:26:43Z</time>
      </trkpt>
      <trkpt lat="50.01753" lon="2.02086">
        <ele>10</ele>
        <time>2022-04-12T14:26:44Z</time>
      </trkpt>
      <trkpt lat="50.01752" lon="2.02086">
        <ele>10</ele>
        <time>2022-04-12T14:26:45Z</time>
      </trkpt>
      <trkpt lat="50.01752" lon="2.02086">
        <ele>10</ele>
        <time>2022-04-12T14:26:46Z</time>
      </trkpt>
      <trkpt lat="50.01752" lon="2.02086">
        <ele>10</ele>
        <time>2022-04-12T14:26:47Z</time>
      </trkpt>
      <trkpt lat="50.01752" lon="2.02086">
        <ele>10</ele>
        <time>2022-04-12T14:26:48Z</time>
      </trkpt>
      <trkpt lat="50.01752" lon="2.02086">
        <ele>10</ele>
        <time>2022-04-12T14:26:49Z</time>
      </trkpt>
      <trkpt lat="50.01752" lon="2.02086">
        <ele>10</ele>
        <time>2022-04-12T14:26:50Z</time>
      </trkpt>
      <trkpt lat="50.01751" lon="2.02086">
        <ele>10</ele>
        <time>2022-04-12T14:26:51Z</time>
      </trkpt>
      <trkpt lat="50.01751" lon="2.02086">
        <ele>10</ele>
        <time>2022-04-12T14:26:52Z</time>
      </trkpt>
      <trkpt lat="50.01751" lon="2.02086">
        <ele>10</ele>
        <time>2022-04-12T14:26:53Z</time>
      </trkpt>
      <trkpt lat="50.01751" lon="2.02086">
        <ele>10</ele>
        <time>2022-04-12T14:26:54Z</time>
      </trkpt>
      <trkpt lat="50.01751" lon="2.02086">
        <ele>10</ele>
        <time>2022-04-12T14:26:55Z</time>
      </trkpt>
      <trkpt lat="50.0175" lon="2.02086">
        <ele>10</ele>
        <time>2022-04-12T14:26:56Z</time>
      </trkpt>
      <trkpt lat="50.0175" lon="2.02086">
        <ele>10</ele>
        <time>2022-04-12T14:26:57Z</time>
      </trkpt>
      <trkpt lat="50.0175" lon="2.02086">
        <ele>10</ele>
        <time>2022-04-12T14:26:58Z</time>
      </trkpt>
      <trkpt lat="50.0175" lon="2.02086">
        <ele>10</ele>
        <time>2022-04-12T14:26:59Z</time>
      </trkpt>
      <trkpt lat="50.0175" lon="2.02086">
        <ele>10.1</ele>
        <time>2022-04-12T14:27:00Z</time>
      </trkpt>
      <trkpt lat="50.0175" lon="2.02086">
        <ele>10.1</ele>
        <time>2022-04-12T14:27:01Z</time>
      </trkpt>
      <trkpt lat="50.01749" lon="2.02086">
        <ele>10.1</ele>
        <time>2022-04-12T14:27:02Z</time>
      </trkpt>
      <trkpt lat="50.01749" lon="2.02086">
        <ele>10.1</ele>
        <time>2022-04-12T14:27:03Z</time>
      </trkpt>
      <trkpt lat="50.01749" lon="2.02086">
        <ele>10.1</ele>
        <time>2022-04-12T14:27:04Z</time>
      </trkpt>
      <trkpt lat="50.01749" lon="2.02086">
        <ele>10.1</ele>
        <time>2022-04-12T14:27:05Z</time>
      </trkpt>
      <trkpt lat="50.01749" lon="2.02086">
        <ele>10.1</ele>
        <time>2022-04-12T14:27:06Z</time>
      </trkpt>
      <trkpt lat="50.01749" lon="2.02086">
        <ele>10.1</ele>
        <time>2022-04-12T14:27:07Z</time>
      </trkpt>
      <trkpt lat="50.01748" lon="2.02086">
        <ele>10.1</ele>
        <time>2022-04-12T14:27:08Z</time>
      </trkpt>
      <trkpt lat="50.01748" lon="2.02086">
        <ele>10.1</ele>
        <time>2022-04-12T14:27:09Z</time>
      </trkpt>
      <trkpt lat="50.01736" lon="2.02078">
        <ele>10.2</ele>
        <time>2022-04-12T14:27:10Z</time>
      </trkpt>
      <trkpt lat="50.01721" lon="2.02065">
        <ele>10.1</ele>
        <time>2022-04-12T14:27:11Z</time>
      </trkpt>
      <trkpt lat="50.01704" lon="2.02048">
        <ele>10</ele>
        <time>2022-04-12T14:27:12Z</time>
      </trkpt>
      <trkpt lat="50.01692" lon="2.02036">
        <ele>10</ele>
        <time>2022-04-12T14:27:13Z</time>
      </trkpt>
      <trkpt lat="50.0168" lon="2.02022">
        <ele>9.9</ele>
        <time>2022-04-12T14:27:14Z</time>
      </trkpt>
      <trkpt lat="50.01669" lon="2.0201">
        <ele>9.9</ele>
        <time>2022-04-12T14:27:15Z</time>
      </trkpt>
      <trkpt lat="50.0166" lon="2.01999">
        <ele>9.9</ele>
        <time>2022-04-12T14:27:16Z</time>
      </trkpt>
      <trkpt lat="50.01651" lon="2.01988">
        <ele>9.8</ele>
        <time>2022-04-12T14:27:17Z</time>
      </trkpt>
      <trkpt lat="50.01643" lon="2.01977">
        <ele>9.8</ele>
        <time>2022-04-12T14:27:18Z</time>
      </trkpt>
      <trkpt lat="50.01634" lon="2.01967">
        <ele>9.8</ele>
        <time>2022-04-12T14:27:19Z</time>
      </trkpt>
      <trkpt lat="50.01624" lon="2.01956">
        <ele>9.9</ele>
        <time>2022-04-12T14:27:20Z</time>
      </trkpt>
      <trkpt lat="50.01614" lon="2.01944">
        <ele>9.9</ele>
        <time>2022-04-12T14:27:21Z</time>
      </trkpt>
      <trkpt lat="50.01603" lon="2.01931">
        <ele>9.9</ele>
        <time>2022-04-12T14:27:22Z</time>
      </trkpt>
      <trkpt lat="50.01592" lon="2.01916">
        <ele>9.8</ele>
        <time>2022-04-12T14:27:23Z</time>
      </trkpt>
      <trkpt lat="50.0158" lon="2.01901">
        <ele>9.8</ele>
        <time>2022-04-12T14:27:24Z</time>
      </trkpt>
      <trkpt lat="50.01568" lon="2.01885">
        <ele>9.8</ele>
        <time>2022-04-12T14:27:25Z</time>
      </trkpt>
      <trkpt lat="50.01555" lon="2.01868">
        <ele>9.8</ele>
        <time>2022-04-12T14:27:26Z</time>
      </trkpt>
      <trkpt lat="50.01543" lon="2.01852">
        <ele>9.7</ele>
        <time>2022-04-12T14:27:27Z</time>
      </trkpt>
      <trkpt lat="50.0153" lon="2.01836">
        <ele>9.7</ele>
        <time>2022-04-12T14:27:28Z</time>
      </trkpt>
      <trkpt lat="50.01517" lon="2.0182">
        <ele>9.7</ele>
        <time>2022-04-12T14:27:29Z</time>
      </trkpt>
      <trkpt lat="50.01504" lon="2.01805">
        <ele>9.6</ele>
        <time>2022-04-12T14:27:30Z</time>
      </trkpt>
      <trkpt lat="50.0149" lon="2.0179">
        <ele>9.7</ele>
        <time>2022-04-12T14:27:31Z</time>
      </trkpt>
      <trkpt lat="50.01477" lon="2.01775">
        <ele>9.7</ele>
        <time>2022-04-12T14:27:32Z</time>
      </trkpt>
      <trkpt lat="50.01465" lon="2.0176">
        <ele>9.7</ele>
        <time>2022-04-12T14:27:33Z</time>
      </trkpt>
      <trkpt lat="50.01452" lon="2.01745">
        <ele>9.8</ele>
        <time>2022-04-12T14:27:34Z</time>
      </trkpt>
      <trkpt lat="50.01439" lon="2.0173">
        <ele>9.8</ele>
        <time>2022-04-12T14:27:35Z</time>
      </trkpt>
      <trkpt lat="50.01426" lon="2.01714">
        <ele>9.7</ele>
        <time>2022-04-12T14:27:36Z</time>
      </trkpt>
      <trkpt lat="50.01413" lon="2.01699">
        <ele>9.7</ele>
        <time>2022-04-12T14:27:37Z</time>
      </trkpt>
      <trkpt lat="50.014" lon="2.01684">
        <ele>9.7</ele>
        <time>2022-04-12T14:27:38Z</time>
      </trkpt>
      <trkpt lat="50.01387" lon="2.01668">
        <ele>9.7</ele>
        <time>2022-04-12T14:27:39Z</time>
      </trkpt>
      <trkpt lat="50.01374" lon="2.01653">
        <ele>9.7</ele>
        <time>2022-04-12T14:27:40Z</time>
      </trkpt>
      <trkpt lat="50.01361" lon="2.01638">
        <ele>9.7</ele>
        <time>2022-04-12T14:27:41Z</time>
      </trkpt>
      <trkpt lat="50.01349" lon="2.01622">
        <ele>9.7</ele>
        <time>2022-04-12T14:27:42Z</time>
      </trkpt>
      <trkpt lat="50.01336" lon="2.01607">
        <ele>9.7</ele>
        <time>2022-04-12T14:27:43Z</time>
      </trkpt>
      <trkpt lat="50.01323" lon="2.01592">
        <ele>9.7</ele>
        <time>2022-04-12T14:27:44Z</time>
      </trkpt>
      <trkpt lat="50.0131" lon="2.01576">
        <ele>9.7</ele>
        <time>2022-04-12T14:27:45Z</time>
      </trkpt>
      <trkpt lat="50.01298" lon="2.01561">
        <ele>9.7</ele>
        <time>2022-04-12T14:27:46Z</time>
      </trkpt>
      <trkpt lat="50.01286" lon="2.01546">
        <ele>9.7</ele>
        <time>2022-04-12T14:27:47Z</time>
      </trkpt>
      <trkpt lat="50.01274" lon="2.01532">
        <ele>9.8</ele>
        <time>2022-04-12T14:27:48Z</time>
      </trkpt>
      <trkpt lat="50.01263" lon="2.01519">
        <ele>9.8</ele>
        <time>2022-04-12T14:27:49Z</time>
      </trkpt>
      <trkpt lat="50.01253" lon="2.01508">
        <ele>9.8</ele>
        <time>2022-04-12T14:27:50Z</time>
      </trkpt>
      <trkpt lat="50.01244" lon="2.01498">
        <ele>9.8</ele>
        <time>2022-04-12T14:27:51Z</time>
      </trkpt>
      <trkpt lat="50.01236" lon="2.01489">
        <ele>9.7</ele>
        <time>2022-04-12T14:27:52Z</time>
      </trkpt>
      <trkpt lat="50.01228" lon="2.0148">
        <ele>9.7</ele>
        <time>2022-04-12T14:27:53Z</time>
      </trkpt>
      <trkpt lat="50.01221" lon="2.01473">
        <ele>9.8</ele>
        <time>2022-04-12T14:27:54Z</time>
      </trkpt>
      <trkpt lat="50.01215" lon="2.01466">
        <ele>9.8</ele>
        <time>2022-04-12T14:27:55Z</time>
      </trkpt>
      <trkpt lat="50.01209" lon="2.01458">
        <ele>9.8</ele>
        <time>2022-04-12T14:27:56Z</time>
      </trkpt>
      <trkpt lat="50.01202" lon="2.0145">
        <ele>9.8</ele>
        <time>2022-04-12T14:27:57Z</time>
      </trkpt>
      <trkpt lat="50.01194" lon="2.01442">
        <ele>9.8</ele>
        <time>2022-04-12T14:27:58Z</time>
      </trkpt>
      <trkpt lat="50.01186" lon="2.01432">
        <ele>9.9</ele>
        <time>2022-04-12T14:27:59Z</time>
      </trkpt>
      <trkpt lat="50.01178" lon="2.01421">
        <ele>9.9</ele>
        <time>2022-04-12T14:28:00Z</time>
      </trkpt>
      <trkpt lat="50.0117" lon="2.0141">
        <ele>10</ele>
        <time>2022-04-12T14:28:01Z</time>
      </trkpt>
      <trkpt lat="50.01161" lon="2.01399">
        <ele>10</ele>
        <time>2022-04-12T14:28:02Z</time>
      </trkpt>
      <trkpt lat="50.01152" lon="2.01388">
        <ele>10.1</ele>
        <time>2022-04-12T14:28:03Z</time>
      </trkpt>
      <trkpt lat="50.01143" lon="2.01378">
        <ele>10.2</ele>
        <time>2022-04-12T14:28:04Z</time>
      </trkpt>
      <trkpt lat="50.01134" lon="2.01368">
        <ele>10.4</ele>
        <time>2022-04-12T14:28:05Z</time>
      </trkpt>
      <trkpt lat="50.01125" lon="2.01359">
        <ele>10.5</ele>
        <time>2022-04-12T14:28:06Z</time>
      </trkpt>
      <trkpt lat="50.01116" lon="2.01351">
        <ele>10.7</ele>
        <time>2022-04-12T14:28:07Z</time>
      </trkpt>
      <trkpt lat="50.01108" lon="2.01343">
        <ele>10.9</ele>
        <time>2022-04-12T14:28:08Z</time>
      </trkpt>
      <trkpt lat="50.01099" lon="2.01336">
        <ele>11</ele>
        <time>2022-04-12T14:28:09Z</time>
      </trkpt>
      <trkpt lat="50.01091" lon="2.0133">
        <ele>11.2</ele>
        <time>2022-04-12T14:28:10Z</time>
      </trkpt>
      <trkpt lat="50.01084" lon="2.01324">
        <ele>11.4</ele>
        <time>2022-04-12T14:28:11Z</time>
      </trkpt>
      <trkpt lat="50.01077" lon="2.01319">
        <ele>11.5</ele>
        <time>2022-04-12T14:28:12Z</time>
      </trkpt>
      <trkpt lat="50.01071" lon="2.01314">
        <ele>11.6</ele>
        <time>2022-04-12T14:28:13Z</time>
      </trkpt>
      <trkpt lat="50.01065" lon="2.0131">
        <ele>11.7</ele>
        <time>2022-04-12T14:28:14Z</time>
      </trkpt>
      <trkpt lat="50.01059" lon="2.01305">
        <ele>11.9</ele>
        <time>2022-04-12T14:28:15Z</time>
      </trkpt>
      <trkpt lat="50.01052" lon="2.01299">
        <ele>12.1</ele>
        <time>2022-04-12T14:28:16Z</time>
      </trkpt>
      <trkpt lat="50.01046" lon="2.01294">
        <ele>12.2</ele>
        <time>2022-04-12T14:28:17Z</time>
      </trkpt>
      <trkpt lat="50.0104" lon="2.01288">
        <ele>12.4</ele>
        <time>2022-04-12T14:28:18Z</time>
      </trkpt>
      <trkpt lat="50.01033" lon="2.01282">
        <ele>12.6</ele>
        <time>2022-04-12T14:28:19Z</time>
      </trkpt>
      <trkpt lat="50.01027" lon="2.01277">
        <ele>12.8</ele>
        <time>2022-04-12T14:28:20Z</time>
      </trkpt>
      <trkpt lat="50.01022" lon="2.01272">
        <ele>12.9</ele>
        <time>2022-04-12T14:28:21Z</time>
      </trkpt>
      <trkpt lat="50.01017" lon="2.01269">
        <ele>13.1</ele>
        <time>2022-04-12T14:28:22Z</time>
      </trkpt>
      <trkpt lat="50.01013" lon="2.01265">
        <ele>13.2</ele>
        <time>2022-04-12T14:28:23Z</time>
      </trkpt>
      <trkpt lat="50.01009" lon="2.01262">
        <ele>13.2</ele>
        <time>2022-04-12T14:28:24Z</time>
      </trkpt>
      <trkpt lat="50.01007" lon="2.01259">
        <ele>13.3</ele>
        <time>2022-04-12T14:28:25Z</time>
      </trkpt>
      <trkpt lat="50.01006" lon="2.01254">
        <ele>13.3</ele>
        <time>2022-04-12T14:28:26Z</time>
      </trkpt>
      <trkpt lat="50.01006" lon="2.01252">
        <ele>13.3</ele>
        <time>2022-04-12T14:28:27Z</time>
      </trkpt>
      <trkpt lat="50.01006" lon="2.01248">
        <ele>13.3</ele>
        <time>2022-04-12T14:28:28Z</time>
      </trkpt>
      <trkpt lat="50.01006" lon="2.01243">
        <ele>13.3</ele>
        <time>2022-04-12T14:28:29Z</time>
      </trkpt>
      <trkpt lat="50.01005" lon="2.01237">
        <ele>13.3</ele>
        <time>2022-04-12T14:28:30Z</time>
      </trkpt>
      <trkpt lat="50.01004" lon="2.01231">
        <ele>13.3</ele>
        <time>2022-04-12T14:28:31Z</time>
      </trkpt>
      <trkpt lat="50.01005" lon="2.01225">
        <ele>13.3</ele>
        <time>2022-04-12T14:28:32Z</time>
      </trkpt>
      <trkpt lat="50.01005" lon="2.01218">
        <ele>13.3</ele>
        <time>2022-04-12T14:28:33Z</time>
      </trkpt>
      <trkpt lat="50.01006" lon="2.01209">
        <ele>13.3</ele>
        <time>2022-04-12T14:28:34Z</time>
      </trkpt>
      <trkpt lat="50.01006" lon="2.01199">
        <ele>13.3</ele>
        <time>2022-04-12T14:28:35Z</time>
      </trkpt>
      <trkpt lat="50.01007" lon="2.01189">
        <ele>13.3</ele>
        <time>2022-04-12T14:28:36Z</time>
      </trkpt>
      <trkpt lat="50.01008" lon="2.01179">
        <ele>13.3</ele>
        <time>2022-04-12T14:28:37Z</time>
      </trkpt>
      <trkpt lat="50.01009" lon="2.01167">
        <ele>13.3</ele>
        <time>2022-04-12T14:28:38Z</time>
      </trkpt>
      <trkpt lat="50.01009" lon="2.01155">
        <ele>13.3</ele>
        <time>2022-04-12T14:28:39Z</time>
      </trkpt>
      <trkpt lat="50.0101" lon="2.01142">
        <ele>13.3</ele>
        <time>2022-04-12T14:28:40Z</time>
      </trkpt>
      <trkpt lat="50.01012" lon="2.01128">
        <ele>13.3</ele>
        <time>2022-04-12T14:28:41Z</time>
      </trkpt>
      <trkpt lat="50.01015" lon="2.01113">
        <ele>13.3</ele>
        <time>2022-04-12T14:28:42Z</time>
      </trkpt>
      <trkpt lat="50.01018" lon="2.01097">
        <ele>13.3</ele>
        <time>2022-04-12T14:28:43Z</time>
      </trkpt>
      <trkpt lat="50.0102" lon="2.0108">
        <ele>13.2</ele>
        <time>2022-04-12T14:28:44Z</time>
      </trkpt>
      <trkpt lat="50.01023" lon="2.01063">
        <ele>13.2</ele>
        <time>2022-04-12T14:28:45Z</time>
      </trkpt>
      <trkpt lat="50.01026" lon="2.01047">
        <ele>13.2</ele>
        <time>2022-04-12T14:28:46Z</time>
      </trkpt>
      <trkpt lat="50.01029" lon="2.0103">
        <ele>13.1</ele>
        <time>2022-04-12T14:28:47Z</time>
      </trkpt>
      <trkpt lat="50.01031" lon="2.01013">
        <ele>13.1</ele>
        <time>2022-04-12T14:28:48Z</time>
      </trkpt>
      <trkpt lat="50.01034" lon="2.00996">
        <ele>13.1</ele>
        <time>2022-04-12T14:28:49Z</time>
      </trkpt>
      <trkpt lat="50.01037" lon="2.0098">
        <ele>13</ele>
        <time>2022-04-12T14:28:50Z</time>
      </trkpt>
      <trkpt lat="50.0104" lon="2.00964">
        <ele>13</ele>
        <time>2022-04-12T14:28:51Z</time>
      </trkpt>
      <trkpt lat="50.01043" lon="2.00949">
        <ele>13</ele>
        <time>2022-04-12T14:28:52Z</time>
      </trkpt>
      <trkpt lat="50.01046" lon="2.00935">
        <ele>13.1</ele>
        <time>2022-04-12T14:28:53Z</time>
      </trkpt>
      <trkpt lat="50.01049" lon="2.00921">
        <ele>13.1</ele>
        <time>2022-04-12T14:28:54Z</time>
      </trkpt>
      <trkpt lat="50.01051" lon="2.00907">
        <ele>13</ele>
        <time>2022-04-12T14:28:55Z</time>
      </trkpt>
      <trkpt lat="50.01053" lon="2.00893">
        <ele>13.2</ele>
        <time>2022-04-12T14:28:56Z</time>
      </trkpt>
      <trkpt lat="50.01054" lon="2.00878">
        <ele>13.5</ele>
        <time>2022-04-12T14:28:57Z</time>
      </trkpt>
      <trkpt lat="50.01055" lon="2.00862">
        <ele>13.9</ele>
        <time>2022-04-12T14:28:58Z</time>
      </trkpt>
      <trkpt lat="50.01055" lon="2.00846">
        <ele>14.5</ele>
        <time>2022-04-12T14:28:59Z</time>
      </trkpt>
      <trkpt lat="50.01054" lon="2.0083">
        <ele>15</ele>
        <time>2022-04-12T14:29:00Z</time>
      </trkpt>
      <trkpt lat="50.01052" lon="2.00814">
        <ele>15.6</ele>
        <time>2022-04-12T14:29:01Z</time>
      </trkpt>
      <trkpt lat="50.01046" lon="2.00799">
        <ele>16.3</ele>
        <time>2022-04-12T14:29:02Z</time>
      </trkpt>
      <trkpt lat="50.01039" lon="2.00784">
        <ele>16.9</ele>
        <time>2022-04-12T14:29:03Z</time>
      </trkpt>
      <trkpt lat="50.01029" lon="2.0077">
        <ele>17.6</ele>
        <time>2022-04-12T14:29:04Z</time>
      </trkpt>
      <trkpt lat="50.01019" lon="2.00756">
        <ele>18.3</ele>
        <time>2022-04-12T14:29:05Z</time>
      </trkpt>
      <trkpt lat="50.01008" lon="2.00743">
        <ele>19</ele>
        <time>2022-04-12T14:29:06Z</time>
      </trkpt>
      <trkpt lat="50.00997" lon="2.00733">
        <ele>19.6</ele>
        <time>2022-04-12T14:29:07Z</time>
      </trkpt>
      <trkpt lat="50.00984" lon="2.00726">
        <ele>20.1</ele>
        <time>2022-04-12T14:29:08Z</time>
      </trkpt>
      <trkpt lat="50.00972" lon="2.0072">
        <ele>20.3</ele>
        <time>2022-04-12T14:29:09Z</time>
      </trkpt>
      <trkpt lat="50.0096" lon="2.00715">
        <ele>20.4</ele>
        <time>2022-04-12T14:29:10Z</time>
      </trkpt>
      <trkpt lat="50.00949" lon="2.0071">
        <ele>20.5</ele>
        <time>2022-04-12T14:29:11Z</time>
      </trkpt>
      <trkpt lat="50.00939" lon="2.00704">
        <ele>20.5</ele>
        <time>2022-04-12T14:29:12Z</time>
      </trkpt>
      <trkpt lat="50.0093" lon="2.00698">
        <ele>20.4</ele>
        <time>2022-04-12T14:29:13Z</time>
      </trkpt>
      <trkpt lat="50.00922" lon="2.00693">
        <ele>20.4</ele>
        <time>2022-04-12T14:29:14Z</time>
      </trkpt>
      <trkpt lat="50.00915" lon="2.00687">
        <ele>20.4</ele>
        <time>2022-04-12T14:29:15Z</time>
      </trkpt>
      <trkpt lat="50.00909" lon="2.00682">
        <ele>20.3</ele>
        <time>2022-04-12T14:29:16Z</time>
      </trkpt>
      <trkpt lat="50.00904" lon="2.00679">
        <ele>20.3</ele>
        <time>2022-04-12T14:29:17Z</time>
      </trkpt>
      <trkpt lat="50.009" lon="2.00676">
        <ele>20.3</ele>
        <time>2022-04-12T14:29:18Z</time>
      </trkpt>
      <trkpt lat="50.00898" lon="2.00673">
        <ele>20.3</ele>
        <time>2022-04-12T14:29:19Z</time>
      </trkpt>
      <trkpt lat="50.00898" lon="2.00671">
        <ele>20.3</ele>
        <time>2022-04-12T14:29:20Z</time>
      </trkpt>
      <trkpt lat="50.00898" lon="2.0067">
        <ele>20.3</ele>
        <time>2022-04-12T14:29:21Z</time>
      </trkpt>
      <trkpt lat="50.00899" lon="2.0067">
        <ele>20.3</ele>
        <time>2022-04-12T14:29:22Z</time>
      </trkpt>
      <trkpt lat="50.009" lon="2.0067">
        <ele>20.3</ele>
        <time>2022-04-12T14:29:23Z</time>
      </trkpt>
      <trkpt lat="50.009" lon="2.0067">
        <ele>20.3</ele>
        <time>2022-04-12T14:29:24Z</time>
      </trkpt>
      <trkpt lat="50.009" lon="2.0067">
        <ele>20.3</ele>
        <time>2022-04-12T14:29:25Z</time>
      </trkpt>
      <trkpt lat="50.009" lon="2.0067">
        <ele>20.3</ele>
        <time>2022-04-12T14:29:26Z</time>
      </trkpt>
      <trkpt lat="50.009" lon="2.0067">
        <ele>20.3</ele>
        <time>2022-04-12T14:29:27Z</time>
      </trkpt>
      <trkpt lat="50.009" lon="2.0067">
        <ele>20.3</ele>
        <time>2022-04-12T14:29:28Z</time>
      </trkpt>
      <trkpt lat="50.009" lon="2.0067">
        <ele>20.3</ele>
        <time>2022-04-12T14:29:29Z</time>
      </trkpt>
      <trkpt lat="50.009" lon="2.0067">
        <ele>20.3</ele>
        <time>2022-04-12T14:29:30Z</time>
      </trkpt>
      <trkpt lat="50.009" lon="2.0067">
        <ele>20.3</ele>
        <time>2022-04-12T14:29:31Z</time>
      </trkpt>
      <trkpt lat="50.009" lon="2.0067">
        <ele>20.3</ele>
        <time>2022-04-12T14:29:32Z</time>
      </trkpt>
      <trkpt lat="50.009" lon="2.0067">
        <ele>20.3</ele>
        <time>2022-04-12T14:29:33Z</time>
      </trkpt>
      <trkpt lat="50.009" lon="2.0067">
        <ele>20.3</ele>
        <time>2022-04-12T14:29:34Z</time>
      </trkpt>
      <trkpt lat="50.009" lon="2.0067">
        <ele>20.3</ele>
        <time>2022-04-12T14:29:35Z</time>
      </trkpt>
      <trkpt lat="50.009" lon="2.0067">
        <ele>20.3</ele>
        <time>2022-04-12T14:29:36Z</time>
      </trkpt>
      <trkpt lat="50.009" lon="2.0067">
        <ele>20.3</ele>
        <time>2022-04-12T14:29:37Z</time>
      </trkpt>
      <trkpt lat="50.009" lon="2.0067">
        <ele>20.3</ele>
        <time>2022-04-12T14:29:38Z</time>
      </trkpt>
      <trkpt lat="50.009" lon="2.0067">
        <ele>20.3</ele>
        <time>2022-04-12T14:29:39Z</time>
      </trkpt>
      <trkpt lat="50.009" lon="2.0067">
        <ele>20.3</ele>
        <time>2022-04-12T14:29:40Z</time>
      </trkpt>
      <trkpt lat="50.009" lon="2.0067">
        <ele>20.3</ele>
        <time>2022-04-12T14:29:41Z</time>
      </trkpt>
      <trkpt lat="50.009" lon="2.0067">
        <ele>20.3</ele>
        <time>2022-04-12T14:29:42Z</time>
      </trkpt>
      <trkpt lat="50.009" lon="2.0067">
        <ele>20.3</ele>
        <time>2022-04-12T14:29:43Z</time>
      </trkpt>
      <trkpt lat="50.009" lon="2.0067">
        <ele>20.3</ele>
        <time>2022-04-12T14:29:44Z</time>
      </trkpt>
      <trkpt lat="50.009" lon="2.0067">
        <ele>20.3</ele>
        <time>2022-04-12T14:29:45Z</time>
      </trkpt>
      <trkpt lat="50.009" lon="2.0067">
        <ele>20.3</ele>
        <time>2022-04-12T14:29:46Z</time>
      </trkpt>
      <trkpt lat="50.009" lon="2.0067">
        <ele>20.3</ele>
        <time>2022-04-12T14:29:47Z</time>
      </trkpt>
      <trkpt lat="50.009" lon="2.0067">
        <ele>20.3</ele>
        <time>2022-04-12T14:29:48Z</time>
      </trkpt>
      <trkpt lat="50.009" lon="2.0067">
        <ele>20.3</ele>
        <time>2022-04-12T14:29:49Z</time>
      </trkpt>
      <trkpt lat="50.009" lon="2.0067">
        <ele>20.3</ele>
        <time>2022-04-12T14:29:50Z</time>
      </trkpt>
      <trkpt lat="50.009" lon="2.0067">
        <ele>20.3</ele>
        <time>2022-04-12T14:29:51Z</time>
      </trkpt>
      <trkpt lat="50.009" lon="2.0067">
        <ele>20.3</ele>
        <time>2022-04-12T14:29:52Z</time>
      </trkpt>
      <trkpt lat="50.009" lon="2.0067">
        <ele>20.3</ele>
        <time>2022-04-12T14:29:53Z</time>
      </trkpt>
      <trkpt lat="50.009" lon="2.0067">
        <ele>20.3</ele>
        <time>2022-04-12T14:29:54Z</time>
      </trkpt>
      <trkpt lat="50.009" lon="2.0067">
        <ele>20.3</ele>
        <time>2022-04-12T14:29:55Z</time>
      </trkpt>
      <trkpt lat="50.009" lon="2.0067">
        <ele>20.3</ele>
        <time>2022-04-12T14:29:56Z</time>
      </trkpt>
      <trkpt lat="50.009" lon="2.0067">
        <ele>20.3</ele>
        <time>2022-04-12T14:29:57Z</time>
      </trkpt>
      <trkpt lat="50.009" lon="2.0067">
        <ele>20.3</ele>
        <time>2022-04-12T14:29:58Z</time>
      </trkpt>
      <trkpt lat="50.009" lon="2.0067">
        <ele>20.3</ele>
        <time>2022-04-12T14:29:59Z</time>
      </trkpt>
      <trkpt lat="50.009" lon="2.0067">
        <ele>20.3</ele>
        <time>2022-04-12T14:30:00Z</time>
      </trkpt>
      <trkpt lat="50.009" lon="2.0067">
        <ele>20.3</ele>
        <time>2022-04-12T14:30:01Z</time>
      </trkpt>
      <trkpt lat="50.009" lon="2.0067">
        <ele>20.3</ele>
        <time>2022-04-12T14:30:02Z</time>
      </trkpt>
      <trkpt lat="50.009" lon="2.0067">
        <ele>20.3</ele>
        <time>2022-04-12T14:30:03Z</time>
      </trkpt>
      <trkpt lat="50.009" lon="2.0067">
        <ele>20.3</ele>
        <time>2022-04-12T14:30:04Z</time>
      </trkpt>
      <trkpt lat="50.009" lon="2.0067">
        <ele>20.3</ele>
        <time>2022-04-12T14:30:05Z</time>
      </trkpt>
      <trkpt lat="50.009" lon="2.0067">
        <ele>20.3</ele>
        <time>2022-04-12T14:30:06Z</time>
      </trkpt>
      <trkpt lat="50.009" lon="2.0067">
        <ele>20.3</ele>
        <time>2022-04-12T14:30:07Z</time>
      </trkpt>
      <trkpt lat="50.009" lon="2.0067">
        <ele>20.3</ele>
        <time>2022-04-12T14:30:08Z</time>
      </trkpt>
      <trkpt lat="50.009" lon="2.0067">
        <ele>20.3</ele>
        <time>2022-04-12T14:30:09Z</time>
      </trkpt>
      <trkpt lat="50.009" lon="2.0067">
        <ele>20.3</ele>
        <time>2022-04-12T14:30:10Z</time>
      </trkpt>
      <trkpt lat="50.009" lon="2.0067">
        <ele>20.3</ele>
        <time>2022-04-12T14:30:11Z</time>
      </trkpt>
      <trkpt lat="50.009" lon="2.0067">
        <ele>20.3</ele>
        <time>2022-04-12T14:30:12Z</time>
      </trkpt>
      <trkpt lat="50.009" lon="2.0067">
        <ele>20.3</ele>
        <time>2022-04-12T14:30:13Z</time>
      </trkpt>
      <trkpt lat="50.009" lon="2.0067">
        <ele>20.3</ele>
        <time>2022-04-12T14:30:14Z</time>
      </trkpt>
      <trkpt lat="50.009" lon="2.0067">
        <ele>20.3</ele>
        <time>2022-04-12T14:30:15Z</time>
      </trkpt>
      <trkpt lat="50.009" lon="2.0067">
        <ele>20.3</ele>
        <time>2022-04-12T14:30:16Z</time>
      </trkpt>
      <trkpt lat="50.009" lon="2.0067">
        <ele>20.3</ele>
        <time>2022-04-12T14:30:17Z</time>
      </trkpt>
      <trkpt lat="50.009" lon="2.0067">
        <ele>20.3</ele>
        <time>2022-04-12T14:30:18Z</time>
      </trkpt>
      <trkpt lat="50.009" lon="2.0067">
        <ele>20.3</ele>
        <time>2022-04-12T14:30:19Z</time>
      </trkpt>
      <trkpt lat="50.009" lon="2.0067">
        <ele>20.3</ele>
        <time>2022-04-12T14:30:20Z</time>
      </trkpt>
      <trkpt lat="50.009" lon="2.0067">
        <ele>20.3</ele>
        <time>2022-04-12T14:30:21Z</time>
      </trkpt>
      <trkpt lat="50.009" lon="2.0067">
        <ele>20.3</ele>
        <time>2022-04-12T14:30:22Z</time>
      </trkpt>
      <trkpt lat="50.009" lon="2.0067">
        <ele>20.3</ele>
        <time>2022-04-12T14:30:23Z</time>
      </trkpt>
      <trkpt lat="50.009" lon="2.0067">
        <ele>20.3</ele>
        <time>2022-04-12T14:30:24Z</time>
      </trkpt>
      <trkpt lat="50.009" lon="2.0067">
        <ele>20.3</ele>
        <time>2022-04-12T14:30:25Z</time>
      </trkpt>
      <trkpt lat="50.009" lon="2.0067">
        <ele>20.3</ele>
        <time>2022-04-12T14:30:26Z</time>
      </trkpt>
      <trkpt lat="50.009" lon="2.0067">
        <ele>20.3</ele>
        <time>2022-04-12T14:30:27Z</time>
      </trkpt>
      <trkpt lat="50.009" lon="2.0067">
        <ele>20.3</ele>
        <time>2022-04-12T14:30:28Z</time>
      </trkpt>
      <trkpt lat="50.009" lon="2.0067">
        <ele>20.3</ele>
        <time>2022-04-12T14:30:29Z</time>
      </trkpt>
      <trkpt lat="50.009" lon="2.0067">
        <ele>20.3</ele>
        <time>2022-04-12T14:30:30Z</time>
      </trkpt>
      <trkpt lat="50.009" lon="2.0067">
        <ele>20.3</ele>
        <time>2022-04-12T14:30:31Z</time>
      </trkpt>
      <trkpt lat="50.009" lon="2.0067">
        <ele>20.3</ele>
        <time>2022-04-12T14:30:32Z</time>
      </trkpt>
      <trkpt lat="50.009" lon="2.0067">
        <ele>20.3</ele>
        <time>2022-04-12T14:30:33Z</time>
      </trkpt>
      <trkpt lat="50.009" lon="2.0067">
        <ele>20.3</ele>
        <time>2022-04-12T14:30:34Z</time>
      </trkpt>
      <trkpt lat="50.009" lon="2.0067">
        <ele>20.3</ele>
        <time>2022-04-12T14:30:35Z</time>
      </trkpt>
      <trkpt lat="50.009" lon="2.0067">
        <ele>20.3</ele>
        <time>2022-04-12T14:30:36Z</time>
      </trkpt>
      <trkpt lat="50.009" lon="2.0067">
        <ele>20.3</ele>
        <time>2022-04-12T14:30:37Z</time>
      </trkpt>
      <trkpt lat="50.009" lon="2.0067">
        <ele>20.3</ele>
        <time>2022-04-12T14:30:38Z</time>
      </trkpt>
      <trkpt lat="50.009" lon="2.0067">
        <ele>20.3</ele>
        <time>2022-04-12T14:30:39Z</time>
      </trkpt>
      <trkpt lat="50.009" lon="2.0067">
        <ele>20.3</ele>
        <time>2022-04-12T14:30:40Z</time>
      </trkpt>
      <trkpt lat="50.009" lon="2.0067">
        <ele>20.3</ele>
        <time>2022-04-12T14:30:41Z</time>
      </trkpt>
      <trkpt lat="50.009" lon="2.0067">
        <ele>20.3</ele>
        <time>2022-04-12T14:30:42Z</time>
      </trkpt>
      <trkpt lat="50.009" lon="2.0067">
        <ele>20.3</ele>
        <time>2022-04-12T14:30:43Z</time>
      </trkpt>
      <trkpt lat="50.009" lon="2.0067">
        <ele>20.3</ele>
        <time>2022-04-12T14:30:44Z</time>
      </trkpt>
      <trkpt lat="50.009" lon="2.0067">
        <ele>20.3</ele>
        <time>2022-04-12T14:30:45Z</time>
      </trkpt>
      <trkpt lat="50.009" lon="2.0067">
        <ele>20.3</ele>
        <time>2022-04-12T14:30:46Z</time>
      </trkpt>
      <trkpt lat="50.009" lon="2.0067">
        <ele>20.3</ele>
        <time>2022-04-12T14:30:47Z</time>
      </trkpt>
      <trkpt lat="50.009" lon="2.0067">
        <ele>20.3</ele>
        <time>2022-04-12T14:30:48Z</time>
      </trkpt>
      <trkpt lat="50.009" lon="2.0067">
        <ele>20.3</ele>
        <time>2022-04-12T14:30:49Z</time>
      </trkpt>
      <trkpt lat="50.009" lon="2.0067">
        <ele>20.3</ele>
        <time>2022-04-12T14:30:50Z</time>
      </trkpt>
      <trkpt lat="50.009" lon="2.0067">
        <ele>20.3</ele>
        <time>2022-04-12T14:30:51Z</time>
      </trkpt>
      <trkpt lat="50.009" lon="2.0067">
        <ele>20.3</ele>
        <time>2022-04-12T14:30:52Z</time>
      </trkpt>
      <trkpt lat="50.009" lon="2.0067">
        <ele>20.3</ele>
        <time>2022-04-12T14:30:53Z</time>
      </trkpt>
      <trkpt lat="50.009" lon="2.0067">
        <ele>20.3</ele>
        <time>2022-04-12T14:30:54Z</time>
      </trkpt>
      <trkpt lat="50.009" lon="2.0067">
        <ele>20.3</ele>
        <time>2022-04-12T14:30:55Z</time>
      </trkpt>
      <trkpt lat="50.009" lon="2.0067">
        <ele>20.3</ele>
        <time>2022-04-12T14:30:56Z</time>
      </trkpt>
      <trkpt lat="50.009" lon="2.0067">
        <ele>20.3</ele>
        <time>2022-04-12T14:30:57Z</time>
      </trkpt>
      <trkpt lat="50.009" lon="2.0067">
        <ele>20.3</ele>
        <time>2022-04-12T14:30:58Z</time>
      </trkpt>
      <trkpt lat="50.009" lon="2.0067">
        <ele>20.3</ele>
        <time>2022-04-12T14:30:59Z</time>
      </trkpt>
      <trkpt lat="50.009" lon="2.0067">
        <ele>20.3</ele>
        <time>2022-04-12T14:31:00Z</time>
      </trkpt>
      <trkpt lat="50.009" lon="2.0067">
        <ele>20.3</ele>
        <time>2022-04-12T14:31:01Z</time>
      </trkpt>
      <trkpt lat="50.009" lon="2.0067">
        <ele>20.3</ele>
        <time>2022-04-12T14:31:02Z</time>
      </trkpt>
      <trkpt lat="50.009" lon="2.0067">
        <ele>20.3</ele>
        <time>2022-04-12T14:31:03Z</time>
      </trkpt>
      <trkpt lat="50.009" lon="2.0067">
        <ele>20.3</ele>
        <time>2022-04-12T14:31:04Z</time>
      </trkpt>
      <trkpt lat="50.009" lon="2.0067">
        <ele>20.3</ele>
        <time>2022-04-12T14:31:05Z</time>
      </trkpt>
      <trkpt lat="50.009" lon="2.0067">
        <ele>20.3</ele>
        <time>2022-04-12T14:31:06Z</time>
      </trkpt>
      <trkpt lat="50.009" lon="2.0067">
        <ele>20.3</ele>
        <time>2022-04-12T14:31:07Z</time>
      </trkpt>
      <trkpt lat="50.009" lon="2.0067">
        <ele>20.3</ele>
        <time>2022-04-12T14:31:08Z</time>
      </trkpt>
      <trkpt lat="50.009" lon="2.0067">
        <ele>20.3</ele>
        <time>2022-04-12T14:31:09Z</time>
      </trkpt>
      <trkpt lat="50.009" lon="2.0067">
        <ele>20.3</ele>
        <time>2022-04-12T14:31:10Z</time>
      </trkpt>
      <trkpt lat="50.009" lon="2.0067">
        <ele>20.3</ele>
        <time>2022-04-12T14:31:11Z</time>
      </trkpt>
      <trkpt lat="50.009" lon="2.0067">
        <ele>20.3</ele>
        <time>2022-04-12T14:31:12Z</time>
      </trkpt>
      <trkpt lat="50.009" lon="2.0067">
        <ele>20.3</ele>
        <time>2022-04-12T14:31:13Z</time>
      </trkpt>
      <trkpt lat="50.009" lon="2.0067">
        <ele>20.3</ele>
        <time>2022-04-12T14:31:14Z</time>
      </trkpt>
      <trkpt lat="50.009" lon="2.0067">
        <ele>20.3</ele>
        <time>2022-04-12T14:31:15Z</time>
      </trkpt>
      <trkpt lat="50.009" lon="2.0067">
        <ele>20.3</ele>
        <time>2022-04-12T14:31:16Z</time>
      </trkpt>
      <trkpt lat="50.009" lon="2.0067">
        <ele>20.3</ele>
        <time>2022-04-12T14:31:17Z</time>
      </trkpt>
      <trkpt lat="50.009" lon="2.0067">
        <ele>20.3</ele>
        <time>2022-04-12T14:31:18Z</time>
      </trkpt>
      <trkpt lat="50.009" lon="2.0067">
        <ele>20.3</ele>
        <time>2022-04-12T14:31:19Z</time>
      </trkpt>
      <trkpt lat="50.009" lon="2.0067">
        <ele>20.3</ele>
        <time>2022-04-12T14:31:20Z</time>
      </trkpt>
      <trkpt lat="50.009" lon="2.0067">
        <ele>20.3</ele>
        <time>2022-04-12T14:31:21Z</time>
      </trkpt>
      <trkpt lat="50.009" lon="2.0067">
        <ele>20.3</ele>
        <time>2022-04-12T14:31:22Z</time>
      </trkpt>
      <trkpt lat="50.009" lon="2.0067">
        <ele>20.3</ele>
        <time>2022-04-12T14:31:23Z</time>
      </trkpt>
      <trkpt lat="50.009" lon="2.0067">
        <ele>20.3</ele>
        <time>2022-04-12T14:31:24Z</time>
      </trkpt>
      <trkpt lat="50.009" lon="2.0067">
        <ele>20.3</ele>
        <time>2022-04-12T14:31:25Z</time>
      </trkpt>
      <trkpt lat="50.009" lon="2.0067">
        <ele>20.3</ele>
        <time>2022-04-12T14:31:26Z</time>
      </trkpt>
      <trkpt lat="50.009" lon="2.0067">
        <ele>20.3</ele>
        <time>2022-04-12T14:31:27Z</time>
      </trkpt>
      <trkpt lat="50.009" lon="2.0067">
        <ele>20.3</ele>
        <time>2022-04-12T14:31:28Z</time>
      </trkpt>
      <trkpt lat="50.009" lon="2.0067">
        <ele>20.3</ele>
        <time>2022-04-12T14:31:29Z</time>
      </trkpt>
      <trkpt lat="50.009" lon="2.00669">
        <ele>20.3</ele>
        <time>2022-04-12T14:31:30Z</time>
      </trkpt>
      <trkpt lat="50.009" lon="2.00668">
        <ele>20.3</ele>
        <time>2022-04-12T14:31:31Z</time>
      </trkpt>
      <trkpt lat="50.009" lon="2.00667">
        <ele>20.3</ele>
        <time>2022-04-12T14:31:32Z</time>
      </trkpt>
      <trkpt lat="50.009" lon="2.00666">
        <ele>20.4</ele>
        <time>2022-04-12T14:31:33Z</time>
      </trkpt>
      <trkpt lat="50.00899" lon="2.00666">
        <ele>20.4</ele>
        <time>2022-04-12T14:31:34Z</time>
      </trkpt>
      <trkpt lat="50.00899" lon="2.00666">
        <ele>20.4</ele>
        <time>2022-04-12T14:31:35Z</time>
      </trkpt>
      <trkpt lat="50.00899" lon="2.00666">
        <ele>20.4</ele>
        <time>2022-04-12T14:31:36Z</time>
      </trkpt>
      <trkpt lat="50.00899" lon="2.00665">
        <ele>20.4</ele>
        <time>2022-04-12T14:31:37Z</time>
      </trkpt>
      <trkpt lat="50.00899" lon="2.00664">
        <ele>20.4</ele>
        <time>2022-04-12T14:31:38Z</time>
      </trkpt>
      <trkpt lat="50.00899" lon="2.00663">
        <ele>20.4</ele>
        <time>2022-04-12T14:31:39Z</time>
      </trkpt>
      <trkpt lat="50.00898" lon="2.00661">
        <ele>20.4</ele>
        <time>2022-04-12T14:31:40Z</time>
      </trkpt>
      <trkpt lat="50.00898" lon="2.0066">
        <ele>20.4</ele>
        <time>2022-04-12T14:31:41Z</time>
      </trkpt>
      <trkpt lat="50.00898" lon="2.00659">
        <ele>20.4</ele>
        <time>2022-04-12T14:31:42Z</time>
      </trkpt>
      <trkpt lat="50.00898" lon="2.00658">
        <ele>20.4</ele>
        <time>2022-04-12T14:31:43Z</time>
      </trkpt>
      <trkpt lat="50.00898" lon="2.00656">
        <ele>20.4</ele>
        <time>2022-04-12T14:31:44Z</time>
      </trkpt>
      <trkpt lat="50.00898" lon="2.00654">
        <ele>20.4</ele>
        <time>2022-04-12T14:31:45Z</time>
      </trkpt>
      <trkpt lat="50.00898" lon="2.00652">
        <ele>20.4</ele>
        <time>2022-04-12T14:31:46Z</time>
      </trkpt>
      <trkpt lat="50.00898" lon="2.00651">
        <ele>20.4</ele>
        <time>2022-04-12T14:31:47Z</time>
      </trkpt>
      <trkpt lat="50.00898" lon="2.00649">
        <ele>20.4</ele>
        <time>2022-04-12T14:31:48Z</time>
      </trkpt>
      <trkpt lat="50.00898" lon="2.00646">
        <ele>20.4</ele>
        <time>2022-04-12T14:31:50Z</time>
      </trkpt>
      <trkpt lat="50.00897" lon="2.00645">
        <ele>20.4</ele>
        <time>2022-04-12T14:31:51Z</time>
      </trkpt>
      <trkpt lat="50.00897" lon="2.00644">
        <ele>20.4</ele>
        <time>2022-04-12T14:31:52Z</time>
      </trkpt>
      <trkpt lat="50.00897" lon="2.00642">
        <ele>20.4</ele>
        <time>2022-04-12T14:31:53Z</time>
      </trkpt>
      <trkpt lat="50.00897" lon="2.00641">
        <ele>20.4</ele>
        <time>2022-04-12T14:31:54Z</time>
      </trkpt>
      <trkpt lat="50.00897" lon="2.0064">
        <ele>20.4</ele>
        <time>2022-04-12T14:31:55Z</time>
      </trkpt>
      <trkpt lat="50.00897" lon="2.0064">
        <ele>20.4</ele>
        <time>2022-04-12T14:31:56Z</time>
      </trkpt>
      <trkpt lat="50.00897" lon="2.00639">
        <ele>20.4</ele>
        <time>2022-04-12T14:31:57Z</time>
      </trkpt>
      <trkpt lat="50.00897" lon="2.00638">
        <ele>20.4</ele>
        <time>2022-04-12T14:31:58Z</time>
      </trkpt>
      <trkpt lat="50.00897" lon="2.00638">
        <ele>20.4</ele>
        <time>2022-04-12T14:31:59Z</time>
      </trkpt>
      <trkpt lat="50.00898" lon="2.00638">
        <ele>20.4</ele>
        <time>2022-04-12T14:32:00Z</time>
      </trkpt>
      <trkpt lat="50.00898" lon="2.00638">
        <ele>20.4</ele>
        <time>2022-04-12T14:32:01Z</time>
      </trkpt>
      <trkpt lat="50.00898" lon="2.00638">
        <ele>20.4</ele>
        <time>2022-04-12T14:32:02Z</time>
      </trkpt>
      <trkpt lat="50.00898" lon="2.00638">
        <ele>20.4</ele>
        <time>2022-04-12T14:32:03Z</time>
      </trkpt>
      <trkpt lat="50.00898" lon="2.00638">
        <ele>20.4</ele>
        <time>2022-04-12T14:32:04Z</time>
      </trkpt>
      <trkpt lat="50.00898" lon="2.00638">
        <ele>20.4</ele>
        <time>2022-04-12T14:32:05Z</time>
      </trkpt>
      <trkpt lat="50.00898" lon="2.00638">
        <ele>20.4</ele>
        <time>2022-04-12T14:32:06Z</time>
      </trkpt>
      <trkpt lat="50.00897" lon="2.00638">
        <ele>20.4</ele>
        <time>2022-04-12T14:32:07Z</time>
      </trkpt>
      <trkpt lat="50.00897" lon="2.00638">
        <ele>20.4</ele>
        <time>2022-04-12T14:32:08Z</time>
      </trkpt>
      <trkpt lat="50.00897" lon="2.00638">
        <ele>20.4</ele>
        <time>2022-04-12T14:32:09Z</time>
      </trkpt>
      <trkpt lat="50.00897" lon="2.00638">
        <ele>20.4</ele>
        <time>2022-04-12T14:32:10Z</time>
      </trkpt>
      <trkpt lat="50.00897" lon="2.00638">
        <ele>20.4</ele>
        <time>2022-04-12T14:32:11Z</time>
      </trkpt>
      <trkpt lat="50.00897" lon="2.00637">
        <ele>20.4</ele>
        <time>2022-04-12T14:32:12Z</time>
      </trkpt>
      <trkpt lat="50.00897" lon="2.00637">
        <ele>20.4</ele>
        <time>2022-04-12T14:32:13Z</time>
      </trkpt>
      <trkpt lat="50.00897" lon="2.00637">
        <ele>20.4</ele>
        <time>2022-04-12T14:32:14Z</time>
      </trkpt>
      <trkpt lat="50.00897" lon="2.00637">
        <ele>20.4</ele>
        <time>2022-04-12T14:32:15Z</time>
      </trkpt>
      <trkpt lat="50.00897" lon="2.00637">
        <ele>20.4</ele>
        <time>2022-04-12T14:32:16Z</time>
      </trkpt>
      <trkpt lat="50.00897" lon="2.00637">
        <ele>20.4</ele>
        <time>2022-04-12T14:32:17Z</time>
      </trkpt>
      <trkpt lat="50.00897" lon="2.00637">
        <ele>20.4</ele>
        <time>2022-04-12T14:32:18Z</time>
      </trkpt>
      <trkpt lat="50.00897" lon="2.00637">
        <ele>20.4</ele>
        <time>2022-04-12T14:32:19Z</time>
      </trkpt>
      <trkpt lat="50.00897" lon="2.00637">
        <ele>20.4</ele>
        <time>2022-04-12T14:32:20Z</time>
      </trkpt>
      <trkpt lat="50.00897" lon="2.00637">
        <ele>20.4</ele>
        <time>2022-04-12T14:32:21Z</time>
      </trkpt>
      <trkpt lat="50.00897" lon="2.00637">
        <ele>20.4</ele>
        <time>2022-04-12T14:32:22Z</time>
      </trkpt>
      <trkpt lat="50.00897" lon="2.00637">
        <ele>20.4</ele>
        <time>2022-04-12T14:32:23Z</time>
      </trkpt>
      <trkpt lat="50.00897" lon="2.00637">
        <ele>20.4</ele>
        <time>2022-04-12T14:32:24Z</time>
      </trkpt>
      <trkpt lat="50.00897" lon="2.00637">
        <ele>20.4</ele>
        <time>2022-04-12T14:32:25Z</time>
      </trkpt>
      <trkpt lat="50.00896" lon="2.00637">
        <ele>20.4</ele>
        <time>2022-04-12T14:32:26Z</time>
      </trkpt>
      <trkpt lat="50.00896" lon="2.00637">
        <ele>20.4</ele>
        <time>2022-04-12T14:32:27Z</time>
      </trkpt>
      <trkpt lat="50.00896" lon="2.00637">
        <ele>20.4</ele>
        <time>2022-04-12T14:32:28Z</time>
      </trkpt>
      <trkpt lat="50.00896" lon="2.00637">
        <ele>20.4</ele>
        <time>2022-04-12T14:32:29Z</time>
      </trkpt>
      <trkpt lat="50.00896" lon="2.00637">
        <ele>20.4</ele>
        <time>2022-04-12T14:32:30Z</time>
      </trkpt>
      <trkpt lat="50.00896" lon="2.00637">
        <ele>20.4</ele>
        <time>2022-04-12T14:32:31Z</time>
      </trkpt>
      <trkpt lat="50.00896" lon="2.00637">
        <ele>20.4</ele>
        <time>2022-04-12T14:32:32Z</time>
      </trkpt>
      <trkpt lat="50.00896" lon="2.00637">
        <ele>20.4</ele>
        <time>2022-04-12T14:32:33Z</time>
      </trkpt>
      <trkpt lat="50.00896" lon="2.00637">
        <ele>20.4</ele>
        <time>2022-04-12T14:32:34Z</time>
      </trkpt>
      <trkpt lat="50.00896" lon="2.00637">
        <ele>20.4</ele>
        <time>2022-04-12T14:32:35Z</time>
      </trkpt>
      <trkpt lat="50.00896" lon="2.00637">
        <ele>20.4</ele>
        <time>2022-04-12T14:32:36Z</time>
      </trkpt>
      <trkpt lat="50.00896" lon="2.00637">
        <ele>20.4</ele>
        <time>2022-04-12T14:32:37Z</time>
      </trkpt>
      <trkpt lat="50.00896" lon="2.00637">
        <ele>20.4</ele>
        <time>2022-04-12T14:32:38Z</time>
      </trkpt>
      <trkpt lat="50.00896" lon="2.00636">
        <ele>20.4</ele>
        <time>2022-04-12T14:32:39Z</time>
      </trkpt>
      <trkpt lat="50.00896" lon="2.00636">
        <ele>20.4</ele>
        <time>2022-04-12T14:32:40Z</time>
      </trkpt>
      <trkpt lat="50.00896" lon="2.00636">
        <ele>20.4</ele>
        <time>2022-04-12T14:32:41Z</time>
      </trkpt>
      <trkpt lat="50.00896" lon="2.00636">
        <ele>20.4</ele>
        <time>2022-04-12T14:32:42Z</time>
      </trkpt>
      <trkpt lat="50.00896" lon="2.00636">
        <ele>20.4</ele>
        <time>2022-04-12T14:32:43Z</time>
      </trkpt>
      <trkpt lat="50.00895" lon="2.00636">
        <ele>20.4</ele>
        <time>2022-04-12T14:32:44Z</time>
      </trkpt>
      <trkpt lat="50.00895" lon="2.00636">
        <ele>20.4</ele>
        <time>2022-04-12T14:32:45Z</time>
      </trkpt>
      <trkpt lat="50.00895" lon="2.00636">
        <ele>20.4</ele>
        <time>2022-04-12T14:32:46Z</time>
      </trkpt>
      <trkpt lat="50.00895" lon="2.00636">
        <ele>20.4</ele>
        <time>2022-04-12T14:32:47Z</time>
      </trkpt>
      <trkpt lat="50.00895" lon="2.00636">
        <ele>20.4</ele>
        <time>2022-04-12T14:32:48Z</time>
      </trkpt>
      <trkpt lat="50.00895" lon="2.00636">
        <ele>20.4</ele>
        <time>2022-04-12T14:32:49Z</time>
      </trkpt>
      <trkpt lat="50.00895" lon="2.00636">
        <ele>20.4</ele>
        <time>2022-04-12T14:32:50Z</time>
      </trkpt>
      <trkpt lat="50.00895" lon="2.00636">
        <ele>20.4</ele>
        <time>2022-04-12T14:32:51Z</time>
      </trkpt>
      <trkpt lat="50.00895" lon="2.00636">
        <ele>20.4</ele>
        <time>2022-04-12T14:32:52Z</time>
      </trkpt>
      <trkpt lat="50.00895" lon="2.00636">
        <ele>20.4</ele>
        <time>2022-04-12T14:32:53Z</time>
      </trkpt>
      <trkpt lat="50.00895" lon="2.00636">
        <ele>20.4</ele>
        <time>2022-04-12T14:32:54Z</time>
      </trkpt>
      <trkpt lat="50.00895" lon="2.00636">
        <ele>20.4</ele>
        <time>2022-04-12T14:32:55Z</time>
      </trkpt>
      <trkpt lat="50.00895" lon="2.00636">
        <ele>20.4</ele>
        <time>2022-04-12T14:32:56Z</time>
      </trkpt>
      <trkpt lat="50.00895" lon="2.00636">
        <ele>20.4</ele>
        <time>2022-04-12T14:32:57Z</time>
      </trkpt>
      <trkpt lat="50.00895" lon="2.00636">
        <ele>20.4</ele>
        <time>2022-04-12T14:32:58Z</time>
      </trkpt>
      <trkpt lat="50.00895" lon="2.00636">
        <ele>20.4</ele>
        <time>2022-04-12T14:32:59Z</time>
      </trkpt>
      <trkpt lat="50.00895" lon="2.00636">
        <ele>20.4</ele>
        <time>2022-04-12T14:33:00Z</time>
      </trkpt>
      <trkpt lat="50.00895" lon="2.00636">
        <ele>20.4</ele>
        <time>2022-04-12T14:33:01Z</time>
      </trkpt>
      <trkpt lat="50.00895" lon="2.00636">
        <ele>20.4</ele>
        <time>2022-04-12T14:33:02Z</time>
      </trkpt>
      <trkpt lat="50.00894" lon="2.00636">
        <ele>20.4</ele>
        <time>2022-04-12T14:33:03Z</time>
      </trkpt>
      <trkpt lat="50.00894" lon="2.00636">
        <ele>20.4</ele>
        <time>2022-04-12T14:33:04Z</time>
      </trkpt>
      <trkpt lat="50.00894" lon="2.00636">
        <ele>20.4</ele>
        <time>2022-04-12T14:33:05Z</time>
      </trkpt>
      <trkpt lat="50.00894" lon="2.00636">
        <ele>20.4</ele>
        <time>2022-04-12T14:33:06Z</time>
      </trkpt>
      <trkpt lat="50.00894" lon="2.00635">
        <ele>20.4</ele>
        <time>2022-04-12T14:33:07Z</time>
      </trkpt>
      <trkpt lat="50.00894" lon="2.00635">
        <ele>20.4</ele>
        <time>2022-04-12T14:33:08Z</time>
      </trkpt>
      <trkpt lat="50.00893" lon="2.00634">
        <ele>20.4</ele>
        <time>2022-04-12T14:33:09Z</time>
      </trkpt>
      <trkpt lat="50.00894" lon="2.00635">
        <ele>20.4</ele>
        <time>2022-04-12T14:33:10Z</time>
      </trkpt>
      <trkpt lat="50.00894" lon="2.00635">
        <ele>20.4</ele>
        <time>2022-04-12T14:33:11Z</time>
      </trkpt>
      <trkpt lat="50.00893" lon="2.00634">
        <ele>20.4</ele>
        <time>2022-04-12T14:33:12Z</time>
      </trkpt>
      <trkpt lat="50.00892" lon="2.00634">
        <ele>20.4</ele>
        <time>2022-04-12T14:33:13Z</time>
      </trkpt>
      <trkpt lat="50.00892" lon="2.00634">
        <ele>20.4</ele>
        <time>2022-04-12T14:33:14Z</time>
      </trkpt>
      <trkpt lat="50.00892" lon="2.00634">
        <ele>20.4</ele>
        <time>2022-04-12T14:33:15Z</time>
      </trkpt>
      <trkpt lat="50.00892" lon="2.00634">
        <ele>20.4</ele>
        <time>2022-04-12T14:33:16Z</time>
      </trkpt>
      <trkpt lat="50.00892" lon="2.00634">
        <ele>20.4</ele>
        <time>2022-04-12T14:33:17Z</time>
      </trkpt>
      <trkpt lat="50.00892" lon="2.00633">
        <ele>20.4</ele>
        <time>2022-04-12T14:33:18Z</time>
      </trkpt>
      <trkpt lat="50.00893" lon="2.00632">
        <ele>20.4</ele>
        <time>2022-04-12T14:33:19Z</time>
      </trkpt>
      <trkpt lat="50.00893" lon="2.00632">
        <ele>20.4</ele>
        <time>2022-04-12T14:33:20Z</time>
      </trkpt>
      <trkpt lat="50.00893" lon="2.00632">
        <ele>20.4</ele>
        <time>2022-04-12T14:33:21Z</time>
      </trkpt>
      <trkpt lat="50.00893" lon="2.00632">
        <ele>20.4</ele>
        <time>2022-04-12T14:33:22Z</time>
      </trkpt>
      <trkpt lat="50.00893" lon="2.00632">
        <ele>20.4</ele>
        <time>2022-04-12T14:33:23Z</time>
      </trkpt>
      <trkpt lat="50.00893" lon="2.00631">
        <ele>20.4</ele>
        <time>2022-04-12T14:33:24Z</time>
      </trkpt>
      <trkpt lat="50.00893" lon="2.00631">
        <ele>20.4</ele>
        <time>2022-04-12T14:33:25Z</time>
      </trkpt>
      <trkpt lat="50.00893" lon="2.00631">
        <ele>20.4</ele>
        <time>2022-04-12T14:33:26Z</time>
      </trkpt>
      <trkpt lat="50.00893" lon="2.00631">
        <ele>20.4</ele>
        <time>2022-04-12T14:33:27Z</time>
      </trkpt>
      <trkpt lat="50.00893" lon="2.00631">
        <ele>20.4</ele>
        <time>2022-04-12T14:33:28Z</time>
      </trkpt>
      <trkpt lat="50.00894" lon="2.00631">
        <ele>20.4</ele>
        <time>2022-04-12T14:33:29Z</time>
      </trkpt>
      <trkpt lat="50.00894" lon="2.0063">
        <ele>20.4</ele>
        <time>2022-04-12T14:33:30Z</time>
      </trkpt>
      <trkpt lat="50.00895" lon="2.0063">
        <ele>20.4</ele>
        <time>2022-04-12T14:33:32Z</time>
      </trkpt>
      <trkpt lat="50.00895" lon="2.0063">
        <ele>20.4</ele>
        <time>2022-04-12T14:33:33Z</time>
      </trkpt>
      <trkpt lat="50.00895" lon="2.00629">
        <ele>20.4</ele>
        <time>2022-04-12T14:33:34Z</time>
      </trkpt>
      <trkpt lat="50.00895" lon="2.00627">
        <ele>20.4</ele>
        <time>2022-04-12T14:33:35Z</time>
      </trkpt>
      <trkpt lat="50.00896" lon="2.00626">
        <ele>20.4</ele>
        <time>2022-04-12T14:33:36Z</time>
      </trkpt>
      <trkpt lat="50.00896" lon="2.00625">
        <ele>20.4</ele>
        <time>2022-04-12T14:33:38Z</time>
      </trkpt>
      <trkpt lat="50.00896" lon="2.00623">
        <ele>20.4</ele>
        <time>2022-04-12T14:33:39Z</time>
      </trkpt>
      <trkpt lat="50.00896" lon="2.00621">
        <ele>20.4</ele>
        <time>2022-04-12T14:33:40Z</time>
      </trkpt>
      <trkpt lat="50.00896" lon="2.00619">
        <ele>20.4</ele>
        <time>2022-04-12T14:33:41Z</time>
      </trkpt>
      <trkpt lat="50.00897" lon="2.00616">
        <ele>20.4</ele>
        <time>2022-04-12T14:33:42Z</time>
      </trkpt>
      <trkpt lat="50.00897" lon="2.00614">
        <ele>20.4</ele>
        <time>2022-04-12T14:33:43Z</time>
      </trkpt>
      <trkpt lat="50.00897" lon="2.00613">
        <ele>20.4</ele>
        <time>2022-04-12T14:33:44Z</time>
      </trkpt>
      <trkpt lat="50.00898" lon="2.0061">
        <ele>20.4</ele>
        <time>2022-04-12T14:33:45Z</time>
      </trkpt>
      <trkpt lat="50.00898" lon="2.00608">
        <ele>20.4</ele>
        <time>2022-04-12T14:33:47Z</time>
      </trkpt>
      <trkpt lat="50.00898" lon="2.00607">
        <ele>20.4</ele>
        <time>2022-04-12T14:33:48Z</time>
      </trkpt>
      <trkpt lat="50.00898" lon="2.00605">
        <ele>20.4</ele>
        <time>2022-04-12T14:33:49Z</time>
      </trkpt>
      <trkpt lat="50.00898" lon="2.00603">
        <ele>20.4</ele>
        <time>2022-04-12T14:33:50Z</time>
      </trkpt>
      <trkpt lat="50.00897" lon="2.00602">
        <ele>20.4</ele>
        <time>2022-04-12T14:33:51Z</time>
      </trkpt>
      <trkpt lat="50.00897" lon="2.00601">
        <ele>20.4</ele>
        <time>2022-04-12T14:33:52Z</time>
      </trkpt>
      <trkpt lat="50.00897" lon="2.006">
        <ele>20.4</ele>
        <time>2022-04-12T14:33:53Z</time>
      </trkpt>
      <trkpt lat="50.00897" lon="2.00599">
        <ele>20.4</ele>
        <time>2022-04-12T14:33:54Z</time>
      </trkpt>
      <trkpt lat="50.00897" lon="2.00597">
        <ele>20.4</ele>
        <time>2022-04-12T14:33:55Z</time>
      </trkpt>
      <trkpt lat="50.00898" lon="2.00595">
        <ele>20.4</ele>
        <time>2022-04-12T14:33:56Z</time>
      </trkpt>
      <trkpt lat="50.00898" lon="2.00593">
        <ele>20.4</ele>
        <time>2022-04-12T14:33:57Z</time>
      </trkpt>
      <trkpt lat="50.00898" lon="2.00591">
        <ele>20.4</ele>
        <time>2022-04-12T14:33:59Z</time>
      </trkpt>
      <trkpt lat="50.00899" lon="2.00589">
        <ele>20.4</ele>
        <time>2022-04-12T14:34:00Z</time>
      </trkpt>
      <trkpt lat="50.00899" lon="2.00586">
        <ele>20.4</ele>
        <time>2022-04-12T14:34:01Z</time>
      </trkpt>
      <trkpt lat="50.009" lon="2.00584">
        <ele>20.4</ele>
        <time>2022-04-12T14:34:02Z</time>
      </trkpt>
      <trkpt lat="50.009" lon="2.00582">
        <ele>20.4</ele>
        <time>2022-04-12T14:34:03Z</time>
      </trkpt>
      <trkpt lat="50.00901" lon="2.00579">
        <ele>20.4</ele>
        <time>2022-04-12T14:34:04Z</time>
      </trkpt>
      <trkpt lat="50.00901" lon="2.00577">
        <ele>20.4</ele>
        <time>2022-04-12T14:34:05Z</time>
      </trkpt>
      <trkpt lat="50.00901" lon="2.00575">
        <ele>20.4</ele>
        <time>2022-04-12T14:34:06Z</time>
      </trkpt>
      <trkpt lat="50.00902" lon="2.00572">
        <ele>20.4</ele>
        <time>2022-04-12T14:34:07Z</time>
      </trkpt>
      <trkpt lat="50.00902" lon="2.0057">
        <ele>20.4</ele>
        <time>2022-04-12T14:34:08Z</time>
      </trkpt>
      <trkpt lat="50.00903" lon="2.00567">
        <ele>20.4</ele>
        <time>2022-04-12T14:34:10Z</time>
      </trkpt>
      <trkpt lat="50.00903" lon="2.00565">
        <ele>20.4</ele>
        <time>2022-04-12T14:34:11Z</time>
      </trkpt>
      <trkpt lat="50.00904" lon="2.00563">
        <ele>20.4</ele>
        <time>2022-04-12T14:34:12Z</time>
      </trkpt>
      <trkpt lat="50.00904" lon="2.0056">
        <ele>20.4</ele>
        <time>2022-04-12T14:34:13Z</time>
      </trkpt>
      <trkpt lat="50.00904" lon="2.00558">
        <ele>20.4</ele>
        <time>2022-04-12T14:34:14Z</time>
      </trkpt>
      <trkpt lat="50.00905" lon="2.00556">
        <ele>20.4</ele>
        <time>2022-04-12T14:34:15Z</time>
      </trkpt>
      <trkpt lat="50.00905" lon="2.00552">
        <ele>20.4</ele>
        <time>2022-04-12T14:34:16Z</time>
      </trkpt>
      <trkpt lat="50.00905" lon="2.00551">
        <ele>20.4</ele>
        <time>2022-04-12T14:34:18Z</time>
      </trkpt>
      <trkpt lat="50.00905" lon="2.00549">
        <ele>20.4</ele>
        <time>2022-04-12T14:34:19Z</time>
      </trkpt>
      <trkpt lat="50.00906" lon="2.00548">
        <ele>20.3</ele>
        <time>2022-04-12T14:34:20Z</time>
      </trkpt>
      <trkpt lat="50.00906" lon="2.00546">
        <ele>20.3</ele>
        <time>2022-04-12T14:34:21Z</time>
      </trkpt>
      <trkpt lat="50.00907" lon="2.00543">
        <ele>20.3</ele>
        <time>2022-04-12T14:34:22Z</time>
      </trkpt>
      <trkpt lat="50.00907" lon="2.00542">
        <ele>20.3</ele>
        <time>2022-04-12T14:34:23Z</time>
      </trkpt>
      <trkpt lat="50.00907" lon="2.00541">
        <ele>20.3</ele>
        <time>2022-04-12T14:34:24Z</time>
      </trkpt>
      <trkpt lat="50.00908" lon="2.00539">
        <ele>20.3</ele>
        <time>2022-04-12T14:34:25Z</time>
      </trkpt>
      <trkpt lat="50.00909" lon="2.00537">
        <ele>20.3</ele>
        <time>2022-04-12T14:34:27Z</time>
      </trkpt>
      <trkpt lat="50.00909" lon="2.00535">
        <ele>20.3</ele>
        <time>2022-04-12T14:34:28Z</time>
      </trkpt>
      <trkpt lat="50.00909" lon="2.00533">
        <ele>20.3</ele>
        <time>2022-04-12T14:34:29Z</time>
      </trkpt>
      <trkpt lat="50.00909" lon="2.00532">
        <ele>20.3</ele>
        <time>2022-04-12T14:34:30Z</time>
      </trkpt>
      <trkpt lat="50.0091" lon="2.00529">
        <ele>20.3</ele>
        <time>2022-04-12T14:34:31Z</time>
      </trkpt>
      <trkpt lat="50.0091" lon="2.00527">
        <ele>20.3</ele>
        <time>2022-04-12T14:34:32Z</time>
      </trkpt>
      <trkpt lat="50.00911" lon="2.00526">
        <ele>20.3</ele>
        <time>2022-04-12T14:34:34Z</time>
      </trkpt>
      <trkpt lat="50.00911" lon="2.00524">
        <ele>20.3</ele>
        <time>2022-04-12T14:34:35Z</time>
      </trkpt>
      <trkpt lat="50.00911" lon="2.00522">
        <ele>20.3</ele>
        <time>2022-04-12T14:34:36Z</time>
      </trkpt>
      <trkpt lat="50.00912" lon="2.00521">
        <ele>20.3</ele>
        <time>2022-04-12T14:34:37Z</time>
      </trkpt>
      <trkpt lat="50.00912" lon="2.00519">
        <ele>20.3</ele>
        <time>2022-04-12T14:34:38Z</time>
      </trkpt>
      <trkpt lat="50.00913" lon="2.00516">
        <ele>20.3</ele>
        <time>2022-04-12T14:34:40Z</time>
      </trkpt>
      <trkpt lat="50.00913" lon="2.00515">
        <ele>20.3</ele>
        <time>2022-04-12T14:34:41Z</time>
      </trkpt>
      <trkpt lat="50.00913" lon="2.00514">
        <ele>20.3</ele>
        <time>2022-04-12T14:34:42Z</time>
      </trkpt>
      <trkpt lat="50.00914" lon="2.00512">
        <ele>20.3</ele>
        <time>2022-04-12T14:34:43Z</time>
      </trkpt>
      <trkpt lat="50.00915" lon="2.00509">
        <ele>20.3</ele>
        <time>2022-04-12T14:34:44Z</time>
      </trkpt>
      <trkpt lat="50.00915" lon="2.00508">
        <ele>20.3</ele>
        <time>2022-04-12T14:34:45Z</time>
      </trkpt>
      <trkpt lat="50.00916" lon="2.00506">
        <ele>20.3</ele>
        <time>2022-04-12T14:34:46Z</time>
      </trkpt>
      <trkpt lat="50.00916" lon="2.00505">
        <ele>20.2</ele>
        <time>2022-04-12T14:34:47Z</time>
      </trkpt>
      <trkpt lat="50.00917" lon="2.00503">
        <ele>20.2</ele>
        <time>2022-04-12T14:34:48Z</time>
      </trkpt>
      <trkpt lat="50.00917" lon="2.00501">
        <ele>20.2</ele>
        <time>2022-04-12T14:34:50Z</time>
      </trkpt>
      <trkpt lat="50.00918" lon="2.005">
        <ele>20.2</ele>
        <time>2022-04-12T14:34:51Z</time>
      </trkpt>
      <trkpt lat="50.00918" lon="2.00498">
        <ele>20.2</ele>
        <time>2022-04-12T14:34:52Z</time>
      </trkpt>
      <trkpt lat="50.00918" lon="2.00496">
        <ele>20.2</ele>
        <time>2022-04-12T14:34:53Z</time>
      </trkpt>
      <trkpt lat="50.00919" lon="2.00494">
        <ele>20.2</ele>
        <time>2022-04-12T14:34:54Z</time>
      </trkpt>
      <trkpt lat="50.00919" lon="2.00493">
        <ele>20.2</ele>
        <time>2022-04-12T14:34:55Z</time>
      </trkpt>
      <trkpt lat="50.00919" lon="2.00491">
        <ele>20.2</ele>
        <time>2022-04-12T14:34:56Z</time>
      </trkpt>
      <trkpt lat="50.00919" lon="2.00488">
        <ele>20.2</ele>
        <time>2022-04-12T14:34:57Z</time>
      </trkpt>
      <trkpt lat="50.00919" lon="2.00487">
        <ele>20.2</ele>
        <time>2022-04-12T14:34:58Z</time>
      </trkpt>
      <trkpt lat="50.0092" lon="2.00485">
        <ele>20.2</ele>
        <time>2022-04-12T14:34:59Z</time>
      </trkpt>
      <trkpt lat="50.0092" lon="2.00484">
        <ele>20.2</ele>
        <time>2022-04-12T14:35:00Z</time>
      </trkpt>
      <trkpt lat="50.0092" lon="2.00482">
        <ele>20.2</ele>
        <time>2022-04-12T14:35:02Z</time>
      </trkpt>
      <trkpt lat="50.0092" lon="2.0048">
        <ele>20.2</ele>
        <time>2022-04-12T14:35:03Z</time>
      </trkpt>
      <trkpt lat="50.00921" lon="2.00477">
        <ele>20.2</ele>
        <time>2022-04-12T14:35:04Z</time>
      </trkpt>
      <trkpt lat="50.00921" lon="2.00476">
        <ele>20.2</ele>
        <time>2022-04-12T14:35:05Z</time>
      </trkpt>
      <trkpt lat="50.00921" lon="2.00474">
        <ele>20.2</ele>
        <time>2022-04-12T14:35:06Z</time>
      </trkpt>
      <trkpt lat="50.00921" lon="2.00473">
        <ele>20.2</ele>
        <time>2022-04-12T14:35:07Z</time>
      </trkpt>
      <trkpt lat="50.00922" lon="2.00471">
        <ele>20.2</ele>
        <time>2022-04-12T14:35:08Z</time>
      </trkpt>
      <trkpt lat="50.00922" lon="2.00469">
        <ele>20.2</ele>
        <time>2022-04-12T14:35:09Z</time>
      </trkpt>
      <trkpt lat="50.00923" lon="2.00467">
        <ele>20.1</ele>
        <time>2022-04-12T14:35:10Z</time>
      </trkpt>
      <trkpt lat="50.00923" lon="2.00465">
        <ele>20.1</ele>
        <time>2022-04-12T14:35:11Z</time>
      </trkpt>
      <trkpt lat="50.00923" lon="2.00463">
        <ele>20.1</ele>
        <time>2022-04-12T14:35:13Z</time>
      </trkpt>
      <trkpt lat="50.00924" lon="2.00462">
        <ele>20.1</ele>
        <time>2022-04-12T14:35:14Z</time>
      </trkpt>
      <trkpt lat="50.00925" lon="2.0046">
        <ele>20.1</ele>
        <time>2022-04-12T14:35:15Z</time>
      </trkpt>
      <trkpt lat="50.00925" lon="2.00459">
        <ele>20.1</ele>
        <time>2022-04-12T14:35:16Z</time>
      </trkpt>
      <trkpt lat="50.00926" lon="2.00458">
        <ele>20.1</ele>
        <time>2022-04-12T14:35:17Z</time>
      </trkpt>
      <trkpt lat="50.00927" lon="2.00457">
        <ele>20.1</ele>
        <time>2022-04-12T14:35:18Z</time>
      </trkpt>
      <trkpt lat="50.00927" lon="2.00455">
        <ele>20.1</ele>
        <time>2022-04-12T14:35:19Z</time>
      </trkpt>
      <trkpt lat="50.00927" lon="2.00452">
        <ele>20.1</ele>
        <time>2022-04-12T14:35:20Z</time>
      </trkpt>
      <trkpt lat="50.00927" lon="2.0045">
        <ele>20.1</ele>
        <time>2022-04-12T14:35:21Z</time>
      </trkpt>
      <trkpt lat="50.00927" lon="2.00449">
        <ele>20.1</ele>
        <time>2022-04-12T14:35:22Z</time>
      </trkpt>
      <trkpt lat="50.00927" lon="2.00447">
        <ele>20.1</ele>
        <time>2022-04-12T14:35:23Z</time>
      </trkpt>
      <trkpt lat="50.00927" lon="2.00444">
        <ele>20.1</ele>
        <time>2022-04-12T14:35:24Z</time>
      </trkpt>
      <trkpt lat="50.00927" lon="2.00441">
        <ele>20.1</ele>
        <time>2022-04-12T14:35:26Z</time>
      </trkpt>
      <trkpt lat="50.00928" lon="2.0044">
        <ele>20.1</ele>
        <time>2022-04-12T14:35:27Z</time>
      </trkpt>
      <trkpt lat="50.00928" lon="2.00438">
        <ele>20.1</ele>
        <time>2022-04-12T14:35:28Z</time>
      </trkpt>
      <trkpt lat="50.00928" lon="2.00435">
        <ele>20.1</ele>
        <time>2022-04-12T14:35:29Z</time>
      </trkpt>
      <trkpt lat="50.00928" lon="2.00434">
        <ele>20</ele>
        <time>2022-04-12T14:35:30Z</time>
      </trkpt>
      <trkpt lat="50.00928" lon="2.00432">
        <ele>20</ele>
        <time>2022-04-12T14:35:31Z</time>
      </trkpt>
      <trkpt lat="50.00929" lon="2.00431">
        <ele>20</ele>
        <time>2022-04-12T14:35:32Z</time>
      </trkpt>
      <trkpt lat="50.00929" lon="2.00429">
        <ele>20</ele>
        <time>2022-04-12T14:35:33Z</time>
      </trkpt>
      <trkpt lat="50.00929" lon="2.00427">
        <ele>20</ele>
        <time>2022-04-12T14:35:34Z</time>
      </trkpt>
      <trkpt lat="50.0093" lon="2.00424">
        <ele>20</ele>
        <time>2022-04-12T14:35:36Z</time>
      </trkpt>
      <trkpt lat="50.00931" lon="2.00423">
        <ele>20</ele>
        <time>2022-04-12T14:35:37Z</time>
      </trkpt>
      <trkpt lat="50.00931" lon="2.00422">
        <ele>20</ele>
        <time>2022-04-12T14:35:38Z</time>
      </trkpt>
      <trkpt lat="50.00931" lon="2.0042">
        <ele>20</ele>
        <time>2022-04-12T14:35:39Z</time>
      </trkpt>
      <trkpt lat="50.00931" lon="2.00417">
        <ele>20</ele>
        <time>2022-04-12T14:35:40Z</time>
      </trkpt>
      <trkpt lat="50.00932" lon="2.00414">
        <ele>20</ele>
        <time>2022-04-12T14:35:41Z</time>
      </trkpt>
      <trkpt lat="50.00932" lon="2.00413">
        <ele>20</ele>
        <time>2022-04-12T14:35:42Z</time>
      </trkpt>
      <trkpt lat="50.00933" lon="2.00412">
        <ele>20</ele>
        <time>2022-04-12T14:35:43Z</time>
      </trkpt>
      <trkpt lat="50.00933" lon="2.00409">
        <ele>20</ele>
        <time>2022-04-12T14:35:45Z</time>
      </trkpt>
      <trkpt lat="50.00933" lon="2.00407">
        <ele>20</ele>
        <time>2022-04-12T14:35:46Z</time>
      </trkpt>
      <trkpt lat="50.00934" lon="2.00406">
        <ele>19.9</ele>
        <time>2022-04-12T14:35:47Z</time>
      </trkpt>
      <trkpt lat="50.00934" lon="2.00405">
        <ele>19.9</ele>
        <time>2022-04-12T14:35:48Z</time>
      </trkpt>
      <trkpt lat="50.00934" lon="2.00403">
        <ele>19.9</ele>
        <time>2022-04-12T14:35:49Z</time>
      </trkpt>
      <trkpt lat="50.00934" lon="2.00402">
        <ele>19.9</ele>
        <time>2022-04-12T14:35:50Z</time>
      </trkpt>
      <trkpt lat="50.00934" lon="2.004">
        <ele>19.9</ele>
        <time>2022-04-12T14:35:51Z</time>
      </trkpt>
      <trkpt lat="50.00934" lon="2.00399">
        <ele>19.9</ele>
        <time>2022-04-12T14:35:52Z</time>
      </trkpt>
      <trkpt lat="50.00935" lon="2.00397">
        <ele>19.9</ele>
        <time>2022-04-12T14:35:53Z</time>
      </trkpt>
      <trkpt lat="50.00935" lon="2.00394">
        <ele>19.9</ele>
        <time>2022-04-12T14:35:54Z</time>
      </trkpt>
      <trkpt lat="50.00936" lon="2.00393">
        <ele>19.9</ele>
        <time>2022-04-12T14:35:55Z</time>
      </trkpt>
      <trkpt lat="50.00936" lon="2.00392">
        <ele>19.9</ele>
        <time>2022-04-12T14:35:56Z</time>
      </trkpt>
      <trkpt lat="50.00936" lon="2.0039">
        <ele>19.9</ele>
        <time>2022-04-12T14:35:57Z</time>
      </trkpt>
      <trkpt lat="50.00937" lon="2.00387">
        <ele>19.9</ele>
        <time>2022-04-12T14:35:59Z</time>
      </trkpt>
      <trkpt lat="50.00937" lon="2.00386">
        <ele>19.9</ele>
        <time>2022-04-12T14:36:00Z</time>
      </trkpt>
      <trkpt lat="50.00937" lon="2.00385">
        <ele>19.9</ele>
        <time>2022-04-12T14:36:01Z</time>
      </trkpt>
      <trkpt lat="50.00938" lon="2.00383">
        <ele>19.9</ele>
        <time>2022-04-12T14:36:02Z</time>
      </trkpt>
      <trkpt lat="50.00938" lon="2.00381">
        <ele>19.9</ele>
        <time>2022-04-12T14:36:03Z</time>
      </trkpt>
      <trkpt lat="50.00939" lon="2.0038">
        <ele>19.9</ele>
        <time>2022-04-12T14:36:04Z</time>
      </trkpt>
      <trkpt lat="50.00939" lon="2.00378">
        <ele>19.9</ele>
        <time>2022-04-12T14:36:06Z</time>
      </trkpt>
      <trkpt lat="50.00939" lon="2.00376">
        <ele>19.9</ele>
        <time>2022-04-12T14:36:07Z</time>
      </trkpt>
      <trkpt lat="50.00939" lon="2.00374">
        <ele>19.9</ele>
        <time>2022-04-12T14:36:08Z</time>
      </trkpt>
      <trkpt lat="50.0094" lon="2.00373">
        <ele>19.9</ele>
        <time>2022-04-12T14:36:09Z</time>
      </trkpt>
      <trkpt lat="50.0094" lon="2.0037">
        <ele>19.9</ele>
        <time>2022-04-12T14:36:10Z</time>
      </trkpt>
      <trkpt lat="50.00941" lon="2.00369">
        <ele>19.9</ele>
        <time>2022-04-12T14:36:11Z</time>
      </trkpt>
      <trkpt lat="50.00941" lon="2.00367">
        <ele>19.9</ele>
        <time>2022-04-12T14:36:12Z</time>
      </trkpt>
      <trkpt lat="50.00941" lon="2.00366">
        <ele>19.9</ele>
        <time>2022-04-12T14:36:13Z</time>
      </trkpt>
      <trkpt lat="50.00942" lon="2.00364">
        <ele>19.9</ele>
        <time>2022-04-12T14:36:14Z</time>
      </trkpt>
      <trkpt lat="50.00942" lon="2.00362">
        <ele>19.9</ele>
        <time>2022-04-12T14:36:15Z</time>
      </trkpt>
      <trkpt lat="50.00943" lon="2.0036">
        <ele>19.9</ele>
        <time>2022-04-12T14:36:16Z</time>
      </trkpt>
      <trkpt lat="50.00943" lon="2.00358">
        <ele>19.8</ele>
        <time>2022-04-12T14:36:17Z</time>
      </trkpt>
      <trkpt lat="50.00943" lon="2.00357">
        <ele>19.8</ele>
        <time>2022-04-12T14:36:19Z</time>
      </trkpt>
      <trkpt lat="50.00944" lon="2.00354">
        <ele>19.8</ele>
        <time>2022-04-12T14:36:20Z</time>
      </trkpt>
      <trkpt lat="50.00945" lon="2.00353">
        <ele>19.8</ele>
        <time>2022-04-12T14:36:21Z</time>
      </trkpt>
      <trkpt lat="50.00945" lon="2.00352">
        <ele>19.8</ele>
        <time>2022-04-12T14:36:22Z</time>
      </trkpt>
      <trkpt lat="50.00946" lon="2.0035">
        <ele>19.8</ele>
        <time>2022-04-12T14:36:23Z</time>
      </trkpt>
      <trkpt lat="50.00946" lon="2.00348">
        <ele>19.8</ele>
        <time>2022-04-12T14:36:24Z</time>
      </trkpt>
      <trkpt lat="50.00946" lon="2.00347">
        <ele>19.8</ele>
        <time>2022-04-12T14:36:25Z</time>
      </trkpt>
      <trkpt lat="50.00946" lon="2.00345">
        <ele>19.8</ele>
        <time>2022-04-12T14:36:26Z</time>
      </trkpt>
      <trkpt lat="50.00947" lon="2.00344">
        <ele>19.8</ele>
        <time>2022-04-12T14:36:27Z</time>
      </trkpt>
      <trkpt lat="50.00947" lon="2.00343">
        <ele>19.8</ele>
        <time>2022-04-12T14:36:28Z</time>
      </trkpt>
      <trkpt lat="50.00947" lon="2.00342">
        <ele>19.8</ele>
        <time>2022-04-12T14:36:30Z</time>
      </trkpt>
      <trkpt lat="50.00947" lon="2.0034">
        <ele>19.8</ele>
        <time>2022-04-12T14:36:31Z</time>
      </trkpt>
      <trkpt lat="50.00948" lon="2.00339">
        <ele>19.7</ele>
        <time>2022-04-12T14:36:32Z</time>
      </trkpt>
      <trkpt lat="50.00948" lon="2.00337">
        <ele>19.7</ele>
        <time>2022-04-12T14:36:33Z</time>
      </trkpt>
      <trkpt lat="50.00948" lon="2.00335">
        <ele>19.7</ele>
        <time>2022-04-12T14:36:34Z</time>
      </trkpt>
      <trkpt lat="50.00949" lon="2.00334">
        <ele>19.7</ele>
        <time>2022-04-12T14:36:35Z</time>
      </trkpt>
      <trkpt lat="50.00949" lon="2.00332">
        <ele>19.7</ele>
        <time>2022-04-12T14:36:36Z</time>
      </trkpt>
      <trkpt lat="50.00949" lon="2.00329">
        <ele>19.7</ele>
        <time>2022-04-12T14:36:37Z</time>
      </trkpt>
      <trkpt lat="50.0095" lon="2.00328">
        <ele>19.7</ele>
        <time>2022-04-12T14:36:38Z</time>
      </trkpt>
      <trkpt lat="50.0095" lon="2.00326">
        <ele>19.7</ele>
        <time>2022-04-12T14:36:39Z</time>
      </trkpt>
      <trkpt lat="50.00951" lon="2.00323">
        <ele>19.7</ele>
        <time>2022-04-12T14:36:40Z</time>
      </trkpt>
      <trkpt lat="50.00951" lon="2.00322">
        <ele>19.7</ele>
        <time>2022-04-12T14:36:41Z</time>
      </trkpt>
      <trkpt lat="50.00952" lon="2.00321">
        <ele>19.7</ele>
        <time>2022-04-12T14:36:42Z</time>
      </trkpt>
      <trkpt lat="50.00952" lon="2.00318">
        <ele>19.7</ele>
        <time>2022-04-12T14:36:44Z</time>
      </trkpt>
      <trkpt lat="50.00952" lon="2.00316">
        <ele>19.7</ele>
        <time>2022-04-12T14:36:45Z</time>
      </trkpt>
      <trkpt lat="50.00953" lon="2.00315">
        <ele>19.6</ele>
        <time>2022-04-12T14:36:46Z</time>
      </trkpt>
      <trkpt lat="50.00953" lon="2.00313">
        <ele>19.6</ele>
        <time>2022-04-12T14:36:47Z</time>
      </trkpt>
      <trkpt lat="50.00954" lon="2.00311">
        <ele>19.6</ele>
        <time>2022-04-12T14:36:48Z</time>
      </trkpt>
      <trkpt lat="50.00954" lon="2.00309">
        <ele>19.6</ele>
        <time>2022-04-12T14:36:49Z</time>
      </trkpt>
      <trkpt lat="50.00954" lon="2.00308">
        <ele>19.6</ele>
        <time>2022-04-12T14:36:50Z</time>
      </trkpt>
      <trkpt lat="50.00955" lon="2.00306">
        <ele>19.6</ele>
        <time>2022-04-12T14:36:51Z</time>
      </trkpt>
      <trkpt lat="50.00955" lon="2.00304">
        <ele>19.6</ele>
        <time>2022-04-12T14:36:53Z</time>
      </trkpt>
      <trkpt lat="50.00955" lon="2.00301">
        <ele>19.6</ele>
        <time>2022-04-12T14:36:54Z</time>
      </trkpt>
      <trkpt lat="50.00955" lon="2.003">
        <ele>19.6</ele>
        <time>2022-04-12T14:36:55Z</time>
      </trkpt>
      <trkpt lat="50.00955" lon="2.00298">
        <ele>19.6</ele>
        <time>2022-04-12T14:36:56Z</time>
      </trkpt>
      <trkpt lat="50.00955" lon="2.00295">
        <ele>19.6</ele>
        <time>2022-04-12T14:36:58Z</time>
      </trkpt>
      <trkpt lat="50.00955" lon="2.00293">
        <ele>19.6</ele>
        <time>2022-04-12T14:36:59Z</time>
      </trkpt>
      <trkpt lat="50.00955" lon="2.00291">
        <ele>19.6</ele>
        <time>2022-04-12T14:37:00Z</time>
      </trkpt>
      <trkpt lat="50.00955" lon="2.00289">
        <ele>19.5</ele>
        <time>2022-04-12T14:37:01Z</time>
      </trkpt>
      <trkpt lat="50.00955" lon="2.00287">
        <ele>19.5</ele>
        <time>2022-04-12T14:37:02Z</time>
      </trkpt>
      <trkpt lat="50.00956" lon="2.00286">
        <ele>19.5</ele>
        <time>2022-04-12T14:37:03Z</time>
      </trkpt>
      <trkpt lat="50.00956" lon="2.00282">
        <ele>19.5</ele>
        <time>2022-04-12T14:37:04Z</time>
      </trkpt>
      <trkpt lat="50.00956" lon="2.00281">
        <ele>19.5</ele>
        <time>2022-04-12T14:37:05Z</time>
      </trkpt>
      <trkpt lat="50.00957" lon="2.0028">
        <ele>19.5</ele>
        <time>2022-04-12T14:37:06Z</time>
      </trkpt>
      <trkpt lat="50.00957" lon="2.00276">
        <ele>19.5</ele>
        <time>2022-04-12T14:37:08Z</time>
      </trkpt>
      <trkpt lat="50.00958" lon="2.00275">
        <ele>19.5</ele>
        <time>2022-04-12T14:37:09Z</time>
      </trkpt>
      <trkpt lat="50.00958" lon="2.00274">
        <ele>19.5</ele>
        <time>2022-04-12T14:37:10Z</time>
      </trkpt>
      <trkpt lat="50.00958" lon="2.00272">
        <ele>19.5</ele>
        <time>2022-04-12T14:37:11Z</time>
      </trkpt>
      <trkpt lat="50.00958" lon="2.0027">
        <ele>19.5</ele>
        <time>2022-04-12T14:37:12Z</time>
      </trkpt>
      <trkpt lat="50.00959" lon="2.00269">
        <ele>19.5</ele>
        <time>2022-04-12T14:37:13Z</time>
      </trkpt>
      <trkpt lat="50.00959" lon="2.00266">
        <ele>19.5</ele>
        <time>2022-04-12T14:37:14Z</time>
      </trkpt>
      <trkpt lat="50.0096" lon="2.00265">
        <ele>19.5</ele>
        <time>2022-04-12T14:37:16Z</time>
      </trkpt>
      <trkpt lat="50.0096" lon="2.00263">
        <ele>19.5</ele>
        <time>2022-04-12T14:37:17Z</time>
      </trkpt>
      <trkpt lat="50.00961" lon="2.00261">
        <ele>19.4</ele>
        <time>2022-04-12T14:37:18Z</time>
      </trkpt>
      <trkpt lat="50.00962" lon="2.0026">
        <ele>19.4</ele>
        <time>2022-04-12T14:37:19Z</time>
      </trkpt>
      <trkpt lat="50.00962" lon="2.00259">
        <ele>19.4</ele>
        <time>2022-04-12T14:37:20Z</time>
      </trkpt>
      <trkpt lat="50.00963" lon="2.00257">
        <ele>19.4</ele>
        <time>2022-04-12T14:37:21Z</time>
      </trkpt>
      <trkpt lat="50.00963" lon="2.00256">
        <ele>19.4</ele>
        <time>2022-04-12T14:37:22Z</time>
      </trkpt>
      <trkpt lat="50.00964" lon="2.00254">
        <ele>19.4</ele>
        <time>2022-04-12T14:37:24Z</time>
      </trkpt>
      <trkpt lat="50.00964" lon="2.00253">
        <ele>19.4</ele>
        <time>2022-04-12T14:37:25Z</time>
      </trkpt>
      <trkpt lat="50.00965" lon="2.00251">
        <ele>19.4</ele>
        <time>2022-04-12T14:37:26Z</time>
      </trkpt>
      <trkpt lat="50.00965" lon="2.0025">
        <ele>19.4</ele>
        <time>2022-04-12T14:37:27Z</time>
      </trkpt>
      <trkpt lat="50.00966" lon="2.00247">
        <ele>19.4</ele>
        <time>2022-04-12T14:37:29Z</time>
      </trkpt>
      <trkpt lat="50.00966" lon="2.00245">
        <ele>19.4</ele>
        <time>2022-04-12T14:37:30Z</time>
      </trkpt>
      <trkpt lat="50.00967" lon="2.00243">
        <ele>19.4</ele>
        <time>2022-04-12T14:37:31Z</time>
      </trkpt>
      <trkpt lat="50.00967" lon="2.00242">
        <ele>19.4</ele>
        <time>2022-04-12T14:37:32Z</time>
      </trkpt>
      <trkpt lat="50.00967" lon="2.00241">
        <ele>19.4</ele>
        <time>2022-04-12T14:37:33Z</time>
      </trkpt>
      <trkpt lat="50.00967" lon="2.00239">
        <ele>19.4</ele>
        <time>2022-04-12T14:37:34Z</time>
      </trkpt>
      <trkpt lat="50.00967" lon="2.00237">
        <ele>19.4</ele>
        <time>2022-04-12T14:37:35Z</time>
      </trkpt>
      <trkpt lat="50.00967" lon="2.00235">
        <ele>19.4</ele>
        <time>2022-04-12T14:37:36Z</time>
      </trkpt>
      <trkpt lat="50.00968" lon="2.00232">
        <ele>19.4</ele>
        <time>2022-04-12T14:37:38Z</time>
      </trkpt>
      <trkpt lat="50.00968" lon="2.0023">
        <ele>19.4</ele>
        <time>2022-04-12T14:37:39Z</time>
      </trkpt>
      <trkpt lat="50.00968" lon="2.00229">
        <ele>19.4</ele>
        <time>2022-04-12T14:37:40Z</time>
      </trkpt>
      <trkpt lat="50.00968" lon="2.00227">
        <ele>19.4</ele>
        <time>2022-04-12T14:37:41Z</time>
      </trkpt>
      <trkpt lat="50.00969" lon="2.00225">
        <ele>19.4</ele>
        <time>2022-04-12T14:37:42Z</time>
      </trkpt>
      <trkpt lat="50.00969" lon="2.00224">
        <ele>19.4</ele>
        <time>2022-04-12T14:37:43Z</time>
      </trkpt>
      <trkpt lat="50.00969" lon="2.00221">
        <ele>19.4</ele>
        <time>2022-04-12T14:37:45Z</time>
      </trkpt>
      <trkpt lat="50.00969" lon="2.00219">
        <ele>19.4</ele>
        <time>2022-04-12T14:37:46Z</time>
      </trkpt>
      <trkpt lat="50.0097" lon="2.00218">
        <ele>19.4</ele>
        <time>2022-04-12T14:37:47Z</time>
      </trkpt>
      <trkpt lat="50.0097" lon="2.00215">
        <ele>19.4</ele>
        <time>2022-04-12T14:37:48Z</time>
      </trkpt>
      <trkpt lat="50.0097" lon="2.00214">
        <ele>19.4</ele>
        <time>2022-04-12T14:37:49Z</time>
      </trkpt>
      <trkpt lat="50.0097" lon="2.00212">
        <ele>19.4</ele>
        <time>2022-04-12T14:37:50Z</time>
      </trkpt>
      <trkpt lat="50.00971" lon="2.00209">
        <ele>19.4</ele>
        <time>2022-04-12T14:37:51Z</time>
      </trkpt>
      <trkpt lat="50.00971" lon="2.00208">
        <ele>19.4</ele>
        <time>2022-04-12T14:37:53Z</time>
      </trkpt>
      <trkpt lat="50.00971" lon="2.00207">
        <ele>19.4</ele>
        <time>2022-04-12T14:37:54Z</time>
      </trkpt>
      <trkpt lat="50.00971" lon="2.00205">
        <ele>19.4</ele>
        <time>2022-04-12T14:37:55Z</time>
      </trkpt>
      <trkpt lat="50.00972" lon="2.00203">
        <ele>19.4</ele>
        <time>2022-04-12T14:37:56Z</time>
      </trkpt>
      <trkpt lat="50.00972" lon="2.00202">
        <ele>19.4</ele>
        <time>2022-04-12T14:37:57Z</time>
      </trkpt>
      <trkpt lat="50.00972" lon="2.002">
        <ele>19.5</ele>
        <time>2022-04-12T14:37:58Z</time>
      </trkpt>
      <trkpt lat="50.00972" lon="2.00199">
        <ele>19.5</ele>
        <time>2022-04-12T14:37:59Z</time>
      </trkpt>
      <trkpt lat="50.00973" lon="2.00197">
        <ele>19.5</ele>
        <time>2022-04-12T14:38:00Z</time>
      </trkpt>
      <trkpt lat="50.00973" lon="2.00196">
        <ele>19.5</ele>
        <time>2022-04-12T14:38:01Z</time>
      </trkpt>
      <trkpt lat="50.00973" lon="2.00194">
        <ele>19.5</ele>
        <time>2022-04-12T14:38:03Z</time>
      </trkpt>
      <trkpt lat="50.00973" lon="2.00193">
        <ele>19.5</ele>
        <time>2022-04-12T14:38:04Z</time>
      </trkpt>
      <trkpt lat="50.00973" lon="2.00191">
        <ele>19.5</ele>
        <time>2022-04-12T14:38:05Z</time>
      </trkpt>
      <trkpt lat="50.00973" lon="2.00189">
        <ele>19.5</ele>
        <time>2022-04-12T14:38:06Z</time>
      </trkpt>
      <trkpt lat="50.00973" lon="2.00188">
        <ele>19.5</ele>
        <time>2022-04-12T14:38:07Z</time>
      </trkpt>
      <trkpt lat="50.00973" lon="2.00186">
        <ele>19.5</ele>
        <time>2022-04-12T14:38:08Z</time>
      </trkpt>
      <trkpt lat="50.00973" lon="2.00184">
        <ele>19.5</ele>
        <time>2022-04-12T14:38:09Z</time>
      </trkpt>
      <trkpt lat="50.00973" lon="2.00182">
        <ele>19.5</ele>
        <time>2022-04-12T14:38:10Z</time>
      </trkpt>
      <trkpt lat="50.00974" lon="2.00179">
        <ele>19.5</ele>
        <time>2022-04-12T14:38:12Z</time>
      </trkpt>
      <trkpt lat="50.00974" lon="2.00177">
        <ele>19.5</ele>
        <time>2022-04-12T14:38:13Z</time>
      </trkpt>
      <trkpt lat="50.00974" lon="2.00176">
        <ele>19.5</ele>
        <time>2022-04-12T14:38:14Z</time>
      </trkpt>
      <trkpt lat="50.00974" lon="2.00174">
        <ele>19.5</ele>
        <time>2022-04-12T14:38:15Z</time>
      </trkpt>
      <trkpt lat="50.00975" lon="2.00172">
        <ele>19.5</ele>
        <time>2022-04-12T14:38:17Z</time>
      </trkpt>
      <trkpt lat="50.00975" lon="2.00171">
        <ele>19.5</ele>
        <time>2022-04-12T14:38:18Z</time>
      </trkpt>
      <trkpt lat="50.00976" lon="2.00169">
        <ele>19.5</ele>
        <time>2022-04-12T14:38:19Z</time>
      </trkpt>
      <trkpt lat="50.00976" lon="2.00167">
        <ele>19.5</ele>
        <time>2022-04-12T14:38:20Z</time>
      </trkpt>
      <trkpt lat="50.00976" lon="2.00165">
        <ele>19.5</ele>
        <time>2022-04-12T14:38:21Z</time>
      </trkpt>
      <trkpt lat="50.00977" lon="2.00162">
        <ele>19.4</ele>
        <time>2022-04-12T14:38:22Z</time>
      </trkpt>
      <trkpt lat="50.00977" lon="2.00161">
        <ele>19.4</ele>
        <time>2022-04-12T14:38:23Z</time>
      </trkpt>
      <trkpt lat="50.00978" lon="2.0016">
        <ele>19.4</ele>
        <time>2022-04-12T14:38:24Z</time>
      </trkpt>
      <trkpt lat="50.00978" lon="2.00158">
        <ele>19.4</ele>
        <time>2022-04-12T14:38:26Z</time>
      </trkpt>
      <trkpt lat="50.00978" lon="2.00156">
        <ele>19.4</ele>
        <time>2022-04-12T14:38:27Z</time>
      </trkpt>
      <trkpt lat="50.00979" lon="2.00155">
        <ele>19.4</ele>
        <time>2022-04-12T14:38:28Z</time>
      </trkpt>
      <trkpt lat="50.00979" lon="2.00153">
        <ele>19.4</ele>
        <time>2022-04-12T14:38:29Z</time>
      </trkpt>
      <trkpt lat="50.00979" lon="2.00151">
        <ele>19.4</ele>
        <time>2022-04-12T14:38:30Z</time>
      </trkpt>
      <trkpt lat="50.00979" lon="2.0015">
        <ele>19.4</ele>
        <time>2022-04-12T14:38:31Z</time>
      </trkpt>
      <trkpt lat="50.0098" lon="2.00148">
        <ele>19.4</ele>
        <time>2022-04-12T14:38:32Z</time>
      </trkpt>
      <trkpt lat="50.0098" lon="2.00146">
        <ele>19.4</ele>
        <time>2022-04-12T14:38:34Z</time>
      </trkpt>
      <trkpt lat="50.0098" lon="2.00144">
        <ele>19.3</ele>
        <time>2022-04-12T14:38:35Z</time>
      </trkpt>
      <trkpt lat="50.00981" lon="2.00143">
        <ele>19.3</ele>
        <time>2022-04-12T14:38:36Z</time>
      </trkpt>
      <trkpt lat="50.00981" lon="2.00141">
        <ele>19.3</ele>
        <time>2022-04-12T14:38:37Z</time>
      </trkpt>
      <trkpt lat="50.00981" lon="2.00139">
        <ele>19.3</ele>
        <time>2022-04-12T14:38:39Z</time>
      </trkpt>
      <trkpt lat="50.00981" lon="2.00138">
        <ele>19.3</ele>
        <time>2022-04-12T14:38:40Z</time>
      </trkpt>
      <trkpt lat="50.00981" lon="2.00136">
        <ele>19.2</ele>
        <time>2022-04-12T14:38:41Z</time>
      </trkpt>
      <trkpt lat="50.00981" lon="2.00135">
        <ele>19.2</ele>
        <time>2022-04-12T14:38:42Z</time>
      </trkpt>
      <trkpt lat="50.00982" lon="2.00133">
        <ele>19.2</ele>
        <time>2022-04-12T14:38:43Z</time>
      </trkpt>
      <trkpt lat="50.00982" lon="2.00132">
        <ele>19.2</ele>
        <time>2022-04-12T14:38:44Z</time>
      </trkpt>
      <trkpt lat="50.00983" lon="2.0013">
        <ele>19.2</ele>
        <time>2022-04-12T14:38:45Z</time>
      </trkpt>
      <trkpt lat="50.00983" lon="2.00128">
        <ele>19.1</ele>
        <time>2022-04-12T14:38:46Z</time>
      </trkpt>
      <trkpt lat="50.00984" lon="2.00127">
        <ele>19.1</ele>
        <time>2022-04-12T14:38:47Z</time>
      </trkpt>
      <trkpt lat="50.00984" lon="2.00125">
        <ele>19.1</ele>
        <time>2022-04-12T14:38:49Z</time>
      </trkpt>
      <trkpt lat="50.00984" lon="2.00123">
        <ele>19.1</ele>
        <time>2022-04-12T14:38:50Z</time>
      </trkpt>
      <trkpt lat="50.00982" lon="2.00123">
        <ele>19</ele>
        <time>2022-04-12T14:38:51Z</time>
      </trkpt>
      <trkpt lat="50.00981" lon="2.00123">
        <ele>19</ele>
        <time>2022-04-12T14:38:52Z</time>
      </trkpt>
      <trkpt lat="50.00979" lon="2.00122">
        <ele>19</ele>
        <time>2022-04-12T14:38:54Z</time>
      </trkpt>
      <trkpt lat="50.00978" lon="2.00121">
        <ele>19</ele>
        <time>2022-04-12T14:38:55Z</time>
      </trkpt>
      <trkpt lat="50.00976" lon="2.00119">
        <ele>18.9</ele>
        <time>2022-04-12T14:38:56Z</time>
      </trkpt>
      <trkpt lat="50.00976" lon="2.00118">
        <ele>18.9</ele>
        <time>2022-04-12T14:38:57Z</time>
      </trkpt>
      <trkpt lat="50.00975" lon="2.00117">
        <ele>18.9</ele>
        <time>2022-04-12T14:38:58Z</time>
      </trkpt>
      <trkpt lat="50.00975" lon="2.00115">
        <ele>18.9</ele>
        <time>2022-04-12T14:38:59Z</time>
      </trkpt>
      <trkpt lat="50.00974" lon="2.00113">
        <ele>18.8</ele>
        <time>2022-04-12T14:39:00Z</time>
      </trkpt>
      <trkpt lat="50.00975" lon="2.0011">
        <ele>18.8</ele>
        <time>2022-04-12T14:39:01Z</time>
      </trkpt>
      <trkpt lat="50.00976" lon="2.00109">
        <ele>18.8</ele>
        <time>2022-04-12T14:39:02Z</time>
      </trkpt>
      <trkpt lat="50.00976" lon="2.00108">
        <ele>18.7</ele>
        <time>2022-04-12T14:39:03Z</time>
      </trkpt>
      <trkpt lat="50.00977" lon="2.00106">
        <ele>18.7</ele>
        <time>2022-04-12T14:39:04Z</time>
      </trkpt>
      <trkpt lat="50.00978" lon="2.00104">
        <ele>18.7</ele>
        <time>2022-04-12T14:39:05Z</time>
      </trkpt>
      <trkpt lat="50.00979" lon="2.00101">
        <ele>18.6</ele>
        <time>2022-04-12T14:39:07Z</time>
      </trkpt>
      <trkpt lat="50.00979" lon="2.001">
        <ele>18.6</ele>
        <time>2022-04-12T14:39:08Z</time>
      </trkpt>
      <trkpt lat="50.0098" lon="2.00099">
        <ele>18.6</ele>
        <time>2022-04-12T14:39:09Z</time>
      </trkpt>
      <trkpt lat="50.00981" lon="2.00097">
        <ele>18.6</ele>
        <time>2022-04-12T14:39:10Z</time>
      </trkpt>
      <trkpt lat="50.00981" lon="2.00095">
        <ele>18.5</ele>
        <time>2022-04-12T14:39:11Z</time>
      </trkpt>
      <trkpt lat="50.00982" lon="2.00093">
        <ele>18.5</ele>
        <time>2022-04-12T14:39:12Z</time>
      </trkpt>
      <trkpt lat="50.00982" lon="2.00092">
        <ele>18.5</ele>
        <time>2022-04-12T14:39:13Z</time>
      </trkpt>
      <trkpt lat="50.00983" lon="2.00091">
        <ele>18.5</ele>
        <time>2022-04-12T14:39:14Z</time>
      </trkpt>
      <trkpt lat="50.00983" lon="2.00089">
        <ele>18.4</ele>
        <time>2022-04-12T14:39:15Z</time>
      </trkpt>
      <trkpt lat="50.00984" lon="2.00088">
        <ele>18.4</ele>
        <time>2022-04-12T14:39:16Z</time>
      </trkpt>
      <trkpt lat="50.00984" lon="2.00086">
        <ele>18.4</ele>
        <time>2022-04-12T14:39:17Z</time>
      </trkpt>
      <trkpt lat="50.00985" lon="2.00083">
        <ele>18.3</ele>
        <time>2022-04-12T14:39:18Z</time>
      </trkpt>
      <trkpt lat="50.00986" lon="2.00081">
        <ele>18.3</ele>
        <time>2022-04-12T14:39:19Z</time>
      </trkpt>
      <trkpt lat="50.00986" lon="2.0008">
        <ele>18.3</ele>
        <time>2022-04-12T14:39:21Z</time>
      </trkpt>
      <trkpt lat="50.00986" lon="2.00078">
        <ele>18.3</ele>
        <time>2022-04-12T14:39:22Z</time>
      </trkpt>
      <trkpt lat="50.00987" lon="2.00077">
        <ele>18.3</ele>
        <time>2022-04-12T14:39:23Z</time>
      </trkpt>
      <trkpt lat="50.00987" lon="2.00075">
        <ele>18.2</ele>
        <time>2022-04-12T14:39:24Z</time>
      </trkpt>
      <trkpt lat="50.00987" lon="2.00074">
        <ele>18.2</ele>
        <time>2022-04-12T14:39:25Z</time>
      </trkpt>
      <trkpt lat="50.00988" lon="2.00072">
        <ele>18.2</ele>
        <time>2022-04-12T14:39:26Z</time>
      </trkpt>
      <trkpt lat="50.00988" lon="2.00071">
        <ele>18.2</ele>
        <time>2022-04-12T14:39:27Z</time>
      </trkpt>
      <trkpt lat="50.00988" lon="2.00069">
        <ele>18.2</ele>
        <time>2022-04-12T14:39:28Z</time>
      </trkpt>
      <trkpt lat="50.00989" lon="2.00068">
        <ele>18.1</ele>
        <time>2022-04-12T14:39:29Z</time>
      </trkpt>
      <trkpt lat="50.00989" lon="2.00066">
        <ele>18.1</ele>
        <time>2022-04-12T14:39:30Z</time>
      </trkpt>
      <trkpt lat="50.00989" lon="2.00064">
        <ele>18.1</ele>
        <time>2022-04-12T14:39:32Z</time>
      </trkpt>
      <trkpt lat="50.00989" lon="2.00062">
        <ele>18.1</ele>
        <time>2022-04-12T14:39:33Z</time>
      </trkpt>
      <trkpt lat="50.00989" lon="2.00061">
        <ele>18</ele>
        <time>2022-04-12T14:39:34Z</time>
      </trkpt>
      <trkpt lat="50.0099" lon="2.00059">
        <ele>18</ele>
        <time>2022-04-12T14:39:35Z</time>
      </trkpt>
      <trkpt lat="50.0099" lon="2.00057">
        <ele>18</ele>
        <time>2022-04-12T14:39:36Z</time>
      </trkpt>
      <trkpt lat="50.0099" lon="2.00056">
        <ele>18</ele>
        <time>2022-04-12T14:39:37Z</time>
      </trkpt>
      <trkpt lat="50.0099" lon="2.00053">
        <ele>17.9</ele>
        <time>2022-04-12T14:39:38Z</time>
      </trkpt>
      <trkpt lat="50.00991" lon="2.00052">
        <ele>17.9</ele>
        <time>2022-04-12T14:39:39Z</time>
      </trkpt>
      <trkpt lat="50.00991" lon="2.0005">
        <ele>17.9</ele>
        <time>2022-04-12T14:39:40Z</time>
      </trkpt>
      <trkpt lat="50.00991" lon="2.00049">
        <ele>17.9</ele>
        <time>2022-04-12T14:39:41Z</time>
      </trkpt>
      <trkpt lat="50.00992" lon="2.00047">
        <ele>17.9</ele>
        <time>2022-04-12T14:39:43Z</time>
      </trkpt>
      <trkpt lat="50.00992" lon="2.00045">
        <ele>17.8</ele>
        <time>2022-04-12T14:39:44Z</time>
      </trkpt>
      <trkpt lat="50.00993" lon="2.00042">
        <ele>17.8</ele>
        <time>2022-04-12T14:39:45Z</time>
      </trkpt>
      <trkpt lat="50.00993" lon="2.00041">
        <ele>17.8</ele>
        <time>2022-04-12T14:39:46Z</time>
      </trkpt>
      <trkpt lat="50.00993" lon="2.0004">
        <ele>17.8</ele>
        <time>2022-04-12T14:39:47Z</time>
      </trkpt>
      <trkpt lat="50.00993" lon="2.00038">
        <ele>17.7</ele>
        <time>2022-04-12T14:39:48Z</time>
      </trkpt>
      <trkpt lat="50.00994" lon="2.00037">
        <ele>17.7</ele>
        <time>2022-04-12T14:39:49Z</time>
      </trkpt>
      <trkpt lat="50.00994" lon="2.00035">
        <ele>17.7</ele>
        <time>2022-04-12T14:39:50Z</time>
      </trkpt>
      <trkpt lat="50.00995" lon="2.00032">
        <ele>17.7</ele>
        <time>2022-04-12T14:39:51Z</time>
      </trkpt>
      <trkpt lat="50.00995" lon="2.00031">
        <ele>17.6</ele>
        <time>2022-04-12T14:39:52Z</time>
      </trkpt>
      <trkpt lat="50.00995" lon="2.0003">
        <ele>17.6</ele>
        <time>2022-04-12T14:39:53Z</time>
      </trkpt>
      <trkpt lat="50.00995" lon="2.00028">
        <ele>17.6</ele>
        <time>2022-04-12T14:39:54Z</time>
      </trkpt>
      <trkpt lat="50.00995" lon="2.00025">
        <ele>17.6</ele>
        <time>2022-04-12T14:39:56Z</time>
      </trkpt>
      <trkpt lat="50.00996" lon="2.00023">
        <ele>17.5</ele>
        <time>2022-04-12T14:39:57Z</time>
      </trkpt>
      <trkpt lat="50.00996" lon="2.00021">
        <ele>17.5</ele>
        <time>2022-04-12T14:39:58Z</time>
      </trkpt>
      <trkpt lat="50.00996" lon="2.00019">
        <ele>17.5</ele>
        <time>2022-04-12T14:39:59Z</time>
      </trkpt>
      <trkpt lat="50.00996" lon="2.00018">
        <ele>17.5</ele>
        <time>2022-04-12T14:40:00Z</time>
      </trkpt>
      <trkpt lat="50.00996" lon="2.00016">
        <ele>17.5</ele>
        <time>2022-04-12T14:40:01Z</time>
      </trkpt>
      <trkpt lat="50.00997" lon="2.00014">
        <ele>17.4</ele>
        <time>2022-04-12T14:40:02Z</time>
      </trkpt>
      <trkpt lat="50.00998" lon="2.00011">
        <ele>17.4</ele>
        <time>2022-04-12T14:40:04Z</time>
      </trkpt>
      <trkpt lat="50.00998" lon="2.0001">
        <ele>17.4</ele>
        <time>2022-04-12T14:40:05Z</time>
      </trkpt>
      <trkpt lat="50.00999" lon="2.00009">
        <ele>17.4</ele>
        <time>2022-04-12T14:40:06Z</time>
      </trkpt>
      <trkpt lat="50.01" lon="2.00007">
        <ele>17.3</ele>
        <time>2022-04-12T14:40:07Z</time>
      </trkpt>
      <trkpt lat="50.01" lon="2.00005">
        <ele>17.3</ele>
        <time>2022-04-12T14:40:08Z</time>
      </trkpt>
      <trkpt lat="50.01001" lon="2.00004">
        <ele>17.3</ele>
        <time>2022-04-12T14:40:09Z</time>
      </trkpt>
      <trkpt lat="50.01001" lon="2.00001">
        <ele>17.2</ele>
        <time>2022-04-12T14:40:10Z</time>
      </trkpt>
      <trkpt lat="50.01002" lon="1.99999">
        <ele>17.2</ele>
        <time>2022-04-12T14:40:12Z</time>
      </trkpt>
      <trkpt lat="50.01002" lon="1.99998">
        <ele>17.2</ele>
        <time>2022-04-12T14:40:13Z</time>
      </trkpt>
      <trkpt lat="50.01002" lon="1.99996">
        <ele>17.2</ele>
        <time>2022-04-12T14:40:14Z</time>
      </trkpt>
      <trkpt lat="50.01003" lon="1.99994">
        <ele>17.2</ele>
        <time>2022-04-12T14:40:15Z</time>
      </trkpt>
      <trkpt lat="50.01003" lon="1.99993">
        <ele>17.1</ele>
        <time>2022-04-12T14:40:16Z</time>
      </trkpt>
      <trkpt lat="50.01003" lon="1.99991">
        <ele>17.1</ele>
        <time>2022-04-12T14:40:17Z</time>
      </trkpt>
      <trkpt lat="50.01003" lon="1.99989">
        <ele>17.1</ele>
        <time>2022-04-12T14:40:18Z</time>
      </trkpt>
      <trkpt lat="50.01004" lon="1.99987">
        <ele>17.1</ele>
        <time>2022-04-12T14:40:19Z</time>
      </trkpt>
      <trkpt lat="50.01004" lon="1.99985">
        <ele>17</ele>
        <time>2022-04-12T14:40:20Z</time>
      </trkpt>
      <trkpt lat="50.01004" lon="1.99983">
        <ele>17</ele>
        <time>2022-04-12T14:40:22Z</time>
      </trkpt>
      <trkpt lat="50.01004" lon="1.99982">
        <ele>17</ele>
        <time>2022-04-12T14:40:23Z</time>
      </trkpt>
      <trkpt lat="50.01005" lon="1.9998">
        <ele>17</ele>
        <time>2022-04-12T14:40:24Z</time>
      </trkpt>
      <trkpt lat="50.01005" lon="1.99978">
        <ele>16.9</ele>
        <time>2022-04-12T14:40:25Z</time>
      </trkpt>
      <trkpt lat="50.01006" lon="1.99977">
        <ele>16.9</ele>
        <time>2022-04-12T14:40:26Z</time>
      </trkpt>
      <trkpt lat="50.01006" lon="1.99975">
        <ele>16.9</ele>
        <time>2022-04-12T14:40:27Z</time>
      </trkpt>
      <trkpt lat="50.01007" lon="1.99974">
        <ele>16.9</ele>
        <time>2022-04-12T14:40:29Z</time>
      </trkpt>
      <trkpt lat="50.01007" lon="1.99972">
        <ele>16.8</ele>
        <time>2022-04-12T14:40:30Z</time>
      </trkpt>
      <trkpt lat="50.01007" lon="1.99971">
        <ele>16.8</ele>
        <time>2022-04-12T14:40:31Z</time>
      </trkpt>
      <trkpt lat="50.01007" lon="1.99969">
        <ele>16.8</ele>
        <time>2022-04-12T14:40:32Z</time>
      </trkpt>
      <trkpt lat="50.01008" lon="1.99966">
        <ele>16.8</ele>
        <time>2022-04-12T14:40:33Z</time>
      </trkpt>
      <trkpt lat="50.01008" lon="1.99965">
        <ele>16.7</ele>
        <time>2022-04-12T14:40:34Z</time>
      </trkpt>
      <trkpt lat="50.01008" lon="1.99964">
        <ele>16.7</ele>
        <time>2022-04-12T14:40:35Z</time>
      </trkpt>
      <trkpt lat="50.01008" lon="1.99963">
        <ele>16.7</ele>
        <time>2022-04-12T14:40:36Z</time>
      </trkpt>
      <trkpt lat="50.01008" lon="1.99961">
        <ele>16.7</ele>
        <time>2022-04-12T14:40:37Z</time>
      </trkpt>
      <trkpt lat="50.01009" lon="1.9996">
        <ele>16.7</ele>
        <time>2022-04-12T14:40:38Z</time>
      </trkpt>
      <trkpt lat="50.01009" lon="1.99958">
        <ele>16.6</ele>
        <time>2022-04-12T14:40:40Z</time>
      </trkpt>
      <trkpt lat="50.01009" lon="1.99956">
        <ele>16.6</ele>
        <time>2022-04-12T14:40:41Z</time>
      </trkpt>
      <trkpt lat="50.01009" lon="1.99954">
        <ele>16.6</ele>
        <time>2022-04-12T14:40:42Z</time>
      </trkpt>
      <trkpt lat="50.01009" lon="1.99952">
        <ele>16.5</ele>
        <time>2022-04-12T14:40:43Z</time>
      </trkpt>
      <trkpt lat="50.01009" lon="1.99951">
        <ele>16.5</ele>
        <time>2022-04-12T14:40:44Z</time>
      </trkpt>
      <trkpt lat="50.01009" lon="1.99949">
        <ele>16.5</ele>
        <time>2022-04-12T14:40:45Z</time>
      </trkpt>
      <trkpt lat="50.01009" lon="1.99948">
        <ele>16.5</ele>
        <time>2022-04-12T14:40:46Z</time>
      </trkpt>
      <trkpt lat="50.01009" lon="1.99947">
        <ele>16.5</ele>
        <time>2022-04-12T14:40:47Z</time>
      </trkpt>
      <trkpt lat="50.01009" lon="1.99945">
        <ele>16.4</ele>
        <time>2022-04-12T14:40:48Z</time>
      </trkpt>
      <trkpt lat="50.01009" lon="1.99943">
        <ele>16.4</ele>
        <time>2022-04-12T14:40:49Z</time>
      </trkpt>
      <trkpt lat="50.0101" lon="1.99942">
        <ele>16.4</ele>
        <time>2022-04-12T14:40:50Z</time>
      </trkpt>
      <trkpt lat="50.0101" lon="1.9994">
        <ele>16.3</ele>
        <time>2022-04-12T14:40:51Z</time>
      </trkpt>
      <trkpt lat="50.0101" lon="1.99937">
        <ele>16.3</ele>
        <time>2022-04-12T14:40:53Z</time>
      </trkpt>
      <trkpt lat="50.0101" lon="1.99933">
        <ele>16.2</ele>
        <time>2022-04-12T14:40:54Z</time>
      </trkpt>
      <trkpt lat="50.0101" lon="1.99932">
        <ele>16.2</ele>
        <time>2022-04-12T14:40:55Z</time>
      </trkpt>
      <trkpt lat="50.0101" lon="1.99931">
        <ele>16.2</ele>
        <time>2022-04-12T14:40:56Z</time>
      </trkpt>
      <trkpt lat="50.01011" lon="1.99929">
        <ele>16.2</ele>
        <time>2022-04-12T14:40:57Z</time>
      </trkpt>
      <trkpt lat="50.01011" lon="1.99928">
        <ele>16.1</ele>
        <time>2022-04-12T14:40:58Z</time>
      </trkpt>
      <trkpt lat="50.01011" lon="1.99926">
        <ele>16.1</ele>
        <time>2022-04-12T14:40:59Z</time>
      </trkpt>
      <trkpt lat="50.01012" lon="1.99924">
        <ele>16.1</ele>
        <time>2022-04-12T14:41:00Z</time>
      </trkpt>
      <trkpt lat="50.01012" lon="1.99923">
        <ele>16.1</ele>
        <time>2022-04-12T14:41:01Z</time>
      </trkpt>
      <trkpt lat="50.01013" lon="1.99921">
        <ele>16</ele>
        <time>2022-04-12T14:41:02Z</time>
      </trkpt>
      <trkpt lat="50.01013" lon="1.99919">
        <ele>16</ele>
        <time>2022-04-12T14:41:04Z</time>
      </trkpt>
      <trkpt lat="50.01013" lon="1.99918">
        <ele>16</ele>
        <time>2022-04-12T14:41:05Z</time>
      </trkpt>
      <trkpt lat="50.01014" lon="1.99916">
        <ele>15.9</ele>
        <time>2022-04-12T14:41:06Z</time>
      </trkpt>
      <trkpt lat="50.01014" lon="1.99914">
        <ele>15.9</ele>
        <time>2022-04-12T14:41:07Z</time>
      </trkpt>
      <trkpt lat="50.01014" lon="1.99913">
        <ele>15.9</ele>
        <time>2022-04-12T14:41:08Z</time>
      </trkpt>
      <trkpt lat="50.01015" lon="1.99912">
        <ele>15.9</ele>
        <time>2022-04-12T14:41:09Z</time>
      </trkpt>
      <trkpt lat="50.01015" lon="1.99909">
        <ele>15.8</ele>
        <time>2022-04-12T14:41:10Z</time>
      </trkpt>
      <trkpt lat="50.01016" lon="1.99908">
        <ele>15.8</ele>
        <time>2022-04-12T14:41:11Z</time>
      </trkpt>
      <trkpt lat="50.01016" lon="1.99906">
        <ele>15.8</ele>
        <time>2022-04-12T14:41:12Z</time>
      </trkpt>
      <trkpt lat="50.01015" lon="1.99903">
        <ele>15.7</ele>
        <time>2022-04-12T14:41:13Z</time>
      </trkpt>
      <trkpt lat="50.01015" lon="1.99901">
        <ele>15.7</ele>
        <time>2022-04-12T14:41:15Z</time>
      </trkpt>
      <trkpt lat="50.01015" lon="1.999">
        <ele>15.7</ele>
        <time>2022-04-12T14:41:16Z</time>
      </trkpt>
      <trkpt lat="50.01014" lon="1.99899">
        <ele>15.7</ele>
        <time>2022-04-12T14:41:17Z</time>
      </trkpt>
      <trkpt lat="50.01013" lon="1.99898">
        <ele>15.6</ele>
        <time>2022-04-12T14:41:18Z</time>
      </trkpt>
      <trkpt lat="50.01013" lon="1.99898">
        <ele>15.6</ele>
        <time>2022-04-12T14:41:19Z</time>
      </trkpt>
      <trkpt lat="50.01013" lon="1.99898">
        <ele>15.6</ele>
        <time>2022-04-12T14:41:20Z</time>
      </trkpt>
      <trkpt lat="50.01013" lon="1.99898">
        <ele>15.6</ele>
        <time>2022-04-12T14:41:21Z</time>
      </trkpt>
      <trkpt lat="50.01013" lon="1.99899">
        <ele>15.6</ele>
        <time>2022-04-12T14:41:22Z</time>
      </trkpt>
      <trkpt lat="50.01013" lon="1.99899">
        <ele>15.6</ele>
        <time>2022-04-12T14:41:23Z</time>
      </trkpt>
      <trkpt lat="50.01013" lon="1.999">
        <ele>15.6</ele>
        <time>2022-04-12T14:41:24Z</time>
      </trkpt>
      <trkpt lat="50.01013" lon="1.99899">
        <ele>15.6</ele>
        <time>2022-04-12T14:41:25Z</time>
      </trkpt>
      <trkpt lat="50.01013" lon="1.99899">
        <ele>15.6</ele>
        <time>2022-04-12T14:41:26Z</time>
      </trkpt>
      <trkpt lat="50.01013" lon="1.99899">
        <ele>15.6</ele>
        <time>2022-04-12T14:41:28Z</time>
      </trkpt>
      <trkpt lat="50.01013" lon="1.99898">
        <ele>15.6</ele>
        <time>2022-04-12T14:41:29Z</time>
      </trkpt>
      <trkpt lat="50.01013" lon="1.99897">
        <ele>15.6</ele>
        <time>2022-04-12T14:41:30Z</time>
      </trkpt>
      <trkpt lat="50.01014" lon="1.99896">
        <ele>15.5</ele>
        <time>2022-04-12T14:41:31Z</time>
      </trkpt>
      <trkpt lat="50.01014" lon="1.99894">
        <ele>15.5</ele>
        <time>2022-04-12T14:41:32Z</time>
      </trkpt>
      <trkpt lat="50.01015" lon="1.99892">
        <ele>15.5</ele>
        <time>2022-04-12T14:41:33Z</time>
      </trkpt>
      <trkpt lat="50.01015" lon="1.99889">
        <ele>15.4</ele>
        <time>2022-04-12T14:41:35Z</time>
      </trkpt>
      <trkpt lat="50.01016" lon="1.99888">
        <ele>15.4</ele>
        <time>2022-04-12T14:41:36Z</time>
      </trkpt>
      <trkpt lat="50.01016" lon="1.99887">
        <ele>15.4</ele>
        <time>2022-04-12T14:41:37Z</time>
      </trkpt>
      <trkpt lat="50.01016" lon="1.99885">
        <ele>15.4</ele>
        <time>2022-04-12T14:41:38Z</time>
      </trkpt>
      <trkpt lat="50.01017" lon="1.99883">
        <ele>15.3</ele>
        <time>2022-04-12T14:41:39Z</time>
      </trkpt>
      <trkpt lat="50.01017" lon="1.99881">
        <ele>15.3</ele>
        <time>2022-04-12T14:41:40Z</time>
      </trkpt>
      <trkpt lat="50.01017" lon="1.99879">
        <ele>15.3</ele>
        <time>2022-04-12T14:41:41Z</time>
      </trkpt>
      <trkpt lat="50.01017" lon="1.99877">
        <ele>15.3</ele>
        <time>2022-04-12T14:41:42Z</time>
      </trkpt>
      <trkpt lat="50.01017" lon="1.99875">
        <ele>15.2</ele>
        <time>2022-04-12T14:41:44Z</time>
      </trkpt>
      <trkpt lat="50.01017" lon="1.99872">
        <ele>15.2</ele>
        <time>2022-04-12T14:41:45Z</time>
      </trkpt>
      <trkpt lat="50.01017" lon="1.99871">
        <ele>15.2</ele>
        <time>2022-04-12T14:41:46Z</time>
      </trkpt>
      <trkpt lat="50.01018" lon="1.9987">
        <ele>15.2</ele>
        <time>2022-04-12T14:41:47Z</time>
      </trkpt>
      <trkpt lat="50.01018" lon="1.99866">
        <ele>15.1</ele>
        <time>2022-04-12T14:41:49Z</time>
      </trkpt>
      <trkpt lat="50.01018" lon="1.99864">
        <ele>15.1</ele>
        <time>2022-04-12T14:41:50Z</time>
      </trkpt>
      <trkpt lat="50.01018" lon="1.99863">
        <ele>15.1</ele>
        <time>2022-04-12T14:41:51Z</time>
      </trkpt>
      <trkpt lat="50.01018" lon="1.99862">
        <ele>15</ele>
        <time>2022-04-12T14:41:52Z</time>
      </trkpt>
      <trkpt lat="50.01018" lon="1.9986">
        <ele>15</ele>
        <time>2022-04-12T14:41:53Z</time>
      </trkpt>
      <trkpt lat="50.01019" lon="1.99856">
        <ele>15</ele>
        <time>2022-04-12T14:41:54Z</time>
      </trkpt>
      <trkpt lat="50.01019" lon="1.99854">
        <ele>15</ele>
        <time>2022-04-12T14:41:56Z</time>
      </trkpt>
      <trkpt lat="50.01019" lon="1.99853">
        <ele>14.9</ele>
        <time>2022-04-12T14:41:57Z</time>
      </trkpt>
      <trkpt lat="50.01019" lon="1.99851">
        <ele>14.9</ele>
        <time>2022-04-12T14:41:58Z</time>
      </trkpt>
      <trkpt lat="50.01019" lon="1.99849">
        <ele>14.9</ele>
        <time>2022-04-12T14:41:59Z</time>
      </trkpt>
      <trkpt lat="50.0102" lon="1.99847">
        <ele>14.9</ele>
        <time>2022-04-12T14:42:00Z</time>
      </trkpt>
      <trkpt lat="50.0102" lon="1.99846">
        <ele>14.9</ele>
        <time>2022-04-12T14:42:01Z</time>
      </trkpt>
      <trkpt lat="50.0102" lon="1.99844">
        <ele>14.8</ele>
        <time>2022-04-12T14:42:02Z</time>
      </trkpt>
      <trkpt lat="50.0102" lon="1.99842">
        <ele>14.8</ele>
        <time>2022-04-12T14:42:03Z</time>
      </trkpt>
      <trkpt lat="50.01021" lon="1.9984">
        <ele>14.8</ele>
        <time>2022-04-12T14:42:04Z</time>
      </trkpt>
      <trkpt lat="50.01021" lon="1.99839">
        <ele>14.8</ele>
        <time>2022-04-12T14:42:06Z</time>
      </trkpt>
      <trkpt lat="50.01021" lon="1.99837">
        <ele>14.8</ele>
        <time>2022-04-12T14:42:07Z</time>
      </trkpt>
      <trkpt lat="50.01021" lon="1.99835">
        <ele>14.8</ele>
        <time>2022-04-12T14:42:08Z</time>
      </trkpt>
      <trkpt lat="50.01022" lon="1.99833">
        <ele>14.7</ele>
        <time>2022-04-12T14:42:09Z</time>
      </trkpt>
      <trkpt lat="50.01023" lon="1.99831">
        <ele>14.7</ele>
        <time>2022-04-12T14:42:11Z</time>
      </trkpt>
      <trkpt lat="50.01023" lon="1.99829">
        <ele>14.7</ele>
        <time>2022-04-12T14:42:12Z</time>
      </trkpt>
      <trkpt lat="50.01023" lon="1.99828">
        <ele>14.7</ele>
        <time>2022-04-12T14:42:13Z</time>
      </trkpt>
      <trkpt lat="50.01024" lon="1.99828">
        <ele>14.7</ele>
        <time>2022-04-12T14:42:14Z</time>
      </trkpt>
      <trkpt lat="50.01024" lon="1.99828">
        <ele>14.7</ele>
        <time>2022-04-12T14:42:15Z</time>
      </trkpt>
      <trkpt lat="50.01024" lon="1.99828">
        <ele>14.7</ele>
        <time>2022-04-12T14:42:16Z</time>
      </trkpt>
      <trkpt lat="50.01024" lon="1.99829">
        <ele>14.7</ele>
        <time>2022-04-12T14:42:17Z</time>
      </trkpt>
      <trkpt lat="50.01024" lon="1.99829">
        <ele>14.7</ele>
        <time>2022-04-12T14:42:18Z</time>
      </trkpt>
      <trkpt lat="50.01024" lon="1.99829">
        <ele>14.7</ele>
        <time>2022-04-12T14:42:19Z</time>
      </trkpt>
      <trkpt lat="50.01024" lon="1.9983">
        <ele>14.7</ele>
        <time>2022-04-12T14:42:20Z</time>
      </trkpt>
      <trkpt lat="50.01024" lon="1.9983">
        <ele>14.7</ele>
        <time>2022-04-12T14:42:21Z</time>
      </trkpt>
      <trkpt lat="50.01023" lon="1.9983">
        <ele>14.7</ele>
        <time>2022-04-12T14:42:22Z</time>
      </trkpt>
      <trkpt lat="50.01023" lon="1.9983">
        <ele>14.7</ele>
        <time>2022-04-12T14:42:23Z</time>
      </trkpt>
      <trkpt lat="50.01023" lon="1.9983">
        <ele>14.7</ele>
        <time>2022-04-12T14:42:24Z</time>
      </trkpt>
      <trkpt lat="50.01023" lon="1.9983">
        <ele>14.7</ele>
        <time>2022-04-12T14:42:25Z</time>
      </trkpt>
      <trkpt lat="50.01023" lon="1.9983">
        <ele>14.7</ele>
        <time>2022-04-12T14:42:26Z</time>
      </trkpt>
      <trkpt lat="50.01023" lon="1.9983">
        <ele>14.7</ele>
        <time>2022-04-12T14:42:27Z</time>
      </trkpt>
      <trkpt lat="50.01023" lon="1.9983">
        <ele>14.7</ele>
        <time>2022-04-12T14:42:28Z</time>
      </trkpt>
      <trkpt lat="50.01023" lon="1.9983">
        <ele>14.7</ele>
        <time>2022-04-12T14:42:29Z</time>
      </trkpt>
      <trkpt lat="50.01023" lon="1.9983">
        <ele>14.7</ele>
        <time>2022-04-12T14:42:30Z</time>
      </trkpt>
      <trkpt lat="50.01023" lon="1.9983">
        <ele>14.7</ele>
        <time>2022-04-12T14:42:31Z</time>
      </trkpt>
      <trkpt lat="50.01023" lon="1.9983">
        <ele>14.7</ele>
        <time>2022-04-12T14:42:32Z</time>
      </trkpt>
      <trkpt lat="50.01022" lon="1.9983">
        <ele>14.7</ele>
        <time>2022-04-12T14:42:33Z</time>
      </trkpt>
      <trkpt lat="50.01022" lon="1.9983">
        <ele>14.7</ele>
        <time>2022-04-12T14:42:34Z</time>
      </trkpt>
      <trkpt lat="50.01022" lon="1.9983">
        <ele>14.7</ele>
        <time>2022-04-12T14:42:35Z</time>
      </trkpt>
      <trkpt lat="50.01022" lon="1.9983">
        <ele>14.7</ele>
        <time>2022-04-12T14:42:36Z</time>
      </trkpt>
      <trkpt lat="50.01022" lon="1.9983">
        <ele>14.7</ele>
        <time>2022-04-12T14:42:37Z</time>
      </trkpt>
      <trkpt lat="50.01022" lon="1.9983">
        <ele>14.7</ele>
        <time>2022-04-12T14:42:38Z</time>
      </trkpt>
      <trkpt lat="50.01022" lon="1.9983">
        <ele>14.7</ele>
        <time>2022-04-12T14:42:39Z</time>
      </trkpt>
      <trkpt lat="50.01022" lon="1.9983">
        <ele>14.7</ele>
        <time>2022-04-12T14:42:40Z</time>
      </trkpt>
      <trkpt lat="50.01022" lon="1.9983">
        <ele>14.7</ele>
        <time>2022-04-12T14:42:41Z</time>
      </trkpt>
      <trkpt lat="50.01022" lon="1.9983">
        <ele>14.7</ele>
        <time>2022-04-12T14:42:42Z</time>
      </trkpt>
      <trkpt lat="50.01021" lon="1.99832">
        <ele>14.6</ele>
        <time>2022-04-12T14:42:43Z</time>
      </trkpt>
      <trkpt lat="50.01022" lon="1.99831">
        <ele>14.6</ele>
        <time>2022-04-12T14:42:44Z</time>
      </trkpt>
      <trkpt lat="50.01023" lon="1.99831">
        <ele>14.6</ele>
        <time>2022-04-12T14:42:45Z</time>
      </trkpt>
      <trkpt lat="50.01023" lon="1.9983">
        <ele>14.6</ele>
        <time>2022-04-12T14:42:46Z</time>
      </trkpt>
      <trkpt lat="50.01022" lon="1.99828">
        <ele>14.6</ele>
        <time>2022-04-12T14:42:48Z</time>
      </trkpt>
      <trkpt lat="50.01022" lon="1.99826">
        <ele>14.6</ele>
        <time>2022-04-12T14:42:49Z</time>
      </trkpt>
      <trkpt lat="50.01021" lon="1.99824">
        <ele>14.6</ele>
        <time>2022-04-12T14:42:50Z</time>
      </trkpt>
      <trkpt lat="50.01021" lon="1.99822">
        <ele>14.6</ele>
        <time>2022-04-12T14:42:51Z</time>
      </trkpt>
      <trkpt lat="50.0102" lon="1.99819">
        <ele>14.5</ele>
        <time>2022-04-12T14:42:53Z</time>
      </trkpt>
      <trkpt lat="50.01019" lon="1.99817">
        <ele>14.5</ele>
        <time>2022-04-12T14:42:54Z</time>
      </trkpt>
      <trkpt lat="50.0102" lon="1.99815">
        <ele>14.5</ele>
        <time>2022-04-12T14:42:55Z</time>
      </trkpt>
      <trkpt lat="50.0102" lon="1.99814">
        <ele>14.5</ele>
        <time>2022-04-12T14:42:56Z</time>
      </trkpt>
      <trkpt lat="50.0102" lon="1.99813">
        <ele>14.5</ele>
        <time>2022-04-12T14:42:57Z</time>
      </trkpt>
      <trkpt lat="50.01021" lon="1.99814">
        <ele>14.4</ele>
        <time>2022-04-12T14:42:58Z</time>
      </trkpt>
      <trkpt lat="50.01021" lon="1.99814">
        <ele>14.4</ele>
        <time>2022-04-12T14:42:59Z</time>
      </trkpt>
      <trkpt lat="50.01022" lon="1.99812">
        <ele>14.4</ele>
        <time>2022-04-12T14:43:00Z</time>
      </trkpt>
      <trkpt lat="50.01022" lon="1.99811">
        <ele>14.4</ele>
        <time>2022-04-12T14:43:01Z</time>
      </trkpt>
      <trkpt lat="50.01022" lon="1.99809">
        <ele>14.4</ele>
        <time>2022-04-12T14:43:02Z</time>
      </trkpt>
      <trkpt lat="50.01022" lon="1.99807">
        <ele>14.3</ele>
        <time>2022-04-12T14:43:03Z</time>
      </trkpt>
      <trkpt lat="50.01023" lon="1.99806">
        <ele>14.3</ele>
        <time>2022-04-12T14:43:04Z</time>
      </trkpt>
      <trkpt lat="50.01023" lon="1.99802">
        <ele>14.3</ele>
        <time>2022-04-12T14:43:05Z</time>
      </trkpt>
      <trkpt lat="50.01024" lon="1.99801">
        <ele>14.2</ele>
        <time>2022-04-12T14:43:07Z</time>
      </trkpt>
      <trkpt lat="50.01024" lon="1.99799">
        <ele>14.2</ele>
        <time>2022-04-12T14:43:08Z</time>
      </trkpt>
      <trkpt lat="50.01024" lon="1.99797">
        <ele>14.2</ele>
        <time>2022-04-12T14:43:09Z</time>
      </trkpt>
      <trkpt lat="50.01025" lon="1.99796">
        <ele>14.2</ele>
        <time>2022-04-12T14:43:10Z</time>
      </trkpt>
      <trkpt lat="50.01025" lon="1.99794">
        <ele>14.1</ele>
        <time>2022-04-12T14:43:11Z</time>
      </trkpt>
      <trkpt lat="50.01026" lon="1.99791">
        <ele>14.1</ele>
        <time>2022-04-12T14:43:12Z</time>
      </trkpt>
      <trkpt lat="50.01026" lon="1.99789">
        <ele>14.1</ele>
        <time>2022-04-12T14:43:13Z</time>
      </trkpt>
      <trkpt lat="50.01027" lon="1.99787">
        <ele>14</ele>
        <time>2022-04-12T14:43:14Z</time>
      </trkpt>
      <trkpt lat="50.01027" lon="1.99785">
        <ele>14</ele>
        <time>2022-04-12T14:43:15Z</time>
      </trkpt>
      <trkpt lat="50.01028" lon="1.99782">
        <ele>14</ele>
        <time>2022-04-12T14:43:17Z</time>
      </trkpt>
      <trkpt lat="50.01029" lon="1.99781">
        <ele>14</ele>
        <time>2022-04-12T14:43:18Z</time>
      </trkpt>
      <trkpt lat="50.0103" lon="1.99779">
        <ele>13.9</ele>
        <time>2022-04-12T14:43:19Z</time>
      </trkpt>
      <trkpt lat="50.01031" lon="1.99776">
        <ele>13.9</ele>
        <time>2022-04-12T14:43:20Z</time>
      </trkpt>
      <trkpt lat="50.01031" lon="1.99775">
        <ele>13.9</ele>
        <time>2022-04-12T14:43:21Z</time>
      </trkpt>
      <trkpt lat="50.01032" lon="1.99774">
        <ele>13.8</ele>
        <time>2022-04-12T14:43:22Z</time>
      </trkpt>
      <trkpt lat="50.01032" lon="1.99772">
        <ele>13.8</ele>
        <time>2022-04-12T14:43:23Z</time>
      </trkpt>
      <trkpt lat="50.01033" lon="1.99771">
        <ele>13.8</ele>
        <time>2022-04-12T14:43:24Z</time>
      </trkpt>
      <trkpt lat="50.01034" lon="1.9977">
        <ele>13.8</ele>
        <time>2022-04-12T14:43:25Z</time>
      </trkpt>
      <trkpt lat="50.01036" lon="1.99768">
        <ele>13.7</ele>
        <time>2022-04-12T14:43:26Z</time>
      </trkpt>
      <trkpt lat="50.01036" lon="1.99767">
        <ele>13.7</ele>
        <time>2022-04-12T14:43:27Z</time>
      </trkpt>
      <trkpt lat="50.01037" lon="1.99766">
        <ele>13.7</ele>
        <time>2022-04-12T14:43:28Z</time>
      </trkpt>
      <trkpt lat="50.01038" lon="1.99762">
        <ele>13.6</ele>
        <time>2022-04-12T14:43:29Z</time>
      </trkpt>
      <trkpt lat="50.01038" lon="1.9976">
        <ele>13.6</ele>
        <time>2022-04-12T14:43:31Z</time>
      </trkpt>
      <trkpt lat="50.01039" lon="1.99758">
        <ele>13.6</ele>
        <time>2022-04-12T14:43:32Z</time>
      </trkpt>
      <trkpt lat="50.01039" lon="1.99756">
        <ele>13.6</ele>
        <time>2022-04-12T14:43:34Z</time>
      </trkpt>
      <trkpt lat="50.0104" lon="1.99754">
        <ele>13.5</ele>
        <time>2022-04-12T14:43:35Z</time>
      </trkpt>
      <trkpt lat="50.0104" lon="1.99752">
        <ele>13.5</ele>
        <time>2022-04-12T14:43:36Z</time>
      </trkpt>
      <trkpt lat="50.01041" lon="1.9975">
        <ele>13.5</ele>
        <time>2022-04-12T14:43:37Z</time>
      </trkpt>
      <trkpt lat="50.01042" lon="1.99747">
        <ele>13.4</ele>
        <time>2022-04-12T14:43:38Z</time>
      </trkpt>
      <trkpt lat="50.01042" lon="1.99746">
        <ele>13.4</ele>
        <time>2022-04-12T14:43:39Z</time>
      </trkpt>
      <trkpt lat="50.01043" lon="1.99745">
        <ele>13.4</ele>
        <time>2022-04-12T14:43:40Z</time>
      </trkpt>
      <trkpt lat="50.01043" lon="1.99744">
        <ele>13.4</ele>
        <time>2022-04-12T14:43:41Z</time>
      </trkpt>
      <trkpt lat="50.01043" lon="1.99742">
        <ele>13.3</ele>
        <time>2022-04-12T14:43:42Z</time>
      </trkpt>
      <trkpt lat="50.01044" lon="1.99741">
        <ele>13.3</ele>
        <time>2022-04-12T14:43:43Z</time>
      </trkpt>
      <trkpt lat="50.01045" lon="1.99739">
        <ele>13.3</ele>
        <time>2022-04-12T14:43:44Z</time>
      </trkpt>
      <trkpt lat="50.01046" lon="1.99738">
        <ele>13.3</ele>
        <time>2022-04-12T14:43:45Z</time>
      </trkpt>
      <trkpt lat="50.01046" lon="1.99737">
        <ele>13.3</ele>
        <time>2022-04-12T14:43:46Z</time>
      </trkpt>
      <trkpt lat="50.01047" lon="1.99735">
        <ele>13.2</ele>
        <time>2022-04-12T14:43:47Z</time>
      </trkpt>
      <trkpt lat="50.01048" lon="1.99734">
        <ele>13.2</ele>
        <time>2022-04-12T14:43:48Z</time>
      </trkpt>
      <trkpt lat="50.01049" lon="1.99732">
        <ele>13.2</ele>
        <time>2022-04-12T14:43:50Z</time>
      </trkpt>
      <trkpt lat="50.0105" lon="1.99731">
        <ele>13.2</ele>
        <time>2022-04-12T14:43:51Z</time>
      </trkpt>
      <trkpt lat="50.01051" lon="1.9973">
        <ele>13.1</ele>
        <time>2022-04-12T14:43:52Z</time>
      </trkpt>
      <trkpt lat="50.01051" lon="1.99729">
        <ele>13.1</ele>
        <time>2022-04-12T14:43:53Z</time>
      </trkpt>
      <trkpt lat="50.01052" lon="1.99728">
        <ele>13.1</ele>
        <time>2022-04-12T14:43:54Z</time>
      </trkpt>
      <trkpt lat="50.01052" lon="1.99727">
        <ele>13.1</ele>
        <time>2022-04-12T14:43:55Z</time>
      </trkpt>
      <trkpt lat="50.01054" lon="1.99725">
        <ele>13.1</ele>
        <time>2022-04-12T14:43:56Z</time>
      </trkpt>
      <trkpt lat="50.01055" lon="1.99723">
        <ele>13</ele>
        <time>2022-04-12T14:43:57Z</time>
      </trkpt>
      <trkpt lat="50.01056" lon="1.99722">
        <ele>13</ele>
        <time>2022-04-12T14:43:59Z</time>
      </trkpt>
      <trkpt lat="50.01056" lon="1.99721">
        <ele>13</ele>
        <time>2022-04-12T14:44:00Z</time>
      </trkpt>
      <trkpt lat="50.01057" lon="1.9972">
        <ele>13</ele>
        <time>2022-04-12T14:44:01Z</time>
      </trkpt>
      <trkpt lat="50.01058" lon="1.99719">
        <ele>13</ele>
        <time>2022-04-12T14:44:02Z</time>
      </trkpt>
      <trkpt lat="50.01058" lon="1.99718">
        <ele>13</ele>
        <time>2022-04-12T14:44:03Z</time>
      </trkpt>
      <trkpt lat="50.01059" lon="1.99716">
        <ele>13</ele>
        <time>2022-04-12T14:44:04Z</time>
      </trkpt>
      <trkpt lat="50.0106" lon="1.99715">
        <ele>12.9</ele>
        <time>2022-04-12T14:44:05Z</time>
      </trkpt>
      <trkpt lat="50.01061" lon="1.99715">
        <ele>12.9</ele>
        <time>2022-04-12T14:44:06Z</time>
      </trkpt>
      <trkpt lat="50.01062" lon="1.99713">
        <ele>12.9</ele>
        <time>2022-04-12T14:44:07Z</time>
      </trkpt>
      <trkpt lat="50.01063" lon="1.99711">
        <ele>12.9</ele>
        <time>2022-04-12T14:44:09Z</time>
      </trkpt>
      <trkpt lat="50.01065" lon="1.9971">
        <ele>12.9</ele>
        <time>2022-04-12T14:44:10Z</time>
      </trkpt>
      <trkpt lat="50.01066" lon="1.99708">
        <ele>12.8</ele>
        <time>2022-04-12T14:44:12Z</time>
      </trkpt>
      <trkpt lat="50.01067" lon="1.99707">
        <ele>12.8</ele>
        <time>2022-04-12T14:44:13Z</time>
      </trkpt>
      <trkpt lat="50.01068" lon="1.99706">
        <ele>12.8</ele>
        <time>2022-04-12T14:44:14Z</time>
      </trkpt>
      <trkpt lat="50.01069" lon="1.99705">
        <ele>12.8</ele>
        <time>2022-04-12T14:44:15Z</time>
      </trkpt>
      <trkpt lat="50.01071" lon="1.99703">
        <ele>12.8</ele>
        <time>2022-04-12T14:44:16Z</time>
      </trkpt>
      <trkpt lat="50.01072" lon="1.99703">
        <ele>12.8</ele>
        <time>2022-04-12T14:44:17Z</time>
      </trkpt>
      <trkpt lat="50.01072" lon="1.99702">
        <ele>12.7</ele>
        <time>2022-04-12T14:44:18Z</time>
      </trkpt>
      <trkpt lat="50.01073" lon="1.997">
        <ele>12.7</ele>
        <time>2022-04-12T14:44:19Z</time>
      </trkpt>
      <trkpt lat="50.01074" lon="1.99699">
        <ele>12.7</ele>
        <time>2022-04-12T14:44:20Z</time>
      </trkpt>
      <trkpt lat="50.01076" lon="1.99697">
        <ele>12.7</ele>
        <time>2022-04-12T14:44:22Z</time>
      </trkpt>
      <trkpt lat="50.01077" lon="1.99696">
        <ele>12.7</ele>
        <time>2022-04-12T14:44:23Z</time>
      </trkpt>
      <trkpt lat="50.01077" lon="1.99695">
        <ele>12.7</ele>
        <time>2022-04-12T14:44:24Z</time>
      </trkpt>
      <trkpt lat="50.01078" lon="1.99694">
        <ele>12.6</ele>
        <time>2022-04-12T14:44:25Z</time>
      </trkpt>
      <trkpt lat="50.01079" lon="1.99693">
        <ele>12.6</ele>
        <time>2022-04-12T14:44:26Z</time>
      </trkpt>
      <trkpt lat="50.0108" lon="1.99693">
        <ele>12.6</ele>
        <time>2022-04-12T14:44:27Z</time>
      </trkpt>
      <trkpt lat="50.01081" lon="1.99692">
        <ele>12.6</ele>
        <time>2022-04-12T14:44:28Z</time>
      </trkpt>
      <trkpt lat="50.01082" lon="1.99691">
        <ele>12.6</ele>
        <time>2022-04-12T14:44:29Z</time>
      </trkpt>
      <trkpt lat="50.01083" lon="1.9969">
        <ele>12.6</ele>
        <time>2022-04-12T14:44:30Z</time>
      </trkpt>
      <trkpt lat="50.01084" lon="1.99689">
        <ele>12.6</ele>
        <time>2022-04-12T14:44:31Z</time>
      </trkpt>
      <trkpt lat="50.01085" lon="1.99688">
        <ele>12.5</ele>
        <time>2022-04-12T14:44:33Z</time>
      </trkpt>
      <trkpt lat="50.01086" lon="1.99687">
        <ele>12.5</ele>
        <time>2022-04-12T14:44:34Z</time>
      </trkpt>
      <trkpt lat="50.01087" lon="1.99686">
        <ele>12.5</ele>
        <time>2022-04-12T14:44:35Z</time>
      </trkpt>
      <trkpt lat="50.01088" lon="1.99685">
        <ele>12.5</ele>
        <time>2022-04-12T14:44:36Z</time>
      </trkpt>
      <trkpt lat="50.01089" lon="1.99684">
        <ele>12.5</ele>
        <time>2022-04-12T14:44:37Z</time>
      </trkpt>
      <trkpt lat="50.0109" lon="1.99682">
        <ele>12.4</ele>
        <time>2022-04-12T14:44:38Z</time>
      </trkpt>
      <trkpt lat="50.0109" lon="1.99682">
        <ele>12.4</ele>
        <time>2022-04-12T14:44:39Z</time>
      </trkpt>
      <trkpt lat="50.01091" lon="1.99681">
        <ele>12.4</ele>
        <time>2022-04-12T14:44:40Z</time>
      </trkpt>
      <trkpt lat="50.01092" lon="1.9968">
        <ele>12.4</ele>
        <time>2022-04-12T14:44:41Z</time>
      </trkpt>
      <trkpt lat="50.01093" lon="1.99679">
        <ele>12.4</ele>
        <time>2022-04-12T14:44:42Z</time>
      </trkpt>
      <trkpt lat="50.01095" lon="1.99677">
        <ele>12.3</ele>
        <time>2022-04-12T14:44:44Z</time>
      </trkpt>
      <trkpt lat="50.01096" lon="1.99675">
        <ele>12.3</ele>
        <time>2022-04-12T14:44:45Z</time>
      </trkpt>
      <trkpt lat="50.01097" lon="1.99674">
        <ele>12.3</ele>
        <time>2022-04-12T14:44:46Z</time>
      </trkpt>
      <trkpt lat="50.01098" lon="1.99673">
        <ele>12.3</ele>
        <time>2022-04-12T14:44:47Z</time>
      </trkpt>
      <trkpt lat="50.011" lon="1.9967">
        <ele>12.2</ele>
        <time>2022-04-12T14:44:48Z</time>
      </trkpt>
      <trkpt lat="50.01101" lon="1.99669">
        <ele>12.2</ele>
        <time>2022-04-12T14:44:50Z</time>
      </trkpt>
      <trkpt lat="50.01101" lon="1.99668">
        <ele>12.2</ele>
        <time>2022-04-12T14:44:51Z</time>
      </trkpt>
      <trkpt lat="50.01102" lon="1.99667">
        <ele>12.2</ele>
        <time>2022-04-12T14:44:52Z</time>
      </trkpt>
      <trkpt lat="50.01103" lon="1.99667">
        <ele>12.1</ele>
        <time>2022-04-12T14:44:53Z</time>
      </trkpt>
      <trkpt lat="50.01104" lon="1.99666">
        <ele>12.1</ele>
        <time>2022-04-12T14:44:54Z</time>
      </trkpt>
      <trkpt lat="50.01106" lon="1.99665">
        <ele>12.1</ele>
        <time>2022-04-12T14:44:55Z</time>
      </trkpt>
      <trkpt lat="50.01107" lon="1.99664">
        <ele>12.1</ele>
        <time>2022-04-12T14:44:56Z</time>
      </trkpt>
      <trkpt lat="50.01108" lon="1.99664">
        <ele>12.1</ele>
        <time>2022-04-12T14:44:58Z</time>
      </trkpt>
      <trkpt lat="50.01109" lon="1.99664">
        <ele>12</ele>
        <time>2022-04-12T14:44:59Z</time>
      </trkpt>
      <trkpt lat="50.0111" lon="1.99665">
        <ele>12</ele>
        <time>2022-04-12T14:45:00Z</time>
      </trkpt>
      <trkpt lat="50.01111" lon="1.99666">
        <ele>12</ele>
        <time>2022-04-12T14:45:01Z</time>
      </trkpt>
      <trkpt lat="50.01112" lon="1.99667">
        <ele>12</ele>
        <time>2022-04-12T14:45:02Z</time>
      </trkpt>
      <trkpt lat="50.01113" lon="1.99668">
        <ele>12</ele>
        <time>2022-04-12T14:45:03Z</time>
      </trkpt>
      <trkpt lat="50.01114" lon="1.99669">
        <ele>11.9</ele>
        <time>2022-04-12T14:45:04Z</time>
      </trkpt>
      <trkpt lat="50.01115" lon="1.9967">
        <ele>11.9</ele>
        <time>2022-04-12T14:45:06Z</time>
      </trkpt>
      <trkpt lat="50.01116" lon="1.9967">
        <ele>11.9</ele>
        <time>2022-04-12T14:45:07Z</time>
      </trkpt>
      <trkpt lat="50.01117" lon="1.9967">
        <ele>11.9</ele>
        <time>2022-04-12T14:45:08Z</time>
      </trkpt>
      <trkpt lat="50.01119" lon="1.9967">
        <ele>11.9</ele>
        <time>2022-04-12T14:45:09Z</time>
      </trkpt>
      <trkpt lat="50.0112" lon="1.9967">
        <ele>11.9</ele>
        <time>2022-04-12T14:45:10Z</time>
      </trkpt>
      <trkpt lat="50.01121" lon="1.9967">
        <ele>11.8</ele>
        <time>2022-04-12T14:45:11Z</time>
      </trkpt>
      <trkpt lat="50.01123" lon="1.9967">
        <ele>11.8</ele>
        <time>2022-04-12T14:45:13Z</time>
      </trkpt>
      <trkpt lat="50.01124" lon="1.99669">
        <ele>11.8</ele>
        <time>2022-04-12T14:45:14Z</time>
      </trkpt>
      <trkpt lat="50.01125" lon="1.99668">
        <ele>11.8</ele>
        <time>2022-04-12T14:45:15Z</time>
      </trkpt>
      <trkpt lat="50.01125" lon="1.99667">
        <ele>11.8</ele>
        <time>2022-04-12T14:45:16Z</time>
      </trkpt>
      <trkpt lat="50.01126" lon="1.99667">
        <ele>11.7</ele>
        <time>2022-04-12T14:45:17Z</time>
      </trkpt>
      <trkpt lat="50.01127" lon="1.99666">
        <ele>11.7</ele>
        <time>2022-04-12T14:45:18Z</time>
      </trkpt>
      <trkpt lat="50.01128" lon="1.99665">
        <ele>11.7</ele>
        <time>2022-04-12T14:45:19Z</time>
      </trkpt>
      <trkpt lat="50.01129" lon="1.99665">
        <ele>11.7</ele>
        <time>2022-04-12T14:45:20Z</time>
      </trkpt>
      <trkpt lat="50.0113" lon="1.99664">
        <ele>11.7</ele>
        <time>2022-04-12T14:45:21Z</time>
      </trkpt>
      <trkpt lat="50.01131" lon="1.99663">
        <ele>11.7</ele>
        <time>2022-04-12T14:45:22Z</time>
      </trkpt>
      <trkpt lat="50.01132" lon="1.99662">
        <ele>11.7</ele>
        <time>2022-04-12T14:45:23Z</time>
      </trkpt>
      <trkpt lat="50.01134" lon="1.99661">
        <ele>11.7</ele>
        <time>2022-04-12T14:45:25Z</time>
      </trkpt>
      <trkpt lat="50.01135" lon="1.9966">
        <ele>11.7</ele>
        <time>2022-04-12T14:45:27Z</time>
      </trkpt>
      <trkpt lat="50.01136" lon="1.9966">
        <ele>11.6</ele>
        <time>2022-04-12T14:45:28Z</time>
      </trkpt>
      <trkpt lat="50.01137" lon="1.99659">
        <ele>11.6</ele>
        <time>2022-04-12T14:45:29Z</time>
      </trkpt>
      <trkpt lat="50.01138" lon="1.99658">
        <ele>11.6</ele>
        <time>2022-04-12T14:45:30Z</time>
      </trkpt>
      <trkpt lat="50.01139" lon="1.99657">
        <ele>11.6</ele>
        <time>2022-04-12T14:45:31Z</time>
      </trkpt>
      <trkpt lat="50.0114" lon="1.99657">
        <ele>11.6</ele>
        <time>2022-04-12T14:45:32Z</time>
      </trkpt>
      <trkpt lat="50.01141" lon="1.99656">
        <ele>11.6</ele>
        <time>2022-04-12T14:45:33Z</time>
      </trkpt>
      <trkpt lat="50.01143" lon="1.99656">
        <ele>11.6</ele>
        <time>2022-04-12T14:45:35Z</time>
      </trkpt>
      <trkpt lat="50.01144" lon="1.99655">
        <ele>11.6</ele>
        <time>2022-04-12T14:45:36Z</time>
      </trkpt>
      <trkpt lat="50.01145" lon="1.99655">
        <ele>11.6</ele>
        <time>2022-04-12T14:45:37Z</time>
      </trkpt>
      <trkpt lat="50.01146" lon="1.99654">
        <ele>11.6</ele>
        <time>2022-04-12T14:45:38Z</time>
      </trkpt>
      <trkpt lat="50.01147" lon="1.99653">
        <ele>11.6</ele>
        <time>2022-04-12T14:45:39Z</time>
      </trkpt>
      <trkpt lat="50.01148" lon="1.99652">
        <ele>11.6</ele>
        <time>2022-04-12T14:45:40Z</time>
      </trkpt>
      <trkpt lat="50.01149" lon="1.99651">
        <ele>11.5</ele>
        <time>2022-04-12T14:45:42Z</time>
      </trkpt>
      <trkpt lat="50.0115" lon="1.99651">
        <ele>11.5</ele>
        <time>2022-04-12T14:45:43Z</time>
      </trkpt>
      <trkpt lat="50.01151" lon="1.9965">
        <ele>11.5</ele>
        <time>2022-04-12T14:45:44Z</time>
      </trkpt>
      <trkpt lat="50.01152" lon="1.9965">
        <ele>11.5</ele>
        <time>2022-04-12T14:45:46Z</time>
      </trkpt>
      <trkpt lat="50.01153" lon="1.9965">
        <ele>11.5</ele>
        <time>2022-04-12T14:45:47Z</time>
      </trkpt>
      <trkpt lat="50.01154" lon="1.9965">
        <ele>11.5</ele>
        <time>2022-04-12T14:45:48Z</time>
      </trkpt>
      <trkpt lat="50.01155" lon="1.9965">
        <ele>11.5</ele>
        <time>2022-04-12T14:45:49Z</time>
      </trkpt>
      <trkpt lat="50.01156" lon="1.9965">
        <ele>11.5</ele>
        <time>2022-04-12T14:45:50Z</time>
      </trkpt>
      <trkpt lat="50.01158" lon="1.99651">
        <ele>11.4</ele>
        <time>2022-04-12T14:45:51Z</time>
      </trkpt>
      <trkpt lat="50.01158" lon="1.99652">
        <ele>11.4</ele>
        <time>2022-04-12T14:45:52Z</time>
      </trkpt>
      <trkpt lat="50.0116" lon="1.99653">
        <ele>11.4</ele>
        <time>2022-04-12T14:45:54Z</time>
      </trkpt>
      <trkpt lat="50.0116" lon="1.99655">
        <ele>11.4</ele>
        <time>2022-04-12T14:45:55Z</time>
      </trkpt>
      <trkpt lat="50.01161" lon="1.99656">
        <ele>11.4</ele>
        <time>2022-04-12T14:45:56Z</time>
      </trkpt>
      <trkpt lat="50.01161" lon="1.99659">
        <ele>11.3</ele>
        <time>2022-04-12T14:45:57Z</time>
      </trkpt>
      <trkpt lat="50.01162" lon="1.99661">
        <ele>11.3</ele>
        <time>2022-04-12T14:45:58Z</time>
      </trkpt>
      <trkpt lat="50.01162" lon="1.99663">
        <ele>11.3</ele>
        <time>2022-04-12T14:45:59Z</time>
      </trkpt>
      <trkpt lat="50.01162" lon="1.99666">
        <ele>11.3</ele>
        <time>2022-04-12T14:46:01Z</time>
      </trkpt>
      <trkpt lat="50.01162" lon="1.99668">
        <ele>11.3</ele>
        <time>2022-04-12T14:46:02Z</time>
      </trkpt>
      <trkpt lat="50.01163" lon="1.9967">
        <ele>11.3</ele>
        <time>2022-04-12T14:46:03Z</time>
      </trkpt>
      <trkpt lat="50.01163" lon="1.99673">
        <ele>11.3</ele>
        <time>2022-04-12T14:46:04Z</time>
      </trkpt>
      <trkpt lat="50.01163" lon="1.99675">
        <ele>11.3</ele>
        <time>2022-04-12T14:46:05Z</time>
      </trkpt>
      <trkpt lat="50.01163" lon="1.99677">
        <ele>11.3</ele>
        <time>2022-04-12T14:46:06Z</time>
      </trkpt>
      <trkpt lat="50.01163" lon="1.9968">
        <ele>11.3</ele>
        <time>2022-04-12T14:46:07Z</time>
      </trkpt>
      <trkpt lat="50.01163" lon="1.99682">
        <ele>11.3</ele>
        <time>2022-04-12T14:46:08Z</time>
      </trkpt>
      <trkpt lat="50.01163" lon="1.99684">
        <ele>11.3</ele>
        <time>2022-04-12T14:46:09Z</time>
      </trkpt>
      <trkpt lat="50.01163" lon="1.99686">
        <ele>11.3</ele>
        <time>2022-04-12T14:46:10Z</time>
      </trkpt>
      <trkpt lat="50.01163" lon="1.99688">
        <ele>11.3</ele>
        <time>2022-04-12T14:46:11Z</time>
      </trkpt>
      <trkpt lat="50.01164" lon="1.99692">
        <ele>11.2</ele>
        <time>2022-04-12T14:46:13Z</time>
      </trkpt>
      <trkpt lat="50.01164" lon="1.99693">
        <ele>11.2</ele>
        <time>2022-04-12T14:46:14Z</time>
      </trkpt>
      <trkpt lat="50.01164" lon="1.99695">
        <ele>11.2</ele>
        <time>2022-04-12T14:46:15Z</time>
      </trkpt>
      <trkpt lat="50.01165" lon="1.99697">
        <ele>11.2</ele>
        <time>2022-04-12T14:46:16Z</time>
      </trkpt>
      <trkpt lat="50.01165" lon="1.99699">
        <ele>11.2</ele>
        <time>2022-04-12T14:46:17Z</time>
      </trkpt>
      <trkpt lat="50.01165" lon="1.997">
        <ele>11.2</ele>
        <time>2022-04-12T14:46:18Z</time>
      </trkpt>
      <trkpt lat="50.01165" lon="1.99702">
        <ele>11.2</ele>
        <time>2022-04-12T14:46:19Z</time>
      </trkpt>
      <trkpt lat="50.01165" lon="1.99704">
        <ele>11.2</ele>
        <time>2022-04-12T14:46:20Z</time>
      </trkpt>
      <trkpt lat="50.01165" lon="1.99708">
        <ele>11.2</ele>
        <time>2022-04-12T14:46:21Z</time>
      </trkpt>
      <trkpt lat="50.01165" lon="1.99709">
        <ele>11.2</ele>
        <time>2022-04-12T14:46:23Z</time>
      </trkpt>
      <trkpt lat="50.01165" lon="1.99711">
        <ele>11.2</ele>
        <time>2022-04-12T14:46:24Z</time>
      </trkpt>
      <trkpt lat="50.01166" lon="1.99713">
        <ele>11.2</ele>
        <time>2022-04-12T14:46:25Z</time>
      </trkpt>
      <trkpt lat="50.01166" lon="1.99714">
        <ele>11.2</ele>
        <time>2022-04-12T14:46:26Z</time>
      </trkpt>
      <trkpt lat="50.01166" lon="1.99716">
        <ele>11.2</ele>
        <time>2022-04-12T14:46:27Z</time>
      </trkpt>
      <trkpt lat="50.01166" lon="1.9972">
        <ele>11.1</ele>
        <time>2022-04-12T14:46:29Z</time>
      </trkpt>
      <trkpt lat="50.01166" lon="1.99721">
        <ele>11.1</ele>
        <time>2022-04-12T14:46:30Z</time>
      </trkpt>
      <trkpt lat="50.01166" lon="1.99723">
        <ele>11.1</ele>
        <time>2022-04-12T14:46:31Z</time>
      </trkpt>
      <trkpt lat="50.01167" lon="1.99724">
        <ele>11.1</ele>
        <time>2022-04-12T14:46:32Z</time>
      </trkpt>
      <trkpt lat="50.01167" lon="1.99726">
        <ele>11.1</ele>
        <time>2022-04-12T14:46:33Z</time>
      </trkpt>
      <trkpt lat="50.01167" lon="1.99728">
        <ele>11.1</ele>
        <time>2022-04-12T14:46:34Z</time>
      </trkpt>
      <trkpt lat="50.01167" lon="1.99729">
        <ele>11.1</ele>
        <time>2022-04-12T14:46:35Z</time>
      </trkpt>
      <trkpt lat="50.01167" lon="1.99731">
        <ele>11.1</ele>
        <time>2022-04-12T14:46:36Z</time>
      </trkpt>
      <trkpt lat="50.01167" lon="1.99733">
        <ele>11.1</ele>
        <time>2022-04-12T14:46:38Z</time>
      </trkpt>
      <trkpt lat="50.01168" lon="1.99734">
        <ele>11.1</ele>
        <time>2022-04-12T14:46:39Z</time>
      </trkpt>
      <trkpt lat="50.01168" lon="1.99736">
        <ele>11.1</ele>
        <time>2022-04-12T14:46:40Z</time>
      </trkpt>
      <trkpt lat="50.01168" lon="1.99738">
        <ele>11.1</ele>
        <time>2022-04-12T14:46:41Z</time>
      </trkpt>
      <trkpt lat="50.01168" lon="1.99739">
        <ele>11.1</ele>
        <time>2022-04-12T14:46:42Z</time>
      </trkpt>
      <trkpt lat="50.01168" lon="1.99741">
        <ele>11.2</ele>
        <time>2022-04-12T14:46:43Z</time>
      </trkpt>
      <trkpt lat="50.01168" lon="1.99742">
        <ele>11.2</ele>
        <time>2022-04-12T14:46:44Z</time>
      </trkpt>
      <trkpt lat="50.01168" lon="1.99744">
        <ele>11.2</ele>
        <time>2022-04-12T14:46:45Z</time>
      </trkpt>
      <trkpt lat="50.01168" lon="1.99748">
        <ele>11.2</ele>
        <time>2022-04-12T14:46:46Z</time>
      </trkpt>
      <trkpt lat="50.01168" lon="1.99749">
        <ele>11.2</ele>
        <time>2022-04-12T14:46:47Z</time>
      </trkpt>
      <trkpt lat="50.01168" lon="1.9975">
        <ele>11.2</ele>
        <time>2022-04-12T14:46:48Z</time>
      </trkpt>
      <trkpt lat="50.01168" lon="1.99754">
        <ele>11.2</ele>
        <time>2022-04-12T14:46:50Z</time>
      </trkpt>
      <trkpt lat="50.01168" lon="1.99755">
        <ele>11.2</ele>
        <time>2022-04-12T14:46:51Z</time>
      </trkpt>
      <trkpt lat="50.01168" lon="1.99756">
        <ele>11.2</ele>
        <time>2022-04-12T14:46:52Z</time>
      </trkpt>
      <trkpt lat="50.01168" lon="1.99758">
        <ele>11.2</ele>
        <time>2022-04-12T14:46:53Z</time>
      </trkpt>
      <trkpt lat="50.01168" lon="1.9976">
        <ele>11.2</ele>
        <time>2022-04-12T14:46:54Z</time>
      </trkpt>
      <trkpt lat="50.01168" lon="1.99762">
        <ele>11.2</ele>
        <time>2022-04-12T14:46:55Z</time>
      </trkpt>
      <trkpt lat="50.01168" lon="1.99763">
        <ele>11.2</ele>
        <time>2022-04-12T14:46:56Z</time>
      </trkpt>
      <trkpt lat="50.01168" lon="1.99765">
        <ele>11.2</ele>
        <time>2022-04-12T14:46:57Z</time>
      </trkpt>
      <trkpt lat="50.01168" lon="1.99767">
        <ele>11.3</ele>
        <time>2022-04-12T14:46:58Z</time>
      </trkpt>
      <trkpt lat="50.01168" lon="1.99769">
        <ele>11.3</ele>
        <time>2022-04-12T14:46:59Z</time>
      </trkpt>
      <trkpt lat="50.01168" lon="1.99771">
        <ele>11.3</ele>
        <time>2022-04-12T14:47:00Z</time>
      </trkpt>
      <trkpt lat="50.01169" lon="1.99773">
        <ele>11.3</ele>
        <time>2022-04-12T14:47:02Z</time>
      </trkpt>
      <trkpt lat="50.01169" lon="1.99776">
        <ele>11.3</ele>
        <time>2022-04-12T14:47:03Z</time>
      </trkpt>
      <trkpt lat="50.01169" lon="1.99778">
        <ele>11.3</ele>
        <time>2022-04-12T14:47:04Z</time>
      </trkpt>
      <trkpt lat="50.01169" lon="1.99779">
        <ele>11.3</ele>
        <time>2022-04-12T14:47:05Z</time>
      </trkpt>
      <trkpt lat="50.01169" lon="1.99781">
        <ele>11.3</ele>
        <time>2022-04-12T14:47:06Z</time>
      </trkpt>
      <trkpt lat="50.01169" lon="1.99783">
        <ele>11.3</ele>
        <time>2022-04-12T14:47:07Z</time>
      </trkpt>
      <trkpt lat="50.0117" lon="1.99784">
        <ele>11.3</ele>
        <time>2022-04-12T14:47:08Z</time>
      </trkpt>
      <trkpt lat="50.0117" lon="1.99786">
        <ele>11.3</ele>
        <time>2022-04-12T14:47:09Z</time>
      </trkpt>
      <trkpt lat="50.0117" lon="1.99788">
        <ele>11.3</ele>
        <time>2022-04-12T14:47:10Z</time>
      </trkpt>
      <trkpt lat="50.0117" lon="1.99789">
        <ele>11.3</ele>
        <time>2022-04-12T14:47:11Z</time>
      </trkpt>
      <trkpt lat="50.01171" lon="1.99791">
        <ele>11.3</ele>
        <time>2022-04-12T14:47:12Z</time>
      </trkpt>
      <trkpt lat="50.01171" lon="1.99793">
        <ele>11.3</ele>
        <time>2022-04-12T14:47:14Z</time>
      </trkpt>
      <trkpt lat="50.01171" lon="1.99795">
        <ele>11.3</ele>
        <time>2022-04-12T14:47:15Z</time>
      </trkpt>
      <trkpt lat="50.01171" lon="1.99796">
        <ele>11.3</ele>
        <time>2022-04-12T14:47:16Z</time>
      </trkpt>
      <trkpt lat="50.0117" lon="1.99798">
        <ele>11.3</ele>
        <time>2022-04-12T14:47:17Z</time>
      </trkpt>
      <trkpt lat="50.01171" lon="1.99799">
        <ele>11.3</ele>
        <time>2022-04-12T14:47:18Z</time>
      </trkpt>
      <trkpt lat="50.01171" lon="1.99801">
        <ele>11.3</ele>
        <time>2022-04-12T14:47:19Z</time>
      </trkpt>
      <trkpt lat="50.01171" lon="1.99802">
        <ele>11.3</ele>
        <time>2022-04-12T14:47:20Z</time>
      </trkpt>
      <trkpt lat="50.01171" lon="1.99803">
        <ele>11.3</ele>
        <time>2022-04-12T14:47:21Z</time>
      </trkpt>
      <trkpt lat="50.01171" lon="1.99805">
        <ele>11.3</ele>
        <time>2022-04-12T14:47:22Z</time>
      </trkpt>
      <trkpt lat="50.01172" lon="1.99807">
        <ele>11.3</ele>
        <time>2022-04-12T14:47:23Z</time>
      </trkpt>
      <trkpt lat="50.01172" lon="1.99808">
        <ele>11.3</ele>
        <time>2022-04-12T14:47:25Z</time>
      </trkpt>
      <trkpt lat="50.01172" lon="1.9981">
        <ele>11.3</ele>
        <time>2022-04-12T14:47:26Z</time>
      </trkpt>
      <trkpt lat="50.01172" lon="1.99812">
        <ele>11.3</ele>
        <time>2022-04-12T14:47:27Z</time>
      </trkpt>
      <trkpt lat="50.01172" lon="1.99814">
        <ele>11.3</ele>
        <time>2022-04-12T14:47:28Z</time>
      </trkpt>
      <trkpt lat="50.01172" lon="1.99815">
        <ele>11.3</ele>
        <time>2022-04-12T14:47:29Z</time>
      </trkpt>
      <trkpt lat="50.01173" lon="1.99817">
        <ele>11.3</ele>
        <time>2022-04-12T14:47:30Z</time>
      </trkpt>
      <trkpt lat="50.01173" lon="1.99818">
        <ele>11.3</ele>
        <time>2022-04-12T14:47:31Z</time>
      </trkpt>
      <trkpt lat="50.01173" lon="1.9982">
        <ele>11.3</ele>
        <time>2022-04-12T14:47:32Z</time>
      </trkpt>
      <trkpt lat="50.01173" lon="1.99822">
        <ele>11.3</ele>
        <time>2022-04-12T14:47:33Z</time>
      </trkpt>
      <trkpt lat="50.01173" lon="1.99824">
        <ele>11.3</ele>
        <time>2022-04-12T14:47:34Z</time>
      </trkpt>
      <trkpt lat="50.01174" lon="1.99826">
        <ele>11.3</ele>
        <time>2022-04-12T14:47:35Z</time>
      </trkpt>
      <trkpt lat="50.01174" lon="1.99828">
        <ele>11.3</ele>
        <time>2022-04-12T14:47:36Z</time>
      </trkpt>
      <trkpt lat="50.01174" lon="1.9983">
        <ele>11.3</ele>
        <time>2022-04-12T14:47:37Z</time>
      </trkpt>
      <trkpt lat="50.01174" lon="1.99833">
        <ele>11.3</ele>
        <time>2022-04-12T14:47:39Z</time>
      </trkpt>
      <trkpt lat="50.01174" lon="1.99835">
        <ele>11.3</ele>
        <time>2022-04-12T14:47:40Z</time>
      </trkpt>
      <trkpt lat="50.01174" lon="1.99837">
        <ele>11.3</ele>
        <time>2022-04-12T14:47:41Z</time>
      </trkpt>
      <trkpt lat="50.01174" lon="1.99838">
        <ele>11.3</ele>
        <time>2022-04-12T14:47:42Z</time>
      </trkpt>
      <trkpt lat="50.01175" lon="1.99842">
        <ele>11.3</ele>
        <time>2022-04-12T14:47:43Z</time>
      </trkpt>
      <trkpt lat="50.01175" lon="1.99843">
        <ele>11.3</ele>
        <time>2022-04-12T14:47:44Z</time>
      </trkpt>
      <trkpt lat="50.01175" lon="1.99844">
        <ele>11.3</ele>
        <time>2022-04-12T14:47:45Z</time>
      </trkpt>
      <trkpt lat="50.01175" lon="1.99846">
        <ele>11.3</ele>
        <time>2022-04-12T14:47:46Z</time>
      </trkpt>
      <trkpt lat="50.01175" lon="1.99848">
        <ele>11.3</ele>
        <time>2022-04-12T14:47:48Z</time>
      </trkpt>
      <trkpt lat="50.01175" lon="1.9985">
        <ele>11.3</ele>
        <time>2022-04-12T14:47:49Z</time>
      </trkpt>
      <trkpt lat="50.01175" lon="1.99851">
        <ele>11.3</ele>
        <time>2022-04-12T14:47:50Z</time>
      </trkpt>
      <trkpt lat="50.01175" lon="1.99853">
        <ele>11.3</ele>
        <time>2022-04-12T14:47:51Z</time>
      </trkpt>
      <trkpt lat="50.01175" lon="1.99854">
        <ele>11.3</ele>
        <time>2022-04-12T14:47:52Z</time>
      </trkpt>
      <trkpt lat="50.01175" lon="1.99855">
        <ele>11.3</ele>
        <time>2022-04-12T14:47:53Z</time>
      </trkpt>
      <trkpt lat="50.01176" lon="1.99857">
        <ele>11.3</ele>
        <time>2022-04-12T14:47:55Z</time>
      </trkpt>
      <trkpt lat="50.01176" lon="1.99859">
        <ele>11.3</ele>
        <time>2022-04-12T14:47:56Z</time>
      </trkpt>
      <trkpt lat="50.01176" lon="1.9986">
        <ele>11.3</ele>
        <time>2022-04-12T14:47:57Z</time>
      </trkpt>
      <trkpt lat="50.01176" lon="1.99862">
        <ele>11.3</ele>
        <time>2022-04-12T14:47:58Z</time>
      </trkpt>
      <trkpt lat="50.01176" lon="1.99864">
        <ele>11.3</ele>
        <time>2022-04-12T14:47:59Z</time>
      </trkpt>
      <trkpt lat="50.01176" lon="1.99867">
        <ele>11.2</ele>
        <time>2022-04-12T14:48:01Z</time>
      </trkpt>
      <trkpt lat="50.01176" lon="1.99868">
        <ele>11.2</ele>
        <time>2022-04-12T14:48:02Z</time>
      </trkpt>
      <trkpt lat="50.01176" lon="1.99872">
        <ele>11.2</ele>
        <time>2022-04-12T14:48:03Z</time>
      </trkpt>
      <trkpt lat="50.01176" lon="1.99873">
        <ele>11.2</ele>
        <time>2022-04-12T14:48:04Z</time>
      </trkpt>
      <trkpt lat="50.01176" lon="1.99874">
        <ele>11.2</ele>
        <time>2022-04-12T14:48:05Z</time>
      </trkpt>
      <trkpt lat="50.01176" lon="1.99876">
        <ele>11.2</ele>
        <time>2022-04-12T14:48:06Z</time>
      </trkpt>
      <trkpt lat="50.01176" lon="1.99878">
        <ele>11.2</ele>
        <time>2022-04-12T14:48:07Z</time>
      </trkpt>
      <trkpt lat="50.01177" lon="1.9988">
        <ele>11.2</ele>
        <time>2022-04-12T14:48:08Z</time>
      </trkpt>
      <trkpt lat="50.01177" lon="1.99883">
        <ele>11.2</ele>
        <time>2022-04-12T14:48:09Z</time>
      </trkpt>
      <trkpt lat="50.01177" lon="1.99885">
        <ele>11.2</ele>
        <time>2022-04-12T14:48:11Z</time>
      </trkpt>
      <trkpt lat="50.01177" lon="1.99887">
        <ele>11.2</ele>
        <time>2022-04-12T14:48:12Z</time>
      </trkpt>
      <trkpt lat="50.01177" lon="1.99888">
        <ele>11.2</ele>
        <time>2022-04-12T14:48:13Z</time>
      </trkpt>
      <trkpt lat="50.01177" lon="1.9989">
        <ele>11.2</ele>
        <time>2022-04-12T14:48:14Z</time>
      </trkpt>
      <trkpt lat="50.01178" lon="1.99894">
        <ele>11.1</ele>
        <time>2022-04-12T14:48:15Z</time>
      </trkpt>
      <trkpt lat="50.01178" lon="1.99895">
        <ele>11.1</ele>
        <time>2022-04-12T14:48:17Z</time>
      </trkpt>
      <trkpt lat="50.01179" lon="1.99897">
        <ele>11.1</ele>
        <time>2022-04-12T14:48:18Z</time>
      </trkpt>
      <trkpt lat="50.01179" lon="1.99898">
        <ele>11.1</ele>
        <time>2022-04-12T14:48:19Z</time>
      </trkpt>
      <trkpt lat="50.0118" lon="1.999">
        <ele>11.1</ele>
        <time>2022-04-12T14:48:20Z</time>
      </trkpt>
      <trkpt lat="50.0118" lon="1.99902">
        <ele>11.1</ele>
        <time>2022-04-12T14:48:21Z</time>
      </trkpt>
      <trkpt lat="50.01181" lon="1.99904">
        <ele>11.1</ele>
        <time>2022-04-12T14:48:22Z</time>
      </trkpt>
      <trkpt lat="50.01181" lon="1.99906">
        <ele>11.1</ele>
        <time>2022-04-12T14:48:23Z</time>
      </trkpt>
      <trkpt lat="50.01181" lon="1.99908">
        <ele>11.1</ele>
        <time>2022-04-12T14:48:24Z</time>
      </trkpt>
      <trkpt lat="50.01181" lon="1.9991">
        <ele>11.1</ele>
        <time>2022-04-12T14:48:26Z</time>
      </trkpt>
      <trkpt lat="50.01182" lon="1.99911">
        <ele>11.1</ele>
        <time>2022-04-12T14:48:27Z</time>
      </trkpt>
      <trkpt lat="50.01182" lon="1.99913">
        <ele>11.1</ele>
        <time>2022-04-12T14:48:28Z</time>
      </trkpt>
      <trkpt lat="50.01183" lon="1.99915">
        <ele>11.1</ele>
        <time>2022-04-12T14:48:29Z</time>
      </trkpt>
      <trkpt lat="50.01183" lon="1.99916">
        <ele>11.1</ele>
        <time>2022-04-12T14:48:30Z</time>
      </trkpt>
      <trkpt lat="50.01183" lon="1.99917">
        <ele>11.1</ele>
        <time>2022-04-12T14:48:31Z</time>
      </trkpt>
      <trkpt lat="50.01184" lon="1.99919">
        <ele>11.1</ele>
        <time>2022-04-12T14:48:32Z</time>
      </trkpt>
      <trkpt lat="50.01184" lon="1.9992">
        <ele>11.1</ele>
        <time>2022-04-12T14:48:33Z</time>
      </trkpt>
      <trkpt lat="50.01184" lon="1.99922">
        <ele>11.1</ele>
        <time>2022-04-12T14:48:35Z</time>
      </trkpt>
      <trkpt lat="50.01185" lon="1.99924">
        <ele>11.1</ele>
        <time>2022-04-12T14:48:36Z</time>
      </trkpt>
      <trkpt lat="50.01185" lon="1.99925">
        <ele>11.1</ele>
        <time>2022-04-12T14:48:37Z</time>
      </trkpt>
      <trkpt lat="50.01185" lon="1.99927">
        <ele>11.1</ele>
        <time>2022-04-12T14:48:38Z</time>
      </trkpt>
      <trkpt lat="50.01186" lon="1.99928">
        <ele>11.1</ele>
        <time>2022-04-12T14:48:39Z</time>
      </trkpt>
      <trkpt lat="50.01186" lon="1.9993">
        <ele>11.1</ele>
        <time>2022-04-12T14:48:40Z</time>
      </trkpt>
      <trkpt lat="50.01187" lon="1.99931">
        <ele>11.1</ele>
        <time>2022-04-12T14:48:41Z</time>
      </trkpt>
      <trkpt lat="50.01187" lon="1.99933">
        <ele>11.1</ele>
        <time>2022-04-12T14:48:42Z</time>
      </trkpt>
      <trkpt lat="50.01188" lon="1.99934">
        <ele>11.1</ele>
        <time>2022-04-12T14:48:43Z</time>
      </trkpt>
      <trkpt lat="50.01188" lon="1.99936">
        <ele>11.1</ele>
        <time>2022-04-12T14:48:44Z</time>
      </trkpt>
      <trkpt lat="50.01188" lon="1.99937">
        <ele>11.1</ele>
        <time>2022-04-12T14:48:45Z</time>
      </trkpt>
      <trkpt lat="50.01189" lon="1.99939">
        <ele>11.2</ele>
        <time>2022-04-12T14:48:47Z</time>
      </trkpt>
      <trkpt lat="50.01189" lon="1.99941">
        <ele>11.2</ele>
        <time>2022-04-12T14:48:48Z</time>
      </trkpt>
      <trkpt lat="50.01189" lon="1.99942">
        <ele>11.2</ele>
        <time>2022-04-12T14:48:49Z</time>
      </trkpt>
      <trkpt lat="50.0119" lon="1.99944">
        <ele>11.2</ele>
        <time>2022-04-12T14:48:50Z</time>
      </trkpt>
      <trkpt lat="50.0119" lon="1.99945">
        <ele>11.2</ele>
        <time>2022-04-12T14:48:51Z</time>
      </trkpt>
      <trkpt lat="50.01191" lon="1.99947">
        <ele>11.2</ele>
        <time>2022-04-12T14:48:52Z</time>
      </trkpt>
      <trkpt lat="50.01192" lon="1.99948">
        <ele>11.2</ele>
        <time>2022-04-12T14:48:53Z</time>
      </trkpt>
      <trkpt lat="50.01192" lon="1.9995">
        <ele>11.2</ele>
        <time>2022-04-12T14:48:54Z</time>
      </trkpt>
      <trkpt lat="50.01193" lon="1.99952">
        <ele>11.2</ele>
        <time>2022-04-12T14:48:55Z</time>
      </trkpt>
      <trkpt lat="50.01193" lon="1.99954">
        <ele>11.2</ele>
        <time>2022-04-12T14:48:56Z</time>
      </trkpt>
      <trkpt lat="50.01194" lon="1.99955">
        <ele>11.2</ele>
        <time>2022-04-12T14:48:58Z</time>
      </trkpt>
      <trkpt lat="50.01195" lon="1.99956">
        <ele>11.2</ele>
        <time>2022-04-12T14:48:59Z</time>
      </trkpt>
      <trkpt lat="50.01196" lon="1.99958">
        <ele>11.2</ele>
        <time>2022-04-12T14:49:00Z</time>
      </trkpt>
      <trkpt lat="50.01197" lon="1.99959">
        <ele>11.2</ele>
        <time>2022-04-12T14:49:01Z</time>
      </trkpt>
      <trkpt lat="50.01197" lon="1.9996">
        <ele>11.2</ele>
        <time>2022-04-12T14:49:02Z</time>
      </trkpt>
      <trkpt lat="50.01199" lon="1.99963">
        <ele>11.2</ele>
        <time>2022-04-12T14:49:03Z</time>
      </trkpt>
      <trkpt lat="50.01199" lon="1.99964">
        <ele>11.2</ele>
        <time>2022-04-12T14:49:04Z</time>
      </trkpt>
      <trkpt lat="50.01199" lon="1.99965">
        <ele>11.3</ele>
        <time>2022-04-12T14:49:05Z</time>
      </trkpt>
      <trkpt lat="50.012" lon="1.99968">
        <ele>11.3</ele>
        <time>2022-04-12T14:49:06Z</time>
      </trkpt>
      <trkpt lat="50.012" lon="1.9997">
        <ele>11.3</ele>
        <time>2022-04-12T14:49:07Z</time>
      </trkpt>
      <trkpt lat="50.012" lon="1.99971">
        <ele>11.3</ele>
        <time>2022-04-12T14:49:08Z</time>
      </trkpt>
      <trkpt lat="50.012" lon="1.99974">
        <ele>11.3</ele>
        <time>2022-04-12T14:49:10Z</time>
      </trkpt>
      <trkpt lat="50.012" lon="1.99975">
        <ele>11.3</ele>
        <time>2022-04-12T14:49:11Z</time>
      </trkpt>
      <trkpt lat="50.012" lon="1.99977">
        <ele>11.3</ele>
        <time>2022-04-12T14:49:12Z</time>
      </trkpt>
      <trkpt lat="50.012" lon="1.99979">
        <ele>11.4</ele>
        <time>2022-04-12T14:49:13Z</time>
      </trkpt>
      <trkpt lat="50.01199" lon="1.99981">
        <ele>11.4</ele>
        <time>2022-04-12T14:49:14Z</time>
      </trkpt>
      <trkpt lat="50.01199" lon="1.99985">
        <ele>11.4</ele>
        <time>2022-04-12T14:49:15Z</time>
      </trkpt>
      <trkpt lat="50.01199" lon="1.99986">
        <ele>11.4</ele>
        <time>2022-04-12T14:49:16Z</time>
      </trkpt>
      <trkpt lat="50.01199" lon="1.99988">
        <ele>11.4</ele>
        <time>2022-04-12T14:49:17Z</time>
      </trkpt>
      <trkpt lat="50.01199" lon="1.9999">
        <ele>11.5</ele>
        <time>2022-04-12T14:49:18Z</time>
      </trkpt>
      <trkpt lat="50.01199" lon="1.99992">
        <ele>11.5</ele>
        <time>2022-04-12T14:49:19Z</time>
      </trkpt>
      <trkpt lat="50.01198" lon="1.99996">
        <ele>11.5</ele>
        <time>2022-04-12T14:49:20Z</time>
      </trkpt>
      <trkpt lat="50.01198" lon="1.99998">
        <ele>11.5</ele>
        <time>2022-04-12T14:49:22Z</time>
      </trkpt>
      <trkpt lat="50.01198" lon="1.99999">
        <ele>11.5</ele>
        <time>2022-04-12T14:49:23Z</time>
      </trkpt>
      <trkpt lat="50.01198" lon="2.00001">
        <ele>11.5</ele>
        <time>2022-04-12T14:49:24Z</time>
      </trkpt>
      <trkpt lat="50.01198" lon="2.00002">
        <ele>11.6</ele>
        <time>2022-04-12T14:49:25Z</time>
      </trkpt>
      <trkpt lat="50.01198" lon="2.00006">
        <ele>11.6</ele>
        <time>2022-04-12T14:49:26Z</time>
      </trkpt>
      <trkpt lat="50.01198" lon="2.00007">
        <ele>11.6</ele>
        <time>2022-04-12T14:49:27Z</time>
      </trkpt>
      <trkpt lat="50.01198" lon="2.00008">
        <ele>11.6</ele>
        <time>2022-04-12T14:49:28Z</time>
      </trkpt>
      <trkpt lat="50.01197" lon="2.00012">
        <ele>11.6</ele>
        <time>2022-04-12T14:49:29Z</time>
      </trkpt>
      <trkpt lat="50.01197" lon="2.00013">
        <ele>11.7</ele>
        <time>2022-04-12T14:49:30Z</time>
      </trkpt>
      <trkpt lat="50.01197" lon="2.00014">
        <ele>11.7</ele>
        <time>2022-04-12T14:49:31Z</time>
      </trkpt>
      <trkpt lat="50.01197" lon="2.00016">
        <ele>11.7</ele>
        <time>2022-04-12T14:49:33Z</time>
      </trkpt>
      <trkpt lat="50.01197" lon="2.00018">
        <ele>11.7</ele>
        <time>2022-04-12T14:49:34Z</time>
      </trkpt>
      <trkpt lat="50.01196" lon="2.0002">
        <ele>11.7</ele>
        <time>2022-04-12T14:49:35Z</time>
      </trkpt>
      <trkpt lat="50.01196" lon="2.00021">
        <ele>11.8</ele>
        <time>2022-04-12T14:49:36Z</time>
      </trkpt>
      <trkpt lat="50.01196" lon="2.00023">
        <ele>11.8</ele>
        <time>2022-04-12T14:49:37Z</time>
      </trkpt>
      <trkpt lat="50.01196" lon="2.00025">
        <ele>11.8</ele>
        <time>2022-04-12T14:49:38Z</time>
      </trkpt>
      <trkpt lat="50.01195" lon="2.00026">
        <ele>11.8</ele>
        <time>2022-04-12T14:49:39Z</time>
      </trkpt>
      <trkpt lat="50.01196" lon="2.00028">
        <ele>11.8</ele>
        <time>2022-04-12T14:49:40Z</time>
      </trkpt>
      <trkpt lat="50.01196" lon="2.0003">
        <ele>11.9</ele>
        <time>2022-04-12T14:49:41Z</time>
      </trkpt>
      <trkpt lat="50.01196" lon="2.00033">
        <ele>11.9</ele>
        <time>2022-04-12T14:49:42Z</time>
      </trkpt>
      <trkpt lat="50.01196" lon="2.00034">
        <ele>11.9</ele>
        <time>2022-04-12T14:49:44Z</time>
      </trkpt>
      <trkpt lat="50.01196" lon="2.00036">
        <ele>11.9</ele>
        <time>2022-04-12T14:49:45Z</time>
      </trkpt>
      <trkpt lat="50.01196" lon="2.00039">
        <ele>12</ele>
        <time>2022-04-12T14:49:46Z</time>
      </trkpt>
      <trkpt lat="50.01196" lon="2.0004">
        <ele>12</ele>
        <time>2022-04-12T14:49:47Z</time>
      </trkpt>
      <trkpt lat="50.01196" lon="2.00042">
        <ele>12</ele>
        <time>2022-04-12T14:49:48Z</time>
      </trkpt>
      <trkpt lat="50.01196" lon="2.00043">
        <ele>12</ele>
        <time>2022-04-12T14:49:49Z</time>
      </trkpt>
      <trkpt lat="50.01196" lon="2.00045">
        <ele>12</ele>
        <time>2022-04-12T14:49:50Z</time>
      </trkpt>
      <trkpt lat="50.01197" lon="2.00046">
        <ele>12.1</ele>
        <time>2022-04-12T14:49:51Z</time>
      </trkpt>
      <trkpt lat="50.01197" lon="2.00048">
        <ele>12.1</ele>
        <time>2022-04-12T14:49:52Z</time>
      </trkpt>
      <trkpt lat="50.01197" lon="2.0005">
        <ele>12.1</ele>
        <time>2022-04-12T14:49:53Z</time>
      </trkpt>
      <trkpt lat="50.01197" lon="2.00051">
        <ele>12.1</ele>
        <time>2022-04-12T14:49:55Z</time>
      </trkpt>
      <trkpt lat="50.01197" lon="2.00053">
        <ele>12.1</ele>
        <time>2022-04-12T14:49:56Z</time>
      </trkpt>
      <trkpt lat="50.01197" lon="2.00055">
        <ele>12.1</ele>
        <time>2022-04-12T14:49:57Z</time>
      </trkpt>
      <trkpt lat="50.01197" lon="2.00056">
        <ele>12.1</ele>
        <time>2022-04-12T14:49:58Z</time>
      </trkpt>
      <trkpt lat="50.01198" lon="2.00057">
        <ele>12.2</ele>
        <time>2022-04-12T14:49:59Z</time>
      </trkpt>
      <trkpt lat="50.01199" lon="2.00058">
        <ele>12.2</ele>
        <time>2022-04-12T14:50:00Z</time>
      </trkpt>
      <trkpt lat="50.01199" lon="2.0006">
        <ele>12.2</ele>
        <time>2022-04-12T14:50:01Z</time>
      </trkpt>
      <trkpt lat="50.01198" lon="2.00062">
        <ele>12.2</ele>
        <time>2022-04-12T14:50:02Z</time>
      </trkpt>
      <trkpt lat="50.01198" lon="2.00063">
        <ele>12.2</ele>
        <time>2022-04-12T14:50:04Z</time>
      </trkpt>
      <trkpt lat="50.01197" lon="2.00064">
        <ele>12.3</ele>
        <time>2022-04-12T14:50:05Z</time>
      </trkpt>
      <trkpt lat="50.01197" lon="2.00064">
        <ele>12.3</ele>
        <time>2022-04-12T14:50:06Z</time>
      </trkpt>
      <trkpt lat="50.01196" lon="2.00065">
        <ele>12.3</ele>
        <time>2022-04-12T14:50:07Z</time>
      </trkpt>
      <trkpt lat="50.01195" lon="2.00066">
        <ele>12.3</ele>
        <time>2022-04-12T14:50:08Z</time>
      </trkpt>
      <trkpt lat="50.01195" lon="2.00067">
        <ele>12.3</ele>
        <time>2022-04-12T14:50:09Z</time>
      </trkpt>
      <trkpt lat="50.01194" lon="2.00068">
        <ele>12.3</ele>
        <time>2022-04-12T14:50:10Z</time>
      </trkpt>
      <trkpt lat="50.01193" lon="2.00069">
        <ele>12.3</ele>
        <time>2022-04-12T14:50:11Z</time>
      </trkpt>
      <trkpt lat="50.01193" lon="2.0007">
        <ele>12.3</ele>
        <time>2022-04-12T14:50:13Z</time>
      </trkpt>
      <trkpt lat="50.01192" lon="2.00071">
        <ele>12.3</ele>
        <time>2022-04-12T14:50:14Z</time>
      </trkpt>
      <trkpt lat="50.01192" lon="2.00073">
        <ele>12.3</ele>
        <time>2022-04-12T14:50:15Z</time>
      </trkpt>
      <trkpt lat="50.01191" lon="2.00074">
        <ele>12.3</ele>
        <time>2022-04-12T14:50:16Z</time>
      </trkpt>
      <trkpt lat="50.01191" lon="2.00074">
        <ele>12.3</ele>
        <time>2022-04-12T14:50:17Z</time>
      </trkpt>
      <trkpt lat="50.0119" lon="2.00075">
        <ele>12.3</ele>
        <time>2022-04-12T14:50:18Z</time>
      </trkpt>
      <trkpt lat="50.01189" lon="2.00075">
        <ele>12.3</ele>
        <time>2022-04-12T14:50:19Z</time>
      </trkpt>
      <trkpt lat="50.01187" lon="2.00077">
        <ele>12.3</ele>
        <time>2022-04-12T14:50:20Z</time>
      </trkpt>
      <trkpt lat="50.01186" lon="2.00078">
        <ele>12.3</ele>
        <time>2022-04-12T14:50:21Z</time>
      </trkpt>
      <trkpt lat="50.01186" lon="2.00078">
        <ele>12.3</ele>
        <time>2022-04-12T14:50:22Z</time>
      </trkpt>
      <trkpt lat="50.01185" lon="2.0008">
        <ele>12.4</ele>
        <time>2022-04-12T14:50:24Z</time>
      </trkpt>
      <trkpt lat="50.01184" lon="2.00081">
        <ele>12.4</ele>
        <time>2022-04-12T14:50:25Z</time>
      </trkpt>
      <trkpt lat="50.01183" lon="2.00082">
        <ele>12.4</ele>
        <time>2022-04-12T14:50:26Z</time>
      </trkpt>
      <trkpt lat="50.01183" lon="2.00083">
        <ele>12.4</ele>
        <time>2022-04-12T14:50:27Z</time>
      </trkpt>
      <trkpt lat="50.01182" lon="2.00084">
        <ele>12.4</ele>
        <time>2022-04-12T14:50:28Z</time>
      </trkpt>
      <trkpt lat="50.01181" lon="2.00084">
        <ele>12.4</ele>
        <time>2022-04-12T14:50:29Z</time>
      </trkpt>
      <trkpt lat="50.0118" lon="2.00085">
        <ele>12.4</ele>
        <time>2022-04-12T14:50:30Z</time>
      </trkpt>
      <trkpt lat="50.01179" lon="2.00086">
        <ele>12.4</ele>
        <time>2022-04-12T14:50:32Z</time>
      </trkpt>
      <trkpt lat="50.01178" lon="2.00087">
        <ele>12.4</ele>
        <time>2022-04-12T14:50:33Z</time>
      </trkpt>
      <trkpt lat="50.01178" lon="2.00089">
        <ele>12.4</ele>
        <time>2022-04-12T14:50:34Z</time>
      </trkpt>
      <trkpt lat="50.01177" lon="2.0009">
        <ele>12.4</ele>
        <time>2022-04-12T14:50:35Z</time>
      </trkpt>
      <trkpt lat="50.01177" lon="2.00092">
        <ele>12.4</ele>
        <time>2022-04-12T14:50:36Z</time>
      </trkpt>
      <trkpt lat="50.01176" lon="2.00093">
        <ele>12.4</ele>
        <time>2022-04-12T14:50:37Z</time>
      </trkpt>
      <trkpt lat="50.01175" lon="2.00095">
        <ele>12.4</ele>
        <time>2022-04-12T14:50:38Z</time>
      </trkpt>
      <trkpt lat="50.01175" lon="2.00096">
        <ele>12.4</ele>
        <time>2022-04-12T14:50:39Z</time>
      </trkpt>
      <trkpt lat="50.01174" lon="2.00099">
        <ele>12.5</ele>
        <time>2022-04-12T14:50:41Z</time>
      </trkpt>
      <trkpt lat="50.01173" lon="2.001">
        <ele>12.5</ele>
        <time>2022-04-12T14:50:42Z</time>
      </trkpt>
      <trkpt lat="50.01173" lon="2.00101">
        <ele>12.5</ele>
        <time>2022-04-12T14:50:43Z</time>
      </trkpt>
      <trkpt lat="50.01172" lon="2.00102">
        <ele>12.5</ele>
        <time>2022-04-12T14:50:44Z</time>
      </trkpt>
      <trkpt lat="50.01171" lon="2.00103">
        <ele>12.5</ele>
        <time>2022-04-12T14:50:45Z</time>
      </trkpt>
      <trkpt lat="50.0117" lon="2.00104">
        <ele>12.5</ele>
        <time>2022-04-12T14:50:46Z</time>
      </trkpt>
      <trkpt lat="50.01169" lon="2.00106">
        <ele>12.5</ele>
        <time>2022-04-12T14:50:47Z</time>
      </trkpt>
      <trkpt lat="50.01169" lon="2.00107">
        <ele>12.5</ele>
        <time>2022-04-12T14:50:48Z</time>
      </trkpt>
      <trkpt lat="50.01168" lon="2.00108">
        <ele>12.5</ele>
        <time>2022-04-12T14:50:49Z</time>
      </trkpt>
      <trkpt lat="50.01166" lon="2.00111">
        <ele>12.5</ele>
        <time>2022-04-12T14:50:51Z</time>
      </trkpt>
      <trkpt lat="50.01166" lon="2.00112">
        <ele>12.6</ele>
        <time>2022-04-12T14:50:52Z</time>
      </trkpt>
      <trkpt lat="50.01165" lon="2.00113">
        <ele>12.6</ele>
        <time>2022-04-12T14:50:53Z</time>
      </trkpt>
      <trkpt lat="50.01164" lon="2.00115">
        <ele>12.6</ele>
        <time>2022-04-12T14:50:54Z</time>
      </trkpt>
      <trkpt lat="50.01163" lon="2.00116">
        <ele>12.6</ele>
        <time>2022-04-12T14:50:55Z</time>
      </trkpt>
      <trkpt lat="50.01163" lon="2.00117">
        <ele>12.6</ele>
        <time>2022-04-12T14:50:56Z</time>
      </trkpt>
      <trkpt lat="50.01162" lon="2.00119">
        <ele>12.6</ele>
        <time>2022-04-12T14:50:57Z</time>
      </trkpt>
      <trkpt lat="50.01161" lon="2.00121">
        <ele>12.6</ele>
        <time>2022-04-12T14:50:59Z</time>
      </trkpt>
      <trkpt lat="50.01161" lon="2.00122">
        <ele>12.6</ele>
        <time>2022-04-12T14:51:00Z</time>
      </trkpt>
      <trkpt lat="50.0116" lon="2.00124">
        <ele>12.6</ele>
        <time>2022-04-12T14:51:01Z</time>
      </trkpt>
      <trkpt lat="50.01159" lon="2.00125">
        <ele>12.6</ele>
        <time>2022-04-12T14:51:02Z</time>
      </trkpt>
      <trkpt lat="50.01159" lon="2.00127">
        <ele>12.7</ele>
        <time>2022-04-12T14:51:03Z</time>
      </trkpt>
      <trkpt lat="50.01158" lon="2.0013">
        <ele>12.7</ele>
        <time>2022-04-12T14:51:04Z</time>
      </trkpt>
      <trkpt lat="50.01158" lon="2.00131">
        <ele>12.7</ele>
        <time>2022-04-12T14:51:05Z</time>
      </trkpt>
      <trkpt lat="50.01157" lon="2.00132">
        <ele>12.7</ele>
        <time>2022-04-12T14:51:06Z</time>
      </trkpt>
      <trkpt lat="50.01157" lon="2.00134">
        <ele>12.7</ele>
        <time>2022-04-12T14:51:08Z</time>
      </trkpt>
      <trkpt lat="50.01156" lon="2.00135">
        <ele>12.7</ele>
        <time>2022-04-12T14:51:09Z</time>
      </trkpt>
      <trkpt lat="50.01156" lon="2.00137">
        <ele>12.7</ele>
        <time>2022-04-12T14:51:10Z</time>
      </trkpt>
      <trkpt lat="50.01155" lon="2.00138">
        <ele>12.7</ele>
        <time>2022-04-12T14:51:11Z</time>
      </trkpt>
      <trkpt lat="50.01155" lon="2.0014">
        <ele>12.7</ele>
        <time>2022-04-12T14:51:12Z</time>
      </trkpt>
      <trkpt lat="50.01154" lon="2.00141">
        <ele>12.7</ele>
        <time>2022-04-12T14:51:13Z</time>
      </trkpt>
      <trkpt lat="50.01153" lon="2.00142">
        <ele>12.8</ele>
        <time>2022-04-12T14:51:14Z</time>
      </trkpt>
      <trkpt lat="50.01153" lon="2.00144">
        <ele>12.8</ele>
        <time>2022-04-12T14:51:15Z</time>
      </trkpt>
      <trkpt lat="50.01152" lon="2.00145">
        <ele>12.8</ele>
        <time>2022-04-12T14:51:17Z</time>
      </trkpt>
      <trkpt lat="50.01151" lon="2.00146">
        <ele>12.8</ele>
        <time>2022-04-12T14:51:18Z</time>
      </trkpt>
      <trkpt lat="50.01151" lon="2.00148">
        <ele>12.8</ele>
        <time>2022-04-12T14:51:19Z</time>
      </trkpt>
      <trkpt lat="50.01151" lon="2.00149">
        <ele>12.8</ele>
        <time>2022-04-12T14:51:20Z</time>
      </trkpt>
      <trkpt lat="50.01151" lon="2.00151">
        <ele>12.8</ele>
        <time>2022-04-12T14:51:21Z</time>
      </trkpt>
      <trkpt lat="50.01151" lon="2.00153">
        <ele>12.8</ele>
        <time>2022-04-12T14:51:22Z</time>
      </trkpt>
      <trkpt lat="50.01152" lon="2.00155">
        <ele>12.8</ele>
        <time>2022-04-12T14:51:23Z</time>
      </trkpt>
      <trkpt lat="50.01152" lon="2.00157">
        <ele>12.8</ele>
        <time>2022-04-12T14:51:24Z</time>
      </trkpt>
      <trkpt lat="50.01152" lon="2.00159">
        <ele>12.8</ele>
        <time>2022-04-12T14:51:25Z</time>
      </trkpt>
      <trkpt lat="50.01152" lon="2.00161">
        <ele>12.8</ele>
        <time>2022-04-12T14:51:27Z</time>
      </trkpt>
      <trkpt lat="50.01152" lon="2.00163">
        <ele>12.8</ele>
        <time>2022-04-12T14:51:28Z</time>
      </trkpt>
      <trkpt lat="50.01152" lon="2.00165">
        <ele>12.8</ele>
        <time>2022-04-12T14:51:29Z</time>
      </trkpt>
      <trkpt lat="50.01152" lon="2.00168">
        <ele>12.8</ele>
        <time>2022-04-12T14:51:30Z</time>
      </trkpt>
      <trkpt lat="50.01153" lon="2.0017">
        <ele>12.8</ele>
        <time>2022-04-12T14:51:31Z</time>
      </trkpt>
      <trkpt lat="50.01153" lon="2.00173">
        <ele>12.8</ele>
        <time>2022-04-12T14:51:32Z</time>
      </trkpt>
      <trkpt lat="50.01153" lon="2.00174">
        <ele>12.8</ele>
        <time>2022-04-12T14:51:33Z</time>
      </trkpt>
      <trkpt lat="50.01153" lon="2.00176">
        <ele>12.8</ele>
        <time>2022-04-12T14:51:34Z</time>
      </trkpt>
      <trkpt lat="50.01154" lon="2.00178">
        <ele>12.8</ele>
        <time>2022-04-12T14:51:36Z</time>
      </trkpt>
      <trkpt lat="50.01154" lon="2.0018">
        <ele>12.8</ele>
        <time>2022-04-12T14:51:37Z</time>
      </trkpt>
      <trkpt lat="50.01155" lon="2.00183">
        <ele>12.8</ele>
        <time>2022-04-12T14:51:38Z</time>
      </trkpt>
      <trkpt lat="50.01155" lon="2.00185">
        <ele>12.8</ele>
        <time>2022-04-12T14:51:39Z</time>
      </trkpt>
      <trkpt lat="50.01155" lon="2.00186">
        <ele>12.8</ele>
        <time>2022-04-12T14:51:40Z</time>
      </trkpt>
      <trkpt lat="50.01155" lon="2.00188">
        <ele>12.8</ele>
        <time>2022-04-12T14:51:41Z</time>
      </trkpt>
      <trkpt lat="50.01155" lon="2.0019">
        <ele>12.8</ele>
        <time>2022-04-12T14:51:42Z</time>
      </trkpt>
      <trkpt lat="50.01155" lon="2.00193">
        <ele>12.8</ele>
        <time>2022-04-12T14:51:43Z</time>
      </trkpt>
      <trkpt lat="50.01155" lon="2.00195">
        <ele>12.8</ele>
        <time>2022-04-12T14:51:45Z</time>
      </trkpt>
      <trkpt lat="50.01156" lon="2.00196">
        <ele>12.8</ele>
        <time>2022-04-12T14:51:46Z</time>
      </trkpt>
      <trkpt lat="50.01156" lon="2.00198">
        <ele>12.8</ele>
        <time>2022-04-12T14:51:47Z</time>
      </trkpt>
      <trkpt lat="50.01156" lon="2.00199">
        <ele>12.8</ele>
        <time>2022-04-12T14:51:48Z</time>
      </trkpt>
      <trkpt lat="50.01155" lon="2.002">
        <ele>12.8</ele>
        <time>2022-04-12T14:51:49Z</time>
      </trkpt>
      <trkpt lat="50.01155" lon="2.00202">
        <ele>12.8</ele>
        <time>2022-04-12T14:51:50Z</time>
      </trkpt>
      <trkpt lat="50.01155" lon="2.00204">
        <ele>12.8</ele>
        <time>2022-04-12T14:51:52Z</time>
      </trkpt>
      <trkpt lat="50.01156" lon="2.00205">
        <ele>12.8</ele>
        <time>2022-04-12T14:51:53Z</time>
      </trkpt>
      <trkpt lat="50.01156" lon="2.00207">
        <ele>12.8</ele>
        <time>2022-04-12T14:51:54Z</time>
      </trkpt>
      <trkpt lat="50.01156" lon="2.00208">
        <ele>12.8</ele>
        <time>2022-04-12T14:51:55Z</time>
      </trkpt>
      <trkpt lat="50.01156" lon="2.00209">
        <ele>12.8</ele>
        <time>2022-04-12T14:51:56Z</time>
      </trkpt>
      <trkpt lat="50.01156" lon="2.00211">
        <ele>12.8</ele>
        <time>2022-04-12T14:51:57Z</time>
      </trkpt>
      <trkpt lat="50.01156" lon="2.00212">
        <ele>12.8</ele>
        <time>2022-04-12T14:51:58Z</time>
      </trkpt>
      <trkpt lat="50.01156" lon="2.00214">
        <ele>12.8</ele>
        <time>2022-04-12T14:51:59Z</time>
      </trkpt>
      <trkpt lat="50.01157" lon="2.00216">
        <ele>12.8</ele>
        <time>2022-04-12T14:52:01Z</time>
      </trkpt>
      <trkpt lat="50.01157" lon="2.00218">
        <ele>12.8</ele>
        <time>2022-04-12T14:52:02Z</time>
      </trkpt>
      <trkpt lat="50.01157" lon="2.00219">
        <ele>12.8</ele>
        <time>2022-04-12T14:52:03Z</time>
      </trkpt>
      <trkpt lat="50.01157" lon="2.00221">
        <ele>12.8</ele>
        <time>2022-04-12T14:52:04Z</time>
      </trkpt>
      <trkpt lat="50.01158" lon="2.00222">
        <ele>12.8</ele>
        <time>2022-04-12T14:52:05Z</time>
      </trkpt>
      <trkpt lat="50.01158" lon="2.00224">
        <ele>12.8</ele>
        <time>2022-04-12T14:52:06Z</time>
      </trkpt>
      <trkpt lat="50.01159" lon="2.00225">
        <ele>12.8</ele>
        <time>2022-04-12T14:52:07Z</time>
      </trkpt>
      <trkpt lat="50.01159" lon="2.00227">
        <ele>12.8</ele>
        <time>2022-04-12T14:52:09Z</time>
      </trkpt>
      <trkpt lat="50.0116" lon="2.00228">
        <ele>12.8</ele>
        <time>2022-04-12T14:52:10Z</time>
      </trkpt>
      <trkpt lat="50.0116" lon="2.00229">
        <ele>12.7</ele>
        <time>2022-04-12T14:52:11Z</time>
      </trkpt>
      <trkpt lat="50.0116" lon="2.00231">
        <ele>12.7</ele>
        <time>2022-04-12T14:52:12Z</time>
      </trkpt>
      <trkpt lat="50.0116" lon="2.00232">
        <ele>12.7</ele>
        <time>2022-04-12T14:52:13Z</time>
      </trkpt>
      <trkpt lat="50.0116" lon="2.00234">
        <ele>12.7</ele>
        <time>2022-04-12T14:52:14Z</time>
      </trkpt>
      <trkpt lat="50.0116" lon="2.00236">
        <ele>12.7</ele>
        <time>2022-04-12T14:52:15Z</time>
      </trkpt>
      <trkpt lat="50.0116" lon="2.00237">
        <ele>12.7</ele>
        <time>2022-04-12T14:52:17Z</time>
      </trkpt>
      <trkpt lat="50.0116" lon="2.00239">
        <ele>12.7</ele>
        <time>2022-04-12T14:52:18Z</time>
      </trkpt>
      <trkpt lat="50.0116" lon="2.00241">
        <ele>12.7</ele>
        <time>2022-04-12T14:52:19Z</time>
      </trkpt>
      <trkpt lat="50.01159" lon="2.00242">
        <ele>12.7</ele>
        <time>2022-04-12T14:52:20Z</time>
      </trkpt>
      <trkpt lat="50.01159" lon="2.00244">
        <ele>12.7</ele>
        <time>2022-04-12T14:52:21Z</time>
      </trkpt>
      <trkpt lat="50.01159" lon="2.00245">
        <ele>12.7</ele>
        <time>2022-04-12T14:52:22Z</time>
      </trkpt>
      <trkpt lat="50.01158" lon="2.00246">
        <ele>12.7</ele>
        <time>2022-04-12T14:52:23Z</time>
      </trkpt>
      <trkpt lat="50.01157" lon="2.00248">
        <ele>12.7</ele>
        <time>2022-04-12T14:52:25Z</time>
      </trkpt>
      <trkpt lat="50.01157" lon="2.00249">
        <ele>12.7</ele>
        <time>2022-04-12T14:52:26Z</time>
      </trkpt>
      <trkpt lat="50.01156" lon="2.0025">
        <ele>12.7</ele>
        <time>2022-04-12T14:52:27Z</time>
      </trkpt>
      <trkpt lat="50.01156" lon="2.00251">
        <ele>12.7</ele>
        <time>2022-04-12T14:52:28Z</time>
      </trkpt>
      <trkpt lat="50.01155" lon="2.00253">
        <ele>12.7</ele>
        <time>2022-04-12T14:52:29Z</time>
      </trkpt>
      <trkpt lat="50.01154" lon="2.00254">
        <ele>12.7</ele>
        <time>2022-04-12T14:52:30Z</time>
      </trkpt>
      <trkpt lat="50.01153" lon="2.00255">
        <ele>12.7</ele>
        <time>2022-04-12T14:52:32Z</time>
      </trkpt>
      <trkpt lat="50.01153" lon="2.00256">
        <ele>12.7</ele>
        <time>2022-04-12T14:52:33Z</time>
      </trkpt>
      <trkpt lat="50.01152" lon="2.00257">
        <ele>12.7</ele>
        <time>2022-04-12T14:52:34Z</time>
      </trkpt>
      <trkpt lat="50.01152" lon="2.00257">
        <ele>12.7</ele>
        <time>2022-04-12T14:52:35Z</time>
      </trkpt>
      <trkpt lat="50.01152" lon="2.00258">
        <ele>12.7</ele>
        <time>2022-04-12T14:52:36Z</time>
      </trkpt>
      <trkpt lat="50.01153" lon="2.00258">
        <ele>12.7</ele>
        <time>2022-04-12T14:52:37Z</time>
      </trkpt>
      <trkpt lat="50.01153" lon="2.00257">
        <ele>12.7</ele>
        <time>2022-04-12T14:52:38Z</time>
      </trkpt>
      <trkpt lat="50.01154" lon="2.00255">
        <ele>12.7</ele>
        <time>2022-04-12T14:52:39Z</time>
      </trkpt>
      <trkpt lat="50.01156" lon="2.00254">
        <ele>12.7</ele>
        <time>2022-04-12T14:52:41Z</time>
      </trkpt>
      <trkpt lat="50.01157" lon="2.00254">
        <ele>12.7</ele>
        <time>2022-04-12T14:52:42Z</time>
      </trkpt>
      <trkpt lat="50.01158" lon="2.00254">
        <ele>12.7</ele>
        <time>2022-04-12T14:52:43Z</time>
      </trkpt>
      <trkpt lat="50.01158" lon="2.00255">
        <ele>12.7</ele>
        <time>2022-04-12T14:52:44Z</time>
      </trkpt>
      <trkpt lat="50.01159" lon="2.00256">
        <ele>12.7</ele>
        <time>2022-04-12T14:52:45Z</time>
      </trkpt>
      <trkpt lat="50.01158" lon="2.00257">
        <ele>12.7</ele>
        <time>2022-04-12T14:52:46Z</time>
      </trkpt>
      <trkpt lat="50.01158" lon="2.00259">
        <ele>12.7</ele>
        <time>2022-04-12T14:52:47Z</time>
      </trkpt>
      <trkpt lat="50.01158" lon="2.0026">
        <ele>12.7</ele>
        <time>2022-04-12T14:52:48Z</time>
      </trkpt>
      <trkpt lat="50.01157" lon="2.0026">
        <ele>12.7</ele>
        <time>2022-04-12T14:52:49Z</time>
      </trkpt>
      <trkpt lat="50.01157" lon="2.00261">
        <ele>12.7</ele>
        <time>2022-04-12T14:52:50Z</time>
      </trkpt>
      <trkpt lat="50.01157" lon="2.00261">
        <ele>12.7</ele>
        <time>2022-04-12T14:52:51Z</time>
      </trkpt>
      <trkpt lat="50.01157" lon="2.00261">
        <ele>12.7</ele>
        <time>2022-04-12T14:52:52Z</time>
      </trkpt>
      <trkpt lat="50.01157" lon="2.00261">
        <ele>12.7</ele>
        <time>2022-04-12T14:52:53Z</time>
      </trkpt>
      <trkpt lat="50.01157" lon="2.00261">
        <ele>12.7</ele>
        <time>2022-04-12T14:52:54Z</time>
      </trkpt>
      <trkpt lat="50.01157" lon="2.0026">
        <ele>12.7</ele>
        <time>2022-04-12T14:52:55Z</time>
      </trkpt>
      <trkpt lat="50.01157" lon="2.0026">
        <ele>12.7</ele>
        <time>2022-04-12T14:52:56Z</time>
      </trkpt>
      <trkpt lat="50.01157" lon="2.0026">
        <ele>12.7</ele>
        <time>2022-04-12T14:52:57Z</time>
      </trkpt>
      <trkpt lat="50.01157" lon="2.00261">
        <ele>12.7</ele>
        <time>2022-04-12T14:52:58Z</time>
      </trkpt>
      <trkpt lat="50.01157" lon="2.00261">
        <ele>12.7</ele>
        <time>2022-04-12T14:52:59Z</time>
      </trkpt>
      <trkpt lat="50.01157" lon="2.00261">
        <ele>12.7</ele>
        <time>2022-04-12T14:53:00Z</time>
      </trkpt>
      <trkpt lat="50.01157" lon="2.00261">
        <ele>12.7</ele>
        <time>2022-04-12T14:53:01Z</time>
      </trkpt>
      <trkpt lat="50.01157" lon="2.00261">
        <ele>12.7</ele>
        <time>2022-04-12T14:53:02Z</time>
      </trkpt>
      <trkpt lat="50.01157" lon="2.00261">
        <ele>12.7</ele>
        <time>2022-04-12T14:53:03Z</time>
      </trkpt>
      <trkpt lat="50.01157" lon="2.0026">
        <ele>12.7</ele>
        <time>2022-04-12T14:53:04Z</time>
      </trkpt>
      <trkpt lat="50.01157" lon="2.0026">
        <ele>12.7</ele>
        <time>2022-04-12T14:53:05Z</time>
      </trkpt>
      <trkpt lat="50.01157" lon="2.0026">
        <ele>12.7</ele>
        <time>2022-04-12T14:53:06Z</time>
      </trkpt>
      <trkpt lat="50.01157" lon="2.0026">
        <ele>12.7</ele>
        <time>2022-04-12T14:53:07Z</time>
      </trkpt>
      <trkpt lat="50.01157" lon="2.0026">
        <ele>12.7</ele>
        <time>2022-04-12T14:53:08Z</time>
      </trkpt>
      <trkpt lat="50.01157" lon="2.0026">
        <ele>12.7</ele>
        <time>2022-04-12T14:53:09Z</time>
      </trkpt>
      <trkpt lat="50.01157" lon="2.0026">
        <ele>12.7</ele>
        <time>2022-04-12T14:53:10Z</time>
      </trkpt>
      <trkpt lat="50.01157" lon="2.0026">
        <ele>12.7</ele>
        <time>2022-04-12T14:53:11Z</time>
      </trkpt>
      <trkpt lat="50.01157" lon="2.0026">
        <ele>12.7</ele>
        <time>2022-04-12T14:53:12Z</time>
      </trkpt>
      <trkpt lat="50.01157" lon="2.0026">
        <ele>12.7</ele>
        <time>2022-04-12T14:53:13Z</time>
      </trkpt>
      <trkpt lat="50.01157" lon="2.0026">
        <ele>12.7</ele>
        <time>2022-04-12T14:53:14Z</time>
      </trkpt>
      <trkpt lat="50.01157" lon="2.0026">
        <ele>12.7</ele>
        <time>2022-04-12T14:53:15Z</time>
      </trkpt>
      <trkpt lat="50.01157" lon="2.0026">
        <ele>12.7</ele>
        <time>2022-04-12T14:53:16Z</time>
      </trkpt>
      <trkpt lat="50.01157" lon="2.0026">
        <ele>12.7</ele>
        <time>2022-04-12T14:53:17Z</time>
      </trkpt>
      <trkpt lat="50.01157" lon="2.0026">
        <ele>12.7</ele>
        <time>2022-04-12T14:53:18Z</time>
      </trkpt>
      <trkpt lat="50.01157" lon="2.0026">
        <ele>12.7</ele>
        <time>2022-04-12T14:53:19Z</time>
      </trkpt>
      <trkpt lat="50.01157" lon="2.0026">
        <ele>12.7</ele>
        <time>2022-04-12T14:53:20Z</time>
      </trkpt>
      <trkpt lat="50.01157" lon="2.0026">
        <ele>12.7</ele>
        <time>2022-04-12T14:53:21Z</time>
      </trkpt>
      <trkpt lat="50.01157" lon="2.0026">
        <ele>12.7</ele>
        <time>2022-04-12T14:53:22Z</time>
      </trkpt>
      <trkpt lat="50.01157" lon="2.0026">
        <ele>12.7</ele>
        <time>2022-04-12T14:53:23Z</time>
      </trkpt>
      <trkpt lat="50.01157" lon="2.0026">
        <ele>12.7</ele>
        <time>2022-04-12T14:53:24Z</time>
      </trkpt>
      <trkpt lat="50.01157" lon="2.0026">
        <ele>12.7</ele>
        <time>2022-04-12T14:53:25Z</time>
      </trkpt>
      <trkpt lat="50.01157" lon="2.0026">
        <ele>12.7</ele>
        <time>2022-04-12T14:53:26Z</time>
      </trkpt>
      <trkpt lat="50.01157" lon="2.0026">
        <ele>12.7</ele>
        <time>2022-04-12T14:53:27Z</time>
      </trkpt>
      <trkpt lat="50.01157" lon="2.0026">
        <ele>12.7</ele>
        <time>2022-04-12T14:53:28Z</time>
      </trkpt>
      <trkpt lat="50.01157" lon="2.0026">
        <ele>12.7</ele>
        <time>2022-04-12T14:53:29Z</time>
      </trkpt>
      <trkpt lat="50.01157" lon="2.0026">
        <ele>12.7</ele>
        <time>2022-04-12T14:53:30Z</time>
      </trkpt>
      <trkpt lat="50.01157" lon="2.0026">
        <ele>12.7</ele>
        <time>2022-04-12T14:53:31Z</time>
      </trkpt>
      <trkpt lat="50.01157" lon="2.0026">
        <ele>12.7</ele>
        <time>2022-04-12T14:53:32Z</time>
      </trkpt>
      <trkpt lat="50.01157" lon="2.0026">
        <ele>12.7</ele>
        <time>2022-04-12T14:53:33Z</time>
      </trkpt>
      <trkpt lat="50.01157" lon="2.0026">
        <ele>12.7</ele>
        <time>2022-04-12T14:53:34Z</time>
      </trkpt>
      <trkpt lat="50.01157" lon="2.0026">
        <ele>12.7</ele>
        <time>2022-04-12T14:53:35Z</time>
      </trkpt>
      <trkpt lat="50.01157" lon="2.0026">
        <ele>12.7</ele>
        <time>2022-04-12T14:53:36Z</time>
      </trkpt>
      <trkpt lat="50.01157" lon="2.0026">
        <ele>12.7</ele>
        <time>2022-04-12T14:53:37Z</time>
      </trkpt>
      <trkpt lat="50.01157" lon="2.0026">
        <ele>12.7</ele>
        <time>2022-04-12T14:53:38Z</time>
      </trkpt>
      <trkpt lat="50.01157" lon="2.00255">
        <ele>12.7</ele>
        <time>2022-04-12T14:53:39Z</time>
      </trkpt>
      <trkpt lat="50.01158" lon="2.00251">
        <ele>12.7</ele>
        <time>2022-04-12T14:53:40Z</time>
      </trkpt>
      <trkpt lat="50.01159" lon="2.0025">
        <ele>12.7</ele>
        <time>2022-04-12T14:53:41Z</time>
      </trkpt>
      <trkpt lat="50.0116" lon="2.00249">
        <ele>12.7</ele>
        <time>2022-04-12T14:53:42Z</time>
      </trkpt>
      <trkpt lat="50.0116" lon="2.00248">
        <ele>12.7</ele>
        <time>2022-04-12T14:53:43Z</time>
      </trkpt>
      <trkpt lat="50.01161" lon="2.00248">
        <ele>12.7</ele>
        <time>2022-04-12T14:53:44Z</time>
      </trkpt>
      <trkpt lat="50.01161" lon="2.00249">
        <ele>12.7</ele>
        <time>2022-04-12T14:53:45Z</time>
      </trkpt>
      <trkpt lat="50.01161" lon="2.00249">
        <ele>12.7</ele>
        <time>2022-04-12T14:53:46Z</time>
      </trkpt>
      <trkpt lat="50.01161" lon="2.00249">
        <ele>12.7</ele>
        <time>2022-04-12T14:53:47Z</time>
      </trkpt>
      <trkpt lat="50.01161" lon="2.00249">
        <ele>12.7</ele>
        <time>2022-04-12T14:53:48Z</time>
      </trkpt>
      <trkpt lat="50.01161" lon="2.00249">
        <ele>12.7</ele>
        <time>2022-04-12T14:53:49Z</time>
      </trkpt>
      <trkpt lat="50.0116" lon="2.00249">
        <ele>12.7</ele>
        <time>2022-04-12T14:53:51Z</time>
      </trkpt>
      <trkpt lat="50.01158" lon="2.0025">
        <ele>12.7</ele>
        <time>2022-04-12T14:53:53Z</time>
      </trkpt>
      <trkpt lat="50.01157" lon="2.0025">
        <ele>12.7</ele>
        <time>2022-04-12T14:53:54Z</time>
      </trkpt>
      <trkpt lat="50.01157" lon="2.00251">
        <ele>12.7</ele>
        <time>2022-04-12T14:53:55Z</time>
      </trkpt>
      <trkpt lat="50.01157" lon="2.00251">
        <ele>12.7</ele>
        <time>2022-04-12T14:53:56Z</time>
      </trkpt>
      <trkpt lat="50.01157" lon="2.00251">
        <ele>12.7</ele>
        <time>2022-04-12T14:53:57Z</time>
      </trkpt>
      <trkpt lat="50.01157" lon="2.00251">
        <ele>12.7</ele>
        <time>2022-04-12T14:53:58Z</time>
      </trkpt>
      <trkpt lat="50.01157" lon="2.00251">
        <ele>12.7</ele>
        <time>2022-04-12T14:53:59Z</time>
      </trkpt>
      <trkpt lat="50.01157" lon="2.00251">
        <ele>12.7</ele>
        <time>2022-04-12T14:54:00Z</time>
      </trkpt>
      <trkpt lat="50.01157" lon="2.00251">
        <ele>12.7</ele>
        <time>2022-04-12T14:54:01Z</time>
      </trkpt>
      <trkpt lat="50.01157" lon="2.00251">
        <ele>12.7</ele>
        <time>2022-04-12T14:54:02Z</time>
      </trkpt>
      <trkpt lat="50.01157" lon="2.00251">
        <ele>12.7</ele>
        <time>2022-04-12T14:54:03Z</time>
      </trkpt>
      <trkpt lat="50.01157" lon="2.00251">
        <ele>12.7</ele>
        <time>2022-04-12T14:54:04Z</time>
      </trkpt>
      <trkpt lat="50.01157" lon="2.00251">
        <ele>12.7</ele>
        <time>2022-04-12T14:54:05Z</time>
      </trkpt>
      <trkpt lat="50.01157" lon="2.00251">
        <ele>12.7</ele>
        <time>2022-04-12T14:54:06Z</time>
      </trkpt>
      <trkpt lat="50.01157" lon="2.00251">
        <ele>12.7</ele>
        <time>2022-04-12T14:54:07Z</time>
      </trkpt>
      <trkpt lat="50.01157" lon="2.00251">
        <ele>12.7</ele>
        <time>2022-04-12T14:54:08Z</time>
      </trkpt>
      <trkpt lat="50.01157" lon="2.00251">
        <ele>12.7</ele>
        <time>2022-04-12T14:54:09Z</time>
      </trkpt>
      <trkpt lat="50.01157" lon="2.00251">
        <ele>12.7</ele>
        <time>2022-04-12T14:54:10Z</time>
      </trkpt>
      <trkpt lat="50.01157" lon="2.00251">
        <ele>12.7</ele>
        <time>2022-04-12T14:54:11Z</time>
      </trkpt>
      <trkpt lat="50.01158" lon="2.00251">
        <ele>12.7</ele>
        <time>2022-04-12T14:54:12Z</time>
      </trkpt>
      <trkpt lat="50.01158" lon="2.00251">
        <ele>12.7</ele>
        <time>2022-04-12T14:54:13Z</time>
      </trkpt>
      <trkpt lat="50.01158" lon="2.00251">
        <ele>12.7</ele>
        <time>2022-04-12T14:54:14Z</time>
      </trkpt>
      <trkpt lat="50.01158" lon="2.00251">
        <ele>12.7</ele>
        <time>2022-04-12T14:54:15Z</time>
      </trkpt>
      <trkpt lat="50.01158" lon="2.00251">
        <ele>12.7</ele>
        <time>2022-04-12T14:54:16Z</time>
      </trkpt>
      <trkpt lat="50.01158" lon="2.00251">
        <ele>12.7</ele>
        <time>2022-04-12T14:54:17Z</time>
      </trkpt>
      <trkpt lat="50.01158" lon="2.00251">
        <ele>12.7</ele>
        <time>2022-04-12T14:54:18Z</time>
      </trkpt>
      <trkpt lat="50.01158" lon="2.00251">
        <ele>12.7</ele>
        <time>2022-04-12T14:54:19Z</time>
      </trkpt>
      <trkpt lat="50.01158" lon="2.00251">
        <ele>12.7</ele>
        <time>2022-04-12T14:54:20Z</time>
      </trkpt>
      <trkpt lat="50.01158" lon="2.00251">
        <ele>12.7</ele>
        <time>2022-04-12T14:54:21Z</time>
      </trkpt>
      <trkpt lat="50.01158" lon="2.00251">
        <ele>12.7</ele>
        <time>2022-04-12T14:54:22Z</time>
      </trkpt>
      <trkpt lat="50.01158" lon="2.00251">
        <ele>12.7</ele>
        <time>2022-04-12T14:54:23Z</time>
      </trkpt>
      <trkpt lat="50.01158" lon="2.00251">
        <ele>12.7</ele>
        <time>2022-04-12T14:54:24Z</time>
      </trkpt>
      <trkpt lat="50.01158" lon="2.00251">
        <ele>12.7</ele>
        <time>2022-04-12T14:54:25Z</time>
      </trkpt>
      <trkpt lat="50.01158" lon="2.00251">
        <ele>12.7</ele>
        <time>2022-04-12T14:54:26Z</time>
      </trkpt>
      <trkpt lat="50.01158" lon="2.00251">
        <ele>12.7</ele>
        <time>2022-04-12T14:54:27Z</time>
      </trkpt>
      <trkpt lat="50.01158" lon="2.00251">
        <ele>12.7</ele>
        <time>2022-04-12T14:54:28Z</time>
      </trkpt>
      <trkpt lat="50.01158" lon="2.00251">
        <ele>12.7</ele>
        <time>2022-04-12T14:54:29Z</time>
      </trkpt>
      <trkpt lat="50.01158" lon="2.00251">
        <ele>12.7</ele>
        <time>2022-04-12T14:54:30Z</time>
      </trkpt>
      <trkpt lat="50.01158" lon="2.00251">
        <ele>12.7</ele>
        <time>2022-04-12T14:54:31Z</time>
      </trkpt>
      <trkpt lat="50.01158" lon="2.00251">
        <ele>12.7</ele>
        <time>2022-04-12T14:54:32Z</time>
      </trkpt>
      <trkpt lat="50.01158" lon="2.00251">
        <ele>12.7</ele>
        <time>2022-04-12T14:54:33Z</time>
      </trkpt>
      <trkpt lat="50.01159" lon="2.00251">
        <ele>12.7</ele>
        <time>2022-04-12T14:54:34Z</time>
      </trkpt>
      <trkpt lat="50.01159" lon="2.00251">
        <ele>12.7</ele>
        <time>2022-04-12T14:54:35Z</time>
      </trkpt>
      <trkpt lat="50.01159" lon="2.00251">
        <ele>12.7</ele>
        <time>2022-04-12T14:54:36Z</time>
      </trkpt>
      <trkpt lat="50.01159" lon="2.00251">
        <ele>12.7</ele>
        <time>2022-04-12T14:54:37Z</time>
      </trkpt>
      <trkpt lat="50.01159" lon="2.00251">
        <ele>12.7</ele>
        <time>2022-04-12T14:54:38Z</time>
      </trkpt>
      <trkpt lat="50.01159" lon="2.00251">
        <ele>12.7</ele>
        <time>2022-04-12T14:54:39Z</time>
      </trkpt>
      <trkpt lat="50.01159" lon="2.00251">
        <ele>12.7</ele>
        <time>2022-04-12T14:54:40Z</time>
      </trkpt>
      <trkpt lat="50.01159" lon="2.00251">
        <ele>12.7</ele>
        <time>2022-04-12T14:54:41Z</time>
      </trkpt>
      <trkpt lat="50.01159" lon="2.00251">
        <ele>12.7</ele>
        <time>2022-04-12T14:54:42Z</time>
      </trkpt>
      <trkpt lat="50.01159" lon="2.00251">
        <ele>12.7</ele>
        <time>2022-04-12T14:54:43Z</time>
      </trkpt>
      <trkpt lat="50.01159" lon="2.00251">
        <ele>12.7</ele>
        <time>2022-04-12T14:54:44Z</time>
      </trkpt>
      <trkpt lat="50.01159" lon="2.00251">
        <ele>12.7</ele>
        <time>2022-04-12T14:54:45Z</time>
      </trkpt>
      <trkpt lat="50.01159" lon="2.00251">
        <ele>12.7</ele>
        <time>2022-04-12T14:54:46Z</time>
      </trkpt>
      <trkpt lat="50.01159" lon="2.00251">
        <ele>12.7</ele>
        <time>2022-04-12T14:54:47Z</time>
      </trkpt>
      <trkpt lat="50.01159" lon="2.00251">
        <ele>12.7</ele>
        <time>2022-04-12T14:54:48Z</time>
      </trkpt>
      <trkpt lat="50.01159" lon="2.00251">
        <ele>12.7</ele>
        <time>2022-04-12T14:54:49Z</time>
      </trkpt>
      <trkpt lat="50.01159" lon="2.00251">
        <ele>12.7</ele>
        <time>2022-04-12T14:54:50Z</time>
      </trkpt>
      <trkpt lat="50.01159" lon="2.00251">
        <ele>12.7</ele>
        <time>2022-04-12T14:54:51Z</time>
      </trkpt>
      <trkpt lat="50.01159" lon="2.00251">
        <ele>12.7</ele>
        <time>2022-04-12T14:54:52Z</time>
      </trkpt>
      <trkpt lat="50.01159" lon="2.00251">
        <ele>12.7</ele>
        <time>2022-04-12T14:54:53Z</time>
      </trkpt>
      <trkpt lat="50.01159" lon="2.00251">
        <ele>12.7</ele>
        <time>2022-04-12T14:54:54Z</time>
      </trkpt>
      <trkpt lat="50.01159" lon="2.00251">
        <ele>12.7</ele>
        <time>2022-04-12T14:54:55Z</time>
      </trkpt>
      <trkpt lat="50.0116" lon="2.00251">
        <ele>12.7</ele>
        <time>2022-04-12T14:54:56Z</time>
      </trkpt>
      <trkpt lat="50.0116" lon="2.00251">
        <ele>12.7</ele>
        <time>2022-04-12T14:54:57Z</time>
      </trkpt>
      <trkpt lat="50.0116" lon="2.00251">
        <ele>12.7</ele>
        <time>2022-04-12T14:54:58Z</time>
      </trkpt>
      <trkpt lat="50.0116" lon="2.00251">
        <ele>12.7</ele>
        <time>2022-04-12T14:54:59Z</time>
      </trkpt>
      <trkpt lat="50.0116" lon="2.00251">
        <ele>12.7</ele>
        <time>2022-04-12T14:55:00Z</time>
      </trkpt>
      <trkpt lat="50.0116" lon="2.00251">
        <ele>12.7</ele>
        <time>2022-04-12T14:55:01Z</time>
      </trkpt>
      <trkpt lat="50.0116" lon="2.00251">
        <ele>12.7</ele>
        <time>2022-04-12T14:55:02Z</time>
      </trkpt>
      <trkpt lat="50.0116" lon="2.00251">
        <ele>12.7</ele>
        <time>2022-04-12T14:55:03Z</time>
      </trkpt>
      <trkpt lat="50.0116" lon="2.00251">
        <ele>12.7</ele>
        <time>2022-04-12T14:55:04Z</time>
      </trkpt>
      <trkpt lat="50.0116" lon="2.00251">
        <ele>12.7</ele>
        <time>2022-04-12T14:55:05Z</time>
      </trkpt>
      <trkpt lat="50.0116" lon="2.00251">
        <ele>12.7</ele>
        <time>2022-04-12T14:55:06Z</time>
      </trkpt>
      <trkpt lat="50.0116" lon="2.00251">
        <ele>12.7</ele>
        <time>2022-04-12T14:55:07Z</time>
      </trkpt>
      <trkpt lat="50.0116" lon="2.00251">
        <ele>12.7</ele>
        <time>2022-04-12T14:55:08Z</time>
      </trkpt>
      <trkpt lat="50.0116" lon="2.00251">
        <ele>12.7</ele>
        <time>2022-04-12T14:55:09Z</time>
      </trkpt>
      <trkpt lat="50.0116" lon="2.00251">
        <ele>12.7</ele>
        <time>2022-04-12T14:55:10Z</time>
      </trkpt>
      <trkpt lat="50.0116" lon="2.00251">
        <ele>12.7</ele>
        <time>2022-04-12T14:55:11Z</time>
      </trkpt>
      <trkpt lat="50.0116" lon="2.00251">
        <ele>12.7</ele>
        <time>2022-04-12T14:55:12Z</time>
      </trkpt>
      <trkpt lat="50.0116" lon="2.00251">
        <ele>12.7</ele>
        <time>2022-04-12T14:55:13Z</time>
      </trkpt>
      <trkpt lat="50.0116" lon="2.00251">
        <ele>12.7</ele>
        <time>2022-04-12T14:55:14Z</time>
      </trkpt>
      <trkpt lat="50.0116" lon="2.00251">
        <ele>12.7</ele>
        <time>2022-04-12T14:55:15Z</time>
      </trkpt>
      <trkpt lat="50.0116" lon="2.00251">
        <ele>12.7</ele>
        <time>2022-04-12T14:55:16Z</time>
      </trkpt>
      <trkpt lat="50.0116" lon="2.00251">
        <ele>12.7</ele>
        <time>2022-04-12T14:55:17Z</time>
      </trkpt>
      <trkpt lat="50.01161" lon="2.00251">
        <ele>12.7</ele>
        <time>2022-04-12T14:55:18Z</time>
      </trkpt>
      <trkpt lat="50.01161" lon="2.00251">
        <ele>12.7</ele>
        <time>2022-04-12T14:55:19Z</time>
      </trkpt>
      <trkpt lat="50.01161" lon="2.00251">
        <ele>12.7</ele>
        <time>2022-04-12T14:55:20Z</time>
      </trkpt>
      <trkpt lat="50.01161" lon="2.00251">
        <ele>12.7</ele>
        <time>2022-04-12T14:55:21Z</time>
      </trkpt>
      <trkpt lat="50.01161" lon="2.00251">
        <ele>12.7</ele>
        <time>2022-04-12T14:55:22Z</time>
      </trkpt>
      <trkpt lat="50.01161" lon="2.00251">
        <ele>12.7</ele>
        <time>2022-04-12T14:55:23Z</time>
      </trkpt>
      <trkpt lat="50.01161" lon="2.00251">
        <ele>12.7</ele>
        <time>2022-04-12T14:55:24Z</time>
      </trkpt>
      <trkpt lat="50.01161" lon="2.00251">
        <ele>12.7</ele>
        <time>2022-04-12T14:55:25Z</time>
      </trkpt>
      <trkpt lat="50.01161" lon="2.00251">
        <ele>12.7</ele>
        <time>2022-04-12T14:55:26Z</time>
      </trkpt>
      <trkpt lat="50.01161" lon="2.00251">
        <ele>12.7</ele>
        <time>2022-04-12T14:55:27Z</time>
      </trkpt>
      <trkpt lat="50.01161" lon="2.0025">
        <ele>12.7</ele>
        <time>2022-04-12T14:55:28Z</time>
      </trkpt>
      <trkpt lat="50.01161" lon="2.0025">
        <ele>12.7</ele>
        <time>2022-04-12T14:55:29Z</time>
      </trkpt>
      <trkpt lat="50.01161" lon="2.0025">
        <ele>12.7</ele>
        <time>2022-04-12T14:55:30Z</time>
      </trkpt>
      <trkpt lat="50.01161" lon="2.0025">
        <ele>12.7</ele>
        <time>2022-04-12T14:55:31Z</time>
      </trkpt>
      <trkpt lat="50.01161" lon="2.0025">
        <ele>12.7</ele>
        <time>2022-04-12T14:55:32Z</time>
      </trkpt>
      <trkpt lat="50.01161" lon="2.0025">
        <ele>12.7</ele>
        <time>2022-04-12T14:55:33Z</time>
      </trkpt>
      <trkpt lat="50.01161" lon="2.0025">
        <ele>12.7</ele>
        <time>2022-04-12T14:55:34Z</time>
      </trkpt>
      <trkpt lat="50.01161" lon="2.0025">
        <ele>12.7</ele>
        <time>2022-04-12T14:55:35Z</time>
      </trkpt>
      <trkpt lat="50.01161" lon="2.0025">
        <ele>12.7</ele>
        <time>2022-04-12T14:55:36Z</time>
      </trkpt>
      <trkpt lat="50.01161" lon="2.0025">
        <ele>12.7</ele>
        <time>2022-04-12T14:55:37Z</time>
      </trkpt>
      <trkpt lat="50.01161" lon="2.0025">
        <ele>12.7</ele>
        <time>2022-04-12T14:55:38Z</time>
      </trkpt>
      <trkpt lat="50.01161" lon="2.0025">
        <ele>12.7</ele>
        <time>2022-04-12T14:55:39Z</time>
      </trkpt>
      <trkpt lat="50.01161" lon="2.0025">
        <ele>12.7</ele>
        <time>2022-04-12T14:55:40Z</time>
      </trkpt>
      <trkpt lat="50.01162" lon="2.0025">
        <ele>12.7</ele>
        <time>2022-04-12T14:55:41Z</time>
      </trkpt>
      <trkpt lat="50.01162" lon="2.0025">
        <ele>12.7</ele>
        <time>2022-04-12T14:55:42Z</time>
      </trkpt>
      <trkpt lat="50.01162" lon="2.0025">
        <ele>12.7</ele>
        <time>2022-04-12T14:55:43Z</time>
      </trkpt>
      <trkpt lat="50.01162" lon="2.0025">
        <ele>12.7</ele>
        <time>2022-04-12T14:55:44Z</time>
      </trkpt>
      <trkpt lat="50.01162" lon="2.0025">
        <ele>12.7</ele>
        <time>2022-04-12T14:55:45Z</time>
      </trkpt>
      <trkpt lat="50.01162" lon="2.0025">
        <ele>12.7</ele>
        <time>2022-04-12T14:55:46Z</time>
      </trkpt>
      <trkpt lat="50.01162" lon="2.0025">
        <ele>12.7</ele>
        <time>2022-04-12T14:55:47Z</time>
      </trkpt>
      <trkpt lat="50.01162" lon="2.0025">
        <ele>12.7</ele>
        <time>2022-04-12T14:55:48Z</time>
      </trkpt>
      <trkpt lat="50.01162" lon="2.0025">
        <ele>12.7</ele>
        <time>2022-04-12T14:55:49Z</time>
      </trkpt>
      <trkpt lat="50.01162" lon="2.0025">
        <ele>12.7</ele>
        <time>2022-04-12T14:55:50Z</time>
      </trkpt>
      <trkpt lat="50.01162" lon="2.0025">
        <ele>12.7</ele>
        <time>2022-04-12T14:55:51Z</time>
      </trkpt>
      <trkpt lat="50.01162" lon="2.0025">
        <ele>12.7</ele>
        <time>2022-04-12T14:55:52Z</time>
      </trkpt>
      <trkpt lat="50.01162" lon="2.0025">
        <ele>12.7</ele>
        <time>2022-04-12T14:55:53Z</time>
      </trkpt>
      <trkpt lat="50.01162" lon="2.0025">
        <ele>12.7</ele>
        <time>2022-04-12T14:55:54Z</time>
      </trkpt>
      <trkpt lat="50.01162" lon="2.0025">
        <ele>12.7</ele>
        <time>2022-04-12T14:55:55Z</time>
      </trkpt>
      <trkpt lat="50.01162" lon="2.0025">
        <ele>12.7</ele>
        <time>2022-04-12T14:55:56Z</time>
      </trkpt>
      <trkpt lat="50.01162" lon="2.0025">
        <ele>12.7</ele>
        <time>2022-04-12T14:55:57Z</time>
      </trkpt>
      <trkpt lat="50.01162" lon="2.0025">
        <ele>12.7</ele>
        <time>2022-04-12T14:55:58Z</time>
      </trkpt>
      <trkpt lat="50.01162" lon="2.0025">
        <ele>12.7</ele>
        <time>2022-04-12T14:55:59Z</time>
      </trkpt>
      <trkpt lat="50.01162" lon="2.0025">
        <ele>12.7</ele>
        <time>2022-04-12T14:56:00Z</time>
      </trkpt>
      <trkpt lat="50.01163" lon="2.00251">
        <ele>12.7</ele>
        <time>2022-04-12T14:56:01Z</time>
      </trkpt>
      <trkpt lat="50.01164" lon="2.00252">
        <ele>12.7</ele>
        <time>2022-04-12T14:56:02Z</time>
      </trkpt>
      <trkpt lat="50.01164" lon="2.00253">
        <ele>12.7</ele>
        <time>2022-04-12T14:56:03Z</time>
      </trkpt>
      <trkpt lat="50.01164" lon="2.00254">
        <ele>12.7</ele>
        <time>2022-04-12T14:56:04Z</time>
      </trkpt>
      <trkpt lat="50.01164" lon="2.00255">
        <ele>12.7</ele>
        <time>2022-04-12T14:56:05Z</time>
      </trkpt>
      <trkpt lat="50.01164" lon="2.00256">
        <ele>12.7</ele>
        <time>2022-04-12T14:56:06Z</time>
      </trkpt>
      <trkpt lat="50.01164" lon="2.00256">
        <ele>12.7</ele>
        <time>2022-04-12T14:56:07Z</time>
      </trkpt>
      <trkpt lat="50.01163" lon="2.00256">
        <ele>12.7</ele>
        <time>2022-04-12T14:56:08Z</time>
      </trkpt>
      <trkpt lat="50.01163" lon="2.00256">
        <ele>12.7</ele>
        <time>2022-04-12T14:56:09Z</time>
      </trkpt>
      <trkpt lat="50.01163" lon="2.00256">
        <ele>12.7</ele>
        <time>2022-04-12T14:56:10Z</time>
      </trkpt>
      <trkpt lat="50.01162" lon="2.00256">
        <ele>12.7</ele>
        <time>2022-04-12T14:56:11Z</time>
      </trkpt>
      <trkpt lat="50.01162" lon="2.00256">
        <ele>12.7</ele>
        <time>2022-04-12T14:56:12Z</time>
      </trkpt>
      <trkpt lat="50.01162" lon="2.00257">
        <ele>12.7</ele>
        <time>2022-04-12T14:56:13Z</time>
      </trkpt>
      <trkpt lat="50.01162" lon="2.00257">
        <ele>12.7</ele>
        <time>2022-04-12T14:56:14Z</time>
      </trkpt>
      <trkpt lat="50.01161" lon="2.00257">
        <ele>12.7</ele>
        <time>2022-04-12T14:56:16Z</time>
      </trkpt>
      <trkpt lat="50.01161" lon="2.00257">
        <ele>12.7</ele>
        <time>2022-04-12T14:56:17Z</time>
      </trkpt>
      <trkpt lat="50.01161" lon="2.00257">
        <ele>12.7</ele>
        <time>2022-04-12T14:56:18Z</time>
      </trkpt>
      <trkpt lat="50.01161" lon="2.00257">
        <ele>12.7</ele>
        <time>2022-04-12T14:56:19Z</time>
      </trkpt>
      <trkpt lat="50.0116" lon="2.00257">
        <ele>12.7</ele>
        <time>2022-04-12T14:56:20Z</time>
      </trkpt>
      <trkpt lat="50.0116" lon="2.00257">
        <ele>12.7</ele>
        <time>2022-04-12T14:56:21Z</time>
      </trkpt>
      <trkpt lat="50.01159" lon="2.00258">
        <ele>12.7</ele>
        <time>2022-04-12T14:56:22Z</time>
      </trkpt>
      <trkpt lat="50.01157" lon="2.0026">
        <ele>12.7</ele>
        <time>2022-04-12T14:56:24Z</time>
      </trkpt>
      <trkpt lat="50.01156" lon="2.00261">
        <ele>12.7</ele>
        <time>2022-04-12T14:56:25Z</time>
      </trkpt>
      <trkpt lat="50.01154" lon="2.00262">
        <ele>12.7</ele>
        <time>2022-04-12T14:56:26Z</time>
      </trkpt>
      <trkpt lat="50.01153" lon="2.00263">
        <ele>12.7</ele>
        <time>2022-04-12T14:56:27Z</time>
      </trkpt>
      <trkpt lat="50.01151" lon="2.00264">
        <ele>12.7</ele>
        <time>2022-04-12T14:56:28Z</time>
      </trkpt>
      <trkpt lat="50.0115" lon="2.00265">
        <ele>12.7</ele>
        <time>2022-04-12T14:56:29Z</time>
      </trkpt>
      <trkpt lat="50.01149" lon="2.00265">
        <ele>12.7</ele>
        <time>2022-04-12T14:56:30Z</time>
      </trkpt>
      <trkpt lat="50.01146" lon="2.00266">
        <ele>12.7</ele>
        <time>2022-04-12T14:56:31Z</time>
      </trkpt>
      <trkpt lat="50.01146" lon="2.00267">
        <ele>12.7</ele>
        <time>2022-04-12T14:56:33Z</time>
      </trkpt>
      <trkpt lat="50.01145" lon="2.00267">
        <ele>12.7</ele>
        <time>2022-04-12T14:56:34Z</time>
      </trkpt>
      <trkpt lat="50.01143" lon="2.00268">
        <ele>12.7</ele>
        <time>2022-04-12T14:56:35Z</time>
      </trkpt>
      <trkpt lat="50.01142" lon="2.00268">
        <ele>12.7</ele>
        <time>2022-04-12T14:56:36Z</time>
      </trkpt>
      <trkpt lat="50.01141" lon="2.00269">
        <ele>12.7</ele>
        <time>2022-04-12T14:56:37Z</time>
      </trkpt>
      <trkpt lat="50.01139" lon="2.00269">
        <ele>12.7</ele>
        <time>2022-04-12T14:56:38Z</time>
      </trkpt>
      <trkpt lat="50.01137" lon="2.0027">
        <ele>12.7</ele>
        <time>2022-04-12T14:56:39Z</time>
      </trkpt>
      <trkpt lat="50.01136" lon="2.0027">
        <ele>12.7</ele>
        <time>2022-04-12T14:56:41Z</time>
      </trkpt>
      <trkpt lat="50.01135" lon="2.0027">
        <ele>12.7</ele>
        <time>2022-04-12T14:56:42Z</time>
      </trkpt>
      <trkpt lat="50.01134" lon="2.0027">
        <ele>12.7</ele>
        <time>2022-04-12T14:56:43Z</time>
      </trkpt>
      <trkpt lat="50.01133" lon="2.0027">
        <ele>12.7</ele>
        <time>2022-04-12T14:56:44Z</time>
      </trkpt>
      <trkpt lat="50.01132" lon="2.00271">
        <ele>12.7</ele>
        <time>2022-04-12T14:56:45Z</time>
      </trkpt>
      <trkpt lat="50.0113" lon="2.00271">
        <ele>12.7</ele>
        <time>2022-04-12T14:56:46Z</time>
      </trkpt>
      <trkpt lat="50.01129" lon="2.00272">
        <ele>12.7</ele>
        <time>2022-04-12T14:56:47Z</time>
      </trkpt>
      <trkpt lat="50.01127" lon="2.00273">
        <ele>12.7</ele>
        <time>2022-04-12T14:56:48Z</time>
      </trkpt>
      <trkpt lat="50.01126" lon="2.00274">
        <ele>12.7</ele>
        <time>2022-04-12T14:56:49Z</time>
      </trkpt>
      <trkpt lat="50.01125" lon="2.00275">
        <ele>12.7</ele>
        <time>2022-04-12T14:56:51Z</time>
      </trkpt>
      <trkpt lat="50.01124" lon="2.00276">
        <ele>12.7</ele>
        <time>2022-04-12T14:56:52Z</time>
      </trkpt>
      <trkpt lat="50.01123" lon="2.00277">
        <ele>12.7</ele>
        <time>2022-04-12T14:56:53Z</time>
      </trkpt>
      <trkpt lat="50.01123" lon="2.00279">
        <ele>12.7</ele>
        <time>2022-04-12T14:56:54Z</time>
      </trkpt>
      <trkpt lat="50.01122" lon="2.0028">
        <ele>12.7</ele>
        <time>2022-04-12T14:56:55Z</time>
      </trkpt>
      <trkpt lat="50.01121" lon="2.0028">
        <ele>12.7</ele>
        <time>2022-04-12T14:56:57Z</time>
      </trkpt>
      <trkpt lat="50.01122" lon="2.00279">
        <ele>12.7</ele>
        <time>2022-04-12T14:56:58Z</time>
      </trkpt>
      <trkpt lat="50.01123" lon="2.00278">
        <ele>12.7</ele>
        <time>2022-04-12T14:57:00Z</time>
      </trkpt>
      <trkpt lat="50.01123" lon="2.00277">
        <ele>12.7</ele>
        <time>2022-04-12T14:57:01Z</time>
      </trkpt>
      <trkpt lat="50.01123" lon="2.00276">
        <ele>12.7</ele>
        <time>2022-04-12T14:57:02Z</time>
      </trkpt>
      <trkpt lat="50.01123" lon="2.00274">
        <ele>12.7</ele>
        <time>2022-04-12T14:57:04Z</time>
      </trkpt>
      <trkpt lat="50.01122" lon="2.00273">
        <ele>12.7</ele>
        <time>2022-04-12T14:57:05Z</time>
      </trkpt>
      <trkpt lat="50.01121" lon="2.00272">
        <ele>12.7</ele>
        <time>2022-04-12T14:57:06Z</time>
      </trkpt>
      <trkpt lat="50.0112" lon="2.00271">
        <ele>12.7</ele>
        <time>2022-04-12T14:57:07Z</time>
      </trkpt>
      <trkpt lat="50.0112" lon="2.00271">
        <ele>12.7</ele>
        <time>2022-04-12T14:57:08Z</time>
      </trkpt>
      <trkpt lat="50.01119" lon="2.00271">
        <ele>12.7</ele>
        <time>2022-04-12T14:57:09Z</time>
      </trkpt>
      <trkpt lat="50.01119" lon="2.00271">
        <ele>12.7</ele>
        <time>2022-04-12T14:57:10Z</time>
      </trkpt>
      <trkpt lat="50.01119" lon="2.00271">
        <ele>12.7</ele>
        <time>2022-04-12T14:57:11Z</time>
      </trkpt>
      <trkpt lat="50.0112" lon="2.00271">
        <ele>12.7</ele>
        <time>2022-04-12T14:57:12Z</time>
      </trkpt>
      <trkpt lat="50.0112" lon="2.00271">
        <ele>12.7</ele>
        <time>2022-04-12T14:57:13Z</time>
      </trkpt>
      <trkpt lat="50.01121" lon="2.00271">
        <ele>12.7</ele>
        <time>2022-04-12T14:57:14Z</time>
      </trkpt>
      <trkpt lat="50.01122" lon="2.00272">
        <ele>12.7</ele>
        <time>2022-04-12T14:57:16Z</time>
      </trkpt>
      <trkpt lat="50.01123" lon="2.00272">
        <ele>12.7</ele>
        <time>2022-04-12T14:57:17Z</time>
      </trkpt>
      <trkpt lat="50.01124" lon="2.00273">
        <ele>12.7</ele>
        <time>2022-04-12T14:57:18Z</time>
      </trkpt>
      <trkpt lat="50.01126" lon="2.00273">
        <ele>12.7</ele>
        <time>2022-04-12T14:57:19Z</time>
      </trkpt>
      <trkpt lat="50.01129" lon="2.00274">
        <ele>12.7</ele>
        <time>2022-04-12T14:57:20Z</time>
      </trkpt>
      <trkpt lat="50.0113" lon="2.00274">
        <ele>12.7</ele>
        <time>2022-04-12T14:57:21Z</time>
      </trkpt>
      <trkpt lat="50.01133" lon="2.00274">
        <ele>12.7</ele>
        <time>2022-04-12T14:57:22Z</time>
      </trkpt>
      <trkpt lat="50.01134" lon="2.00274">
        <ele>12.7</ele>
        <time>2022-04-12T14:57:23Z</time>
      </trkpt>
      <trkpt lat="50.01136" lon="2.00273">
        <ele>12.7</ele>
        <time>2022-04-12T14:57:24Z</time>
      </trkpt>
      <trkpt lat="50.01138" lon="2.00273">
        <ele>12.7</ele>
        <time>2022-04-12T14:57:26Z</time>
      </trkpt>
      <trkpt lat="50.01139" lon="2.00272">
        <ele>12.7</ele>
        <time>2022-04-12T14:57:27Z</time>
      </trkpt>
      <trkpt lat="50.01141" lon="2.00272">
        <ele>12.7</ele>
        <time>2022-04-12T14:57:28Z</time>
      </trkpt>
      <trkpt lat="50.01144" lon="2.0027">
        <ele>12.7</ele>
        <time>2022-04-12T14:57:29Z</time>
      </trkpt>
      <trkpt lat="50.01146" lon="2.00269">
        <ele>12.7</ele>
        <time>2022-04-12T14:57:30Z</time>
      </trkpt>
      <trkpt lat="50.01149" lon="2.00267">
        <ele>12.7</ele>
        <time>2022-04-12T14:57:31Z</time>
      </trkpt>
      <trkpt lat="50.0115" lon="2.00266">
        <ele>12.7</ele>
        <time>2022-04-12T14:57:32Z</time>
      </trkpt>
      <trkpt lat="50.01151" lon="2.00265">
        <ele>12.7</ele>
        <time>2022-04-12T14:57:33Z</time>
      </trkpt>
      <trkpt lat="50.01153" lon="2.00264">
        <ele>12.7</ele>
        <time>2022-04-12T14:57:34Z</time>
      </trkpt>
      <trkpt lat="50.01154" lon="2.00263">
        <ele>12.7</ele>
        <time>2022-04-12T14:57:35Z</time>
      </trkpt>
      <trkpt lat="50.01155" lon="2.00262">
        <ele>12.7</ele>
        <time>2022-04-12T14:57:37Z</time>
      </trkpt>
      <trkpt lat="50.01156" lon="2.00261">
        <ele>12.7</ele>
        <time>2022-04-12T14:57:38Z</time>
      </trkpt>
      <trkpt lat="50.01157" lon="2.0026">
        <ele>12.7</ele>
        <time>2022-04-12T14:57:39Z</time>
      </trkpt>
      <trkpt lat="50.01158" lon="2.0026">
        <ele>12.7</ele>
        <time>2022-04-12T14:57:40Z</time>
      </trkpt>
      <trkpt lat="50.01159" lon="2.00259">
        <ele>12.7</ele>
        <time>2022-04-12T14:57:41Z</time>
      </trkpt>
      <trkpt lat="50.0116" lon="2.00259">
        <ele>12.7</ele>
        <time>2022-04-12T14:57:42Z</time>
      </trkpt>
      <trkpt lat="50.0116" lon="2.00258">
        <ele>12.7</ele>
        <time>2022-04-12T14:57:43Z</time>
      </trkpt>
      <trkpt lat="50.01161" lon="2.00257">
        <ele>12.7</ele>
        <time>2022-04-12T14:57:44Z</time>
      </trkpt>
      <trkpt lat="50.01162" lon="2.00256">
        <ele>12.7</ele>
        <time>2022-04-12T14:57:45Z</time>
      </trkpt>
      <trkpt lat="50.01162" lon="2.00255">
        <ele>12.7</ele>
        <time>2022-04-12T14:57:47Z</time>
      </trkpt>
      <trkpt lat="50.01163" lon="2.00254">
        <ele>12.7</ele>
        <time>2022-04-12T14:57:48Z</time>
      </trkpt>
      <trkpt lat="50.01163" lon="2.00253">
        <ele>12.7</ele>
        <time>2022-04-12T14:57:49Z</time>
      </trkpt>
      <trkpt lat="50.01164" lon="2.00253">
        <ele>12.7</ele>
        <time>2022-04-12T14:57:50Z</time>
      </trkpt>
      <trkpt lat="50.01164" lon="2.00253">
        <ele>12.7</ele>
        <time>2022-04-12T14:57:51Z</time>
      </trkpt>
      <trkpt lat="50.01165" lon="2.00254">
        <ele>12.7</ele>
        <time>2022-04-12T14:57:52Z</time>
      </trkpt>
      <trkpt lat="50.01164" lon="2.00257">
        <ele>12.7</ele>
        <time>2022-04-12T14:57:53Z</time>
      </trkpt>
      <trkpt lat="50.01163" lon="2.00259">
        <ele>12.7</ele>
        <time>2022-04-12T14:57:54Z</time>
      </trkpt>
      <trkpt lat="50.01161" lon="2.00262">
        <ele>12.7</ele>
        <time>2022-04-12T14:57:55Z</time>
      </trkpt>
      <trkpt lat="50.0116" lon="2.00263">
        <ele>12.7</ele>
        <time>2022-04-12T14:57:57Z</time>
      </trkpt>
      <trkpt lat="50.01159" lon="2.00264">
        <ele>12.7</ele>
        <time>2022-04-12T14:57:58Z</time>
      </trkpt>
      <trkpt lat="50.01158" lon="2.00265">
        <ele>12.7</ele>
        <time>2022-04-12T14:57:59Z</time>
      </trkpt>
      <trkpt lat="50.01156" lon="2.00266">
        <ele>12.7</ele>
        <time>2022-04-12T14:58:00Z</time>
      </trkpt>
      <trkpt lat="50.01155" lon="2.00266">
        <ele>12.7</ele>
        <time>2022-04-12T14:58:01Z</time>
      </trkpt>
      <trkpt lat="50.01153" lon="2.00267">
        <ele>12.7</ele>
        <time>2022-04-12T14:58:02Z</time>
      </trkpt>
      <trkpt lat="50.01152" lon="2.00268">
        <ele>12.7</ele>
        <time>2022-04-12T14:58:03Z</time>
      </trkpt>
      <trkpt lat="50.0115" lon="2.00269">
        <ele>12.6</ele>
        <time>2022-04-12T14:58:04Z</time>
      </trkpt>
      <trkpt lat="50.01149" lon="2.0027">
        <ele>12.6</ele>
        <time>2022-04-12T14:58:05Z</time>
      </trkpt>
      <trkpt lat="50.01149" lon="2.00271">
        <ele>12.6</ele>
        <time>2022-04-12T14:58:06Z</time>
      </trkpt>
      <trkpt lat="50.01147" lon="2.00274">
        <ele>12.6</ele>
        <time>2022-04-12T14:58:08Z</time>
      </trkpt>
      <trkpt lat="50.01147" lon="2.00275">
        <ele>12.6</ele>
        <time>2022-04-12T14:58:09Z</time>
      </trkpt>
      <trkpt lat="50.01146" lon="2.00276">
        <ele>12.6</ele>
        <time>2022-04-12T14:58:10Z</time>
      </trkpt>
      <trkpt lat="50.01145" lon="2.00278">
        <ele>12.6</ele>
        <time>2022-04-12T14:58:11Z</time>
      </trkpt>
      <trkpt lat="50.01145" lon="2.00279">
        <ele>12.6</ele>
        <time>2022-04-12T14:58:12Z</time>
      </trkpt>
      <trkpt lat="50.01144" lon="2.0028">
        <ele>12.6</ele>
        <time>2022-04-12T14:58:13Z</time>
      </trkpt>
      <trkpt lat="50.01144" lon="2.00282">
        <ele>12.6</ele>
        <time>2022-04-12T14:58:14Z</time>
      </trkpt>
      <trkpt lat="50.01143" lon="2.00283">
        <ele>12.6</ele>
        <time>2022-04-12T14:58:15Z</time>
      </trkpt>
      <trkpt lat="50.01143" lon="2.00284">
        <ele>12.6</ele>
        <time>2022-04-12T14:58:16Z</time>
      </trkpt>
      <trkpt lat="50.01142" lon="2.00285">
        <ele>12.6</ele>
        <time>2022-04-12T14:58:18Z</time>
      </trkpt>
      <trkpt lat="50.01141" lon="2.00286">
        <ele>12.6</ele>
        <time>2022-04-12T14:58:19Z</time>
      </trkpt>
      <trkpt lat="50.01141" lon="2.00286">
        <ele>12.6</ele>
        <time>2022-04-12T14:58:20Z</time>
      </trkpt>
      <trkpt lat="50.0114" lon="2.00285">
        <ele>12.6</ele>
        <time>2022-04-12T14:58:21Z</time>
      </trkpt>
      <trkpt lat="50.0114" lon="2.00284">
        <ele>12.6</ele>
        <time>2022-04-12T14:58:22Z</time>
      </trkpt>
      <trkpt lat="50.0114" lon="2.00283">
        <ele>12.6</ele>
        <time>2022-04-12T14:58:23Z</time>
      </trkpt>
      <trkpt lat="50.01141" lon="2.00281">
        <ele>12.6</ele>
        <time>2022-04-12T14:58:24Z</time>
      </trkpt>
      <trkpt lat="50.01141" lon="2.0028">
        <ele>12.6</ele>
        <time>2022-04-12T14:58:26Z</time>
      </trkpt>
      <trkpt lat="50.01142" lon="2.0028">
        <ele>12.6</ele>
        <time>2022-04-12T14:58:27Z</time>
      </trkpt>
      <trkpt lat="50.01142" lon="2.00279">
        <ele>12.6</ele>
        <time>2022-04-12T14:58:28Z</time>
      </trkpt>
      <trkpt lat="50.01143" lon="2.00279">
        <ele>12.6</ele>
        <time>2022-04-12T14:58:29Z</time>
      </trkpt>
      <trkpt lat="50.01143" lon="2.00279">
        <ele>12.6</ele>
        <time>2022-04-12T14:58:30Z</time>
      </trkpt>
      <trkpt lat="50.01143" lon="2.00279">
        <ele>12.6</ele>
        <time>2022-04-12T14:58:31Z</time>
      </trkpt>
      <trkpt lat="50.01144" lon="2.00279">
        <ele>12.6</ele>
        <time>2022-04-12T14:58:32Z</time>
      </trkpt>
      <trkpt lat="50.01144" lon="2.00278">
        <ele>12.6</ele>
        <time>2022-04-12T14:58:33Z</time>
      </trkpt>
      <trkpt lat="50.01144" lon="2.00278">
        <ele>12.6</ele>
        <time>2022-04-12T14:58:34Z</time>
      </trkpt>
      <trkpt lat="50.01144" lon="2.00278">
        <ele>12.6</ele>
        <time>2022-04-12T14:58:35Z</time>
      </trkpt>
      <trkpt lat="50.01144" lon="2.00278">
        <ele>12.6</ele>
        <time>2022-04-12T14:58:36Z</time>
      </trkpt>
      <trkpt lat="50.01144" lon="2.00278">
        <ele>12.6</ele>
        <time>2022-04-12T14:58:37Z</time>
      </trkpt>
      <trkpt lat="50.01144" lon="2.00278">
        <ele>12.6</ele>
        <time>2022-04-12T14:58:38Z</time>
      </trkpt>
      <trkpt lat="50.01144" lon="2.00277">
        <ele>12.6</ele>
        <time>2022-04-12T14:58:39Z</time>
      </trkpt>
      <trkpt lat="50.01144" lon="2.00277">
        <ele>12.6</ele>
        <time>2022-04-12T14:58:40Z</time>
      </trkpt>
      <trkpt lat="50.01145" lon="2.00277">
        <ele>12.6</ele>
        <time>2022-04-12T14:58:41Z</time>
      </trkpt>
      <trkpt lat="50.01145" lon="2.00277">
        <ele>12.6</ele>
        <time>2022-04-12T14:58:42Z</time>
      </trkpt>
      <trkpt lat="50.01144" lon="2.00277">
        <ele>12.6</ele>
        <time>2022-04-12T14:58:43Z</time>
      </trkpt>
      <trkpt lat="50.01144" lon="2.00277">
        <ele>12.6</ele>
        <time>2022-04-12T14:58:44Z</time>
      </trkpt>
      <trkpt lat="50.01144" lon="2.00277">
        <ele>12.6</ele>
        <time>2022-04-12T14:58:45Z</time>
      </trkpt>
      <trkpt lat="50.01144" lon="2.00277">
        <ele>12.6</ele>
        <time>2022-04-12T14:58:46Z</time>
      </trkpt>
      <trkpt lat="50.01144" lon="2.00277">
        <ele>12.6</ele>
        <time>2022-04-12T14:58:47Z</time>
      </trkpt>
      <trkpt lat="50.01144" lon="2.00277">
        <ele>12.6</ele>
        <time>2022-04-12T14:58:48Z</time>
      </trkpt>
      <trkpt lat="50.01145" lon="2.00276">
        <ele>12.6</ele>
        <time>2022-04-12T14:58:49Z</time>
      </trkpt>
      <trkpt lat="50.01145" lon="2.00276">
        <ele>12.6</ele>
        <time>2022-04-12T14:58:50Z</time>
      </trkpt>
      <trkpt lat="50.01146" lon="2.00276">
        <ele>12.6</ele>
        <time>2022-04-12T14:58:51Z</time>
      </trkpt>
      <trkpt lat="50.01146" lon="2.00277">
        <ele>12.6</ele>
        <time>2022-04-12T14:58:53Z</time>
      </trkpt>
      <trkpt lat="50.01147" lon="2.00278">
        <ele>12.6</ele>
        <time>2022-04-12T14:58:54Z</time>
      </trkpt>
      <trkpt lat="50.01147" lon="2.0028">
        <ele>12.6</ele>
        <time>2022-04-12T14:58:55Z</time>
      </trkpt>
      <trkpt lat="50.01148" lon="2.00281">
        <ele>12.6</ele>
        <time>2022-04-12T14:58:56Z</time>
      </trkpt>
      <trkpt lat="50.01149" lon="2.00283">
        <ele>12.6</ele>
        <time>2022-04-12T14:58:57Z</time>
      </trkpt>
      <trkpt lat="50.01149" lon="2.00284">
        <ele>12.6</ele>
        <time>2022-04-12T14:58:58Z</time>
      </trkpt>
      <trkpt lat="50.0115" lon="2.00285">
        <ele>12.6</ele>
        <time>2022-04-12T14:59:00Z</time>
      </trkpt>
      <trkpt lat="50.01151" lon="2.00287">
        <ele>12.6</ele>
        <time>2022-04-12T14:59:01Z</time>
      </trkpt>
      <trkpt lat="50.01152" lon="2.00289">
        <ele>12.6</ele>
        <time>2022-04-12T14:59:03Z</time>
      </trkpt>
      <trkpt lat="50.01152" lon="2.0029">
        <ele>12.6</ele>
        <time>2022-04-12T14:59:04Z</time>
      </trkpt>
      <trkpt lat="50.01152" lon="2.00291">
        <ele>12.6</ele>
        <time>2022-04-12T14:59:05Z</time>
      </trkpt>
      <trkpt lat="50.01152" lon="2.00291">
        <ele>12.6</ele>
        <time>2022-04-12T14:59:06Z</time>
      </trkpt>
      <trkpt lat="50.01152" lon="2.00291">
        <ele>12.6</ele>
        <time>2022-04-12T14:59:07Z</time>
      </trkpt>
      <trkpt lat="50.01152" lon="2.0029">
        <ele>12.6</ele>
        <time>2022-04-12T14:59:08Z</time>
      </trkpt>
      <trkpt lat="50.01152" lon="2.0029">
        <ele>12.6</ele>
        <time>2022-04-12T14:59:09Z</time>
      </trkpt>
      <trkpt lat="50.01152" lon="2.0029">
        <ele>12.6</ele>
        <time>2022-04-12T14:59:10Z</time>
      </trkpt>
      <trkpt lat="50.01152" lon="2.0029">
        <ele>12.6</ele>
        <time>2022-04-12T14:59:11Z</time>
      </trkpt>
      <trkpt lat="50.01152" lon="2.0029">
        <ele>12.6</ele>
        <time>2022-04-12T14:59:12Z</time>
      </trkpt>
      <trkpt lat="50.01152" lon="2.0029">
        <ele>12.6</ele>
        <time>2022-04-12T14:59:13Z</time>
      </trkpt>
      <trkpt lat="50.01152" lon="2.0029">
        <ele>12.6</ele>
        <time>2022-04-12T14:59:14Z</time>
      </trkpt>
      <trkpt lat="50.01151" lon="2.0029">
        <ele>12.6</ele>
        <time>2022-04-12T14:59:15Z</time>
      </trkpt>
      <trkpt lat="50.01151" lon="2.0029">
        <ele>12.6</ele>
        <time>2022-04-12T14:59:16Z</time>
      </trkpt>
      <trkpt lat="50.01151" lon="2.0029">
        <ele>12.6</ele>
        <time>2022-04-12T14:59:17Z</time>
      </trkpt>
      <trkpt lat="50.01151" lon="2.0029">
        <ele>12.6</ele>
        <time>2022-04-12T14:59:18Z</time>
      </trkpt>
      <trkpt lat="50.01151" lon="2.0029">
        <ele>12.6</ele>
        <time>2022-04-12T14:59:19Z</time>
      </trkpt>
      <trkpt lat="50.01151" lon="2.0029">
        <ele>12.6</ele>
        <time>2022-04-12T14:59:20Z</time>
      </trkpt>
      <trkpt lat="50.01151" lon="2.00289">
        <ele>12.6</ele>
        <time>2022-04-12T14:59:21Z</time>
      </trkpt>
      <trkpt lat="50.01151" lon="2.00289">
        <ele>12.6</ele>
        <time>2022-04-12T14:59:22Z</time>
      </trkpt>
      <trkpt lat="50.01151" lon="2.00289">
        <ele>12.6</ele>
        <time>2022-04-12T14:59:23Z</time>
      </trkpt>
      <trkpt lat="50.01151" lon="2.00289">
        <ele>12.6</ele>
        <time>2022-04-12T14:59:24Z</time>
      </trkpt>
      <trkpt lat="50.01151" lon="2.00289">
        <ele>12.6</ele>
        <time>2022-04-12T14:59:25Z</time>
      </trkpt>
      <trkpt lat="50.01151" lon="2.00289">
        <ele>12.6</ele>
        <time>2022-04-12T14:59:26Z</time>
      </trkpt>
      <trkpt lat="50.01151" lon="2.00289">
        <ele>12.6</ele>
        <time>2022-04-12T14:59:27Z</time>
      </trkpt>
      <trkpt lat="50.01151" lon="2.00289">
        <ele>12.6</ele>
        <time>2022-04-12T14:59:28Z</time>
      </trkpt>
      <trkpt lat="50.01151" lon="2.00289">
        <ele>12.6</ele>
        <time>2022-04-12T14:59:29Z</time>
      </trkpt>
      <trkpt lat="50.0115" lon="2.00289">
        <ele>12.6</ele>
        <time>2022-04-12T14:59:30Z</time>
      </trkpt>
      <trkpt lat="50.0115" lon="2.00289">
        <ele>12.6</ele>
        <time>2022-04-12T14:59:31Z</time>
      </trkpt>
      <trkpt lat="50.0115" lon="2.00289">
        <ele>12.6</ele>
        <time>2022-04-12T14:59:32Z</time>
      </trkpt>
      <trkpt lat="50.0115" lon="2.00288">
        <ele>12.6</ele>
        <time>2022-04-12T14:59:33Z</time>
      </trkpt>
      <trkpt lat="50.0115" lon="2.00288">
        <ele>12.6</ele>
        <time>2022-04-12T14:59:34Z</time>
      </trkpt>
      <trkpt lat="50.0115" lon="2.00288">
        <ele>12.6</ele>
        <time>2022-04-12T14:59:35Z</time>
      </trkpt>
      <trkpt lat="50.0115" lon="2.00288">
        <ele>12.6</ele>
        <time>2022-04-12T14:59:36Z</time>
      </trkpt>
      <trkpt lat="50.0115" lon="2.00288">
        <ele>12.6</ele>
        <time>2022-04-12T14:59:37Z</time>
      </trkpt>
      <trkpt lat="50.0115" lon="2.00288">
        <ele>12.6</ele>
        <time>2022-04-12T14:59:38Z</time>
      </trkpt>
      <trkpt lat="50.0115" lon="2.00288">
        <ele>12.6</ele>
        <time>2022-04-12T14:59:39Z</time>
      </trkpt>
      <trkpt lat="50.0115" lon="2.00288">
        <ele>12.6</ele>
        <time>2022-04-12T14:59:40Z</time>
      </trkpt>
      <trkpt lat="50.0115" lon="2.00288">
        <ele>12.6</ele>
        <time>2022-04-12T14:59:41Z</time>
      </trkpt>
      <trkpt lat="50.0115" lon="2.00288">
        <ele>12.6</ele>
        <time>2022-04-12T14:59:42Z</time>
      </trkpt>
      <trkpt lat="50.0115" lon="2.00288">
        <ele>12.6</ele>
        <time>2022-04-12T14:59:43Z</time>
      </trkpt>
      <trkpt lat="50.0115" lon="2.00288">
        <ele>12.6</ele>
        <time>2022-04-12T14:59:44Z</time>
      </trkpt>
      <trkpt lat="50.01149" lon="2.00287">
        <ele>12.6</ele>
        <time>2022-04-12T14:59:45Z</time>
      </trkpt>
      <trkpt lat="50.01149" lon="2.00287">
        <ele>12.6</ele>
        <time>2022-04-12T14:59:46Z</time>
      </trkpt>
      <trkpt lat="50.01149" lon="2.00287">
        <ele>12.6</ele>
        <time>2022-04-12T14:59:47Z</time>
      </trkpt>
      <trkpt lat="50.01149" lon="2.00287">
        <ele>12.6</ele>
        <time>2022-04-12T14:59:48Z</time>
      </trkpt>
      <trkpt lat="50.01149" lon="2.00287">
        <ele>12.6</ele>
        <time>2022-04-12T14:59:49Z</time>
      </trkpt>
      <trkpt lat="50.01149" lon="2.00287">
        <ele>12.6</ele>
        <time>2022-04-12T14:59:50Z</time>
      </trkpt>
      <trkpt lat="50.01149" lon="2.00287">
        <ele>12.6</ele>
        <time>2022-04-12T14:59:51Z</time>
      </trkpt>
      <trkpt lat="50.01149" lon="2.00287">
        <ele>12.6</ele>
        <time>2022-04-12T14:59:52Z</time>
      </trkpt>
      <trkpt lat="50.01149" lon="2.00287">
        <ele>12.6</ele>
        <time>2022-04-12T14:59:53Z</time>
      </trkpt>
      <trkpt lat="50.01149" lon="2.00287">
        <ele>12.6</ele>
        <time>2022-04-12T14:59:54Z</time>
      </trkpt>
      <trkpt lat="50.01149" lon="2.00287">
        <ele>12.6</ele>
        <time>2022-04-12T14:59:55Z</time>
      </trkpt>
      <trkpt lat="50.01148" lon="2.00285">
        <ele>12.6</ele>
        <time>2022-04-12T14:59:56Z</time>
      </trkpt>
      <trkpt lat="50.01148" lon="2.00285">
        <ele>12.6</ele>
        <time>2022-04-12T14:59:57Z</time>
      </trkpt>
      <trkpt lat="50.01148" lon="2.00284">
        <ele>12.6</ele>
        <time>2022-04-12T14:59:58Z</time>
      </trkpt>
      <trkpt lat="50.01148" lon="2.00284">
        <ele>12.6</ele>
        <time>2022-04-12T14:59:59Z</time>
      </trkpt>
      <trkpt lat="50.01148" lon="2.00284">
        <ele>12.6</ele>
        <time>2022-04-12T15:00:00Z</time>
      </trkpt>
      <trkpt lat="50.01148" lon="2.00284">
        <ele>12.6</ele>
        <time>2022-04-12T15:00:01Z</time>
      </trkpt>
      <trkpt lat="50.01148" lon="2.00284">
        <ele>12.6</ele>
        <time>2022-04-12T15:00:02Z</time>
      </trkpt>
      <trkpt lat="50.01148" lon="2.00284">
        <ele>12.6</ele>
        <time>2022-04-12T15:00:03Z</time>
      </trkpt>
      <trkpt lat="50.01148" lon="2.00284">
        <ele>12.6</ele>
        <time>2022-04-12T15:00:04Z</time>
      </trkpt>
      <trkpt lat="50.01148" lon="2.00284">
        <ele>12.6</ele>
        <time>2022-04-12T15:00:05Z</time>
      </trkpt>
      <trkpt lat="50.01148" lon="2.00284">
        <ele>12.6</ele>
        <time>2022-04-12T15:00:06Z</time>
      </trkpt>
      <trkpt lat="50.01148" lon="2.00284">
        <ele>12.6</ele>
        <time>2022-04-12T15:00:07Z</time>
      </trkpt>
      <trkpt lat="50.01148" lon="2.00284">
        <ele>12.6</ele>
        <time>2022-04-12T15:00:08Z</time>
      </trkpt>
      <trkpt lat="50.01148" lon="2.00284">
        <ele>12.6</ele>
        <time>2022-04-12T15:00:09Z</time>
      </trkpt>
      <trkpt lat="50.01148" lon="2.00284">
        <ele>12.6</ele>
        <time>2022-04-12T15:00:10Z</time>
      </trkpt>
      <trkpt lat="50.01148" lon="2.00284">
        <ele>12.6</ele>
        <time>2022-04-12T15:00:11Z</time>
      </trkpt>
      <trkpt lat="50.01148" lon="2.00284">
        <ele>12.6</ele>
        <time>2022-04-12T15:00:12Z</time>
      </trkpt>
      <trkpt lat="50.01148" lon="2.00284">
        <ele>12.6</ele>
        <time>2022-04-12T15:00:13Z</time>
      </trkpt>
      <trkpt lat="50.01148" lon="2.00284">
        <ele>12.6</ele>
        <time>2022-04-12T15:00:14Z</time>
      </trkpt>
      <trkpt lat="50.01148" lon="2.00284">
        <ele>12.6</ele>
        <time>2022-04-12T15:00:15Z</time>
      </trkpt>
      <trkpt lat="50.01148" lon="2.00284">
        <ele>12.6</ele>
        <time>2022-04-12T15:00:16Z</time>
      </trkpt>
      <trkpt lat="50.01148" lon="2.00284">
        <ele>12.6</ele>
        <time>2022-04-12T15:00:17Z</time>
      </trkpt>
      <trkpt lat="50.01148" lon="2.00284">
        <ele>12.6</ele>
        <time>2022-04-12T15:00:18Z</time>
      </trkpt>
      <trkpt lat="50.01148" lon="2.00284">
        <ele>12.6</ele>
        <time>2022-04-12T15:00:19Z</time>
      </trkpt>
      <trkpt lat="50.01148" lon="2.00284">
        <ele>12.6</ele>
        <time>2022-04-12T15:00:20Z</time>
      </trkpt>
      <trkpt lat="50.01148" lon="2.00284">
        <ele>12.6</ele>
        <time>2022-04-12T15:00:21Z</time>
      </trkpt>
      <trkpt lat="50.01148" lon="2.00284">
        <ele>12.6</ele>
        <time>2022-04-12T15:00:22Z</time>
      </trkpt>
      <trkpt lat="50.01148" lon="2.00284">
        <ele>12.6</ele>
        <time>2022-04-12T15:00:23Z</time>
      </trkpt>
      <trkpt lat="50.01148" lon="2.00284">
        <ele>12.6</ele>
        <time>2022-04-12T15:00:24Z</time>
      </trkpt>
      <trkpt lat="50.01148" lon="2.00284">
        <ele>12.6</ele>
        <time>2022-04-12T15:00:25Z</time>
      </trkpt>
      <trkpt lat="50.01148" lon="2.00284">
        <ele>12.6</ele>
        <time>2022-04-12T15:00:26Z</time>
      </trkpt>
      <trkpt lat="50.01148" lon="2.00284">
        <ele>12.6</ele>
        <time>2022-04-12T15:00:27Z</time>
      </trkpt>
      <trkpt lat="50.01148" lon="2.00284">
        <ele>12.6</ele>
        <time>2022-04-12T15:00:28Z</time>
      </trkpt>
      <trkpt lat="50.01148" lon="2.00284">
        <ele>12.6</ele>
        <time>2022-04-12T15:00:29Z</time>
      </trkpt>
      <trkpt lat="50.01148" lon="2.00284">
        <ele>12.6</ele>
        <time>2022-04-12T15:00:30Z</time>
      </trkpt>
      <trkpt lat="50.01148" lon="2.00284">
        <ele>12.6</ele>
        <time>2022-04-12T15:00:31Z</time>
      </trkpt>
      <trkpt lat="50.01148" lon="2.00284">
        <ele>12.6</ele>
        <time>2022-04-12T15:00:32Z</time>
      </trkpt>
      <trkpt lat="50.01148" lon="2.00284">
        <ele>12.6</ele>
        <time>2022-04-12T15:00:33Z</time>
      </trkpt>
      <trkpt lat="50.01148" lon="2.00284">
        <ele>12.6</ele>
        <time>2022-04-12T15:00:34Z</time>
      </trkpt>
      <trkpt lat="50.01148" lon="2.00284">
        <ele>12.6</ele>
        <time>2022-04-12T15:00:35Z</time>
      </trkpt>
      <trkpt lat="50.01148" lon="2.00284">
        <ele>12.6</ele>
        <time>2022-04-12T15:00:36Z</time>
      </trkpt>
      <trkpt lat="50.01148" lon="2.00284">
        <ele>12.6</ele>
        <time>2022-04-12T15:00:37Z</time>
      </trkpt>
      <trkpt lat="50.01148" lon="2.00284">
        <ele>12.6</ele>
        <time>2022-04-12T15:00:38Z</time>
      </trkpt>
      <trkpt lat="50.01148" lon="2.00284">
        <ele>12.6</ele>
        <time>2022-04-12T15:00:39Z</time>
      </trkpt>
      <trkpt lat="50.01148" lon="2.00284">
        <ele>12.6</ele>
        <time>2022-04-12T15:00:40Z</time>
      </trkpt>
      <trkpt lat="50.01148" lon="2.00284">
        <ele>12.6</ele>
        <time>2022-04-12T15:00:41Z</time>
      </trkpt>
      <trkpt lat="50.01148" lon="2.00284">
        <ele>12.6</ele>
        <time>2022-04-12T15:00:42Z</time>
      </trkpt>
      <trkpt lat="50.01148" lon="2.00284">
        <ele>12.6</ele>
        <time>2022-04-12T15:00:43Z</time>
      </trkpt>
      <trkpt lat="50.01148" lon="2.00284">
        <ele>12.6</ele>
        <time>2022-04-12T15:00:44Z</time>
      </trkpt>
      <trkpt lat="50.01148" lon="2.00284">
        <ele>12.6</ele>
        <time>2022-04-12T15:00:45Z</time>
      </trkpt>
      <trkpt lat="50.01148" lon="2.00284">
        <ele>12.6</ele>
        <time>2022-04-12T15:00:46Z</time>
      </trkpt>
      <trkpt lat="50.01148" lon="2.00284">
        <ele>12.6</ele>
        <time>2022-04-12T15:00:47Z</time>
      </trkpt>
      <trkpt lat="50.01148" lon="2.00284">
        <ele>12.6</ele>
        <time>2022-04-12T15:00:48Z</time>
      </trkpt>
      <trkpt lat="50.01148" lon="2.00284">
        <ele>12.6</ele>
        <time>2022-04-12T15:00:49Z</time>
      </trkpt>
      <trkpt lat="50.01148" lon="2.00284">
        <ele>12.6</ele>
        <time>2022-04-12T15:00:50Z</time>
      </trkpt>
      <trkpt lat="50.01148" lon="2.00284">
        <ele>12.6</ele>
        <time>2022-04-12T15:00:51Z</time>
      </trkpt>
      <trkpt lat="50.01148" lon="2.00284">
        <ele>12.6</ele>
        <time>2022-04-12T15:00:52Z</time>
      </trkpt>
      <trkpt lat="50.01148" lon="2.00284">
        <ele>12.6</ele>
        <time>2022-04-12T15:00:53Z</time>
      </trkpt>
      <trkpt lat="50.01148" lon="2.00284">
        <ele>12.6</ele>
        <time>2022-04-12T15:00:54Z</time>
      </trkpt>
      <trkpt lat="50.01148" lon="2.00284">
        <ele>12.6</ele>
        <time>2022-04-12T15:00:55Z</time>
      </trkpt>
      <trkpt lat="50.01148" lon="2.00284">
        <ele>12.6</ele>
        <time>2022-04-12T15:00:56Z</time>
      </trkpt>
      <trkpt lat="50.01148" lon="2.00284">
        <ele>12.6</ele>
        <time>2022-04-12T15:00:57Z</time>
      </trkpt>
      <trkpt lat="50.01148" lon="2.00284">
        <ele>12.6</ele>
        <time>2022-04-12T15:00:58Z</time>
      </trkpt>
      <trkpt lat="50.01148" lon="2.00284">
        <ele>12.6</ele>
        <time>2022-04-12T15:00:59Z</time>
      </trkpt>
      <trkpt lat="50.01148" lon="2.00284">
        <ele>12.6</ele>
        <time>2022-04-12T15:01:00Z</time>
      </trkpt>
      <trkpt lat="50.01148" lon="2.00284">
        <ele>12.6</ele>
        <time>2022-04-12T15:01:01Z</time>
      </trkpt>
      <trkpt lat="50.01148" lon="2.00284">
        <ele>12.6</ele>
        <time>2022-04-12T15:01:02Z</time>
      </trkpt>
      <trkpt lat="50.01148" lon="2.00284">
        <ele>12.6</ele>
        <time>2022-04-12T15:01:03Z</time>
      </trkpt>
      <trkpt lat="50.01148" lon="2.00284">
        <ele>12.6</ele>
        <time>2022-04-12T15:01:04Z</time>
      </trkpt>
      <trkpt lat="50.01148" lon="2.00284">
        <ele>12.6</ele>
        <time>2022-04-12T15:01:05Z</time>
      </trkpt>
      <trkpt lat="50.01148" lon="2.00284">
        <ele>12.6</ele>
        <time>2022-04-12T15:01:06Z</time>
      </trkpt>
      <trkpt lat="50.01148" lon="2.00284">
        <ele>12.6</ele>
        <time>2022-04-12T15:01:07Z</time>
      </trkpt>
      <trkpt lat="50.01148" lon="2.00284">
        <ele>12.6</ele>
        <time>2022-04-12T15:01:08Z</time>
      </trkpt>
      <trkpt lat="50.01148" lon="2.00284">
        <ele>12.6</ele>
        <time>2022-04-12T15:01:09Z</time>
      </trkpt>
      <trkpt lat="50.01148" lon="2.00284">
        <ele>12.6</ele>
        <time>2022-04-12T15:01:10Z</time>
      </trkpt>
      <trkpt lat="50.01148" lon="2.00284">
        <ele>12.6</ele>
        <time>2022-04-12T15:01:11Z</time>
      </trkpt>
      <trkpt lat="50.01148" lon="2.00284">
        <ele>12.6</ele>
        <time>2022-04-12T15:01:12Z</time>
      </trkpt>
      <trkpt lat="50.01148" lon="2.00284">
        <ele>12.6</ele>
        <time>2022-04-12T15:01:13Z</time>
      </trkpt>
      <trkpt lat="50.01148" lon="2.00284">
        <ele>12.6</ele>
        <time>2022-04-12T15:01:14Z</time>
      </trkpt>
      <trkpt lat="50.01148" lon="2.00284">
        <ele>12.6</ele>
        <time>2022-04-12T15:01:15Z</time>
      </trkpt>
      <trkpt lat="50.01148" lon="2.00284">
        <ele>12.6</ele>
        <time>2022-04-12T15:01:16Z</time>
      </trkpt>
      <trkpt lat="50.01148" lon="2.00284">
        <ele>12.6</ele>
        <time>2022-04-12T15:01:17Z</time>
      </trkpt>
      <trkpt lat="50.01148" lon="2.00284">
        <ele>12.6</ele>
        <time>2022-04-12T15:01:18Z</time>
      </trkpt>
      <trkpt lat="50.01148" lon="2.00284">
        <ele>12.6</ele>
        <time>2022-04-12T15:01:19Z</time>
      </trkpt>
      <trkpt lat="50.01148" lon="2.00284">
        <ele>12.6</ele>
        <time>2022-04-12T15:01:20Z</time>
      </trkpt>
      <trkpt lat="50.01148" lon="2.00284">
        <ele>12.6</ele>
        <time>2022-04-12T15:01:21Z</time>
      </trkpt>
      <trkpt lat="50.01148" lon="2.00284">
        <ele>12.6</ele>
        <time>2022-04-12T15:01:22Z</time>
      </trkpt>
      <trkpt lat="50.01148" lon="2.00284">
        <ele>12.6</ele>
        <time>2022-04-12T15:01:23Z</time>
      </trkpt>
      <trkpt lat="50.01148" lon="2.00284">
        <ele>12.6</ele>
        <time>2022-04-12T15:01:24Z</time>
      </trkpt>
      <trkpt lat="50.01148" lon="2.00284">
        <ele>12.6</ele>
        <time>2022-04-12T15:01:25Z</time>
      </trkpt>
      <trkpt lat="50.01148" lon="2.00284">
        <ele>12.6</ele>
        <time>2022-04-12T15:01:26Z</time>
      </trkpt>
      <trkpt lat="50.01148" lon="2.00284">
        <ele>12.6</ele>
        <time>2022-04-12T15:01:27Z</time>
      </trkpt>
      <trkpt lat="50.01148" lon="2.00284">
        <ele>12.6</ele>
        <time>2022-04-12T15:01:28Z</time>
      </trkpt>
      <trkpt lat="50.01148" lon="2.00284">
        <ele>12.6</ele>
        <time>2022-04-12T15:01:29Z</time>
      </trkpt>
      <trkpt lat="50.01148" lon="2.00284">
        <ele>12.6</ele>
        <time>2022-04-12T15:01:30Z</time>
      </trkpt>
      <trkpt lat="50.01148" lon="2.00284">
        <ele>12.6</ele>
        <time>2022-04-12T15:01:31Z</time>
      </trkpt>
      <trkpt lat="50.01148" lon="2.00284">
        <ele>12.6</ele>
        <time>2022-04-12T15:01:32Z</time>
      </trkpt>
      <trkpt lat="50.01148" lon="2.00284">
        <ele>12.6</ele>
        <time>2022-04-12T15:01:33Z</time>
      </trkpt>
      <trkpt lat="50.01148" lon="2.00284">
        <ele>12.6</ele>
        <time>2022-04-12T15:01:34Z</time>
      </trkpt>
      <trkpt lat="50.01148" lon="2.00284">
        <ele>12.6</ele>
        <time>2022-04-12T15:01:35Z</time>
      </trkpt>
      <trkpt lat="50.01148" lon="2.00284">
        <ele>12.6</ele>
        <time>2022-04-12T15:01:36Z</time>
      </trkpt>
      <trkpt lat="50.01148" lon="2.00284">
        <ele>12.6</ele>
        <time>2022-04-12T15:01:37Z</time>
      </trkpt>
      <trkpt lat="50.01148" lon="2.00284">
        <ele>12.6</ele>
        <time>2022-04-12T15:01:38Z</time>
      </trkpt>
      <trkpt lat="50.01148" lon="2.00284">
        <ele>12.6</ele>
        <time>2022-04-12T15:01:39Z</time>
      </trkpt>
      <trkpt lat="50.01148" lon="2.00284">
        <ele>12.6</ele>
        <time>2022-04-12T15:01:40Z</time>
      </trkpt>
      <trkpt lat="50.01148" lon="2.00284">
        <ele>12.6</ele>
        <time>2022-04-12T15:01:41Z</time>
      </trkpt>
      <trkpt lat="50.01148" lon="2.00284">
        <ele>12.6</ele>
        <time>2022-04-12T15:01:42Z</time>
      </trkpt>
      <trkpt lat="50.01148" lon="2.00284">
        <ele>12.6</ele>
        <time>2022-04-12T15:01:43Z</time>
      </trkpt>
      <trkpt lat="50.01148" lon="2.00284">
        <ele>12.6</ele>
        <time>2022-04-12T15:01:44Z</time>
      </trkpt>
      <trkpt lat="50.01148" lon="2.00283">
        <ele>12.6</ele>
        <time>2022-04-12T15:01:45Z</time>
      </trkpt>
      <trkpt lat="50.01148" lon="2.00282">
        <ele>12.6</ele>
        <time>2022-04-12T15:01:46Z</time>
      </trkpt>
      <trkpt lat="50.01149" lon="2.00282">
        <ele>12.6</ele>
        <time>2022-04-12T15:01:47Z</time>
      </trkpt>
      <trkpt lat="50.01149" lon="2.00284">
        <ele>12.6</ele>
        <time>2022-04-12T15:01:48Z</time>
      </trkpt>
      <trkpt lat="50.01149" lon="2.00284">
        <ele>12.6</ele>
        <time>2022-04-12T15:01:49Z</time>
      </trkpt>
      <trkpt lat="50.01149" lon="2.00283">
        <ele>12.6</ele>
        <time>2022-04-12T15:01:50Z</time>
      </trkpt>
      <trkpt lat="50.0115" lon="2.00283">
        <ele>12.6</ele>
        <time>2022-04-12T15:01:51Z</time>
      </trkpt>
      <trkpt lat="50.0115" lon="2.00283">
        <ele>12.6</ele>
        <time>2022-04-12T15:01:53Z</time>
      </trkpt>
      <trkpt lat="50.01151" lon="2.00282">
        <ele>12.6</ele>
        <time>2022-04-12T15:01:54Z</time>
      </trkpt>
      <trkpt lat="50.01152" lon="2.00282">
        <ele>12.6</ele>
        <time>2022-04-12T15:01:55Z</time>
      </trkpt>
      <trkpt lat="50.01154" lon="2.00282">
        <ele>12.6</ele>
        <time>2022-04-12T15:01:57Z</time>
      </trkpt>
      <trkpt lat="50.01154" lon="2.00281">
        <ele>12.6</ele>
        <time>2022-04-12T15:01:58Z</time>
      </trkpt>
      <trkpt lat="50.01155" lon="2.00281">
        <ele>12.6</ele>
        <time>2022-04-12T15:01:59Z</time>
      </trkpt>
      <trkpt lat="50.01156" lon="2.00281">
        <ele>12.6</ele>
        <time>2022-04-12T15:02:01Z</time>
      </trkpt>
      <trkpt lat="50.01157" lon="2.00281">
        <ele>12.6</ele>
        <time>2022-04-12T15:02:02Z</time>
      </trkpt>
      <trkpt lat="50.01157" lon="2.00281">
        <ele>12.6</ele>
        <time>2022-04-12T15:02:03Z</time>
      </trkpt>
      <trkpt lat="50.01158" lon="2.00281">
        <ele>12.6</ele>
        <time>2022-04-12T15:02:04Z</time>
      </trkpt>
      <trkpt lat="50.01158" lon="2.00281">
        <ele>12.6</ele>
        <time>2022-04-12T15:02:05Z</time>
      </trkpt>
      <trkpt lat="50.01158" lon="2.00281">
        <ele>12.6</ele>
        <time>2022-04-12T15:02:06Z</time>
      </trkpt>
      <trkpt lat="50.01158" lon="2.00281">
        <ele>12.6</ele>
        <time>2022-04-12T15:02:07Z</time>
      </trkpt>
      <trkpt lat="50.01159" lon="2.00281">
        <ele>12.6</ele>
        <time>2022-04-12T15:02:09Z</time>
      </trkpt>
      <trkpt lat="50.01159" lon="2.00281">
        <ele>12.6</ele>
        <time>2022-04-12T15:02:10Z</time>
      </trkpt>
      <trkpt lat="50.0116" lon="2.0028">
        <ele>12.6</ele>
        <time>2022-04-12T15:02:11Z</time>
      </trkpt>
      <trkpt lat="50.0116" lon="2.0028">
        <ele>12.6</ele>
        <time>2022-04-12T15:02:12Z</time>
      </trkpt>
      <trkpt lat="50.01161" lon="2.0028">
        <ele>12.6</ele>
        <time>2022-04-12T15:02:13Z</time>
      </trkpt>
      <trkpt lat="50.01162" lon="2.0028">
        <ele>12.6</ele>
        <time>2022-04-12T15:02:14Z</time>
      </trkpt>
      <trkpt lat="50.01163" lon="2.0028">
        <ele>12.6</ele>
        <time>2022-04-12T15:02:15Z</time>
      </trkpt>
      <trkpt lat="50.01164" lon="2.00279">
        <ele>12.6</ele>
        <time>2022-04-12T15:02:16Z</time>
      </trkpt>
      <trkpt lat="50.01164" lon="2.00279">
        <ele>12.6</ele>
        <time>2022-04-12T15:02:18Z</time>
      </trkpt>
      <trkpt lat="50.01164" lon="2.0028">
        <ele>12.6</ele>
        <time>2022-04-12T15:02:19Z</time>
      </trkpt>
      <trkpt lat="50.01163" lon="2.00281">
        <ele>12.6</ele>
        <time>2022-04-12T15:02:20Z</time>
      </trkpt>
      <trkpt lat="50.01162" lon="2.00282">
        <ele>12.6</ele>
        <time>2022-04-12T15:02:21Z</time>
      </trkpt>
      <trkpt lat="50.01161" lon="2.00283">
        <ele>12.6</ele>
        <time>2022-04-12T15:02:22Z</time>
      </trkpt>
      <trkpt lat="50.0116" lon="2.00283">
        <ele>12.6</ele>
        <time>2022-04-12T15:02:23Z</time>
      </trkpt>
      <trkpt lat="50.01159" lon="2.00283">
        <ele>12.6</ele>
        <time>2022-04-12T15:02:24Z</time>
      </trkpt>
      <trkpt lat="50.01159" lon="2.00283">
        <ele>12.6</ele>
        <time>2022-04-12T15:02:25Z</time>
      </trkpt>
      <trkpt lat="50.01158" lon="2.00282">
        <ele>12.6</ele>
        <time>2022-04-12T15:02:26Z</time>
      </trkpt>
      <trkpt lat="50.01158" lon="2.00282">
        <ele>12.6</ele>
        <time>2022-04-12T15:02:27Z</time>
      </trkpt>
      <trkpt lat="50.01158" lon="2.00282">
        <ele>12.6</ele>
        <time>2022-04-12T15:02:28Z</time>
      </trkpt>
      <trkpt lat="50.01158" lon="2.00282">
        <ele>12.6</ele>
        <time>2022-04-12T15:02:29Z</time>
      </trkpt>
      <trkpt lat="50.01158" lon="2.00281">
        <ele>12.6</ele>
        <time>2022-04-12T15:02:30Z</time>
      </trkpt>
      <trkpt lat="50.01158" lon="2.00281">
        <ele>12.6</ele>
        <time>2022-04-12T15:02:31Z</time>
      </trkpt>
      <trkpt lat="50.01158" lon="2.00281">
        <ele>12.6</ele>
        <time>2022-04-12T15:02:32Z</time>
      </trkpt>
      <trkpt lat="50.01157" lon="2.00281">
        <ele>12.6</ele>
        <time>2022-04-12T15:02:33Z</time>
      </trkpt>
      <trkpt lat="50.01157" lon="2.00281">
        <ele>12.6</ele>
        <time>2022-04-12T15:02:34Z</time>
      </trkpt>
      <trkpt lat="50.01157" lon="2.00281">
        <ele>12.6</ele>
        <time>2022-04-12T15:02:35Z</time>
      </trkpt>
      <trkpt lat="50.01157" lon="2.00281">
        <ele>12.6</ele>
        <time>2022-04-12T15:02:36Z</time>
      </trkpt>
      <trkpt lat="50.01157" lon="2.00281">
        <ele>12.6</ele>
        <time>2022-04-12T15:02:37Z</time>
      </trkpt>
      <trkpt lat="50.01157" lon="2.00281">
        <ele>12.6</ele>
        <time>2022-04-12T15:02:38Z</time>
      </trkpt>
      <trkpt lat="50.01157" lon="2.00281">
        <ele>12.6</ele>
        <time>2022-04-12T15:02:39Z</time>
      </trkpt>
      <trkpt lat="50.01157" lon="2.00281">
        <ele>12.6</ele>
        <time>2022-04-12T15:02:40Z</time>
      </trkpt>
      <trkpt lat="50.01157" lon="2.00281">
        <ele>12.6</ele>
        <time>2022-04-12T15:02:41Z</time>
      </trkpt>
      <trkpt lat="50.01157" lon="2.00281">
        <ele>12.6</ele>
        <time>2022-04-12T15:02:42Z</time>
      </trkpt>
      <trkpt lat="50.01157" lon="2.00281">
        <ele>12.6</ele>
        <time>2022-04-12T15:02:43Z</time>
      </trkpt>
      <trkpt lat="50.01157" lon="2.00281">
        <ele>12.6</ele>
        <time>2022-04-12T15:02:44Z</time>
      </trkpt>
      <trkpt lat="50.01157" lon="2.00281">
        <ele>12.6</ele>
        <time>2022-04-12T15:02:45Z</time>
      </trkpt>
      <trkpt lat="50.01157" lon="2.00281">
        <ele>12.6</ele>
        <time>2022-04-12T15:02:46Z</time>
      </trkpt>
      <trkpt lat="50.01157" lon="2.00281">
        <ele>12.6</ele>
        <time>2022-04-12T15:02:47Z</time>
      </trkpt>
      <trkpt lat="50.01157" lon="2.00281">
        <ele>12.6</ele>
        <time>2022-04-12T15:02:48Z</time>
      </trkpt>
      <trkpt lat="50.01157" lon="2.00281">
        <ele>12.6</ele>
        <time>2022-04-12T15:02:49Z</time>
      </trkpt>
      <trkpt lat="50.01157" lon="2.00281">
        <ele>12.6</ele>
        <time>2022-04-12T15:02:50Z</time>
      </trkpt>
      <trkpt lat="50.01157" lon="2.00281">
        <ele>12.6</ele>
        <time>2022-04-12T15:02:51Z</time>
      </trkpt>
      <trkpt lat="50.01157" lon="2.00281">
        <ele>12.6</ele>
        <time>2022-04-12T15:02:52Z</time>
      </trkpt>
      <trkpt lat="50.01157" lon="2.00281">
        <ele>12.6</ele>
        <time>2022-04-12T15:02:53Z</time>
      </trkpt>
      <trkpt lat="50.01157" lon="2.00281">
        <ele>12.6</ele>
        <time>2022-04-12T15:02:54Z</time>
      </trkpt>
      <trkpt lat="50.01157" lon="2.00281">
        <ele>12.6</ele>
        <time>2022-04-12T15:02:55Z</time>
      </trkpt>
      <trkpt lat="50.01157" lon="2.00281">
        <ele>12.6</ele>
        <time>2022-04-12T15:02:57Z</time>
      </trkpt>
      <trkpt lat="50.01157" lon="2.00281">
        <ele>12.6</ele>
        <time>2022-04-12T15:02:58Z</time>
      </trkpt>
      <trkpt lat="50.01157" lon="2.00281">
        <ele>12.6</ele>
        <time>2022-04-12T15:02:59Z</time>
      </trkpt>
      <trkpt lat="50.01157" lon="2.00281">
        <ele>12.6</ele>
        <time>2022-04-12T15:03:00Z</time>
      </trkpt>
      <trkpt lat="50.01157" lon="2.00281">
        <ele>12.6</ele>
        <time>2022-04-12T15:03:01Z</time>
      </trkpt>
      <trkpt lat="50.01157" lon="2.00281">
        <ele>12.6</ele>
        <time>2022-04-12T15:03:02Z</time>
      </trkpt>
      <trkpt lat="50.01157" lon="2.00281">
        <ele>12.6</ele>
        <time>2022-04-12T15:03:03Z</time>
      </trkpt>
      <trkpt lat="50.01158" lon="2.00278">
        <ele>12.6</ele>
        <time>2022-04-12T15:03:04Z</time>
      </trkpt>
      <trkpt lat="50.01158" lon="2.00274">
        <ele>12.6</ele>
        <time>2022-04-12T15:03:05Z</time>
      </trkpt>
      <trkpt lat="50.01158" lon="2.00272">
        <ele>12.6</ele>
        <time>2022-04-12T15:03:06Z</time>
      </trkpt>
      <trkpt lat="50.01158" lon="2.00271">
        <ele>12.6</ele>
        <time>2022-04-12T15:03:07Z</time>
      </trkpt>
      <trkpt lat="50.01158" lon="2.0027">
        <ele>12.6</ele>
        <time>2022-04-12T15:03:08Z</time>
      </trkpt>
      <trkpt lat="50.01158" lon="2.0027">
        <ele>12.7</ele>
        <time>2022-04-12T15:03:09Z</time>
      </trkpt>
      <trkpt lat="50.01158" lon="2.00269">
        <ele>12.7</ele>
        <time>2022-04-12T15:03:10Z</time>
      </trkpt>
      <trkpt lat="50.01159" lon="2.00269">
        <ele>12.7</ele>
        <time>2022-04-12T15:03:11Z</time>
      </trkpt>
      <trkpt lat="50.01159" lon="2.00269">
        <ele>12.7</ele>
        <time>2022-04-12T15:03:12Z</time>
      </trkpt>
      <trkpt lat="50.01159" lon="2.00269">
        <ele>12.7</ele>
        <time>2022-04-12T15:03:13Z</time>
      </trkpt>
      <trkpt lat="50.01159" lon="2.00269">
        <ele>12.7</ele>
        <time>2022-04-12T15:03:15Z</time>
      </trkpt>
      <trkpt lat="50.01159" lon="2.00269">
        <ele>12.7</ele>
        <time>2022-04-12T15:03:16Z</time>
      </trkpt>
      <trkpt lat="50.01159" lon="2.00269">
        <ele>12.8</ele>
        <time>2022-04-12T15:03:17Z</time>
      </trkpt>
      <trkpt lat="50.01159" lon="2.00269">
        <ele>12.8</ele>
        <time>2022-04-12T15:03:18Z</time>
      </trkpt>
      <trkpt lat="50.01159" lon="2.00269">
        <ele>12.8</ele>
        <time>2022-04-12T15:03:19Z</time>
      </trkpt>
      <trkpt lat="50.01159" lon="2.00269">
        <ele>12.8</ele>
        <time>2022-04-12T15:03:20Z</time>
      </trkpt>
      <trkpt lat="50.01159" lon="2.00269">
        <ele>12.8</ele>
        <time>2022-04-12T15:03:21Z</time>
      </trkpt>
      <trkpt lat="50.01159" lon="2.00269">
        <ele>12.8</ele>
        <time>2022-04-12T15:03:22Z</time>
      </trkpt>
      <trkpt lat="50.01159" lon="2.00269">
        <ele>12.8</ele>
        <time>2022-04-12T15:03:23Z</time>
      </trkpt>
      <trkpt lat="50.01159" lon="2.00269">
        <ele>12.9</ele>
        <time>2022-04-12T15:03:24Z</time>
      </trkpt>
      <trkpt lat="50.01159" lon="2.00269">
        <ele>12.9</ele>
        <time>2022-04-12T15:03:25Z</time>
      </trkpt>
      <trkpt lat="50.01159" lon="2.00269">
        <ele>12.9</ele>
        <time>2022-04-12T15:03:26Z</time>
      </trkpt>
      <trkpt lat="50.01159" lon="2.00269">
        <ele>12.9</ele>
        <time>2022-04-12T15:03:27Z</time>
      </trkpt>
      <trkpt lat="50.01159" lon="2.00269">
        <ele>12.9</ele>
        <time>2022-04-12T15:03:28Z</time>
      </trkpt>
      <trkpt lat="50.01159" lon="2.00269">
        <ele>12.9</ele>
        <time>2022-04-12T15:03:29Z</time>
      </trkpt>
      <trkpt lat="50.01159" lon="2.00269">
        <ele>12.9</ele>
        <time>2022-04-12T15:03:30Z</time>
      </trkpt>
      <trkpt lat="50.01159" lon="2.00269">
        <ele>13</ele>
        <time>2022-04-12T15:03:31Z</time>
      </trkpt>
      <trkpt lat="50.01159" lon="2.00269">
        <ele>13</ele>
        <time>2022-04-12T15:03:32Z</time>
      </trkpt>
      <trkpt lat="50.01159" lon="2.00269">
        <ele>13</ele>
        <time>2022-04-12T15:03:33Z</time>
      </trkpt>
      <trkpt lat="50.01159" lon="2.00269">
        <ele>13</ele>
        <time>2022-04-12T15:03:34Z</time>
      </trkpt>
      <trkpt lat="50.01159" lon="2.00269">
        <ele>13</ele>
        <time>2022-04-12T15:03:35Z</time>
      </trkpt>
      <trkpt lat="50.01159" lon="2.00269">
        <ele>13</ele>
        <time>2022-04-12T15:03:36Z</time>
      </trkpt>
      <trkpt lat="50.01159" lon="2.00269">
        <ele>13</ele>
        <time>2022-04-12T15:03:37Z</time>
      </trkpt>
      <trkpt lat="50.01159" lon="2.00269">
        <ele>13</ele>
        <time>2022-04-12T15:03:38Z</time>
      </trkpt>
      <trkpt lat="50.01159" lon="2.00269">
        <ele>13.1</ele>
        <time>2022-04-12T15:03:39Z</time>
      </trkpt>
      <trkpt lat="50.01159" lon="2.00269">
        <ele>13.1</ele>
        <time>2022-04-12T15:03:40Z</time>
      </trkpt>
      <trkpt lat="50.01159" lon="2.00269">
        <ele>13.1</ele>
        <time>2022-04-12T15:03:41Z</time>
      </trkpt>
      <trkpt lat="50.01159" lon="2.00269">
        <ele>13.1</ele>
        <time>2022-04-12T15:03:42Z</time>
      </trkpt>
      <trkpt lat="50.01159" lon="2.00269">
        <ele>13.1</ele>
        <time>2022-04-12T15:03:43Z</time>
      </trkpt>
      <trkpt lat="50.01159" lon="2.00269">
        <ele>13.1</ele>
        <time>2022-04-12T15:03:44Z</time>
      </trkpt>
      <trkpt lat="50.01159" lon="2.00269">
        <ele>13.1</ele>
        <time>2022-04-12T15:03:45Z</time>
      </trkpt>
      <trkpt lat="50.01159" lon="2.00269">
        <ele>13.2</ele>
        <time>2022-04-12T15:03:46Z</time>
      </trkpt>
      <trkpt lat="50.01159" lon="2.00269">
        <ele>13.2</ele>
        <time>2022-04-12T15:03:47Z</time>
      </trkpt>
      <trkpt lat="50.01159" lon="2.00269">
        <ele>13.2</ele>
        <time>2022-04-12T15:03:48Z</time>
      </trkpt>
      <trkpt lat="50.01159" lon="2.00269">
        <ele>13.2</ele>
        <time>2022-04-12T15:03:49Z</time>
      </trkpt>
      <trkpt lat="50.01159" lon="2.00269">
        <ele>13.2</ele>
        <time>2022-04-12T15:03:50Z</time>
      </trkpt>
      <trkpt lat="50.01159" lon="2.00269">
        <ele>13.2</ele>
        <time>2022-04-12T15:03:51Z</time>
      </trkpt>
      <trkpt lat="50.01159" lon="2.00269">
        <ele>13.2</ele>
        <time>2022-04-12T15:03:52Z</time>
      </trkpt>
      <trkpt lat="50.01159" lon="2.00269">
        <ele>13.3</ele>
        <time>2022-04-12T15:03:53Z</time>
      </trkpt>
      <trkpt lat="50.01159" lon="2.00269">
        <ele>13.3</ele>
        <time>2022-04-12T15:03:54Z</time>
      </trkpt>
      <trkpt lat="50.01159" lon="2.00269">
        <ele>13.3</ele>
        <time>2022-04-12T15:03:55Z</time>
      </trkpt>
      <trkpt lat="50.01159" lon="2.00269">
        <ele>13.3</ele>
        <time>2022-04-12T15:03:56Z</time>
      </trkpt>
      <trkpt lat="50.01159" lon="2.00269">
        <ele>13.3</ele>
        <time>2022-04-12T15:03:57Z</time>
      </trkpt>
      <trkpt lat="50.01159" lon="2.00269">
        <ele>13.3</ele>
        <time>2022-04-12T15:03:58Z</time>
      </trkpt>
      <trkpt lat="50.01159" lon="2.00269">
        <ele>13.3</ele>
        <time>2022-04-12T15:03:59Z</time>
      </trkpt>
      <trkpt lat="50.01159" lon="2.00269">
        <ele>13.4</ele>
        <time>2022-04-12T15:04:00Z</time>
      </trkpt>
      <trkpt lat="50.01159" lon="2.00269">
        <ele>13.4</ele>
        <time>2022-04-12T15:04:01Z</time>
      </trkpt>
      <trkpt lat="50.01159" lon="2.00269">
        <ele>13.4</ele>
        <time>2022-04-12T15:04:02Z</time>
      </trkpt>
      <trkpt lat="50.01159" lon="2.00269">
        <ele>13.4</ele>
        <time>2022-04-12T15:04:03Z</time>
      </trkpt>
      <trkpt lat="50.01159" lon="2.00269">
        <ele>13.4</ele>
        <time>2022-04-12T15:04:04Z</time>
      </trkpt>
      <trkpt lat="50.01159" lon="2.00269">
        <ele>13.4</ele>
        <time>2022-04-12T15:04:05Z</time>
      </trkpt>
      <trkpt lat="50.01159" lon="2.00269">
        <ele>13.4</ele>
        <time>2022-04-12T15:04:06Z</time>
      </trkpt>
      <trkpt lat="50.01159" lon="2.00269">
        <ele>13.5</ele>
        <time>2022-04-12T15:04:07Z</time>
      </trkpt>
      <trkpt lat="50.01159" lon="2.00269">
        <ele>13.5</ele>
        <time>2022-04-12T15:04:08Z</time>
      </trkpt>
      <trkpt lat="50.01159" lon="2.00269">
        <ele>13.5</ele>
        <time>2022-04-12T15:04:09Z</time>
      </trkpt>
      <trkpt lat="50.01159" lon="2.00269">
        <ele>13.5</ele>
        <time>2022-04-12T15:04:10Z</time>
      </trkpt>
      <trkpt lat="50.01159" lon="2.00269">
        <ele>13.5</ele>
        <time>2022-04-12T15:04:11Z</time>
      </trkpt>
      <trkpt lat="50.0116" lon="2.00269">
        <ele>13.6</ele>
        <time>2022-04-12T15:04:12Z</time>
      </trkpt>
      <trkpt lat="50.0116" lon="2.00269">
        <ele>13.6</ele>
        <time>2022-04-12T15:04:13Z</time>
      </trkpt>
      <trkpt lat="50.0116" lon="2.00269">
        <ele>13.6</ele>
        <time>2022-04-12T15:04:14Z</time>
      </trkpt>
      <trkpt lat="50.0116" lon="2.00269">
        <ele>13.6</ele>
        <time>2022-04-12T15:04:15Z</time>
      </trkpt>
      <trkpt lat="50.0116" lon="2.00269">
        <ele>13.6</ele>
        <time>2022-04-12T15:04:16Z</time>
      </trkpt>
      <trkpt lat="50.0116" lon="2.00269">
        <ele>13.6</ele>
        <time>2022-04-12T15:04:17Z</time>
      </trkpt>
      <trkpt lat="50.0116" lon="2.00269">
        <ele>13.6</ele>
        <time>2022-04-12T15:04:18Z</time>
      </trkpt>
      <trkpt lat="50.0116" lon="2.00269">
        <ele>13.6</ele>
        <time>2022-04-12T15:04:19Z</time>
      </trkpt>
      <trkpt lat="50.0116" lon="2.00269">
        <ele>13.7</ele>
        <time>2022-04-12T15:04:20Z</time>
      </trkpt>
      <trkpt lat="50.0116" lon="2.00269">
        <ele>13.7</ele>
        <time>2022-04-12T15:04:21Z</time>
      </trkpt>
      <trkpt lat="50.0116" lon="2.00269">
        <ele>13.7</ele>
        <time>2022-04-12T15:04:22Z</time>
      </trkpt>
      <trkpt lat="50.0116" lon="2.00269">
        <ele>13.7</ele>
        <time>2022-04-12T15:04:23Z</time>
      </trkpt>
      <trkpt lat="50.0116" lon="2.00269">
        <ele>13.7</ele>
        <time>2022-04-12T15:04:24Z</time>
      </trkpt>
      <trkpt lat="50.0116" lon="2.00269">
        <ele>13.7</ele>
        <time>2022-04-12T15:04:25Z</time>
      </trkpt>
      <trkpt lat="50.0116" lon="2.00269">
        <ele>13.7</ele>
        <time>2022-04-12T15:04:26Z</time>
      </trkpt>
      <trkpt lat="50.0116" lon="2.00269">
        <ele>13.8</ele>
        <time>2022-04-12T15:04:27Z</time>
      </trkpt>
      <trkpt lat="50.0116" lon="2.00269">
        <ele>13.8</ele>
        <time>2022-04-12T15:04:28Z</time>
      </trkpt>
      <trkpt lat="50.0116" lon="2.00269">
        <ele>13.8</ele>
        <time>2022-04-12T15:04:29Z</time>
      </trkpt>
      <trkpt lat="50.0116" lon="2.00269">
        <ele>13.8</ele>
        <time>2022-04-12T15:04:30Z</time>
      </trkpt>
      <trkpt lat="50.0116" lon="2.00269">
        <ele>13.8</ele>
        <time>2022-04-12T15:04:31Z</time>
      </trkpt>
      <trkpt lat="50.0116" lon="2.00269">
        <ele>13.8</ele>
        <time>2022-04-12T15:04:32Z</time>
      </trkpt>
      <trkpt lat="50.0116" lon="2.00269">
        <ele>13.8</ele>
        <time>2022-04-12T15:04:33Z</time>
      </trkpt>
      <trkpt lat="50.0116" lon="2.00269">
        <ele>13.8</ele>
        <time>2022-04-12T15:04:34Z</time>
      </trkpt>
      <trkpt lat="50.0116" lon="2.00269">
        <ele>13.9</ele>
        <time>2022-04-12T15:04:35Z</time>
      </trkpt>
      <trkpt lat="50.0116" lon="2.00269">
        <ele>13.9</ele>
        <time>2022-04-12T15:04:36Z</time>
      </trkpt>
      <trkpt lat="50.0116" lon="2.00269">
        <ele>13.9</ele>
        <time>2022-04-12T15:04:37Z</time>
      </trkpt>
      <trkpt lat="50.0116" lon="2.00269">
        <ele>13.9</ele>
        <time>2022-04-12T15:04:38Z</time>
      </trkpt>
      <trkpt lat="50.0116" lon="2.00269">
        <ele>13.9</ele>
        <time>2022-04-12T15:04:39Z</time>
      </trkpt>
      <trkpt lat="50.0116" lon="2.00268">
        <ele>13.9</ele>
        <time>2022-04-12T15:04:40Z</time>
      </trkpt>
      <trkpt lat="50.0116" lon="2.00268">
        <ele>13.9</ele>
        <time>2022-04-12T15:04:41Z</time>
      </trkpt>
      <trkpt lat="50.0116" lon="2.00268">
        <ele>13.9</ele>
        <time>2022-04-12T15:04:42Z</time>
      </trkpt>
      <trkpt lat="50.0116" lon="2.00268">
        <ele>14</ele>
        <time>2022-04-12T15:04:43Z</time>
      </trkpt>
      <trkpt lat="50.0116" lon="2.00268">
        <ele>14</ele>
        <time>2022-04-12T15:04:44Z</time>
      </trkpt>
      <trkpt lat="50.0116" lon="2.00268">
        <ele>14</ele>
        <time>2022-04-12T15:04:45Z</time>
      </trkpt>
      <trkpt lat="50.0116" lon="2.00268">
        <ele>14</ele>
        <time>2022-04-12T15:04:46Z</time>
      </trkpt>
      <trkpt lat="50.0116" lon="2.00268">
        <ele>14</ele>
        <time>2022-04-12T15:04:47Z</time>
      </trkpt>
      <trkpt lat="50.0116" lon="2.00268">
        <ele>14</ele>
        <time>2022-04-12T15:04:48Z</time>
      </trkpt>
      <trkpt lat="50.0116" lon="2.00268">
        <ele>14</ele>
        <time>2022-04-12T15:04:49Z</time>
      </trkpt>
      <trkpt lat="50.0116" lon="2.00268">
        <ele>14</ele>
        <time>2022-04-12T15:04:50Z</time>
      </trkpt>
      <trkpt lat="50.0116" lon="2.00268">
        <ele>14</ele>
        <time>2022-04-12T15:04:51Z</time>
      </trkpt>
      <trkpt lat="50.0116" lon="2.00268">
        <ele>14</ele>
        <time>2022-04-12T15:04:52Z</time>
      </trkpt>
      <trkpt lat="50.0116" lon="2.00268">
        <ele>14</ele>
        <time>2022-04-12T15:04:53Z</time>
      </trkpt>
      <trkpt lat="50.0116" lon="2.00268">
        <ele>14</ele>
        <time>2022-04-12T15:04:54Z</time>
      </trkpt>
      <trkpt lat="50.0116" lon="2.00268">
        <ele>14</ele>
        <time>2022-04-12T15:04:55Z</time>
      </trkpt>
      <trkpt lat="50.0116" lon="2.00268">
        <ele>14</ele>
        <time>2022-04-12T15:04:56Z</time>
      </trkpt>
      <trkpt lat="50.0116" lon="2.00268">
        <ele>14</ele>
        <time>2022-04-12T15:04:57Z</time>
      </trkpt>
      <trkpt lat="50.0116" lon="2.00268">
        <ele>14</ele>
        <time>2022-04-12T15:04:58Z</time>
      </trkpt>
      <trkpt lat="50.0116" lon="2.00268">
        <ele>14</ele>
        <time>2022-04-12T15:04:59Z</time>
      </trkpt>
      <trkpt lat="50.0116" lon="2.00268">
        <ele>14</ele>
        <time>2022-04-12T15:05:00Z</time>
      </trkpt>
      <trkpt lat="50.0116" lon="2.00268">
        <ele>14</ele>
        <time>2022-04-12T15:05:01Z</time>
      </trkpt>
      <trkpt lat="50.0116" lon="2.00268">
        <ele>14</ele>
        <time>2022-04-12T15:05:02Z</time>
      </trkpt>
      <trkpt lat="50.0116" lon="2.00268">
        <ele>14</ele>
        <time>2022-04-12T15:05:03Z</time>
      </trkpt>
      <trkpt lat="50.0116" lon="2.00268">
        <ele>14</ele>
        <time>2022-04-12T15:05:04Z</time>
      </trkpt>
      <trkpt lat="50.0116" lon="2.00268">
        <ele>14</ele>
        <time>2022-04-12T15:05:05Z</time>
      </trkpt>
      <trkpt lat="50.0116" lon="2.00268">
        <ele>14</ele>
        <time>2022-04-12T15:05:06Z</time>
      </trkpt>
      <trkpt lat="50.0116" lon="2.00268">
        <ele>14</ele>
        <time>2022-04-12T15:05:07Z</time>
      </trkpt>
      <trkpt lat="50.0116" lon="2.00268">
        <ele>14</ele>
        <time>2022-04-12T15:05:08Z</time>
      </trkpt>
      <trkpt lat="50.0116" lon="2.00268">
        <ele>14</ele>
        <time>2022-04-12T15:05:09Z</time>
      </trkpt>
      <trkpt lat="50.0116" lon="2.00268">
        <ele>14</ele>
        <time>2022-04-12T15:05:10Z</time>
      </trkpt>
      <trkpt lat="50.0116" lon="2.00268">
        <ele>14</ele>
        <time>2022-04-12T15:05:11Z</time>
      </trkpt>
      <trkpt lat="50.0116" lon="2.00268">
        <ele>14</ele>
        <time>2022-04-12T15:05:12Z</time>
      </trkpt>
      <trkpt lat="50.0116" lon="2.00268">
        <ele>14</ele>
        <time>2022-04-12T15:05:13Z</time>
      </trkpt>
      <trkpt lat="50.0116" lon="2.00268">
        <ele>14</ele>
        <time>2022-04-12T15:05:14Z</time>
      </trkpt>
      <trkpt lat="50.0116" lon="2.00268">
        <ele>14</ele>
        <time>2022-04-12T15:05:15Z</time>
      </trkpt>
      <trkpt lat="50.0116" lon="2.00268">
        <ele>14</ele>
        <time>2022-04-12T15:05:16Z</time>
      </trkpt>
      <trkpt lat="50.0116" lon="2.00268">
        <ele>14</ele>
        <time>2022-04-12T15:05:17Z</time>
      </trkpt>
      <trkpt lat="50.0116" lon="2.00268">
        <ele>14</ele>
        <time>2022-04-12T15:05:18Z</time>
      </trkpt>
      <trkpt lat="50.0116" lon="2.00268">
        <ele>14</ele>
        <time>2022-04-12T15:05:19Z</time>
      </trkpt>
      <trkpt lat="50.0116" lon="2.00268">
        <ele>14</ele>
        <time>2022-04-12T15:05:20Z</time>
      </trkpt>
      <trkpt lat="50.0116" lon="2.00268">
        <ele>14</ele>
        <time>2022-04-12T15:05:21Z</time>
      </trkpt>
      <trkpt lat="50.0116" lon="2.00268">
        <ele>14</ele>
        <time>2022-04-12T15:05:22Z</time>
      </trkpt>
      <trkpt lat="50.0116" lon="2.00268">
        <ele>14</ele>
        <time>2022-04-12T15:05:23Z</time>
      </trkpt>
      <trkpt lat="50.0116" lon="2.00268">
        <ele>14</ele>
        <time>2022-04-12T15:05:24Z</time>
      </trkpt>
      <trkpt lat="50.0116" lon="2.00268">
        <ele>14</ele>
        <time>2022-04-12T15:05:25Z</time>
      </trkpt>
      <trkpt lat="50.0116" lon="2.00268">
        <ele>14</ele>
        <time>2022-04-12T15:05:26Z</time>
      </trkpt>
      <trkpt lat="50.0116" lon="2.00268">
        <ele>14</ele>
        <time>2022-04-12T15:05:27Z</time>
      </trkpt>
      <trkpt lat="50.0116" lon="2.00268">
        <ele>14</ele>
        <time>2022-04-12T15:05:28Z</time>
      </trkpt>
      <trkpt lat="50.0116" lon="2.00268">
        <ele>14</ele>
        <time>2022-04-12T15:05:29Z</time>
      </trkpt>
      <trkpt lat="50.0116" lon="2.00268">
        <ele>14</ele>
        <time>2022-04-12T15:05:30Z</time>
      </trkpt>
      <trkpt lat="50.0116" lon="2.00268">
        <ele>14</ele>
        <time>2022-04-12T15:05:31Z</time>
      </trkpt>
      <trkpt lat="50.0116" lon="2.00268">
        <ele>14</ele>
        <time>2022-04-12T15:05:32Z</time>
      </trkpt>
      <trkpt lat="50.0116" lon="2.00268">
        <ele>14</ele>
        <time>2022-04-12T15:05:33Z</time>
      </trkpt>
      <trkpt lat="50.0116" lon="2.00268">
        <ele>14</ele>
        <time>2022-04-12T15:05:34Z</time>
      </trkpt>
      <trkpt lat="50.0116" lon="2.00268">
        <ele>14</ele>
        <time>2022-04-12T15:05:35Z</time>
      </trkpt>
      <trkpt lat="50.0116" lon="2.00268">
        <ele>14</ele>
        <time>2022-04-12T15:05:36Z</time>
      </trkpt>
      <trkpt lat="50.0116" lon="2.00268">
        <ele>14</ele>
        <time>2022-04-12T15:05:37Z</time>
      </trkpt>
      <trkpt lat="50.0116" lon="2.00268">
        <ele>14</ele>
        <time>2022-04-12T15:05:38Z</time>
      </trkpt>
      <trkpt lat="50.0116" lon="2.00268">
        <ele>14</ele>
        <time>2022-04-12T15:05:39Z</time>
      </trkpt>
      <trkpt lat="50.0116" lon="2.00268">
        <ele>14</ele>
        <time>2022-04-12T15:05:40Z</time>
      </trkpt>
      <trkpt lat="50.0116" lon="2.00268">
        <ele>14</ele>
        <time>2022-04-12T15:05:41Z</time>
      </trkpt>
      <trkpt lat="50.01161" lon="2.00268">
        <ele>14</ele>
        <time>2022-04-12T15:05:42Z</time>
      </trkpt>
      <trkpt lat="50.01161" lon="2.00268">
        <ele>14</ele>
        <time>2022-04-12T15:05:43Z</time>
      </trkpt>
      <trkpt lat="50.01161" lon="2.00268">
        <ele>14</ele>
        <time>2022-04-12T15:05:44Z</time>
      </trkpt>
      <trkpt lat="50.01161" lon="2.00268">
        <ele>14</ele>
        <time>2022-04-12T15:05:45Z</time>
      </trkpt>
      <trkpt lat="50.01161" lon="2.00268">
        <ele>14</ele>
        <time>2022-04-12T15:05:46Z</time>
      </trkpt>
      <trkpt lat="50.01161" lon="2.00268">
        <ele>14</ele>
        <time>2022-04-12T15:05:47Z</time>
      </trkpt>
      <trkpt lat="50.01161" lon="2.00268">
        <ele>14</ele>
        <time>2022-04-12T15:05:48Z</time>
      </trkpt>
      <trkpt lat="50.01161" lon="2.00268">
        <ele>14</ele>
        <time>2022-04-12T15:05:49Z</time>
      </trkpt>
      <trkpt lat="50.01161" lon="2.00268">
        <ele>14</ele>
        <time>2022-04-12T15:05:50Z</time>
      </trkpt>
      <trkpt lat="50.01161" lon="2.00268">
        <ele>14</ele>
        <time>2022-04-12T15:05:51Z</time>
      </trkpt>
      <trkpt lat="50.01161" lon="2.00268">
        <ele>14</ele>
        <time>2022-04-12T15:05:52Z</time>
      </trkpt>
      <trkpt lat="50.01161" lon="2.00268">
        <ele>14</ele>
        <time>2022-04-12T15:05:53Z</time>
      </trkpt>
      <trkpt lat="50.01161" lon="2.00268">
        <ele>14</ele>
        <time>2022-04-12T15:05:54Z</time>
      </trkpt>
      <trkpt lat="50.01161" lon="2.00268">
        <ele>14</ele>
        <time>2022-04-12T15:05:55Z</time>
      </trkpt>
      <trkpt lat="50.01161" lon="2.00268">
        <ele>14</ele>
        <time>2022-04-12T15:05:56Z</time>
      </trkpt>
      <trkpt lat="50.01161" lon="2.00268">
        <ele>14</ele>
        <time>2022-04-12T15:05:57Z</time>
      </trkpt>
      <trkpt lat="50.01161" lon="2.00268">
        <ele>14</ele>
        <time>2022-04-12T15:05:58Z</time>
      </trkpt>
      <trkpt lat="50.01161" lon="2.00268">
        <ele>14</ele>
        <time>2022-04-12T15:05:59Z</time>
      </trkpt>
      <trkpt lat="50.01161" lon="2.00268">
        <ele>14</ele>
        <time>2022-04-12T15:06:00Z</time>
      </trkpt>
      <trkpt lat="50.01161" lon="2.00268">
        <ele>14</ele>
        <time>2022-04-12T15:06:01Z</time>
      </trkpt>
      <trkpt lat="50.01161" lon="2.00268">
        <ele>14</ele>
        <time>2022-04-12T15:06:02Z</time>
      </trkpt>
      <trkpt lat="50.01161" lon="2.00268">
        <ele>14</ele>
        <time>2022-04-12T15:06:03Z</time>
      </trkpt>
      <trkpt lat="50.01161" lon="2.00268">
        <ele>14</ele>
        <time>2022-04-12T15:06:04Z</time>
      </trkpt>
      <trkpt lat="50.01161" lon="2.00268">
        <ele>14</ele>
        <time>2022-04-12T15:06:05Z</time>
      </trkpt>
      <trkpt lat="50.01161" lon="2.00268">
        <ele>14</ele>
        <time>2022-04-12T15:06:06Z</time>
      </trkpt>
      <trkpt lat="50.01161" lon="2.00268">
        <ele>14</ele>
        <time>2022-04-12T15:06:07Z</time>
      </trkpt>
      <trkpt lat="50.01161" lon="2.00268">
        <ele>14</ele>
        <time>2022-04-12T15:06:08Z</time>
      </trkpt>
      <trkpt lat="50.01161" lon="2.00268">
        <ele>14</ele>
        <time>2022-04-12T15:06:09Z</time>
      </trkpt>
      <trkpt lat="50.01161" lon="2.00268">
        <ele>14</ele>
        <time>2022-04-12T15:06:10Z</time>
      </trkpt>
      <trkpt lat="50.01161" lon="2.00268">
        <ele>14</ele>
        <time>2022-04-12T15:06:11Z</time>
      </trkpt>
      <trkpt lat="50.01161" lon="2.00268">
        <ele>14</ele>
        <time>2022-04-12T15:06:12Z</time>
      </trkpt>
      <trkpt lat="50.01161" lon="2.00268">
        <ele>14</ele>
        <time>2022-04-12T15:06:13Z</time>
      </trkpt>
      <trkpt lat="50.01161" lon="2.00268">
        <ele>14</ele>
        <time>2022-04-12T15:06:14Z</time>
      </trkpt>
      <trkpt lat="50.01161" lon="2.00268">
        <ele>14</ele>
        <time>2022-04-12T15:06:15Z</time>
      </trkpt>
      <trkpt lat="50.01161" lon="2.00268">
        <ele>14</ele>
        <time>2022-04-12T15:06:16Z</time>
      </trkpt>
      <trkpt lat="50.01161" lon="2.00268">
        <ele>14</ele>
        <time>2022-04-12T15:06:17Z</time>
      </trkpt>
      <trkpt lat="50.01161" lon="2.00268">
        <ele>14</ele>
        <time>2022-04-12T15:06:18Z</time>
      </trkpt>
      <trkpt lat="50.01161" lon="2.00268">
        <ele>14</ele>
        <time>2022-04-12T15:06:19Z</time>
      </trkpt>
      <trkpt lat="50.01161" lon="2.00268">
        <ele>14</ele>
        <time>2022-04-12T15:06:20Z</time>
      </trkpt>
      <trkpt lat="50.01161" lon="2.00268">
        <ele>14</ele>
        <time>2022-04-12T15:06:21Z</time>
      </trkpt>
      <trkpt lat="50.01161" lon="2.00268">
        <ele>14</ele>
        <time>2022-04-12T15:06:22Z</time>
      </trkpt>
      <trkpt lat="50.01161" lon="2.00268">
        <ele>14</ele>
        <time>2022-04-12T15:06:23Z</time>
      </trkpt>
      <trkpt lat="50.01161" lon="2.00268">
        <ele>14</ele>
        <time>2022-04-12T15:06:24Z</time>
      </trkpt>
      <trkpt lat="50.01161" lon="2.00268">
        <ele>14</ele>
        <time>2022-04-12T15:06:25Z</time>
      </trkpt>
      <trkpt lat="50.01161" lon="2.00268">
        <ele>14</ele>
        <time>2022-04-12T15:06:26Z</time>
      </trkpt>
      <trkpt lat="50.01161" lon="2.00268">
        <ele>14</ele>
        <time>2022-04-12T15:06:27Z</time>
      </trkpt>
      <trkpt lat="50.01161" lon="2.00268">
        <ele>14</ele>
        <time>2022-04-12T15:06:28Z</time>
      </trkpt>
      <trkpt lat="50.01161" lon="2.00268">
        <ele>14</ele>
        <time>2022-04-12T15:06:29Z</time>
      </trkpt>
      <trkpt lat="50.01161" lon="2.00268">
        <ele>14</ele>
        <time>2022-04-12T15:06:30Z</time>
      </trkpt>
      <trkpt lat="50.01161" lon="2.00268">
        <ele>14</ele>
        <time>2022-04-12T15:06:31Z</time>
      </trkpt>
      <trkpt lat="50.01161" lon="2.00268">
        <ele>14</ele>
        <time>2022-04-12T15:06:32Z</time>
      </trkpt>
      <trkpt lat="50.01161" lon="2.00268">
        <ele>14</ele>
        <time>2022-04-12T15:06:33Z</time>
      </trkpt>
      <trkpt lat="50.01161" lon="2.00268">
        <ele>14</ele>
        <time>2022-04-12T15:06:34Z</time>
      </trkpt>
      <trkpt lat="50.01161" lon="2.00268">
        <ele>14</ele>
        <time>2022-04-12T15:06:35Z</time>
      </trkpt>
      <trkpt lat="50.01161" lon="2.00268">
        <ele>14</ele>
        <time>2022-04-12T15:06:36Z</time>
      </trkpt>
      <trkpt lat="50.01161" lon="2.00268">
        <ele>14</ele>
        <time>2022-04-12T15:06:37Z</time>
      </trkpt>
      <trkpt lat="50.01161" lon="2.00268">
        <ele>14</ele>
        <time>2022-04-12T15:06:38Z</time>
      </trkpt>
      <trkpt lat="50.01161" lon="2.00268">
        <ele>14</ele>
        <time>2022-04-12T15:06:39Z</time>
      </trkpt>
      <trkpt lat="50.01161" lon="2.00268">
        <ele>14</ele>
        <time>2022-04-12T15:06:40Z</time>
      </trkpt>
      <trkpt lat="50.01161" lon="2.00268">
        <ele>14</ele>
        <time>2022-04-12T15:06:41Z</time>
      </trkpt>
      <trkpt lat="50.01161" lon="2.00268">
        <ele>14</ele>
        <time>2022-04-12T15:06:42Z</time>
      </trkpt>
      <trkpt lat="50.01161" lon="2.00268">
        <ele>14</ele>
        <time>2022-04-12T15:06:43Z</time>
      </trkpt>
      <trkpt lat="50.01161" lon="2.00268">
        <ele>14</ele>
        <time>2022-04-12T15:06:44Z</time>
      </trkpt>
      <trkpt lat="50.01161" lon="2.00268">
        <ele>14</ele>
        <time>2022-04-12T15:06:45Z</time>
      </trkpt>
      <trkpt lat="50.01161" lon="2.00268">
        <ele>14</ele>
        <time>2022-04-12T15:06:46Z</time>
      </trkpt>
      <trkpt lat="50.01161" lon="2.00268">
        <ele>14</ele>
        <time>2022-04-12T15:06:47Z</time>
      </trkpt>
      <trkpt lat="50.01161" lon="2.00268">
        <ele>14</ele>
        <time>2022-04-12T15:06:48Z</time>
      </trkpt>
      <trkpt lat="50.01161" lon="2.00268">
        <ele>14</ele>
        <time>2022-04-12T15:06:49Z</time>
      </trkpt>
      <trkpt lat="50.01161" lon="2.00268">
        <ele>14</ele>
        <time>2022-04-12T15:06:50Z</time>
      </trkpt>
      <trkpt lat="50.01161" lon="2.00268">
        <ele>14</ele>
        <time>2022-04-12T15:06:51Z</time>
      </trkpt>
      <trkpt lat="50.01161" lon="2.00268">
        <ele>14</ele>
        <time>2022-04-12T15:06:52Z</time>
      </trkpt>
      <trkpt lat="50.01161" lon="2.00267">
        <ele>14</ele>
        <time>2022-04-12T15:06:53Z</time>
      </trkpt>
      <trkpt lat="50.01161" lon="2.00267">
        <ele>14</ele>
        <time>2022-04-12T15:06:54Z</time>
      </trkpt>
      <trkpt lat="50.01161" lon="2.00267">
        <ele>14</ele>
        <time>2022-04-12T15:06:55Z</time>
      </trkpt>
      <trkpt lat="50.01161" lon="2.00267">
        <ele>14</ele>
        <time>2022-04-12T15:06:56Z</time>
      </trkpt>
      <trkpt lat="50.01161" lon="2.00267">
        <ele>14</ele>
        <time>2022-04-12T15:06:57Z</time>
      </trkpt>
      <trkpt lat="50.01161" lon="2.00267">
        <ele>14</ele>
        <time>2022-04-12T15:06:58Z</time>
      </trkpt>
      <trkpt lat="50.01161" lon="2.00267">
        <ele>14</ele>
        <time>2022-04-12T15:06:59Z</time>
      </trkpt>
      <trkpt lat="50.01161" lon="2.00267">
        <ele>14</ele>
        <time>2022-04-12T15:07:00Z</time>
      </trkpt>
      <trkpt lat="50.01161" lon="2.00267">
        <ele>14</ele>
        <time>2022-04-12T15:07:01Z</time>
      </trkpt>
      <trkpt lat="50.01161" lon="2.00267">
        <ele>14</ele>
        <time>2022-04-12T15:07:02Z</time>
      </trkpt>
      <trkpt lat="50.01161" lon="2.00267">
        <ele>14</ele>
        <time>2022-04-12T15:07:03Z</time>
      </trkpt>
      <trkpt lat="50.01161" lon="2.00267">
        <ele>14</ele>
        <time>2022-04-12T15:07:04Z</time>
      </trkpt>
      <trkpt lat="50.01161" lon="2.00267">
        <ele>14</ele>
        <time>2022-04-12T15:07:05Z</time>
      </trkpt>
      <trkpt lat="50.01161" lon="2.00267">
        <ele>14</ele>
        <time>2022-04-12T15:07:06Z</time>
      </trkpt>
      <trkpt lat="50.01161" lon="2.00267">
        <ele>14</ele>
        <time>2022-04-12T15:07:07Z</time>
      </trkpt>
      <trkpt lat="50.01161" lon="2.00267">
        <ele>14</ele>
        <time>2022-04-12T15:07:08Z</time>
      </trkpt>
      <trkpt lat="50.01161" lon="2.00267">
        <ele>14</ele>
        <time>2022-04-12T15:07:09Z</time>
      </trkpt>
      <trkpt lat="50.01161" lon="2.00267">
        <ele>14</ele>
        <time>2022-04-12T15:07:10Z</time>
      </trkpt>
      <trkpt lat="50.01162" lon="2.00267">
        <ele>14</ele>
        <time>2022-04-12T15:07:11Z</time>
      </trkpt>
      <trkpt lat="50.01162" lon="2.00267">
        <ele>14</ele>
        <time>2022-04-12T15:07:12Z</time>
      </trkpt>
      <trkpt lat="50.01162" lon="2.00267">
        <ele>14</ele>
        <time>2022-04-12T15:07:13Z</time>
      </trkpt>
      <trkpt lat="50.01162" lon="2.00267">
        <ele>14</ele>
        <time>2022-04-12T15:07:14Z</time>
      </trkpt>
      <trkpt lat="50.01162" lon="2.00267">
        <ele>14</ele>
        <time>2022-04-12T15:07:15Z</time>
      </trkpt>
      <trkpt lat="50.01162" lon="2.00267">
        <ele>14</ele>
        <time>2022-04-12T15:07:16Z</time>
      </trkpt>
      <trkpt lat="50.01162" lon="2.00267">
        <ele>14</ele>
        <time>2022-04-12T15:07:17Z</time>
      </trkpt>
      <trkpt lat="50.01162" lon="2.00267">
        <ele>14</ele>
        <time>2022-04-12T15:07:18Z</time>
      </trkpt>
      <trkpt lat="50.01162" lon="2.00267">
        <ele>14</ele>
        <time>2022-04-12T15:07:19Z</time>
      </trkpt>
      <trkpt lat="50.01162" lon="2.00267">
        <ele>14</ele>
        <time>2022-04-12T15:07:20Z</time>
      </trkpt>
      <trkpt lat="50.01162" lon="2.00267">
        <ele>14</ele>
        <time>2022-04-12T15:07:21Z</time>
      </trkpt>
      <trkpt lat="50.01162" lon="2.00267">
        <ele>14</ele>
        <time>2022-04-12T15:07:22Z</time>
      </trkpt>
      <trkpt lat="50.01162" lon="2.00267">
        <ele>14</ele>
        <time>2022-04-12T15:07:23Z</time>
      </trkpt>
      <trkpt lat="50.01162" lon="2.00267">
        <ele>14</ele>
        <time>2022-04-12T15:07:24Z</time>
      </trkpt>
      <trkpt lat="50.01162" lon="2.00267">
        <ele>14</ele>
        <time>2022-04-12T15:07:25Z</time>
      </trkpt>
      <trkpt lat="50.01162" lon="2.00267">
        <ele>14</ele>
        <time>2022-04-12T15:07:26Z</time>
      </trkpt>
      <trkpt lat="50.01162" lon="2.00267">
        <ele>14</ele>
        <time>2022-04-12T15:07:27Z</time>
      </trkpt>
      <trkpt lat="50.01162" lon="2.00267">
        <ele>14</ele>
        <time>2022-04-12T15:07:28Z</time>
      </trkpt>
      <trkpt lat="50.01162" lon="2.00267">
        <ele>14</ele>
        <time>2022-04-12T15:07:29Z</time>
      </trkpt>
      <trkpt lat="50.01162" lon="2.00267">
        <ele>14</ele>
        <time>2022-04-12T15:07:30Z</time>
      </trkpt>
      <trkpt lat="50.01162" lon="2.00267">
        <ele>14</ele>
        <time>2022-04-12T15:07:31Z</time>
      </trkpt>
      <trkpt lat="50.01162" lon="2.00267">
        <ele>14</ele>
        <time>2022-04-12T15:07:32Z</time>
      </trkpt>
      <trkpt lat="50.01162" lon="2.00267">
        <ele>14</ele>
        <time>2022-04-12T15:07:33Z</time>
      </trkpt>
      <trkpt lat="50.01162" lon="2.00267">
        <ele>14</ele>
        <time>2022-04-12T15:07:34Z</time>
      </trkpt>
      <trkpt lat="50.01162" lon="2.00267">
        <ele>14</ele>
        <time>2022-04-12T15:07:35Z</time>
      </trkpt>
      <trkpt lat="50.01162" lon="2.00267">
        <ele>14</ele>
        <time>2022-04-12T15:07:36Z</time>
      </trkpt>
      <trkpt lat="50.01162" lon="2.00267">
        <ele>14</ele>
        <time>2022-04-12T15:07:37Z</time>
      </trkpt>
      <trkpt lat="50.01162" lon="2.00267">
        <ele>14</ele>
        <time>2022-04-12T15:07:38Z</time>
      </trkpt>
      <trkpt lat="50.01162" lon="2.00267">
        <ele>14</ele>
        <time>2022-04-12T15:07:39Z</time>
      </trkpt>
      <trkpt lat="50.01162" lon="2.00267">
        <ele>14</ele>
        <time>2022-04-12T15:07:40Z</time>
      </trkpt>
      <trkpt lat="50.01162" lon="2.00267">
        <ele>14</ele>
        <time>2022-04-12T15:07:41Z</time>
      </trkpt>
      <trkpt lat="50.01162" lon="2.00267">
        <ele>14</ele>
        <time>2022-04-12T15:07:42Z</time>
      </trkpt>
      <trkpt lat="50.01162" lon="2.00267">
        <ele>14</ele>
        <time>2022-04-12T15:07:43Z</time>
      </trkpt>
      <trkpt lat="50.01162" lon="2.00267">
        <ele>14</ele>
        <time>2022-04-12T15:07:44Z</time>
      </trkpt>
      <trkpt lat="50.01162" lon="2.00267">
        <ele>14</ele>
        <time>2022-04-12T15:07:45Z</time>
      </trkpt>
      <trkpt lat="50.01162" lon="2.00267">
        <ele>14</ele>
        <time>2022-04-12T15:07:46Z</time>
      </trkpt>
      <trkpt lat="50.01162" lon="2.00267">
        <ele>14</ele>
        <time>2022-04-12T15:07:47Z</time>
      </trkpt>
      <trkpt lat="50.01162" lon="2.00267">
        <ele>14</ele>
        <time>2022-04-12T15:07:48Z</time>
      </trkpt>
      <trkpt lat="50.01162" lon="2.00267">
        <ele>14</ele>
        <time>2022-04-12T15:07:49Z</time>
      </trkpt>
      <trkpt lat="50.01162" lon="2.00267">
        <ele>14</ele>
        <time>2022-04-12T15:07:50Z</time>
      </trkpt>
      <trkpt lat="50.01162" lon="2.00267">
        <ele>14</ele>
        <time>2022-04-12T15:07:51Z</time>
      </trkpt>
      <trkpt lat="50.01162" lon="2.00267">
        <ele>14</ele>
        <time>2022-04-12T15:07:52Z</time>
      </trkpt>
      <trkpt lat="50.01162" lon="2.00267">
        <ele>14</ele>
        <time>2022-04-12T15:07:53Z</time>
      </trkpt>
      <trkpt lat="50.01162" lon="2.00267">
        <ele>14</ele>
        <time>2022-04-12T15:07:54Z</time>
      </trkpt>
      <trkpt lat="50.01162" lon="2.00267">
        <ele>14</ele>
        <time>2022-04-12T15:07:55Z</time>
      </trkpt>
      <trkpt lat="50.01162" lon="2.00267">
        <ele>14</ele>
        <time>2022-04-12T15:07:56Z</time>
      </trkpt>
      <trkpt lat="50.01162" lon="2.00267">
        <ele>14</ele>
        <time>2022-04-12T15:07:57Z</time>
      </trkpt>
      <trkpt lat="50.01162" lon="2.00267">
        <ele>14</ele>
        <time>2022-04-12T15:07:58Z</time>
      </trkpt>
      <trkpt lat="50.01162" lon="2.00267">
        <ele>14</ele>
        <time>2022-04-12T15:07:59Z</time>
      </trkpt>
      <trkpt lat="50.01162" lon="2.00267">
        <ele>14</ele>
        <time>2022-04-12T15:08:00Z</time>
      </trkpt>
      <trkpt lat="50.01162" lon="2.00267">
        <ele>14</ele>
        <time>2022-04-12T15:08:01Z</time>
      </trkpt>
      <trkpt lat="50.01162" lon="2.00267">
        <ele>14</ele>
        <time>2022-04-12T15:08:02Z</time>
      </trkpt>
      <trkpt lat="50.01162" lon="2.00267">
        <ele>14</ele>
        <time>2022-04-12T15:08:03Z</time>
      </trkpt>
      <trkpt lat="50.01162" lon="2.00267">
        <ele>14</ele>
        <time>2022-04-12T15:08:04Z</time>
      </trkpt>
      <trkpt lat="50.01162" lon="2.00267">
        <ele>14</ele>
        <time>2022-04-12T15:08:05Z</time>
      </trkpt>
      <trkpt lat="50.01162" lon="2.00267">
        <ele>14</ele>
        <time>2022-04-12T15:08:06Z</time>
      </trkpt>
      <trkpt lat="50.01162" lon="2.00267">
        <ele>14</ele>
        <time>2022-04-12T15:08:07Z</time>
      </trkpt>
      <trkpt lat="50.01162" lon="2.00267">
        <ele>14</ele>
        <time>2022-04-12T15:08:08Z</time>
      </trkpt>
      <trkpt lat="50.01162" lon="2.00267">
        <ele>14</ele>
        <time>2022-04-12T15:08:09Z</time>
      </trkpt>
      <trkpt lat="50.01162" lon="2.00267">
        <ele>14</ele>
        <time>2022-04-12T15:08:10Z</time>
      </trkpt>
      <trkpt lat="50.01162" lon="2.00267">
        <ele>14</ele>
        <time>2022-04-12T15:08:11Z</time>
      </trkpt>
      <trkpt lat="50.01162" lon="2.00267">
        <ele>14</ele>
        <time>2022-04-12T15:08:12Z</time>
      </trkpt>
      <trkpt lat="50.01162" lon="2.00267">
        <ele>14</ele>
        <time>2022-04-12T15:08:13Z</time>
      </trkpt>
      <trkpt lat="50.01162" lon="2.00267">
        <ele>14</ele>
        <time>2022-04-12T15:08:14Z</time>
      </trkpt>
      <trkpt lat="50.01162" lon="2.00267">
        <ele>14</ele>
        <time>2022-04-12T15:08:15Z</time>
      </trkpt>
      <trkpt lat="50.01162" lon="2.00267">
        <ele>14</ele>
        <time>2022-04-12T15:08:16Z</time>
      </trkpt>
      <trkpt lat="50.01162" lon="2.00267">
        <ele>14</ele>
        <time>2022-04-12T15:08:17Z</time>
      </trkpt>
      <trkpt lat="50.01162" lon="2.00267">
        <ele>14</ele>
        <time>2022-04-12T15:08:18Z</time>
      </trkpt>
      <trkpt lat="50.01162" lon="2.00267">
        <ele>14</ele>
        <time>2022-04-12T15:08:19Z</time>
      </trkpt>
      <trkpt lat="50.01162" lon="2.00267">
        <ele>14</ele>
        <time>2022-04-12T15:08:20Z</time>
      </trkpt>
      <trkpt lat="50.01162" lon="2.00267">
        <ele>14</ele>
        <time>2022-04-12T15:08:21Z</time>
      </trkpt>
      <trkpt lat="50.01162" lon="2.00267">
        <ele>14</ele>
        <time>2022-04-12T15:08:22Z</time>
      </trkpt>
      <trkpt lat="50.01162" lon="2.00267">
        <ele>14</ele>
        <time>2022-04-12T15:08:23Z</time>
      </trkpt>
      <trkpt lat="50.01162" lon="2.00267">
        <ele>14</ele>
        <time>2022-04-12T15:08:24Z</time>
      </trkpt>
      <trkpt lat="50.01162" lon="2.00267">
        <ele>14</ele>
        <time>2022-04-12T15:08:25Z</time>
      </trkpt>
      <trkpt lat="50.01162" lon="2.00267">
        <ele>14</ele>
        <time>2022-04-12T15:08:26Z</time>
      </trkpt>
      <trkpt lat="50.01162" lon="2.00267">
        <ele>14</ele>
        <time>2022-04-12T15:08:27Z</time>
      </trkpt>
      <trkpt lat="50.01162" lon="2.00267">
        <ele>14</ele>
        <time>2022-04-12T15:08:28Z</time>
      </trkpt>
      <trkpt lat="50.01162" lon="2.00267">
        <ele>14</ele>
        <time>2022-04-12T15:08:29Z</time>
      </trkpt>
      <trkpt lat="50.01162" lon="2.00267">
        <ele>14</ele>
        <time>2022-04-12T15:08:30Z</time>
      </trkpt>
      <trkpt lat="50.01162" lon="2.00267">
        <ele>14</ele>
        <time>2022-04-12T15:08:31Z</time>
      </trkpt>
      <trkpt lat="50.01162" lon="2.00267">
        <ele>14</ele>
        <time>2022-04-12T15:08:32Z</time>
      </trkpt>
      <trkpt lat="50.01162" lon="2.00267">
        <ele>14</ele>
        <time>2022-04-12T15:08:33Z</time>
      </trkpt>
      <trkpt lat="50.01162" lon="2.00267">
        <ele>14</ele>
        <time>2022-04-12T15:08:34Z</time>
      </trkpt>
      <trkpt lat="50.01162" lon="2.00267">
        <ele>14</ele>
        <time>2022-04-12T15:08:35Z</time>
      </trkpt>
      <trkpt lat="50.01162" lon="2.00267">
        <ele>14</ele>
        <time>2022-04-12T15:08:36Z</time>
      </trkpt>
      <trkpt lat="50.01162" lon="2.00267">
        <ele>14</ele>
        <time>2022-04-12T15:08:37Z</time>
      </trkpt>
      <trkpt lat="50.01162" lon="2.00267">
        <ele>14</ele>
        <time>2022-04-12T15:08:38Z</time>
      </trkpt>
      <trkpt lat="50.01162" lon="2.00267">
        <ele>14</ele>
        <time>2022-04-12T15:08:39Z</time>
      </trkpt>
      <trkpt lat="50.01163" lon="2.00267">
        <ele>14</ele>
        <time>2022-04-12T15:08:40Z</time>
      </trkpt>
      <trkpt lat="50.01163" lon="2.00267">
        <ele>14</ele>
        <time>2022-04-12T15:08:41Z</time>
      </trkpt>
      <trkpt lat="50.01163" lon="2.00267">
        <ele>14</ele>
        <time>2022-04-12T15:08:42Z</time>
      </trkpt>
      <trkpt lat="50.01163" lon="2.00267">
        <ele>14</ele>
        <time>2022-04-12T15:08:43Z</time>
      </trkpt>
      <trkpt lat="50.01163" lon="2.00267">
        <ele>14</ele>
        <time>2022-04-12T15:08:44Z</time>
      </trkpt>
      <trkpt lat="50.01163" lon="2.00267">
        <ele>14</ele>
        <time>2022-04-12T15:08:45Z</time>
      </trkpt>
      <trkpt lat="50.01163" lon="2.00267">
        <ele>14</ele>
        <time>2022-04-12T15:08:46Z</time>
      </trkpt>
      <trkpt lat="50.01163" lon="2.00267">
        <ele>14</ele>
        <time>2022-04-12T15:08:47Z</time>
      </trkpt>
      <trkpt lat="50.01163" lon="2.00267">
        <ele>14</ele>
        <time>2022-04-12T15:08:48Z</time>
      </trkpt>
      <trkpt lat="50.01163" lon="2.00267">
        <ele>14</ele>
        <time>2022-04-12T15:08:49Z</time>
      </trkpt>
      <trkpt lat="50.01163" lon="2.00267">
        <ele>14</ele>
        <time>2022-04-12T15:08:50Z</time>
      </trkpt>
      <trkpt lat="50.01163" lon="2.00267">
        <ele>14</ele>
        <time>2022-04-12T15:08:51Z</time>
      </trkpt>
      <trkpt lat="50.01163" lon="2.00267">
        <ele>14</ele>
        <time>2022-04-12T15:08:52Z</time>
      </trkpt>
      <trkpt lat="50.01163" lon="2.00267">
        <ele>14</ele>
        <time>2022-04-12T15:08:53Z</time>
      </trkpt>
      <trkpt lat="50.01163" lon="2.00267">
        <ele>14</ele>
        <time>2022-04-12T15:08:54Z</time>
      </trkpt>
      <trkpt lat="50.01163" lon="2.00267">
        <ele>14</ele>
        <time>2022-04-12T15:08:55Z</time>
      </trkpt>
      <trkpt lat="50.01163" lon="2.00267">
        <ele>14</ele>
        <time>2022-04-12T15:08:56Z</time>
      </trkpt>
      <trkpt lat="50.01163" lon="2.00267">
        <ele>14</ele>
        <time>2022-04-12T15:08:57Z</time>
      </trkpt>
      <trkpt lat="50.01163" lon="2.00267">
        <ele>14</ele>
        <time>2022-04-12T15:08:58Z</time>
      </trkpt>
      <trkpt lat="50.01163" lon="2.00267">
        <ele>14</ele>
        <time>2022-04-12T15:08:59Z</time>
      </trkpt>
      <trkpt lat="50.01163" lon="2.00267">
        <ele>14</ele>
        <time>2022-04-12T15:09:00Z</time>
      </trkpt>
      <trkpt lat="50.01163" lon="2.00267">
        <ele>14</ele>
        <time>2022-04-12T15:09:01Z</time>
      </trkpt>
      <trkpt lat="50.01163" lon="2.00267">
        <ele>14</ele>
        <time>2022-04-12T15:09:02Z</time>
      </trkpt>
      <trkpt lat="50.01163" lon="2.00267">
        <ele>14</ele>
        <time>2022-04-12T15:09:03Z</time>
      </trkpt>
      <trkpt lat="50.01163" lon="2.00267">
        <ele>14</ele>
        <time>2022-04-12T15:09:04Z</time>
      </trkpt>
      <trkpt lat="50.01163" lon="2.00267">
        <ele>14</ele>
        <time>2022-04-12T15:09:05Z</time>
      </trkpt>
      <trkpt lat="50.01163" lon="2.00266">
        <ele>14</ele>
        <time>2022-04-12T15:09:06Z</time>
      </trkpt>
      <trkpt lat="50.01163" lon="2.00266">
        <ele>13.9</ele>
        <time>2022-04-12T15:09:07Z</time>
      </trkpt>
      <trkpt lat="50.01163" lon="2.00266">
        <ele>13.9</ele>
        <time>2022-04-12T15:09:08Z</time>
      </trkpt>
      <trkpt lat="50.01163" lon="2.00266">
        <ele>13.9</ele>
        <time>2022-04-12T15:09:09Z</time>
      </trkpt>
      <trkpt lat="50.01163" lon="2.00266">
        <ele>13.9</ele>
        <time>2022-04-12T15:09:10Z</time>
      </trkpt>
      <trkpt lat="50.01163" lon="2.00266">
        <ele>13.9</ele>
        <time>2022-04-12T15:09:11Z</time>
      </trkpt>
      <trkpt lat="50.01163" lon="2.00266">
        <ele>13.9</ele>
        <time>2022-04-12T15:09:12Z</time>
      </trkpt>
      <trkpt lat="50.01163" lon="2.00266">
        <ele>13.9</ele>
        <time>2022-04-12T15:09:13Z</time>
      </trkpt>
      <trkpt lat="50.01163" lon="2.00266">
        <ele>13.9</ele>
        <time>2022-04-12T15:09:14Z</time>
      </trkpt>
      <trkpt lat="50.01163" lon="2.00266">
        <ele>13.9</ele>
        <time>2022-04-12T15:09:15Z</time>
      </trkpt>
      <trkpt lat="50.01163" lon="2.00266">
        <ele>13.9</ele>
        <time>2022-04-12T15:09:16Z</time>
      </trkpt>
      <trkpt lat="50.01163" lon="2.00266">
        <ele>13.9</ele>
        <time>2022-04-12T15:09:17Z</time>
      </trkpt>
      <trkpt lat="50.01163" lon="2.00266">
        <ele>13.9</ele>
        <time>2022-04-12T15:09:18Z</time>
      </trkpt>
      <trkpt lat="50.01163" lon="2.00266">
        <ele>13.9</ele>
        <time>2022-04-12T15:09:19Z</time>
      </trkpt>
      <trkpt lat="50.01163" lon="2.00266">
        <ele>13.9</ele>
        <time>2022-04-12T15:09:20Z</time>
      </trkpt>
      <trkpt lat="50.01163" lon="2.00266">
        <ele>13.9</ele>
        <time>2022-04-12T15:09:21Z</time>
      </trkpt>
      <trkpt lat="50.01163" lon="2.00266">
        <ele>13.9</ele>
        <time>2022-04-12T15:09:22Z</time>
      </trkpt>
      <trkpt lat="50.01163" lon="2.00266">
        <ele>13.9</ele>
        <time>2022-04-12T15:09:23Z</time>
      </trkpt>
      <trkpt lat="50.01163" lon="2.00266">
        <ele>13.9</ele>
        <time>2022-04-12T15:09:24Z</time>
      </trkpt>
      <trkpt lat="50.01163" lon="2.00266">
        <ele>13.9</ele>
        <time>2022-04-12T15:09:25Z</time>
      </trkpt>
      <trkpt lat="50.01163" lon="2.00266">
        <ele>13.9</ele>
        <time>2022-04-12T15:09:26Z</time>
      </trkpt>
      <trkpt lat="50.01163" lon="2.00266">
        <ele>13.9</ele>
        <time>2022-04-12T15:09:27Z</time>
      </trkpt>
      <trkpt lat="50.01163" lon="2.00266">
        <ele>13.9</ele>
        <time>2022-04-12T15:09:28Z</time>
      </trkpt>
      <trkpt lat="50.01163" lon="2.00266">
        <ele>13.9</ele>
        <time>2022-04-12T15:09:29Z</time>
      </trkpt>
      <trkpt lat="50.01163" lon="2.00266">
        <ele>13.9</ele>
        <time>2022-04-12T15:09:30Z</time>
      </trkpt>
      <trkpt lat="50.01163" lon="2.00266">
        <ele>13.9</ele>
        <time>2022-04-12T15:09:31Z</time>
      </trkpt>
      <trkpt lat="50.01163" lon="2.00266">
        <ele>13.9</ele>
        <time>2022-04-12T15:09:32Z</time>
      </trkpt>
      <trkpt lat="50.01163" lon="2.00266">
        <ele>13.9</ele>
        <time>2022-04-12T15:09:33Z</time>
      </trkpt>
      <trkpt lat="50.01163" lon="2.00266">
        <ele>13.9</ele>
        <time>2022-04-12T15:09:34Z</time>
      </trkpt>
      <trkpt lat="50.01163" lon="2.00266">
        <ele>13.9</ele>
        <time>2022-04-12T15:09:35Z</time>
      </trkpt>
      <trkpt lat="50.01163" lon="2.00266">
        <ele>13.9</ele>
        <time>2022-04-12T15:09:36Z</time>
      </trkpt>
      <trkpt lat="50.01163" lon="2.00266">
        <ele>13.9</ele>
        <time>2022-04-12T15:09:37Z</time>
      </trkpt>
      <trkpt lat="50.01163" lon="2.00266">
        <ele>13.9</ele>
        <time>2022-04-12T15:09:38Z</time>
      </trkpt>
      <trkpt lat="50.01163" lon="2.00266">
        <ele>13.9</ele>
        <time>2022-04-12T15:09:39Z</time>
      </trkpt>
      <trkpt lat="50.01163" lon="2.00266">
        <ele>13.9</ele>
        <time>2022-04-12T15:09:40Z</time>
      </trkpt>
      <trkpt lat="50.01163" lon="2.00266">
        <ele>13.9</ele>
        <time>2022-04-12T15:09:41Z</time>
      </trkpt>
      <trkpt lat="50.01163" lon="2.00266">
        <ele>13.9</ele>
        <time>2022-04-12T15:09:42Z</time>
      </trkpt>
      <trkpt lat="50.01163" lon="2.00266">
        <ele>13.9</ele>
        <time>2022-04-12T15:09:43Z</time>
      </trkpt>
      <trkpt lat="50.01163" lon="2.00266">
        <ele>13.9</ele>
        <time>2022-04-12T15:09:44Z</time>
      </trkpt>
      <trkpt lat="50.01163" lon="2.00266">
        <ele>13.9</ele>
        <time>2022-04-12T15:09:45Z</time>
      </trkpt>
      <trkpt lat="50.01163" lon="2.00266">
        <ele>13.9</ele>
        <time>2022-04-12T15:09:46Z</time>
      </trkpt>
      <trkpt lat="50.01163" lon="2.00266">
        <ele>13.9</ele>
        <time>2022-04-12T15:09:47Z</time>
      </trkpt>
      <trkpt lat="50.01163" lon="2.00266">
        <ele>13.9</ele>
        <time>2022-04-12T15:09:48Z</time>
      </trkpt>
      <trkpt lat="50.01163" lon="2.00266">
        <ele>13.9</ele>
        <time>2022-04-12T15:09:49Z</time>
      </trkpt>
      <trkpt lat="50.01163" lon="2.00266">
        <ele>13.9</ele>
        <time>2022-04-12T15:09:50Z</time>
      </trkpt>
      <trkpt lat="50.01163" lon="2.00266">
        <ele>13.9</ele>
        <time>2022-04-12T15:09:51Z</time>
      </trkpt>
      <trkpt lat="50.01163" lon="2.00266">
        <ele>13.9</ele>
        <time>2022-04-12T15:09:52Z</time>
      </trkpt>
      <trkpt lat="50.01163" lon="2.00266">
        <ele>13.9</ele>
        <time>2022-04-12T15:09:53Z</time>
      </trkpt>
      <trkpt lat="50.01163" lon="2.00266">
        <ele>13.9</ele>
        <time>2022-04-12T15:09:54Z</time>
      </trkpt>
      <trkpt lat="50.01163" lon="2.00266">
        <ele>13.9</ele>
        <time>2022-04-12T15:09:55Z</time>
      </trkpt>
      <trkpt lat="50.01163" lon="2.00266">
        <ele>13.9</ele>
        <time>2022-04-12T15:09:56Z</time>
      </trkpt>
      <trkpt lat="50.01163" lon="2.00266">
        <ele>13.9</ele>
        <time>2022-04-12T15:09:57Z</time>
      </trkpt>
      <trkpt lat="50.01163" lon="2.00266">
        <ele>13.9</ele>
        <time>2022-04-12T15:09:58Z</time>
      </trkpt>
      <trkpt lat="50.01163" lon="2.00266">
        <ele>13.9</ele>
        <time>2022-04-12T15:09:59Z</time>
      </trkpt>
      <trkpt lat="50.01163" lon="2.00266">
        <ele>13.9</ele>
        <time>2022-04-12T15:10:00Z</time>
      </trkpt>
      <trkpt lat="50.01163" lon="2.00266">
        <ele>13.9</ele>
        <time>2022-04-12T15:10:01Z</time>
      </trkpt>
      <trkpt lat="50.01163" lon="2.00266">
        <ele>13.9</ele>
        <time>2022-04-12T15:10:02Z</time>
      </trkpt>
      <trkpt lat="50.01163" lon="2.00266">
        <ele>13.9</ele>
        <time>2022-04-12T15:10:03Z</time>
      </trkpt>
      <trkpt lat="50.01163" lon="2.00266">
        <ele>13.9</ele>
        <time>2022-04-12T15:10:04Z</time>
      </trkpt>
      <trkpt lat="50.01163" lon="2.00266">
        <ele>13.9</ele>
        <time>2022-04-12T15:10:05Z</time>
      </trkpt>
      <trkpt lat="50.01163" lon="2.00266">
        <ele>13.9</ele>
        <time>2022-04-12T15:10:06Z</time>
      </trkpt>
      <trkpt lat="50.01163" lon="2.00266">
        <ele>13.9</ele>
        <time>2022-04-12T15:10:07Z</time>
      </trkpt>
      <trkpt lat="50.01163" lon="2.00266">
        <ele>13.9</ele>
        <time>2022-04-12T15:10:08Z</time>
      </trkpt>
      <trkpt lat="50.01163" lon="2.00266">
        <ele>13.9</ele>
        <time>2022-04-12T15:10:09Z</time>
      </trkpt>
      <trkpt lat="50.01164" lon="2.00266">
        <ele>13.9</ele>
        <time>2022-04-12T15:10:10Z</time>
      </trkpt>
      <trkpt lat="50.01164" lon="2.00266">
        <ele>13.9</ele>
        <time>2022-04-12T15:10:11Z</time>
      </trkpt>
      <trkpt lat="50.01164" lon="2.00266">
        <ele>13.9</ele>
        <time>2022-04-12T15:10:12Z</time>
      </trkpt>
      <trkpt lat="50.01164" lon="2.00266">
        <ele>13.9</ele>
        <time>2022-04-12T15:10:13Z</time>
      </trkpt>
      <trkpt lat="50.01164" lon="2.00266">
        <ele>13.9</ele>
        <time>2022-04-12T15:10:14Z</time>
      </trkpt>
      <trkpt lat="50.01164" lon="2.00266">
        <ele>13.9</ele>
        <time>2022-04-12T15:10:15Z</time>
      </trkpt>
      <trkpt lat="50.01164" lon="2.00266">
        <ele>13.9</ele>
        <time>2022-04-12T15:10:16Z</time>
      </trkpt>
      <trkpt lat="50.01164" lon="2.00266">
        <ele>13.9</ele>
        <time>2022-04-12T15:10:17Z</time>
      </trkpt>
      <trkpt lat="50.01164" lon="2.00266">
        <ele>13.9</ele>
        <time>2022-04-12T15:10:18Z</time>
      </trkpt>
      <trkpt lat="50.01164" lon="2.00266">
        <ele>13.9</ele>
        <time>2022-04-12T15:10:19Z</time>
      </trkpt>
      <trkpt lat="50.01164" lon="2.00266">
        <ele>13.9</ele>
        <time>2022-04-12T15:10:20Z</time>
      </trkpt>
      <trkpt lat="50.01164" lon="2.00266">
        <ele>13.9</ele>
        <time>2022-04-12T15:10:21Z</time>
      </trkpt>
      <trkpt lat="50.01164" lon="2.00266">
        <ele>13.9</ele>
        <time>2022-04-12T15:10:22Z</time>
      </trkpt>
      <trkpt lat="50.01164" lon="2.00266">
        <ele>13.9</ele>
        <time>2022-04-12T15:10:23Z</time>
      </trkpt>
      <trkpt lat="50.01164" lon="2.00266">
        <ele>13.9</ele>
        <time>2022-04-12T15:10:24Z</time>
      </trkpt>
      <trkpt lat="50.01164" lon="2.00266">
        <ele>13.9</ele>
        <time>2022-04-12T15:10:25Z</time>
      </trkpt>
      <trkpt lat="50.01164" lon="2.00266">
        <ele>13.9</ele>
        <time>2022-04-12T15:10:26Z</time>
      </trkpt>
      <trkpt lat="50.01164" lon="2.00266">
        <ele>13.9</ele>
        <time>2022-04-12T15:10:27Z</time>
      </trkpt>
      <trkpt lat="50.01164" lon="2.00266">
        <ele>13.9</ele>
        <time>2022-04-12T15:10:28Z</time>
      </trkpt>
      <trkpt lat="50.01164" lon="2.00266">
        <ele>13.9</ele>
        <time>2022-04-12T15:10:29Z</time>
      </trkpt>
      <trkpt lat="50.01164" lon="2.00266">
        <ele>13.9</ele>
        <time>2022-04-12T15:10:30Z</time>
      </trkpt>
      <trkpt lat="50.01164" lon="2.00266">
        <ele>13.9</ele>
        <time>2022-04-12T15:10:31Z</time>
      </trkpt>
      <trkpt lat="50.01164" lon="2.00266">
        <ele>13.9</ele>
        <time>2022-04-12T15:10:33Z</time>
      </trkpt>
      <trkpt lat="50.01164" lon="2.00266">
        <ele>13.9</ele>
        <time>2022-04-12T15:10:34Z</time>
      </trkpt>
      <trkpt lat="50.01164" lon="2.00266">
        <ele>13.9</ele>
        <time>2022-04-12T15:10:35Z</time>
      </trkpt>
      <trkpt lat="50.01164" lon="2.00266">
        <ele>13.9</ele>
        <time>2022-04-12T15:10:36Z</time>
      </trkpt>
      <trkpt lat="50.01164" lon="2.00266">
        <ele>13.9</ele>
        <time>2022-04-12T15:10:38Z</time>
      </trkpt>
      <trkpt lat="50.01164" lon="2.00266">
        <ele>13.9</ele>
        <time>2022-04-12T15:10:39Z</time>
      </trkpt>
      <trkpt lat="50.01164" lon="2.00266">
        <ele>13.9</ele>
        <time>2022-04-12T15:10:42Z</time>
      </trkpt>
      <trkpt lat="50.01164" lon="2.00266">
        <ele>13.9</ele>
        <time>2022-04-12T15:10:43Z</time>
      </trkpt>
      <trkpt lat="50.01164" lon="2.00266">
        <ele>13.9</ele>
        <time>2022-04-12T15:10:45Z</time>
      </trkpt>
      <trkpt lat="50.01164" lon="2.00266">
        <ele>13.9</ele>
        <time>2022-04-12T15:10:46Z</time>
      </trkpt>
      <trkpt lat="50.01164" lon="2.00266">
        <ele>13.9</ele>
        <time>2022-04-12T15:10:47Z</time>
      </trkpt>
      <trkpt lat="50.01164" lon="2.00266">
        <ele>13.9</ele>
        <time>2022-04-12T15:10:48Z</time>
      </trkpt>
      <trkpt lat="50.01164" lon="2.00266">
        <ele>13.9</ele>
        <time>2022-04-12T15:10:49Z</time>
      </trkpt>
      <trkpt lat="50.01164" lon="2.00266">
        <ele>13.9</ele>
        <time>2022-04-12T15:10:50Z</time>
      </trkpt>
      <trkpt lat="50.01164" lon="2.00266">
        <ele>13.9</ele>
        <time>2022-04-12T15:10:51Z</time>
      </trkpt>
      <trkpt lat="50.01164" lon="2.00266">
        <ele>13.9</ele>
        <time>2022-04-12T15:10:52Z</time>
      </trkpt>
      <trkpt lat="50.01164" lon="2.00266">
        <ele>13.9</ele>
        <time>2022-04-12T15:10:53Z</time>
      </trkpt>
      <trkpt lat="50.01164" lon="2.00266">
        <ele>13.9</ele>
        <time>2022-04-12T15:10:55Z</time>
      </trkpt>
      <trkpt lat="50.01164" lon="2.00266">
        <ele>13.9</ele>
        <time>2022-04-12T15:10:56Z</time>
      </trkpt>
      <trkpt lat="50.01164" lon="2.00266">
        <ele>13.9</ele>
        <time>2022-04-12T15:10:57Z</time>
      </trkpt>
      <trkpt lat="50.01164" lon="2.00266">
        <ele>13.9</ele>
        <time>2022-04-12T15:10:58Z</time>
      </trkpt>
      <trkpt lat="50.01164" lon="2.00266">
        <ele>13.9</ele>
        <time>2022-04-12T15:10:59Z</time>
      </trkpt>
      <trkpt lat="50.01164" lon="2.00266">
        <ele>13.9</ele>
        <time>2022-04-12T15:11:01Z</time>
      </trkpt>
      <trkpt lat="50.01164" lon="2.00266">
        <ele>13.9</ele>
        <time>2022-04-12T15:11:02Z</time>
      </trkpt>
      <trkpt lat="50.01164" lon="2.00266">
        <ele>13.9</ele>
        <time>2022-04-12T15:11:03Z</time>
      </trkpt>
      <trkpt lat="50.01164" lon="2.00266">
        <ele>13.9</ele>
        <time>2022-04-12T15:11:04Z</time>
      </trkpt>
      <trkpt lat="50.01164" lon="2.00266">
        <ele>13.9</ele>
        <time>2022-04-12T15:11:05Z</time>
      </trkpt>
      <trkpt lat="50.01164" lon="2.00266">
        <ele>13.9</ele>
        <time>2022-04-12T15:11:06Z</time>
      </trkpt>
      <trkpt lat="50.01164" lon="2.00266">
        <ele>13.9</ele>
        <time>2022-04-12T15:11:07Z</time>
      </trkpt>
      <trkpt lat="50.01164" lon="2.00266">
        <ele>13.9</ele>
        <time>2022-04-12T15:11:08Z</time>
      </trkpt>
      <trkpt lat="50.01164" lon="2.00266">
        <ele>13.9</ele>
        <time>2022-04-12T15:11:09Z</time>
      </trkpt>
      <trkpt lat="50.01164" lon="2.00266">
        <ele>13.9</ele>
        <time>2022-04-12T15:11:10Z</time>
      </trkpt>
      <trkpt lat="50.01164" lon="2.00266">
        <ele>13.9</ele>
        <time>2022-04-12T15:11:11Z</time>
      </trkpt>
      <trkpt lat="50.01164" lon="2.00266">
        <ele>13.9</ele>
        <time>2022-04-12T15:11:12Z</time>
      </trkpt>
      <trkpt lat="50.01164" lon="2.00266">
        <ele>13.9</ele>
        <time>2022-04-12T15:11:14Z</time>
      </trkpt>
      <trkpt lat="50.01164" lon="2.00266">
        <ele>13.9</ele>
        <time>2022-04-12T15:11:15Z</time>
      </trkpt>
      <trkpt lat="50.01164" lon="2.00266">
        <ele>13.9</ele>
        <time>2022-04-12T15:11:16Z</time>
      </trkpt>
      <trkpt lat="50.01164" lon="2.00266">
        <ele>13.9</ele>
        <time>2022-04-12T15:11:17Z</time>
      </trkpt>
      <trkpt lat="50.01164" lon="2.00266">
        <ele>13.9</ele>
        <time>2022-04-12T15:11:18Z</time>
      </trkpt>
      <trkpt lat="50.01164" lon="2.00266">
        <ele>13.9</ele>
        <time>2022-04-12T15:11:19Z</time>
      </trkpt>
      <trkpt lat="50.01164" lon="2.00266">
        <ele>13.9</ele>
        <time>2022-04-12T15:11:20Z</time>
      </trkpt>
      <trkpt lat="50.01164" lon="2.00266">
        <ele>13.9</ele>
        <time>2022-04-12T15:11:21Z</time>
      </trkpt>
      <trkpt lat="50.01164" lon="2.00266">
        <ele>13.9</ele>
        <time>2022-04-12T15:11:22Z</time>
      </trkpt>
      <trkpt lat="50.01164" lon="2.00266">
        <ele>13.9</ele>
        <time>2022-04-12T15:11:23Z</time>
      </trkpt>
      <trkpt lat="50.01164" lon="2.00266">
        <ele>13.9</ele>
        <time>2022-04-12T15:11:24Z</time>
      </trkpt>
      <trkpt lat="50.01164" lon="2.00266">
        <ele>13.9</ele>
        <time>2022-04-12T15:11:25Z</time>
      </trkpt>
      <trkpt lat="50.01164" lon="2.00266">
        <ele>13.9</ele>
        <time>2022-04-12T15:11:26Z</time>
      </trkpt>
      <trkpt lat="50.01164" lon="2.00266">
        <ele>13.9</ele>
        <time>2022-04-12T15:11:27Z</time>
      </trkpt>
      <trkpt lat="50.01164" lon="2.00265">
        <ele>13.9</ele>
        <time>2022-04-12T15:11:28Z</time>
      </trkpt>
      <trkpt lat="50.01164" lon="2.00265">
        <ele>13.9</ele>
        <time>2022-04-12T15:11:29Z</time>
      </trkpt>
      <trkpt lat="50.01164" lon="2.00265">
        <ele>13.9</ele>
        <time>2022-04-12T15:11:30Z</time>
      </trkpt>
      <trkpt lat="50.01164" lon="2.00265">
        <ele>13.9</ele>
        <time>2022-04-12T15:11:31Z</time>
      </trkpt>
      <trkpt lat="50.01164" lon="2.00265">
        <ele>13.9</ele>
        <time>2022-04-12T15:11:32Z</time>
      </trkpt>
      <trkpt lat="50.01164" lon="2.00265">
        <ele>13.9</ele>
        <time>2022-04-12T15:11:33Z</time>
      </trkpt>
      <trkpt lat="50.01164" lon="2.00265">
        <ele>13.9</ele>
        <time>2022-04-12T15:11:34Z</time>
      </trkpt>
      <trkpt lat="50.01164" lon="2.00265">
        <ele>13.9</ele>
        <time>2022-04-12T15:11:35Z</time>
      </trkpt>
      <trkpt lat="50.01164" lon="2.00265">
        <ele>13.9</ele>
        <time>2022-04-12T15:11:36Z</time>
      </trkpt>
      <trkpt lat="50.01164" lon="2.00265">
        <ele>13.9</ele>
        <time>2022-04-12T15:11:37Z</time>
      </trkpt>
      <trkpt lat="50.01164" lon="2.00265">
        <ele>13.9</ele>
        <time>2022-04-12T15:11:38Z</time>
      </trkpt>
      <trkpt lat="50.01164" lon="2.00265">
        <ele>13.9</ele>
        <time>2022-04-12T15:11:39Z</time>
      </trkpt>
      <trkpt lat="50.01164" lon="2.00265">
        <ele>13.9</ele>
        <time>2022-04-12T15:11:40Z</time>
      </trkpt>
      <trkpt lat="50.01164" lon="2.00265">
        <ele>13.9</ele>
        <time>2022-04-12T15:11:41Z</time>
      </trkpt>
      <trkpt lat="50.01164" lon="2.00265">
        <ele>13.9</ele>
        <time>2022-04-12T15:11:42Z</time>
      </trkpt>
      <trkpt lat="50.01164" lon="2.00265">
        <ele>13.9</ele>
        <time>2022-04-12T15:11:43Z</time>
      </trkpt>
      <trkpt lat="50.01164" lon="2.00265">
        <ele>13.9</ele>
        <time>2022-04-12T15:11:44Z</time>
      </trkpt>
      <trkpt lat="50.01164" lon="2.00265">
        <ele>13.9</ele>
        <time>2022-04-12T15:11:45Z</time>
      </trkpt>
      <trkpt lat="50.01164" lon="2.00265">
        <ele>13.9</ele>
        <time>2022-04-12T15:11:46Z</time>
      </trkpt>
      <trkpt lat="50.01165" lon="2.00265">
        <ele>13.9</ele>
        <time>2022-04-12T15:11:47Z</time>
      </trkpt>
      <trkpt lat="50.01165" lon="2.00265">
        <ele>13.9</ele>
        <time>2022-04-12T15:11:48Z</time>
      </trkpt>
      <trkpt lat="50.01165" lon="2.00265">
        <ele>13.9</ele>
        <time>2022-04-12T15:11:49Z</time>
      </trkpt>
      <trkpt lat="50.01165" lon="2.00265">
        <ele>13.9</ele>
        <time>2022-04-12T15:11:50Z</time>
      </trkpt>
      <trkpt lat="50.01165" lon="2.00265">
        <ele>13.9</ele>
        <time>2022-04-12T15:11:51Z</time>
      </trkpt>
      <trkpt lat="50.01165" lon="2.00265">
        <ele>13.9</ele>
        <time>2022-04-12T15:11:52Z</time>
      </trkpt>
      <trkpt lat="50.01165" lon="2.00265">
        <ele>13.9</ele>
        <time>2022-04-12T15:11:53Z</time>
      </trkpt>
      <trkpt lat="50.01165" lon="2.00265">
        <ele>13.9</ele>
        <time>2022-04-12T15:11:54Z</time>
      </trkpt>
      <trkpt lat="50.01165" lon="2.00265">
        <ele>13.9</ele>
        <time>2022-04-12T15:11:55Z</time>
      </trkpt>
      <trkpt lat="50.01165" lon="2.00265">
        <ele>13.9</ele>
        <time>2022-04-12T15:11:56Z</time>
      </trkpt>
      <trkpt lat="50.01165" lon="2.00265">
        <ele>13.9</ele>
        <time>2022-04-12T15:11:57Z</time>
      </trkpt>
      <trkpt lat="50.01165" lon="2.00265">
        <ele>13.9</ele>
        <time>2022-04-12T15:11:58Z</time>
      </trkpt>
      <trkpt lat="50.01165" lon="2.00265">
        <ele>13.9</ele>
        <time>2022-04-12T15:11:59Z</time>
      </trkpt>
      <trkpt lat="50.01165" lon="2.00265">
        <ele>13.9</ele>
        <time>2022-04-12T15:12:00Z</time>
      </trkpt>
      <trkpt lat="50.01165" lon="2.00265">
        <ele>13.9</ele>
        <time>2022-04-12T15:12:01Z</time>
      </trkpt>
      <trkpt lat="50.01165" lon="2.00265">
        <ele>13.9</ele>
        <time>2022-04-12T15:12:02Z</time>
      </trkpt>
      <trkpt lat="50.01165" lon="2.00265">
        <ele>13.9</ele>
        <time>2022-04-12T15:12:03Z</time>
      </trkpt>
      <trkpt lat="50.01165" lon="2.00265">
        <ele>13.9</ele>
        <time>2022-04-12T15:12:04Z</time>
      </trkpt>
      <trkpt lat="50.01165" lon="2.00265">
        <ele>13.9</ele>
        <time>2022-04-12T15:12:05Z</time>
      </trkpt>
      <trkpt lat="50.01165" lon="2.00265">
        <ele>13.9</ele>
        <time>2022-04-12T15:12:06Z</time>
      </trkpt>
      <trkpt lat="50.01165" lon="2.00265">
        <ele>13.9</ele>
        <time>2022-04-12T15:12:07Z</time>
      </trkpt>
      <trkpt lat="50.01165" lon="2.00265">
        <ele>13.9</ele>
        <time>2022-04-12T15:12:08Z</time>
      </trkpt>
      <trkpt lat="50.01165" lon="2.00265">
        <ele>13.9</ele>
        <time>2022-04-12T15:12:09Z</time>
      </trkpt>
      <trkpt lat="50.01165" lon="2.00265">
        <ele>13.9</ele>
        <time>2022-04-12T15:12:10Z</time>
      </trkpt>
      <trkpt lat="50.01165" lon="2.00265">
        <ele>13.9</ele>
        <time>2022-04-12T15:12:11Z</time>
      </trkpt>
      <trkpt lat="50.01165" lon="2.00265">
        <ele>13.9</ele>
        <time>2022-04-12T15:12:12Z</time>
      </trkpt>
      <trkpt lat="50.01165" lon="2.00265">
        <ele>13.9</ele>
        <time>2022-04-12T15:12:13Z</time>
      </trkpt>
      <trkpt lat="50.01165" lon="2.00265">
        <ele>13.9</ele>
        <time>2022-04-12T15:12:14Z</time>
      </trkpt>
      <trkpt lat="50.01165" lon="2.00265">
        <ele>13.9</ele>
        <time>2022-04-12T15:12:15Z</time>
      </trkpt>
      <trkpt lat="50.01165" lon="2.00265">
        <ele>13.9</ele>
        <time>2022-04-12T15:12:16Z</time>
      </trkpt>
      <trkpt lat="50.01165" lon="2.00265">
        <ele>13.9</ele>
        <time>2022-04-12T15:12:17Z</time>
      </trkpt>
      <trkpt lat="50.01165" lon="2.00265">
        <ele>13.9</ele>
        <time>2022-04-12T15:12:18Z</time>
      </trkpt>
      <trkpt lat="50.01165" lon="2.00265">
        <ele>13.9</ele>
        <time>2022-04-12T15:12:19Z</time>
      </trkpt>
      <trkpt lat="50.01165" lon="2.00265">
        <ele>13.9</ele>
        <time>2022-04-12T15:12:20Z</time>
      </trkpt>
      <trkpt lat="50.01165" lon="2.00265">
        <ele>13.9</ele>
        <time>2022-04-12T15:12:21Z</time>
      </trkpt>
      <trkpt lat="50.01165" lon="2.00265">
        <ele>13.9</ele>
        <time>2022-04-12T15:12:22Z</time>
      </trkpt>
      <trkpt lat="50.01165" lon="2.00265">
        <ele>13.9</ele>
        <time>2022-04-12T15:12:23Z</time>
      </trkpt>
      <trkpt lat="50.01165" lon="2.00265">
        <ele>13.9</ele>
        <time>2022-04-12T15:12:24Z</time>
      </trkpt>
      <trkpt lat="50.01165" lon="2.00265">
        <ele>13.9</ele>
        <time>2022-04-12T15:12:25Z</time>
      </trkpt>
      <trkpt lat="50.01165" lon="2.00265">
        <ele>13.9</ele>
        <time>2022-04-12T15:12:26Z</time>
      </trkpt>
      <trkpt lat="50.01165" lon="2.00265">
        <ele>13.9</ele>
        <time>2022-04-12T15:12:27Z</time>
      </trkpt>
      <trkpt lat="50.01165" lon="2.00265">
        <ele>13.9</ele>
        <time>2022-04-12T15:12:28Z</time>
      </trkpt>
      <trkpt lat="50.01165" lon="2.00265">
        <ele>13.9</ele>
        <time>2022-04-12T15:12:29Z</time>
      </trkpt>
      <trkpt lat="50.01165" lon="2.00265">
        <ele>13.9</ele>
        <time>2022-04-12T15:12:30Z</time>
      </trkpt>
      <trkpt lat="50.01165" lon="2.00265">
        <ele>13.9</ele>
        <time>2022-04-12T15:12:31Z</time>
      </trkpt>
      <trkpt lat="50.01165" lon="2.00265">
        <ele>13.9</ele>
        <time>2022-04-12T15:12:32Z</time>
      </trkpt>
      <trkpt lat="50.01165" lon="2.00265">
        <ele>13.9</ele>
        <time>2022-04-12T15:12:33Z</time>
      </trkpt>
      <trkpt lat="50.01165" lon="2.00265">
        <ele>13.9</ele>
        <time>2022-04-12T15:12:34Z</time>
      </trkpt>
      <trkpt lat="50.01165" lon="2.00265">
        <ele>13.9</ele>
        <time>2022-04-12T15:12:35Z</time>
      </trkpt>
      <trkpt lat="50.01165" lon="2.00265">
        <ele>13.9</ele>
        <time>2022-04-12T15:12:36Z</time>
      </trkpt>
      <trkpt lat="50.01165" lon="2.00265">
        <ele>13.9</ele>
        <time>2022-04-12T15:12:37Z</time>
      </trkpt>
      <trkpt lat="50.01165" lon="2.00265">
        <ele>13.9</ele>
        <time>2022-04-12T15:12:38Z</time>
      </trkpt>
      <trkpt lat="50.01165" lon="2.00265">
        <ele>13.9</ele>
        <time>2022-04-12T15:12:39Z</time>
      </trkpt>
      <trkpt lat="50.01165" lon="2.00265">
        <ele>13.9</ele>
        <time>2022-04-12T15:12:40Z</time>
      </trkpt>
      <trkpt lat="50.01165" lon="2.00265">
        <ele>13.9</ele>
        <time>2022-04-12T15:12:41Z</time>
      </trkpt>
      <trkpt lat="50.01165" lon="2.00265">
        <ele>13.9</ele>
        <time>2022-04-12T15:12:42Z</time>
      </trkpt>
      <trkpt lat="50.01165" lon="2.00265">
        <ele>13.9</ele>
        <time>2022-04-12T15:12:43Z</time>
      </trkpt>
      <trkpt lat="50.01165" lon="2.00265">
        <ele>13.9</ele>
        <time>2022-04-12T15:12:44Z</time>
      </trkpt>
      <trkpt lat="50.01165" lon="2.00265">
        <ele>13.9</ele>
        <time>2022-04-12T15:12:45Z</time>
      </trkpt>
      <trkpt lat="50.01165" lon="2.00265">
        <ele>13.9</ele>
        <time>2022-04-12T15:12:46Z</time>
      </trkpt>
      <trkpt lat="50.01165" lon="2.00265">
        <ele>13.9</ele>
        <time>2022-04-12T15:12:47Z</time>
      </trkpt>
      <trkpt lat="50.01165" lon="2.00265">
        <ele>13.9</ele>
        <time>2022-04-12T15:12:48Z</time>
      </trkpt>
      <trkpt lat="50.01165" lon="2.00265">
        <ele>13.9</ele>
        <time>2022-04-12T15:12:49Z</time>
      </trkpt>
      <trkpt lat="50.01165" lon="2.00265">
        <ele>13.9</ele>
        <time>2022-04-12T15:12:50Z</time>
      </trkpt>
      <trkpt lat="50.01165" lon="2.00265">
        <ele>13.9</ele>
        <time>2022-04-12T15:12:51Z</time>
      </trkpt>
      <trkpt lat="50.01165" lon="2.00265">
        <ele>13.9</ele>
        <time>2022-04-12T15:12:52Z</time>
      </trkpt>
      <trkpt lat="50.01165" lon="2.00265">
        <ele>13.9</ele>
        <time>2022-04-12T15:12:53Z</time>
      </trkpt>
      <trkpt lat="50.01165" lon="2.00265">
        <ele>13.9</ele>
        <time>2022-04-12T15:12:54Z</time>
      </trkpt>
      <trkpt lat="50.01165" lon="2.00265">
        <ele>13.9</ele>
        <time>2022-04-12T15:12:55Z</time>
      </trkpt>
      <trkpt lat="50.01165" lon="2.00265">
        <ele>13.9</ele>
        <time>2022-04-12T15:12:56Z</time>
      </trkpt>
      <trkpt lat="50.01165" lon="2.00265">
        <ele>13.9</ele>
        <time>2022-04-12T15:12:57Z</time>
      </trkpt>
      <trkpt lat="50.01165" lon="2.00265">
        <ele>13.9</ele>
        <time>2022-04-12T15:12:58Z</time>
      </trkpt>
      <trkpt lat="50.01165" lon="2.00265">
        <ele>13.9</ele>
        <time>2022-04-12T15:12:59Z</time>
      </trkpt>
      <trkpt lat="50.01165" lon="2.00265">
        <ele>13.9</ele>
        <time>2022-04-12T15:13:00Z</time>
      </trkpt>
      <trkpt lat="50.01165" lon="2.00265">
        <ele>13.9</ele>
        <time>2022-04-12T15:13:01Z</time>
      </trkpt>
      <trkpt lat="50.01165" lon="2.00265">
        <ele>13.9</ele>
        <time>2022-04-12T15:13:03Z</time>
      </trkpt>
      <trkpt lat="50.01165" lon="2.00265">
        <ele>13.9</ele>
        <time>2022-04-12T15:13:04Z</time>
      </trkpt>
      <trkpt lat="50.01165" lon="2.00265">
        <ele>13.9</ele>
        <time>2022-04-12T15:13:05Z</time>
      </trkpt>
      <trkpt lat="50.01165" lon="2.00265">
        <ele>13.9</ele>
        <time>2022-04-12T15:13:06Z</time>
      </trkpt>
      <trkpt lat="50.01165" lon="2.00265">
        <ele>13.9</ele>
        <time>2022-04-12T15:13:07Z</time>
      </trkpt>
      <trkpt lat="50.01165" lon="2.00265">
        <ele>13.9</ele>
        <time>2022-04-12T15:13:08Z</time>
      </trkpt>
      <trkpt lat="50.01165" lon="2.00265">
        <ele>13.9</ele>
        <time>2022-04-12T15:13:09Z</time>
      </trkpt>
      <trkpt lat="50.01165" lon="2.00265">
        <ele>13.9</ele>
        <time>2022-04-12T15:13:10Z</time>
      </trkpt>
      <trkpt lat="50.01165" lon="2.00265">
        <ele>13.9</ele>
        <time>2022-04-12T15:13:11Z</time>
      </trkpt>
      <trkpt lat="50.01165" lon="2.00265">
        <ele>13.9</ele>
        <time>2022-04-12T15:13:13Z</time>
      </trkpt>
      <trkpt lat="50.01165" lon="2.00265">
        <ele>13.9</ele>
        <time>2022-04-12T15:13:14Z</time>
      </trkpt>
      <trkpt lat="50.01165" lon="2.00265">
        <ele>13.9</ele>
        <time>2022-04-12T15:13:15Z</time>
      </trkpt>
      <trkpt lat="50.01165" lon="2.00265">
        <ele>13.9</ele>
        <time>2022-04-12T15:13:16Z</time>
      </trkpt>
      <trkpt lat="50.01165" lon="2.00265">
        <ele>13.9</ele>
        <time>2022-04-12T15:13:18Z</time>
      </trkpt>
      <trkpt lat="50.01166" lon="2.00265">
        <ele>13.9</ele>
        <time>2022-04-12T15:13:19Z</time>
      </trkpt>
      <trkpt lat="50.01166" lon="2.00265">
        <ele>13.9</ele>
        <time>2022-04-12T15:13:21Z</time>
      </trkpt>
      <trkpt lat="50.01166" lon="2.00265">
        <ele>13.9</ele>
        <time>2022-04-12T15:13:22Z</time>
      </trkpt>
      <trkpt lat="50.01166" lon="2.00265">
        <ele>13.9</ele>
        <time>2022-04-12T15:13:24Z</time>
      </trkpt>
      <trkpt lat="50.01166" lon="2.00265">
        <ele>13.9</ele>
        <time>2022-04-12T15:13:25Z</time>
      </trkpt>
      <trkpt lat="50.01166" lon="2.00265">
        <ele>13.9</ele>
        <time>2022-04-12T15:13:27Z</time>
      </trkpt>
      <trkpt lat="50.01166" lon="2.00265">
        <ele>13.9</ele>
        <time>2022-04-12T15:13:28Z</time>
      </trkpt>
      <trkpt lat="50.01166" lon="2.00265">
        <ele>13.9</ele>
        <time>2022-04-12T15:13:29Z</time>
      </trkpt>
      <trkpt lat="50.01166" lon="2.00265">
        <ele>13.9</ele>
        <time>2022-04-12T15:13:30Z</time>
      </trkpt>
      <trkpt lat="50.01166" lon="2.00265">
        <ele>13.9</ele>
        <time>2022-04-12T15:13:31Z</time>
      </trkpt>
      <trkpt lat="50.01166" lon="2.00265">
        <ele>13.9</ele>
        <time>2022-04-12T15:13:33Z</time>
      </trkpt>
      <trkpt lat="50.01166" lon="2.00265">
        <ele>13.9</ele>
        <time>2022-04-12T15:13:34Z</time>
      </trkpt>
      <trkpt lat="50.01166" lon="2.00265">
        <ele>13.9</ele>
        <time>2022-04-12T15:13:35Z</time>
      </trkpt>
      <trkpt lat="50.01166" lon="2.00265">
        <ele>13.9</ele>
        <time>2022-04-12T15:13:36Z</time>
      </trkpt>
      <trkpt lat="50.01166" lon="2.00265">
        <ele>13.9</ele>
        <time>2022-04-12T15:13:37Z</time>
      </trkpt>
      <trkpt lat="50.01166" lon="2.00265">
        <ele>13.9</ele>
        <time>2022-04-12T15:13:38Z</time>
      </trkpt>
      <trkpt lat="50.01166" lon="2.00265">
        <ele>13.9</ele>
        <time>2022-04-12T15:13:40Z</time>
      </trkpt>
      <trkpt lat="50.01166" lon="2.00265">
        <ele>13.9</ele>
        <time>2022-04-12T15:13:41Z</time>
      </trkpt>
      <trkpt lat="50.01166" lon="2.00265">
        <ele>13.9</ele>
        <time>2022-04-12T15:13:42Z</time>
      </trkpt>
      <trkpt lat="50.01166" lon="2.00265">
        <ele>13.9</ele>
        <time>2022-04-12T15:13:43Z</time>
      </trkpt>
      <trkpt lat="50.01166" lon="2.00265">
        <ele>13.9</ele>
        <time>2022-04-12T15:13:44Z</time>
      </trkpt>
      <trkpt lat="50.01166" lon="2.00265">
        <ele>13.9</ele>
        <time>2022-04-12T15:13:45Z</time>
      </trkpt>
      <trkpt lat="50.01166" lon="2.00265">
        <ele>13.9</ele>
        <time>2022-04-12T15:13:46Z</time>
      </trkpt>
      <trkpt lat="50.01166" lon="2.00265">
        <ele>13.9</ele>
        <time>2022-04-12T15:13:47Z</time>
      </trkpt>
      <trkpt lat="50.01166" lon="2.00265">
        <ele>13.9</ele>
        <time>2022-04-12T15:13:48Z</time>
      </trkpt>
      <trkpt lat="50.01166" lon="2.00264">
        <ele>13.9</ele>
        <time>2022-04-12T15:13:49Z</time>
      </trkpt>
      <trkpt lat="50.01166" lon="2.00264">
        <ele>13.9</ele>
        <time>2022-04-12T15:13:50Z</time>
      </trkpt>
      <trkpt lat="50.01166" lon="2.00264">
        <ele>13.9</ele>
        <time>2022-04-12T15:13:51Z</time>
      </trkpt>
      <trkpt lat="50.01166" lon="2.00264">
        <ele>13.9</ele>
        <time>2022-04-12T15:13:52Z</time>
      </trkpt>
      <trkpt lat="50.01166" lon="2.00264">
        <ele>13.9</ele>
        <time>2022-04-12T15:13:53Z</time>
      </trkpt>
      <trkpt lat="50.01166" lon="2.00264">
        <ele>13.9</ele>
        <time>2022-04-12T15:13:54Z</time>
      </trkpt>
      <trkpt lat="50.01166" lon="2.00264">
        <ele>13.9</ele>
        <time>2022-04-12T15:13:55Z</time>
      </trkpt>
      <trkpt lat="50.01166" lon="2.00264">
        <ele>13.9</ele>
        <time>2022-04-12T15:13:56Z</time>
      </trkpt>
      <trkpt lat="50.01166" lon="2.00264">
        <ele>13.9</ele>
        <time>2022-04-12T15:13:57Z</time>
      </trkpt>
      <trkpt lat="50.01166" lon="2.00264">
        <ele>13.9</ele>
        <time>2022-04-12T15:13:58Z</time>
      </trkpt>
      <trkpt lat="50.01166" lon="2.00264">
        <ele>13.9</ele>
        <time>2022-04-12T15:13:59Z</time>
      </trkpt>
      <trkpt lat="50.01166" lon="2.00264">
        <ele>13.9</ele>
        <time>2022-04-12T15:14:00Z</time>
      </trkpt>
      <trkpt lat="50.01166" lon="2.00264">
        <ele>13.9</ele>
        <time>2022-04-12T15:14:01Z</time>
      </trkpt>
      <trkpt lat="50.01166" lon="2.00264">
        <ele>13.9</ele>
        <time>2022-04-12T15:14:02Z</time>
      </trkpt>
      <trkpt lat="50.01166" lon="2.00264">
        <ele>13.9</ele>
        <time>2022-04-12T15:14:03Z</time>
      </trkpt>
      <trkpt lat="50.01166" lon="2.00264">
        <ele>13.9</ele>
        <time>2022-04-12T15:14:04Z</time>
      </trkpt>
      <trkpt lat="50.01166" lon="2.00264">
        <ele>13.9</ele>
        <time>2022-04-12T15:14:05Z</time>
      </trkpt>
      <trkpt lat="50.01166" lon="2.00264">
        <ele>13.9</ele>
        <time>2022-04-12T15:14:06Z</time>
      </trkpt>
      <trkpt lat="50.01166" lon="2.00264">
        <ele>13.9</ele>
        <time>2022-04-12T15:14:07Z</time>
      </trkpt>
      <trkpt lat="50.01166" lon="2.00264">
        <ele>13.9</ele>
        <time>2022-04-12T15:14:08Z</time>
      </trkpt>
      <trkpt lat="50.01166" lon="2.00264">
        <ele>13.9</ele>
        <time>2022-04-12T15:14:09Z</time>
      </trkpt>
      <trkpt lat="50.01166" lon="2.00264">
        <ele>13.9</ele>
        <time>2022-04-12T15:14:10Z</time>
      </trkpt>
      <trkpt lat="50.01168" lon="2.00263">
        <ele>13.9</ele>
        <time>2022-04-12T15:14:11Z</time>
      </trkpt>
      <trkpt lat="50.01169" lon="2.00263">
        <ele>13.8</ele>
        <time>2022-04-12T15:14:12Z</time>
      </trkpt>
      <trkpt lat="50.01169" lon="2.00263">
        <ele>13.8</ele>
        <time>2022-04-12T15:14:13Z</time>
      </trkpt>
      <trkpt lat="50.01169" lon="2.00263">
        <ele>13.8</ele>
        <time>2022-04-12T15:14:14Z</time>
      </trkpt>
      <trkpt lat="50.01169" lon="2.00263">
        <ele>13.8</ele>
        <time>2022-04-12T15:14:15Z</time>
      </trkpt>
      <trkpt lat="50.01169" lon="2.00263">
        <ele>13.8</ele>
        <time>2022-04-12T15:14:16Z</time>
      </trkpt>
      <trkpt lat="50.01169" lon="2.00263">
        <ele>13.8</ele>
        <time>2022-04-12T15:14:17Z</time>
      </trkpt>
      <trkpt lat="50.01169" lon="2.00263">
        <ele>13.8</ele>
        <time>2022-04-12T15:14:18Z</time>
      </trkpt>
      <trkpt lat="50.01169" lon="2.00263">
        <ele>13.8</ele>
        <time>2022-04-12T15:14:19Z</time>
      </trkpt>
      <trkpt lat="50.01169" lon="2.00263">
        <ele>13.8</ele>
        <time>2022-04-12T15:14:20Z</time>
      </trkpt>
      <trkpt lat="50.01169" lon="2.00263">
        <ele>13.8</ele>
        <time>2022-04-12T15:14:21Z</time>
      </trkpt>
      <trkpt lat="50.01169" lon="2.00263">
        <ele>13.8</ele>
        <time>2022-04-12T15:14:22Z</time>
      </trkpt>
      <trkpt lat="50.01169" lon="2.00263">
        <ele>13.8</ele>
        <time>2022-04-12T15:14:23Z</time>
      </trkpt>
      <trkpt lat="50.01169" lon="2.00263">
        <ele>13.8</ele>
        <time>2022-04-12T15:14:24Z</time>
      </trkpt>
      <trkpt lat="50.01169" lon="2.00263">
        <ele>13.8</ele>
        <time>2022-04-12T15:14:25Z</time>
      </trkpt>
      <trkpt lat="50.01169" lon="2.00263">
        <ele>13.8</ele>
        <time>2022-04-12T15:14:26Z</time>
      </trkpt>
      <trkpt lat="50.01169" lon="2.00263">
        <ele>13.8</ele>
        <time>2022-04-12T15:14:27Z</time>
      </trkpt>
      <trkpt lat="50.01169" lon="2.00263">
        <ele>13.8</ele>
        <time>2022-04-12T15:14:28Z</time>
      </trkpt>
      <trkpt lat="50.01169" lon="2.00263">
        <ele>13.8</ele>
        <time>2022-04-12T15:14:29Z</time>
      </trkpt>
      <trkpt lat="50.01169" lon="2.00263">
        <ele>13.8</ele>
        <time>2022-04-12T15:14:30Z</time>
      </trkpt>
      <trkpt lat="50.01169" lon="2.00263">
        <ele>13.8</ele>
        <time>2022-04-12T15:14:31Z</time>
      </trkpt>
      <trkpt lat="50.01169" lon="2.00263">
        <ele>13.8</ele>
        <time>2022-04-12T15:14:32Z</time>
      </trkpt>
      <trkpt lat="50.01169" lon="2.00263">
        <ele>13.8</ele>
        <time>2022-04-12T15:14:33Z</time>
      </trkpt>
      <trkpt lat="50.01169" lon="2.00263">
        <ele>13.8</ele>
        <time>2022-04-12T15:14:34Z</time>
      </trkpt>
      <trkpt lat="50.01169" lon="2.00263">
        <ele>13.8</ele>
        <time>2022-04-12T15:14:35Z</time>
      </trkpt>
      <trkpt lat="50.01169" lon="2.00263">
        <ele>13.8</ele>
        <time>2022-04-12T15:14:36Z</time>
      </trkpt>
      <trkpt lat="50.01169" lon="2.00263">
        <ele>13.8</ele>
        <time>2022-04-12T15:14:37Z</time>
      </trkpt>
      <trkpt lat="50.01169" lon="2.00263">
        <ele>13.8</ele>
        <time>2022-04-12T15:14:38Z</time>
      </trkpt>
      <trkpt lat="50.01169" lon="2.00263">
        <ele>13.8</ele>
        <time>2022-04-12T15:14:39Z</time>
      </trkpt>
      <trkpt lat="50.01169" lon="2.00263">
        <ele>13.8</ele>
        <time>2022-04-12T15:14:40Z</time>
      </trkpt>
      <trkpt lat="50.01169" lon="2.00263">
        <ele>13.8</ele>
        <time>2022-04-12T15:14:41Z</time>
      </trkpt>
      <trkpt lat="50.01169" lon="2.00263">
        <ele>13.8</ele>
        <time>2022-04-12T15:14:42Z</time>
      </trkpt>
      <trkpt lat="50.01169" lon="2.00263">
        <ele>13.8</ele>
        <time>2022-04-12T15:14:44Z</time>
      </trkpt>
      <trkpt lat="50.01169" lon="2.00263">
        <ele>13.8</ele>
        <time>2022-04-12T15:14:45Z</time>
      </trkpt>
      <trkpt lat="50.01169" lon="2.00263">
        <ele>13.8</ele>
        <time>2022-04-12T15:14:46Z</time>
      </trkpt>
      <trkpt lat="50.01169" lon="2.00263">
        <ele>13.8</ele>
        <time>2022-04-12T15:14:47Z</time>
      </trkpt>
      <trkpt lat="50.01169" lon="2.00263">
        <ele>13.8</ele>
        <time>2022-04-12T15:14:48Z</time>
      </trkpt>
      <trkpt lat="50.01169" lon="2.00263">
        <ele>13.8</ele>
        <time>2022-04-12T15:14:49Z</time>
      </trkpt>
      <trkpt lat="50.01169" lon="2.00263">
        <ele>13.8</ele>
        <time>2022-04-12T15:14:50Z</time>
      </trkpt>
      <trkpt lat="50.01169" lon="2.00263">
        <ele>13.8</ele>
        <time>2022-04-12T15:14:51Z</time>
      </trkpt>
      <trkpt lat="50.01169" lon="2.00263">
        <ele>13.8</ele>
        <time>2022-04-12T15:14:52Z</time>
      </trkpt>
      <trkpt lat="50.01169" lon="2.00263">
        <ele>13.8</ele>
        <time>2022-04-12T15:14:53Z</time>
      </trkpt>
      <trkpt lat="50.01169" lon="2.00263">
        <ele>13.8</ele>
        <time>2022-04-12T15:14:54Z</time>
      </trkpt>
      <trkpt lat="50.01169" lon="2.00263">
        <ele>13.8</ele>
        <time>2022-04-12T15:14:55Z</time>
      </trkpt>
      <trkpt lat="50.01169" lon="2.00263">
        <ele>13.8</ele>
        <time>2022-04-12T15:14:56Z</time>
      </trkpt>
      <trkpt lat="50.01169" lon="2.00263">
        <ele>13.8</ele>
        <time>2022-04-12T15:14:57Z</time>
      </trkpt>
      <trkpt lat="50.01169" lon="2.00263">
        <ele>13.8</ele>
        <time>2022-04-12T15:14:58Z</time>
      </trkpt>
      <trkpt lat="50.01169" lon="2.00263">
        <ele>13.8</ele>
        <time>2022-04-12T15:15:00Z</time>
      </trkpt>
      <trkpt lat="50.01169" lon="2.00263">
        <ele>13.8</ele>
        <time>2022-04-12T15:15:01Z</time>
      </trkpt>
      <trkpt lat="50.01169" lon="2.00263">
        <ele>13.8</ele>
        <time>2022-04-12T15:15:02Z</time>
      </trkpt>
      <trkpt lat="50.01169" lon="2.00263">
        <ele>13.8</ele>
        <time>2022-04-12T15:15:03Z</time>
      </trkpt>
      <trkpt lat="50.01169" lon="2.00263">
        <ele>13.8</ele>
        <time>2022-04-12T15:15:04Z</time>
      </trkpt>
      <trkpt lat="50.01169" lon="2.00263">
        <ele>13.8</ele>
        <time>2022-04-12T15:15:05Z</time>
      </trkpt>
      <trkpt lat="50.01169" lon="2.00263">
        <ele>13.8</ele>
        <time>2022-04-12T15:15:06Z</time>
      </trkpt>
      <trkpt lat="50.01169" lon="2.00263">
        <ele>13.8</ele>
        <time>2022-04-12T15:15:07Z</time>
      </trkpt>
      <trkpt lat="50.01169" lon="2.00263">
        <ele>13.8</ele>
        <time>2022-04-12T15:15:08Z</time>
      </trkpt>
      <trkpt lat="50.01169" lon="2.00263">
        <ele>13.8</ele>
        <time>2022-04-12T15:15:09Z</time>
      </trkpt>
      <trkpt lat="50.01169" lon="2.00263">
        <ele>13.8</ele>
        <time>2022-04-12T15:15:10Z</time>
      </trkpt>
      <trkpt lat="50.01169" lon="2.00263">
        <ele>13.8</ele>
        <time>2022-04-12T15:15:11Z</time>
      </trkpt>
      <trkpt lat="50.01169" lon="2.00263">
        <ele>13.8</ele>
        <time>2022-04-12T15:15:12Z</time>
      </trkpt>
      <trkpt lat="50.01169" lon="2.00263">
        <ele>13.8</ele>
        <time>2022-04-12T15:15:13Z</time>
      </trkpt>
      <trkpt lat="50.01169" lon="2.00263">
        <ele>13.8</ele>
        <time>2022-04-12T15:15:14Z</time>
      </trkpt>
      <trkpt lat="50.01169" lon="2.00263">
        <ele>13.8</ele>
        <time>2022-04-12T15:15:15Z</time>
      </trkpt>
      <trkpt lat="50.01169" lon="2.00263">
        <ele>13.8</ele>
        <time>2022-04-12T15:15:16Z</time>
      </trkpt>
      <trkpt lat="50.01169" lon="2.00263">
        <ele>13.8</ele>
        <time>2022-04-12T15:15:17Z</time>
      </trkpt>
      <trkpt lat="50.01169" lon="2.00263">
        <ele>13.8</ele>
        <time>2022-04-12T15:15:18Z</time>
      </trkpt>
      <trkpt lat="50.01169" lon="2.00263">
        <ele>13.8</ele>
        <time>2022-04-12T15:15:19Z</time>
      </trkpt>
      <trkpt lat="50.01169" lon="2.00263">
        <ele>13.8</ele>
        <time>2022-04-12T15:15:20Z</time>
      </trkpt>
      <trkpt lat="50.01169" lon="2.00263">
        <ele>13.8</ele>
        <time>2022-04-12T15:15:21Z</time>
      </trkpt>
      <trkpt lat="50.01169" lon="2.00263">
        <ele>13.8</ele>
        <time>2022-04-12T15:15:22Z</time>
      </trkpt>
      <trkpt lat="50.01169" lon="2.00263">
        <ele>13.8</ele>
        <time>2022-04-12T15:15:23Z</time>
      </trkpt>
      <trkpt lat="50.01169" lon="2.00263">
        <ele>13.8</ele>
        <time>2022-04-12T15:15:24Z</time>
      </trkpt>
      <trkpt lat="50.01169" lon="2.00263">
        <ele>13.8</ele>
        <time>2022-04-12T15:15:25Z</time>
      </trkpt>
      <trkpt lat="50.01169" lon="2.00264">
        <ele>13.8</ele>
        <time>2022-04-12T15:15:26Z</time>
      </trkpt>
      <trkpt lat="50.01169" lon="2.00264">
        <ele>13.8</ele>
        <time>2022-04-12T15:15:27Z</time>
      </trkpt>
      <trkpt lat="50.01169" lon="2.00264">
        <ele>13.8</ele>
        <time>2022-04-12T15:15:28Z</time>
      </trkpt>
      <trkpt lat="50.01169" lon="2.00264">
        <ele>13.8</ele>
        <time>2022-04-12T15:15:29Z</time>
      </trkpt>
      <trkpt lat="50.01169" lon="2.00264">
        <ele>13.8</ele>
        <time>2022-04-12T15:15:30Z</time>
      </trkpt>
      <trkpt lat="50.01169" lon="2.00263">
        <ele>13.8</ele>
        <time>2022-04-12T15:15:31Z</time>
      </trkpt>
      <trkpt lat="50.01169" lon="2.00263">
        <ele>13.8</ele>
        <time>2022-04-12T15:15:32Z</time>
      </trkpt>
      <trkpt lat="50.01169" lon="2.00263">
        <ele>13.8</ele>
        <time>2022-04-12T15:15:33Z</time>
      </trkpt>
      <trkpt lat="50.01169" lon="2.00263">
        <ele>13.8</ele>
        <time>2022-04-12T15:15:34Z</time>
      </trkpt>
      <trkpt lat="50.01169" lon="2.00263">
        <ele>13.8</ele>
        <time>2022-04-12T15:15:35Z</time>
      </trkpt>
      <trkpt lat="50.01169" lon="2.00263">
        <ele>13.8</ele>
        <time>2022-04-12T15:15:36Z</time>
      </trkpt>
      <trkpt lat="50.01169" lon="2.00263">
        <ele>13.8</ele>
        <time>2022-04-12T15:15:37Z</time>
      </trkpt>
      <trkpt lat="50.01169" lon="2.00263">
        <ele>13.8</ele>
        <time>2022-04-12T15:15:38Z</time>
      </trkpt>
      <trkpt lat="50.01169" lon="2.00263">
        <ele>13.8</ele>
        <time>2022-04-12T15:15:39Z</time>
      </trkpt>
      <trkpt lat="50.01169" lon="2.00263">
        <ele>13.8</ele>
        <time>2022-04-12T15:15:40Z</time>
      </trkpt>
      <trkpt lat="50.01169" lon="2.00263">
        <ele>13.8</ele>
        <time>2022-04-12T15:15:41Z</time>
      </trkpt>
      <trkpt lat="50.01169" lon="2.00263">
        <ele>13.8</ele>
        <time>2022-04-12T15:15:42Z</time>
      </trkpt>
      <trkpt lat="50.01169" lon="2.00263">
        <ele>13.8</ele>
        <time>2022-04-12T15:15:43Z</time>
      </trkpt>
      <trkpt lat="50.01169" lon="2.00263">
        <ele>13.8</ele>
        <time>2022-04-12T15:15:44Z</time>
      </trkpt>
      <trkpt lat="50.01169" lon="2.00263">
        <ele>13.8</ele>
        <time>2022-04-12T15:15:45Z</time>
      </trkpt>
      <trkpt lat="50.01169" lon="2.00263">
        <ele>13.8</ele>
        <time>2022-04-12T15:15:46Z</time>
      </trkpt>
      <trkpt lat="50.01169" lon="2.00263">
        <ele>13.8</ele>
        <time>2022-04-12T15:15:47Z</time>
      </trkpt>
      <trkpt lat="50.01169" lon="2.00263">
        <ele>13.8</ele>
        <time>2022-04-12T15:15:48Z</time>
      </trkpt>
      <trkpt lat="50.01169" lon="2.00263">
        <ele>13.8</ele>
        <time>2022-04-12T15:15:49Z</time>
      </trkpt>
      <trkpt lat="50.01169" lon="2.00263">
        <ele>13.8</ele>
        <time>2022-04-12T15:15:50Z</time>
      </trkpt>
      <trkpt lat="50.01169" lon="2.00263">
        <ele>13.8</ele>
        <time>2022-04-12T15:15:51Z</time>
      </trkpt>
      <trkpt lat="50.01169" lon="2.00263">
        <ele>13.8</ele>
        <time>2022-04-12T15:15:52Z</time>
      </trkpt>
      <trkpt lat="50.01169" lon="2.00263">
        <ele>13.8</ele>
        <time>2022-04-12T15:15:53Z</time>
      </trkpt>
      <trkpt lat="50.01169" lon="2.00263">
        <ele>13.8</ele>
        <time>2022-04-12T15:15:54Z</time>
      </trkpt>
      <trkpt lat="50.01169" lon="2.00263">
        <ele>13.8</ele>
        <time>2022-04-12T15:15:55Z</time>
      </trkpt>
      <trkpt lat="50.01169" lon="2.00263">
        <ele>13.8</ele>
        <time>2022-04-12T15:15:56Z</time>
      </trkpt>
      <trkpt lat="50.01169" lon="2.00263">
        <ele>13.8</ele>
        <time>2022-04-12T15:15:57Z</time>
      </trkpt>
      <trkpt lat="50.01169" lon="2.00263">
        <ele>13.8</ele>
        <time>2022-04-12T15:15:58Z</time>
      </trkpt>
      <trkpt lat="50.01169" lon="2.00263">
        <ele>13.8</ele>
        <time>2022-04-12T15:15:59Z</time>
      </trkpt>
      <trkpt lat="50.01169" lon="2.00263">
        <ele>13.8</ele>
        <time>2022-04-12T15:16:00Z</time>
      </trkpt>
      <trkpt lat="50.01169" lon="2.00263">
        <ele>13.8</ele>
        <time>2022-04-12T15:16:01Z</time>
      </trkpt>
      <trkpt lat="50.01169" lon="2.00263">
        <ele>13.8</ele>
        <time>2022-04-12T15:16:02Z</time>
      </trkpt>
      <trkpt lat="50.01169" lon="2.00263">
        <ele>13.8</ele>
        <time>2022-04-12T15:16:03Z</time>
      </trkpt>
      <trkpt lat="50.01169" lon="2.00263">
        <ele>13.8</ele>
        <time>2022-04-12T15:16:04Z</time>
      </trkpt>
      <trkpt lat="50.01169" lon="2.00263">
        <ele>13.8</ele>
        <time>2022-04-12T15:16:05Z</time>
      </trkpt>
      <trkpt lat="50.01169" lon="2.00263">
        <ele>13.8</ele>
        <time>2022-04-12T15:16:06Z</time>
      </trkpt>
      <trkpt lat="50.01169" lon="2.00263">
        <ele>13.8</ele>
        <time>2022-04-12T15:16:07Z</time>
      </trkpt>
      <trkpt lat="50.01169" lon="2.00263">
        <ele>13.8</ele>
        <time>2022-04-12T15:16:08Z</time>
      </trkpt>
      <trkpt lat="50.01169" lon="2.00263">
        <ele>13.8</ele>
        <time>2022-04-12T15:16:09Z</time>
      </trkpt>
      <trkpt lat="50.01169" lon="2.00263">
        <ele>13.8</ele>
        <time>2022-04-12T15:16:10Z</time>
      </trkpt>
      <trkpt lat="50.01169" lon="2.00263">
        <ele>13.8</ele>
        <time>2022-04-12T15:16:11Z</time>
      </trkpt>
      <trkpt lat="50.01169" lon="2.00263">
        <ele>13.8</ele>
        <time>2022-04-12T15:16:12Z</time>
      </trkpt>
      <trkpt lat="50.01169" lon="2.00263">
        <ele>13.8</ele>
        <time>2022-04-12T15:16:13Z</time>
      </trkpt>
      <trkpt lat="50.01169" lon="2.00263">
        <ele>13.8</ele>
        <time>2022-04-12T15:16:14Z</time>
      </trkpt>
      <trkpt lat="50.01169" lon="2.00263">
        <ele>13.8</ele>
        <time>2022-04-12T15:16:15Z</time>
      </trkpt>
      <trkpt lat="50.01169" lon="2.00263">
        <ele>13.8</ele>
        <time>2022-04-12T15:16:16Z</time>
      </trkpt>
      <trkpt lat="50.01169" lon="2.00263">
        <ele>13.8</ele>
        <time>2022-04-12T15:16:17Z</time>
      </trkpt>
      <trkpt lat="50.01169" lon="2.00263">
        <ele>13.8</ele>
        <time>2022-04-12T15:16:18Z</time>
      </trkpt>
      <trkpt lat="50.01169" lon="2.00263">
        <ele>13.8</ele>
        <time>2022-04-12T15:16:19Z</time>
      </trkpt>
      <trkpt lat="50.01169" lon="2.00263">
        <ele>13.8</ele>
        <time>2022-04-12T15:16:20Z</time>
      </trkpt>
      <trkpt lat="50.01169" lon="2.00263">
        <ele>13.8</ele>
        <time>2022-04-12T15:16:21Z</time>
      </trkpt>
      <trkpt lat="50.01169" lon="2.00263">
        <ele>13.8</ele>
        <time>2022-04-12T15:16:22Z</time>
      </trkpt>
      <trkpt lat="50.01169" lon="2.00263">
        <ele>13.8</ele>
        <time>2022-04-12T15:16:23Z</time>
      </trkpt>
      <trkpt lat="50.01169" lon="2.00263">
        <ele>13.8</ele>
        <time>2022-04-12T15:16:24Z</time>
      </trkpt>
      <trkpt lat="50.01169" lon="2.00263">
        <ele>13.8</ele>
        <time>2022-04-12T15:16:25Z</time>
      </trkpt>
      <trkpt lat="50.01169" lon="2.00263">
        <ele>13.8</ele>
        <time>2022-04-12T15:16:26Z</time>
      </trkpt>
      <trkpt lat="50.01169" lon="2.00263">
        <ele>13.8</ele>
        <time>2022-04-12T15:16:27Z</time>
      </trkpt>
      <trkpt lat="50.01169" lon="2.00263">
        <ele>13.8</ele>
        <time>2022-04-12T15:16:28Z</time>
      </trkpt>
      <trkpt lat="50.01169" lon="2.00263">
        <ele>13.8</ele>
        <time>2022-04-12T15:16:29Z</time>
      </trkpt>
      <trkpt lat="50.01169" lon="2.00263">
        <ele>13.8</ele>
        <time>2022-04-12T15:16:30Z</time>
      </trkpt>
      <trkpt lat="50.01169" lon="2.00263">
        <ele>13.8</ele>
        <time>2022-04-12T15:16:31Z</time>
      </trkpt>
      <trkpt lat="50.01169" lon="2.00263">
        <ele>13.8</ele>
        <time>2022-04-12T15:16:32Z</time>
      </trkpt>
      <trkpt lat="50.01169" lon="2.00263">
        <ele>13.8</ele>
        <time>2022-04-12T15:16:33Z</time>
      </trkpt>
      <trkpt lat="50.01169" lon="2.00263">
        <ele>13.8</ele>
        <time>2022-04-12T15:16:34Z</time>
      </trkpt>
      <trkpt lat="50.01169" lon="2.00263">
        <ele>13.8</ele>
        <time>2022-04-12T15:16:35Z</time>
      </trkpt>
      <trkpt lat="50.01169" lon="2.00263">
        <ele>13.8</ele>
        <time>2022-04-12T15:16:36Z</time>
      </trkpt>
      <trkpt lat="50.01169" lon="2.00263">
        <ele>13.8</ele>
        <time>2022-04-12T15:16:37Z</time>
      </trkpt>
      <trkpt lat="50.01169" lon="2.00263">
        <ele>13.8</ele>
        <time>2022-04-12T15:16:38Z</time>
      </trkpt>
      <trkpt lat="50.01169" lon="2.00263">
        <ele>13.8</ele>
        <time>2022-04-12T15:16:39Z</time>
      </trkpt>
      <trkpt lat="50.01169" lon="2.00263">
        <ele>13.8</ele>
        <time>2022-04-12T15:16:40Z</time>
      </trkpt>
      <trkpt lat="50.01169" lon="2.00263">
        <ele>13.8</ele>
        <time>2022-04-12T15:16:41Z</time>
      </trkpt>
      <trkpt lat="50.01169" lon="2.00263">
        <ele>13.8</ele>
        <time>2022-04-12T15:16:42Z</time>
      </trkpt>
      <trkpt lat="50.01169" lon="2.00263">
        <ele>13.8</ele>
        <time>2022-04-12T15:16:43Z</time>
      </trkpt>
      <trkpt lat="50.01169" lon="2.00263">
        <ele>13.8</ele>
        <time>2022-04-12T15:16:44Z</time>
      </trkpt>
      <trkpt lat="50.01169" lon="2.00263">
        <ele>13.8</ele>
        <time>2022-04-12T15:16:45Z</time>
      </trkpt>
      <trkpt lat="50.01169" lon="2.00263">
        <ele>13.8</ele>
        <time>2022-04-12T15:16:46Z</time>
      </trkpt>
      <trkpt lat="50.01169" lon="2.00263">
        <ele>13.8</ele>
        <time>2022-04-12T15:16:47Z</time>
      </trkpt>
      <trkpt lat="50.01169" lon="2.00263">
        <ele>13.8</ele>
        <time>2022-04-12T15:16:48Z</time>
      </trkpt>
      <trkpt lat="50.01169" lon="2.00263">
        <ele>13.8</ele>
        <time>2022-04-12T15:16:49Z</time>
      </trkpt>
      <trkpt lat="50.01169" lon="2.00263">
        <ele>13.8</ele>
        <time>2022-04-12T15:16:50Z</time>
      </trkpt>
      <trkpt lat="50.01169" lon="2.00263">
        <ele>13.8</ele>
        <time>2022-04-12T15:16:51Z</time>
      </trkpt>
      <trkpt lat="50.01169" lon="2.00263">
        <ele>13.8</ele>
        <time>2022-04-12T15:16:52Z</time>
      </trkpt>
      <trkpt lat="50.01169" lon="2.00263">
        <ele>13.8</ele>
        <time>2022-04-12T15:16:53Z</time>
      </trkpt>
      <trkpt lat="50.01169" lon="2.00263">
        <ele>13.8</ele>
        <time>2022-04-12T15:16:54Z</time>
      </trkpt>
      <trkpt lat="50.01169" lon="2.00263">
        <ele>13.8</ele>
        <time>2022-04-12T15:16:55Z</time>
      </trkpt>
      <trkpt lat="50.01169" lon="2.00263">
        <ele>13.8</ele>
        <time>2022-04-12T15:16:56Z</time>
      </trkpt>
      <trkpt lat="50.01169" lon="2.00263">
        <ele>13.8</ele>
        <time>2022-04-12T15:16:57Z</time>
      </trkpt>
      <trkpt lat="50.01169" lon="2.00263">
        <ele>13.8</ele>
        <time>2022-04-12T15:16:58Z</time>
      </trkpt>
      <trkpt lat="50.01169" lon="2.00263">
        <ele>13.8</ele>
        <time>2022-04-12T15:16:59Z</time>
      </trkpt>
      <trkpt lat="50.01169" lon="2.00263">
        <ele>13.8</ele>
        <time>2022-04-12T15:17:00Z</time>
      </trkpt>
      <trkpt lat="50.01169" lon="2.00263">
        <ele>13.8</ele>
        <time>2022-04-12T15:17:01Z</time>
      </trkpt>
      <trkpt lat="50.01169" lon="2.00263">
        <ele>13.8</ele>
        <time>2022-04-12T15:17:02Z</time>
      </trkpt>
      <trkpt lat="50.01169" lon="2.00263">
        <ele>13.8</ele>
        <time>2022-04-12T15:17:03Z</time>
      </trkpt>
      <trkpt lat="50.01169" lon="2.00263">
        <ele>13.8</ele>
        <time>2022-04-12T15:17:04Z</time>
      </trkpt>
      <trkpt lat="50.01169" lon="2.00263">
        <ele>13.8</ele>
        <time>2022-04-12T15:17:05Z</time>
      </trkpt>
      <trkpt lat="50.01169" lon="2.00263">
        <ele>13.8</ele>
        <time>2022-04-12T15:17:06Z</time>
      </trkpt>
      <trkpt lat="50.01169" lon="2.00263">
        <ele>13.8</ele>
        <time>2022-04-12T15:17:07Z</time>
      </trkpt>
      <trkpt lat="50.01169" lon="2.00263">
        <ele>13.8</ele>
        <time>2022-04-12T15:17:08Z</time>
      </trkpt>
      <trkpt lat="50.01169" lon="2.00263">
        <ele>13.8</ele>
        <time>2022-04-12T15:17:09Z</time>
      </trkpt>
      <trkpt lat="50.01169" lon="2.00263">
        <ele>13.8</ele>
        <time>2022-04-12T15:17:10Z</time>
      </trkpt>
      <trkpt lat="50.01169" lon="2.00263">
        <ele>13.8</ele>
        <time>2022-04-12T15:17:11Z</time>
      </trkpt>
      <trkpt lat="50.01169" lon="2.00263">
        <ele>13.8</ele>
        <time>2022-04-12T15:17:12Z</time>
      </trkpt>
      <trkpt lat="50.01169" lon="2.00263">
        <ele>13.8</ele>
        <time>2022-04-12T15:17:13Z</time>
      </trkpt>
      <trkpt lat="50.01169" lon="2.00263">
        <ele>13.8</ele>
        <time>2022-04-12T15:17:14Z</time>
      </trkpt>
      <trkpt lat="50.01169" lon="2.00263">
        <ele>13.8</ele>
        <time>2022-04-12T15:17:15Z</time>
      </trkpt>
      <trkpt lat="50.01169" lon="2.00263">
        <ele>13.8</ele>
        <time>2022-04-12T15:17:16Z</time>
      </trkpt>
      <trkpt lat="50.01169" lon="2.00263">
        <ele>13.8</ele>
        <time>2022-04-12T15:17:17Z</time>
      </trkpt>
      <trkpt lat="50.01169" lon="2.00263">
        <ele>13.8</ele>
        <time>2022-04-12T15:17:18Z</time>
      </trkpt>
      <trkpt lat="50.01169" lon="2.00263">
        <ele>13.8</ele>
        <time>2022-04-12T15:17:19Z</time>
      </trkpt>
      <trkpt lat="50.01169" lon="2.00263">
        <ele>13.8</ele>
        <time>2022-04-12T15:17:20Z</time>
      </trkpt>
      <trkpt lat="50.01169" lon="2.00263">
        <ele>13.8</ele>
        <time>2022-04-12T15:17:21Z</time>
      </trkpt>
      <trkpt lat="50.01169" lon="2.00263">
        <ele>13.8</ele>
        <time>2022-04-12T15:17:22Z</time>
      </trkpt>
      <trkpt lat="50.01169" lon="2.00263">
        <ele>13.8</ele>
        <time>2022-04-12T15:17:23Z</time>
      </trkpt>
      <trkpt lat="50.01169" lon="2.00263">
        <ele>13.8</ele>
        <time>2022-04-12T15:17:24Z</time>
      </trkpt>
      <trkpt lat="50.01169" lon="2.00263">
        <ele>13.8</ele>
        <time>2022-04-12T15:17:25Z</time>
      </trkpt>
      <trkpt lat="50.01169" lon="2.00263">
        <ele>13.8</ele>
        <time>2022-04-12T15:17:26Z</time>
      </trkpt>
      <trkpt lat="50.01169" lon="2.00263">
        <ele>13.8</ele>
        <time>2022-04-12T15:17:27Z</time>
      </trkpt>
      <trkpt lat="50.01169" lon="2.00263">
        <ele>13.8</ele>
        <time>2022-04-12T15:17:28Z</time>
      </trkpt>
      <trkpt lat="50.01169" lon="2.00263">
        <ele>13.8</ele>
        <time>2022-04-12T15:17:29Z</time>
      </trkpt>
      <trkpt lat="50.01169" lon="2.00263">
        <ele>13.8</ele>
        <time>2022-04-12T15:17:30Z</time>
      </trkpt>
      <trkpt lat="50.01169" lon="2.00263">
        <ele>13.8</ele>
        <time>2022-04-12T15:17:31Z</time>
      </trkpt>
      <trkpt lat="50.01169" lon="2.00263">
        <ele>13.8</ele>
        <time>2022-04-12T15:17:32Z</time>
      </trkpt>
      <trkpt lat="50.01169" lon="2.00263">
        <ele>13.8</ele>
        <time>2022-04-12T15:17:33Z</time>
      </trkpt>
      <trkpt lat="50.01169" lon="2.00263">
        <ele>13.8</ele>
        <time>2022-04-12T15:17:34Z</time>
      </trkpt>
      <trkpt lat="50.01169" lon="2.00263">
        <ele>13.8</ele>
        <time>2022-04-12T15:17:35Z</time>
      </trkpt>
      <trkpt lat="50.01169" lon="2.00263">
        <ele>13.8</ele>
        <time>2022-04-12T15:17:36Z</time>
      </trkpt>
      <trkpt lat="50.01169" lon="2.00263">
        <ele>13.8</ele>
        <time>2022-04-12T15:17:37Z</time>
      </trkpt>
      <trkpt lat="50.01169" lon="2.00263">
        <ele>13.8</ele>
        <time>2022-04-12T15:17:38Z</time>
      </trkpt>
      <trkpt lat="50.01169" lon="2.00263">
        <ele>13.8</ele>
        <time>2022-04-12T15:17:39Z</time>
      </trkpt>
      <trkpt lat="50.01169" lon="2.00263">
        <ele>13.8</ele>
        <time>2022-04-12T15:17:40Z</time>
      </trkpt>
      <trkpt lat="50.01169" lon="2.00263">
        <ele>13.8</ele>
        <time>2022-04-12T15:17:41Z</time>
      </trkpt>
      <trkpt lat="50.01169" lon="2.00263">
        <ele>13.8</ele>
        <time>2022-04-12T15:17:42Z</time>
      </trkpt>
      <trkpt lat="50.01169" lon="2.00263">
        <ele>13.8</ele>
        <time>2022-04-12T15:17:43Z</time>
      </trkpt>
      <trkpt lat="50.01169" lon="2.00263">
        <ele>13.8</ele>
        <time>2022-04-12T15:17:44Z</time>
      </trkpt>
      <trkpt lat="50.01169" lon="2.00263">
        <ele>13.8</ele>
        <time>2022-04-12T15:17:45Z</time>
      </trkpt>
      <trkpt lat="50.01169" lon="2.00263">
        <ele>13.8</ele>
        <time>2022-04-12T15:17:46Z</time>
      </trkpt>
      <trkpt lat="50.01169" lon="2.00263">
        <ele>13.8</ele>
        <time>2022-04-12T15:17:47Z</time>
      </trkpt>
      <trkpt lat="50.01169" lon="2.00263">
        <ele>13.8</ele>
        <time>2022-04-12T15:17:48Z</time>
      </trkpt>
      <trkpt lat="50.01169" lon="2.00263">
        <ele>13.8</ele>
        <time>2022-04-12T15:17:49Z</time>
      </trkpt>
      <trkpt lat="50.01169" lon="2.00263">
        <ele>13.8</ele>
        <time>2022-04-12T15:17:50Z</time>
      </trkpt>
      <trkpt lat="50.01169" lon="2.00263">
        <ele>13.8</ele>
        <time>2022-04-12T15:17:51Z</time>
      </trkpt>
      <trkpt lat="50.01169" lon="2.00263">
        <ele>13.8</ele>
        <time>2022-04-12T15:17:52Z</time>
      </trkpt>
      <trkpt lat="50.01169" lon="2.00263">
        <ele>13.8</ele>
        <time>2022-04-12T15:17:53Z</time>
      </trkpt>
      <trkpt lat="50.01169" lon="2.00263">
        <ele>13.8</ele>
        <time>2022-04-12T15:17:54Z</time>
      </trkpt>
      <trkpt lat="50.01169" lon="2.00263">
        <ele>13.8</ele>
        <time>2022-04-12T15:17:55Z</time>
      </trkpt>
      <trkpt lat="50.01169" lon="2.00263">
        <ele>13.8</ele>
        <time>2022-04-12T15:17:56Z</time>
      </trkpt>
      <trkpt lat="50.01169" lon="2.00263">
        <ele>13.8</ele>
        <time>2022-04-12T15:17:57Z</time>
      </trkpt>
      <trkpt lat="50.01169" lon="2.00263">
        <ele>13.8</ele>
        <time>2022-04-12T15:17:58Z</time>
      </trkpt>
      <trkpt lat="50.01169" lon="2.00263">
        <ele>13.8</ele>
        <time>2022-04-12T15:17:59Z</time>
      </trkpt>
      <trkpt lat="50.01169" lon="2.00263">
        <ele>13.8</ele>
        <time>2022-04-12T15:18:00Z</time>
      </trkpt>
      <trkpt lat="50.01169" lon="2.00263">
        <ele>13.8</ele>
        <time>2022-04-12T15:18:01Z</time>
      </trkpt>
      <trkpt lat="50.01169" lon="2.00263">
        <ele>13.8</ele>
        <time>2022-04-12T15:18:02Z</time>
      </trkpt>
      <trkpt lat="50.01169" lon="2.00263">
        <ele>13.8</ele>
        <time>2022-04-12T15:18:03Z</time>
      </trkpt>
      <trkpt lat="50.01169" lon="2.00263">
        <ele>13.8</ele>
        <time>2022-04-12T15:18:04Z</time>
      </trkpt>
      <trkpt lat="50.01169" lon="2.00263">
        <ele>13.8</ele>
        <time>2022-04-12T15:18:05Z</time>
      </trkpt>
      <trkpt lat="50.01169" lon="2.00263">
        <ele>13.8</ele>
        <time>2022-04-12T15:18:06Z</time>
      </trkpt>
      <trkpt lat="50.01169" lon="2.00263">
        <ele>13.8</ele>
        <time>2022-04-12T15:18:07Z</time>
      </trkpt>
      <trkpt lat="50.01169" lon="2.00263">
        <ele>13.8</ele>
        <time>2022-04-12T15:18:08Z</time>
      </trkpt>
      <trkpt lat="50.01169" lon="2.00263">
        <ele>13.8</ele>
        <time>2022-04-12T15:18:09Z</time>
      </trkpt>
      <trkpt lat="50.01169" lon="2.00263">
        <ele>13.8</ele>
        <time>2022-04-12T15:18:10Z</time>
      </trkpt>
      <trkpt lat="50.01169" lon="2.00263">
        <ele>13.8</ele>
        <time>2022-04-12T15:18:11Z</time>
      </trkpt>
      <trkpt lat="50.01169" lon="2.00263">
        <ele>13.8</ele>
        <time>2022-04-12T15:18:12Z</time>
      </trkpt>
      <trkpt lat="50.01169" lon="2.00263">
        <ele>13.8</ele>
        <time>2022-04-12T15:18:13Z</time>
      </trkpt>
      <trkpt lat="50.01169" lon="2.00263">
        <ele>13.8</ele>
        <time>2022-04-12T15:18:14Z</time>
      </trkpt>
      <trkpt lat="50.01169" lon="2.00263">
        <ele>13.8</ele>
        <time>2022-04-12T15:18:15Z</time>
      </trkpt>
      <trkpt lat="50.01169" lon="2.00263">
        <ele>13.8</ele>
        <time>2022-04-12T15:18:16Z</time>
      </trkpt>
      <trkpt lat="50.01169" lon="2.00263">
        <ele>13.8</ele>
        <time>2022-04-12T15:18:17Z</time>
      </trkpt>
      <trkpt lat="50.01169" lon="2.00263">
        <ele>13.8</ele>
        <time>2022-04-12T15:18:18Z</time>
      </trkpt>
      <trkpt lat="50.01169" lon="2.00263">
        <ele>13.8</ele>
        <time>2022-04-12T15:18:19Z</time>
      </trkpt>
      <trkpt lat="50.01169" lon="2.00263">
        <ele>13.8</ele>
        <time>2022-04-12T15:18:20Z</time>
      </trkpt>
      <trkpt lat="50.01169" lon="2.00263">
        <ele>13.8</ele>
        <time>2022-04-12T15:18:21Z</time>
      </trkpt>
      <trkpt lat="50.01169" lon="2.00263">
        <ele>13.8</ele>
        <time>2022-04-12T15:18:22Z</time>
      </trkpt>
      <trkpt lat="50.01169" lon="2.00263">
        <ele>13.8</ele>
        <time>2022-04-12T15:18:23Z</time>
      </trkpt>
      <trkpt lat="50.01169" lon="2.00263">
        <ele>13.8</ele>
        <time>2022-04-12T15:18:24Z</time>
      </trkpt>
      <trkpt lat="50.01169" lon="2.00263">
        <ele>13.8</ele>
        <time>2022-04-12T15:18:25Z</time>
      </trkpt>
      <trkpt lat="50.01169" lon="2.00263">
        <ele>13.8</ele>
        <time>2022-04-12T15:18:26Z</time>
      </trkpt>
      <trkpt lat="50.01169" lon="2.00263">
        <ele>13.8</ele>
        <time>2022-04-12T15:18:27Z</time>
      </trkpt>
      <trkpt lat="50.01169" lon="2.00263">
        <ele>13.8</ele>
        <time>2022-04-12T15:18:28Z</time>
      </trkpt>
      <trkpt lat="50.01169" lon="2.00263">
        <ele>13.8</ele>
        <time>2022-04-12T15:18:29Z</time>
      </trkpt>
      <trkpt lat="50.01169" lon="2.00263">
        <ele>13.8</ele>
        <time>2022-04-12T15:18:30Z</time>
      </trkpt>
      <trkpt lat="50.01169" lon="2.00263">
        <ele>13.8</ele>
        <time>2022-04-12T15:18:31Z</time>
      </trkpt>
      <trkpt lat="50.01169" lon="2.00263">
        <ele>13.8</ele>
        <time>2022-04-12T15:18:32Z</time>
      </trkpt>
      <trkpt lat="50.01169" lon="2.00263">
        <ele>13.8</ele>
        <time>2022-04-12T15:18:33Z</time>
      </trkpt>
      <trkpt lat="50.01169" lon="2.00263">
        <ele>13.8</ele>
        <time>2022-04-12T15:18:34Z</time>
      </trkpt>
      <trkpt lat="50.01169" lon="2.00263">
        <ele>13.8</ele>
        <time>2022-04-12T15:18:35Z</time>
      </trkpt>
      <trkpt lat="50.01169" lon="2.00263">
        <ele>13.8</ele>
        <time>2022-04-12T15:18:36Z</time>
      </trkpt>
      <trkpt lat="50.01169" lon="2.00263">
        <ele>13.8</ele>
        <time>2022-04-12T15:18:37Z</time>
      </trkpt>
      <trkpt lat="50.01169" lon="2.00263">
        <ele>13.8</ele>
        <time>2022-04-12T15:18:38Z</time>
      </trkpt>
      <trkpt lat="50.01169" lon="2.00263">
        <ele>13.8</ele>
        <time>2022-04-12T15:18:39Z</time>
      </trkpt>
      <trkpt lat="50.01169" lon="2.00263">
        <ele>13.8</ele>
        <time>2022-04-12T15:18:40Z</time>
      </trkpt>
      <trkpt lat="50.01169" lon="2.00263">
        <ele>13.8</ele>
        <time>2022-04-12T15:18:41Z</time>
      </trkpt>
      <trkpt lat="50.01169" lon="2.00263">
        <ele>13.8</ele>
        <time>2022-04-12T15:18:42Z</time>
      </trkpt>
      <trkpt lat="50.01169" lon="2.00263">
        <ele>13.8</ele>
        <time>2022-04-12T15:18:43Z</time>
      </trkpt>
      <trkpt lat="50.01169" lon="2.00263">
        <ele>13.8</ele>
        <time>2022-04-12T15:18:44Z</time>
      </trkpt>
      <trkpt lat="50.01169" lon="2.00263">
        <ele>13.8</ele>
        <time>2022-04-12T15:18:45Z</time>
      </trkpt>
      <trkpt lat="50.01169" lon="2.00263">
        <ele>13.8</ele>
        <time>2022-04-12T15:18:46Z</time>
      </trkpt>
      <trkpt lat="50.01169" lon="2.00263">
        <ele>13.8</ele>
        <time>2022-04-12T15:18:47Z</time>
      </trkpt>
      <trkpt lat="50.01169" lon="2.00263">
        <ele>13.8</ele>
        <time>2022-04-12T15:18:48Z</time>
      </trkpt>
      <trkpt lat="50.01169" lon="2.00263">
        <ele>13.8</ele>
        <time>2022-04-12T15:18:49Z</time>
      </trkpt>
      <trkpt lat="50.01169" lon="2.00263">
        <ele>13.8</ele>
        <time>2022-04-12T15:18:50Z</time>
      </trkpt>
      <trkpt lat="50.01169" lon="2.00263">
        <ele>13.8</ele>
        <time>2022-04-12T15:18:51Z</time>
      </trkpt>
      <trkpt lat="50.01169" lon="2.00263">
        <ele>13.8</ele>
        <time>2022-04-12T15:18:52Z</time>
      </trkpt>
      <trkpt lat="50.01169" lon="2.00263">
        <ele>13.8</ele>
        <time>2022-04-12T15:18:53Z</time>
      </trkpt>
      <trkpt lat="50.01169" lon="2.00263">
        <ele>13.8</ele>
        <time>2022-04-12T15:18:54Z</time>
      </trkpt>
      <trkpt lat="50.01169" lon="2.00263">
        <ele>13.8</ele>
        <time>2022-04-12T15:18:55Z</time>
      </trkpt>
      <trkpt lat="50.01169" lon="2.00263">
        <ele>13.8</ele>
        <time>2022-04-12T15:18:56Z</time>
      </trkpt>
      <trkpt lat="50.01169" lon="2.00263">
        <ele>13.8</ele>
        <time>2022-04-12T15:18:57Z</time>
      </trkpt>
      <trkpt lat="50.01169" lon="2.00263">
        <ele>13.8</ele>
        <time>2022-04-12T15:18:58Z</time>
      </trkpt>
      <trkpt lat="50.01169" lon="2.00263">
        <ele>13.8</ele>
        <time>2022-04-12T15:18:59Z</time>
      </trkpt>
      <trkpt lat="50.01169" lon="2.00263">
        <ele>13.8</ele>
        <time>2022-04-12T15:19:00Z</time>
      </trkpt>
      <trkpt lat="50.01169" lon="2.00263">
        <ele>13.8</ele>
        <time>2022-04-12T15:19:01Z</time>
      </trkpt>
      <trkpt lat="50.01169" lon="2.00263">
        <ele>13.8</ele>
        <time>2022-04-12T15:19:02Z</time>
      </trkpt>
      <trkpt lat="50.01169" lon="2.00263">
        <ele>13.8</ele>
        <time>2022-04-12T15:19:03Z</time>
      </trkpt>
      <trkpt lat="50.01169" lon="2.00263">
        <ele>13.8</ele>
        <time>2022-04-12T15:19:04Z</time>
      </trkpt>
      <trkpt lat="50.01169" lon="2.00263">
        <ele>13.8</ele>
        <time>2022-04-12T15:19:05Z</time>
      </trkpt>
      <trkpt lat="50.01169" lon="2.00263">
        <ele>13.8</ele>
        <time>2022-04-12T15:19:06Z</time>
      </trkpt>
      <trkpt lat="50.01169" lon="2.00263">
        <ele>13.8</ele>
        <time>2022-04-12T15:19:07Z</time>
      </trkpt>
      <trkpt lat="50.01169" lon="2.00263">
        <ele>13.8</ele>
        <time>2022-04-12T15:19:08Z</time>
      </trkpt>
      <trkpt lat="50.01169" lon="2.00263">
        <ele>13.8</ele>
        <time>2022-04-12T15:19:09Z</time>
      </trkpt>
      <trkpt lat="50.0117" lon="2.00263">
        <ele>13.8</ele>
        <time>2022-04-12T15:19:10Z</time>
      </trkpt>
      <trkpt lat="50.0117" lon="2.00262">
        <ele>13.8</ele>
        <time>2022-04-12T15:19:11Z</time>
      </trkpt>
      <trkpt lat="50.0117" lon="2.00262">
        <ele>13.8</ele>
        <time>2022-04-12T15:19:12Z</time>
      </trkpt>
      <trkpt lat="50.01171" lon="2.00262">
        <ele>13.8</ele>
        <time>2022-04-12T15:19:13Z</time>
      </trkpt>
      <trkpt lat="50.01171" lon="2.00262">
        <ele>13.8</ele>
        <time>2022-04-12T15:19:14Z</time>
      </trkpt>
      <trkpt lat="50.01171" lon="2.00261">
        <ele>13.8</ele>
        <time>2022-04-12T15:19:15Z</time>
      </trkpt>
      <trkpt lat="50.01171" lon="2.00261">
        <ele>13.8</ele>
        <time>2022-04-12T15:19:16Z</time>
      </trkpt>
      <trkpt lat="50.01171" lon="2.00261">
        <ele>13.8</ele>
        <time>2022-04-12T15:19:17Z</time>
      </trkpt>
      <trkpt lat="50.01171" lon="2.00261">
        <ele>13.8</ele>
        <time>2022-04-12T15:19:18Z</time>
      </trkpt>
      <trkpt lat="50.01171" lon="2.00261">
        <ele>13.8</ele>
        <time>2022-04-12T15:19:19Z</time>
      </trkpt>
      <trkpt lat="50.01171" lon="2.00262">
        <ele>13.8</ele>
        <time>2022-04-12T15:19:20Z</time>
      </trkpt>
      <trkpt lat="50.01171" lon="2.00262">
        <ele>13.8</ele>
        <time>2022-04-12T15:19:21Z</time>
      </trkpt>
      <trkpt lat="50.01171" lon="2.00262">
        <ele>13.8</ele>
        <time>2022-04-12T15:19:22Z</time>
      </trkpt>
      <trkpt lat="50.0117" lon="2.00262">
        <ele>13.8</ele>
        <time>2022-04-12T15:19:23Z</time>
      </trkpt>
      <trkpt lat="50.0117" lon="2.00262">
        <ele>13.8</ele>
        <time>2022-04-12T15:19:24Z</time>
      </trkpt>
      <trkpt lat="50.0117" lon="2.00262">
        <ele>13.8</ele>
        <time>2022-04-12T15:19:25Z</time>
      </trkpt>
      <trkpt lat="50.0117" lon="2.00262">
        <ele>13.8</ele>
        <time>2022-04-12T15:19:26Z</time>
      </trkpt>
      <trkpt lat="50.0117" lon="2.00262">
        <ele>13.8</ele>
        <time>2022-04-12T15:19:27Z</time>
      </trkpt>
      <trkpt lat="50.0117" lon="2.00262">
        <ele>13.8</ele>
        <time>2022-04-12T15:19:29Z</time>
      </trkpt>
      <trkpt lat="50.0117" lon="2.00262">
        <ele>13.8</ele>
        <time>2022-04-12T15:19:30Z</time>
      </trkpt>
      <trkpt lat="50.0117" lon="2.00262">
        <ele>13.8</ele>
        <time>2022-04-12T15:19:31Z</time>
      </trkpt>
      <trkpt lat="50.0117" lon="2.00262">
        <ele>13.8</ele>
        <time>2022-04-12T15:19:32Z</time>
      </trkpt>
      <trkpt lat="50.0117" lon="2.00262">
        <ele>13.8</ele>
        <time>2022-04-12T15:19:33Z</time>
      </trkpt>
      <trkpt lat="50.0117" lon="2.00262">
        <ele>13.8</ele>
        <time>2022-04-12T15:19:34Z</time>
      </trkpt>
      <trkpt lat="50.0117" lon="2.00262">
        <ele>13.8</ele>
        <time>2022-04-12T15:19:35Z</time>
      </trkpt>
      <trkpt lat="50.0117" lon="2.00262">
        <ele>13.8</ele>
        <time>2022-04-12T15:19:36Z</time>
      </trkpt>
      <trkpt lat="50.0117" lon="2.00262">
        <ele>13.8</ele>
        <time>2022-04-12T15:19:38Z</time>
      </trkpt>
      <trkpt lat="50.0117" lon="2.00262">
        <ele>13.8</ele>
        <time>2022-04-12T15:19:39Z</time>
      </trkpt>
      <trkpt lat="50.0117" lon="2.00262">
        <ele>13.8</ele>
        <time>2022-04-12T15:19:40Z</time>
      </trkpt>
      <trkpt lat="50.0117" lon="2.00262">
        <ele>13.8</ele>
        <time>2022-04-12T15:19:41Z</time>
      </trkpt>
      <trkpt lat="50.0117" lon="2.00262">
        <ele>13.8</ele>
        <time>2022-04-12T15:19:42Z</time>
      </trkpt>
      <trkpt lat="50.0117" lon="2.00262">
        <ele>13.8</ele>
        <time>2022-04-12T15:19:43Z</time>
      </trkpt>
      <trkpt lat="50.0117" lon="2.00262">
        <ele>13.8</ele>
        <time>2022-04-12T15:19:44Z</time>
      </trkpt>
      <trkpt lat="50.0117" lon="2.00262">
        <ele>13.8</ele>
        <time>2022-04-12T15:19:45Z</time>
      </trkpt>
      <trkpt lat="50.0117" lon="2.00262">
        <ele>13.8</ele>
        <time>2022-04-12T15:19:46Z</time>
      </trkpt>
      <trkpt lat="50.0117" lon="2.00262">
        <ele>13.8</ele>
        <time>2022-04-12T15:19:47Z</time>
      </trkpt>
      <trkpt lat="50.0117" lon="2.00262">
        <ele>13.8</ele>
        <time>2022-04-12T15:19:48Z</time>
      </trkpt>
      <trkpt lat="50.0117" lon="2.00263">
        <ele>13.8</ele>
        <time>2022-04-12T15:19:49Z</time>
      </trkpt>
      <trkpt lat="50.01169" lon="2.00263">
        <ele>13.8</ele>
        <time>2022-04-12T15:19:50Z</time>
      </trkpt>
      <trkpt lat="50.01169" lon="2.00263">
        <ele>13.8</ele>
        <time>2022-04-12T15:19:51Z</time>
      </trkpt>
      <trkpt lat="50.01169" lon="2.00263">
        <ele>13.8</ele>
        <time>2022-04-12T15:19:52Z</time>
      </trkpt>
      <trkpt lat="50.01169" lon="2.00263">
        <ele>13.8</ele>
        <time>2022-04-12T15:19:53Z</time>
      </trkpt>
      <trkpt lat="50.01169" lon="2.00263">
        <ele>13.8</ele>
        <time>2022-04-12T15:19:54Z</time>
      </trkpt>
      <trkpt lat="50.01169" lon="2.00263">
        <ele>13.8</ele>
        <time>2022-04-12T15:19:55Z</time>
      </trkpt>
      <trkpt lat="50.01169" lon="2.00263">
        <ele>13.8</ele>
        <time>2022-04-12T15:19:56Z</time>
      </trkpt>
      <trkpt lat="50.01169" lon="2.00263">
        <ele>13.8</ele>
        <time>2022-04-12T15:19:57Z</time>
      </trkpt>
      <trkpt lat="50.01169" lon="2.00263">
        <ele>13.8</ele>
        <time>2022-04-12T15:19:58Z</time>
      </trkpt>
      <trkpt lat="50.01169" lon="2.00263">
        <ele>13.8</ele>
        <time>2022-04-12T15:19:59Z</time>
      </trkpt>
      <trkpt lat="50.01169" lon="2.00263">
        <ele>13.8</ele>
        <time>2022-04-12T15:20:00Z</time>
      </trkpt>
      <trkpt lat="50.01169" lon="2.00263">
        <ele>13.8</ele>
        <time>2022-04-12T15:20:01Z</time>
      </trkpt>
      <trkpt lat="50.01169" lon="2.00263">
        <ele>13.8</ele>
        <time>2022-04-12T15:20:02Z</time>
      </trkpt>
      <trkpt lat="50.01169" lon="2.00263">
        <ele>13.8</ele>
        <time>2022-04-12T15:20:03Z</time>
      </trkpt>
      <trkpt lat="50.01169" lon="2.00263">
        <ele>13.8</ele>
        <time>2022-04-12T15:20:04Z</time>
      </trkpt>
      <trkpt lat="50.01169" lon="2.00263">
        <ele>13.8</ele>
        <time>2022-04-12T15:20:05Z</time>
      </trkpt>
      <trkpt lat="50.01169" lon="2.00263">
        <ele>13.8</ele>
        <time>2022-04-12T15:20:06Z</time>
      </trkpt>
      <trkpt lat="50.01169" lon="2.00263">
        <ele>13.8</ele>
        <time>2022-04-12T15:20:07Z</time>
      </trkpt>
      <trkpt lat="50.01169" lon="2.00263">
        <ele>13.8</ele>
        <time>2022-04-12T15:20:08Z</time>
      </trkpt>
      <trkpt lat="50.01169" lon="2.00263">
        <ele>13.8</ele>
        <time>2022-04-12T15:20:09Z</time>
      </trkpt>
      <trkpt lat="50.01166" lon="2.0027">
        <ele>13.8</ele>
        <time>2022-04-12T15:20:10Z</time>
      </trkpt>
      <trkpt lat="50.01162" lon="2.00277">
        <ele>13.9</ele>
        <time>2022-04-12T15:20:11Z</time>
      </trkpt>
      <trkpt lat="50.01158" lon="2.00286">
        <ele>13.9</ele>
        <time>2022-04-12T15:20:12Z</time>
      </trkpt>
      <trkpt lat="50.01153" lon="2.00296">
        <ele>13.9</ele>
        <time>2022-04-12T15:20:13Z</time>
      </trkpt>
      <trkpt lat="50.01148" lon="2.00307">
        <ele>13.9</ele>
        <time>2022-04-12T15:20:14Z</time>
      </trkpt>
      <trkpt lat="50.01141" lon="2.00319">
        <ele>13.8</ele>
        <time>2022-04-12T15:20:15Z</time>
      </trkpt>
      <trkpt lat="50.01134" lon="2.00331">
        <ele>13.8</ele>
        <time>2022-04-12T15:20:16Z</time>
      </trkpt>
      <trkpt lat="50.01127" lon="2.00345">
        <ele>13.8</ele>
        <time>2022-04-12T15:20:17Z</time>
      </trkpt>
      <trkpt lat="50.01118" lon="2.00359">
        <ele>13.9</ele>
        <time>2022-04-12T15:20:18Z</time>
      </trkpt>
      <trkpt lat="50.01108" lon="2.00374">
        <ele>13.9</ele>
        <time>2022-04-12T15:20:19Z</time>
      </trkpt>
      <trkpt lat="50.01099" lon="2.00389">
        <ele>14</ele>
        <time>2022-04-12T15:20:20Z</time>
      </trkpt>
      <trkpt lat="50.01088" lon="2.00407">
        <ele>14.2</ele>
        <time>2022-04-12T15:20:21Z</time>
      </trkpt>
      <trkpt lat="50.01077" lon="2.00426">
        <ele>14.3</ele>
        <time>2022-04-12T15:20:22Z</time>
      </trkpt>
      <trkpt lat="50.01065" lon="2.00445">
        <ele>14.4</ele>
        <time>2022-04-12T15:20:23Z</time>
      </trkpt>
      <trkpt lat="50.01054" lon="2.00464">
        <ele>14.6</ele>
        <time>2022-04-12T15:20:24Z</time>
      </trkpt>
      <trkpt lat="50.01043" lon="2.00485">
        <ele>14.7</ele>
        <time>2022-04-12T15:20:25Z</time>
      </trkpt>
      <trkpt lat="50.01032" lon="2.00506">
        <ele>14.9</ele>
        <time>2022-04-12T15:20:26Z</time>
      </trkpt>
      <trkpt lat="50.0102" lon="2.00528">
        <ele>15.2</ele>
        <time>2022-04-12T15:20:27Z</time>
      </trkpt>
      <trkpt lat="50.01009" lon="2.00551">
        <ele>15.4</ele>
        <time>2022-04-12T15:20:28Z</time>
      </trkpt>
      <trkpt lat="50.00997" lon="2.00576">
        <ele>15.7</ele>
        <time>2022-04-12T15:20:29Z</time>
      </trkpt>
      <trkpt lat="50.00986" lon="2.00601">
        <ele>16</ele>
        <time>2022-04-12T15:20:30Z</time>
      </trkpt>
      <trkpt lat="50.00975" lon="2.00626">
        <ele>16.2</ele>
        <time>2022-04-12T15:20:31Z</time>
      </trkpt>
      <trkpt lat="50.00965" lon="2.00654">
        <ele>16.5</ele>
        <time>2022-04-12T15:20:32Z</time>
      </trkpt>
      <trkpt lat="50.00953" lon="2.00682">
        <ele>16.8</ele>
        <time>2022-04-12T15:20:33Z</time>
      </trkpt>
      <trkpt lat="50.00942" lon="2.00712">
        <ele>17.6</ele>
        <time>2022-04-12T15:20:34Z</time>
      </trkpt>
      <trkpt lat="50.00932" lon="2.00744">
        <ele>18.3</ele>
        <time>2022-04-12T15:20:35Z</time>
      </trkpt>
      <trkpt lat="50.00922" lon="2.00776">
        <ele>18.9</ele>
        <time>2022-04-12T15:20:36Z</time>
      </trkpt>
      <trkpt lat="50.00911" lon="2.00809">
        <ele>19.4</ele>
        <time>2022-04-12T15:20:37Z</time>
      </trkpt>
      <trkpt lat="50.00901" lon="2.00841">
        <ele>19.7</ele>
        <time>2022-04-12T15:20:38Z</time>
      </trkpt>
      <trkpt lat="50.0089" lon="2.00872">
        <ele>19.7</ele>
        <time>2022-04-12T15:20:39Z</time>
      </trkpt>
      <trkpt lat="50.0088" lon="2.00903">
        <ele>19.7</ele>
        <time>2022-04-12T15:20:40Z</time>
      </trkpt>
      <trkpt lat="50.0087" lon="2.00935">
        <ele>19.7</ele>
        <time>2022-04-12T15:20:41Z</time>
      </trkpt>
      <trkpt lat="50.0086" lon="2.00967">
        <ele>19.6</ele>
        <time>2022-04-12T15:20:42Z</time>
      </trkpt>
      <trkpt lat="50.0085" lon="2.00998">
        <ele>19.4</ele>
        <time>2022-04-12T15:20:43Z</time>
      </trkpt>
      <trkpt lat="50.00841" lon="2.0103">
        <ele>19.2</ele>
        <time>2022-04-12T15:20:44Z</time>
      </trkpt>
      <trkpt lat="50.00833" lon="2.01062">
        <ele>19</ele>
        <time>2022-04-12T15:20:45Z</time>
      </trkpt>
      <trkpt lat="50.00826" lon="2.01094">
        <ele>18.9</ele>
        <time>2022-04-12T15:20:46Z</time>
      </trkpt>
      <trkpt lat="50.00819" lon="2.01126">
        <ele>18.7</ele>
        <time>2022-04-12T15:20:47Z</time>
      </trkpt>
      <trkpt lat="50.00813" lon="2.01158">
        <ele>18.6</ele>
        <time>2022-04-12T15:20:48Z</time>
      </trkpt>
      <trkpt lat="50.00808" lon="2.01188">
        <ele>18.6</ele>
        <time>2022-04-12T15:20:49Z</time>
      </trkpt>
      <trkpt lat="50.00804" lon="2.01218">
        <ele>18.6</ele>
        <time>2022-04-12T15:20:50Z</time>
      </trkpt>
      <trkpt lat="50.00801" lon="2.01248">
        <ele>18.7</ele>
        <time>2022-04-12T15:20:51Z</time>
      </trkpt>
      <trkpt lat="50.00799" lon="2.01278">
        <ele>18.3</ele>
        <time>2022-04-12T15:20:52Z</time>
      </trkpt>
      <trkpt lat="50.008" lon="2.0131">
        <ele>18</ele>
        <time>2022-04-12T15:20:53Z</time>
      </trkpt>
      <trkpt lat="50.00801" lon="2.01343">
        <ele>17.6</ele>
        <time>2022-04-12T15:20:54Z</time>
      </trkpt>
      <trkpt lat="50.00803" lon="2.01376">
        <ele>17.1</ele>
        <time>2022-04-12T15:20:55Z</time>
      </trkpt>
      <trkpt lat="50.00811" lon="2.01409">
        <ele>16.5</ele>
        <time>2022-04-12T15:20:56Z</time>
      </trkpt>
      <trkpt lat="50.00816" lon="2.01442">
        <ele>16</ele>
        <time>2022-04-12T15:20:57Z</time>
      </trkpt>
      <trkpt lat="50.00821" lon="2.01476">
        <ele>15.6</ele>
        <time>2022-04-12T15:20:58Z</time>
      </trkpt>
      <trkpt lat="50.00825" lon="2.0151">
        <ele>15.2</ele>
        <time>2022-04-12T15:20:59Z</time>
      </trkpt>
      <trkpt lat="50.0083" lon="2.01545">
        <ele>15.1</ele>
        <time>2022-04-12T15:21:00Z</time>
      </trkpt>
      <trkpt lat="50.00837" lon="2.01583">
        <ele>15</ele>
        <time>2022-04-12T15:21:01Z</time>
      </trkpt>
      <trkpt lat="50.00847" lon="2.01624">
        <ele>15.1</ele>
        <time>2022-04-12T15:21:02Z</time>
      </trkpt>
      <trkpt lat="50.00854" lon="2.01664">
        <ele>15.1</ele>
        <time>2022-04-12T15:21:03Z</time>
      </trkpt>
      <trkpt lat="50.00862" lon="2.01708">
        <ele>15.1</ele>
        <time>2022-04-12T15:21:04Z</time>
      </trkpt>
      <trkpt lat="50.00871" lon="2.01753">
        <ele>15</ele>
        <time>2022-04-12T15:21:05Z</time>
      </trkpt>
      <trkpt lat="50.00877" lon="2.01799">
        <ele>15</ele>
        <time>2022-04-12T15:21:06Z</time>
      </trkpt>
      <trkpt lat="50.00882" lon="2.01844">
        <ele>14.9</ele>
        <time>2022-04-12T15:21:07Z</time>
      </trkpt>
      <trkpt lat="50.00885" lon="2.01892">
        <ele>14.9</ele>
        <time>2022-04-12T15:21:08Z</time>
      </trkpt>
      <trkpt lat="50.00888" lon="2.01942">
        <ele>14.8</ele>
        <time>2022-04-12T15:21:09Z</time>
      </trkpt>
      <trkpt lat="50.00889" lon="2.01991">
        <ele>14.8</ele>
        <time>2022-04-12T15:21:10Z</time>
      </trkpt>
      <trkpt lat="50.00891" lon="2.02037">
        <ele>14.7</ele>
        <time>2022-04-12T15:21:11Z</time>
      </trkpt>
      <trkpt lat="50.00891" lon="2.02081">
        <ele>14.7</ele>
        <time>2022-04-12T15:21:12Z</time>
      </trkpt>
      <trkpt lat="50.00893" lon="2.02129">
        <ele>14.6</ele>
        <time>2022-04-12T15:21:13Z</time>
      </trkpt>
      <trkpt lat="50.00894" lon="2.02175">
        <ele>14.6</ele>
        <time>2022-04-12T15:21:14Z</time>
      </trkpt>
      <trkpt lat="50.00895" lon="2.02221">
        <ele>14.5</ele>
        <time>2022-04-12T15:21:15Z</time>
      </trkpt>
      <trkpt lat="50.00896" lon="2.02268">
        <ele>14.5</ele>
        <time>2022-04-12T15:21:16Z</time>
      </trkpt>
      <trkpt lat="50.00896" lon="2.02315">
        <ele>14.4</ele>
        <time>2022-04-12T15:21:17Z</time>
      </trkpt>
      <trkpt lat="50.00897" lon="2.02406">
        <ele>14.3</ele>
        <time>2022-04-12T15:21:19Z</time>
      </trkpt>
      <trkpt lat="50.00898" lon="2.02498">
        <ele>14.2</ele>
        <time>2022-04-12T15:21:21Z</time>
      </trkpt>
      <trkpt lat="50.00898" lon="2.02589">
        <ele>14</ele>
        <time>2022-04-12T15:21:22Z</time>
      </trkpt>
      <trkpt lat="50.00898" lon="2.02634">
        <ele>13.8</ele>
        <time>2022-04-12T15:21:24Z</time>
      </trkpt>
      <trkpt lat="50.00898" lon="2.02725">
        <ele>13.4</ele>
        <time>2022-04-12T15:21:25Z</time>
      </trkpt>
      <trkpt lat="50.00898" lon="2.0277">
        <ele>13.2</ele>
        <time>2022-04-12T15:21:26Z</time>
      </trkpt>
      <trkpt lat="50.00898" lon="2.02815">
        <ele>13</ele>
        <time>2022-04-12T15:21:28Z</time>
      </trkpt>
      <trkpt lat="50.00898" lon="2.02882">
        <ele>13</ele>
        <time>2022-04-12T15:21:29Z</time>
      </trkpt>
      <trkpt lat="50.00898" lon="2.02905">
        <ele>13.1</ele>
        <time>2022-04-12T15:21:30Z</time>
      </trkpt>
      <trkpt lat="50.00898" lon="2.02948">
        <ele>13.3</ele>
        <time>2022-04-12T15:21:31Z</time>
      </trkpt>
      <trkpt lat="50.00899" lon="2.02993">
        <ele>13.5</ele>
        <time>2022-04-12T15:21:32Z</time>
      </trkpt>
      <trkpt lat="50.009" lon="2.03037">
        <ele>13.8</ele>
        <time>2022-04-12T15:21:33Z</time>
      </trkpt>
      <trkpt lat="50.00901" lon="2.03081">
        <ele>14.1</ele>
        <time>2022-04-12T15:21:34Z</time>
      </trkpt>
      <trkpt lat="50.00902" lon="2.03124">
        <ele>14.2</ele>
        <time>2022-04-12T15:21:35Z</time>
      </trkpt>
      <trkpt lat="50.00904" lon="2.03167">
        <ele>14.7</ele>
        <time>2022-04-12T15:21:36Z</time>
      </trkpt>
      <trkpt lat="50.00909" lon="2.03252">
        <ele>14.9</ele>
        <time>2022-04-12T15:21:38Z</time>
      </trkpt>
      <trkpt lat="50.00913" lon="2.03323">
        <ele>15</ele>
        <time>2022-04-12T15:21:39Z</time>
      </trkpt>
      <trkpt lat="50.00915" lon="2.03351">
        <ele>15</ele>
        <time>2022-04-12T15:21:40Z</time>
      </trkpt>
      <trkpt lat="50.00917" lon="2.0338">
        <ele>15</ele>
        <time>2022-04-12T15:21:41Z</time>
      </trkpt>
      <trkpt lat="50.00919" lon="2.03423">
        <ele>15.1</ele>
        <time>2022-04-12T15:21:42Z</time>
      </trkpt>
      <trkpt lat="50.00921" lon="2.03509">
        <ele>15.2</ele>
        <time>2022-04-12T15:21:44Z</time>
      </trkpt>
      <trkpt lat="50.00919" lon="2.03582">
        <ele>15.3</ele>
        <time>2022-04-12T15:21:45Z</time>
      </trkpt>
      <trkpt lat="50.00918" lon="2.0361">
        <ele>15.4</ele>
        <time>2022-04-12T15:21:46Z</time>
      </trkpt>
      <trkpt lat="50.00917" lon="2.03638">
        <ele>15.4</ele>
        <time>2022-04-12T15:21:47Z</time>
      </trkpt>
      <trkpt lat="50.00913" lon="2.03679">
        <ele>15.5</ele>
        <time>2022-04-12T15:21:48Z</time>
      </trkpt>
      <trkpt lat="50.00903" lon="2.03747">
        <ele>15.6</ele>
        <time>2022-04-12T15:21:49Z</time>
      </trkpt>
      <trkpt lat="50.00898" lon="2.03774">
        <ele>15.6</ele>
        <time>2022-04-12T15:21:50Z</time>
      </trkpt>
      <trkpt lat="50.00893" lon="2.03801">
        <ele>15.7</ele>
        <time>2022-04-12T15:21:51Z</time>
      </trkpt>
      <trkpt lat="50.00882" lon="2.03841">
        <ele>15.7</ele>
        <time>2022-04-12T15:21:52Z</time>
      </trkpt>
      <trkpt lat="50.0087" lon="2.03881">
        <ele>15.8</ele>
        <time>2022-04-12T15:21:53Z</time>
      </trkpt>
      <trkpt lat="50.00857" lon="2.03919">
        <ele>15.8</ele>
        <time>2022-04-12T15:21:54Z</time>
      </trkpt>
      <trkpt lat="50.00844" lon="2.03955">
        <ele>15.9</ele>
        <time>2022-04-12T15:21:55Z</time>
      </trkpt>
      <trkpt lat="50.00815" lon="2.04026">
        <ele>16</ele>
        <time>2022-04-12T15:21:57Z</time>
      </trkpt>
      <trkpt lat="50.00787" lon="2.04097">
        <ele>16.2</ele>
        <time>2022-04-12T15:21:59Z</time>
      </trkpt>
      <trkpt lat="50.00763" lon="2.04148">
        <ele>13.2</ele>
        <time>2022-04-12T15:22:00Z</time>
      </trkpt>
      <trkpt lat="50.00755" lon="2.04164">
        <ele>10.2</ele>
        <time>2022-04-12T15:22:01Z</time>
      </trkpt>
      <trkpt lat="50.00729" lon="2.04213">
        <ele>10.2</ele>
        <time>2022-04-12T15:22:02Z</time>
      </trkpt>
      <trkpt lat="50.0072" lon="2.04228">
        <ele>10.2</ele>
        <time>2022-04-12T15:22:03Z</time>
      </trkpt>
      <trkpt lat="50.00683" lon="2.04286">
        <ele>10.1</ele>
        <time>2022-04-12T15:22:05Z</time>
      </trkpt>
      <trkpt lat="50.00654" lon="2.04327">
        <ele>10.1</ele>
        <time>2022-04-12T15:22:06Z</time>
      </trkpt>
      <trkpt lat="50.00644" lon="2.04341">
        <ele>10.1</ele>
        <time>2022-04-12T15:22:07Z</time>
      </trkpt>
      <trkpt lat="50.00624" lon="2.04366">
        <ele>10</ele>
        <time>2022-04-12T15:22:08Z</time>
      </trkpt>
      <trkpt lat="50.00602" lon="2.04392">
        <ele>10</ele>
        <time>2022-04-12T15:22:09Z</time>
      </trkpt>
      <trkpt lat="50.00581" lon="2.04415">
        <ele>10</ele>
        <time>2022-04-12T15:22:10Z</time>
      </trkpt>
      <trkpt lat="50.0056" lon="2.04439">
        <ele>10</ele>
        <time>2022-04-12T15:22:11Z</time>
      </trkpt>
      <trkpt lat="50.00538" lon="2.04464">
        <ele>9.9</ele>
        <time>2022-04-12T15:22:12Z</time>
      </trkpt>
      <trkpt lat="50.00516" lon="2.04485">
        <ele>9.9</ele>
        <time>2022-04-12T15:22:13Z</time>
      </trkpt>
      <trkpt lat="50.00494" lon="2.04508">
        <ele>10.1</ele>
        <time>2022-04-12T15:22:14Z</time>
      </trkpt>
      <trkpt lat="50.00471" lon="2.04531">
        <ele>9.9</ele>
        <time>2022-04-12T15:22:15Z</time>
      </trkpt>
      <trkpt lat="50.00449" lon="2.04552">
        <ele>9.8</ele>
        <time>2022-04-12T15:22:16Z</time>
      </trkpt>
      <trkpt lat="50.00425" lon="2.04572">
        <ele>9.8</ele>
        <time>2022-04-12T15:22:17Z</time>
      </trkpt>
      <trkpt lat="50.00402" lon="2.0459">
        <ele>10</ele>
        <time>2022-04-12T15:22:18Z</time>
      </trkpt>
      <trkpt lat="50.00378" lon="2.04608">
        <ele>10.2</ele>
        <time>2022-04-12T15:22:19Z</time>
      </trkpt>
      <trkpt lat="50.00354" lon="2.04625">
        <ele>10.3</ele>
        <time>2022-04-12T15:22:20Z</time>
      </trkpt>
      <trkpt lat="50.00331" lon="2.0464">
        <ele>10.4</ele>
        <time>2022-04-12T15:22:21Z</time>
      </trkpt>
      <trkpt lat="50.00307" lon="2.04655">
        <ele>10.6</ele>
        <time>2022-04-12T15:22:22Z</time>
      </trkpt>
      <trkpt lat="50.00282" lon="2.04671">
        <ele>10.6</ele>
        <time>2022-04-12T15:22:23Z</time>
      </trkpt>
      <trkpt lat="50.00258" lon="2.04684">
        <ele>10.4</ele>
        <time>2022-04-12T15:22:24Z</time>
      </trkpt>
      <trkpt lat="50.00232" lon="2.04697">
        <ele>10.1</ele>
        <time>2022-04-12T15:22:25Z</time>
      </trkpt>
      <trkpt lat="50.00207" lon="2.0471">
        <ele>9.9</ele>
        <time>2022-04-12T15:22:26Z</time>
      </trkpt>
      <trkpt lat="50.00183" lon="2.04721">
        <ele>10</ele>
        <time>2022-04-12T15:22:27Z</time>
      </trkpt>
      <trkpt lat="50.00157" lon="2.04732">
        <ele>10.5</ele>
        <time>2022-04-12T15:22:28Z</time>
      </trkpt>
      <trkpt lat="50.00132" lon="2.04741">
        <ele>11</ele>
        <time>2022-04-12T15:22:29Z</time>
      </trkpt>
      <trkpt lat="50.00106" lon="2.04751">
        <ele>11.2</ele>
        <time>2022-04-12T15:22:30Z</time>
      </trkpt>
      <trkpt lat="50.00081" lon="2.0476">
        <ele>11.3</ele>
        <time>2022-04-12T15:22:31Z</time>
      </trkpt>
      <trkpt lat="50.00055" lon="2.04769">
        <ele>11.4</ele>
        <time>2022-04-12T15:22:32Z</time>
      </trkpt>
      <trkpt lat="50.00028" lon="2.04777">
        <ele>11.3</ele>
        <time>2022-04-12T15:22:33Z</time>
      </trkpt>
      <trkpt lat="49.99976" lon="2.04792">
        <ele>11.1</ele>
        <time>2022-04-12T15:22:35Z</time>
      </trkpt>
      <trkpt lat="49.99933" lon="2.04804">
        <ele>10.7</ele>
        <time>2022-04-12T15:22:36Z</time>
      </trkpt>
      <trkpt lat="49.99916" lon="2.04809">
        <ele>10.7</ele>
        <time>2022-04-12T15:22:37Z</time>
      </trkpt>
      <trkpt lat="49.99898" lon="2.04814">
        <ele>10.7</ele>
        <time>2022-04-12T15:22:38Z</time>
      </trkpt>
      <trkpt lat="49.99873" lon="2.04822">
        <ele>10.8</ele>
        <time>2022-04-12T15:22:39Z</time>
      </trkpt>
      <trkpt lat="49.99847" lon="2.0483">
        <ele>10.8</ele>
        <time>2022-04-12T15:22:40Z</time>
      </trkpt>
      <trkpt lat="49.99822" lon="2.04838">
        <ele>10.8</ele>
        <time>2022-04-12T15:22:41Z</time>
      </trkpt>
      <trkpt lat="49.99797" lon="2.04846">
        <ele>10.9</ele>
        <time>2022-04-12T15:22:42Z</time>
      </trkpt>
      <trkpt lat="49.99773" lon="2.04855">
        <ele>11</ele>
        <time>2022-04-12T15:22:43Z</time>
      </trkpt>
      <trkpt lat="49.99748" lon="2.04863">
        <ele>11.1</ele>
        <time>2022-04-12T15:22:44Z</time>
      </trkpt>
      <trkpt lat="49.99723" lon="2.04872">
        <ele>11.2</ele>
        <time>2022-04-12T15:22:45Z</time>
      </trkpt>
      <trkpt lat="49.99698" lon="2.04881">
        <ele>11.2</ele>
        <time>2022-04-12T15:22:46Z</time>
      </trkpt>
      <trkpt lat="49.99673" lon="2.0489">
        <ele>11.1</ele>
        <time>2022-04-12T15:22:47Z</time>
      </trkpt>
      <trkpt lat="49.99648" lon="2.04899">
        <ele>11</ele>
        <time>2022-04-12T15:22:48Z</time>
      </trkpt>
      <trkpt lat="49.99622" lon="2.04909">
        <ele>11.1</ele>
        <time>2022-04-12T15:22:49Z</time>
      </trkpt>
      <trkpt lat="49.99597" lon="2.04919">
        <ele>11.1</ele>
        <time>2022-04-12T15:22:50Z</time>
      </trkpt>
      <trkpt lat="49.99572" lon="2.04929">
        <ele>11</ele>
        <time>2022-04-12T15:22:51Z</time>
      </trkpt>
      <trkpt lat="49.99548" lon="2.0494">
        <ele>11.1</ele>
        <time>2022-04-12T15:22:52Z</time>
      </trkpt>
      <trkpt lat="49.99524" lon="2.04951">
        <ele>11.2</ele>
        <time>2022-04-12T15:22:53Z</time>
      </trkpt>
      <trkpt lat="49.99484" lon="2.04972">
        <ele>11.3</ele>
        <time>2022-04-12T15:22:54Z</time>
      </trkpt>
      <trkpt lat="49.99468" lon="2.04981">
        <ele>11.3</ele>
        <time>2022-04-12T15:22:55Z</time>
      </trkpt>
      <trkpt lat="49.99452" lon="2.0499">
        <ele>11.3</ele>
        <time>2022-04-12T15:22:56Z</time>
      </trkpt>
      <trkpt lat="49.99429" lon="2.05005">
        <ele>11.3</ele>
        <time>2022-04-12T15:22:57Z</time>
      </trkpt>
      <trkpt lat="49.99406" lon="2.05021">
        <ele>11.4</ele>
        <time>2022-04-12T15:22:58Z</time>
      </trkpt>
      <trkpt lat="49.99384" lon="2.05038">
        <ele>11.4</ele>
        <time>2022-04-12T15:22:59Z</time>
      </trkpt>
      <trkpt lat="49.99364" lon="2.05056">
        <ele>11.4</ele>
        <time>2022-04-12T15:23:00Z</time>
      </trkpt>
      <trkpt lat="49.99343" lon="2.05073">
        <ele>11.4</ele>
        <time>2022-04-12T15:23:01Z</time>
      </trkpt>
      <trkpt lat="49.99323" lon="2.0509">
        <ele>11.5</ele>
        <time>2022-04-12T15:23:02Z</time>
      </trkpt>
      <trkpt lat="49.99304" lon="2.05108">
        <ele>11.6</ele>
        <time>2022-04-12T15:23:03Z</time>
      </trkpt>
      <trkpt lat="49.99284" lon="2.05126">
        <ele>11.6</ele>
        <time>2022-04-12T15:23:04Z</time>
      </trkpt>
    </trkseg>
  </trk>
</gpx>